<?xml version='1.0' encoding='UTF-8'?><gpx version="1.1" creator="JPX - https://github.com/jenetics/jpx" xmlns="http://www.topografix.com/GPX/1/1"><trk><trkseg><trkpt lat="43.81164381072778" lon="11.078166712689747"><ele>34.0</ele><time>2026-03-28T09:33:52Z</time></trkpt><trkpt lat="43.811573200618845" lon="11.078123863248457"><ele>34.0</ele><time>2026-03-28T09:34:38Z</time></trkpt><trkpt lat="43.81144452879866" lon="11.07826057051275"><ele>34.0</ele><time>2026-03-28T09:34:41Z</time></trkpt><trkpt lat="43.81145188972545" lon="11.078442632429304"><ele>34.0</ele><time>2026-03-28T09:34:42Z</time></trkpt><trkpt lat="43.811428933608134" lon="11.078594825682586"><ele>34.0</ele><time>2026-03-28T09:34:43Z</time></trkpt><trkpt lat="43.81142109950835" lon="11.078777627834455"><ele>34.0</ele><time>2026-03-28T09:34:45Z</time></trkpt><trkpt lat="43.81138652581195" lon="11.078976653192461"><ele>34.0</ele><time>2026-03-28T09:34:46Z</time></trkpt><trkpt lat="43.8113446522556" lon="11.079217700586351"><ele>34.0</ele><time>2026-03-28T09:34:47Z</time></trkpt><trkpt lat="43.81131795414641" lon="11.079520220730586"><ele>34.0</ele><time>2026-03-28T09:34:48Z</time></trkpt><trkpt lat="43.81125974877832" lon="11.079811400265564"><ele>34.0</ele><time>2026-03-28T09:34:49Z</time></trkpt><trkpt lat="43.81121480094219" lon="11.080065800179229"><ele>34.0</ele><time>2026-03-28T09:34:50Z</time></trkpt><trkpt lat="43.811172866371905" lon="11.080295690700433"><ele>34.0</ele><time>2026-03-28T09:34:51Z</time></trkpt><trkpt lat="43.811117742158316" lon="11.08049896480554"><ele>34.0</ele><time>2026-03-28T09:34:52Z</time></trkpt><trkpt lat="43.81104464728482" lon="11.080904128694618"><ele>34.0</ele><time>2026-03-28T09:34:54Z</time></trkpt><trkpt lat="43.81100540046426" lon="11.081121673299378"><ele>34.0</ele><time>2026-03-28T09:34:55Z</time></trkpt><trkpt lat="43.81096943708148" lon="11.081321080736144"><ele>34.0</ele><time>2026-03-28T09:34:56Z</time></trkpt><trkpt lat="43.8109369136139" lon="11.081501402061456"><ele>34.0</ele><time>2026-03-28T09:34:57Z</time></trkpt><trkpt lat="43.81090570186916" lon="11.081674450742463"><ele>34.0</ele><time>2026-03-28T09:34:58Z</time></trkpt><trkpt lat="43.8108786006976" lon="11.081819998259338"><ele>34.0</ele><time>2026-03-28T09:34:59Z</time></trkpt><trkpt lat="43.81085234577466" lon="11.08192909889549"><ele>34.0</ele><time>2026-03-28T09:35:00Z</time></trkpt><trkpt lat="43.81077936913684" lon="11.082000925621818"><ele>34.0</ele><time>2026-03-28T09:35:01Z</time></trkpt><trkpt lat="43.81068995132279" lon="11.082036798264735"><ele>34.0</ele><time>2026-03-28T09:35:02Z</time></trkpt><trkpt lat="43.81058551307186" lon="11.082014353969006"><ele>34.0</ele><time>2026-03-28T09:35:03Z</time></trkpt><trkpt lat="43.81048140940088" lon="11.081923359902833"><ele>34.0</ele><time>2026-03-28T09:35:04Z</time></trkpt><trkpt lat="43.81036117908136" lon="11.081856369044434"><ele>34.0</ele><time>2026-03-28T09:35:05Z</time></trkpt><trkpt lat="43.8102310495717" lon="11.081803499714718"><ele>34.0</ele><time>2026-03-28T09:35:06Z</time></trkpt><trkpt lat="43.810105166470656" lon="11.081728229089277"><ele>34.0</ele><time>2026-03-28T09:35:07Z</time></trkpt><trkpt lat="43.809966025709876" lon="11.081652318030947"><ele>34.0</ele><time>2026-03-28T09:35:08Z</time></trkpt><trkpt lat="43.80982206689894" lon="11.081529787232903"><ele>34.0</ele><time>2026-03-28T09:35:09Z</time></trkpt><trkpt lat="43.8096697918196" lon="11.081413801864374"><ele>34.0</ele><time>2026-03-28T09:35:10Z</time></trkpt><trkpt lat="43.809513896431405" lon="11.081313643379362"><ele>34.0</ele><time>2026-03-28T09:35:11Z</time></trkpt><trkpt lat="43.80938465067412" lon="11.081186016885162"><ele>34.0</ele><time>2026-03-28T09:35:12Z</time></trkpt><trkpt lat="43.80926361672955" lon="11.081042272616637"><ele>34.0</ele><time>2026-03-28T09:35:13Z</time></trkpt><trkpt lat="43.809149659750275" lon="11.080914681446501"><ele>34.0</ele><time>2026-03-28T09:35:14Z</time></trkpt><trkpt lat="43.80904337980047" lon="11.080795685811974"><ele>34.0</ele><time>2026-03-28T09:35:15Z</time></trkpt><trkpt lat="43.80894238422676" lon="11.080682606795314"><ele>34.0</ele><time>2026-03-28T09:35:16Z</time></trkpt><trkpt lat="43.80885514906915" lon="11.080594302789752"><ele>33.8</ele><time>2026-03-28T09:35:17Z</time></trkpt><trkpt lat="43.80877660939728" lon="11.080505036313797"><ele>33.599999999999994</ele><time>2026-03-28T09:35:18Z</time></trkpt><trkpt lat="43.80870485631244" lon="11.080415984341357"><ele>33.4</ele><time>2026-03-28T09:35:19Z</time></trkpt><trkpt lat="43.80862503124029" lon="11.080320246651148"><ele>33.199999999999996</ele><time>2026-03-28T09:35:20Z</time></trkpt><trkpt lat="43.808521581455196" lon="11.080202127786654"><ele>33.0</ele><time>2026-03-28T09:35:21Z</time></trkpt><trkpt lat="43.8083946164474" lon="11.080009835427921"><ele>33.0</ele><time>2026-03-28T09:35:22Z</time></trkpt><trkpt lat="43.8082388970441" lon="11.079791950641994"><ele>33.0</ele><time>2026-03-28T09:35:23Z</time></trkpt><trkpt lat="43.80809956420956" lon="11.079608834367642"><ele>33.0</ele><time>2026-03-28T09:35:24Z</time></trkpt><trkpt lat="43.80796737952768" lon="11.079473306921319"><ele>33.0</ele><time>2026-03-28T09:35:25Z</time></trkpt><trkpt lat="43.807867197963" lon="11.079322804559101"><ele>33.0</ele><time>2026-03-28T09:35:26Z</time></trkpt><trkpt lat="43.80776858763313" lon="11.079206388559326"><ele>33.0</ele><time>2026-03-28T09:35:27Z</time></trkpt><trkpt lat="43.80767266869726" lon="11.079106784654362"><ele>33.0</ele><time>2026-03-28T09:35:28Z</time></trkpt><trkpt lat="43.8075755379492" lon="11.079027252802085"><ele>33.25</ele><time>2026-03-28T09:35:29Z</time></trkpt><trkpt lat="43.80746683988954" lon="11.078943977238463"><ele>33.5</ele><time>2026-03-28T09:35:30Z</time></trkpt><trkpt lat="43.807342077937925" lon="11.078876700592744"><ele>33.75</ele><time>2026-03-28T09:35:31Z</time></trkpt><trkpt lat="43.80718323091475" lon="11.078734308394969"><ele>34.0</ele><time>2026-03-28T09:35:32Z</time></trkpt><trkpt lat="43.80697425069932" lon="11.078578339750448"><ele>33.66666666666667</ele><time>2026-03-28T09:35:33Z</time></trkpt><trkpt lat="43.80679262865939" lon="11.07843468170907"><ele>33.333333333333336</ele><time>2026-03-28T09:35:34Z</time></trkpt><trkpt lat="43.80665206474628" lon="11.078304953834605"><ele>33.0</ele><time>2026-03-28T09:35:35Z</time></trkpt><trkpt lat="43.80654229303832" lon="11.078196844899214"><ele>33.0</ele><time>2026-03-28T09:35:36Z</time></trkpt><trkpt lat="43.80644164348973" lon="11.078117395518069"><ele>33.0</ele><time>2026-03-28T09:35:37Z</time></trkpt><trkpt lat="43.80632011450519" lon="11.078101319002464"><ele>33.0</ele><time>2026-03-28T09:35:38Z</time></trkpt><trkpt lat="43.80619389678047" lon="11.078157992085321"><ele>33.0</ele><time>2026-03-28T09:35:39Z</time></trkpt><trkpt lat="43.80606060650697" lon="11.078235053356883"><ele>33.0</ele><time>2026-03-28T09:35:40Z</time></trkpt><trkpt lat="43.80590873517788" lon="11.078323247412005"><ele>33.0</ele><time>2026-03-28T09:35:41Z</time></trkpt><trkpt lat="43.80575031806732" lon="11.078370564187855"><ele>33.0</ele><time>2026-03-28T09:35:42Z</time></trkpt><trkpt lat="43.805608800894845" lon="11.07840381942919"><ele>33.0</ele><time>2026-03-28T09:35:43Z</time></trkpt><trkpt lat="43.805475053481" lon="11.078401012733545"><ele>33.0</ele><time>2026-03-28T09:35:44Z</time></trkpt><trkpt lat="43.80534201243192" lon="11.078379709646596"><ele>33.0</ele><time>2026-03-28T09:35:45Z</time></trkpt><trkpt lat="43.8052186420966" lon="11.078350807883412"><ele>33.0</ele><time>2026-03-28T09:35:46Z</time></trkpt><trkpt lat="43.805105754865096" lon="11.07829795624138"><ele>33.333333333333336</ele><time>2026-03-28T09:35:47Z</time></trkpt><trkpt lat="43.80497244621771" lon="11.078259617361235"><ele>33.66666666666667</ele><time>2026-03-28T09:35:48Z</time></trkpt><trkpt lat="43.80483464671287" lon="11.078152534133409"><ele>34.0</ele><time>2026-03-28T09:35:49Z</time></trkpt><trkpt lat="43.80466854939692" lon="11.078047471064327"><ele>34.0</ele><time>2026-03-28T09:35:50Z</time></trkpt><trkpt lat="43.80451334970999" lon="11.077925588661875"><ele>34.0</ele><time>2026-03-28T09:35:51Z</time></trkpt><trkpt lat="43.8043973938586" lon="11.077777634097934"><ele>34.0</ele><time>2026-03-28T09:35:52Z</time></trkpt><trkpt lat="43.8042824330996" lon="11.077667119584603"><ele>33.8</ele><time>2026-03-28T09:35:53Z</time></trkpt><trkpt lat="43.804182901968765" lon="11.07757821257964"><ele>33.599999999999994</ele><time>2026-03-28T09:35:54Z</time></trkpt><trkpt lat="43.804088085949076" lon="11.077524605960322"><ele>33.4</ele><time>2026-03-28T09:35:55Z</time></trkpt><trkpt lat="43.80401133197969" lon="11.077455984147246"><ele>33.199999999999996</ele><time>2026-03-28T09:35:56Z</time></trkpt><trkpt lat="43.80390315093747" lon="11.077460851243144"><ele>33.0</ele><time>2026-03-28T09:35:57Z</time></trkpt><trkpt lat="43.803798199531506" lon="11.077569116878633"><ele>33.0</ele><time>2026-03-28T09:35:58Z</time></trkpt><trkpt lat="43.8036837023969" lon="11.077657462111745"><ele>33.0</ele><time>2026-03-28T09:35:59Z</time></trkpt><trkpt lat="43.80357629194692" lon="11.077707875925332"><ele>33.0</ele><time>2026-03-28T09:36:00Z</time></trkpt><trkpt lat="43.803481590954334" lon="11.077669580274083"><ele>33.0</ele><time>2026-03-28T09:36:01Z</time></trkpt><trkpt lat="43.803397124744755" lon="11.077627734370921"><ele>33.0</ele><time>2026-03-28T09:36:02Z</time></trkpt><trkpt lat="43.803312096004674" lon="11.077506206787884"><ele>33.0</ele><time>2026-03-28T09:36:03Z</time></trkpt><trkpt lat="43.80321838630019" lon="11.07737396324574"><ele>33.0</ele><time>2026-03-28T09:36:04Z</time></trkpt><trkpt lat="43.803097216592526" lon="11.077235080038248"><ele>33.0</ele><time>2026-03-28T09:36:05Z</time></trkpt><trkpt lat="43.802941407598034" lon="11.077087336761632"><ele>33.0</ele><time>2026-03-28T09:36:06Z</time></trkpt><trkpt lat="43.80278244622097" lon="11.076943159920493"><ele>33.0</ele><time>2026-03-28T09:36:07Z</time></trkpt><trkpt lat="43.80264383456312" lon="11.076814992261973"><ele>33.0</ele><time>2026-03-28T09:36:08Z</time></trkpt><trkpt lat="43.802535281989485" lon="11.076666258954269"><ele>33.666666666666664</ele><time>2026-03-28T09:36:09Z</time></trkpt><trkpt lat="43.802407960012985" lon="11.076519446953613"><ele>34.33333333333333</ele><time>2026-03-28T09:36:10Z</time></trkpt><trkpt lat="43.8022662052229" lon="11.076358454624994"><ele>35.0</ele><time>2026-03-28T09:36:11Z</time></trkpt><trkpt lat="43.80210476794523" lon="11.076173113678834"><ele>35.0</ele><time>2026-03-28T09:36:12Z</time></trkpt><trkpt lat="43.80193316398267" lon="11.075970445364147"><ele>35.0</ele><time>2026-03-28T09:36:13Z</time></trkpt><trkpt lat="43.80178182042619" lon="11.075770992312187"><ele>35.0</ele><time>2026-03-28T09:36:14Z</time></trkpt><trkpt lat="43.80165451592578" lon="11.075595020913283"><ele>34.33333333333333</ele><time>2026-03-28T09:36:15Z</time></trkpt><trkpt lat="43.80153655408848" lon="11.07542755609201"><ele>33.666666666666664</ele><time>2026-03-28T09:36:16Z</time></trkpt><trkpt lat="43.801428294831304" lon="11.075275087531347"><ele>33.0</ele><time>2026-03-28T09:36:17Z</time></trkpt><trkpt lat="43.8013302963929" lon="11.075142571365847"><ele>33.0</ele><time>2026-03-28T09:36:18Z</time></trkpt><trkpt lat="43.80124813687744" lon="11.075037406838389"><ele>33.0</ele><time>2026-03-28T09:36:19Z</time></trkpt><trkpt lat="43.80115705618687" lon="11.07494109724415"><ele>33.0</ele><time>2026-03-28T09:36:20Z</time></trkpt><trkpt lat="43.80105376368315" lon="11.074873147084265"><ele>33.0</ele><time>2026-03-28T09:36:21Z</time></trkpt><trkpt lat="43.80096493188488" lon="11.074794080738064"><ele>33.0</ele><time>2026-03-28T09:36:22Z</time></trkpt><trkpt lat="43.80086713271892" lon="11.074746646457015"><ele>34.25</ele><time>2026-03-28T09:36:23Z</time></trkpt><trkpt lat="43.800758476799075" lon="11.074745580659714"><ele>35.5</ele><time>2026-03-28T09:36:24Z</time></trkpt><trkpt lat="43.80064967347097" lon="11.07477274103932"><ele>36.75</ele><time>2026-03-28T09:36:25Z</time></trkpt><trkpt lat="43.80056536273377" lon="11.074791954532499"><ele>38.0</ele><time>2026-03-28T09:36:26Z</time></trkpt><trkpt lat="43.80043520694687" lon="11.07469858918586"><ele>38.0</ele><time>2026-03-28T09:36:28Z</time></trkpt><trkpt lat="43.800342385027115" lon="11.07463307045685"><ele>38.0</ele><time>2026-03-28T09:36:29Z</time></trkpt><trkpt lat="43.80027320473632" lon="11.07457352492242"><ele>38.0</ele><time>2026-03-28T09:36:30Z</time></trkpt><trkpt lat="43.80020845115035" lon="11.07453497349345"><ele>38.0</ele><time>2026-03-28T09:36:31Z</time></trkpt><trkpt lat="43.80011294277836" lon="11.074553087193989"><ele>38.0</ele><time>2026-03-28T09:36:32Z</time></trkpt><trkpt lat="43.800039761677084" lon="11.074595588972416"><ele>38.0</ele><time>2026-03-28T09:36:33Z</time></trkpt><trkpt lat="43.799961355686115" lon="11.074657227115285"><ele>38.0</ele><time>2026-03-28T09:36:34Z</time></trkpt><trkpt lat="43.79986781067498" lon="11.07470196521879"><ele>38.0</ele><time>2026-03-28T09:36:35Z</time></trkpt><trkpt lat="43.799793633652" lon="11.074765265645663"><ele>38.0</ele><time>2026-03-28T09:36:36Z</time></trkpt><trkpt lat="43.79971917631633" lon="11.074838773854616"><ele>38.0</ele><time>2026-03-28T09:36:37Z</time></trkpt><trkpt lat="43.79965775985245" lon="11.07494646506102"><ele>38.0</ele><time>2026-03-28T09:36:38Z</time></trkpt><trkpt lat="43.79959962410513" lon="11.075060327711334"><ele>38.0</ele><time>2026-03-28T09:36:39Z</time></trkpt><trkpt lat="43.799540179232224" lon="11.075173838988473"><ele>38.0</ele><time>2026-03-28T09:36:40Z</time></trkpt><trkpt lat="43.799472515592136" lon="11.075300359131866"><ele>38.0</ele><time>2026-03-28T09:36:41Z</time></trkpt><trkpt lat="43.799385866499826" lon="11.075434449104224"><ele>38.0</ele><time>2026-03-28T09:36:42Z</time></trkpt><trkpt lat="43.79928316926667" lon="11.075550990341071"><ele>38.0</ele><time>2026-03-28T09:36:43Z</time></trkpt><trkpt lat="43.799173146884414" lon="11.075652168454228"><ele>38.0</ele><time>2026-03-28T09:36:44Z</time></trkpt><trkpt lat="43.799053815003255" lon="11.075755722660766"><ele>38.0</ele><time>2026-03-28T09:36:45Z</time></trkpt><trkpt lat="43.79891180416006" lon="11.075877964317478"><ele>38.0</ele><time>2026-03-28T09:36:46Z</time></trkpt><trkpt lat="43.79875674547078" lon="11.076036385384953"><ele>37.33333333333333</ele><time>2026-03-28T09:36:47Z</time></trkpt><trkpt lat="43.79857758859109" lon="11.076167069764063"><ele>36.666666666666664</ele><time>2026-03-28T09:36:48Z</time></trkpt><trkpt lat="43.79842623706526" lon="11.076296765311104"><ele>36.0</ele><time>2026-03-28T09:36:49Z</time></trkpt><trkpt lat="43.79829001413227" lon="11.076419427158493"><ele>36.0</ele><time>2026-03-28T09:36:49.999Z</time></trkpt><trkpt lat="43.79817239872986" lon="11.076523520460647"><ele>36.0</ele><time>2026-03-28T09:36:50.999Z</time></trkpt><trkpt lat="43.798068013659865" lon="11.076612868142833"><ele>36.0</ele><time>2026-03-28T09:36:51.999Z</time></trkpt><trkpt lat="43.797971464932836" lon="11.076695483506102"><ele>36.0</ele><time>2026-03-28T09:36:52.999Z</time></trkpt><trkpt lat="43.7978568682234" lon="11.076793000611175"><ele>36.0</ele><time>2026-03-28T09:36:53.999Z</time></trkpt><trkpt lat="43.79772998022197" lon="11.076902771054257"><ele>36.0</ele><time>2026-03-28T09:36:54.999Z</time></trkpt><trkpt lat="43.79757355185807" lon="11.077042040567997"><ele>36.0</ele><time>2026-03-28T09:36:55.999Z</time></trkpt><trkpt lat="43.79738117637088" lon="11.077211245279802"><ele>36.0</ele><time>2026-03-28T09:36:56.999Z</time></trkpt><trkpt lat="43.79716004022976" lon="11.077405746474886"><ele>36.0</ele><time>2026-03-28T09:36:57.999Z</time></trkpt><trkpt lat="43.79691168474339" lon="11.077630520405974"><ele>35.0</ele><time>2026-03-28T09:36:58.999Z</time></trkpt><trkpt lat="43.79665721497812" lon="11.077893749861527"><ele>34.0</ele><time>2026-03-28T09:36:59.999Z</time></trkpt><trkpt lat="43.796437041077006" lon="11.078164586491944"><ele>33.5</ele><time>2026-03-28T09:37:00.999Z</time></trkpt><trkpt lat="43.796246587819624" lon="11.078403511794665"><ele>33.0</ele><time>2026-03-28T09:37:01.999Z</time></trkpt><trkpt lat="43.796061879204544" lon="11.078636378189692"><ele>33.0</ele><time>2026-03-28T09:37:02.999Z</time></trkpt><trkpt lat="43.79587603438311" lon="11.078870676932672"><ele>33.0</ele><time>2026-03-28T09:37:03.999Z</time></trkpt><trkpt lat="43.795689397219746" lon="11.079104304296857"><ele>33.333333333333336</ele><time>2026-03-28T09:37:04.999Z</time></trkpt><trkpt lat="43.79551548561943" lon="11.079320043431668"><ele>33.66666666666667</ele><time>2026-03-28T09:37:05.999Z</time></trkpt><trkpt lat="43.79535234650579" lon="11.079512194021282"><ele>34.0</ele><time>2026-03-28T09:37:06.999Z</time></trkpt><trkpt lat="43.795201362070216" lon="11.07966872928592"><ele>33.333333333333336</ele><time>2026-03-28T09:37:07.999Z</time></trkpt><trkpt lat="43.79503590381582" lon="11.079832167021504"><ele>32.666666666666664</ele><time>2026-03-28T09:37:08.999Z</time></trkpt><trkpt lat="43.79487162649399" lon="11.08001431413009"><ele>32.0</ele><time>2026-03-28T09:37:09.999Z</time></trkpt><trkpt lat="43.79469562482761" lon="11.080157851813906"><ele>32.0</ele><time>2026-03-28T09:37:10.999Z</time></trkpt><trkpt lat="43.794510422190115" lon="11.080291317628076"><ele>32.0</ele><time>2026-03-28T09:37:11.999Z</time></trkpt><trkpt lat="43.79431715134864" lon="11.080416440099889"><ele>32.0</ele><time>2026-03-28T09:37:12.999Z</time></trkpt><trkpt lat="43.794132077114014" lon="11.080535477536648"><ele>32.0</ele><time>2026-03-28T09:37:13.999Z</time></trkpt><trkpt lat="43.79395604739439" lon="11.080652461111706"><ele>32.0</ele><time>2026-03-28T09:37:14.999Z</time></trkpt><trkpt lat="43.79378913836576" lon="11.08075797408595"><ele>32.0</ele><time>2026-03-28T09:37:15.999Z</time></trkpt><trkpt lat="43.79362147548459" lon="11.080839220189626"><ele>32.33333333333333</ele><time>2026-03-28T09:37:16.999Z</time></trkpt><trkpt lat="43.79344217316408" lon="11.080913541460538"><ele>32.666666666666664</ele><time>2026-03-28T09:37:17.999Z</time></trkpt><trkpt lat="43.793255089019524" lon="11.080981764046225"><ele>33.0</ele><time>2026-03-28T09:37:18.999Z</time></trkpt><trkpt lat="43.79306390234233" lon="11.081057851460423"><ele>33.0</ele><time>2026-03-28T09:37:20Z</time></trkpt><trkpt lat="43.792891878269224" lon="11.08113417171314"><ele>33.0</ele><time>2026-03-28T09:37:21Z</time></trkpt><trkpt lat="43.79272066892265" lon="11.08118467547209"><ele>33.0</ele><time>2026-03-28T09:37:22Z</time></trkpt><trkpt lat="43.792552114252956" lon="11.08125558043456"><ele>34.0</ele><time>2026-03-28T09:37:23Z</time></trkpt><trkpt lat="43.79239288137384" lon="11.081322676468695"><ele>35.0</ele><time>2026-03-28T09:37:24Z</time></trkpt><trkpt lat="43.79224548205334" lon="11.081379656374237"><ele>36.0</ele><time>2026-03-28T09:37:25Z</time></trkpt><trkpt lat="43.792112422417055" lon="11.081451122585737"><ele>36.0</ele><time>2026-03-28T09:37:26Z</time></trkpt><trkpt lat="43.79196891616027" lon="11.081482103685044"><ele>36.0</ele><time>2026-03-28T09:37:27Z</time></trkpt><trkpt lat="43.79181810975742" lon="11.081504734451281"><ele>36.0</ele><time>2026-03-28T09:37:28Z</time></trkpt><trkpt lat="43.791657974298815" lon="11.08151681273016"><ele>37.0</ele><time>2026-03-28T09:37:29Z</time></trkpt><trkpt lat="43.791507471371645" lon="11.081520712647302"><ele>38.0</ele><time>2026-03-28T09:37:30Z</time></trkpt><trkpt lat="43.791360443740196" lon="11.081528417964645"><ele>39.0</ele><time>2026-03-28T09:37:31Z</time></trkpt><trkpt lat="43.79120329273568" lon="11.08154537227808"><ele>39.0</ele><time>2026-03-28T09:37:32Z</time></trkpt><trkpt lat="43.79103939221647" lon="11.081571866004374"><ele>39.0</ele><time>2026-03-28T09:37:33Z</time></trkpt><trkpt lat="43.79086090550966" lon="11.081607031623255"><ele>39.0</ele><time>2026-03-28T09:37:34Z</time></trkpt><trkpt lat="43.790694999982406" lon="11.081643310875597"><ele>42.0</ele><time>2026-03-28T09:37:35Z</time></trkpt><trkpt lat="43.79053764237635" lon="11.081683675885994"><ele>45.0</ele><time>2026-03-28T09:37:36Z</time></trkpt><trkpt lat="43.79039846547205" lon="11.08173499945931"><ele>48.0</ele><time>2026-03-28T09:37:37Z</time></trkpt><trkpt lat="43.79027164672888" lon="11.081809538131893"><ele>51.0</ele><time>2026-03-28T09:37:38Z</time></trkpt><trkpt lat="43.790137415497895" lon="11.081868297585155"><ele>53.0</ele><time>2026-03-28T09:37:39Z</time></trkpt><trkpt lat="43.790008487395525" lon="11.081945473797607"><ele>55.0</ele><time>2026-03-28T09:37:40Z</time></trkpt><trkpt lat="43.78990043721815" lon="11.082032729192811"><ele>57.0</ele><time>2026-03-28T09:37:41Z</time></trkpt><trkpt lat="43.78979922188641" lon="11.082083982225791"><ele>59.0</ele><time>2026-03-28T09:37:42Z</time></trkpt><trkpt lat="43.789722707642895" lon="11.082119912562916"><ele>59.0</ele><time>2026-03-28T09:37:43Z</time></trkpt><trkpt lat="43.78965717889699" lon="11.082156908398007"><ele>59.0</ele><time>2026-03-28T09:37:44Z</time></trkpt><trkpt lat="43.789593933544296" lon="11.082191659686577"><ele>59.0</ele><time>2026-03-28T09:37:45Z</time></trkpt><trkpt lat="43.78952969644742" lon="11.082222936734635"><ele>59.0</ele><time>2026-03-28T09:37:46Z</time></trkpt><trkpt lat="43.78946535025829" lon="11.082258201365454"><ele>59.0</ele><time>2026-03-28T09:37:47Z</time></trkpt><trkpt lat="43.789391408961414" lon="11.082293450214522"><ele>59.0</ele><time>2026-03-28T09:37:48Z</time></trkpt><trkpt lat="43.78930409510214" lon="11.082330701515758"><ele>59.0</ele><time>2026-03-28T09:37:49Z</time></trkpt><trkpt lat="43.789207956617496" lon="11.08236700101351"><ele>60.6</ele><time>2026-03-28T09:37:50Z</time></trkpt><trkpt lat="43.78911136997838" lon="11.082410959472107"><ele>62.2</ele><time>2026-03-28T09:37:51Z</time></trkpt><trkpt lat="43.78900947282885" lon="11.082456982204018"><ele>63.800000000000004</ele><time>2026-03-28T09:37:52Z</time></trkpt><trkpt lat="43.78890922978895" lon="11.082503149577118"><ele>65.4</ele><time>2026-03-28T09:37:53Z</time></trkpt><trkpt lat="43.78880081880906" lon="11.082551446796527"><ele>67.0</ele><time>2026-03-28T09:37:54Z</time></trkpt><trkpt lat="43.7886687496099" lon="11.08261078730022"><ele>67.25</ele><time>2026-03-28T09:37:55Z</time></trkpt><trkpt lat="43.78852768023143" lon="11.08268380710496"><ele>67.5</ele><time>2026-03-28T09:37:56Z</time></trkpt><trkpt lat="43.788426445069916" lon="11.082729370190101"><ele>67.75</ele><time>2026-03-28T09:37:57Z</time></trkpt><trkpt lat="43.788332297272035" lon="11.082785222972388"><ele>68.0</ele><time>2026-03-28T09:37:58Z</time></trkpt><trkpt lat="43.788245964814465" lon="11.082822192885759"><ele>68.0</ele><time>2026-03-28T09:37:59Z</time></trkpt><trkpt lat="43.78815458450208" lon="11.082843128893373"><ele>68.0</ele><time>2026-03-28T09:38:00Z</time></trkpt><trkpt lat="43.78805483549461" lon="11.082861823008473"><ele>68.0</ele><time>2026-03-28T09:38:01Z</time></trkpt><trkpt lat="43.787979926872715" lon="11.08287631564036"><ele>68.0</ele><time>2026-03-28T09:38:02Z</time></trkpt><trkpt lat="43.7879172642779" lon="11.082900970301809"><ele>68.0</ele><time>2026-03-28T09:38:03Z</time></trkpt><trkpt lat="43.78785203499184" lon="11.082925187954565"><ele>68.0</ele><time>2026-03-28T09:38:04Z</time></trkpt><trkpt lat="43.78779325637385" lon="11.082960196688745"><ele>68.0</ele><time>2026-03-28T09:38:05Z</time></trkpt><trkpt lat="43.78773888370039" lon="11.0830064510165"><ele>68.0</ele><time>2026-03-28T09:38:06Z</time></trkpt><trkpt lat="43.7876494428657" lon="11.083122765231296"><ele>68.0</ele><time>2026-03-28T09:38:08Z</time></trkpt><trkpt lat="43.787593368468436" lon="11.083204164650715"><ele>68.0</ele><time>2026-03-28T09:38:09Z</time></trkpt><trkpt lat="43.78752391976065" lon="11.0833171579623"><ele>68.0</ele><time>2026-03-28T09:38:10Z</time></trkpt><trkpt lat="43.78744348238944" lon="11.083446830545412"><ele>68.0</ele><time>2026-03-28T09:38:11Z</time></trkpt><trkpt lat="43.78735374050644" lon="11.08359210252348"><ele>68.0</ele><time>2026-03-28T09:38:12Z</time></trkpt><trkpt lat="43.78725526691518" lon="11.083782104984722"><ele>68.0</ele><time>2026-03-28T09:38:13Z</time></trkpt><trkpt lat="43.78711763548225" lon="11.08403887187391"><ele>67.0</ele><time>2026-03-28T09:38:14Z</time></trkpt><trkpt lat="43.78694095639921" lon="11.08430621279424"><ele>66.0</ele><time>2026-03-28T09:38:15Z</time></trkpt><trkpt lat="43.786760391567064" lon="11.084525261481025"><ele>67.66666666666667</ele><time>2026-03-28T09:38:16Z</time></trkpt><trkpt lat="43.78663547853313" lon="11.084737318169491"><ele>69.33333333333334</ele><time>2026-03-28T09:38:17Z</time></trkpt><trkpt lat="43.78652406003719" lon="11.084931106529124"><ele>71.0</ele><time>2026-03-28T09:38:18Z</time></trkpt><trkpt lat="43.78643090702357" lon="11.085117988176869"><ele>71.0</ele><time>2026-03-28T09:38:19Z</time></trkpt><trkpt lat="43.78633916536257" lon="11.085306501445809"><ele>71.0</ele><time>2026-03-28T09:38:20Z</time></trkpt><trkpt lat="43.786267072690215" lon="11.085458176088357"><ele>71.0</ele><time>2026-03-28T09:38:21Z</time></trkpt><trkpt lat="43.78620701780823" lon="11.085596177070085"><ele>71.0</ele><time>2026-03-28T09:38:22Z</time></trkpt><trkpt lat="43.78613486260745" lon="11.085737043937458"><ele>71.25</ele><time>2026-03-28T09:38:23Z</time></trkpt><trkpt lat="43.78603922726152" lon="11.085862676434646"><ele>71.5</ele><time>2026-03-28T09:38:24Z</time></trkpt><trkpt lat="43.785929493665336" lon="11.085979943096586"><ele>71.75</ele><time>2026-03-28T09:38:25Z</time></trkpt><trkpt lat="43.78579031405831" lon="11.086065774293177"><ele>72.0</ele><time>2026-03-28T09:38:26Z</time></trkpt><trkpt lat="43.785660165101476" lon="11.086154971331178"><ele>73.66666666666667</ele><time>2026-03-28T09:38:27Z</time></trkpt><trkpt lat="43.78554230528422" lon="11.08627631036481"><ele>75.33333333333334</ele><time>2026-03-28T09:38:28Z</time></trkpt><trkpt lat="43.78543050921287" lon="11.086437550360774"><ele>77.0</ele><time>2026-03-28T09:38:29Z</time></trkpt><trkpt lat="43.785325670291826" lon="11.086617082820334"><ele>77.0</ele><time>2026-03-28T09:38:30Z</time></trkpt><trkpt lat="43.78522890406596" lon="11.086785674664961"><ele>77.0</ele><time>2026-03-28T09:38:31Z</time></trkpt><trkpt lat="43.78513620302773" lon="11.086934562519541"><ele>77.0</ele><time>2026-03-28T09:38:32Z</time></trkpt><trkpt lat="43.78504261868705" lon="11.08708403251114"><ele>77.0</ele><time>2026-03-28T09:38:33Z</time></trkpt><trkpt lat="43.78494749082666" lon="11.087232557879961"><ele>77.75</ele><time>2026-03-28T09:38:34Z</time></trkpt><trkpt lat="43.784859208718466" lon="11.087379324843472"><ele>78.5</ele><time>2026-03-28T09:38:35Z</time></trkpt><trkpt lat="43.78477124343832" lon="11.087522536936353"><ele>79.25</ele><time>2026-03-28T09:38:36Z</time></trkpt><trkpt lat="43.78465567062384" lon="11.087605807887352"><ele>80.0</ele><time>2026-03-28T09:38:37Z</time></trkpt><trkpt lat="43.7845319224401" lon="11.087697541843168"><ele>80.0</ele><time>2026-03-28T09:38:38Z</time></trkpt><trkpt lat="43.7843978783045" lon="11.087785987958956"><ele>80.0</ele><time>2026-03-28T09:38:39Z</time></trkpt><trkpt lat="43.78429084553201" lon="11.087922831141219"><ele>80.0</ele><time>2026-03-28T09:38:40Z</time></trkpt><trkpt lat="43.78420043806977" lon="11.088065057217197"><ele>80.0</ele><time>2026-03-28T09:38:41Z</time></trkpt><trkpt lat="43.78412138686157" lon="11.088201703633459"><ele>81.5</ele><time>2026-03-28T09:38:42Z</time></trkpt><trkpt lat="43.78403729708573" lon="11.088337141771053"><ele>83.0</ele><time>2026-03-28T09:38:43Z</time></trkpt><trkpt lat="43.7839582063448" lon="11.088467084099607"><ele>84.5</ele><time>2026-03-28T09:38:44Z</time></trkpt><trkpt lat="43.78389429510579" lon="11.088586730840229"><ele>86.0</ele><time>2026-03-28T09:38:45Z</time></trkpt><trkpt lat="43.78383385695761" lon="11.088702816716864"><ele>86.0</ele><time>2026-03-28T09:38:46Z</time></trkpt><trkpt lat="43.78376696080752" lon="11.088829353949663"><ele>86.0</ele><time>2026-03-28T09:38:47Z</time></trkpt><trkpt lat="43.78371877711932" lon="11.088933512109092"><ele>86.0</ele><time>2026-03-28T09:38:48Z</time></trkpt><trkpt lat="43.78366387617411" lon="11.088995850533031"><ele>86.0</ele><time>2026-03-28T09:38:49Z</time></trkpt><trkpt lat="43.783595853897154" lon="11.089023385171116"><ele>86.0</ele><time>2026-03-28T09:38:50Z</time></trkpt><trkpt lat="43.78346076253163" lon="11.08890914354874"><ele>87.0</ele><time>2026-03-28T09:38:52Z</time></trkpt><trkpt lat="43.78339151106682" lon="11.088816894011549"><ele>88.0</ele><time>2026-03-28T09:38:53Z</time></trkpt><trkpt lat="43.783336717532634" lon="11.088746657929805"><ele>89.0</ele><time>2026-03-28T09:38:54Z</time></trkpt><trkpt lat="43.783274071877905" lon="11.088693767251135"><ele>90.0</ele><time>2026-03-28T09:38:55Z</time></trkpt><trkpt lat="43.78320540622167" lon="11.088673955374226"><ele>91.0</ele><time>2026-03-28T09:38:55.999Z</time></trkpt><trkpt lat="43.78311060798372" lon="11.088675109798215"><ele>92.0</ele><time>2026-03-28T09:38:56.999Z</time></trkpt><trkpt lat="43.782999845703905" lon="11.088702655196167"><ele>92.0</ele><time>2026-03-28T09:38:57.999Z</time></trkpt><trkpt lat="43.782875987085696" lon="11.088725608078326"><ele>92.0</ele><time>2026-03-28T09:38:58.999Z</time></trkpt><trkpt lat="43.78277334808478" lon="11.088744137242564"><ele>92.0</ele><time>2026-03-28T09:38:59.999Z</time></trkpt><trkpt lat="43.782628542903716" lon="11.088816900316518"><ele>92.0</ele><time>2026-03-28T09:39:01.999Z</time></trkpt><trkpt lat="43.78255551475397" lon="11.088880817133765"><ele>93.6</ele><time>2026-03-28T09:39:02.999Z</time></trkpt><trkpt lat="43.78248219272264" lon="11.08897314710961"><ele>95.19999999999999</ele><time>2026-03-28T09:39:03.999Z</time></trkpt><trkpt lat="43.78241864448149" lon="11.089073784495092"><ele>96.8</ele><time>2026-03-28T09:39:04.999Z</time></trkpt><trkpt lat="43.78233719065121" lon="11.08919230404802"><ele>98.4</ele><time>2026-03-28T09:39:05.999Z</time></trkpt><trkpt lat="43.782253599282704" lon="11.089321844483537"><ele>100.0</ele><time>2026-03-28T09:39:06.999Z</time></trkpt><trkpt lat="43.78217982837137" lon="11.089450965499223"><ele>100.75</ele><time>2026-03-28T09:39:07.999Z</time></trkpt><trkpt lat="43.78210276879028" lon="11.089569754014631"><ele>101.5</ele><time>2026-03-28T09:39:08.999Z</time></trkpt><trkpt lat="43.78202432405598" lon="11.089679026130144"><ele>102.25</ele><time>2026-03-28T09:39:09.999Z</time></trkpt><trkpt lat="43.7819291005116" lon="11.08975893386242"><ele>103.0</ele><time>2026-03-28T09:39:10.999Z</time></trkpt><trkpt lat="43.781836195287966" lon="11.089858364877902"><ele>104.33333333333334</ele><time>2026-03-28T09:39:11.999Z</time></trkpt><trkpt lat="43.78177119708125" lon="11.089932416258828"><ele>105.66666666666667</ele><time>2026-03-28T09:39:12.999Z</time></trkpt><trkpt lat="43.78172152978399" lon="11.089989000585932"><ele>107.0</ele><time>2026-03-28T09:39:13.999Z</time></trkpt><trkpt lat="43.781654645812644" lon="11.090071093594478"><ele>108.33333333333334</ele><time>2026-03-28T09:39:15.999Z</time></trkpt><trkpt lat="43.781597490526636" lon="11.09011205518628"><ele>109.66666666666667</ele><time>2026-03-28T09:39:17.999Z</time></trkpt><trkpt lat="43.781513925748726" lon="11.090015592102217"><ele>111.0</ele><time>2026-03-28T09:39:18.999Z</time></trkpt><trkpt lat="43.78143815726536" lon="11.089925652218326"><ele>110.8</ele><time>2026-03-28T09:39:19.999Z</time></trkpt><trkpt lat="43.78136003289605" lon="11.089832089335898"><ele>110.6</ele><time>2026-03-28T09:39:20.999Z</time></trkpt><trkpt lat="43.78131145968512" lon="11.089774669147793"><ele>110.4</ele><time>2026-03-28T09:39:21.999Z</time></trkpt><trkpt lat="43.781231528961314" lon="11.089725394540531"><ele>110.2</ele><time>2026-03-28T09:39:22.999Z</time></trkpt><trkpt lat="43.781150931425785" lon="11.089667008297278"><ele>110.0</ele><time>2026-03-28T09:39:23.999Z</time></trkpt><trkpt lat="43.78104702906437" lon="11.08972799835795"><ele>108.2</ele><time>2026-03-28T09:39:24.999Z</time></trkpt><trkpt lat="43.780938530700375" lon="11.089733031874937"><ele>106.4</ele><time>2026-03-28T09:39:25.999Z</time></trkpt><trkpt lat="43.7808372278661" lon="11.089746418902592"><ele>104.6</ele><time>2026-03-28T09:39:26.999Z</time></trkpt><trkpt lat="43.78074511842221" lon="11.089718558021865"><ele>102.8</ele><time>2026-03-28T09:39:28Z</time></trkpt><trkpt lat="43.78064905742008" lon="11.089635485331106"><ele>101.0</ele><time>2026-03-28T09:39:29Z</time></trkpt><trkpt lat="43.78052623312003" lon="11.089558103763167"><ele>101.0</ele><time>2026-03-28T09:39:30Z</time></trkpt><trkpt lat="43.780418470316235" lon="11.089469289543153"><ele>101.0</ele><time>2026-03-28T09:39:31Z</time></trkpt><trkpt lat="43.78032158142319" lon="11.0893821794968"><ele>101.0</ele><time>2026-03-28T09:39:32Z</time></trkpt><trkpt lat="43.78022001418116" lon="11.089285554638996"><ele>101.0</ele><time>2026-03-28T09:39:33Z</time></trkpt><trkpt lat="43.780118783271796" lon="11.089185227616612"><ele>100.0</ele><time>2026-03-28T09:39:34Z</time></trkpt><trkpt lat="43.78002355965769" lon="11.08909361879552"><ele>99.0</ele><time>2026-03-28T09:39:35Z</time></trkpt><trkpt lat="43.77993174660257" lon="11.089000912310611"><ele>98.0</ele><time>2026-03-28T09:39:36Z</time></trkpt><trkpt lat="43.77982229667112" lon="11.088915555951921"><ele>97.0</ele><time>2026-03-28T09:39:37Z</time></trkpt><trkpt lat="43.77969027889097" lon="11.08882729019585"><ele>94.0</ele><time>2026-03-28T09:39:38Z</time></trkpt><trkpt lat="43.779533008106725" lon="11.08873492811637"><ele>91.0</ele><time>2026-03-28T09:39:39Z</time></trkpt><trkpt lat="43.77937660651633" lon="11.088641491509902"><ele>88.0</ele><time>2026-03-28T09:39:40Z</time></trkpt><trkpt lat="43.77924843944935" lon="11.08856476861586"><ele>86.80000000000001</ele><time>2026-03-28T09:39:41Z</time></trkpt><trkpt lat="43.779136587762494" lon="11.088495580571632"><ele>85.6</ele><time>2026-03-28T09:39:42Z</time></trkpt><trkpt lat="43.77903821561063" lon="11.088441824927914"><ele>84.4</ele><time>2026-03-28T09:39:43Z</time></trkpt><trkpt lat="43.778950958983025" lon="11.088401656837329"><ele>83.19999999999999</ele><time>2026-03-28T09:39:44Z</time></trkpt><trkpt lat="43.77886199434025" lon="11.088390340894719"><ele>82.0</ele><time>2026-03-28T09:39:45Z</time></trkpt><trkpt lat="43.77875203093669" lon="11.088404790802992"><ele>82.0</ele><time>2026-03-28T09:39:46Z</time></trkpt><trkpt lat="43.778631413297354" lon="11.088446887531413"><ele>82.0</ele><time>2026-03-28T09:39:47Z</time></trkpt><trkpt lat="43.77852381793131" lon="11.088516342619972"><ele>82.0</ele><time>2026-03-28T09:39:48Z</time></trkpt><trkpt lat="43.77841591375717" lon="11.088619909278913"><ele>82.0</ele><time>2026-03-28T09:39:49Z</time></trkpt><trkpt lat="43.77831548513903" lon="11.088728130636065"><ele>82.39999999999999</ele><time>2026-03-28T09:39:50Z</time></trkpt><trkpt lat="43.77822415816937" lon="11.088808883357256"><ele>82.8</ele><time>2026-03-28T09:39:51Z</time></trkpt><trkpt lat="43.77815147978321" lon="11.088876173123317"><ele>83.2</ele><time>2026-03-28T09:39:52Z</time></trkpt><trkpt lat="43.77809641021102" lon="11.08894542296604"><ele>83.6</ele><time>2026-03-28T09:39:53Z</time></trkpt><trkpt lat="43.77805383960922" lon="11.089047288441176"><ele>84.0</ele><time>2026-03-28T09:39:54Z</time></trkpt><trkpt lat="43.77801723848734" lon="11.089214169145361"><ele>84.0</ele><time>2026-03-28T09:39:55Z</time></trkpt><trkpt lat="43.77797795893044" lon="11.089402699083623"><ele>84.0</ele><time>2026-03-28T09:39:56Z</time></trkpt><trkpt lat="43.77794331827312" lon="11.089556071073618"><ele>84.0</ele><time>2026-03-28T09:39:57Z</time></trkpt><trkpt lat="43.77791142317071" lon="11.0896813079948"><ele>84.0</ele><time>2026-03-28T09:39:58Z</time></trkpt><trkpt lat="43.777888585192" lon="11.089784345142844"><ele>84.0</ele><time>2026-03-28T09:39:59Z</time></trkpt><trkpt lat="43.77785513463251" lon="11.089889639441608"><ele>84.0</ele><time>2026-03-28T09:40:01Z</time></trkpt><trkpt lat="43.77780369018143" lon="11.089836036361646"><ele>84.0</ele><time>2026-03-28T09:40:05Z</time></trkpt><trkpt lat="43.77777811305902" lon="11.089716508364756"><ele>84.0</ele><time>2026-03-28T09:40:06Z</time></trkpt><trkpt lat="43.77775918781382" lon="11.089563928088067"><ele>84.0</ele><time>2026-03-28T09:40:07Z</time></trkpt><trkpt lat="43.77773103371854" lon="11.08943496135424"><ele>84.0</ele><time>2026-03-28T09:40:08Z</time></trkpt><trkpt lat="43.77769747887458" lon="11.089328303357886"><ele>84.0</ele><time>2026-03-28T09:40:09Z</time></trkpt><trkpt lat="43.77764201158439" lon="11.089250183027742"><ele>80.83333333333333</ele><time>2026-03-28T09:40:10Z</time></trkpt><trkpt lat="43.77756819469738" lon="11.089176152894568"><ele>77.66666666666667</ele><time>2026-03-28T09:40:11Z</time></trkpt><trkpt lat="43.77747918331482" lon="11.089144048736106"><ele>74.5</ele><time>2026-03-28T09:40:12Z</time></trkpt><trkpt lat="43.77740010162211" lon="11.089149606031368"><ele>71.33333333333334</ele><time>2026-03-28T09:40:13Z</time></trkpt><trkpt lat="43.777323665530865" lon="11.089213453925181"><ele>68.16666666666667</ele><time>2026-03-28T09:40:14Z</time></trkpt><trkpt lat="43.77725429365859" lon="11.089292014100778"><ele>65.0</ele><time>2026-03-28T09:40:15Z</time></trkpt><trkpt lat="43.77721405769121" lon="11.089396831010475"><ele>65.0</ele><time>2026-03-28T09:40:16Z</time></trkpt><trkpt lat="43.777207639272916" lon="11.089515333955589"><ele>65.0</ele><time>2026-03-28T09:40:17Z</time></trkpt><trkpt lat="43.777228089198815" lon="11.089656434125148"><ele>65.0</ele><time>2026-03-28T09:40:18Z</time></trkpt><trkpt lat="43.77724864617346" lon="11.089805814357186"><ele>65.0</ele><time>2026-03-28T09:40:19Z</time></trkpt><trkpt lat="43.77726254263757" lon="11.089937262908267"><ele>65.0</ele><time>2026-03-28T09:40:20Z</time></trkpt><trkpt lat="43.77727189905571" lon="11.090068296751726"><ele>64.8</ele><time>2026-03-28T09:40:21Z</time></trkpt><trkpt lat="43.77726187317623" lon="11.090202715053856"><ele>64.6</ele><time>2026-03-28T09:40:22Z</time></trkpt><trkpt lat="43.77723578087444" lon="11.09034217111505"><ele>64.4</ele><time>2026-03-28T09:40:23Z</time></trkpt><trkpt lat="43.77718648339279" lon="11.090458495992758"><ele>64.2</ele><time>2026-03-28T09:40:24Z</time></trkpt><trkpt lat="43.77713682386008" lon="11.090557315549725"><ele>64.0</ele><time>2026-03-28T09:40:25Z</time></trkpt><trkpt lat="43.777066992852816" lon="11.090632884288713"><ele>64.0</ele><time>2026-03-28T09:40:26Z</time></trkpt><trkpt lat="43.7769909933248" lon="11.090703556505888"><ele>64.0</ele><time>2026-03-28T09:40:27Z</time></trkpt><trkpt lat="43.77690485268953" lon="11.090730487936826"><ele>64.0</ele><time>2026-03-28T09:40:28Z</time></trkpt><trkpt lat="43.77676301800068" lon="11.090833109852081"><ele>64.0</ele><time>2026-03-28T09:40:29Z</time></trkpt><trkpt lat="43.77665908362785" lon="11.09097174340247"><ele>62.0</ele><time>2026-03-28T09:40:30Z</time></trkpt><trkpt lat="43.776576203869794" lon="11.091100462765441"><ele>60.00000000000001</ele><time>2026-03-28T09:40:31Z</time></trkpt><trkpt lat="43.77650012393672" lon="11.09121983093967"><ele>58.00000000000001</ele><time>2026-03-28T09:40:32Z</time></trkpt><trkpt lat="43.77645745126709" lon="11.091360738387463"><ele>56.0</ele><time>2026-03-28T09:40:33Z</time></trkpt><trkpt lat="43.77641102479838" lon="11.09147983984874"><ele>54.0</ele><time>2026-03-28T09:40:34Z</time></trkpt><trkpt lat="43.776392186573275" lon="11.091599482717326"><ele>54.0</ele><time>2026-03-28T09:40:35Z</time></trkpt><trkpt lat="43.776370776991406" lon="11.091710625939152"><ele>54.0</ele><time>2026-03-28T09:40:36Z</time></trkpt><trkpt lat="43.776346619075994" lon="11.091810944238745"><ele>54.0</ele><time>2026-03-28T09:40:37Z</time></trkpt><trkpt lat="43.776317995725684" lon="11.091947048327494"><ele>54.0</ele><time>2026-03-28T09:40:39Z</time></trkpt><trkpt lat="43.7762993008244" lon="11.092037557485577"><ele>54.0</ele><time>2026-03-28T09:40:43Z</time></trkpt><trkpt lat="43.77627668818863" lon="11.092136879416657"><ele>54.0</ele><time>2026-03-28T09:40:48Z</time></trkpt><trkpt lat="43.77625514383677" lon="11.09222206298871"><ele>54.0</ele><time>2026-03-28T09:40:49Z</time></trkpt><trkpt lat="43.77624012137721" lon="11.092373409287344"><ele>54.0</ele><time>2026-03-28T09:40:50Z</time></trkpt><trkpt lat="43.776205015162844" lon="11.09247955450547"><ele>54.0</ele><time>2026-03-28T09:40:51Z</time></trkpt><trkpt lat="43.77618983718945" lon="11.092568791067437"><ele>54.0</ele><time>2026-03-28T09:40:52Z</time></trkpt><trkpt lat="43.7762073682066" lon="11.092658107609479"><ele>54.0</ele><time>2026-03-28T09:40:53Z</time></trkpt><trkpt lat="43.776175720194864" lon="11.092792125926216"><ele>54.0</ele><time>2026-03-28T09:40:55Z</time></trkpt><trkpt lat="43.776172350667174" lon="11.0929044555133"><ele>54.666666666666664</ele><time>2026-03-28T09:41:07.999Z</time></trkpt><trkpt lat="43.77617279970277" lon="11.09299882490648"><ele>55.33333333333333</ele><time>2026-03-28T09:41:14.999Z</time></trkpt><trkpt lat="43.7760843568338" lon="11.093051373830951"><ele>56.0</ele><time>2026-03-28T09:41:17.999Z</time></trkpt><trkpt lat="43.77601474135155" lon="11.09306168578511"><ele>56.666666666666664</ele><time>2026-03-28T09:41:18.999Z</time></trkpt><trkpt lat="43.77595092156659" lon="11.093064233636131"><ele>57.33333333333333</ele><time>2026-03-28T09:41:20Z</time></trkpt><trkpt lat="43.77587774192194" lon="11.093066924522374"><ele>58.0</ele><time>2026-03-28T09:41:21Z</time></trkpt><trkpt lat="43.77575745394733" lon="11.093069897828357"><ele>54.599999999999994</ele><time>2026-03-28T09:41:23Z</time></trkpt><trkpt lat="43.775682994151104" lon="11.093073110584106"><ele>51.199999999999996</ele><time>2026-03-28T09:41:25Z</time></trkpt><trkpt lat="43.77558211263613" lon="11.093087800648963"><ele>47.8</ele><time>2026-03-28T09:41:27Z</time></trkpt><trkpt lat="43.77548678562093" lon="11.093091674581053"><ele>44.4</ele><time>2026-03-28T09:41:29Z</time></trkpt><trkpt lat="43.775421553431755" lon="11.093083944992513"><ele>41.0</ele><time>2026-03-28T09:41:30Z</time></trkpt><trkpt lat="43.77529474476128" lon="11.093077732749551"><ele>41.0</ele><time>2026-03-28T09:41:32Z</time></trkpt><trkpt lat="43.775231485754176" lon="11.093065676057684"><ele>41.0</ele><time>2026-03-28T09:41:33Z</time></trkpt><trkpt lat="43.77511923289639" lon="11.093044247333438"><ele>41.0</ele><time>2026-03-28T09:41:35Z</time></trkpt><trkpt lat="43.77502575046119" lon="11.093034719162874"><ele>41.0</ele><time>2026-03-28T09:41:37Z</time></trkpt><trkpt lat="43.774928995895884" lon="11.093019041913148"><ele>41.0</ele><time>2026-03-28T09:41:39Z</time></trkpt><trkpt lat="43.774855735771254" lon="11.092994253481963"><ele>41.0</ele><time>2026-03-28T09:41:41Z</time></trkpt><trkpt lat="43.774749178758235" lon="11.092957061519398"><ele>41.0</ele><time>2026-03-28T09:41:43Z</time></trkpt><trkpt lat="43.774638632203384" lon="11.092897013339307"><ele>41.0</ele><time>2026-03-28T09:41:45Z</time></trkpt><trkpt lat="43.7745413380813" lon="11.092848502508264"><ele>41.0</ele><time>2026-03-28T09:41:47Z</time></trkpt><trkpt lat="43.77448249829785" lon="11.092813030695027"><ele>41.0</ele><time>2026-03-28T09:41:48Z</time></trkpt><trkpt lat="43.77438367470476" lon="11.092764736213931"><ele>41.0</ele><time>2026-03-28T09:41:50Z</time></trkpt><trkpt lat="43.7743004691302" lon="11.092765539216893"><ele>40.666666666666664</ele><time>2026-03-28T09:41:52Z</time></trkpt><trkpt lat="43.774215884526036" lon="11.092799472617633"><ele>40.33333333333333</ele><time>2026-03-28T09:41:54Z</time></trkpt><trkpt lat="43.77415134486274" lon="11.092840260469893"><ele>40.0</ele><time>2026-03-28T09:41:55Z</time></trkpt><trkpt lat="43.774096995606016" lon="11.092890195492341"><ele>39.666666666666664</ele><time>2026-03-28T09:41:56Z</time></trkpt><trkpt lat="43.77405311518811" lon="11.092967987707382"><ele>39.333333333333336</ele><time>2026-03-28T09:41:57Z</time></trkpt><trkpt lat="43.77397204437065" lon="11.093031521338116"><ele>39.0</ele><time>2026-03-28T09:41:58Z</time></trkpt><trkpt lat="43.77390936060484" lon="11.093087904156935"><ele>39.0</ele><time>2026-03-28T09:41:59Z</time></trkpt><trkpt lat="43.773846867193" lon="11.093154839165866"><ele>39.0</ele><time>2026-03-28T09:42:00Z</time></trkpt><trkpt lat="43.77379257541422" lon="11.093221049136805"><ele>39.0</ele><time>2026-03-28T09:42:01Z</time></trkpt><trkpt lat="43.77372936967911" lon="11.093371905543673"><ele>39.0</ele><time>2026-03-28T09:42:03Z</time></trkpt><trkpt lat="43.773716386338705" lon="11.093486614783039"><ele>39.0</ele><time>2026-03-28T09:42:04Z</time></trkpt><trkpt lat="43.77371751650655" lon="11.093616329417673"><ele>38.666666666666664</ele><time>2026-03-28T09:42:05Z</time></trkpt><trkpt lat="43.773721495325326" lon="11.093769617603966"><ele>38.33333333333333</ele><time>2026-03-28T09:42:06Z</time></trkpt><trkpt lat="43.77372486626334" lon="11.093973887901065"><ele>38.0</ele><time>2026-03-28T09:42:07Z</time></trkpt><trkpt lat="43.77373385469287" lon="11.09424081923238"><ele>38.0</ele><time>2026-03-28T09:42:08Z</time></trkpt><trkpt lat="43.77373859067123" lon="11.094470157052047"><ele>38.0</ele><time>2026-03-28T09:42:09Z</time></trkpt><trkpt lat="43.773726527284424" lon="11.094674725280436"><ele>38.0</ele><time>2026-03-28T09:42:10Z</time></trkpt><trkpt lat="43.77372401777285" lon="11.094864733287801"><ele>38.25</ele><time>2026-03-28T09:42:11Z</time></trkpt><trkpt lat="43.77372354867909" lon="11.095053010503824"><ele>38.5</ele><time>2026-03-28T09:42:12Z</time></trkpt><trkpt lat="43.77369196659132" lon="11.095214363894511"><ele>38.75</ele><time>2026-03-28T09:42:13Z</time></trkpt><trkpt lat="43.77368226608209" lon="11.095365536306298"><ele>39.0</ele><time>2026-03-28T09:42:14Z</time></trkpt><trkpt lat="43.77367258240485" lon="11.095511581148722"><ele>39.0</ele><time>2026-03-28T09:42:15Z</time></trkpt><trkpt lat="43.77366629754137" lon="11.095656262337117"><ele>39.0</ele><time>2026-03-28T09:42:16Z</time></trkpt><trkpt lat="43.773663946723175" lon="11.09576172487909"><ele>39.0</ele><time>2026-03-28T09:42:17Z</time></trkpt><trkpt lat="43.773677957391676" lon="11.09585856860933"><ele>39.0</ele><time>2026-03-28T09:42:18Z</time></trkpt><trkpt lat="43.77366652397764" lon="11.095950877236525"><ele>39.0</ele><time>2026-03-28T09:42:19Z</time></trkpt><trkpt lat="43.77363427465344" lon="11.09602975723387"><ele>39.0</ele><time>2026-03-28T09:42:20Z</time></trkpt><trkpt lat="43.77358361255471" lon="11.096085449437094"><ele>37.833333333333336</ele><time>2026-03-28T09:42:21Z</time></trkpt><trkpt lat="43.77351614282677" lon="11.096093732431545"><ele>36.666666666666664</ele><time>2026-03-28T09:42:22Z</time></trkpt><trkpt lat="43.77344968011848" lon="11.096093379402099"><ele>35.5</ele><time>2026-03-28T09:42:23Z</time></trkpt><trkpt lat="43.77331681248514" lon="11.096089867070114"><ele>34.33333333333333</ele><time>2026-03-28T09:42:25Z</time></trkpt><trkpt lat="43.77323950858887" lon="11.096088195658494"><ele>33.166666666666664</ele><time>2026-03-28T09:42:26Z</time></trkpt><trkpt lat="43.77316260799058" lon="11.096089121154886"><ele>32.0</ele><time>2026-03-28T09:42:27Z</time></trkpt><trkpt lat="43.77308720557948" lon="11.096090555490944"><ele>32.0</ele><time>2026-03-28T09:42:28Z</time></trkpt><trkpt lat="43.773006777340115" lon="11.096092380249058"><ele>32.0</ele><time>2026-03-28T09:42:29Z</time></trkpt><trkpt lat="43.77292243177087" lon="11.096090237366866"><ele>32.0</ele><time>2026-03-28T09:42:30Z</time></trkpt><trkpt lat="43.772830999158714" lon="11.096080850819394"><ele>32.0</ele><time>2026-03-28T09:42:31Z</time></trkpt><trkpt lat="43.77273077060682" lon="11.096072345202538"><ele>32.0</ele><time>2026-03-28T09:42:32Z</time></trkpt><trkpt lat="43.77262453830483" lon="11.096074167551707"><ele>32.2</ele><time>2026-03-28T09:42:33Z</time></trkpt><trkpt lat="43.772515118078736" lon="11.096074193515719"><ele>32.400000000000006</ele><time>2026-03-28T09:42:34Z</time></trkpt><trkpt lat="43.77241068711809" lon="11.096075760346775"><ele>32.599999999999994</ele><time>2026-03-28T09:42:35Z</time></trkpt><trkpt lat="43.7723211442913" lon="11.096079051448369"><ele>32.8</ele><time>2026-03-28T09:42:36Z</time></trkpt><trkpt lat="43.77223189059854" lon="11.096080376116129"><ele>33.0</ele><time>2026-03-28T09:42:37Z</time></trkpt><trkpt lat="43.77214026172718" lon="11.09608830347927"><ele>33.0</ele><time>2026-03-28T09:42:38Z</time></trkpt><trkpt lat="43.77205820974317" lon="11.096086465124763"><ele>33.0</ele><time>2026-03-28T09:42:39Z</time></trkpt><trkpt lat="43.77197778487202" lon="11.096085094354649"><ele>33.0</ele><time>2026-03-28T09:42:40Z</time></trkpt><trkpt lat="43.77189146294888" lon="11.096077283535436"><ele>33.0</ele><time>2026-03-28T09:42:41Z</time></trkpt><trkpt lat="43.77179514881062" lon="11.096067919769117"><ele>33.0</ele><time>2026-03-28T09:42:42Z</time></trkpt><trkpt lat="43.77169330488594" lon="11.096054764988793"><ele>33.0</ele><time>2026-03-28T09:42:43Z</time></trkpt><trkpt lat="43.7715945808629" lon="11.096039627718744"><ele>35.0</ele><time>2026-03-28T09:42:44Z</time></trkpt><trkpt lat="43.771518966613314" lon="11.09600194006912"><ele>37.0</ele><time>2026-03-28T09:42:45Z</time></trkpt><trkpt lat="43.77145510660892" lon="11.095979322591829"><ele>39.0</ele><time>2026-03-28T09:42:46Z</time></trkpt><trkpt lat="43.771366278495265" lon="11.095969168762455"><ele>41.0</ele><time>2026-03-28T09:42:48Z</time></trkpt><trkpt lat="43.77130911428741" lon="11.096264292231544"><ele>41.0</ele><time>2026-03-28T09:42:49Z</time></trkpt><trkpt lat="43.771305263017176" lon="11.09638774443201"><ele>41.0</ele><time>2026-03-28T09:42:50Z</time></trkpt><trkpt lat="43.77129293861499" lon="11.096516899384422"><ele>41.0</ele><time>2026-03-28T09:42:51Z</time></trkpt><trkpt lat="43.771272255275214" lon="11.096656413747942"><ele>41.0</ele><time>2026-03-28T09:42:52Z</time></trkpt><trkpt lat="43.77125421499662" lon="11.096790209810095"><ele>41.0</ele><time>2026-03-28T09:42:53Z</time></trkpt><trkpt lat="43.771238317208805" lon="11.096912937734528"><ele>41.199999999999996</ele><time>2026-03-28T09:42:54Z</time></trkpt><trkpt lat="43.771223479630194" lon="11.097031380991835"><ele>41.4</ele><time>2026-03-28T09:42:55Z</time></trkpt><trkpt lat="43.771207319169" lon="11.097154103211675"><ele>41.6</ele><time>2026-03-28T09:42:56Z</time></trkpt><trkpt lat="43.77118997570551" lon="11.097291917494939"><ele>41.8</ele><time>2026-03-28T09:42:57Z</time></trkpt><trkpt lat="43.771169298599304" lon="11.097436558209855"><ele>42.0</ele><time>2026-03-28T09:42:58Z</time></trkpt><trkpt lat="43.77115054894042" lon="11.09757707409905"><ele>42.2</ele><time>2026-03-28T09:42:59Z</time></trkpt><trkpt lat="43.771135747574874" lon="11.097696288995518"><ele>42.400000000000006</ele><time>2026-03-28T09:43:00Z</time></trkpt><trkpt lat="43.77112180276465" lon="11.097813598180844"><ele>42.599999999999994</ele><time>2026-03-28T09:43:01Z</time></trkpt><trkpt lat="43.77110388793224" lon="11.097937007646564"><ele>42.8</ele><time>2026-03-28T09:43:02Z</time></trkpt><trkpt lat="43.7710874634468" lon="11.098065233185006"><ele>43.0</ele><time>2026-03-28T09:43:03Z</time></trkpt><trkpt lat="43.771067764363714" lon="11.098194878375754"><ele>42.599999999999994</ele><time>2026-03-28T09:43:04Z</time></trkpt><trkpt lat="43.771044936947355" lon="11.098319967976327"><ele>42.199999999999996</ele><time>2026-03-28T09:43:05Z</time></trkpt><trkpt lat="43.77101739196365" lon="11.09844736418074"><ele>41.8</ele><time>2026-03-28T09:43:06Z</time></trkpt><trkpt lat="43.770991053073935" lon="11.098581151863836"><ele>41.4</ele><time>2026-03-28T09:43:07Z</time></trkpt><trkpt lat="43.770965219612" lon="11.098722765287583"><ele>41.0</ele><time>2026-03-28T09:43:07.999Z</time></trkpt><trkpt lat="43.77093394115013" lon="11.098879961257405"><ele>41.75</ele><time>2026-03-28T09:43:08.999Z</time></trkpt><trkpt lat="43.7709024028047" lon="11.09904914401798"><ele>42.5</ele><time>2026-03-28T09:43:09.999Z</time></trkpt><trkpt lat="43.77085784985934" lon="11.099201891009855"><ele>43.25</ele><time>2026-03-28T09:43:10.999Z</time></trkpt><trkpt lat="43.770841572721345" lon="11.099352995364194"><ele>44.0</ele><time>2026-03-28T09:43:11.999Z</time></trkpt><trkpt lat="43.77080511308765" lon="11.099498477756148"><ele>44.0</ele><time>2026-03-28T09:43:12.999Z</time></trkpt><trkpt lat="43.77077520767006" lon="11.09964409771389"><ele>44.0</ele><time>2026-03-28T09:43:13.999Z</time></trkpt><trkpt lat="43.77074552973272" lon="11.099785658577689"><ele>44.0</ele><time>2026-03-28T09:43:14.999Z</time></trkpt><trkpt lat="43.77071830356429" lon="11.09993384096902"><ele>44.0</ele><time>2026-03-28T09:43:15.999Z</time></trkpt><trkpt lat="43.77069076855706" lon="11.100079032215564"><ele>44.0</ele><time>2026-03-28T09:43:16.999Z</time></trkpt><trkpt lat="43.77066335779326" lon="11.100218780452757"><ele>44.2</ele><time>2026-03-28T09:43:17.999Z</time></trkpt><trkpt lat="43.77063733884381" lon="11.1003615879449"><ele>44.400000000000006</ele><time>2026-03-28T09:43:18.999Z</time></trkpt><trkpt lat="43.7706117632363" lon="11.100515544045289"><ele>44.6</ele><time>2026-03-28T09:43:19.999Z</time></trkpt><trkpt lat="43.77058491686415" lon="11.100675799684602"><ele>44.8</ele><time>2026-03-28T09:43:20.999Z</time></trkpt><trkpt lat="43.77056073521439" lon="11.10082180342401"><ele>45.0</ele><time>2026-03-28T09:43:22Z</time></trkpt><trkpt lat="43.77053624789298" lon="11.100968192558556"><ele>45.0</ele><time>2026-03-28T09:43:23Z</time></trkpt><trkpt lat="43.770512794158975" lon="11.10112899942218"><ele>45.0</ele><time>2026-03-28T09:43:24Z</time></trkpt><trkpt lat="43.77048495235636" lon="11.101280715269725"><ele>45.0</ele><time>2026-03-28T09:43:25Z</time></trkpt><trkpt lat="43.77045583333299" lon="11.101447712860033"><ele>45.0</ele><time>2026-03-28T09:43:26Z</time></trkpt><trkpt lat="43.770429774601354" lon="11.101613362738957"><ele>44.5</ele><time>2026-03-28T09:43:27Z</time></trkpt><trkpt lat="43.77040631774565" lon="11.10177930056718"><ele>44.0</ele><time>2026-03-28T09:43:28Z</time></trkpt><trkpt lat="43.77037880109934" lon="11.101940336541421"><ele>43.5</ele><time>2026-03-28T09:43:29Z</time></trkpt><trkpt lat="43.77035502692472" lon="11.102086402903518"><ele>43.0</ele><time>2026-03-28T09:43:30Z</time></trkpt><trkpt lat="43.77033588954965" lon="11.10223171851343"><ele>43.0</ele><time>2026-03-28T09:43:31Z</time></trkpt><trkpt lat="43.77031274999011" lon="11.102386463009903"><ele>43.0</ele><time>2026-03-28T09:43:32Z</time></trkpt><trkpt lat="43.770289888736556" lon="11.102533901962264"><ele>43.0</ele><time>2026-03-28T09:43:33Z</time></trkpt><trkpt lat="43.77027193587674" lon="11.102635925637935"><ele>43.0</ele><time>2026-03-28T09:43:34Z</time></trkpt><trkpt lat="43.7702379032169" lon="11.10277056468392"><ele>43.0</ele><time>2026-03-28T09:43:57Z</time></trkpt><trkpt lat="43.77021325199858" lon="11.10291642147468"><ele>41.8</ele><time>2026-03-28T09:43:59Z</time></trkpt><trkpt lat="43.770190964697925" lon="11.103007242851957"><ele>40.599999999999994</ele><time>2026-03-28T09:44:00Z</time></trkpt><trkpt lat="43.77016628534321" lon="11.103101884029252"><ele>39.400000000000006</ele><time>2026-03-28T09:44:01Z</time></trkpt><trkpt lat="43.77014442614793" lon="11.103186913532237"><ele>38.2</ele><time>2026-03-28T09:44:02Z</time></trkpt><trkpt lat="43.7700807290307" lon="11.103253443875467"><ele>37.0</ele><time>2026-03-28T09:44:04Z</time></trkpt><trkpt lat="43.7699228662143" lon="11.10319897075199"><ele>37.0</ele><time>2026-03-28T09:44:05Z</time></trkpt><trkpt lat="43.76981870308647" lon="11.103138869625672"><ele>37.0</ele><time>2026-03-28T09:44:06Z</time></trkpt><trkpt lat="43.769690256233226" lon="11.103042004061574"><ele>37.0</ele><time>2026-03-28T09:44:07Z</time></trkpt><trkpt lat="43.769539218683086" lon="11.102938437813702"><ele>37.0</ele><time>2026-03-28T09:44:08Z</time></trkpt><trkpt lat="43.76938298130123" lon="11.10281214016039"><ele>37.0</ele><time>2026-03-28T09:44:09Z</time></trkpt><trkpt lat="43.76924472928573" lon="11.102712317637268"><ele>37.0</ele><time>2026-03-28T09:44:10Z</time></trkpt><trkpt lat="43.76911143273448" lon="11.102640608653655"><ele>37.0</ele><time>2026-03-28T09:44:11Z</time></trkpt><trkpt lat="43.76899343508735" lon="11.102562510042855"><ele>37.0</ele><time>2026-03-28T09:44:12Z</time></trkpt><trkpt lat="43.768872089778384" lon="11.10249356576123"><ele>37.0</ele><time>2026-03-28T09:44:13Z</time></trkpt><trkpt lat="43.768747233495134" lon="11.102440175778069"><ele>37.0</ele><time>2026-03-28T09:44:14Z</time></trkpt><trkpt lat="43.76861812764844" lon="11.102398394044256"><ele>37.0</ele><time>2026-03-28T09:44:15Z</time></trkpt><trkpt lat="43.768474203909605" lon="11.102379324969279"><ele>37.0</ele><time>2026-03-28T09:44:16Z</time></trkpt><trkpt lat="43.768324990539625" lon="11.102373868436791"><ele>38.333333333333336</ele><time>2026-03-28T09:44:17Z</time></trkpt><trkpt lat="43.76817105684829" lon="11.102388641763651"><ele>39.666666666666664</ele><time>2026-03-28T09:44:18Z</time></trkpt><trkpt lat="43.76799720358521" lon="11.102418834713776"><ele>41.0</ele><time>2026-03-28T09:44:19Z</time></trkpt><trkpt lat="43.76778173257406" lon="11.102494019384151"><ele>40.666666666666664</ele><time>2026-03-28T09:44:20Z</time></trkpt><trkpt lat="43.767560356003116" lon="11.102599491906803"><ele>40.333333333333336</ele><time>2026-03-28T09:44:21Z</time></trkpt><trkpt lat="43.76735750371739" lon="11.102697970097607"><ele>40.0</ele><time>2026-03-28T09:44:22Z</time></trkpt><trkpt lat="43.76717215096012" lon="11.102788530546361"><ele>40.0</ele><time>2026-03-28T09:44:23Z</time></trkpt><trkpt lat="43.76698465730057" lon="11.10282812138694"><ele>40.0</ele><time>2026-03-28T09:44:24Z</time></trkpt><trkpt lat="43.766790727333635" lon="11.102845040451758"><ele>40.0</ele><time>2026-03-28T09:44:25Z</time></trkpt><trkpt lat="43.76660129301595" lon="11.102827632121492"><ele>41.0</ele><time>2026-03-28T09:44:26Z</time></trkpt><trkpt lat="43.766410985020656" lon="11.102784991702924"><ele>42.0</ele><time>2026-03-28T09:44:27Z</time></trkpt><trkpt lat="43.76622338033971" lon="11.102724926338885"><ele>43.0</ele><time>2026-03-28T09:44:28Z</time></trkpt><trkpt lat="43.766050349503445" lon="11.10264310810207"><ele>43.66666666666667</ele><time>2026-03-28T09:44:29Z</time></trkpt><trkpt lat="43.76588659963723" lon="11.10254351896893"><ele>44.333333333333336</ele><time>2026-03-28T09:44:30Z</time></trkpt><trkpt lat="43.76571171002496" lon="11.102437815414612"><ele>45.0</ele><time>2026-03-28T09:44:31Z</time></trkpt><trkpt lat="43.765523160191165" lon="11.102319282928407"><ele>45.333333333333336</ele><time>2026-03-28T09:44:32Z</time></trkpt><trkpt lat="43.7653190659526" lon="11.102235903144953"><ele>45.66666666666667</ele><time>2026-03-28T09:44:33Z</time></trkpt><trkpt lat="43.765132969421344" lon="11.10216415983205"><ele>46.0</ele><time>2026-03-28T09:44:34Z</time></trkpt><trkpt lat="43.764964666767526" lon="11.102099276163889"><ele>46.0</ele><time>2026-03-28T09:44:35Z</time></trkpt><trkpt lat="43.7648122107355" lon="11.102040500829428"><ele>46.0</ele><time>2026-03-28T09:44:36Z</time></trkpt><trkpt lat="43.76466503520321" lon="11.10200000471131"><ele>46.0</ele><time>2026-03-28T09:44:37Z</time></trkpt><trkpt lat="43.76453367414971" lon="11.101942605747508"><ele>46.0</ele><time>2026-03-28T09:44:38Z</time></trkpt><trkpt lat="43.76440345157749" lon="11.101888053095317"><ele>46.75</ele><time>2026-03-28T09:44:39Z</time></trkpt><trkpt lat="43.76428285406007" lon="11.10184634647714"><ele>47.5</ele><time>2026-03-28T09:44:40Z</time></trkpt><trkpt lat="43.764164783670054" lon="11.101822444074712"><ele>48.25</ele><time>2026-03-28T09:44:41Z</time></trkpt><trkpt lat="43.764043415153324" lon="11.101809930221044"><ele>49.0</ele><time>2026-03-28T09:44:42Z</time></trkpt><trkpt lat="43.76391917642049" lon="11.101811911146108"><ele>49.0</ele><time>2026-03-28T09:44:43Z</time></trkpt><trkpt lat="43.763801416929596" lon="11.101838054417206"><ele>49.0</ele><time>2026-03-28T09:44:44Z</time></trkpt><trkpt lat="43.76368279629824" lon="11.101867552098833"><ele>49.0</ele><time>2026-03-28T09:44:45Z</time></trkpt><trkpt lat="43.76355876684575" lon="11.101891275043899"><ele>49.0</ele><time>2026-03-28T09:44:46Z</time></trkpt><trkpt lat="43.76342916250118" lon="11.101912267224725"><ele>50.25</ele><time>2026-03-28T09:44:47Z</time></trkpt><trkpt lat="43.7632928386821" lon="11.101936951198102"><ele>51.5</ele><time>2026-03-28T09:44:48Z</time></trkpt><trkpt lat="43.76315779111925" lon="11.101956610698567"><ele>52.75</ele><time>2026-03-28T09:44:49Z</time></trkpt><trkpt lat="43.7630169915846" lon="11.101966502230121"><ele>54.0</ele><time>2026-03-28T09:44:50Z</time></trkpt><trkpt lat="43.76287273708585" lon="11.10196442548647"><ele>54.0</ele><time>2026-03-28T09:44:51Z</time></trkpt><trkpt lat="43.76272303893721" lon="11.101935565005776"><ele>54.0</ele><time>2026-03-28T09:44:52Z</time></trkpt><trkpt lat="43.76257626191765" lon="11.101894956465742"><ele>54.0</ele><time>2026-03-28T09:44:53Z</time></trkpt><trkpt lat="43.76244147187814" lon="11.10185301407508"><ele>54.0</ele><time>2026-03-28T09:44:54Z</time></trkpt><trkpt lat="43.76231975621219" lon="11.101787464052855"><ele>55.0</ele><time>2026-03-28T09:44:55.001Z</time></trkpt><trkpt lat="43.76222065118506" lon="11.101661074018892"><ele>56.0</ele><time>2026-03-28T09:44:56.001Z</time></trkpt><trkpt lat="43.76212626016413" lon="11.101520888373313"><ele>57.0</ele><time>2026-03-28T09:44:57.001Z</time></trkpt><trkpt lat="43.76203424291841" lon="11.101375621821237"><ele>58.0</ele><time>2026-03-28T09:44:58.001Z</time></trkpt><trkpt lat="43.76192712412027" lon="11.101230651167656"><ele>59.33333333333333</ele><time>2026-03-28T09:44:59.001Z</time></trkpt><trkpt lat="43.76182799331773" lon="11.10105227263621"><ele>60.66666666666667</ele><time>2026-03-28T09:45:00.001Z</time></trkpt><trkpt lat="43.76172636451771" lon="11.100839607036633"><ele>62.0</ele><time>2026-03-28T09:45:01.001Z</time></trkpt><trkpt lat="43.7615987479759" lon="11.100583290721321"><ele>69.5</ele><time>2026-03-28T09:45:02.001Z</time></trkpt><trkpt lat="43.761444171643895" lon="11.100304544226336"><ele>77.0</ele><time>2026-03-28T09:45:03.001Z</time></trkpt><trkpt lat="43.761310495702475" lon="11.100003503484679"><ele>77.66666666666667</ele><time>2026-03-28T09:45:04.001Z</time></trkpt><trkpt lat="43.76118842238173" lon="11.099739579874344"><ele>78.33333333333333</ele><time>2026-03-28T09:45:05.001Z</time></trkpt><trkpt lat="43.76105287253685" lon="11.099501208205528"><ele>79.0</ele><time>2026-03-28T09:45:06.001Z</time></trkpt><trkpt lat="43.76088608682638" lon="11.099270754457969"><ele>83.5</ele><time>2026-03-28T09:45:07.001Z</time></trkpt><trkpt lat="43.760701219617125" lon="11.09905520538619"><ele>88.0</ele><time>2026-03-28T09:45:08.001Z</time></trkpt><trkpt lat="43.76053092918241" lon="11.098875828978374"><ele>88.0</ele><time>2026-03-28T09:45:09.001Z</time></trkpt><trkpt lat="43.760377712835066" lon="11.098703253180485"><ele>88.0</ele><time>2026-03-28T09:45:10.001Z</time></trkpt><trkpt lat="43.7602421652452" lon="11.098534096372044"><ele>88.0</ele><time>2026-03-28T09:45:11.001Z</time></trkpt><trkpt lat="43.7601261498209" lon="11.098374607704033"><ele>90.25</ele><time>2026-03-28T09:45:12.001Z</time></trkpt><trkpt lat="43.760031199163" lon="11.098231410989648"><ele>92.5</ele><time>2026-03-28T09:45:13.001Z</time></trkpt><trkpt lat="43.7599427011883" lon="11.098117620304897"><ele>94.75</ele><time>2026-03-28T09:45:14Z</time></trkpt><trkpt lat="43.75984151097002" lon="11.098046604123144"><ele>97.0</ele><time>2026-03-28T09:45:15Z</time></trkpt><trkpt lat="43.759714896173584" lon="11.098003135278805"><ele>97.0</ele><time>2026-03-28T09:45:16Z</time></trkpt><trkpt lat="43.75954769635431" lon="11.097964883613615"><ele>97.0</ele><time>2026-03-28T09:45:17Z</time></trkpt><trkpt lat="43.759346625073206" lon="11.097911958747618"><ele>97.0</ele><time>2026-03-28T09:45:18Z</time></trkpt><trkpt lat="43.75913737260105" lon="11.097816102568274"><ele>93.33333333333334</ele><time>2026-03-28T09:45:19Z</time></trkpt><trkpt lat="43.75897396897629" lon="11.09770839888832"><ele>89.66666666666667</ele><time>2026-03-28T09:45:20Z</time></trkpt><trkpt lat="43.7588291928496" lon="11.097571596189416"><ele>86.0</ele><time>2026-03-28T09:45:21Z</time></trkpt><trkpt lat="43.75869537262638" lon="11.09746253636373"><ele>85.33333333333334</ele><time>2026-03-28T09:45:22Z</time></trkpt><trkpt lat="43.75857955758756" lon="11.097343336582517"><ele>84.66666666666667</ele><time>2026-03-28T09:45:23Z</time></trkpt><trkpt lat="43.7584929513726" lon="11.097183062744579"><ele>84.0</ele><time>2026-03-28T09:45:24Z</time></trkpt><trkpt lat="43.758399161736" lon="11.096994612012544"><ele>84.0</ele><time>2026-03-28T09:45:25Z</time></trkpt><trkpt lat="43.75830460625879" lon="11.09685648230077"><ele>84.0</ele><time>2026-03-28T09:45:26Z</time></trkpt><trkpt lat="43.758186648218256" lon="11.096746841634697"><ele>84.0</ele><time>2026-03-28T09:45:27Z</time></trkpt><trkpt lat="43.7580540845933" lon="11.096646705261739"><ele>84.0</ele><time>2026-03-28T09:45:28Z</time></trkpt><trkpt lat="43.757883971854866" lon="11.096544490707874"><ele>90.0</ele><time>2026-03-28T09:45:29Z</time></trkpt><trkpt lat="43.75767924138176" lon="11.096444745278028"><ele>96.0</ele><time>2026-03-28T09:45:30Z</time></trkpt><trkpt lat="43.757434516505896" lon="11.09632337095838"><ele>96.0</ele><time>2026-03-28T09:45:31Z</time></trkpt><trkpt lat="43.757159109721776" lon="11.096215341560448"><ele>96.0</ele><time>2026-03-28T09:45:32Z</time></trkpt><trkpt lat="43.7568787786918" lon="11.096078314443977"><ele>93.5</ele><time>2026-03-28T09:45:33Z</time></trkpt><trkpt lat="43.75664663994859" lon="11.095959823874567"><ele>91.0</ele><time>2026-03-28T09:45:34Z</time></trkpt><trkpt lat="43.756418814738865" lon="11.095836157734572"><ele>94.33333333333333</ele><time>2026-03-28T09:45:35Z</time></trkpt><trkpt lat="43.75620559329805" lon="11.095733215248588"><ele>97.66666666666666</ele><time>2026-03-28T09:45:36Z</time></trkpt><trkpt lat="43.756000136719756" lon="11.0956623784992"><ele>101.0</ele><time>2026-03-28T09:45:37Z</time></trkpt><trkpt lat="43.75580146911317" lon="11.095627858848559"><ele>101.0</ele><time>2026-03-28T09:45:38Z</time></trkpt><trkpt lat="43.75561261477833" lon="11.095633464555691"><ele>101.0</ele><time>2026-03-28T09:45:39Z</time></trkpt><trkpt lat="43.7554359975625" lon="11.095602575357882"><ele>101.0</ele><time>2026-03-28T09:45:40Z</time></trkpt><trkpt lat="43.755283712053775" lon="11.095519334314249"><ele>97.66666666666666</ele><time>2026-03-28T09:45:41Z</time></trkpt><trkpt lat="43.75513422133944" lon="11.095370579826621"><ele>94.33333333333333</ele><time>2026-03-28T09:45:42Z</time></trkpt><trkpt lat="43.75497701783901" lon="11.095198436862086"><ele>91.0</ele><time>2026-03-28T09:45:43Z</time></trkpt><trkpt lat="43.75482350918296" lon="11.095020975407424"><ele>96.33333333333333</ele><time>2026-03-28T09:45:44Z</time></trkpt><trkpt lat="43.75469697552377" lon="11.094844596034232"><ele>101.66666666666666</ele><time>2026-03-28T09:45:45Z</time></trkpt><trkpt lat="43.7546073670765" lon="11.094652529650528"><ele>107.0</ele><time>2026-03-28T09:45:46Z</time></trkpt><trkpt lat="43.75454173296406" lon="11.094428895085372"><ele>107.0</ele><time>2026-03-28T09:45:47Z</time></trkpt><trkpt lat="43.7544576434205" lon="11.094228649564776"><ele>107.0</ele><time>2026-03-28T09:45:48Z</time></trkpt><trkpt lat="43.75435656653424" lon="11.094072711723062"><ele>107.0</ele><time>2026-03-28T09:45:49Z</time></trkpt><trkpt lat="43.754258315150906" lon="11.093922354518906"><ele>107.0</ele><time>2026-03-28T09:45:50Z</time></trkpt><trkpt lat="43.75418849196438" lon="11.093768134514011"><ele>106.99999999999999</ele><time>2026-03-28T09:45:51Z</time></trkpt><trkpt lat="43.75413913663664" lon="11.093616104723225"><ele>106.99999999999999</ele><time>2026-03-28T09:45:52Z</time></trkpt><trkpt lat="43.75410201535777" lon="11.09348278511064"><ele>107.0</ele><time>2026-03-28T09:45:53Z</time></trkpt><trkpt lat="43.754080708312685" lon="11.093366593399262"><ele>107.0</ele><time>2026-03-28T09:45:54Z</time></trkpt><trkpt lat="43.75407959067034" lon="11.09324283800689"><ele>106.99999999999999</ele><time>2026-03-28T09:45:55Z</time></trkpt><trkpt lat="43.75410432700116" lon="11.093110474548219"><ele>107.0</ele><time>2026-03-28T09:45:56Z</time></trkpt><trkpt lat="43.754150000589" lon="11.093001314633026"><ele>107.0</ele><time>2026-03-28T09:45:57Z</time></trkpt><trkpt lat="43.75417644908415" lon="11.09291347662486"><ele>107.0</ele><time>2026-03-28T09:45:58Z</time></trkpt><trkpt lat="43.75420200083535" lon="11.092805889203897"><ele>106.99999999999999</ele><time>2026-03-28T09:45:59Z</time></trkpt><trkpt lat="43.75420546062407" lon="11.092701423540554"><ele>107.0</ele><time>2026-03-28T09:46:00Z</time></trkpt><trkpt lat="43.754180499198235" lon="11.09260494007434"><ele>106.99999999999999</ele><time>2026-03-28T09:46:01Z</time></trkpt><trkpt lat="43.75413065149811" lon="11.092541837131972"><ele>107.0</ele><time>2026-03-28T09:46:02Z</time></trkpt><trkpt lat="43.75407169257024" lon="11.092490501854074"><ele>107.0</ele><time>2026-03-28T09:46:03Z</time></trkpt><trkpt lat="43.753975262595006" lon="11.092531887124638"><ele>107.0</ele><time>2026-03-28T09:46:04Z</time></trkpt><trkpt lat="43.753906506006125" lon="11.092590476591017"><ele>106.99999999999999</ele><time>2026-03-28T09:46:05Z</time></trkpt><trkpt lat="43.753834378651526" lon="11.09267591170069"><ele>107.0</ele><time>2026-03-28T09:46:07Z</time></trkpt><trkpt lat="43.753797272402245" lon="11.092750026143054"><ele>107.00000000000001</ele><time>2026-03-28T09:46:08Z</time></trkpt><trkpt lat="43.7537488435431" lon="11.092806724933482"><ele>107.0</ele><time>2026-03-28T09:46:09Z</time></trkpt><trkpt lat="43.75369363102366" lon="11.092851035783275"><ele>107.0</ele><time>2026-03-28T09:46:10Z</time></trkpt><trkpt lat="43.75362261501856" lon="11.0928622753209"><ele>107.0</ele><time>2026-03-28T09:46:11Z</time></trkpt><trkpt lat="43.75354492522396" lon="11.092860155115524"><ele>107.0</ele><time>2026-03-28T09:46:12Z</time></trkpt><trkpt lat="43.753462137960966" lon="11.092840974169082"><ele>107.00000000000001</ele><time>2026-03-28T09:46:13Z</time></trkpt><trkpt lat="43.753388159181924" lon="11.092779504510084"><ele>107.0</ele><time>2026-03-28T09:46:14Z</time></trkpt><trkpt lat="43.7533174207473" lon="11.092727692171788"><ele>108.0</ele><time>2026-03-28T09:46:15Z</time></trkpt><trkpt lat="43.75323863433886" lon="11.09267878686232"><ele>109.0</ele><time>2026-03-28T09:46:16Z</time></trkpt><trkpt lat="43.75317700122473" lon="11.09258149528214"><ele>110.0</ele><time>2026-03-28T09:46:17Z</time></trkpt><trkpt lat="43.75309364102661" lon="11.092458584755855"><ele>111.0</ele><time>2026-03-28T09:46:18Z</time></trkpt><trkpt lat="43.752980857803" lon="11.092291649705963"><ele>112.0</ele><time>2026-03-28T09:46:19Z</time></trkpt><trkpt lat="43.75286233080228" lon="11.092077091763725"><ele>113.0</ele><time>2026-03-28T09:46:20Z</time></trkpt><trkpt lat="43.75272004184008" lon="11.091872029462705"><ele>114.0</ele><time>2026-03-28T09:46:21Z</time></trkpt><trkpt lat="43.752549412273524" lon="11.09170299847985"><ele>116.0</ele><time>2026-03-28T09:46:22Z</time></trkpt><trkpt lat="43.75237113120802" lon="11.09157195998897"><ele>118.0</ele><time>2026-03-28T09:46:23Z</time></trkpt><trkpt lat="43.752204208800784" lon="11.091451410518186"><ele>120.0</ele><time>2026-03-28T09:46:24Z</time></trkpt><trkpt lat="43.75203002100221" lon="11.091318279394118"><ele>117.33333333333334</ele><time>2026-03-28T09:46:25Z</time></trkpt><trkpt lat="43.751860215944085" lon="11.091180007332447"><ele>114.66666666666667</ele><time>2026-03-28T09:46:26Z</time></trkpt><trkpt lat="43.75170359517719" lon="11.091049527250279"><ele>112.0</ele><time>2026-03-28T09:46:27Z</time></trkpt><trkpt lat="43.75156049289337" lon="11.09093306187868"><ele>112.0</ele><time>2026-03-28T09:46:28Z</time></trkpt><trkpt lat="43.75142351473074" lon="11.090805595456219"><ele>112.0</ele><time>2026-03-28T09:46:29Z</time></trkpt><trkpt lat="43.751255760206924" lon="11.0907245311292"><ele>112.0</ele><time>2026-03-28T09:46:30Z</time></trkpt><trkpt lat="43.75105332612854" lon="11.090686488758402"><ele>115.0</ele><time>2026-03-28T09:46:31Z</time></trkpt><trkpt lat="43.750861483944696" lon="11.09062307493708"><ele>118.0</ele><time>2026-03-28T09:46:32Z</time></trkpt><trkpt lat="43.75066506356925" lon="11.090534312427621"><ele>121.0</ele><time>2026-03-28T09:46:33Z</time></trkpt><trkpt lat="43.75044385108345" lon="11.090429164840367"><ele>120.0</ele><time>2026-03-28T09:46:34Z</time></trkpt><trkpt lat="43.750193533901765" lon="11.090308917946665"><ele>119.0</ele><time>2026-03-28T09:46:35Z</time></trkpt><trkpt lat="43.749926908053254" lon="11.09017603354283"><ele>119.0</ele><time>2026-03-28T09:46:36Z</time></trkpt><trkpt lat="43.74969118288157" lon="11.090042669377132"><ele>119.0</ele><time>2026-03-28T09:46:37Z</time></trkpt><trkpt lat="43.749465559926904" lon="11.089961650444586"><ele>119.0</ele><time>2026-03-28T09:46:38Z</time></trkpt><trkpt lat="43.74925936647358" lon="11.089845615954934"><ele>119.0</ele><time>2026-03-28T09:46:39Z</time></trkpt><trkpt lat="43.74903916032772" lon="11.08975206995251"><ele>119.0</ele><time>2026-03-28T09:46:40Z</time></trkpt><trkpt lat="43.74882705580964" lon="11.089646913906536"><ele>119.0</ele><time>2026-03-28T09:46:41Z</time></trkpt><trkpt lat="43.748644235158785" lon="11.089516734242316"><ele>119.0</ele><time>2026-03-28T09:46:42Z</time></trkpt><trkpt lat="43.74845420927696" lon="11.08942468425608"><ele>120.0</ele><time>2026-03-28T09:46:43Z</time></trkpt><trkpt lat="43.748263032505065" lon="11.089393946141055"><ele>121.0</ele><time>2026-03-28T09:46:44Z</time></trkpt><trkpt lat="43.74807558851177" lon="11.08938756658387"><ele>122.0</ele><time>2026-03-28T09:46:45Z</time></trkpt><trkpt lat="43.74787894709227" lon="11.089377805638584"><ele>121.66666666666666</ele><time>2026-03-28T09:46:46Z</time></trkpt><trkpt lat="43.747697455601596" lon="11.089382931931715"><ele>121.33333333333334</ele><time>2026-03-28T09:46:47Z</time></trkpt><trkpt lat="43.74753687128842" lon="11.089360817622353"><ele>121.0</ele><time>2026-03-28T09:46:48Z</time></trkpt><trkpt lat="43.747360059837305" lon="11.08930232531969"><ele>121.0</ele><time>2026-03-28T09:46:49.001Z</time></trkpt><trkpt lat="43.74717495858646" lon="11.08923254113847"><ele>121.0</ele><time>2026-03-28T09:46:50.001Z</time></trkpt><trkpt lat="43.746988930659974" lon="11.089174418059937"><ele>121.0</ele><time>2026-03-28T09:46:51.001Z</time></trkpt><trkpt lat="43.74681106346759" lon="11.089071059510616"><ele>122.0</ele><time>2026-03-28T09:46:52.001Z</time></trkpt><trkpt lat="43.746630456507575" lon="11.088941317435388"><ele>123.0</ele><time>2026-03-28T09:46:53.001Z</time></trkpt><trkpt lat="43.74645112576227" lon="11.088785688415042"><ele>124.0</ele><time>2026-03-28T09:46:54.001Z</time></trkpt><trkpt lat="43.7462728377605" lon="11.088592631953029"><ele>124.0</ele><time>2026-03-28T09:46:55.001Z</time></trkpt><trkpt lat="43.746084817214694" lon="11.088401330589138"><ele>124.0</ele><time>2026-03-28T09:46:56.001Z</time></trkpt><trkpt lat="43.74589720566061" lon="11.088209638937998"><ele>124.66666666666667</ele><time>2026-03-28T09:46:57.001Z</time></trkpt><trkpt lat="43.74571959012336" lon="11.088048082957608"><ele>125.33333333333334</ele><time>2026-03-28T09:46:58.001Z</time></trkpt><trkpt lat="43.745561619138904" lon="11.087881015403678"><ele>126.0</ele><time>2026-03-28T09:46:59.001Z</time></trkpt><trkpt lat="43.745406012559954" lon="11.087728045239686"><ele>126.0</ele><time>2026-03-28T09:47:00.001Z</time></trkpt><trkpt lat="43.745254403050815" lon="11.087573369479024"><ele>126.0</ele><time>2026-03-28T09:47:01.001Z</time></trkpt><trkpt lat="43.745098782134264" lon="11.087436334275008"><ele>126.0</ele><time>2026-03-28T09:47:02.001Z</time></trkpt><trkpt lat="43.74491788240701" lon="11.08732063218852"><ele>126.66666666666666</ele><time>2026-03-28T09:47:03.001Z</time></trkpt><trkpt lat="43.74471617989375" lon="11.087223043119371"><ele>127.33333333333333</ele><time>2026-03-28T09:47:04.001Z</time></trkpt><trkpt lat="43.744500010235534" lon="11.08711765335142"><ele>128.0</ele><time>2026-03-28T09:47:05.001Z</time></trkpt><trkpt lat="43.744284169536485" lon="11.087006289589599"><ele>130.66666666666666</ele><time>2026-03-28T09:47:06.001Z</time></trkpt><trkpt lat="43.744074275302175" lon="11.086907233022902"><ele>133.33333333333334</ele><time>2026-03-28T09:47:07.001Z</time></trkpt><trkpt lat="43.74387605466992" lon="11.086812148499012"><ele>136.0</ele><time>2026-03-28T09:47:08.001Z</time></trkpt><trkpt lat="43.7436954429367" lon="11.086716690152727"><ele>137.0</ele><time>2026-03-28T09:47:09.001Z</time></trkpt><trkpt lat="43.74351238616314" lon="11.086611535527183"><ele>138.0</ele><time>2026-03-28T09:47:10.001Z</time></trkpt><trkpt lat="43.74335222824574" lon="11.086505600750202"><ele>139.0</ele><time>2026-03-28T09:47:11.001Z</time></trkpt><trkpt lat="43.74320925728153" lon="11.086391288898858"><ele>139.0</ele><time>2026-03-28T09:47:12.001Z</time></trkpt><trkpt lat="43.74307469375571" lon="11.08627764854713"><ele>139.0</ele><time>2026-03-28T09:47:13.001Z</time></trkpt><trkpt lat="43.74294937977796" lon="11.086183406023821"><ele>139.0</ele><time>2026-03-28T09:47:14.001Z</time></trkpt><trkpt lat="43.742845058525866" lon="11.086121348199912"><ele>139.0</ele><time>2026-03-28T09:47:15.001Z</time></trkpt><trkpt lat="43.742763649741775" lon="11.086084858827833"><ele>140.83333333333334</ele><time>2026-03-28T09:47:16.001Z</time></trkpt><trkpt lat="43.74268316632458" lon="11.086053980755056"><ele>142.66666666666669</ele><time>2026-03-28T09:47:18.001Z</time></trkpt><trkpt lat="43.742629109469135" lon="11.086001217778204"><ele>144.5</ele><time>2026-03-28T09:50:41Z</time></trkpt><trkpt lat="43.74255284292321" lon="11.086008605920505"><ele>146.33333333333334</ele><time>2026-03-28T09:50:43Z</time></trkpt><trkpt lat="43.74248520257299" lon="11.086047875661965"><ele>148.16666666666666</ele><time>2026-03-28T09:50:44Z</time></trkpt><trkpt lat="43.74237920871942" lon="11.086076310725739"><ele>150.0</ele><time>2026-03-28T09:50:45Z</time></trkpt><trkpt lat="43.74225200850035" lon="11.086115219727319"><ele>150.0</ele><time>2026-03-28T09:50:46Z</time></trkpt><trkpt lat="43.7421074541908" lon="11.086155347279966"><ele>150.0</ele><time>2026-03-28T09:50:47Z</time></trkpt><trkpt lat="43.74197512809638" lon="11.086177607575195"><ele>150.0</ele><time>2026-03-28T09:50:48Z</time></trkpt><trkpt lat="43.74185336963501" lon="11.086190753235142"><ele>150.0</ele><time>2026-03-28T09:50:49Z</time></trkpt><trkpt lat="43.74172479850931" lon="11.086187048529537"><ele>150.5</ele><time>2026-03-28T09:50:50Z</time></trkpt><trkpt lat="43.74159446543573" lon="11.086160608118288"><ele>151.0</ele><time>2026-03-28T09:50:51Z</time></trkpt><trkpt lat="43.74146428066208" lon="11.08610314102878"><ele>151.5</ele><time>2026-03-28T09:50:52Z</time></trkpt><trkpt lat="43.741326310031354" lon="11.086046013232137"><ele>152.0</ele><time>2026-03-28T09:50:53Z</time></trkpt><trkpt lat="43.74119116719246" lon="11.085972100864877"><ele>152.0</ele><time>2026-03-28T09:50:54Z</time></trkpt><trkpt lat="43.74105516208269" lon="11.085895260131142"><ele>152.0</ele><time>2026-03-28T09:50:55Z</time></trkpt><trkpt lat="43.74091666086418" lon="11.085831000501301"><ele>152.0</ele><time>2026-03-28T09:50:56Z</time></trkpt><trkpt lat="43.740778220624804" lon="11.085792597333864"><ele>152.0</ele><time>2026-03-28T09:50:57.001Z</time></trkpt><trkpt lat="43.740651213255035" lon="11.085725973020761"><ele>151.0</ele><time>2026-03-28T09:50:58.001Z</time></trkpt><trkpt lat="43.74052220274007" lon="11.085672977375438"><ele>150.0</ele><time>2026-03-28T09:50:59.001Z</time></trkpt><trkpt lat="43.740392094062344" lon="11.085644693559162"><ele>149.0</ele><time>2026-03-28T09:51:00.001Z</time></trkpt><trkpt lat="43.74028629490304" lon="11.085598681018997"><ele>148.0</ele><time>2026-03-28T09:51:01.001Z</time></trkpt><trkpt lat="43.74019243167044" lon="11.08555911299709"><ele>148.0</ele><time>2026-03-28T09:51:02.001Z</time></trkpt><trkpt lat="43.74010791917406" lon="11.085525461551399"><ele>148.0</ele><time>2026-03-28T09:51:03.001Z</time></trkpt><trkpt lat="43.74003399851466" lon="11.08550274056964"><ele>148.0</ele><time>2026-03-28T09:51:04.001Z</time></trkpt><trkpt lat="43.7399659021993" lon="11.085481610824225"><ele>148.0</ele><time>2026-03-28T09:51:05.001Z</time></trkpt><trkpt lat="43.7398899166639" lon="11.085455906046665"><ele>148.0</ele><time>2026-03-28T09:51:06.001Z</time></trkpt><trkpt lat="43.739807971593336" lon="11.085430528796136"><ele>148.0</ele><time>2026-03-28T09:51:07.001Z</time></trkpt><trkpt lat="43.73972257081134" lon="11.085402989591104"><ele>148.0</ele><time>2026-03-28T09:51:08.001Z</time></trkpt><trkpt lat="43.73961540008559" lon="11.085365779973756"><ele>148.0</ele><time>2026-03-28T09:51:09.001Z</time></trkpt><trkpt lat="43.73950255428012" lon="11.085298739794052"><ele>148.0</ele><time>2026-03-28T09:51:10.001Z</time></trkpt><trkpt lat="43.73939509411548" lon="11.085188917001965"><ele>148.0</ele><time>2026-03-28T09:51:11.001Z</time></trkpt><trkpt lat="43.7392808209052" lon="11.08503062118"><ele>148.33333333333334</ele><time>2026-03-28T09:51:12.001Z</time></trkpt><trkpt lat="43.73914778645141" lon="11.084826182555439"><ele>148.66666666666666</ele><time>2026-03-28T09:51:13.001Z</time></trkpt><trkpt lat="43.739006238318964" lon="11.084576991274558"><ele>149.0</ele><time>2026-03-28T09:51:14.001Z</time></trkpt><trkpt lat="43.738859518555614" lon="11.084318136203066"><ele>148.33333333333331</ele><time>2026-03-28T09:51:15.001Z</time></trkpt><trkpt lat="43.738719864053024" lon="11.084072103233941"><ele>147.66666666666666</ele><time>2026-03-28T09:51:16.001Z</time></trkpt><trkpt lat="43.73859327115617" lon="11.083860067743196"><ele>147.0</ele><time>2026-03-28T09:51:17.001Z</time></trkpt><trkpt lat="43.73849171865978" lon="11.08366492369284"><ele>149.33333333333334</ele><time>2026-03-28T09:51:18.001Z</time></trkpt><trkpt lat="43.73834347143752" lon="11.08354336906084"><ele>151.66666666666669</ele><time>2026-03-28T09:51:19.001Z</time></trkpt><trkpt lat="43.73817577645176" lon="11.083431954660258"><ele>154.0</ele><time>2026-03-28T09:51:20.001Z</time></trkpt><trkpt lat="43.737992933136304" lon="11.083314970380172"><ele>153.0</ele><time>2026-03-28T09:51:21.001Z</time></trkpt><trkpt lat="43.737830650344534" lon="11.08317687240506"><ele>152.0</ele><time>2026-03-28T09:51:22.001Z</time></trkpt><trkpt lat="43.73768843028278" lon="11.083021333279772"><ele>151.0</ele><time>2026-03-28T09:51:23.001Z</time></trkpt><trkpt lat="43.737552154196464" lon="11.082859338324319"><ele>151.0</ele><time>2026-03-28T09:51:24.001Z</time></trkpt><trkpt lat="43.737418025858226" lon="11.08267361674742"><ele>151.0</ele><time>2026-03-28T09:51:25.001Z</time></trkpt><trkpt lat="43.73726292869104" lon="11.082479942038619"><ele>151.0</ele><time>2026-03-28T09:51:26.001Z</time></trkpt><trkpt lat="43.737121802498265" lon="11.08228002215921"><ele>151.0</ele><time>2026-03-28T09:51:27.001Z</time></trkpt><trkpt lat="43.736987630851225" lon="11.082063445048739"><ele>151.0</ele><time>2026-03-28T09:51:28.001Z</time></trkpt><trkpt lat="43.7368230422388" lon="11.08187088832292"><ele>151.0</ele><time>2026-03-28T09:51:29.001Z</time></trkpt><trkpt lat="43.73665960222933" lon="11.08168968729359"><ele>150.0</ele><time>2026-03-28T09:51:30.001Z</time></trkpt><trkpt lat="43.73651141615878" lon="11.081524675936643"><ele>149.0</ele><time>2026-03-28T09:51:31.001Z</time></trkpt><trkpt lat="43.73637245659651" lon="11.081363816570917"><ele>148.0</ele><time>2026-03-28T09:51:31.999Z</time></trkpt><trkpt lat="43.736237682562916" lon="11.08121910986085"><ele>148.0</ele><time>2026-03-28T09:51:32.999Z</time></trkpt><trkpt lat="43.73610003551508" lon="11.081102106833033"><ele>148.0</ele><time>2026-03-28T09:51:33.999Z</time></trkpt><trkpt lat="43.73592790537465" lon="11.081029011165672"><ele>148.0</ele><time>2026-03-28T09:51:34.999Z</time></trkpt><trkpt lat="43.73573040891595" lon="11.081015358243576"><ele>149.0</ele><time>2026-03-28T09:51:35.999Z</time></trkpt><trkpt lat="43.735532362001074" lon="11.081013536968042"><ele>150.0</ele><time>2026-03-28T09:51:36.999Z</time></trkpt><trkpt lat="43.73533403210908" lon="11.081010576273437"><ele>151.0</ele><time>2026-03-28T09:51:37.999Z</time></trkpt><trkpt lat="43.735146220838054" lon="11.081007709906965"><ele>151.0</ele><time>2026-03-28T09:51:38.999Z</time></trkpt><trkpt lat="43.7349559767501" lon="11.081023326476048"><ele>151.0</ele><time>2026-03-28T09:51:39.999Z</time></trkpt><trkpt lat="43.73476513344203" lon="11.0811494706174"><ele>151.0</ele><time>2026-03-28T09:51:40.999Z</time></trkpt><trkpt lat="43.73455283423288" lon="11.081248871918797"><ele>151.33333333333334</ele><time>2026-03-28T09:51:41.999Z</time></trkpt><trkpt lat="43.73436634809926" lon="11.081362637696452"><ele>151.66666666666666</ele><time>2026-03-28T09:51:42.999Z</time></trkpt><trkpt lat="43.73420314742685" lon="11.081490095069281"><ele>152.0</ele><time>2026-03-28T09:51:43.999Z</time></trkpt><trkpt lat="43.73402902064375" lon="11.081574321441336"><ele>151.33333333333331</ele><time>2026-03-28T09:51:44.999Z</time></trkpt><trkpt lat="43.73384732170405" lon="11.081641410219536"><ele>150.66666666666666</ele><time>2026-03-28T09:51:45.999Z</time></trkpt><trkpt lat="43.73365072388816" lon="11.081692103741604"><ele>150.0</ele><time>2026-03-28T09:51:46.999Z</time></trkpt><trkpt lat="43.73343477591436" lon="11.081698697601514"><ele>150.0</ele><time>2026-03-28T09:51:47.999Z</time></trkpt><trkpt lat="43.73322426614742" lon="11.08170710047546"><ele>150.0</ele><time>2026-03-28T09:51:48.999Z</time></trkpt><trkpt lat="43.733028776768826" lon="11.081710527273065"><ele>150.0</ele><time>2026-03-28T09:51:49.999Z</time></trkpt><trkpt lat="43.73283962290374" lon="11.081732513729493"><ele>150.0</ele><time>2026-03-28T09:51:50.999Z</time></trkpt><trkpt lat="43.73265701396507" lon="11.081801809100469"><ele>150.0</ele><time>2026-03-28T09:51:51.999Z</time></trkpt><trkpt lat="43.73246394886461" lon="11.081862325581298"><ele>150.0</ele><time>2026-03-28T09:51:52.999Z</time></trkpt><trkpt lat="43.732248868379095" lon="11.081907955429509"><ele>150.0</ele><time>2026-03-28T09:51:53.999Z</time></trkpt><trkpt lat="43.73203465785933" lon="11.081937765743925"><ele>150.0</ele><time>2026-03-28T09:51:55Z</time></trkpt><trkpt lat="43.731836665006576" lon="11.081961910161047"><ele>150.0</ele><time>2026-03-28T09:51:56Z</time></trkpt><trkpt lat="43.73164816694742" lon="11.081975376310382"><ele>150.0</ele><time>2026-03-28T09:51:57Z</time></trkpt><trkpt lat="43.73146283861924" lon="11.081969968564948"><ele>150.0</ele><time>2026-03-28T09:51:58Z</time></trkpt><trkpt lat="43.7313015298945" lon="11.08193542874994"><ele>150.0</ele><time>2026-03-28T09:51:59Z</time></trkpt><trkpt lat="43.73114134630867" lon="11.081863612635486"><ele>148.33333333333334</ele><time>2026-03-28T09:52:00Z</time></trkpt><trkpt lat="43.73096463304407" lon="11.08177841049857"><ele>146.66666666666669</ele><time>2026-03-28T09:52:01Z</time></trkpt><trkpt lat="43.730776648662626" lon="11.081696094699833"><ele>145.0</ele><time>2026-03-28T09:52:02Z</time></trkpt><trkpt lat="43.73059928200326" lon="11.081607782093789"><ele>144.33333333333334</ele><time>2026-03-28T09:52:03Z</time></trkpt><trkpt lat="43.730431556921154" lon="11.081508013152913"><ele>143.66666666666666</ele><time>2026-03-28T09:52:04Z</time></trkpt><trkpt lat="43.730267016124955" lon="11.081425255226266"><ele>143.0</ele><time>2026-03-28T09:52:05Z</time></trkpt><trkpt lat="43.73011038471982" lon="11.0813570875723"><ele>142.75</ele><time>2026-03-28T09:52:06Z</time></trkpt><trkpt lat="43.72997233451211" lon="11.081303170042679"><ele>142.5</ele><time>2026-03-28T09:52:07Z</time></trkpt><trkpt lat="43.72985910913899" lon="11.081258412743669"><ele>142.25</ele><time>2026-03-28T09:52:08Z</time></trkpt><trkpt lat="43.72975340124813" lon="11.081216627133346"><ele>142.0</ele><time>2026-03-28T09:52:09Z</time></trkpt><trkpt lat="43.72965838359715" lon="11.081180599464442"><ele>142.0</ele><time>2026-03-28T09:52:10Z</time></trkpt><trkpt lat="43.72956685082902" lon="11.081147148822957"><ele>142.0</ele><time>2026-03-28T09:52:11Z</time></trkpt><trkpt lat="43.729487754140926" lon="11.081139988031662"><ele>142.0</ele><time>2026-03-28T09:52:12Z</time></trkpt><trkpt lat="43.72942508493196" lon="11.081110364191233"><ele>142.0</ele><time>2026-03-28T09:52:13Z</time></trkpt><trkpt lat="43.72936254662137" lon="11.081086560700006"><ele>142.0</ele><time>2026-03-28T09:52:21Z</time></trkpt><trkpt lat="43.729253317630366" lon="11.081051790125382"><ele>142.0</ele><time>2026-03-28T09:52:23Z</time></trkpt><trkpt lat="43.72915984978004" lon="11.080979702402509"><ele>142.6</ele><time>2026-03-28T09:52:24Z</time></trkpt><trkpt lat="43.72907105573675" lon="11.080913840105785"><ele>143.2</ele><time>2026-03-28T09:52:25Z</time></trkpt><trkpt lat="43.72898886551378" lon="11.080850640980085"><ele>143.8</ele><time>2026-03-28T09:52:26Z</time></trkpt><trkpt lat="43.728887221007405" lon="11.080772482662391"><ele>144.4</ele><time>2026-03-28T09:52:27Z</time></trkpt><trkpt lat="43.728763657015165" lon="11.080702241525888"><ele>145.0</ele><time>2026-03-28T09:52:28Z</time></trkpt><trkpt lat="43.72862152093328" lon="11.080590644020182"><ele>144.33333333333334</ele><time>2026-03-28T09:52:29Z</time></trkpt><trkpt lat="43.72847444765439" lon="11.080467677359252"><ele>143.66666666666666</ele><time>2026-03-28T09:52:30Z</time></trkpt><trkpt lat="43.72834943200657" lon="11.080350982820615"><ele>143.0</ele><time>2026-03-28T09:52:31Z</time></trkpt><trkpt lat="43.728218908271536" lon="11.080229481247775"><ele>143.0</ele><time>2026-03-28T09:52:32Z</time></trkpt><trkpt lat="43.72809023596765" lon="11.080096533056603"><ele>143.0</ele><time>2026-03-28T09:52:33Z</time></trkpt><trkpt lat="43.727963680743244" lon="11.079952048929952"><ele>143.0</ele><time>2026-03-28T09:52:34Z</time></trkpt><trkpt lat="43.727808502814725" lon="11.079856317629556"><ele>143.66666666666666</ele><time>2026-03-28T09:52:35Z</time></trkpt><trkpt lat="43.72765918213017" lon="11.079738386054737"><ele>144.33333333333334</ele><time>2026-03-28T09:52:36Z</time></trkpt><trkpt lat="43.72752116013224" lon="11.079607119445823"><ele>145.0</ele><time>2026-03-28T09:52:37Z</time></trkpt><trkpt lat="43.72739114277374" lon="11.079448124904491"><ele>145.0</ele><time>2026-03-28T09:52:38Z</time></trkpt><trkpt lat="43.727257258687686" lon="11.079261128124008"><ele>145.0</ele><time>2026-03-28T09:52:39Z</time></trkpt><trkpt lat="43.727149877416295" lon="11.079068938043768"><ele>145.0</ele><time>2026-03-28T09:52:40Z</time></trkpt><trkpt lat="43.72704886040277" lon="11.07886874639877"><ele>146.33333333333334</ele><time>2026-03-28T09:52:41Z</time></trkpt><trkpt lat="43.7269302714933" lon="11.078656733840912"><ele>147.66666666666666</ele><time>2026-03-28T09:52:42Z</time></trkpt><trkpt lat="43.72677723122802" lon="11.078483252960563"><ele>149.0</ele><time>2026-03-28T09:52:43Z</time></trkpt><trkpt lat="43.726630346133234" lon="11.078327256384103"><ele>146.0</ele><time>2026-03-28T09:52:44Z</time></trkpt><trkpt lat="43.7264954311922" lon="11.078182622959302"><ele>143.0</ele><time>2026-03-28T09:52:45Z</time></trkpt><trkpt lat="43.7263584078642" lon="11.07797344523512"><ele>140.0</ele><time>2026-03-28T09:52:46Z</time></trkpt><trkpt lat="43.72625061313795" lon="11.077740715444989"><ele>140.0</ele><time>2026-03-28T09:52:47Z</time></trkpt><trkpt lat="43.72614218480505" lon="11.077608593180987"><ele>140.0</ele><time>2026-03-28T09:52:48Z</time></trkpt><trkpt lat="43.72604738560883" lon="11.077391637950411"><ele>140.0</ele><time>2026-03-28T09:52:49Z</time></trkpt><trkpt lat="43.725955598723125" lon="11.07718253474006"><ele>139.33333333333331</ele><time>2026-03-28T09:52:50Z</time></trkpt><trkpt lat="43.725858117024764" lon="11.076994653126185"><ele>138.66666666666666</ele><time>2026-03-28T09:52:51Z</time></trkpt><trkpt lat="43.7257332225597" lon="11.07685457978348"><ele>138.0</ele><time>2026-03-28T09:52:52Z</time></trkpt><trkpt lat="43.72560791461532" lon="11.07673124584905"><ele>138.0</ele><time>2026-03-28T09:52:53Z</time></trkpt><trkpt lat="43.72545864483822" lon="11.076655081337146"><ele>138.0</ele><time>2026-03-28T09:52:54Z</time></trkpt><trkpt lat="43.72528478317516" lon="11.076601635939651"><ele>138.0</ele><time>2026-03-28T09:52:55Z</time></trkpt><trkpt lat="43.725102450738646" lon="11.076544028022548"><ele>137.0</ele><time>2026-03-28T09:52:56.001Z</time></trkpt><trkpt lat="43.72498138552195" lon="11.076417388085684"><ele>136.0</ele><time>2026-03-28T09:52:57.001Z</time></trkpt><trkpt lat="43.724916574432086" lon="11.076260242494262"><ele>135.0</ele><time>2026-03-28T09:52:58.001Z</time></trkpt><trkpt lat="43.72482304457497" lon="11.07612330424502"><ele>134.0</ele><time>2026-03-28T09:52:59.001Z</time></trkpt><trkpt lat="43.72470765283701" lon="11.076012675248922"><ele>134.0</ele><time>2026-03-28T09:53:00.001Z</time></trkpt><trkpt lat="43.724538036873426" lon="11.075997606295973"><ele>134.0</ele><time>2026-03-28T09:53:01.001Z</time></trkpt><trkpt lat="43.724342246285936" lon="11.075962635771056"><ele>134.0</ele><time>2026-03-28T09:53:02.001Z</time></trkpt><trkpt lat="43.72416499776769" lon="11.075904962876402"><ele>133.66666666666666</ele><time>2026-03-28T09:53:03.001Z</time></trkpt><trkpt lat="43.724004610543986" lon="11.07582841963097"><ele>133.33333333333334</ele><time>2026-03-28T09:53:04.001Z</time></trkpt><trkpt lat="43.72384226680364" lon="11.07571934412266"><ele>133.0</ele><time>2026-03-28T09:53:05.001Z</time></trkpt><trkpt lat="43.723676337596864" lon="11.075583604504848"><ele>132.66666666666669</ele><time>2026-03-28T09:53:06.001Z</time></trkpt><trkpt lat="43.72351514603513" lon="11.075411633168326"><ele>132.33333333333334</ele><time>2026-03-28T09:53:07.001Z</time></trkpt><trkpt lat="43.72337877584737" lon="11.075228385103827"><ele>132.0</ele><time>2026-03-28T09:53:08.001Z</time></trkpt><trkpt lat="43.72324797417641" lon="11.075070471583492"><ele>130.66666666666666</ele><time>2026-03-28T09:53:09.001Z</time></trkpt><trkpt lat="43.72310381767708" lon="11.074933906666"><ele>129.33333333333331</ele><time>2026-03-28T09:53:10.001Z</time></trkpt><trkpt lat="43.7229232911796" lon="11.074828719860845"><ele>128.0</ele><time>2026-03-28T09:53:11.001Z</time></trkpt><trkpt lat="43.72273458231505" lon="11.074741524862628"><ele>131.66666666666666</ele><time>2026-03-28T09:53:12.001Z</time></trkpt><trkpt lat="43.72256854517908" lon="11.074656906549626"><ele>135.33333333333334</ele><time>2026-03-28T09:53:13.001Z</time></trkpt><trkpt lat="43.72243550310976" lon="11.074557229392134"><ele>139.0</ele><time>2026-03-28T09:53:14.001Z</time></trkpt><trkpt lat="43.72230114892842" lon="11.074433121685493"><ele>139.0</ele><time>2026-03-28T09:53:15.001Z</time></trkpt><trkpt lat="43.72215721618343" lon="11.074284005922614"><ele>139.0</ele><time>2026-03-28T09:53:16.001Z</time></trkpt><trkpt lat="43.72201524565865" lon="11.074139692919873"><ele>139.0</ele><time>2026-03-28T09:53:17.001Z</time></trkpt><trkpt lat="43.721853643145856" lon="11.074001330093575"><ele>138.33333333333334</ele><time>2026-03-28T09:53:18.001Z</time></trkpt><trkpt lat="43.72167186763479" lon="11.073868439738707"><ele>137.66666666666666</ele><time>2026-03-28T09:53:19.001Z</time></trkpt><trkpt lat="43.721490039832474" lon="11.073752381816508"><ele>137.0</ele><time>2026-03-28T09:53:20.001Z</time></trkpt><trkpt lat="43.7213244510261" lon="11.073636747560254"><ele>137.0</ele><time>2026-03-28T09:53:21.001Z</time></trkpt><trkpt lat="43.721157479114176" lon="11.073493508264525"><ele>137.0</ele><time>2026-03-28T09:53:22.001Z</time></trkpt><trkpt lat="43.72098407533536" lon="11.073318528799458"><ele>137.0</ele><time>2026-03-28T09:53:23.001Z</time></trkpt><trkpt lat="43.720807546396045" lon="11.073129397679518"><ele>135.66666666666666</ele><time>2026-03-28T09:53:24.001Z</time></trkpt><trkpt lat="43.72065543681461" lon="11.072948669917453"><ele>134.33333333333334</ele><time>2026-03-28T09:53:25.001Z</time></trkpt><trkpt lat="43.720504001974355" lon="11.072751375469139"><ele>133.0</ele><time>2026-03-28T09:53:26.001Z</time></trkpt><trkpt lat="43.720354774368715" lon="11.072548089785238"><ele>133.0</ele><time>2026-03-28T09:53:27.001Z</time></trkpt><trkpt lat="43.72022169091326" lon="11.072361164576494"><ele>133.0</ele><time>2026-03-28T09:53:28.001Z</time></trkpt><trkpt lat="43.72009479059833" lon="11.072182328486683"><ele>133.0</ele><time>2026-03-28T09:53:29.001Z</time></trkpt><trkpt lat="43.719975497333394" lon="11.072008988541842"><ele>133.0</ele><time>2026-03-28T09:53:30.001Z</time></trkpt><trkpt lat="43.71985186122996" lon="11.071842960839165"><ele>133.0</ele><time>2026-03-28T09:53:31.001Z</time></trkpt><trkpt lat="43.719719888092044" lon="11.071699305947607"><ele>133.0</ele><time>2026-03-28T09:53:32.001Z</time></trkpt><trkpt lat="43.719583101135306" lon="11.071563543691518"><ele>130.66666666666669</ele><time>2026-03-28T09:53:33.001Z</time></trkpt><trkpt lat="43.71944791125635" lon="11.07143690703316"><ele>128.33333333333334</ele><time>2026-03-28T09:53:34.001Z</time></trkpt><trkpt lat="43.71931658947056" lon="11.071316560094862"><ele>126.0</ele><time>2026-03-28T09:53:35.001Z</time></trkpt><trkpt lat="43.71917897730376" lon="11.071205895565615"><ele>126.0</ele><time>2026-03-28T09:53:36.001Z</time></trkpt><trkpt lat="43.71901503352116" lon="11.071125144606142"><ele>126.0</ele><time>2026-03-28T09:53:37.001Z</time></trkpt><trkpt lat="43.71883275682868" lon="11.071028655388538"><ele>126.0</ele><time>2026-03-28T09:53:38Z</time></trkpt><trkpt lat="43.71863994350534" lon="11.070905504927042"><ele>125.0</ele><time>2026-03-28T09:53:39Z</time></trkpt><trkpt lat="43.71843520045308" lon="11.07079572098752"><ele>124.0</ele><time>2026-03-28T09:53:40Z</time></trkpt><trkpt lat="43.71823530533392" lon="11.070689584800153"><ele>123.0</ele><time>2026-03-28T09:53:41Z</time></trkpt><trkpt lat="43.71804207679093" lon="11.07061495636884"><ele>117.33333333333334</ele><time>2026-03-28T09:53:42Z</time></trkpt><trkpt lat="43.71785977553661" lon="11.07051718991324"><ele>111.66666666666667</ele><time>2026-03-28T09:53:43Z</time></trkpt><trkpt lat="43.71769224516567" lon="11.07039895573804"><ele>106.0</ele><time>2026-03-28T09:53:44Z</time></trkpt><trkpt lat="43.71752372188469" lon="11.070297014195182"><ele>106.0</ele><time>2026-03-28T09:53:45Z</time></trkpt><trkpt lat="43.71736270045612" lon="11.07019717365883"><ele>106.0</ele><time>2026-03-28T09:53:46Z</time></trkpt><trkpt lat="43.717206888303174" lon="11.070099554689762"><ele>106.0</ele><time>2026-03-28T09:53:47Z</time></trkpt><trkpt lat="43.7170488128605" lon="11.070003233272297"><ele>103.0</ele><time>2026-03-28T09:53:48Z</time></trkpt><trkpt lat="43.71689463217834" lon="11.069915766452318"><ele>100.0</ele><time>2026-03-28T09:53:49Z</time></trkpt><trkpt lat="43.71675441189095" lon="11.069839526441095"><ele>97.0</ele><time>2026-03-28T09:53:50Z</time></trkpt><trkpt lat="43.71661160580861" lon="11.069759348389914"><ele>97.0</ele><time>2026-03-28T09:53:51Z</time></trkpt><trkpt lat="43.71646804506943" lon="11.069677898139004"><ele>97.0</ele><time>2026-03-28T09:53:52Z</time></trkpt><trkpt lat="43.71629275484913" lon="11.069602992407235"><ele>97.0</ele><time>2026-03-28T09:53:53Z</time></trkpt><trkpt lat="43.71608364440595" lon="11.069529484141324"><ele>98.0</ele><time>2026-03-28T09:53:54Z</time></trkpt><trkpt lat="43.71591995547328" lon="11.069474489265657"><ele>99.0</ele><time>2026-03-28T09:53:55Z</time></trkpt><trkpt lat="43.715760147625765" lon="11.069415446091874"><ele>100.0</ele><time>2026-03-28T09:53:56Z</time></trkpt><trkpt lat="43.715617129539154" lon="11.06933007185646"><ele>100.0</ele><time>2026-03-28T09:53:57Z</time></trkpt><trkpt lat="43.71547593198148" lon="11.069211425690042"><ele>100.0</ele><time>2026-03-28T09:53:58Z</time></trkpt><trkpt lat="43.715337131461936" lon="11.06908545813528"><ele>100.0</ele><time>2026-03-28T09:53:59Z</time></trkpt><trkpt lat="43.71519316572348" lon="11.06896656243848"><ele>99.66666666666667</ele><time>2026-03-28T09:54:00Z</time></trkpt><trkpt lat="43.71504978492141" lon="11.06888466186782"><ele>99.33333333333334</ele><time>2026-03-28T09:54:01Z</time></trkpt><trkpt lat="43.71487983395694" lon="11.068866640784027"><ele>99.0</ele><time>2026-03-28T09:54:02Z</time></trkpt><trkpt lat="43.71470298470135" lon="11.068875511715701"><ele>99.0</ele><time>2026-03-28T09:54:03Z</time></trkpt><trkpt lat="43.714520824062944" lon="11.068881189690824"><ele>99.0</ele><time>2026-03-28T09:54:04Z</time></trkpt><trkpt lat="43.71435628903905" lon="11.068875595303098"><ele>99.0</ele><time>2026-03-28T09:54:05Z</time></trkpt><trkpt lat="43.71420525253148" lon="11.068849626847443"><ele>97.0</ele><time>2026-03-28T09:54:06Z</time></trkpt><trkpt lat="43.71406303251238" lon="11.068796680566148"><ele>95.0</ele><time>2026-03-28T09:54:07Z</time></trkpt><trkpt lat="43.71393063793664" lon="11.068716232281297"><ele>93.0</ele><time>2026-03-28T09:54:08Z</time></trkpt><trkpt lat="43.71377861970918" lon="11.068592525749164"><ele>93.0</ele><time>2026-03-28T09:54:09Z</time></trkpt><trkpt lat="43.7136229784865" lon="11.06845423006296"><ele>93.0</ele><time>2026-03-28T09:54:10Z</time></trkpt><trkpt lat="43.713486708863414" lon="11.068331779853322"><ele>93.0</ele><time>2026-03-28T09:54:11Z</time></trkpt><trkpt lat="43.713375757501495" lon="11.068220786141277"><ele>92.5</ele><time>2026-03-28T09:54:12Z</time></trkpt><trkpt lat="43.71329022746395" lon="11.06811496427925"><ele>92.0</ele><time>2026-03-28T09:54:13Z</time></trkpt><trkpt lat="43.71322064567878" lon="11.068064343446846"><ele>91.5</ele><time>2026-03-28T09:54:14Z</time></trkpt><trkpt lat="43.71317045191028" lon="11.067990799247102"><ele>91.0</ele><time>2026-03-28T09:54:15Z</time></trkpt><trkpt lat="43.713106768793736" lon="11.067951386238493"><ele>90.5</ele><time>2026-03-28T09:54:16Z</time></trkpt><trkpt lat="43.71303054460503" lon="11.067984772501092"><ele>90.0</ele><time>2026-03-28T09:54:17Z</time></trkpt><trkpt lat="43.712930938079246" lon="11.068019628354582"><ele>90.0</ele><time>2026-03-28T09:54:19Z</time></trkpt><trkpt lat="43.712846178182545" lon="11.06806869859177"><ele>90.0</ele><time>2026-03-28T09:55:08.001Z</time></trkpt><trkpt lat="43.7127285636225" lon="11.068145538335207"><ele>90.0</ele><time>2026-03-28T09:55:10.001Z</time></trkpt><trkpt lat="43.71266013391786" lon="11.068190407461616"><ele>90.0</ele><time>2026-03-28T09:55:11.001Z</time></trkpt><trkpt lat="43.71259025392102" lon="11.068274427667859"><ele>90.0</ele><time>2026-03-28T09:55:13.001Z</time></trkpt><trkpt lat="43.7125567690735" lon="11.068396866258109"><ele>87.6</ele><time>2026-03-28T09:55:15.001Z</time></trkpt><trkpt lat="43.712605793348466" lon="11.068524021110482"><ele>85.2</ele><time>2026-03-28T09:55:17.001Z</time></trkpt><trkpt lat="43.71271339719571" lon="11.068604737276802"><ele>82.8</ele><time>2026-03-28T09:55:19.001Z</time></trkpt><trkpt lat="43.712787369511695" lon="11.068640013412294"><ele>80.4</ele><time>2026-03-28T09:55:20.001Z</time></trkpt><trkpt lat="43.71289143200086" lon="11.068708995109587"><ele>78.0</ele><time>2026-03-28T09:55:22.001Z</time></trkpt><trkpt lat="43.71295882407589" lon="11.068775898073685"><ele>78.0</ele><time>2026-03-28T09:55:24.001Z</time></trkpt><trkpt lat="43.7129548223681" lon="11.068866829950231"><ele>78.0</ele><time>2026-03-28T09:55:26.001Z</time></trkpt><trkpt lat="43.71291658752336" lon="11.068943388593613"><ele>78.0</ele><time>2026-03-28T09:55:28.001Z</time></trkpt><trkpt lat="43.71279297856468" lon="11.068925943367912"><ele>78.0</ele><time>2026-03-28T09:55:30.001Z</time></trkpt><trkpt lat="43.71271149225108" lon="11.068899123432812"><ele>78.0</ele><time>2026-03-28T09:55:31.001Z</time></trkpt><trkpt lat="43.712613886945434" lon="11.068883502215115"><ele>78.0</ele><time>2026-03-28T09:55:32.001Z</time></trkpt><trkpt lat="43.71250674405105" lon="11.068910863544277"><ele>77.2</ele><time>2026-03-28T09:55:33.001Z</time></trkpt><trkpt lat="43.712398425849855" lon="11.068908836246564"><ele>76.4</ele><time>2026-03-28T09:55:34.001Z</time></trkpt><trkpt lat="43.71230173440404" lon="11.068910660017766"><ele>75.60000000000001</ele><time>2026-03-28T09:55:35.001Z</time></trkpt><trkpt lat="43.71220845294102" lon="11.068892882983729"><ele>74.8</ele><time>2026-03-28T09:55:36.001Z</time></trkpt><trkpt lat="43.71211695782051" lon="11.068877664801665"><ele>74.0</ele><time>2026-03-28T09:55:37.001Z</time></trkpt><trkpt lat="43.71200368514278" lon="11.068857729527803"><ele>74.0</ele><time>2026-03-28T09:55:38.001Z</time></trkpt><trkpt lat="43.71191416401449" lon="11.068823073618155"><ele>74.0</ele><time>2026-03-28T09:55:39.001Z</time></trkpt><trkpt lat="43.71182390574058" lon="11.068795559732951"><ele>74.0</ele><time>2026-03-28T09:55:40.001Z</time></trkpt><trkpt lat="43.7117220558562" lon="11.068775477634649"><ele>74.0</ele><time>2026-03-28T09:55:41.001Z</time></trkpt><trkpt lat="43.71162132197494" lon="11.06872603901724"><ele>74.0</ele><time>2026-03-28T09:55:42.001Z</time></trkpt><trkpt lat="43.71152856873775" lon="11.06867240371826"><ele>71.8</ele><time>2026-03-28T09:55:43.001Z</time></trkpt><trkpt lat="43.71143704192221" lon="11.068620010011408"><ele>69.60000000000001</ele><time>2026-03-28T09:55:44.001Z</time></trkpt><trkpt lat="43.71134070477153" lon="11.06856098675658"><ele>67.4</ele><time>2026-03-28T09:55:45.001Z</time></trkpt><trkpt lat="43.71124412444006" lon="11.068503655366403"><ele>65.2</ele><time>2026-03-28T09:55:46.001Z</time></trkpt><trkpt lat="43.71114889296876" lon="11.068443790006032"><ele>63.0</ele><time>2026-03-28T09:55:47.001Z</time></trkpt><trkpt lat="43.711062755866706" lon="11.06838994437856"><ele>61.166666666666664</ele><time>2026-03-28T09:55:48.001Z</time></trkpt><trkpt lat="43.71098167584934" lon="11.068327965028022"><ele>59.33333333333333</ele><time>2026-03-28T09:55:49.001Z</time></trkpt><trkpt lat="43.71089678549515" lon="11.06829048739855"><ele>57.5</ele><time>2026-03-28T09:55:50.001Z</time></trkpt><trkpt lat="43.710816161988916" lon="11.068262533121496"><ele>55.666666666666664</ele><time>2026-03-28T09:55:51.001Z</time></trkpt><trkpt lat="43.710732349785" lon="11.068261729057598"><ele>53.83333333333333</ele><time>2026-03-28T09:55:52.001Z</time></trkpt><trkpt lat="43.71066277954227" lon="11.068231744171094"><ele>52.0</ele><time>2026-03-28T09:55:53.001Z</time></trkpt><trkpt lat="43.71056077761564" lon="11.068207854199407"><ele>52.0</ele><time>2026-03-28T09:55:55.001Z</time></trkpt><trkpt lat="43.710491710407716" lon="11.068203011987196"><ele>52.0</ele><time>2026-03-28T09:55:57.001Z</time></trkpt><trkpt lat="43.7104213461855" lon="11.068170956074445"><ele>52.0</ele><time>2026-03-28T09:55:59.001Z</time></trkpt><trkpt lat="43.71027410995679" lon="11.068222173876524"><ele>52.0</ele><time>2026-03-28T09:56:01.001Z</time></trkpt><trkpt lat="43.71019393666251" lon="11.068331329176779"><ele>52.0</ele><time>2026-03-28T09:56:02.001Z</time></trkpt><trkpt lat="43.710079609938546" lon="11.068515508237555"><ele>51.0</ele><time>2026-03-28T09:56:03.001Z</time></trkpt><trkpt lat="43.70997855950196" lon="11.0686775299476"><ele>50.0</ele><time>2026-03-28T09:56:04.001Z</time></trkpt><trkpt lat="43.7098909970694" lon="11.068864505011824"><ele>49.0</ele><time>2026-03-28T09:56:05.001Z</time></trkpt><trkpt lat="43.70978679972219" lon="11.069081785739721"><ele>50.666666666666664</ele><time>2026-03-28T09:56:06.001Z</time></trkpt><trkpt lat="43.70969312219865" lon="11.069274444095617"><ele>52.33333333333333</ele><time>2026-03-28T09:56:07.001Z</time></trkpt><trkpt lat="43.70961825460356" lon="11.069462635401917"><ele>54.0</ele><time>2026-03-28T09:56:08.001Z</time></trkpt><trkpt lat="43.70956444162136" lon="11.069664661293965"><ele>54.0</ele><time>2026-03-28T09:56:09.001Z</time></trkpt><trkpt lat="43.70953036053979" lon="11.069882747892434"><ele>54.0</ele><time>2026-03-28T09:56:10.001Z</time></trkpt><trkpt lat="43.70949979963794" lon="11.070122257677564"><ele>54.0</ele><time>2026-03-28T09:56:11.001Z</time></trkpt><trkpt lat="43.709470210324326" lon="11.070337749293323"><ele>53.75</ele><time>2026-03-28T09:56:12.001Z</time></trkpt><trkpt lat="43.70944037322424" lon="11.070533390489388"><ele>53.5</ele><time>2026-03-28T09:56:13.001Z</time></trkpt><trkpt lat="43.709417742175425" lon="11.070724893445828"><ele>53.25</ele><time>2026-03-28T09:56:14.001Z</time></trkpt><trkpt lat="43.7093985685795" lon="11.070912265576967"><ele>53.0</ele><time>2026-03-28T09:56:15.001Z</time></trkpt><trkpt lat="43.70937681017282" lon="11.071063763225373"><ele>53.00000000000001</ele><time>2026-03-28T09:56:16.001Z</time></trkpt><trkpt lat="43.70932274447605" lon="11.071180842405582"><ele>53.0</ele><time>2026-03-28T09:56:17.001Z</time></trkpt><trkpt lat="43.70928328053889" lon="11.071289457369891"><ele>53.0</ele><time>2026-03-28T09:56:18.001Z</time></trkpt><trkpt lat="43.709246881672364" lon="11.07138963678496"><ele>53.0</ele><time>2026-03-28T09:56:19.001Z</time></trkpt><trkpt lat="43.709229245468734" lon="11.07151819390532"><ele>53.00000000000001</ele><time>2026-03-28T09:56:20.001Z</time></trkpt><trkpt lat="43.709208747741236" lon="11.071628392449282"><ele>53.0</ele><time>2026-03-28T09:56:21.001Z</time></trkpt><trkpt lat="43.709162490244175" lon="11.071803286095372"><ele>53.4</ele><time>2026-03-28T09:56:23.001Z</time></trkpt><trkpt lat="43.709116371791474" lon="11.071911633652169"><ele>53.8</ele><time>2026-03-28T09:56:24.001Z</time></trkpt><trkpt lat="43.70906588822966" lon="11.072009776088299"><ele>54.2</ele><time>2026-03-28T09:56:25.001Z</time></trkpt><trkpt lat="43.70896169371495" lon="11.072195098111173"><ele>54.6</ele><time>2026-03-28T09:56:27.001Z</time></trkpt><trkpt lat="43.70892391127978" lon="11.07226547867965"><ele>55.0</ele><time>2026-03-28T09:56:28.001Z</time></trkpt><trkpt lat="43.70887051425433" lon="11.072346488263852"><ele>55.0</ele><time>2026-03-28T09:56:30.001Z</time></trkpt><trkpt lat="43.708687629331166" lon="11.072194216231113"><ele>55.0</ele><time>2026-03-28T09:56:32.001Z</time></trkpt><trkpt lat="43.708587441375194" lon="11.072112161893111"><ele>55.0</ele><time>2026-03-28T09:56:33.001Z</time></trkpt><trkpt lat="43.708476792730565" lon="11.07201937053945"><ele>54.5</ele><time>2026-03-28T09:56:34.001Z</time></trkpt><trkpt lat="43.708342111479844" lon="11.071920116435892"><ele>54.0</ele><time>2026-03-28T09:56:35.001Z</time></trkpt><trkpt lat="43.708205797220295" lon="11.071864485511135"><ele>53.5</ele><time>2026-03-28T09:56:36.001Z</time></trkpt><trkpt lat="43.70810200446297" lon="11.071770083243932"><ele>53.0</ele><time>2026-03-28T09:56:37.001Z</time></trkpt><trkpt lat="43.70800514045559" lon="11.07170220120048"><ele>53.00000000000001</ele><time>2026-03-28T09:56:38.001Z</time></trkpt><trkpt lat="43.70792898979295" lon="11.07164870389865"><ele>53.0</ele><time>2026-03-28T09:56:39.001Z</time></trkpt><trkpt lat="43.70786522144573" lon="11.071615011798379"><ele>53.0</ele><time>2026-03-28T09:56:40.001Z</time></trkpt><trkpt lat="43.707820579117254" lon="11.071545746630365"><ele>53.0</ele><time>2026-03-28T09:56:41.001Z</time></trkpt><trkpt lat="43.70778924007758" lon="11.071462083212744"><ele>53.00000000000001</ele><time>2026-03-28T09:56:42.001Z</time></trkpt><trkpt lat="43.707755029013555" lon="11.071357044488288"><ele>53.0</ele><time>2026-03-28T09:56:43.001Z</time></trkpt><trkpt lat="43.707727038383666" lon="11.071237818523441"><ele>52.25</ele><time>2026-03-28T09:56:44.001Z</time></trkpt><trkpt lat="43.70765462464167" lon="11.071127183614754"><ele>51.5</ele><time>2026-03-28T09:56:45.001Z</time></trkpt><trkpt lat="43.70753705087722" lon="11.071072372849603"><ele>50.75</ele><time>2026-03-28T09:56:46.001Z</time></trkpt><trkpt lat="43.70742108605636" lon="11.071097055154198"><ele>50.0</ele><time>2026-03-28T09:56:47.001Z</time></trkpt><trkpt lat="43.707319259606386" lon="11.071072590306681"><ele>50.0</ele><time>2026-03-28T09:56:48.001Z</time></trkpt><trkpt lat="43.70722595028181" lon="11.071005998334678"><ele>50.0</ele><time>2026-03-28T09:56:49.001Z</time></trkpt><trkpt lat="43.70715352136642" lon="11.070866902780528"><ele>50.0</ele><time>2026-03-28T09:56:50.001Z</time></trkpt><trkpt lat="43.707041038798344" lon="11.070719955256743"><ele>50.0</ele><time>2026-03-28T09:56:51.001Z</time></trkpt><trkpt lat="43.70693274015866" lon="11.070545736486222"><ele>50.333333333333336</ele><time>2026-03-28T09:56:52.001Z</time></trkpt><trkpt lat="43.70681520599731" lon="11.070360113216237"><ele>50.66666666666667</ele><time>2026-03-28T09:56:53.001Z</time></trkpt><trkpt lat="43.70670914027999" lon="11.07018256207753"><ele>51.0</ele><time>2026-03-28T09:56:54.001Z</time></trkpt><trkpt lat="43.70658487452383" lon="11.070041176470555"><ele>50.66666666666667</ele><time>2026-03-28T09:56:55.001Z</time></trkpt><trkpt lat="43.70644065949354" lon="11.069914653521446"><ele>50.333333333333336</ele><time>2026-03-28T09:56:56.001Z</time></trkpt><trkpt lat="43.70628282321854" lon="11.069791864243406"><ele>50.0</ele><time>2026-03-28T09:56:57.001Z</time></trkpt><trkpt lat="43.70610232535244" lon="11.069653234728822"><ele>49.66666666666667</ele><time>2026-03-28T09:56:58.001Z</time></trkpt><trkpt lat="43.70592427963361" lon="11.069515233423784"><ele>49.33333333333333</ele><time>2026-03-28T09:56:59.001Z</time></trkpt><trkpt lat="43.70574711329011" lon="11.069403466520038"><ele>49.0</ele><time>2026-03-28T09:57:00.001Z</time></trkpt><trkpt lat="43.705599298160244" lon="11.069287915095318"><ele>49.0</ele><time>2026-03-28T09:57:01.001Z</time></trkpt><trkpt lat="43.70546680596149" lon="11.069159761201561"><ele>49.0</ele><time>2026-03-28T09:57:02.001Z</time></trkpt><trkpt lat="43.705335887829634" lon="11.069058033470192"><ele>49.0</ele><time>2026-03-28T09:57:03.001Z</time></trkpt><trkpt lat="43.705227307212375" lon="11.068973662724007"><ele>49.0</ele><time>2026-03-28T09:57:04.001Z</time></trkpt><trkpt lat="43.70512658679513" lon="11.06889571584769"><ele>50.0</ele><time>2026-03-28T09:57:05.001Z</time></trkpt><trkpt lat="43.705041354996204" lon="11.068829961868163"><ele>51.0</ele><time>2026-03-28T09:57:06.001Z</time></trkpt><trkpt lat="43.704941828405445" lon="11.068753179842293"><ele>52.0</ele><time>2026-03-28T09:57:07.001Z</time></trkpt><trkpt lat="43.70483220759792" lon="11.068669457066886"><ele>53.0</ele><time>2026-03-28T09:57:08.001Z</time></trkpt><trkpt lat="43.70472493768136" lon="11.068587706113282"><ele>53.0</ele><time>2026-03-28T09:57:09.001Z</time></trkpt><trkpt lat="43.70461872418545" lon="11.068508261468528"><ele>53.0</ele><time>2026-03-28T09:57:10.001Z</time></trkpt><trkpt lat="43.70450642319887" lon="11.068428346542055"><ele>53.0</ele><time>2026-03-28T09:57:11.001Z</time></trkpt><trkpt lat="43.704390112904065" lon="11.068359066594406"><ele>53.0</ele><time>2026-03-28T09:57:12.001Z</time></trkpt><trkpt lat="43.70425852512091" lon="11.068299411056222"><ele>52.75</ele><time>2026-03-28T09:57:13.001Z</time></trkpt><trkpt lat="43.704117834255825" lon="11.068255832780967"><ele>52.5</ele><time>2026-03-28T09:57:14.001Z</time></trkpt><trkpt lat="43.70397359786933" lon="11.068216635429557"><ele>52.25</ele><time>2026-03-28T09:57:15.001Z</time></trkpt><trkpt lat="43.70382980832576" lon="11.068183082588416"><ele>52.0</ele><time>2026-03-28T09:57:16.001Z</time></trkpt><trkpt lat="43.703693034376506" lon="11.068178800627715"><ele>51.75</ele><time>2026-03-28T09:57:17.001Z</time></trkpt><trkpt lat="43.70357517291352" lon="11.06813558349007"><ele>51.5</ele><time>2026-03-28T09:57:18.001Z</time></trkpt><trkpt lat="43.70345691699289" lon="11.06811943815177"><ele>51.25</ele><time>2026-03-28T09:57:19.001Z</time></trkpt><trkpt lat="43.70333058942985" lon="11.068110501329151"><ele>51.0</ele><time>2026-03-28T09:57:20.001Z</time></trkpt><trkpt lat="43.7032129085288" lon="11.068109158950435"><ele>51.0</ele><time>2026-03-28T09:57:21.001Z</time></trkpt><trkpt lat="43.703101260722434" lon="11.068111944332527"><ele>51.0</ele><time>2026-03-28T09:57:22.001Z</time></trkpt><trkpt lat="43.70300435222938" lon="11.068118652767437"><ele>51.0</ele><time>2026-03-28T09:57:23.001Z</time></trkpt><trkpt lat="43.702875094695486" lon="11.068130230719424"><ele>51.0</ele><time>2026-03-28T09:57:25.001Z</time></trkpt><trkpt lat="43.70280987522494" lon="11.06813606167574"><ele>51.0</ele><time>2026-03-28T09:57:26.001Z</time></trkpt><trkpt lat="43.70273732306276" lon="11.068142548215054"><ele>51.5</ele><time>2026-03-28T09:57:27.001Z</time></trkpt><trkpt lat="43.702662295063284" lon="11.068149761399557"><ele>52.0</ele><time>2026-03-28T09:57:28.001Z</time></trkpt><trkpt lat="43.702586295682416" lon="11.068157209503404"><ele>52.5</ele><time>2026-03-28T09:57:29.001Z</time></trkpt><trkpt lat="43.70251161996454" lon="11.06816452788511"><ele>53.0</ele><time>2026-03-28T09:57:30.001Z</time></trkpt><trkpt lat="43.7024393374637" lon="11.06817161172728"><ele>53.5</ele><time>2026-03-28T09:57:31.001Z</time></trkpt><trkpt lat="43.70232918562966" lon="11.068182884524479"><ele>54.0</ele><time>2026-03-28T09:57:33.001Z</time></trkpt><trkpt lat="43.70225323095084" lon="11.068192031679459"><ele>54.0</ele><time>2026-03-28T09:57:37.001Z</time></trkpt><trkpt lat="43.70215253445384" lon="11.068204158479718"><ele>54.00000000000001</ele><time>2026-03-28T09:57:40.001Z</time></trkpt><trkpt lat="43.70203230986971" lon="11.068232135577155"><ele>54.00000000000001</ele><time>2026-03-28T09:57:42.001Z</time></trkpt><trkpt lat="43.70195297780908" lon="11.068244734986171"><ele>54.0</ele><time>2026-03-28T09:57:43.002Z</time></trkpt><trkpt lat="43.70186657080746" lon="11.068251186881987"><ele>54.0</ele><time>2026-03-28T09:57:44.002Z</time></trkpt><trkpt lat="43.701787355959844" lon="11.068260959831358"><ele>53.800000000000004</ele><time>2026-03-28T09:57:45.002Z</time></trkpt><trkpt lat="43.70170288901091" lon="11.068269130547444"><ele>53.60000000000001</ele><time>2026-03-28T09:57:46.002Z</time></trkpt><trkpt lat="43.70161185258285" lon="11.068278919823165"><ele>53.4</ele><time>2026-03-28T09:57:47.002Z</time></trkpt><trkpt lat="43.70151860224183" lon="11.068295393339845"><ele>53.2</ele><time>2026-03-28T09:57:48.002Z</time></trkpt><trkpt lat="43.70142127737605" lon="11.06830057178297"><ele>53.0</ele><time>2026-03-28T09:57:49.002Z</time></trkpt><trkpt lat="43.701318900745726" lon="11.068319780353452"><ele>54.4</ele><time>2026-03-28T09:57:50.001Z</time></trkpt><trkpt lat="43.70121785328545" lon="11.0683278528632"><ele>55.8</ele><time>2026-03-28T09:57:51.001Z</time></trkpt><trkpt lat="43.7011074852177" lon="11.068337154839035"><ele>57.2</ele><time>2026-03-28T09:57:52.001Z</time></trkpt><trkpt lat="43.70099608503446" lon="11.068353279064196"><ele>58.6</ele><time>2026-03-28T09:57:53.001Z</time></trkpt><trkpt lat="43.70089201463557" lon="11.068371124740567"><ele>60.0</ele><time>2026-03-28T09:57:54.001Z</time></trkpt><trkpt lat="43.700782006247515" lon="11.06838625199719"><ele>60.0</ele><time>2026-03-28T09:57:55.001Z</time></trkpt><trkpt lat="43.70067572984278" lon="11.068404892750099"><ele>60.0</ele><time>2026-03-28T09:57:56.001Z</time></trkpt><trkpt lat="43.70057243305807" lon="11.068419271124007"><ele>60.0</ele><time>2026-03-28T09:57:57.001Z</time></trkpt><trkpt lat="43.700474321069045" lon="11.068438111980027"><ele>60.0</ele><time>2026-03-28T09:57:58.001Z</time></trkpt><trkpt lat="43.70037420118193" lon="11.06846049427016"><ele>60.0</ele><time>2026-03-28T09:57:59.001Z</time></trkpt><trkpt lat="43.700273447240065" lon="11.068488689930192"><ele>59.4</ele><time>2026-03-28T09:58:00.001Z</time></trkpt><trkpt lat="43.70016847677927" lon="11.068510325065029"><ele>58.8</ele><time>2026-03-28T09:58:01.001Z</time></trkpt><trkpt lat="43.70006400325597" lon="11.068537361745092"><ele>58.2</ele><time>2026-03-28T09:58:02.001Z</time></trkpt><trkpt lat="43.69995741811581" lon="11.068553593460196"><ele>57.6</ele><time>2026-03-28T09:58:03.001Z</time></trkpt><trkpt lat="43.69984658071953" lon="11.068572400039885"><ele>57.0</ele><time>2026-03-28T09:58:04.001Z</time></trkpt><trkpt lat="43.69972983200752" lon="11.068592172276908"><ele>57.0</ele><time>2026-03-28T09:58:05.001Z</time></trkpt><trkpt lat="43.69960770623535" lon="11.068613907421796"><ele>57.0</ele><time>2026-03-28T09:58:06.001Z</time></trkpt><trkpt lat="43.69947450659474" lon="11.068639533319717"><ele>57.0</ele><time>2026-03-28T09:58:07.001Z</time></trkpt><trkpt lat="43.69933354361047" lon="11.068660710376939"><ele>57.0</ele><time>2026-03-28T09:58:08.001Z</time></trkpt><trkpt lat="43.69919270378475" lon="11.068677980245283"><ele>57.5</ele><time>2026-03-28T09:58:09.001Z</time></trkpt><trkpt lat="43.699053017597365" lon="11.068689668634363"><ele>58.0</ele><time>2026-03-28T09:58:10.001Z</time></trkpt><trkpt lat="43.69890499544347" lon="11.068687676310558"><ele>58.5</ele><time>2026-03-28T09:58:11.001Z</time></trkpt><trkpt lat="43.69875408931257" lon="11.068679593315279"><ele>59.0</ele><time>2026-03-28T09:58:12.001Z</time></trkpt><trkpt lat="43.698598915553745" lon="11.06867845257239"><ele>59.5</ele><time>2026-03-28T09:58:13.001Z</time></trkpt><trkpt lat="43.69845205172609" lon="11.06866925318556"><ele>60.0</ele><time>2026-03-28T09:58:14.001Z</time></trkpt><trkpt lat="43.698308841690746" lon="11.06866545525917"><ele>60.5</ele><time>2026-03-28T09:58:15.001Z</time></trkpt><trkpt lat="43.698165481343274" lon="11.068661201000928"><ele>61.0</ele><time>2026-03-28T09:58:16.001Z</time></trkpt><trkpt lat="43.69802213605032" lon="11.068656173536523"><ele>61.0</ele><time>2026-03-28T09:58:17.001Z</time></trkpt><trkpt lat="43.69787871566884" lon="11.068651143435282"><ele>61.0</ele><time>2026-03-28T09:58:18.001Z</time></trkpt><trkpt lat="43.69773995335238" lon="11.068646276703136"><ele>61.0</ele><time>2026-03-28T09:58:19.001Z</time></trkpt><trkpt lat="43.69761276284261" lon="11.06864150900752"><ele>61.0</ele><time>2026-03-28T09:58:20.001Z</time></trkpt><trkpt lat="43.69748613350702" lon="11.068635876680087"><ele>60.75</ele><time>2026-03-28T09:58:21.001Z</time></trkpt><trkpt lat="43.69735912031343" lon="11.068630227275666"><ele>60.5</ele><time>2026-03-28T09:58:22.001Z</time></trkpt><trkpt lat="43.69722818669329" lon="11.068645491353445"><ele>60.25</ele><time>2026-03-28T09:58:23.001Z</time></trkpt><trkpt lat="43.69709486391463" lon="11.068634749157468"><ele>60.0</ele><time>2026-03-28T09:58:24.001Z</time></trkpt><trkpt lat="43.69696054347106" lon="11.068628423516337"><ele>59.75</ele><time>2026-03-28T09:58:25.001Z</time></trkpt><trkpt lat="43.696825923965015" lon="11.068637671720904"><ele>59.5</ele><time>2026-03-28T09:58:26.001Z</time></trkpt><trkpt lat="43.69669232274523" lon="11.068653194740046"><ele>59.25</ele><time>2026-03-28T09:58:27.001Z</time></trkpt><trkpt lat="43.69656295642777" lon="11.06865104168136"><ele>59.0</ele><time>2026-03-28T09:58:28.001Z</time></trkpt><trkpt lat="43.696441251828716" lon="11.068674536292876"><ele>59.0</ele><time>2026-03-28T09:58:29.001Z</time></trkpt><trkpt lat="43.69632766014455" lon="11.068696990003389"><ele>59.0</ele><time>2026-03-28T09:58:30.001Z</time></trkpt><trkpt lat="43.69620618073933" lon="11.06872230236731"><ele>59.0</ele><time>2026-03-28T09:58:31.001Z</time></trkpt><trkpt lat="43.69607317824678" lon="11.068752231961845"><ele>59.0</ele><time>2026-03-28T09:58:32.001Z</time></trkpt><trkpt lat="43.6959393484535" lon="11.068782347720559"><ele>58.75</ele><time>2026-03-28T09:58:33.001Z</time></trkpt><trkpt lat="43.695802118625416" lon="11.068813228596557"><ele>58.5</ele><time>2026-03-28T09:58:34.001Z</time></trkpt><trkpt lat="43.69569303000561" lon="11.068852721582143"><ele>58.25</ele><time>2026-03-28T09:58:35.001Z</time></trkpt><trkpt lat="43.69555436056498" lon="11.06888018976105"><ele>58.0</ele><time>2026-03-28T09:58:36.001Z</time></trkpt><trkpt lat="43.695421824945036" lon="11.06891814982431"><ele>58.0</ele><time>2026-03-28T09:58:37.001Z</time></trkpt><trkpt lat="43.69529298424538" lon="11.068949703660756"><ele>58.0</ele><time>2026-03-28T09:58:38.001Z</time></trkpt><trkpt lat="43.695160628610175" lon="11.068980116818683"><ele>58.0</ele><time>2026-03-28T09:58:39.001Z</time></trkpt><trkpt lat="43.69503921405835" lon="11.069011275193672"><ele>58.0</ele><time>2026-03-28T09:58:40.001Z</time></trkpt><trkpt lat="43.69492376134485" lon="11.069044557639856"><ele>58.25</ele><time>2026-03-28T09:58:41.001Z</time></trkpt><trkpt lat="43.694791105906894" lon="11.069074263115912"><ele>58.5</ele><time>2026-03-28T09:58:42.001Z</time></trkpt><trkpt lat="43.69466752484006" lon="11.069109142238586"><ele>58.75</ele><time>2026-03-28T09:58:43.001Z</time></trkpt><trkpt lat="43.694537917339886" lon="11.069140362446163"><ele>59.0</ele><time>2026-03-28T09:58:44.001Z</time></trkpt><trkpt lat="43.69440305748787" lon="11.069183143950298"><ele>59.0</ele><time>2026-03-28T09:58:45.001Z</time></trkpt><trkpt lat="43.69426836759043" lon="11.069218712344096"><ele>59.0</ele><time>2026-03-28T09:58:46.001Z</time></trkpt><trkpt lat="43.69414876799817" lon="11.069248621607805"><ele>59.0</ele><time>2026-03-28T09:58:47.001Z</time></trkpt><trkpt lat="43.69403670708748" lon="11.069278639410761"><ele>59.0</ele><time>2026-03-28T09:58:48.001Z</time></trkpt><trkpt lat="43.693933064128935" lon="11.06930853989729"><ele>59.0</ele><time>2026-03-28T09:58:49.001Z</time></trkpt><trkpt lat="43.69382502265164" lon="11.069340288532667"><ele>59.0</ele><time>2026-03-28T09:58:50.001Z</time></trkpt><trkpt lat="43.69371676866293" lon="11.069370275643875"><ele>59.0</ele><time>2026-03-28T09:58:51.001Z</time></trkpt><trkpt lat="43.693606844061094" lon="11.069399858001173"><ele>59.0</ele><time>2026-03-28T09:58:52.001Z</time></trkpt><trkpt lat="43.69348706912923" lon="11.069438978511801"><ele>59.5</ele><time>2026-03-28T09:58:53.001Z</time></trkpt><trkpt lat="43.69336103386064" lon="11.069477322593613"><ele>60.0</ele><time>2026-03-28T09:58:54.001Z</time></trkpt><trkpt lat="43.69322444649047" lon="11.069469515011754"><ele>60.5</ele><time>2026-03-28T09:58:55.001Z</time></trkpt><trkpt lat="43.693095170164604" lon="11.069472878236045"><ele>61.0</ele><time>2026-03-28T09:58:56.001Z</time></trkpt><trkpt lat="43.6929599511575" lon="11.069473152309913"><ele>61.0</ele><time>2026-03-28T09:58:57.001Z</time></trkpt><trkpt lat="43.69282004965117" lon="11.06946846478825"><ele>61.0</ele><time>2026-03-28T09:58:58.001Z</time></trkpt><trkpt lat="43.69268562760371" lon="11.06943425084534"><ele>61.0</ele><time>2026-03-28T09:58:59.001Z</time></trkpt><trkpt lat="43.69253704796413" lon="11.069395948342002"><ele>61.0</ele><time>2026-03-28T09:59:00.001Z</time></trkpt><trkpt lat="43.692395088168624" lon="11.069358636769742"><ele>61.25</ele><time>2026-03-28T09:59:01.001Z</time></trkpt><trkpt lat="43.6922561071373" lon="11.069318291719025"><ele>61.5</ele><time>2026-03-28T09:59:02.001Z</time></trkpt><trkpt lat="43.692139223296884" lon="11.0692647131005"><ele>61.75</ele><time>2026-03-28T09:59:03.001Z</time></trkpt><trkpt lat="43.69201280467742" lon="11.069232784601027"><ele>62.0</ele><time>2026-03-28T09:59:04.001Z</time></trkpt><trkpt lat="43.69190977843715" lon="11.069203552460436"><ele>62.400000000000006</ele><time>2026-03-28T09:59:05.001Z</time></trkpt><trkpt lat="43.69181730311808" lon="11.069167023114227"><ele>62.800000000000004</ele><time>2026-03-28T09:59:06.001Z</time></trkpt><trkpt lat="43.69172359689154" lon="11.06913280382504"><ele>63.2</ele><time>2026-03-28T09:59:07.001Z</time></trkpt><trkpt lat="43.691622573687404" lon="11.069097623034915"><ele>63.6</ele><time>2026-03-28T09:59:08.001Z</time></trkpt><trkpt lat="43.691519225181274" lon="11.069048245161039"><ele>64.0</ele><time>2026-03-28T09:59:09.001Z</time></trkpt><trkpt lat="43.691401917749126" lon="11.069014246402894"><ele>64.0</ele><time>2026-03-28T09:59:10.001Z</time></trkpt><trkpt lat="43.69127723690542" lon="11.069003354957102"><ele>64.0</ele><time>2026-03-28T09:59:11.001Z</time></trkpt><trkpt lat="43.691141128830104" lon="11.069037029939912"><ele>64.0</ele><time>2026-03-28T09:59:12.001Z</time></trkpt><trkpt lat="43.691007213374746" lon="11.069075921733141"><ele>64.0</ele><time>2026-03-28T09:59:13.001Z</time></trkpt><trkpt lat="43.69087474162495" lon="11.069127626054328"><ele>64.25</ele><time>2026-03-28T09:59:14.001Z</time></trkpt><trkpt lat="43.690747317122735" lon="11.069199463801317"><ele>64.5</ele><time>2026-03-28T09:59:15.001Z</time></trkpt><trkpt lat="43.69062572361388" lon="11.069290786863489"><ele>64.75</ele><time>2026-03-28T09:59:16.001Z</time></trkpt><trkpt lat="43.690524154267656" lon="11.069382858888016"><ele>65.0</ele><time>2026-03-28T09:59:17.001Z</time></trkpt><trkpt lat="43.690434725591025" lon="11.06948116465335"><ele>65.0</ele><time>2026-03-28T09:59:18.001Z</time></trkpt><trkpt lat="43.690359442889125" lon="11.06958180090755"><ele>65.0</ele><time>2026-03-28T09:59:19.001Z</time></trkpt><trkpt lat="43.690292749883405" lon="11.069671828822308"><ele>65.0</ele><time>2026-03-28T09:59:20.001Z</time></trkpt><trkpt lat="43.69023363112141" lon="11.069745171905911"><ele>65.0</ele><time>2026-03-28T09:59:21.001Z</time></trkpt><trkpt lat="43.69016051599603" lon="11.069832181911858"><ele>65.0</ele><time>2026-03-28T09:59:22.001Z</time></trkpt><trkpt lat="43.69007684565343" lon="11.06993431905013"><ele>65.25</ele><time>2026-03-28T09:59:23.001Z</time></trkpt><trkpt lat="43.689990692172856" lon="11.070053114304407"><ele>65.5</ele><time>2026-03-28T09:59:24.001Z</time></trkpt><trkpt lat="43.68989430779844" lon="11.070157481102765"><ele>65.75</ele><time>2026-03-28T09:59:25.001Z</time></trkpt><trkpt lat="43.689771149616526" lon="11.070240862397402"><ele>66.0</ele><time>2026-03-28T09:59:26.001Z</time></trkpt><trkpt lat="43.68963760657326" lon="11.070300684748794"><ele>66.0</ele><time>2026-03-28T09:59:27.001Z</time></trkpt><trkpt lat="43.689501517803194" lon="11.070344877832575"><ele>66.0</ele><time>2026-03-28T09:59:28.001Z</time></trkpt><trkpt lat="43.689360648935235" lon="11.070373700939545"><ele>66.0</ele><time>2026-03-28T09:59:29.001Z</time></trkpt><trkpt lat="43.68921221600723" lon="11.070384714899927"><ele>66.0</ele><time>2026-03-28T09:59:30.001Z</time></trkpt><trkpt lat="43.68906132928025" lon="11.070361336694464"><ele>66.0</ele><time>2026-03-28T09:59:31.001Z</time></trkpt><trkpt lat="43.68890312457317" lon="11.07036549664357"><ele>66.0</ele><time>2026-03-28T09:59:32.001Z</time></trkpt><trkpt lat="43.68875026911257" lon="11.070340653962026"><ele>66.0</ele><time>2026-03-28T09:59:33.001Z</time></trkpt><trkpt lat="43.688616514435665" lon="11.070323990655252"><ele>66.0</ele><time>2026-03-28T09:59:34.001Z</time></trkpt><trkpt lat="43.6884852102464" lon="11.070303445770035"><ele>66.25</ele><time>2026-03-28T09:59:35.001Z</time></trkpt><trkpt lat="43.68834160715264" lon="11.070292238683972"><ele>66.5</ele><time>2026-03-28T09:59:36.001Z</time></trkpt><trkpt lat="43.68819630842764" lon="11.070273241469549"><ele>66.75</ele><time>2026-03-28T09:59:37.001Z</time></trkpt><trkpt lat="43.68804664627904" lon="11.070256366086875"><ele>67.0</ele><time>2026-03-28T09:59:38.001Z</time></trkpt><trkpt lat="43.68789142062508" lon="11.070240347729467"><ele>67.25</ele><time>2026-03-28T09:59:39.001Z</time></trkpt><trkpt lat="43.68773828860842" lon="11.070231165905586"><ele>67.5</ele><time>2026-03-28T09:59:40.001Z</time></trkpt><trkpt lat="43.68759092691846" lon="11.070226218476936"><ele>67.75</ele><time>2026-03-28T09:59:41.001Z</time></trkpt><trkpt lat="43.68744394905428" lon="11.07024499011088"><ele>68.0</ele><time>2026-03-28T09:59:42.001Z</time></trkpt><trkpt lat="43.68729843475934" lon="11.070287065294455"><ele>68.0</ele><time>2026-03-28T09:59:43.001Z</time></trkpt><trkpt lat="43.68716077582535" lon="11.070334586670223"><ele>68.0</ele><time>2026-03-28T09:59:44.001Z</time></trkpt><trkpt lat="43.68702836829656" lon="11.070377862680466"><ele>68.0</ele><time>2026-03-28T09:59:45.001Z</time></trkpt><trkpt lat="43.68689325485824" lon="11.070413425372221"><ele>68.0</ele><time>2026-03-28T09:59:46.001Z</time></trkpt><trkpt lat="43.68674936166526" lon="11.070454977830614"><ele>67.5</ele><time>2026-03-28T09:59:47.001Z</time></trkpt><trkpt lat="43.68660755676485" lon="11.070497819357985"><ele>67.0</ele><time>2026-03-28T09:59:48.001Z</time></trkpt><trkpt lat="43.68647188264946" lon="11.070539969010271"><ele>66.5</ele><time>2026-03-28T09:59:49.001Z</time></trkpt><trkpt lat="43.68632964731345" lon="11.07058349427633"><ele>66.0</ele><time>2026-03-28T09:59:50.001Z</time></trkpt><trkpt lat="43.686182276699675" lon="11.070628950877193"><ele>67.0</ele><time>2026-03-28T09:59:51.001Z</time></trkpt><trkpt lat="43.68603307982495" lon="11.07067668135965"><ele>68.0</ele><time>2026-03-28T09:59:52.001Z</time></trkpt><trkpt lat="43.685879295328974" lon="11.070729001181933"><ele>69.0</ele><time>2026-03-28T09:59:53.001Z</time></trkpt><trkpt lat="43.68572477699631" lon="11.070774910033006"><ele>69.33333333333333</ele><time>2026-03-28T09:59:54.001Z</time></trkpt><trkpt lat="43.68557082443578" lon="11.07081963719678"><ele>69.66666666666666</ele><time>2026-03-28T09:59:55.001Z</time></trkpt><trkpt lat="43.68541736700346" lon="11.070864614654994"><ele>70.0</ele><time>2026-03-28T09:59:56.001Z</time></trkpt><trkpt lat="43.685262274582925" lon="11.070913121277743"><ele>70.66666666666666</ele><time>2026-03-28T09:59:57.001Z</time></trkpt><trkpt lat="43.6851090763436" lon="11.070960884213157"><ele>71.33333333333333</ele><time>2026-03-28T09:59:58.001Z</time></trkpt><trkpt lat="43.68494826422963" lon="11.070986881245807"><ele>72.0</ele><time>2026-03-28T09:59:59.001Z</time></trkpt><trkpt lat="43.68478994538818" lon="11.071055523046017"><ele>72.0</ele><time>2026-03-28T10:00:00.001Z</time></trkpt><trkpt lat="43.684635775786546" lon="11.071106555840123"><ele>72.0</ele><time>2026-03-28T10:00:01.001Z</time></trkpt><trkpt lat="43.68448164378522" lon="11.071153178910878"><ele>72.0</ele><time>2026-03-28T10:00:02.001Z</time></trkpt><trkpt lat="43.68431753026503" lon="11.07120382496752"><ele>71.66666666666667</ele><time>2026-03-28T10:00:03.001Z</time></trkpt><trkpt lat="43.684140253688696" lon="11.071226620821198"><ele>71.33333333333334</ele><time>2026-03-28T10:00:04.001Z</time></trkpt><trkpt lat="43.68396568235312" lon="11.071277853008251"><ele>71.0</ele><time>2026-03-28T10:00:05.001Z</time></trkpt><trkpt lat="43.68379789772481" lon="11.07132709340403"><ele>71.0</ele><time>2026-03-28T10:00:06.001Z</time></trkpt><trkpt lat="43.68364631583344" lon="11.071372654890757"><ele>71.0</ele><time>2026-03-28T10:00:07.001Z</time></trkpt><trkpt lat="43.68350086515599" lon="11.071435139951904"><ele>71.0</ele><time>2026-03-28T10:00:08.001Z</time></trkpt><trkpt lat="43.68335514563201" lon="11.071472054753977"><ele>70.66666666666667</ele><time>2026-03-28T10:00:09.001Z</time></trkpt><trkpt lat="43.683204766111295" lon="11.071515683595624"><ele>70.33333333333333</ele><time>2026-03-28T10:00:10.001Z</time></trkpt><trkpt lat="43.68304234862956" lon="11.071563481082281"><ele>70.0</ele><time>2026-03-28T10:00:11.001Z</time></trkpt><trkpt lat="43.682869732893636" lon="11.071615546884555"><ele>70.66666666666666</ele><time>2026-03-28T10:00:12.001Z</time></trkpt><trkpt lat="43.68268933631873" lon="11.071672943771917"><ele>71.33333333333333</ele><time>2026-03-28T10:00:13.001Z</time></trkpt><trkpt lat="43.682505948580705" lon="11.071706549207978"><ele>72.0</ele><time>2026-03-28T10:00:14.001Z</time></trkpt><trkpt lat="43.68233235933935" lon="11.071757375335904"><ele>72.0</ele><time>2026-03-28T10:00:15.001Z</time></trkpt><trkpt lat="43.682162766185456" lon="11.071806981066038"><ele>72.0</ele><time>2026-03-28T10:00:16.001Z</time></trkpt><trkpt lat="43.681997677784075" lon="11.071855174761769"><ele>72.0</ele><time>2026-03-28T10:00:17.001Z</time></trkpt><trkpt lat="43.68184285952251" lon="11.071921226630604"><ele>72.0</ele><time>2026-03-28T10:00:18.001Z</time></trkpt><trkpt lat="43.68168195779643" lon="11.071947341822352"><ele>72.0</ele><time>2026-03-28T10:00:19.001Z</time></trkpt><trkpt lat="43.68150716921347" lon="11.071998367261756"><ele>72.0</ele><time>2026-03-28T10:00:20.001Z</time></trkpt><trkpt lat="43.681321018600144" lon="11.072052709583762"><ele>72.0</ele><time>2026-03-28T10:00:21.001Z</time></trkpt><trkpt lat="43.6811175270913" lon="11.072112114174187"><ele>72.0</ele><time>2026-03-28T10:00:22.001Z</time></trkpt><trkpt lat="43.68090283317309" lon="11.072174789046306"><ele>72.0</ele><time>2026-03-28T10:00:23.001Z</time></trkpt><trkpt lat="43.680665512363774" lon="11.07224406929576"><ele>72.0</ele><time>2026-03-28T10:00:24.001Z</time></trkpt><trkpt lat="43.680376636395636" lon="11.072328399870912"><ele>72.0</ele><time>2026-03-28T10:00:25.001Z</time></trkpt><trkpt lat="43.68007053986601" lon="11.072417757534804"><ele>72.5</ele><time>2026-03-28T10:00:26.001Z</time></trkpt><trkpt lat="43.67974593557796" lon="11.072534339695743"><ele>73.0</ele><time>2026-03-28T10:00:27.001Z</time></trkpt><trkpt lat="43.67943087348583" lon="11.07261263981089"><ele>73.5</ele><time>2026-03-28T10:00:28.001Z</time></trkpt><trkpt lat="43.679112370755696" lon="11.072701946408268"><ele>74.0</ele><time>2026-03-28T10:00:29.001Z</time></trkpt><trkpt lat="43.678830852111545" lon="11.072813306692444"><ele>75.5</ele><time>2026-03-28T10:00:30.001Z</time></trkpt><trkpt lat="43.67856063946902" lon="11.072907413334068"><ele>77.0</ele><time>2026-03-28T10:00:31.001Z</time></trkpt><trkpt lat="43.67830387168985" lon="11.073007686270936"><ele>77.0</ele><time>2026-03-28T10:00:32.001Z</time></trkpt><trkpt lat="43.678050133888135" lon="11.073095182486643"><ele>77.0</ele><time>2026-03-28T10:00:33.001Z</time></trkpt><trkpt lat="43.67780025125922" lon="11.073229306988026"><ele>77.5</ele><time>2026-03-28T10:00:34.001Z</time></trkpt><trkpt lat="43.67755233911134" lon="11.073332658489544"><ele>78.0</ele><time>2026-03-28T10:00:35.001Z</time></trkpt><trkpt lat="43.677309531941034" lon="11.073437588012983"><ele>78.0</ele><time>2026-03-28T10:00:36.001Z</time></trkpt><trkpt lat="43.67707975265516" lon="11.073533523102197"><ele>78.0</ele><time>2026-03-28T10:00:37.001Z</time></trkpt><trkpt lat="43.676851130970824" lon="11.073636562771043"><ele>78.5</ele><time>2026-03-28T10:00:38.001Z</time></trkpt><trkpt lat="43.67662374761159" lon="11.073741104624554"><ele>79.0</ele><time>2026-03-28T10:00:39.001Z</time></trkpt><trkpt lat="43.67640835950467" lon="11.073836014072889"><ele>79.0</ele><time>2026-03-28T10:00:40.001Z</time></trkpt><trkpt lat="43.67620666856649" lon="11.073922874983898"><ele>79.0</ele><time>2026-03-28T10:00:41.001Z</time></trkpt><trkpt lat="43.6759984977438" lon="11.074006281228783"><ele>79.0</ele><time>2026-03-28T10:00:42.001Z</time></trkpt><trkpt lat="43.6757881400029" lon="11.074082606918301"><ele>79.0</ele><time>2026-03-28T10:00:43.001Z</time></trkpt><trkpt lat="43.675575149695334" lon="11.074152479826141"><ele>79.0</ele><time>2026-03-28T10:00:44.001Z</time></trkpt><trkpt lat="43.67535599225286" lon="11.074212529125296"><ele>79.0</ele><time>2026-03-28T10:00:45.001Z</time></trkpt><trkpt lat="43.67513513613549" lon="11.074277027218118"><ele>79.0</ele><time>2026-03-28T10:00:46.001Z</time></trkpt><trkpt lat="43.67491561907384" lon="11.074334788195113"><ele>79.0</ele><time>2026-03-28T10:00:47.001Z</time></trkpt><trkpt lat="43.67470059054768" lon="11.074391132823607"><ele>79.0</ele><time>2026-03-28T10:00:48.001Z</time></trkpt><trkpt lat="43.6744926194478" lon="11.074446329440974"><ele>79.66666666666666</ele><time>2026-03-28T10:00:49.001Z</time></trkpt><trkpt lat="43.67428469613134" lon="11.074501076784882"><ele>80.33333333333333</ele><time>2026-03-28T10:00:50.001Z</time></trkpt><trkpt lat="43.67407606753085" lon="11.074559862738417"><ele>81.0</ele><time>2026-03-28T10:00:51.001Z</time></trkpt><trkpt lat="43.673867727281404" lon="11.074616742025754"><ele>81.0</ele><time>2026-03-28T10:00:52.001Z</time></trkpt><trkpt lat="43.673649342181655" lon="11.074674590200738"><ele>81.0</ele><time>2026-03-28T10:00:53.001Z</time></trkpt><trkpt lat="43.67341746276822" lon="11.074709588535267"><ele>81.5</ele><time>2026-03-28T10:00:54.001Z</time></trkpt><trkpt lat="43.673181714496835" lon="11.074771734354039"><ele>82.0</ele><time>2026-03-28T10:00:55.001Z</time></trkpt><trkpt lat="43.672948275684696" lon="11.074833271394075"><ele>82.0</ele><time>2026-03-28T10:00:56.001Z</time></trkpt><trkpt lat="43.67272098979647" lon="11.074911357320847"><ele>82.0</ele><time>2026-03-28T10:00:57.001Z</time></trkpt><trkpt lat="43.672501862410186" lon="11.07496496252145"><ele>82.0</ele><time>2026-03-28T10:00:58.001Z</time></trkpt><trkpt lat="43.6722946485188" lon="11.075017153495827"><ele>82.0</ele><time>2026-03-28T10:00:59.001Z</time></trkpt><trkpt lat="43.672101388670924" lon="11.075068684461911"><ele>82.0</ele><time>2026-03-28T10:01:00.001Z</time></trkpt><trkpt lat="43.671917678369944" lon="11.075120798904337"><ele>81.33333333333333</ele><time>2026-03-28T10:01:01.001Z</time></trkpt><trkpt lat="43.671741332794" lon="11.07514145259991"><ele>80.66666666666667</ele><time>2026-03-28T10:01:02.001Z</time></trkpt><trkpt lat="43.67154862836608" lon="11.075187378107804"><ele>80.0</ele><time>2026-03-28T10:01:03.001Z</time></trkpt><trkpt lat="43.67133512089464" lon="11.075238348441673"><ele>80.0</ele><time>2026-03-28T10:01:04.001Z</time></trkpt><trkpt lat="43.671113817765026" lon="11.075315331072362"><ele>80.0</ele><time>2026-03-28T10:01:05.001Z</time></trkpt><trkpt lat="43.670872787820954" lon="11.07536810341958"><ele>81.0</ele><time>2026-03-28T10:01:06.001Z</time></trkpt><trkpt lat="43.67060909247907" lon="11.075433895666073"><ele>82.0</ele><time>2026-03-28T10:01:07.001Z</time></trkpt><trkpt lat="43.67034669385073" lon="11.075507538281288"><ele>82.5</ele><time>2026-03-28T10:01:08.001Z</time></trkpt><trkpt lat="43.670103460712056" lon="11.07558113661749"><ele>83.0</ele><time>2026-03-28T10:01:09.001Z</time></trkpt><trkpt lat="43.669874157386886" lon="11.075639189261175"><ele>83.0</ele><time>2026-03-28T10:01:10.001Z</time></trkpt><trkpt lat="43.669655502024256" lon="11.075782796144757"><ele>83.0</ele><time>2026-03-28T10:01:11.001Z</time></trkpt><trkpt lat="43.66942788937172" lon="11.07593901045504"><ele>84.5</ele><time>2026-03-28T10:01:12.001Z</time></trkpt><trkpt lat="43.66919020839963" lon="11.076128798458514"><ele>86.0</ele><time>2026-03-28T10:01:13.001Z</time></trkpt><trkpt lat="43.66894460125952" lon="11.076332244773203"><ele>86.0</ele><time>2026-03-28T10:01:14.001Z</time></trkpt><trkpt lat="43.66870521028742" lon="11.076531386852144"><ele>86.0</ele><time>2026-03-28T10:01:15.001Z</time></trkpt><trkpt lat="43.66848083149037" lon="11.076710886049428"><ele>85.5</ele><time>2026-03-28T10:01:16.001Z</time></trkpt><trkpt lat="43.66825725617478" lon="11.076892299963584"><ele>85.0</ele><time>2026-03-28T10:01:17.001Z</time></trkpt><trkpt lat="43.6680379557665" lon="11.077068951788082"><ele>85.0</ele><time>2026-03-28T10:01:18.001Z</time></trkpt><trkpt lat="43.66783319096808" lon="11.077235583394907"><ele>85.0</ele><time>2026-03-28T10:01:19.001Z</time></trkpt><trkpt lat="43.66763726065268" lon="11.077398753131007"><ele>86.5</ele><time>2026-03-28T10:01:20.001Z</time></trkpt><trkpt lat="43.667444228420784" lon="11.0775696077654"><ele>88.0</ele><time>2026-03-28T10:01:21.001Z</time></trkpt><trkpt lat="43.66724787963283" lon="11.077718133762318"><ele>88.0</ele><time>2026-03-28T10:01:22.001Z</time></trkpt><trkpt lat="43.6670816544342" lon="11.07793977271416"><ele>88.0</ele><time>2026-03-28T10:01:23.001Z</time></trkpt><trkpt lat="43.666911750518366" lon="11.078137197551131"><ele>88.5</ele><time>2026-03-28T10:01:24.001Z</time></trkpt><trkpt lat="43.66674334222979" lon="11.07833438020979"><ele>89.0</ele><time>2026-03-28T10:01:25.001Z</time></trkpt><trkpt lat="43.66657751149287" lon="11.078559930779196"><ele>89.0</ele><time>2026-03-28T10:01:26.001Z</time></trkpt><trkpt lat="43.66642174502369" lon="11.078821282448368"><ele>89.0</ele><time>2026-03-28T10:01:27.001Z</time></trkpt><trkpt lat="43.666265182232415" lon="11.079110089368653"><ele>89.0</ele><time>2026-03-28T10:01:28.001Z</time></trkpt><trkpt lat="43.66611520915213" lon="11.079400668087466"><ele>89.0</ele><time>2026-03-28T10:01:29.001Z</time></trkpt><trkpt lat="43.66597527832584" lon="11.079672742368983"><ele>90.5</ele><time>2026-03-28T10:01:30.001Z</time></trkpt><trkpt lat="43.66584194610839" lon="11.079935542520328"><ele>92.0</ele><time>2026-03-28T10:01:31.001Z</time></trkpt><trkpt lat="43.66571640692101" lon="11.080181875870885"><ele>92.0</ele><time>2026-03-28T10:01:32.001Z</time></trkpt><trkpt lat="43.66559687777544" lon="11.080419323039756"><ele>92.0</ele><time>2026-03-28T10:01:33.001Z</time></trkpt><trkpt lat="43.665480127605896" lon="11.080653520863024"><ele>92.0</ele><time>2026-03-28T10:01:34.001Z</time></trkpt><trkpt lat="43.66535517667464" lon="11.080886011638347"><ele>92.66666666666667</ele><time>2026-03-28T10:01:35.001Z</time></trkpt><trkpt lat="43.6652277334388" lon="11.081125459496088"><ele>93.33333333333333</ele><time>2026-03-28T10:01:36.001Z</time></trkpt><trkpt lat="43.66510755861434" lon="11.081355776271607"><ele>94.0</ele><time>2026-03-28T10:01:37.001Z</time></trkpt><trkpt lat="43.66500080932465" lon="11.081576809917424"><ele>95.33333333333333</ele><time>2026-03-28T10:01:38.001Z</time></trkpt><trkpt lat="43.66489790765276" lon="11.081780427766551"><ele>96.66666666666666</ele><time>2026-03-28T10:01:39.001Z</time></trkpt><trkpt lat="43.66479185506047" lon="11.081978409441714"><ele>98.0</ele><time>2026-03-28T10:01:40.001Z</time></trkpt><trkpt lat="43.66468551465797" lon="11.082194160015677"><ele>98.0</ele><time>2026-03-28T10:01:41.001Z</time></trkpt><trkpt lat="43.66456223463815" lon="11.082419910198647"><ele>98.0</ele><time>2026-03-28T10:01:42.001Z</time></trkpt><trkpt lat="43.66441595890215" lon="11.082610934230432"><ele>98.0</ele><time>2026-03-28T10:01:43.001Z</time></trkpt><trkpt lat="43.664251089592476" lon="11.082792287607125"><ele>97.33333333333333</ele><time>2026-03-28T10:01:44.001Z</time></trkpt><trkpt lat="43.66407245165133" lon="11.082946234576472"><ele>96.66666666666666</ele><time>2026-03-28T10:01:45.001Z</time></trkpt><trkpt lat="43.663872251761" lon="11.083080947560106"><ele>96.0</ele><time>2026-03-28T10:01:46.001Z</time></trkpt><trkpt lat="43.66365217507062" lon="11.083202281583752"><ele>95.66666666666667</ele><time>2026-03-28T10:01:47.001Z</time></trkpt><trkpt lat="43.663432660774625" lon="11.083304856545036"><ele>95.33333333333334</ele><time>2026-03-28T10:01:48.001Z</time></trkpt><trkpt lat="43.66324307892458" lon="11.083416754346347"><ele>95.0</ele><time>2026-03-28T10:01:49.001Z</time></trkpt><trkpt lat="43.66306386747045" lon="11.083547749328224"><ele>95.0</ele><time>2026-03-28T10:01:50.001Z</time></trkpt><trkpt lat="43.66289601488074" lon="11.083688073966577"><ele>95.0</ele><time>2026-03-28T10:01:51.001Z</time></trkpt><trkpt lat="43.66270581859351" lon="11.083801332542164"><ele>95.0</ele><time>2026-03-28T10:01:52.001Z</time></trkpt><trkpt lat="43.662525249450056" lon="11.08388968683723"><ele>95.66666666666667</ele><time>2026-03-28T10:01:53.001Z</time></trkpt><trkpt lat="43.662349845645174" lon="11.083962276500074"><ele>96.33333333333334</ele><time>2026-03-28T10:01:54.001Z</time></trkpt><trkpt lat="43.662174938800845" lon="11.084009027837624"><ele>97.0</ele><time>2026-03-28T10:01:55.001Z</time></trkpt><trkpt lat="43.66199818686779" lon="11.08402622719747"><ele>96.75</ele><time>2026-03-28T10:01:56.001Z</time></trkpt><trkpt lat="43.66183710374129" lon="11.084014728483938"><ele>96.5</ele><time>2026-03-28T10:01:57.001Z</time></trkpt><trkpt lat="43.66168944615398" lon="11.083991118712985"><ele>96.25</ele><time>2026-03-28T10:01:58.001Z</time></trkpt><trkpt lat="43.66156476470574" lon="11.083957357071146"><ele>96.0</ele><time>2026-03-28T10:01:59.001Z</time></trkpt><trkpt lat="43.6614564182482" lon="11.083939034212708"><ele>96.0</ele><time>2026-03-28T10:02:00.001Z</time></trkpt><trkpt lat="43.6613508060889" lon="11.083951207385951"><ele>96.0</ele><time>2026-03-28T10:02:01.001Z</time></trkpt><trkpt lat="43.66125992445457" lon="11.084004229838035"><ele>96.0</ele><time>2026-03-28T10:02:02.001Z</time></trkpt><trkpt lat="43.661190310794424" lon="11.08407458342419"><ele>96.0</ele><time>2026-03-28T10:02:03.001Z</time></trkpt><trkpt lat="43.66113560934627" lon="11.084143358663676"><ele>96.0</ele><time>2026-03-28T10:02:04.001Z</time></trkpt><trkpt lat="43.661066270267035" lon="11.084256390396021"><ele>96.16666666666667</ele><time>2026-03-28T10:02:06.001Z</time></trkpt><trkpt lat="43.66102127272375" lon="11.084320409821693"><ele>96.33333333333334</ele><time>2026-03-28T10:02:08.001Z</time></trkpt><trkpt lat="43.66094797347794" lon="11.08442154850318"><ele>96.5</ele><time>2026-03-28T10:02:10.001Z</time></trkpt><trkpt lat="43.66090066171956" lon="11.084512733698837"><ele>96.66666666666667</ele><time>2026-03-28T10:02:11.001Z</time></trkpt><trkpt lat="43.66086626668543" lon="11.08464019364543"><ele>96.83333333333334</ele><time>2026-03-28T10:02:13.001Z</time></trkpt><trkpt lat="43.660853571142425" lon="11.084737523584948"><ele>97.0</ele><time>2026-03-28T10:02:15.001Z</time></trkpt><trkpt lat="43.66081725192065" lon="11.084881705905367"><ele>98.19999999999999</ele><time>2026-03-28T10:02:17Z</time></trkpt><trkpt lat="43.66076500051641" lon="11.084965062710621"><ele>99.4</ele><time>2026-03-28T10:02:18Z</time></trkpt><trkpt lat="43.66069357024964" lon="11.085046715872393"><ele>100.6</ele><time>2026-03-28T10:02:19Z</time></trkpt><trkpt lat="43.66060264018341" lon="11.085145150631774"><ele>101.80000000000001</ele><time>2026-03-28T10:02:20Z</time></trkpt><trkpt lat="43.6604836297217" lon="11.08526889037193"><ele>103.0</ele><time>2026-03-28T10:02:21Z</time></trkpt><trkpt lat="43.66031690850824" lon="11.085431617038116"><ele>104.0</ele><time>2026-03-28T10:02:22Z</time></trkpt><trkpt lat="43.66010991259613" lon="11.085664446087131"><ele>105.0</ele><time>2026-03-28T10:02:23Z</time></trkpt><trkpt lat="43.65987137463165" lon="11.08592892463614"><ele>105.0</ele><time>2026-03-28T10:02:24Z</time></trkpt><trkpt lat="43.659616368973644" lon="11.086184146767517"><ele>105.0</ele><time>2026-03-28T10:02:25Z</time></trkpt><trkpt lat="43.65935042049288" lon="11.086458251677964"><ele>105.0</ele><time>2026-03-28T10:02:26Z</time></trkpt><trkpt lat="43.65906929265132" lon="11.086747366474382"><ele>105.0</ele><time>2026-03-28T10:02:27Z</time></trkpt><trkpt lat="43.6587075084021" lon="11.086906369347624"><ele>103.5</ele><time>2026-03-28T10:02:28Z</time></trkpt><trkpt lat="43.65848094752839" lon="11.087129234016874"><ele>102.0</ele><time>2026-03-28T10:02:29Z</time></trkpt><trkpt lat="43.65821738022062" lon="11.08738372997589"><ele>103.0</ele><time>2026-03-28T10:02:30Z</time></trkpt><trkpt lat="43.657961913339534" lon="11.087629954843901"><ele>104.0</ele><time>2026-03-28T10:02:31Z</time></trkpt><trkpt lat="43.65770620565006" lon="11.08786886649746"><ele>104.0</ele><time>2026-03-28T10:02:32Z</time></trkpt><trkpt lat="43.657454424314196" lon="11.088101443188808"><ele>104.0</ele><time>2026-03-28T10:02:33Z</time></trkpt><trkpt lat="43.65720967252159" lon="11.088327604425393"><ele>104.5</ele><time>2026-03-28T10:02:34Z</time></trkpt><trkpt lat="43.65696152695446" lon="11.088564177067397"><ele>105.0</ele><time>2026-03-28T10:02:35Z</time></trkpt><trkpt lat="43.65670597541168" lon="11.088815521286854"><ele>105.0</ele><time>2026-03-28T10:02:36Z</time></trkpt><trkpt lat="43.65643458928726" lon="11.08904842299586"><ele>105.0</ele><time>2026-03-28T10:02:37Z</time></trkpt><trkpt lat="43.65615624507281" lon="11.089309275633475"><ele>106.0</ele><time>2026-03-28T10:02:38Z</time></trkpt><trkpt lat="43.65587562525717" lon="11.089572067897674"><ele>107.0</ele><time>2026-03-28T10:02:39Z</time></trkpt><trkpt lat="43.65562186296437" lon="11.089809408922926"><ele>107.5</ele><time>2026-03-28T10:02:40Z</time></trkpt><trkpt lat="43.655388135686614" lon="11.090028011407437"><ele>108.0</ele><time>2026-03-28T10:02:41Z</time></trkpt><trkpt lat="43.65517208736934" lon="11.090247724514908"><ele>108.0</ele><time>2026-03-28T10:02:42Z</time></trkpt><trkpt lat="43.65496438766487" lon="11.090446091774378"><ele>108.0</ele><time>2026-03-28T10:02:43Z</time></trkpt><trkpt lat="43.65476147861781" lon="11.090634733218854"><ele>109.5</ele><time>2026-03-28T10:02:44Z</time></trkpt><trkpt lat="43.65456609307075" lon="11.090815257460143"><ele>111.0</ele><time>2026-03-28T10:02:45Z</time></trkpt><trkpt lat="43.65437778586158" lon="11.09099930285656"><ele>111.33333333333334</ele><time>2026-03-28T10:02:46Z</time></trkpt><trkpt lat="43.654200801610614" lon="11.09116790036606"><ele>111.66666666666667</ele><time>2026-03-28T10:02:47Z</time></trkpt><trkpt lat="43.65403077680314" lon="11.091326353571723"><ele>112.0</ele><time>2026-03-28T10:02:48Z</time></trkpt><trkpt lat="43.653861969018614" lon="11.09148773597432"><ele>112.5</ele><time>2026-03-28T10:02:49Z</time></trkpt><trkpt lat="43.65366299713025" lon="11.091653504540892"><ele>113.0</ele><time>2026-03-28T10:02:50Z</time></trkpt><trkpt lat="43.65345370396995" lon="11.091842723217377"><ele>113.0</ele><time>2026-03-28T10:02:51Z</time></trkpt><trkpt lat="43.653245481718265" lon="11.092012760592201"><ele>113.0</ele><time>2026-03-28T10:02:52Z</time></trkpt><trkpt lat="43.65304133092708" lon="11.092154509251145"><ele>113.0</ele><time>2026-03-28T10:02:53Z</time></trkpt><trkpt lat="43.65284054076654" lon="11.092278552112852"><ele>113.0</ele><time>2026-03-28T10:02:54Z</time></trkpt><trkpt lat="43.65264119075505" lon="11.09239091394641"><ele>113.0</ele><time>2026-03-28T10:02:55Z</time></trkpt><trkpt lat="43.65244906425426" lon="11.092489520806142"><ele>114.33333333333333</ele><time>2026-03-28T10:02:56Z</time></trkpt><trkpt lat="43.65225659048039" lon="11.092583587485736"><ele>115.66666666666666</ele><time>2026-03-28T10:02:57Z</time></trkpt><trkpt lat="43.65204807794794" lon="11.092684767521387"><ele>117.0</ele><time>2026-03-28T10:02:58Z</time></trkpt><trkpt lat="43.65181085791615" lon="11.092800145017623"><ele>117.0</ele><time>2026-03-28T10:02:59Z</time></trkpt><trkpt lat="43.65154960646006" lon="11.092927355498437"><ele>117.0</ele><time>2026-03-28T10:03:00Z</time></trkpt><trkpt lat="43.6512882724423" lon="11.093074308607715"><ele>116.5</ele><time>2026-03-28T10:03:01Z</time></trkpt><trkpt lat="43.65103959025632" lon="11.093189882273556"><ele>116.0</ele><time>2026-03-28T10:03:02Z</time></trkpt><trkpt lat="43.65079471147838" lon="11.093312893991724"><ele>116.0</ele><time>2026-03-28T10:03:03Z</time></trkpt><trkpt lat="43.65055822328757" lon="11.093438684797695"><ele>116.0</ele><time>2026-03-28T10:03:04Z</time></trkpt><trkpt lat="43.65032498782617" lon="11.093575395795625"><ele>116.0</ele><time>2026-03-28T10:03:05Z</time></trkpt><trkpt lat="43.650109336818346" lon="11.093716533902255"><ele>116.0</ele><time>2026-03-28T10:03:06Z</time></trkpt><trkpt lat="43.64990358346679" lon="11.093859282050747"><ele>116.0</ele><time>2026-03-28T10:03:07Z</time></trkpt><trkpt lat="43.649704057530926" lon="11.09400063659059"><ele>116.0</ele><time>2026-03-28T10:03:08.001Z</time></trkpt><trkpt lat="43.649500425239964" lon="11.094144771578325"><ele>117.5</ele><time>2026-03-28T10:03:09.001Z</time></trkpt><trkpt lat="43.64929555517139" lon="11.094290952989974"><ele>119.0</ele><time>2026-03-28T10:03:10.001Z</time></trkpt><trkpt lat="43.649098758035834" lon="11.094427489089666"><ele>119.0</ele><time>2026-03-28T10:03:11.001Z</time></trkpt><trkpt lat="43.64889974895746" lon="11.094565997427896"><ele>119.0</ele><time>2026-03-28T10:03:12.001Z</time></trkpt><trkpt lat="43.64870551433086" lon="11.094710100321214"><ele>119.0</ele><time>2026-03-28T10:03:13.001Z</time></trkpt><trkpt lat="43.64852695705641" lon="11.094838894959585"><ele>119.33333333333333</ele><time>2026-03-28T10:03:14.001Z</time></trkpt><trkpt lat="43.6483563782191" lon="11.094966163012213"><ele>119.66666666666666</ele><time>2026-03-28T10:03:15.001Z</time></trkpt><trkpt lat="43.64818932271979" lon="11.095096510594248"><ele>120.0</ele><time>2026-03-28T10:03:16.001Z</time></trkpt><trkpt lat="43.64803524695074" lon="11.095233513811353"><ele>120.0</ele><time>2026-03-28T10:03:17.001Z</time></trkpt><trkpt lat="43.64788932375238" lon="11.095380451214275"><ele>120.0</ele><time>2026-03-28T10:03:18.001Z</time></trkpt><trkpt lat="43.64774861509801" lon="11.095553042079278"><ele>120.0</ele><time>2026-03-28T10:03:19.001Z</time></trkpt><trkpt lat="43.64760426054389" lon="11.095751132877576"><ele>120.33333333333334</ele><time>2026-03-28T10:03:20.001Z</time></trkpt><trkpt lat="43.64746354056746" lon="11.09597724412362"><ele>120.66666666666667</ele><time>2026-03-28T10:03:21.001Z</time></trkpt><trkpt lat="43.647331147371226" lon="11.096229897765662"><ele>121.0</ele><time>2026-03-28T10:03:22.001Z</time></trkpt><trkpt lat="43.64719945023266" lon="11.096493341580054"><ele>122.5</ele><time>2026-03-28T10:03:23.001Z</time></trkpt><trkpt lat="43.64706878765127" lon="11.096752383281343"><ele>124.0</ele><time>2026-03-28T10:03:24.001Z</time></trkpt><trkpt lat="43.64693632723504" lon="11.097014736389"><ele>124.0</ele><time>2026-03-28T10:03:25.001Z</time></trkpt><trkpt lat="43.64680304494508" lon="11.097265962613161"><ele>124.0</ele><time>2026-03-28T10:03:26.001Z</time></trkpt><trkpt lat="43.64666442106546" lon="11.097514505006394"><ele>125.0</ele><time>2026-03-28T10:03:27.001Z</time></trkpt><trkpt lat="43.646514799946935" lon="11.097759975061724"><ele>126.0</ele><time>2026-03-28T10:03:28.001Z</time></trkpt><trkpt lat="43.646354321274266" lon="11.097983444932154"><ele>126.0</ele><time>2026-03-28T10:03:29.001Z</time></trkpt><trkpt lat="43.64617421567712" lon="11.09819170547187"><ele>126.0</ele><time>2026-03-28T10:03:30.001Z</time></trkpt><trkpt lat="43.645960946266484" lon="11.098356177724765"><ele>126.5</ele><time>2026-03-28T10:03:31.001Z</time></trkpt><trkpt lat="43.645735666115414" lon="11.098519475304197"><ele>127.0</ele><time>2026-03-28T10:03:32.001Z</time></trkpt><trkpt lat="43.64549965569426" lon="11.098689421908528"><ele>126.5</ele><time>2026-03-28T10:03:33.001Z</time></trkpt><trkpt lat="43.645231740182275" lon="11.098847465143663"><ele>126.0</ele><time>2026-03-28T10:03:34.001Z</time></trkpt><trkpt lat="43.644968515198535" lon="11.099004821068075"><ele>126.5</ele><time>2026-03-28T10:03:35.001Z</time></trkpt><trkpt lat="43.64469752502841" lon="11.09917818272145"><ele>127.0</ele><time>2026-03-28T10:03:36.001Z</time></trkpt><trkpt lat="43.64441924057679" lon="11.099356864431776"><ele>128.0</ele><time>2026-03-28T10:03:37.001Z</time></trkpt><trkpt lat="43.64412289739653" lon="11.09954709164826"><ele>129.0</ele><time>2026-03-28T10:03:38.001Z</time></trkpt><trkpt lat="43.643805591692995" lon="11.099745568128691"><ele>130.0</ele><time>2026-03-28T10:03:39.001Z</time></trkpt><trkpt lat="43.643480220449334" lon="11.099945842081977"><ele>131.0</ele><time>2026-03-28T10:03:40.001Z</time></trkpt><trkpt lat="43.64318132239389" lon="11.100124408532855"><ele>131.0</ele><time>2026-03-28T10:03:41.001Z</time></trkpt><trkpt lat="43.64289325041158" lon="11.100301786036383"><ele>131.0</ele><time>2026-03-28T10:03:42.001Z</time></trkpt><trkpt lat="43.6426218435546" lon="11.100476228532273"><ele>131.0</ele><time>2026-03-28T10:03:43.001Z</time></trkpt><trkpt lat="43.64237037303713" lon="11.10063557497306"><ele>131.0</ele><time>2026-03-28T10:03:44.001Z</time></trkpt><trkpt lat="43.642131466243946" lon="11.10078219671093"><ele>131.0</ele><time>2026-03-28T10:03:45.001Z</time></trkpt><trkpt lat="43.64189393960839" lon="11.100926913268152"><ele>131.0</ele><time>2026-03-28T10:03:46.001Z</time></trkpt><trkpt lat="43.641670597144056" lon="11.101068666199886"><ele>131.0</ele><time>2026-03-28T10:03:47.001Z</time></trkpt><trkpt lat="43.64144867411403" lon="11.101211609170623"><ele>131.0</ele><time>2026-03-28T10:03:48.001Z</time></trkpt><trkpt lat="43.64122360860138" lon="11.101376430197563"><ele>131.5</ele><time>2026-03-28T10:03:49.001Z</time></trkpt><trkpt lat="43.64100633939468" lon="11.101552223939738"><ele>132.0</ele><time>2026-03-28T10:03:50.001Z</time></trkpt><trkpt lat="43.640809947774514" lon="11.101739401410297"><ele>132.0</ele><time>2026-03-28T10:03:51.001Z</time></trkpt><trkpt lat="43.64062441806319" lon="11.101938876162889"><ele>132.0</ele><time>2026-03-28T10:03:52.001Z</time></trkpt><trkpt lat="43.640436849533195" lon="11.102167745774556"><ele>133.0</ele><time>2026-03-28T10:03:53.001Z</time></trkpt><trkpt lat="43.640245965013115" lon="11.102409359216377"><ele>134.0</ele><time>2026-03-28T10:03:54.001Z</time></trkpt><trkpt lat="43.640072619616994" lon="11.102634708282192"><ele>134.0</ele><time>2026-03-28T10:03:55.001Z</time></trkpt><trkpt lat="43.63990504749592" lon="11.102844567690056"><ele>134.0</ele><time>2026-03-28T10:03:56.001Z</time></trkpt><trkpt lat="43.63973479083469" lon="11.103060625234148"><ele>134.0</ele><time>2026-03-28T10:03:57.001Z</time></trkpt><trkpt lat="43.639551380353566" lon="11.103307293051346"><ele>134.0</ele><time>2026-03-28T10:03:58.001Z</time></trkpt><trkpt lat="43.639351174264014" lon="11.103584047092152"><ele>134.0</ele><time>2026-03-28T10:03:59.001Z</time></trkpt><trkpt lat="43.63913518772934" lon="11.103880063259005"><ele>134.0</ele><time>2026-03-28T10:04:00.001Z</time></trkpt><trkpt lat="43.63890272977586" lon="11.104182635954878"><ele>135.5</ele><time>2026-03-28T10:04:01.001Z</time></trkpt><trkpt lat="43.63864733677762" lon="11.104502049689103"><ele>137.0</ele><time>2026-03-28T10:04:02.001Z</time></trkpt><trkpt lat="43.63839109866877" lon="11.104825438151366"><ele>138.0</ele><time>2026-03-28T10:04:03.001Z</time></trkpt><trkpt lat="43.638167623496464" lon="11.105116633365979"><ele>139.0</ele><time>2026-03-28T10:04:04.001Z</time></trkpt><trkpt lat="43.63795651550783" lon="11.105390778039634"><ele>139.0</ele><time>2026-03-28T10:04:05.001Z</time></trkpt><trkpt lat="43.637752168321505" lon="11.10565160319517"><ele>139.0</ele><time>2026-03-28T10:04:06.001Z</time></trkpt><trkpt lat="43.637560949623335" lon="11.105907793373055"><ele>139.0</ele><time>2026-03-28T10:04:07.001Z</time></trkpt><trkpt lat="43.63736763381895" lon="11.106157767619193"><ele>139.0</ele><time>2026-03-28T10:04:08Z</time></trkpt><trkpt lat="43.63717386717131" lon="11.106411656959523"><ele>139.5</ele><time>2026-03-28T10:04:09Z</time></trkpt><trkpt lat="43.6369880715267" lon="11.106647948666044"><ele>140.0</ele><time>2026-03-28T10:04:10Z</time></trkpt><trkpt lat="43.636808764949826" lon="11.106879835790535"><ele>140.0</ele><time>2026-03-28T10:04:11Z</time></trkpt><trkpt lat="43.63662863462984" lon="11.107120894749844"><ele>140.0</ele><time>2026-03-28T10:04:12Z</time></trkpt><trkpt lat="43.63644350409757" lon="11.107365345858634"><ele>141.5</ele><time>2026-03-28T10:04:13Z</time></trkpt><trkpt lat="43.63625376864092" lon="11.107613916985462"><ele>143.0</ele><time>2026-03-28T10:04:14Z</time></trkpt><trkpt lat="43.63606094464002" lon="11.107860148354753"><ele>143.0</ele><time>2026-03-28T10:04:15Z</time></trkpt><trkpt lat="43.63586703031222" lon="11.108106190255453"><ele>143.0</ele><time>2026-03-28T10:04:16Z</time></trkpt><trkpt lat="43.63568219054747" lon="11.108343060714216"><ele>146.0</ele><time>2026-03-28T10:04:17Z</time></trkpt><trkpt lat="43.6355141786775" lon="11.108564481537552"><ele>149.0</ele><time>2026-03-28T10:04:18Z</time></trkpt><trkpt lat="43.63534376355576" lon="11.10878892333371"><ele>148.5</ele><time>2026-03-28T10:04:19Z</time></trkpt><trkpt lat="43.63516676983123" lon="11.109018849430996"><ele>148.0</ele><time>2026-03-28T10:04:20Z</time></trkpt><trkpt lat="43.63498456684881" lon="11.109254320323432"><ele>148.0</ele><time>2026-03-28T10:04:21Z</time></trkpt><trkpt lat="43.634807307058615" lon="11.10948429771768"><ele>148.0</ele><time>2026-03-28T10:04:22Z</time></trkpt><trkpt lat="43.63463634525916" lon="11.109711911955918"><ele>147.5</ele><time>2026-03-28T10:04:23Z</time></trkpt><trkpt lat="43.63446145910606" lon="11.109946855077979"><ele>147.0</ele><time>2026-03-28T10:04:24Z</time></trkpt><trkpt lat="43.63428920173869" lon="11.11017136618664"><ele>147.0</ele><time>2026-03-28T10:04:25Z</time></trkpt><trkpt lat="43.634113211246806" lon="11.110393643015723"><ele>147.0</ele><time>2026-03-28T10:04:26Z</time></trkpt><trkpt lat="43.63393475619125" lon="11.110619072151085"><ele>148.33333333333334</ele><time>2026-03-28T10:04:27Z</time></trkpt><trkpt lat="43.63376841979995" lon="11.110832286842673"><ele>149.66666666666669</ele><time>2026-03-28T10:04:28Z</time></trkpt><trkpt lat="43.633614615970544" lon="11.11103368638496"><ele>151.0</ele><time>2026-03-28T10:04:29Z</time></trkpt><trkpt lat="43.633460363410215" lon="11.11123660616446"><ele>151.0</ele><time>2026-03-28T10:04:30Z</time></trkpt><trkpt lat="43.63330596060751" lon="11.111439043039239"><ele>151.0</ele><time>2026-03-28T10:04:31Z</time></trkpt><trkpt lat="43.63314238802925" lon="11.111644664574923"><ele>151.0</ele><time>2026-03-28T10:04:32Z</time></trkpt><trkpt lat="43.632970146815936" lon="11.111860241922702"><ele>149.5</ele><time>2026-03-28T10:04:33Z</time></trkpt><trkpt lat="43.63279061333033" lon="11.112089996971276"><ele>148.0</ele><time>2026-03-28T10:04:34Z</time></trkpt><trkpt lat="43.6326046677642" lon="11.11233383516624"><ele>150.0</ele><time>2026-03-28T10:04:35Z</time></trkpt><trkpt lat="43.63241821699487" lon="11.112580874428499"><ele>152.0</ele><time>2026-03-28T10:04:36Z</time></trkpt><trkpt lat="43.63222066073693" lon="11.112832248637606"><ele>152.0</ele><time>2026-03-28T10:04:37Z</time></trkpt><trkpt lat="43.63201446309468" lon="11.113094980194035"><ele>152.0</ele><time>2026-03-28T10:04:38Z</time></trkpt><trkpt lat="43.63181185409348" lon="11.113356624235315"><ele>152.0</ele><time>2026-03-28T10:04:39Z</time></trkpt><trkpt lat="43.63162604247862" lon="11.11359821419285"><ele>152.0</ele><time>2026-03-28T10:04:40Z</time></trkpt><trkpt lat="43.63145373803626" lon="11.113826049212761"><ele>152.0</ele><time>2026-03-28T10:04:41Z</time></trkpt><trkpt lat="43.631286445798565" lon="11.114043509740359"><ele>152.0</ele><time>2026-03-28T10:04:42Z</time></trkpt><trkpt lat="43.63111374744239" lon="11.114263386912404"><ele>153.0</ele><time>2026-03-28T10:04:43Z</time></trkpt><trkpt lat="43.63093120829147" lon="11.11449528131385"><ele>154.0</ele><time>2026-03-28T10:04:44Z</time></trkpt><trkpt lat="43.63074928897027" lon="11.11473070382291"><ele>156.5</ele><time>2026-03-28T10:04:45Z</time></trkpt><trkpt lat="43.630578854332526" lon="11.114955681995168"><ele>159.0</ele><time>2026-03-28T10:04:46Z</time></trkpt><trkpt lat="43.63040847250334" lon="11.115181064056415"><ele>157.0</ele><time>2026-03-28T10:04:47Z</time></trkpt><trkpt lat="43.630231156810865" lon="11.115415397452043"><ele>155.0</ele><time>2026-03-28T10:04:48Z</time></trkpt><trkpt lat="43.63005941487388" lon="11.115652288536076"><ele>156.5</ele><time>2026-03-28T10:04:49Z</time></trkpt><trkpt lat="43.62988641504782" lon="11.11589055450464"><ele>158.0</ele><time>2026-03-28T10:04:50Z</time></trkpt><trkpt lat="43.62971587520684" lon="11.116130070790451"><ele>158.0</ele><time>2026-03-28T10:04:51Z</time></trkpt><trkpt lat="43.629548441904696" lon="11.116365485142243"><ele>158.0</ele><time>2026-03-28T10:04:52Z</time></trkpt><trkpt lat="43.6293798977078" lon="11.116603866430692"><ele>158.0</ele><time>2026-03-28T10:04:53Z</time></trkpt><trkpt lat="43.62921078397391" lon="11.116839175776098"><ele>158.0</ele><time>2026-03-28T10:04:54Z</time></trkpt><trkpt lat="43.62904576502787" lon="11.117065222410496"><ele>158.0</ele><time>2026-03-28T10:04:55Z</time></trkpt><trkpt lat="43.62888241483334" lon="11.117292395153017"><ele>158.0</ele><time>2026-03-28T10:04:56Z</time></trkpt><trkpt lat="43.62871592874111" lon="11.117534768848145"><ele>159.0</ele><time>2026-03-28T10:04:57Z</time></trkpt><trkpt lat="43.62854942961315" lon="11.117775669025686"><ele>160.0</ele><time>2026-03-28T10:04:58Z</time></trkpt><trkpt lat="43.62838227452217" lon="11.118007188010917"><ele>160.0</ele><time>2026-03-28T10:04:59Z</time></trkpt><trkpt lat="43.62821798343758" lon="11.11823376100961"><ele>160.0</ele><time>2026-03-28T10:05:00Z</time></trkpt><trkpt lat="43.62805333582949" lon="11.118466884359377"><ele>160.0</ele><time>2026-03-28T10:05:01Z</time></trkpt><trkpt lat="43.62789430112421" lon="11.118697729685856"><ele>160.0</ele><time>2026-03-28T10:05:02Z</time></trkpt><trkpt lat="43.627734227662785" lon="11.118926007392355"><ele>162.5</ele><time>2026-03-28T10:05:03Z</time></trkpt><trkpt lat="43.62756951899161" lon="11.119153898789989"><ele>165.0</ele><time>2026-03-28T10:05:04Z</time></trkpt><trkpt lat="43.627407965668944" lon="11.11937768885096"><ele>165.0</ele><time>2026-03-28T10:05:05Z</time></trkpt><trkpt lat="43.62724364359328" lon="11.119605008154789"><ele>165.0</ele><time>2026-03-28T10:05:06Z</time></trkpt><trkpt lat="43.62708125180043" lon="11.119836884472122"><ele>165.0</ele><time>2026-03-28T10:05:07Z</time></trkpt><trkpt lat="43.626919622789536" lon="11.120062804877048"><ele>165.0</ele><time>2026-03-28T10:05:08Z</time></trkpt><trkpt lat="43.62676267670408" lon="11.120285138216056"><ele>165.0</ele><time>2026-03-28T10:05:09Z</time></trkpt><trkpt lat="43.62660094532964" lon="11.120511541756349"><ele>165.0</ele><time>2026-03-28T10:05:10Z</time></trkpt><trkpt lat="43.62643785067249" lon="11.12074263919908"><ele>164.33333333333334</ele><time>2026-03-28T10:05:11Z</time></trkpt><trkpt lat="43.626280634853806" lon="11.12096542116533"><ele>163.66666666666669</ele><time>2026-03-28T10:05:12Z</time></trkpt><trkpt lat="43.626125283355194" lon="11.12117886935181"><ele>163.0</ele><time>2026-03-28T10:05:13Z</time></trkpt><trkpt lat="43.62597410514385" lon="11.12139261561102"><ele>164.66666666666669</ele><time>2026-03-28T10:05:14Z</time></trkpt><trkpt lat="43.62582980094708" lon="11.121607697950752"><ele>166.33333333333334</ele><time>2026-03-28T10:05:15Z</time></trkpt><trkpt lat="43.625679974117894" lon="11.121827607743175"><ele>168.0</ele><time>2026-03-28T10:05:16Z</time></trkpt><trkpt lat="43.6255348045325" lon="11.122051233825255"><ele>168.0</ele><time>2026-03-28T10:05:17Z</time></trkpt><trkpt lat="43.62538514476067" lon="11.122289599229338"><ele>168.0</ele><time>2026-03-28T10:05:18Z</time></trkpt><trkpt lat="43.62524011940487" lon="11.122530338081225"><ele>167.0</ele><time>2026-03-28T10:05:19Z</time></trkpt><trkpt lat="43.625089627147574" lon="11.12278037909112"><ele>166.0</ele><time>2026-03-28T10:05:20Z</time></trkpt><trkpt lat="43.62494714303639" lon="11.123033022484673"><ele>168.33333333333334</ele><time>2026-03-28T10:05:21Z</time></trkpt><trkpt lat="43.62480894491714" lon="11.123278347668762"><ele>170.66666666666666</ele><time>2026-03-28T10:05:22Z</time></trkpt><trkpt lat="43.624670998231394" lon="11.123519615393542"><ele>173.0</ele><time>2026-03-28T10:05:23Z</time></trkpt><trkpt lat="43.624528175355884" lon="11.123767545685144"><ele>173.33333333333331</ele><time>2026-03-28T10:05:24Z</time></trkpt><trkpt lat="43.62439015487661" lon="11.124007754607302"><ele>173.66666666666666</ele><time>2026-03-28T10:05:25Z</time></trkpt><trkpt lat="43.62425491618508" lon="11.124245953985243"><ele>174.0</ele><time>2026-03-28T10:05:26Z</time></trkpt><trkpt lat="43.62412231455533" lon="11.12448023292796"><ele>174.0</ele><time>2026-03-28T10:05:27Z</time></trkpt><trkpt lat="43.623990620174716" lon="11.124714410914766"><ele>174.0</ele><time>2026-03-28T10:05:28Z</time></trkpt><trkpt lat="43.6238643294196" lon="11.124942879202047"><ele>174.0</ele><time>2026-03-28T10:05:29Z</time></trkpt><trkpt lat="43.62373457378587" lon="11.1251733178738"><ele>173.66666666666666</ele><time>2026-03-28T10:05:30Z</time></trkpt><trkpt lat="43.62360063314198" lon="11.125412025336017"><ele>173.33333333333331</ele><time>2026-03-28T10:05:31Z</time></trkpt><trkpt lat="43.62347351919852" lon="11.125634898822003"><ele>173.0</ele><time>2026-03-28T10:05:32Z</time></trkpt><trkpt lat="43.623342834421976" lon="11.125855522592634"><ele>173.0</ele><time>2026-03-28T10:05:33Z</time></trkpt><trkpt lat="43.62320266874063" lon="11.126078467883932"><ele>173.0</ele><time>2026-03-28T10:05:34Z</time></trkpt><trkpt lat="43.622878300344865" lon="11.126513316961157"><ele>172.0</ele><time>2026-03-28T10:05:36Z</time></trkpt><trkpt lat="43.6226927685106" lon="11.126695638513896"><ele>171.0</ele><time>2026-03-28T10:05:37Z</time></trkpt><trkpt lat="43.62249588667999" lon="11.12685507364624"><ele>171.0</ele><time>2026-03-28T10:05:38Z</time></trkpt><trkpt lat="43.62228833844831" lon="11.127005918647141"><ele>171.0</ele><time>2026-03-28T10:05:39Z</time></trkpt><trkpt lat="43.622074981331004" lon="11.12714484192362"><ele>172.0</ele><time>2026-03-28T10:05:40Z</time></trkpt><trkpt lat="43.62185828502778" lon="11.127250418080427"><ele>173.0</ele><time>2026-03-28T10:05:41Z</time></trkpt><trkpt lat="43.62164260546397" lon="11.12734054863567"><ele>174.0</ele><time>2026-03-28T10:05:42Z</time></trkpt><trkpt lat="43.62142266977348" lon="11.127433720079022"><ele>175.0</ele><time>2026-03-28T10:05:43Z</time></trkpt><trkpt lat="43.62120467861948" lon="11.127530816162283"><ele>175.33333333333334</ele><time>2026-03-28T10:05:44Z</time></trkpt><trkpt lat="43.620995267856664" lon="11.127624886530961"><ele>175.66666666666666</ele><time>2026-03-28T10:05:45Z</time></trkpt><trkpt lat="43.62079763092719" lon="11.127713871527057"><ele>176.0</ele><time>2026-03-28T10:05:46Z</time></trkpt><trkpt lat="43.62060034039071" lon="11.127815948336416"><ele>176.0</ele><time>2026-03-28T10:05:47Z</time></trkpt><trkpt lat="43.62039242885185" lon="11.127932013068216"><ele>176.0</ele><time>2026-03-28T10:05:48Z</time></trkpt><trkpt lat="43.620180020914766" lon="11.12807657258664"><ele>175.5</ele><time>2026-03-28T10:05:49Z</time></trkpt><trkpt lat="43.619975266095985" lon="11.128240036998477"><ele>175.0</ele><time>2026-03-28T10:05:50Z</time></trkpt><trkpt lat="43.61976507457987" lon="11.128379715004895"><ele>175.0</ele><time>2026-03-28T10:05:51Z</time></trkpt><trkpt lat="43.61958962655467" lon="11.128618292279123"><ele>175.0</ele><time>2026-03-28T10:05:52Z</time></trkpt><trkpt lat="43.61941361647428" lon="11.128823748710394"><ele>175.33333333333334</ele><time>2026-03-28T10:05:53Z</time></trkpt><trkpt lat="43.619254379739516" lon="11.129027764174383"><ele>175.66666666666666</ele><time>2026-03-28T10:05:54Z</time></trkpt><trkpt lat="43.61909988925053" lon="11.12924450179542"><ele>176.0</ele><time>2026-03-28T10:05:55Z</time></trkpt><trkpt lat="43.61895165871119" lon="11.129478701822196"><ele>176.0</ele><time>2026-03-28T10:05:56Z</time></trkpt><trkpt lat="43.61880936828207" lon="11.129722084275041"><ele>176.0</ele><time>2026-03-28T10:05:57Z</time></trkpt><trkpt lat="43.61867956595385" lon="11.129949863607244"><ele>176.0</ele><time>2026-03-28T10:05:58Z</time></trkpt><trkpt lat="43.61855604691774" lon="11.130163491031459"><ele>177.0</ele><time>2026-03-28T10:05:59Z</time></trkpt><trkpt lat="43.6184342946362" lon="11.13037310096943"><ele>178.0</ele><time>2026-03-28T10:06:00Z</time></trkpt><trkpt lat="43.618308068388814" lon="11.130580652195864"><ele>179.0</ele><time>2026-03-28T10:06:01Z</time></trkpt><trkpt lat="43.618196153060225" lon="11.130799913243651"><ele>179.0</ele><time>2026-03-28T10:06:02Z</time></trkpt><trkpt lat="43.61810039149416" lon="11.131029571146655"><ele>179.0</ele><time>2026-03-28T10:06:03Z</time></trkpt><trkpt lat="43.6180274406298" lon="11.131274218190233"><ele>179.0</ele><time>2026-03-28T10:06:04Z</time></trkpt><trkpt lat="43.61797078768455" lon="11.131535746829147"><ele>179.0</ele><time>2026-03-28T10:06:05Z</time></trkpt><trkpt lat="43.61793542511994" lon="11.131774392150293"><ele>179.0</ele><time>2026-03-28T10:06:06Z</time></trkpt><trkpt lat="43.61792157900918" lon="11.132009019620337"><ele>179.0</ele><time>2026-03-28T10:06:07Z</time></trkpt><trkpt lat="43.6179324137555" lon="11.13222635464199"><ele>179.0</ele><time>2026-03-28T10:06:08Z</time></trkpt><trkpt lat="43.617955718421335" lon="11.13243110167371"><ele>179.0</ele><time>2026-03-28T10:06:09Z</time></trkpt><trkpt lat="43.61797743526513" lon="11.1326188212008"><ele>179.0</ele><time>2026-03-28T10:06:10Z</time></trkpt><trkpt lat="43.618000139668" lon="11.132793366210697"><ele>179.0</ele><time>2026-03-28T10:06:11Z</time></trkpt><trkpt lat="43.618021553831824" lon="11.132954689863569"><ele>179.0</ele><time>2026-03-28T10:06:12Z</time></trkpt><trkpt lat="43.618038832557986" lon="11.133101166592542"><ele>179.0</ele><time>2026-03-28T10:06:13Z</time></trkpt><trkpt lat="43.61805055882654" lon="11.133217054463936"><ele>179.0</ele><time>2026-03-28T10:06:14Z</time></trkpt><trkpt lat="43.618071004058706" lon="11.133309113574926"><ele>179.0</ele><time>2026-03-28T10:06:15Z</time></trkpt><trkpt lat="43.61812069993867" lon="11.133373415514992"><ele>179.0</ele><time>2026-03-28T10:06:16Z</time></trkpt><trkpt lat="43.618194136029366" lon="11.133397034667414"><ele>179.0</ele><time>2026-03-28T10:06:17Z</time></trkpt><trkpt lat="43.618289123790596" lon="11.13338476641112"><ele>180.0</ele><time>2026-03-28T10:06:18Z</time></trkpt><trkpt lat="43.61840318764135" lon="11.133375539212269"><ele>181.0</ele><time>2026-03-28T10:06:19Z</time></trkpt><trkpt lat="43.61853386483781" lon="11.133385876013719"><ele>182.0</ele><time>2026-03-28T10:06:20Z</time></trkpt><trkpt lat="43.61868296852163" lon="11.133417738915226"><ele>183.0</ele><time>2026-03-28T10:06:21Z</time></trkpt><trkpt lat="43.618834481611536" lon="11.133471047714998"><ele>183.66666666666666</ele><time>2026-03-28T10:06:22Z</time></trkpt><trkpt lat="43.618993991991594" lon="11.133569232330265"><ele>184.33333333333331</ele><time>2026-03-28T10:06:23Z</time></trkpt><trkpt lat="43.619177833063034" lon="11.1336962111658"><ele>185.0</ele><time>2026-03-28T10:06:24Z</time></trkpt><trkpt lat="43.619355725981144" lon="11.133821560667984"><ele>187.25</ele><time>2026-03-28T10:06:25Z</time></trkpt><trkpt lat="43.61950195433862" lon="11.133925712848718"><ele>189.5</ele><time>2026-03-28T10:06:26Z</time></trkpt><trkpt lat="43.61963704791095" lon="11.133994149691226"><ele>191.75</ele><time>2026-03-28T10:06:27Z</time></trkpt><trkpt lat="43.619774293180974" lon="11.134014929039912"><ele>194.0</ele><time>2026-03-28T10:06:28Z</time></trkpt><trkpt lat="43.61991548623717" lon="11.133979339930747"><ele>194.0</ele><time>2026-03-28T10:06:29Z</time></trkpt><trkpt lat="43.62005454187165" lon="11.133885029813142"><ele>194.0</ele><time>2026-03-28T10:06:30Z</time></trkpt><trkpt lat="43.620197733430885" lon="11.13375199195968"><ele>194.0</ele><time>2026-03-28T10:06:31Z</time></trkpt><trkpt lat="43.62036116520703" lon="11.133609758393474"><ele>198.33333333333334</ele><time>2026-03-28T10:06:32Z</time></trkpt><trkpt lat="43.6205371165279" lon="11.13347321921146"><ele>202.66666666666669</ele><time>2026-03-28T10:06:33Z</time></trkpt><trkpt lat="43.62069652126966" lon="11.133349823833337"><ele>207.0</ele><time>2026-03-28T10:06:34Z</time></trkpt><trkpt lat="43.620852025694944" lon="11.133224978004732"><ele>205.75</ele><time>2026-03-28T10:06:35Z</time></trkpt><trkpt lat="43.62099107893067" lon="11.133110533420435"><ele>204.5</ele><time>2026-03-28T10:06:36Z</time></trkpt><trkpt lat="43.621111676202354" lon="11.133019547117936"><ele>203.25</ele><time>2026-03-28T10:06:37Z</time></trkpt><trkpt lat="43.62122910042977" lon="11.132957844856504"><ele>202.0</ele><time>2026-03-28T10:06:38Z</time></trkpt><trkpt lat="43.621352034169504" lon="11.132938255175626"><ele>206.25</ele><time>2026-03-28T10:06:39Z</time></trkpt><trkpt lat="43.62147225188647" lon="11.132974163219536"><ele>210.5</ele><time>2026-03-28T10:06:40Z</time></trkpt><trkpt lat="43.621585662361625" lon="11.133068546229227"><ele>214.75</ele><time>2026-03-28T10:06:41Z</time></trkpt><trkpt lat="43.62168190850375" lon="11.13321003185791"><ele>219.0</ele><time>2026-03-28T10:06:42Z</time></trkpt><trkpt lat="43.62177922749386" lon="11.133375912094621"><ele>220.66666666666669</ele><time>2026-03-28T10:06:43Z</time></trkpt><trkpt lat="43.62189291840419" lon="11.133540826982918"><ele>222.33333333333334</ele><time>2026-03-28T10:06:44Z</time></trkpt><trkpt lat="43.622015830320564" lon="11.13371038031024"><ele>224.0</ele><time>2026-03-28T10:06:45Z</time></trkpt><trkpt lat="43.62212853869946" lon="11.133868881631505"><ele>232.0</ele><time>2026-03-28T10:06:46Z</time></trkpt><trkpt lat="43.622233021758355" lon="11.134020403755338"><ele>240.0</ele><time>2026-03-28T10:06:47Z</time></trkpt><trkpt lat="43.62232913162709" lon="11.134183265134835"><ele>248.0</ele><time>2026-03-28T10:06:48Z</time></trkpt><trkpt lat="43.62242323200977" lon="11.134374765230588"><ele>248.0</ele><time>2026-03-28T10:06:49Z</time></trkpt><trkpt lat="43.62250787237873" lon="11.134601969641167"><ele>248.0</ele><time>2026-03-28T10:06:50Z</time></trkpt><trkpt lat="43.622588359132685" lon="11.13487056480894"><ele>248.0</ele><time>2026-03-28T10:06:51Z</time></trkpt><trkpt lat="43.62267312958559" lon="11.13512589263112"><ele>245.66666666666669</ele><time>2026-03-28T10:06:52Z</time></trkpt><trkpt lat="43.62276042022845" lon="11.135335944247167"><ele>243.33333333333331</ele><time>2026-03-28T10:06:53Z</time></trkpt><trkpt lat="43.62285110049744" lon="11.135512023229685"><ele>241.0</ele><time>2026-03-28T10:06:54Z</time></trkpt><trkpt lat="43.622968419812075" lon="11.135655668323071"><ele>246.0</ele><time>2026-03-28T10:06:55Z</time></trkpt><trkpt lat="43.62312965556559" lon="11.135780468721887"><ele>251.0</ele><time>2026-03-28T10:06:56Z</time></trkpt><trkpt lat="43.623277675245184" lon="11.135995195990862"><ele>256.0</ele><time>2026-03-28T10:06:57Z</time></trkpt><trkpt lat="43.6234675039906" lon="11.13615294528076"><ele>256.0</ele><time>2026-03-28T10:06:58Z</time></trkpt><trkpt lat="43.62363758814047" lon="11.136293696410752"><ele>256.0</ele><time>2026-03-28T10:06:59Z</time></trkpt><trkpt lat="43.62378724665931" lon="11.136417792759918"><ele>256.0</ele><time>2026-03-28T10:07:00Z</time></trkpt><trkpt lat="43.623939610221136" lon="11.136537338499073"><ele>260.0</ele><time>2026-03-28T10:07:01Z</time></trkpt><trkpt lat="43.624115131787654" lon="11.136641653702672"><ele>264.0</ele><time>2026-03-28T10:07:02Z</time></trkpt><trkpt lat="43.624290704403144" lon="11.136710192993405"><ele>268.0</ele><time>2026-03-28T10:07:03Z</time></trkpt><trkpt lat="43.624456113984934" lon="11.136726867492786"><ele>271.66666666666663</ele><time>2026-03-28T10:07:04Z</time></trkpt><trkpt lat="43.624623291976114" lon="11.136722307820063"><ele>275.3333333333333</ele><time>2026-03-28T10:07:05Z</time></trkpt><trkpt lat="43.62482422847682" lon="11.1367108262697"><ele>279.0</ele><time>2026-03-28T10:07:06Z</time></trkpt><trkpt lat="43.62499932041585" lon="11.136705498531086"><ele>279.0</ele><time>2026-03-28T10:07:07Z</time></trkpt><trkpt lat="43.625130068384216" lon="11.1367244164937"><ele>279.0</ele><time>2026-03-28T10:07:08Z</time></trkpt><trkpt lat="43.62521715334334" lon="11.136751565635613"><ele>279.0</ele><time>2026-03-28T10:07:09Z</time></trkpt><trkpt lat="43.62530296096122" lon="11.136818979976592"><ele>279.0</ele><time>2026-03-28T10:07:10Z</time></trkpt><trkpt lat="43.62532489497771" lon="11.137005513218206"><ele>282.0</ele><time>2026-03-28T10:07:12Z</time></trkpt><trkpt lat="43.625336487207136" lon="11.137137975531727"><ele>285.0</ele><time>2026-03-28T10:07:13Z</time></trkpt><trkpt lat="43.62535578785547" lon="11.13728131201385"><ele>288.0</ele><time>2026-03-28T10:07:14Z</time></trkpt><trkpt lat="43.62541662178348" lon="11.137417185163036"><ele>291.0</ele><time>2026-03-28T10:07:15Z</time></trkpt><trkpt lat="43.62552802381556" lon="11.137496114836235"><ele>294.0</ele><time>2026-03-28T10:07:16Z</time></trkpt><trkpt lat="43.6256612050865" lon="11.137589082855149"><ele>294.0</ele><time>2026-03-28T10:07:17Z</time></trkpt><trkpt lat="43.62580341766306" lon="11.137690217500863"><ele>294.0</ele><time>2026-03-28T10:07:18Z</time></trkpt><trkpt lat="43.62595738881565" lon="11.137784055637225"><ele>294.0</ele><time>2026-03-28T10:07:19Z</time></trkpt><trkpt lat="43.62607870151195" lon="11.137909853839275"><ele>297.0</ele><time>2026-03-28T10:07:20Z</time></trkpt><trkpt lat="43.62618308237329" lon="11.138047635954534"><ele>300.0</ele><time>2026-03-28T10:07:21Z</time></trkpt><trkpt lat="43.62629102707257" lon="11.138172568530196"><ele>303.0</ele><time>2026-03-28T10:07:22Z</time></trkpt><trkpt lat="43.62638515187069" lon="11.138303870717383"><ele>306.0</ele><time>2026-03-28T10:07:23Z</time></trkpt><trkpt lat="43.626478300078396" lon="11.138450512331225"><ele>306.0</ele><time>2026-03-28T10:07:24Z</time></trkpt><trkpt lat="43.62656058436492" lon="11.138587887891365"><ele>306.0</ele><time>2026-03-28T10:07:25Z</time></trkpt><trkpt lat="43.626629323373244" lon="11.13870265539772"><ele>306.0</ele><time>2026-03-28T10:07:26Z</time></trkpt><trkpt lat="43.626698435514385" lon="11.138812282931172"><ele>306.0</ele><time>2026-03-28T10:07:27Z</time></trkpt><trkpt lat="43.62680823240618" lon="11.138882116504465"><ele>306.0</ele><time>2026-03-28T10:07:28Z</time></trkpt><trkpt lat="43.62689616911949" lon="11.138984575739673"><ele>306.0</ele><time>2026-03-28T10:07:29Z</time></trkpt><trkpt lat="43.626972099732804" lon="11.13907398719979"><ele>306.0</ele><time>2026-03-28T10:07:30Z</time></trkpt><trkpt lat="43.62703094078461" lon="11.139158027413023"><ele>306.0</ele><time>2026-03-28T10:07:31Z</time></trkpt><trkpt lat="43.62707605311628" lon="11.139250168077306"><ele>306.0</ele><time>2026-03-28T10:07:32Z</time></trkpt><trkpt lat="43.62707689267191" lon="11.139350477506149"><ele>305.8333333333333</ele><time>2026-03-28T10:07:33Z</time></trkpt><trkpt lat="43.62703287789116" lon="11.13942731123543"><ele>305.6666666666667</ele><time>2026-03-28T10:07:34Z</time></trkpt><trkpt lat="43.62699305330611" lon="11.139513944588042"><ele>305.5</ele><time>2026-03-28T10:07:35Z</time></trkpt><trkpt lat="43.62693137441931" lon="11.139598631404882"><ele>305.33333333333337</ele><time>2026-03-28T10:07:36Z</time></trkpt><trkpt lat="43.62686169927194" lon="11.139695385551818"><ele>305.1666666666667</ele><time>2026-03-28T10:07:37Z</time></trkpt><trkpt lat="43.626784446951824" lon="11.139807401619182"><ele>305.0</ele><time>2026-03-28T10:07:38Z</time></trkpt><trkpt lat="43.62670562389909" lon="11.139923544986459"><ele>306.8</ele><time>2026-03-28T10:07:39Z</time></trkpt><trkpt lat="43.626626990736234" lon="11.140038976091374"><ele>308.6</ele><time>2026-03-28T10:07:40Z</time></trkpt><trkpt lat="43.62655239570837" lon="11.140148772619117"><ele>310.4</ele><time>2026-03-28T10:07:41Z</time></trkpt><trkpt lat="43.626486577083895" lon="11.140248261093673"><ele>312.2</ele><time>2026-03-28T10:07:42Z</time></trkpt><trkpt lat="43.62643090187952" lon="11.140331177715128"><ele>314.0</ele><time>2026-03-28T10:07:43Z</time></trkpt><trkpt lat="43.626367051676645" lon="11.140418998301271"><ele>314.0</ele><time>2026-03-28T10:07:44Z</time></trkpt><trkpt lat="43.62628615377266" lon="11.140505588713795"><ele>314.0</ele><time>2026-03-28T10:07:45Z</time></trkpt><trkpt lat="43.62618226407693" lon="11.140587628780183"><ele>314.0</ele><time>2026-03-28T10:07:46Z</time></trkpt><trkpt lat="43.6260574784341" lon="11.140687615277905"><ele>314.0</ele><time>2026-03-28T10:07:47Z</time></trkpt><trkpt lat="43.62592025585361" lon="11.140810613890302"><ele>313.5</ele><time>2026-03-28T10:07:48Z</time></trkpt><trkpt lat="43.62579712508265" lon="11.140921943871927"><ele>313.0</ele><time>2026-03-28T10:07:49Z</time></trkpt><trkpt lat="43.62567635761726" lon="11.141033912803204"><ele>312.5</ele><time>2026-03-28T10:07:50Z</time></trkpt><trkpt lat="43.625556363851146" lon="11.141138422334336"><ele>312.0</ele><time>2026-03-28T10:07:51Z</time></trkpt><trkpt lat="43.62543772336543" lon="11.141233641721273"><ele>312.0</ele><time>2026-03-28T10:07:52Z</time></trkpt><trkpt lat="43.625325176369834" lon="11.14132346513815"><ele>312.0</ele><time>2026-03-28T10:07:53Z</time></trkpt><trkpt lat="43.62521730033955" lon="11.141424270772957"><ele>312.0</ele><time>2026-03-28T10:07:54Z</time></trkpt><trkpt lat="43.625112407862574" lon="11.141517894018415"><ele>312.0</ele><time>2026-03-28T10:07:55Z</time></trkpt><trkpt lat="43.624997039917545" lon="11.141604205862734"><ele>309.5</ele><time>2026-03-28T10:07:56Z</time></trkpt><trkpt lat="43.62488832531743" lon="11.141726952871288"><ele>307.0</ele><time>2026-03-28T10:07:57Z</time></trkpt><trkpt lat="43.62475962929103" lon="11.14182609588342"><ele>304.5</ele><time>2026-03-28T10:07:58Z</time></trkpt><trkpt lat="43.624629076579446" lon="11.141937715733855"><ele>302.0</ele><time>2026-03-28T10:07:59Z</time></trkpt><trkpt lat="43.62449406412752" lon="11.142056331432405"><ele>301.33333333333337</ele><time>2026-03-28T10:08:00Z</time></trkpt><trkpt lat="43.62435330396482" lon="11.142199332555556"><ele>300.6666666666667</ele><time>2026-03-28T10:08:01Z</time></trkpt><trkpt lat="43.62422595651911" lon="11.142317773233993"><ele>300.0</ele><time>2026-03-28T10:08:02Z</time></trkpt><trkpt lat="43.62411310323849" lon="11.142429601185086"><ele>301.25</ele><time>2026-03-28T10:08:03Z</time></trkpt><trkpt lat="43.62399647812577" lon="11.142541935244935"><ele>302.5</ele><time>2026-03-28T10:08:04Z</time></trkpt><trkpt lat="43.62388596694865" lon="11.142648800636803"><ele>303.75</ele><time>2026-03-28T10:08:05Z</time></trkpt><trkpt lat="43.62377946829566" lon="11.142756287008876"><ele>305.0</ele><time>2026-03-28T10:08:06Z</time></trkpt><trkpt lat="43.62368711827747" lon="11.14288965937801"><ele>306.0</ele><time>2026-03-28T10:08:07Z</time></trkpt><trkpt lat="43.623598823138494" lon="11.143069099805038"><ele>307.0</ele><time>2026-03-28T10:08:08Z</time></trkpt><trkpt lat="43.623510904406665" lon="11.143266024018576"><ele>308.0</ele><time>2026-03-28T10:08:09Z</time></trkpt><trkpt lat="43.623425962765154" lon="11.143458275300567"><ele>310.0</ele><time>2026-03-28T10:08:10Z</time></trkpt><trkpt lat="43.62334154873178" lon="11.143644492691084"><ele>312.0</ele><time>2026-03-28T10:08:11Z</time></trkpt><trkpt lat="43.62324910929257" lon="11.143829797522345"><ele>314.0</ele><time>2026-03-28T10:08:12Z</time></trkpt><trkpt lat="43.623148211679734" lon="11.14402812087186"><ele>313.0</ele><time>2026-03-28T10:08:13Z</time></trkpt><trkpt lat="43.62305264276768" lon="11.1442346445799"><ele>312.0</ele><time>2026-03-28T10:08:14Z</time></trkpt><trkpt lat="43.62296707720198" lon="11.144423180571067"><ele>311.0</ele><time>2026-03-28T10:08:15Z</time></trkpt><trkpt lat="43.62289454162227" lon="11.14459283568804"><ele>311.0</ele><time>2026-03-28T10:08:16Z</time></trkpt><trkpt lat="43.62282096152205" lon="11.144757044758952"><ele>311.0</ele><time>2026-03-28T10:08:17Z</time></trkpt><trkpt lat="43.622740825929526" lon="11.14492005602197"><ele>311.0</ele><time>2026-03-28T10:08:18Z</time></trkpt><trkpt lat="43.62266251757027" lon="11.145086928244618"><ele>311.0</ele><time>2026-03-28T10:08:19Z</time></trkpt><trkpt lat="43.62258651981963" lon="11.145243116292926"><ele>313.0</ele><time>2026-03-28T10:08:20Z</time></trkpt><trkpt lat="43.62250086140366" lon="11.145399883381032"><ele>315.0</ele><time>2026-03-28T10:08:21Z</time></trkpt><trkpt lat="43.62242519022595" lon="11.145586819160023"><ele>317.0</ele><time>2026-03-28T10:08:22Z</time></trkpt><trkpt lat="43.622339400725295" lon="11.145789570451294"><ele>318.0</ele><time>2026-03-28T10:08:23Z</time></trkpt><trkpt lat="43.62224422680165" lon="11.14597476022264"><ele>319.0</ele><time>2026-03-28T10:08:24Z</time></trkpt><trkpt lat="43.622162156170695" lon="11.146152841179822"><ele>320.0</ele><time>2026-03-28T10:08:25Z</time></trkpt><trkpt lat="43.62208314137341" lon="11.14632761886624"><ele>320.0</ele><time>2026-03-28T10:08:26Z</time></trkpt><trkpt lat="43.622002777630385" lon="11.14651896944231"><ele>320.0</ele><time>2026-03-28T10:08:27Z</time></trkpt><trkpt lat="43.62192345717444" lon="11.146686145770579"><ele>320.0</ele><time>2026-03-28T10:08:28Z</time></trkpt><trkpt lat="43.6218496910936" lon="11.146836719425053"><ele>320.0</ele><time>2026-03-28T10:08:29Z</time></trkpt><trkpt lat="43.62177806152639" lon="11.146992377125759"><ele>319.75</ele><time>2026-03-28T10:08:30Z</time></trkpt><trkpt lat="43.621711103781585" lon="11.147146463180256"><ele>319.5</ele><time>2026-03-28T10:08:31Z</time></trkpt><trkpt lat="43.62162067608732" lon="11.147306806451155"><ele>319.25</ele><time>2026-03-28T10:08:32Z</time></trkpt><trkpt lat="43.62153613864175" lon="11.147447905512074"><ele>319.0</ele><time>2026-03-28T10:08:33Z</time></trkpt><trkpt lat="43.621464893128426" lon="11.147597791657214"><ele>319.5</ele><time>2026-03-28T10:08:34Z</time></trkpt><trkpt lat="43.621391933262025" lon="11.147724728113733"><ele>320.0</ele><time>2026-03-28T10:08:35Z</time></trkpt><trkpt lat="43.62132206486853" lon="11.14783703191049"><ele>320.5</ele><time>2026-03-28T10:08:36Z</time></trkpt><trkpt lat="43.62124743798888" lon="11.147942438329034"><ele>321.0</ele><time>2026-03-28T10:08:37Z</time></trkpt><trkpt lat="43.62115546431361" lon="11.148051484973571"><ele>319.0</ele><time>2026-03-28T10:08:38Z</time></trkpt><trkpt lat="43.621058019328686" lon="11.148182970131456"><ele>317.0</ele><time>2026-03-28T10:08:39Z</time></trkpt><trkpt lat="43.62094703272568" lon="11.148331513784413"><ele>315.0</ele><time>2026-03-28T10:08:40Z</time></trkpt><trkpt lat="43.62081056710792" lon="11.148497187957242"><ele>314.6666666666667</ele><time>2026-03-28T10:08:41Z</time></trkpt><trkpt lat="43.62066741812869" lon="11.148672931098622"><ele>314.33333333333337</ele><time>2026-03-28T10:08:42Z</time></trkpt><trkpt lat="43.6205324630316" lon="11.148831068535129"><ele>314.0</ele><time>2026-03-28T10:08:43Z</time></trkpt><trkpt lat="43.62039518257707" lon="11.148996404745192"><ele>313.33333333333337</ele><time>2026-03-28T10:08:44Z</time></trkpt><trkpt lat="43.620260662633996" lon="11.149161799835618"><ele>312.6666666666667</ele><time>2026-03-28T10:08:45Z</time></trkpt><trkpt lat="43.6201317349027" lon="11.149329126414774"><ele>312.0</ele><time>2026-03-28T10:08:46Z</time></trkpt><trkpt lat="43.62000669910487" lon="11.149492326201095"><ele>312.0</ele><time>2026-03-28T10:08:47Z</time></trkpt><trkpt lat="43.61987539424487" lon="11.149655594806198"><ele>312.0</ele><time>2026-03-28T10:08:48Z</time></trkpt><trkpt lat="43.61973785263808" lon="11.149820750705704"><ele>312.0</ele><time>2026-03-28T10:08:49Z</time></trkpt><trkpt lat="43.61960101799698" lon="11.149985942333757"><ele>312.3333333333333</ele><time>2026-03-28T10:08:50Z</time></trkpt><trkpt lat="43.61946893947483" lon="11.15015448370079"><ele>312.66666666666663</ele><time>2026-03-28T10:08:51Z</time></trkpt><trkpt lat="43.619346168665935" lon="11.15030090217869"><ele>313.0</ele><time>2026-03-28T10:08:52Z</time></trkpt><trkpt lat="43.61922068578597" lon="11.150450264293012"><ele>313.0</ele><time>2026-03-28T10:08:53Z</time></trkpt><trkpt lat="43.61910127101152" lon="11.150607235331108"><ele>313.0</ele><time>2026-03-28T10:08:54Z</time></trkpt><trkpt lat="43.618971085104434" lon="11.150741391823214"><ele>313.0</ele><time>2026-03-28T10:08:55Z</time></trkpt><trkpt lat="43.61885653727676" lon="11.150878396747379"><ele>312.25</ele><time>2026-03-28T10:08:56Z</time></trkpt><trkpt lat="43.61876003009295" lon="11.150990265599434"><ele>311.5</ele><time>2026-03-28T10:08:57Z</time></trkpt><trkpt lat="43.61866316491824" lon="11.151107306803272"><ele>310.75</ele><time>2026-03-28T10:08:58Z</time></trkpt><trkpt lat="43.61857021919999" lon="11.151268796241256"><ele>310.0</ele><time>2026-03-28T10:08:59Z</time></trkpt><trkpt lat="43.61851620888691" lon="11.151461322686014"><ele>310.25</ele><time>2026-03-28T10:09:00Z</time></trkpt><trkpt lat="43.618482378721914" lon="11.151630334065661"><ele>310.5</ele><time>2026-03-28T10:09:01Z</time></trkpt><trkpt lat="43.61844288210344" lon="11.151824035557286"><ele>310.75</ele><time>2026-03-28T10:09:02Z</time></trkpt><trkpt lat="43.61839541858373" lon="11.152053049933013"><ele>311.0</ele><time>2026-03-28T10:09:03Z</time></trkpt><trkpt lat="43.61834539834567" lon="11.152291141630739"><ele>311.0</ele><time>2026-03-28T10:09:04Z</time></trkpt><trkpt lat="43.61827824976836" lon="11.152476781575734"><ele>311.0</ele><time>2026-03-28T10:09:05Z</time></trkpt><trkpt lat="43.618236071939194" lon="11.152672165810195"><ele>311.0</ele><time>2026-03-28T10:09:06Z</time></trkpt><trkpt lat="43.61819757998339" lon="11.152849147361307"><ele>311.0</ele><time>2026-03-28T10:09:07Z</time></trkpt><trkpt lat="43.6181531719325" lon="11.153021904977608"><ele>310.0</ele><time>2026-03-28T10:09:08Z</time></trkpt><trkpt lat="43.61807943730503" lon="11.153230188308811"><ele>309.0</ele><time>2026-03-28T10:09:09Z</time></trkpt><trkpt lat="43.61800016318448" lon="11.153455761258272"><ele>308.0</ele><time>2026-03-28T10:09:10Z</time></trkpt><trkpt lat="43.617912366505536" lon="11.153704588090596"><ele>306.0</ele><time>2026-03-28T10:09:11Z</time></trkpt><trkpt lat="43.617817750258524" lon="11.153963018919365"><ele>304.0</ele><time>2026-03-28T10:09:12Z</time></trkpt><trkpt lat="43.61772518891468" lon="11.154212706005895"><ele>302.0</ele><time>2026-03-28T10:09:13Z</time></trkpt><trkpt lat="43.61763448617214" lon="11.154466008226574"><ele>302.0</ele><time>2026-03-28T10:09:14Z</time></trkpt><trkpt lat="43.61754024016842" lon="11.154735962722391"><ele>302.0</ele><time>2026-03-28T10:09:15Z</time></trkpt><trkpt lat="43.61744514297081" lon="11.154985002383777"><ele>302.0</ele><time>2026-03-28T10:09:16Z</time></trkpt><trkpt lat="43.61736094731765" lon="11.15522164836089"><ele>302.0</ele><time>2026-03-28T10:09:17Z</time></trkpt><trkpt lat="43.61727277543838" lon="11.155464957161414"><ele>302.0</ele><time>2026-03-28T10:09:18Z</time></trkpt><trkpt lat="43.6171856574736" lon="11.155704250765037"><ele>302.0</ele><time>2026-03-28T10:09:19Z</time></trkpt><trkpt lat="43.61709971298617" lon="11.155938289712724"><ele>302.0</ele><time>2026-03-28T10:09:20Z</time></trkpt><trkpt lat="43.61701198393083" lon="11.156172594988563"><ele>302.0</ele><time>2026-03-28T10:09:21Z</time></trkpt><trkpt lat="43.616926016146074" lon="11.15641041548148"><ele>302.0</ele><time>2026-03-28T10:09:22Z</time></trkpt><trkpt lat="43.61684425672813" lon="11.15663870726576"><ele>305.25</ele><time>2026-03-28T10:09:23Z</time></trkpt><trkpt lat="43.61677517689205" lon="11.15683438049953"><ele>308.5</ele><time>2026-03-28T10:09:24Z</time></trkpt><trkpt lat="43.616706275224956" lon="11.157014818405885"><ele>311.75</ele><time>2026-03-28T10:09:25Z</time></trkpt><trkpt lat="43.61664467219092" lon="11.157180737536768"><ele>315.0</ele><time>2026-03-28T10:09:26Z</time></trkpt><trkpt lat="43.61659779069469" lon="11.157331723305836"><ele>316.2</ele><time>2026-03-28T10:09:27Z</time></trkpt><trkpt lat="43.616523345382404" lon="11.157477000529692"><ele>317.4</ele><time>2026-03-28T10:09:28Z</time></trkpt><trkpt lat="43.616481517808054" lon="11.157602854595405"><ele>318.6</ele><time>2026-03-28T10:09:29Z</time></trkpt><trkpt lat="43.616435973208944" lon="11.157729614854157"><ele>319.8</ele><time>2026-03-28T10:09:30Z</time></trkpt><trkpt lat="43.616394984087954" lon="11.157850662721001"><ele>321.0</ele><time>2026-03-28T10:09:31Z</time></trkpt><trkpt lat="43.61635332138443" lon="11.157965357575577"><ele>321.0</ele><time>2026-03-28T10:09:32Z</time></trkpt><trkpt lat="43.61632075674628" lon="11.158066958237523"><ele>321.0</ele><time>2026-03-28T10:09:33Z</time></trkpt><trkpt lat="43.61627922839018" lon="11.158167479333112"><ele>321.0</ele><time>2026-03-28T10:09:34Z</time></trkpt><trkpt lat="43.616219362584914" lon="11.158276314014378"><ele>321.0</ele><time>2026-03-28T10:09:35Z</time></trkpt><trkpt lat="43.61615452671946" lon="11.158405955516594"><ele>321.0</ele><time>2026-03-28T10:09:36Z</time></trkpt><trkpt lat="43.61607970058124" lon="11.15855069656741"><ele>321.25</ele><time>2026-03-28T10:09:37Z</time></trkpt><trkpt lat="43.6159949045249" lon="11.158701099516106"><ele>321.5</ele><time>2026-03-28T10:09:38Z</time></trkpt><trkpt lat="43.61590391184577" lon="11.158859163535634"><ele>321.75</ele><time>2026-03-28T10:09:39Z</time></trkpt><trkpt lat="43.61582241344392" lon="11.15900933967561"><ele>322.0</ele><time>2026-03-28T10:09:40Z</time></trkpt><trkpt lat="43.61574334260427" lon="11.159151430244828"><ele>320.25</ele><time>2026-03-28T10:09:41Z</time></trkpt><trkpt lat="43.615664511577016" lon="11.159297067886907"><ele>318.5</ele><time>2026-03-28T10:09:42Z</time></trkpt><trkpt lat="43.61559083597553" lon="11.159455315009762"><ele>316.75</ele><time>2026-03-28T10:09:43Z</time></trkpt><trkpt lat="43.6155067981949" lon="11.159615802074322"><ele>315.0</ele><time>2026-03-28T10:09:44Z</time></trkpt><trkpt lat="43.61541559917091" lon="11.159764510923441"><ele>314.25</ele><time>2026-03-28T10:09:45Z</time></trkpt><trkpt lat="43.615334170487905" lon="11.159910329579919"><ele>313.5</ele><time>2026-03-28T10:09:46Z</time></trkpt><trkpt lat="43.61525200385632" lon="11.160064940844107"><ele>312.75</ele><time>2026-03-28T10:09:47Z</time></trkpt><trkpt lat="43.61516434233982" lon="11.160231916786946"><ele>312.0</ele><time>2026-03-28T10:09:48Z</time></trkpt><trkpt lat="43.615071398105464" lon="11.160409136628497"><ele>312.0</ele><time>2026-03-28T10:09:49Z</time></trkpt><trkpt lat="43.61498049501186" lon="11.160573591842882"><ele>312.0</ele><time>2026-03-28T10:09:50Z</time></trkpt><trkpt lat="43.614894302948585" lon="11.160724348823186"><ele>312.0</ele><time>2026-03-28T10:09:51Z</time></trkpt><trkpt lat="43.614814848725004" lon="11.160859999555266"><ele>312.0</ele><time>2026-03-28T10:09:52Z</time></trkpt><trkpt lat="43.614739629361736" lon="11.160980527443018"><ele>312.5</ele><time>2026-03-28T10:09:53Z</time></trkpt><trkpt lat="43.61465596500265" lon="11.161082945160143"><ele>313.0</ele><time>2026-03-28T10:09:54Z</time></trkpt><trkpt lat="43.614543660189725" lon="11.161129296316243"><ele>313.5</ele><time>2026-03-28T10:09:55Z</time></trkpt><trkpt lat="43.614423070017445" lon="11.161184720212718"><ele>314.0</ele><time>2026-03-28T10:09:56Z</time></trkpt><trkpt lat="43.614281866480674" lon="11.161260773976867"><ele>314.0</ele><time>2026-03-28T10:09:57Z</time></trkpt><trkpt lat="43.61413829470229" lon="11.161361502233575"><ele>314.0</ele><time>2026-03-28T10:09:58Z</time></trkpt><trkpt lat="43.613996121886444" lon="11.161429333183854"><ele>314.0</ele><time>2026-03-28T10:09:59Z</time></trkpt><trkpt lat="43.613842108984294" lon="11.161506333758759"><ele>314.0</ele><time>2026-03-28T10:10:00Z</time></trkpt><trkpt lat="43.61365883326723" lon="11.161584760113739"><ele>314.0</ele><time>2026-03-28T10:10:01Z</time></trkpt><trkpt lat="43.61347784109795" lon="11.161664114210119"><ele>314.0</ele><time>2026-03-28T10:10:02Z</time></trkpt><trkpt lat="43.6133130833139" lon="11.161728857213005"><ele>314.0</ele><time>2026-03-28T10:10:03Z</time></trkpt><trkpt lat="43.61315314292942" lon="11.161796639461553"><ele>314.0</ele><time>2026-03-28T10:10:04Z</time></trkpt><trkpt lat="43.61299950565333" lon="11.16187956440856"><ele>314.0</ele><time>2026-03-28T10:10:05Z</time></trkpt><trkpt lat="43.61284914854869" lon="11.161987424532512"><ele>315.6666666666667</ele><time>2026-03-28T10:10:06Z</time></trkpt><trkpt lat="43.61269176295441" lon="11.162096443681996"><ele>317.3333333333333</ele><time>2026-03-28T10:10:07Z</time></trkpt><trkpt lat="43.612550038245" lon="11.162194839279003"><ele>319.0</ele><time>2026-03-28T10:10:08Z</time></trkpt><trkpt lat="43.61242314111013" lon="11.162279206328146"><ele>319.0</ele><time>2026-03-28T10:10:09Z</time></trkpt><trkpt lat="43.61228455063314" lon="11.162334634263171"><ele>319.0</ele><time>2026-03-28T10:10:10Z</time></trkpt><trkpt lat="43.6121444010138" lon="11.162386348225585"><ele>319.0</ele><time>2026-03-28T10:10:11Z</time></trkpt><trkpt lat="43.611986290269975" lon="11.162432711306154"><ele>320.3333333333333</ele><time>2026-03-28T10:10:12Z</time></trkpt><trkpt lat="43.61181527330878" lon="11.162482308338449"><ele>321.6666666666667</ele><time>2026-03-28T10:10:13Z</time></trkpt><trkpt lat="43.61166137844701" lon="11.162557398719285"><ele>323.0</ele><time>2026-03-28T10:10:14Z</time></trkpt><trkpt lat="43.61151751871685" lon="11.162616224369996"><ele>323.0</ele><time>2026-03-28T10:10:15Z</time></trkpt><trkpt lat="43.611379750583886" lon="11.162677952908899"><ele>323.0</ele><time>2026-03-28T10:10:16Z</time></trkpt><trkpt lat="43.61125676620417" lon="11.162741523786838"><ele>323.0</ele><time>2026-03-28T10:10:17Z</time></trkpt><trkpt lat="43.61114432994525" lon="11.162783553010708"><ele>323.0</ele><time>2026-03-28T10:10:18Z</time></trkpt><trkpt lat="43.61104627626806" lon="11.162842585375385"><ele>322.59999999999997</ele><time>2026-03-28T10:10:19Z</time></trkpt><trkpt lat="43.610943683943624" lon="11.162888655842806"><ele>322.2</ele><time>2026-03-28T10:10:20Z</time></trkpt><trkpt lat="43.61083876462344" lon="11.162936744223355"><ele>321.8</ele><time>2026-03-28T10:10:21Z</time></trkpt><trkpt lat="43.61073308236711" lon="11.162997228817394"><ele>321.4</ele><time>2026-03-28T10:10:22Z</time></trkpt><trkpt lat="43.61064382616255" lon="11.163045782559202"><ele>321.0</ele><time>2026-03-28T10:10:23Z</time></trkpt><trkpt lat="43.610551480198566" lon="11.163084000579062"><ele>321.0</ele><time>2026-03-28T10:10:24Z</time></trkpt><trkpt lat="43.61046350925695" lon="11.163136647590049"><ele>321.0</ele><time>2026-03-28T10:10:25Z</time></trkpt><trkpt lat="43.61037815794859" lon="11.163202043896085"><ele>321.0</ele><time>2026-03-28T10:10:26Z</time></trkpt><trkpt lat="43.610303179442234" lon="11.163274603517662"><ele>321.0</ele><time>2026-03-28T10:10:27Z</time></trkpt><trkpt lat="43.610231607634" lon="11.16335662998998"><ele>321.0</ele><time>2026-03-28T10:10:28Z</time></trkpt><trkpt lat="43.61016818162536" lon="11.163449438051892"><ele>320.6</ele><time>2026-03-28T10:10:29Z</time></trkpt><trkpt lat="43.61010778854222" lon="11.163545423873241"><ele>320.20000000000005</ele><time>2026-03-28T10:10:30Z</time></trkpt><trkpt lat="43.610045547207534" lon="11.163641984644263"><ele>319.79999999999995</ele><time>2026-03-28T10:10:31Z</time></trkpt><trkpt lat="43.609983655038825" lon="11.163739006097769"><ele>319.4</ele><time>2026-03-28T10:10:32Z</time></trkpt><trkpt lat="43.609925595005926" lon="11.163835427198906"><ele>319.0</ele><time>2026-03-28T10:10:33Z</time></trkpt><trkpt lat="43.609865560667366" lon="11.163937959525681"><ele>318.0</ele><time>2026-03-28T10:10:34Z</time></trkpt><trkpt lat="43.60979286871041" lon="11.164047932692721"><ele>317.0</ele><time>2026-03-28T10:10:35Z</time></trkpt><trkpt lat="43.609722869326056" lon="11.164183489732814"><ele>316.0</ele><time>2026-03-28T10:10:36Z</time></trkpt><trkpt lat="43.609628113603115" lon="11.16432419927702"><ele>315.0</ele><time>2026-03-28T10:10:37Z</time></trkpt><trkpt lat="43.60953179457827" lon="11.164500475996256"><ele>313.6666666666667</ele><time>2026-03-28T10:10:38Z</time></trkpt><trkpt lat="43.60942893916266" lon="11.164709997202074"><ele>312.33333333333337</ele><time>2026-03-28T10:10:39Z</time></trkpt><trkpt lat="43.60933278849811" lon="11.164954008842573"><ele>311.0</ele><time>2026-03-28T10:10:40Z</time></trkpt><trkpt lat="43.60925497818784" lon="11.165187748023309"><ele>311.0</ele><time>2026-03-28T10:10:41Z</time></trkpt><trkpt lat="43.609172914849694" lon="11.165397416475964"><ele>311.0</ele><time>2026-03-28T10:10:42Z</time></trkpt><trkpt lat="43.60907586356001" lon="11.165620771536103"><ele>311.0</ele><time>2026-03-28T10:10:43Z</time></trkpt><trkpt lat="43.60897158636492" lon="11.165829811222226"><ele>312.0</ele><time>2026-03-28T10:10:44Z</time></trkpt><trkpt lat="43.60885931048269" lon="11.165994723779495"><ele>313.0</ele><time>2026-03-28T10:10:45Z</time></trkpt><trkpt lat="43.6087764092514" lon="11.166175335227573"><ele>314.0</ele><time>2026-03-28T10:10:46Z</time></trkpt><trkpt lat="43.60868936588149" lon="11.16633003407263"><ele>314.6666666666667</ele><time>2026-03-28T10:10:47Z</time></trkpt><trkpt lat="43.60860708713776" lon="11.16649518132782"><ele>315.3333333333333</ele><time>2026-03-28T10:10:48Z</time></trkpt><trkpt lat="43.60852224137711" lon="11.166688281489435"><ele>316.0</ele><time>2026-03-28T10:10:49Z</time></trkpt><trkpt lat="43.60845035736951" lon="11.166921708678862"><ele>316.0</ele><time>2026-03-28T10:10:50Z</time></trkpt><trkpt lat="43.60837650272747" lon="11.16715442031452"><ele>316.0</ele><time>2026-03-28T10:10:51Z</time></trkpt><trkpt lat="43.608297539030886" lon="11.167376230962589"><ele>316.0</ele><time>2026-03-28T10:10:52Z</time></trkpt><trkpt lat="43.608214269712015" lon="11.167603111362334"><ele>314.3333333333333</ele><time>2026-03-28T10:10:53Z</time></trkpt><trkpt lat="43.60813009530449" lon="11.167810698392065"><ele>312.6666666666667</ele><time>2026-03-28T10:10:54Z</time></trkpt><trkpt lat="43.608042158060385" lon="11.168004728629445"><ele>311.0</ele><time>2026-03-28T10:10:55Z</time></trkpt><trkpt lat="43.607953067021086" lon="11.168200789107756"><ele>310.0</ele><time>2026-03-28T10:10:56Z</time></trkpt><trkpt lat="43.60786443064754" lon="11.168394185449994"><ele>309.0</ele><time>2026-03-28T10:10:57Z</time></trkpt><trkpt lat="43.6077838656363" lon="11.168578965287526"><ele>308.0</ele><time>2026-03-28T10:10:58Z</time></trkpt><trkpt lat="43.607716478040864" lon="11.168795284821332"><ele>310.0</ele><time>2026-03-28T10:10:59Z</time></trkpt><trkpt lat="43.60765725995151" lon="11.169022323043386"><ele>312.0</ele><time>2026-03-28T10:11:00Z</time></trkpt><trkpt lat="43.6075953320819" lon="11.16924493438507"><ele>314.0</ele><time>2026-03-28T10:11:01Z</time></trkpt><trkpt lat="43.60753353302414" lon="11.169444573551605"><ele>314.0</ele><time>2026-03-28T10:11:02Z</time></trkpt><trkpt lat="43.6074708848747" lon="11.169628495778923"><ele>314.0</ele><time>2026-03-28T10:11:03Z</time></trkpt><trkpt lat="43.60739491955069" lon="11.16980975441701"><ele>314.0</ele><time>2026-03-28T10:11:04Z</time></trkpt><trkpt lat="43.60730454629587" lon="11.169968313179856"><ele>314.0</ele><time>2026-03-28T10:11:05Z</time></trkpt><trkpt lat="43.607220902002155" lon="11.170135373908856"><ele>314.0</ele><time>2026-03-28T10:11:06Z</time></trkpt><trkpt lat="43.60712263134848" lon="11.170316901295148"><ele>314.0</ele><time>2026-03-28T10:11:07Z</time></trkpt><trkpt lat="43.60702336786925" lon="11.17049292037392"><ele>314.0</ele><time>2026-03-28T10:11:08Z</time></trkpt><trkpt lat="43.6069395301771" lon="11.170674510936044"><ele>314.0</ele><time>2026-03-28T10:11:09Z</time></trkpt><trkpt lat="43.606823687800635" lon="11.170813904711434"><ele>314.0</ele><time>2026-03-28T10:11:10Z</time></trkpt><trkpt lat="43.60670596693313" lon="11.170962501916003"><ele>314.0</ele><time>2026-03-28T10:11:11Z</time></trkpt><trkpt lat="43.60657815592713" lon="11.171126103464884"><ele>314.0</ele><time>2026-03-28T10:11:12Z</time></trkpt><trkpt lat="43.6064554222405" lon="11.171293964182015"><ele>314.0</ele><time>2026-03-28T10:11:13Z</time></trkpt><trkpt lat="43.60634644962195" lon="11.171458630319393"><ele>314.0</ele><time>2026-03-28T10:11:14Z</time></trkpt><trkpt lat="43.60625685203857" lon="11.171625810648184"><ele>313.8</ele><time>2026-03-28T10:11:15Z</time></trkpt><trkpt lat="43.60618447593017" lon="11.171798811378657"><ele>313.59999999999997</ele><time>2026-03-28T10:11:16Z</time></trkpt><trkpt lat="43.60610150934451" lon="11.171940693610264"><ele>313.4</ele><time>2026-03-28T10:11:17Z</time></trkpt><trkpt lat="43.60604675378059" lon="11.17205043490196"><ele>313.2</ele><time>2026-03-28T10:11:18Z</time></trkpt><trkpt lat="43.606011999939" lon="11.172128378140041"><ele>313.0</ele><time>2026-03-28T10:11:19Z</time></trkpt><trkpt lat="43.6059696240402" lon="11.17220289250419"><ele>313.0</ele><time>2026-03-28T10:11:21Z</time></trkpt><trkpt lat="43.60603777100201" lon="11.172306056925613"><ele>313.0</ele><time>2026-03-28T10:11:22Z</time></trkpt><trkpt lat="43.60607660228179" lon="11.172419482330394"><ele>313.0</ele><time>2026-03-28T10:11:23Z</time></trkpt><trkpt lat="43.606107394950634" lon="11.172556074777066"><ele>313.0</ele><time>2026-03-28T10:11:24Z</time></trkpt><trkpt lat="43.6061351851446" lon="11.172703268376619"><ele>313.0</ele><time>2026-03-28T10:11:25Z</time></trkpt><trkpt lat="43.60616513942528" lon="11.172863217067412"><ele>309.75</ele><time>2026-03-28T10:11:26Z</time></trkpt><trkpt lat="43.606192838032406" lon="11.17301347290365"><ele>306.5</ele><time>2026-03-28T10:11:27Z</time></trkpt><trkpt lat="43.60622180863516" lon="11.173168378635042"><ele>303.25</ele><time>2026-03-28T10:11:28Z</time></trkpt><trkpt lat="43.606257191065566" lon="11.173346320033156"><ele>300.0</ele><time>2026-03-28T10:11:29Z</time></trkpt><trkpt lat="43.606291852390505" lon="11.17353065779711"><ele>298.0</ele><time>2026-03-28T10:11:30Z</time></trkpt><trkpt lat="43.606324049902426" lon="11.173695076252155"><ele>296.0</ele><time>2026-03-28T10:11:31Z</time></trkpt><trkpt lat="43.6063512469349" lon="11.173851221867022"><ele>294.0</ele><time>2026-03-28T10:11:32Z</time></trkpt><trkpt lat="43.60637500945073" lon="11.174000063856315"><ele>292.0</ele><time>2026-03-28T10:11:33Z</time></trkpt><trkpt lat="43.606400607797944" lon="11.17414218401596"><ele>290.8333333333333</ele><time>2026-03-28T10:11:34Z</time></trkpt><trkpt lat="43.60642549571739" lon="11.174281935451313"><ele>289.66666666666663</ele><time>2026-03-28T10:11:35Z</time></trkpt><trkpt lat="43.60644561828995" lon="11.174410234417001"><ele>288.5</ele><time>2026-03-28T10:11:36Z</time></trkpt><trkpt lat="43.60645173811347" lon="11.174519790017444"><ele>287.3333333333333</ele><time>2026-03-28T10:11:37Z</time></trkpt><trkpt lat="43.60644462371577" lon="11.174629051954106"><ele>286.1666666666667</ele><time>2026-03-28T10:11:38Z</time></trkpt><trkpt lat="43.60641106089326" lon="11.174736473287592"><ele>285.0</ele><time>2026-03-28T10:11:39Z</time></trkpt><trkpt lat="43.606356848976034" lon="11.174825394335963"><ele>285.6666666666667</ele><time>2026-03-28T10:11:40Z</time></trkpt><trkpt lat="43.606261776847596" lon="11.174876142473636"><ele>286.3333333333333</ele><time>2026-03-28T10:11:41Z</time></trkpt><trkpt lat="43.60619420938717" lon="11.174952286093767"><ele>287.0</ele><time>2026-03-28T10:11:42Z</time></trkpt><trkpt lat="43.6061302862133" lon="11.175004473508166"><ele>287.66666666666663</ele><time>2026-03-28T10:11:43Z</time></trkpt><trkpt lat="43.60608314841911" lon="11.175092511969119"><ele>288.3333333333333</ele><time>2026-03-28T10:11:44Z</time></trkpt><trkpt lat="43.60605943085209" lon="11.175202846716108"><ele>289.0</ele><time>2026-03-28T10:11:45Z</time></trkpt><trkpt lat="43.60609025491614" lon="11.175313238137836"><ele>289.0</ele><time>2026-03-28T10:11:46Z</time></trkpt><trkpt lat="43.60614592244253" lon="11.175397082140293"><ele>289.0</ele><time>2026-03-28T10:11:47Z</time></trkpt><trkpt lat="43.606217831344814" lon="11.175489876263153"><ele>289.0</ele><time>2026-03-28T10:11:48Z</time></trkpt><trkpt lat="43.60629599308855" lon="11.175591294629108"><ele>289.0</ele><time>2026-03-28T10:11:49Z</time></trkpt><trkpt lat="43.60635429293407" lon="11.175695738224634"><ele>289.0</ele><time>2026-03-28T10:11:50Z</time></trkpt><trkpt lat="43.60640121950632" lon="11.175841632391256"><ele>286.0</ele><time>2026-03-28T10:11:51Z</time></trkpt><trkpt lat="43.606447260864215" lon="11.175980061424983"><ele>283.0</ele><time>2026-03-28T10:11:52Z</time></trkpt><trkpt lat="43.60648174203638" lon="11.176120114713356"><ele>280.0</ele><time>2026-03-28T10:11:53Z</time></trkpt><trkpt lat="43.606514544009976" lon="11.176247269733096"><ele>277.0</ele><time>2026-03-28T10:11:54Z</time></trkpt><trkpt lat="43.60655282718828" lon="11.176353952139975"><ele>274.0</ele><time>2026-03-28T10:11:55Z</time></trkpt><trkpt lat="43.606535265904746" lon="11.176490620024268"><ele>275.0</ele><time>2026-03-28T10:11:56Z</time></trkpt><trkpt lat="43.6065383265671" lon="11.176643814048028"><ele>276.0</ele><time>2026-03-28T10:11:57Z</time></trkpt><trkpt lat="43.606545046744955" lon="11.17681047801174"><ele>277.0</ele><time>2026-03-28T10:11:58Z</time></trkpt><trkpt lat="43.60657220491671" lon="11.177024581228661"><ele>278.0</ele><time>2026-03-28T10:11:59Z</time></trkpt><trkpt lat="43.60660502042061" lon="11.177233473354"><ele>276.75</ele><time>2026-03-28T10:12:00Z</time></trkpt><trkpt lat="43.606621978755875" lon="11.177415624938387"><ele>275.5</ele><time>2026-03-28T10:12:01Z</time></trkpt><trkpt lat="43.60662438150247" lon="11.177586634801754"><ele>274.25</ele><time>2026-03-28T10:12:02Z</time></trkpt><trkpt lat="43.60662541797207" lon="11.17774449718952"><ele>273.0</ele><time>2026-03-28T10:12:03Z</time></trkpt><trkpt lat="43.6066544309252" lon="11.177886353168548"><ele>273.0</ele><time>2026-03-28T10:12:04Z</time></trkpt><trkpt lat="43.606703022793475" lon="11.178032266007762"><ele>273.0</ele><time>2026-03-28T10:12:05Z</time></trkpt><trkpt lat="43.60675665285474" lon="11.178150857496796"><ele>273.0</ele><time>2026-03-28T10:12:06Z</time></trkpt><trkpt lat="43.60679989267254" lon="11.178247984904099"><ele>273.0</ele><time>2026-03-28T10:12:07Z</time></trkpt><trkpt lat="43.606827696230404" lon="11.178337284876145"><ele>273.0</ele><time>2026-03-28T10:12:08Z</time></trkpt><trkpt lat="43.60682687483311" lon="11.178441097609081"><ele>273.0</ele><time>2026-03-28T10:12:09Z</time></trkpt><trkpt lat="43.6068091356225" lon="11.178553806969065"><ele>272.0</ele><time>2026-03-28T10:12:10Z</time></trkpt><trkpt lat="43.60677713292054" lon="11.178681152804764"><ele>271.0</ele><time>2026-03-28T10:12:11Z</time></trkpt><trkpt lat="43.60675238155273" lon="11.178786124357217"><ele>270.0</ele><time>2026-03-28T10:12:12Z</time></trkpt><trkpt lat="43.60672969464062" lon="11.178944192871194"><ele>269.0</ele><time>2026-03-28T10:12:14Z</time></trkpt><trkpt lat="43.60680485926422" lon="11.179077330673545"><ele>268.0</ele><time>2026-03-28T10:12:16Z</time></trkpt><trkpt lat="43.60688630346812" lon="11.17912891570418"><ele>266.2</ele><time>2026-03-28T10:12:17Z</time></trkpt><trkpt lat="43.60698793560449" lon="11.179168250523741"><ele>264.4</ele><time>2026-03-28T10:12:18Z</time></trkpt><trkpt lat="43.607094453361334" lon="11.179200181751666"><ele>262.59999999999997</ele><time>2026-03-28T10:12:19Z</time></trkpt><trkpt lat="43.60719586332688" lon="11.17922756422294"><ele>260.8</ele><time>2026-03-28T10:12:20Z</time></trkpt><trkpt lat="43.60728298184422" lon="11.179285899191175"><ele>259.0</ele><time>2026-03-28T10:12:21Z</time></trkpt><trkpt lat="43.607361722101984" lon="11.179326124528806"><ele>259.0</ele><time>2026-03-28T10:12:22Z</time></trkpt><trkpt lat="43.60743572935717" lon="11.179345139892533"><ele>259.0</ele><time>2026-03-28T10:12:23Z</time></trkpt><trkpt lat="43.607495003783505" lon="11.179380949310938"><ele>259.0</ele><time>2026-03-28T10:12:24Z</time></trkpt><trkpt lat="43.607589985553844" lon="11.179468942686787"><ele>259.0</ele><time>2026-03-28T10:12:26Z</time></trkpt><trkpt lat="43.607641758483304" lon="11.179627306662777"><ele>259.0</ele><time>2026-03-28T10:12:28Z</time></trkpt><trkpt lat="43.60766349824199" lon="11.179734913361335"><ele>257.4</ele><time>2026-03-28T10:12:29Z</time></trkpt><trkpt lat="43.60768813512603" lon="11.179870284185153"><ele>255.79999999999998</ele><time>2026-03-28T10:12:30Z</time></trkpt><trkpt lat="43.6077189217209" lon="11.179988570410062"><ele>254.20000000000002</ele><time>2026-03-28T10:12:31Z</time></trkpt><trkpt lat="43.60775890574624" lon="11.180098878139441"><ele>252.60000000000002</ele><time>2026-03-28T10:12:32Z</time></trkpt><trkpt lat="43.607797004725526" lon="11.180202566405692"><ele>251.0</ele><time>2026-03-28T10:12:33Z</time></trkpt><trkpt lat="43.60785257822999" lon="11.180310335911642"><ele>251.0</ele><time>2026-03-28T10:12:34Z</time></trkpt><trkpt lat="43.60792894321342" lon="11.180431448421226"><ele>251.0</ele><time>2026-03-28T10:12:35Z</time></trkpt><trkpt lat="43.60800996824724" lon="11.180562330540825"><ele>251.0</ele><time>2026-03-28T10:12:36Z</time></trkpt><trkpt lat="43.60808577019474" lon="11.180696065668068"><ele>251.0</ele><time>2026-03-28T10:12:37Z</time></trkpt><trkpt lat="43.6081751622172" lon="11.18084559411949"><ele>251.0</ele><time>2026-03-28T10:12:38Z</time></trkpt><trkpt lat="43.60827352026658" lon="11.180999056746291"><ele>251.0</ele><time>2026-03-28T10:12:39Z</time></trkpt><trkpt lat="43.60836310261331" lon="11.181121921899477"><ele>251.0</ele><time>2026-03-28T10:12:40Z</time></trkpt><trkpt lat="43.6084578747469" lon="11.181240505131816"><ele>251.0</ele><time>2026-03-28T10:12:41Z</time></trkpt><trkpt lat="43.608531328440776" lon="11.181377273998647"><ele>251.0</ele><time>2026-03-28T10:12:42Z</time></trkpt><trkpt lat="43.60861478637462" lon="11.18149644245879"><ele>251.0</ele><time>2026-03-28T10:12:43Z</time></trkpt><trkpt lat="43.608701277828715" lon="11.181617586483181"><ele>251.0</ele><time>2026-03-28T10:12:44Z</time></trkpt><trkpt lat="43.60878701336144" lon="11.18172078686792"><ele>251.0</ele><time>2026-03-28T10:12:45Z</time></trkpt><trkpt lat="43.60886491132476" lon="11.181808892452406"><ele>247.50000000000003</ele><time>2026-03-28T10:12:46Z</time></trkpt><trkpt lat="43.608945039864004" lon="11.181872964603345"><ele>244.0</ele><time>2026-03-28T10:12:47Z</time></trkpt><trkpt lat="43.60901140616492" lon="11.18195734036603"><ele>240.5</ele><time>2026-03-28T10:12:48Z</time></trkpt><trkpt lat="43.609073097627586" lon="11.182045639462672"><ele>237.0</ele><time>2026-03-28T10:12:49Z</time></trkpt><trkpt lat="43.60913631838576" lon="11.182126616324947"><ele>233.50000000000003</ele><time>2026-03-28T10:12:50Z</time></trkpt><trkpt lat="43.609202259466734" lon="11.18220591101216"><ele>230.0</ele><time>2026-03-28T10:12:51Z</time></trkpt><trkpt lat="43.609264556338" lon="11.18228871250421"><ele>229.66666666666669</ele><time>2026-03-28T10:12:52Z</time></trkpt><trkpt lat="43.609331017772334" lon="11.182362378420288"><ele>229.33333333333334</ele><time>2026-03-28T10:12:53Z</time></trkpt><trkpt lat="43.609391525096605" lon="11.182437364245564"><ele>229.0</ele><time>2026-03-28T10:12:54Z</time></trkpt><trkpt lat="43.6094456445841" lon="11.182519270072536"><ele>228.66666666666669</ele><time>2026-03-28T10:12:55Z</time></trkpt><trkpt lat="43.60948977729926" lon="11.182609795038143"><ele>228.33333333333334</ele><time>2026-03-28T10:12:56Z</time></trkpt><trkpt lat="43.609517375489965" lon="11.182697290566018"><ele>228.0</ele><time>2026-03-28T10:12:57Z</time></trkpt><trkpt lat="43.60951161650759" lon="11.182789146154912"><ele>228.0</ele><time>2026-03-28T10:12:58Z</time></trkpt><trkpt lat="43.609497833013954" lon="11.18287585910907"><ele>228.0</ele><time>2026-03-28T10:12:59Z</time></trkpt><trkpt lat="43.60945722686854" lon="11.18296140656571"><ele>228.0</ele><time>2026-03-28T10:13:00Z</time></trkpt><trkpt lat="43.60939169252389" lon="11.183049067064099"><ele>228.0</ele><time>2026-03-28T10:13:01Z</time></trkpt><trkpt lat="43.609334253842896" lon="11.18313527337015"><ele>228.0</ele><time>2026-03-28T10:13:02Z</time></trkpt><trkpt lat="43.60927607688266" lon="11.183221859488285"><ele>228.0</ele><time>2026-03-28T10:13:03Z</time></trkpt><trkpt lat="43.6092182786797" lon="11.183305407523507"><ele>225.16666666666666</ele><time>2026-03-28T10:13:04Z</time></trkpt><trkpt lat="43.60916290221209" lon="11.183385609819736"><ele>222.33333333333331</ele><time>2026-03-28T10:13:05Z</time></trkpt><trkpt lat="43.609100699984786" lon="11.183454471303177"><ele>219.5</ele><time>2026-03-28T10:13:06Z</time></trkpt><trkpt lat="43.609030870286674" lon="11.183500246684718"><ele>216.66666666666666</ele><time>2026-03-28T10:13:07Z</time></trkpt><trkpt lat="43.608954804040266" lon="11.183523349535847"><ele>213.83333333333331</ele><time>2026-03-28T10:13:08Z</time></trkpt><trkpt lat="43.60888084572624" lon="11.183515078797818"><ele>211.0</ele><time>2026-03-28T10:13:09Z</time></trkpt><trkpt lat="43.608807024992586" lon="11.183486182983959"><ele>210.99999999999997</ele><time>2026-03-28T10:13:10Z</time></trkpt><trkpt lat="43.608740061552965" lon="11.183448187971416"><ele>211.0</ele><time>2026-03-28T10:13:11Z</time></trkpt><trkpt lat="43.608678881117115" lon="11.183404119820343"><ele>211.0</ele><time>2026-03-28T10:13:12Z</time></trkpt><trkpt lat="43.60863058191477" lon="11.18334377947633"><ele>211.0</ele><time>2026-03-28T10:13:13Z</time></trkpt><trkpt lat="43.60851990234165" lon="11.183298833722368"><ele>210.99999999999997</ele><time>2026-03-28T10:13:15Z</time></trkpt><trkpt lat="43.608430327742745" lon="11.183329505816106"><ele>211.0</ele><time>2026-03-28T10:13:17Z</time></trkpt><trkpt lat="43.608395139378274" lon="11.183445059159993"><ele>210.99999999999997</ele><time>2026-03-28T10:13:19Z</time></trkpt><trkpt lat="43.60845583761947" lon="11.183567304160395"><ele>211.0</ele><time>2026-03-28T10:13:21Z</time></trkpt><trkpt lat="43.60851993481782" lon="11.183597544689084"><ele>211.0</ele><time>2026-03-28T10:13:22Z</time></trkpt><trkpt lat="43.608609851869225" lon="11.183627804641054"><ele>211.0</ele><time>2026-03-28T10:13:23Z</time></trkpt><trkpt lat="43.60868235764443" lon="11.18368215478281"><ele>210.99999999999997</ele><time>2026-03-28T10:13:24Z</time></trkpt><trkpt lat="43.60873664331208" lon="11.183747230556488"><ele>211.0</ele><time>2026-03-28T10:13:25Z</time></trkpt><trkpt lat="43.60879462652942" lon="11.183812767784591"><ele>210.99999999999997</ele><time>2026-03-28T10:13:26Z</time></trkpt><trkpt lat="43.60886422094112" lon="11.183885058622923"><ele>211.0</ele><time>2026-03-28T10:13:27Z</time></trkpt><trkpt lat="43.608932468690014" lon="11.18395319810743"><ele>211.0</ele><time>2026-03-28T10:13:28Z</time></trkpt><trkpt lat="43.60899335057689" lon="11.18400232367687"><ele>211.0</ele><time>2026-03-28T10:13:29Z</time></trkpt><trkpt lat="43.6090618616991" lon="11.184032583519926"><ele>210.99999999999997</ele><time>2026-03-28T10:13:30Z</time></trkpt><trkpt lat="43.60913626603726" lon="11.18406350549294"><ele>211.0</ele><time>2026-03-28T10:13:31Z</time></trkpt><trkpt lat="43.60921779817366" lon="11.184076553387222"><ele>211.0</ele><time>2026-03-28T10:13:32Z</time></trkpt><trkpt lat="43.60929535769504" lon="11.184066732446825"><ele>211.0</ele><time>2026-03-28T10:13:33Z</time></trkpt><trkpt lat="43.60936455928901" lon="11.184034685553721"><ele>211.0</ele><time>2026-03-28T10:13:34Z</time></trkpt><trkpt lat="43.6094274052479" lon="11.184004866455522"><ele>211.0</ele><time>2026-03-28T10:13:35Z</time></trkpt><trkpt lat="43.60949300428283" lon="11.18398156085696"><ele>211.0</ele><time>2026-03-28T10:13:36Z</time></trkpt><trkpt lat="43.60956037537097" lon="11.183967189320672"><ele>211.0</ele><time>2026-03-28T10:13:37Z</time></trkpt><trkpt lat="43.60962772058145" lon="11.18399277714352"><ele>211.0</ele><time>2026-03-28T10:13:38Z</time></trkpt><trkpt lat="43.609680199016275" lon="11.184050146896976"><ele>205.99999999999997</ele><time>2026-03-28T10:13:39Z</time></trkpt><trkpt lat="43.60972328956406" lon="11.184133501191107"><ele>201.0</ele><time>2026-03-28T10:13:40Z</time></trkpt><trkpt lat="43.60976038128697" lon="11.184236516605846"><ele>196.0</ele><time>2026-03-28T10:13:41Z</time></trkpt><trkpt lat="43.60980121594062" lon="11.184336501034112"><ele>191.0</ele><time>2026-03-28T10:13:42Z</time></trkpt><trkpt lat="43.60984627476731" lon="11.184430099165162"><ele>186.0</ele><time>2026-03-28T10:13:43Z</time></trkpt><trkpt lat="43.609891369026435" lon="11.184507379706039"><ele>181.0</ele><time>2026-03-28T10:13:44Z</time></trkpt><trkpt lat="43.609947146114024" lon="11.184575893513045"><ele>181.0</ele><time>2026-03-28T10:13:45Z</time></trkpt><trkpt lat="43.61001706127231" lon="11.184635874208269"><ele>181.0</ele><time>2026-03-28T10:13:46Z</time></trkpt><trkpt lat="43.61010078769263" lon="11.184695424167016"><ele>181.0</ele><time>2026-03-28T10:13:47Z</time></trkpt><trkpt lat="43.61018239003795" lon="11.184752185688126"><ele>181.0</ele><time>2026-03-28T10:13:48Z</time></trkpt><trkpt lat="43.61025925781803" lon="11.184806650063823"><ele>181.0</ele><time>2026-03-28T10:13:49Z</time></trkpt><trkpt lat="43.61034834479516" lon="11.184860027164726"><ele>178.4</ele><time>2026-03-28T10:13:50Z</time></trkpt><trkpt lat="43.61044201480698" lon="11.184913766889947"><ele>175.8</ele><time>2026-03-28T10:13:51Z</time></trkpt><trkpt lat="43.61053439753597" lon="11.18496159116812"><ele>173.20000000000002</ele><time>2026-03-28T10:13:52Z</time></trkpt><trkpt lat="43.61062215851762" lon="11.185003764165067"><ele>170.60000000000002</ele><time>2026-03-28T10:13:53Z</time></trkpt><trkpt lat="43.61070462090248" lon="11.18504162471442"><ele>168.0</ele><time>2026-03-28T10:13:54Z</time></trkpt><trkpt lat="43.61078618360313" lon="11.185091479029406"><ele>168.0</ele><time>2026-03-28T10:13:55Z</time></trkpt><trkpt lat="43.61087744591713" lon="11.185175679991861"><ele>168.0</ele><time>2026-03-28T10:13:56Z</time></trkpt><trkpt lat="43.61095795238339" lon="11.18527249836975"><ele>168.0</ele><time>2026-03-28T10:13:57Z</time></trkpt><trkpt lat="43.61102498618251" lon="11.185362698831423"><ele>168.0</ele><time>2026-03-28T10:13:58Z</time></trkpt><trkpt lat="43.61108935937578" lon="11.185449057291624"><ele>168.0</ele><time>2026-03-28T10:13:59Z</time></trkpt><trkpt lat="43.61117360181024" lon="11.185523632252039"><ele>166.60000000000002</ele><time>2026-03-28T10:14:00Z</time></trkpt><trkpt lat="43.61127799079726" lon="11.185612713169798"><ele>165.20000000000002</ele><time>2026-03-28T10:14:01Z</time></trkpt><trkpt lat="43.61138351391885" lon="11.185656133456064"><ele>163.8</ele><time>2026-03-28T10:14:02Z</time></trkpt><trkpt lat="43.61147572434713" lon="11.185713784526696"><ele>162.4</ele><time>2026-03-28T10:14:03Z</time></trkpt><trkpt lat="43.61157318672524" lon="11.185768877436475"><ele>161.0</ele><time>2026-03-28T10:14:04Z</time></trkpt><trkpt lat="43.611676706085085" lon="11.185828866547851"><ele>159.60000000000002</ele><time>2026-03-28T10:14:05Z</time></trkpt><trkpt lat="43.6117713190441" lon="11.18588511139216"><ele>158.20000000000002</ele><time>2026-03-28T10:14:06Z</time></trkpt><trkpt lat="43.61187334560335" lon="11.185944962867511"><ele>156.8</ele><time>2026-03-28T10:14:07Z</time></trkpt><trkpt lat="43.6119794435579" lon="11.186002453685546"><ele>155.4</ele><time>2026-03-28T10:14:08Z</time></trkpt><trkpt lat="43.61209189605056" lon="11.186062058740776"><ele>154.0</ele><time>2026-03-28T10:14:09Z</time></trkpt><trkpt lat="43.612213175878" lon="11.186124120724044"><ele>153.25</ele><time>2026-03-28T10:14:10Z</time></trkpt><trkpt lat="43.6123358655115" lon="11.186195659194336"><ele>152.5</ele><time>2026-03-28T10:14:11Z</time></trkpt><trkpt lat="43.61244766032141" lon="11.186254686367327"><ele>151.75</ele><time>2026-03-28T10:14:12Z</time></trkpt><trkpt lat="43.61256667691017" lon="11.186296224317347"><ele>151.0</ele><time>2026-03-28T10:14:13Z</time></trkpt><trkpt lat="43.61268516759703" lon="11.186330868418901"><ele>151.0</ele><time>2026-03-28T10:14:14Z</time></trkpt><trkpt lat="43.61279613256402" lon="11.186352280376274"><ele>151.0</ele><time>2026-03-28T10:14:15Z</time></trkpt><trkpt lat="43.61290236075914" lon="11.186359391738575"><ele>151.0</ele><time>2026-03-28T10:14:16Z</time></trkpt><trkpt lat="43.613006557482244" lon="11.186347813258905"><ele>151.0</ele><time>2026-03-28T10:14:17Z</time></trkpt><trkpt lat="43.61311941913338" lon="11.186311142964994"><ele>151.0</ele><time>2026-03-28T10:14:18Z</time></trkpt><trkpt lat="43.61325086533438" lon="11.186254839551559"><ele>150.75</ele><time>2026-03-28T10:14:19Z</time></trkpt><trkpt lat="43.613382267347546" lon="11.186200915708364"><ele>150.5</ele><time>2026-03-28T10:14:20Z</time></trkpt><trkpt lat="43.6134996415022" lon="11.18615238081071"><ele>150.25</ele><time>2026-03-28T10:14:21Z</time></trkpt><trkpt lat="43.61361111282887" lon="11.186106211767738"><ele>150.0</ele><time>2026-03-28T10:14:22Z</time></trkpt><trkpt lat="43.61371458210453" lon="11.186064843711398"><ele>148.6</ele><time>2026-03-28T10:14:23Z</time></trkpt><trkpt lat="43.61381365458174" lon="11.186018929623266"><ele>147.2</ele><time>2026-03-28T10:14:24Z</time></trkpt><trkpt lat="43.613907569733676" lon="11.18597009576267"><ele>145.8</ele><time>2026-03-28T10:14:25Z</time></trkpt><trkpt lat="43.61398604738902" lon="11.185929326683743"><ele>144.4</ele><time>2026-03-28T10:14:26Z</time></trkpt><trkpt lat="43.614050696495774" lon="11.18590121310691"><ele>143.0</ele><time>2026-03-28T10:14:27Z</time></trkpt><trkpt lat="43.61415349683912" lon="11.185883105986738"><ele>143.0</ele><time>2026-03-28T10:14:29Z</time></trkpt><trkpt lat="43.61424902052569" lon="11.185921362791825"><ele>143.0</ele><time>2026-03-28T10:14:31Z</time></trkpt><trkpt lat="43.61435921868523" lon="11.185983455797913"><ele>143.0</ele><time>2026-03-28T10:14:33Z</time></trkpt><trkpt lat="43.61442015953307" lon="11.186017830599646"><ele>143.0</ele><time>2026-03-28T10:14:34Z</time></trkpt><trkpt lat="43.61448226125547" lon="11.186051926363337"><ele>143.0</ele><time>2026-03-28T10:14:35Z</time></trkpt><trkpt lat="43.614548244050745" lon="11.186085078970372"><ele>143.0</ele><time>2026-03-28T10:14:36Z</time></trkpt><trkpt lat="43.614615753430066" lon="11.186123375730554"><ele>141.8</ele><time>2026-03-28T10:14:37Z</time></trkpt><trkpt lat="43.61468368904795" lon="11.186160077799526"><ele>140.60000000000002</ele><time>2026-03-28T10:14:38Z</time></trkpt><trkpt lat="43.61475476678914" lon="11.186200659435952"><ele>139.39999999999998</ele><time>2026-03-28T10:14:39Z</time></trkpt><trkpt lat="43.614837579887" lon="11.186251165571798"><ele>138.2</ele><time>2026-03-28T10:14:40Z</time></trkpt><trkpt lat="43.61493378208459" lon="11.186315179205634"><ele>137.0</ele><time>2026-03-28T10:14:41Z</time></trkpt><trkpt lat="43.615025466991675" lon="11.186383231170682"><ele>137.0</ele><time>2026-03-28T10:14:42Z</time></trkpt><trkpt lat="43.61510746867205" lon="11.18645522790494"><ele>137.0</ele><time>2026-03-28T10:14:43Z</time></trkpt><trkpt lat="43.615183897529995" lon="11.186538473901855"><ele>137.0</ele><time>2026-03-28T10:14:44Z</time></trkpt><trkpt lat="43.61525590175927" lon="11.186633540310966"><ele>137.0</ele><time>2026-03-28T10:14:45Z</time></trkpt><trkpt lat="43.61531355582906" lon="11.186743600274045"><ele>137.0</ele><time>2026-03-28T10:14:46Z</time></trkpt><trkpt lat="43.615357898921765" lon="11.186859755888076"><ele>137.16666666666666</ele><time>2026-03-28T10:14:47Z</time></trkpt><trkpt lat="43.61539396614584" lon="11.186978050189726"><ele>137.33333333333331</ele><time>2026-03-28T10:14:48Z</time></trkpt><trkpt lat="43.615421288182844" lon="11.187089876362355"><ele>137.5</ele><time>2026-03-28T10:14:49Z</time></trkpt><trkpt lat="43.61544658877928" lon="11.187188710907977"><ele>137.66666666666666</ele><time>2026-03-28T10:14:50Z</time></trkpt><trkpt lat="43.615472239569705" lon="11.187288623263392"><ele>137.83333333333334</ele><time>2026-03-28T10:14:51Z</time></trkpt><trkpt lat="43.61549672154641" lon="11.187402161453903"><ele>138.0</ele><time>2026-03-28T10:14:52Z</time></trkpt><trkpt lat="43.61550309707631" lon="11.187523341446006"><ele>138.6</ele><time>2026-03-28T10:14:53Z</time></trkpt><trkpt lat="43.61549690979901" lon="11.187663665167094"><ele>139.20000000000002</ele><time>2026-03-28T10:14:54Z</time></trkpt><trkpt lat="43.61549128638534" lon="11.187813205602666"><ele>139.8</ele><time>2026-03-28T10:14:55Z</time></trkpt><trkpt lat="43.61549554227849" lon="11.187937010756388"><ele>140.4</ele><time>2026-03-28T10:14:56Z</time></trkpt><trkpt lat="43.61551618241401" lon="11.18805521457217"><ele>141.0</ele><time>2026-03-28T10:14:57Z</time></trkpt><trkpt lat="43.61555094346301" lon="11.188157878116803"><ele>141.16666666666666</ele><time>2026-03-28T10:14:58Z</time></trkpt><trkpt lat="43.6155875130812" lon="11.18824073171277"><ele>141.33333333333334</ele><time>2026-03-28T10:14:59Z</time></trkpt><trkpt lat="43.61562105006055" lon="11.188317276072768"><ele>141.5</ele><time>2026-03-28T10:15:00Z</time></trkpt><trkpt lat="43.61567728996836" lon="11.18846017787817"><ele>141.66666666666669</ele><time>2026-03-28T10:15:02Z</time></trkpt><trkpt lat="43.6156749580742" lon="11.18855264853811"><ele>141.83333333333334</ele><time>2026-03-28T10:15:03Z</time></trkpt><trkpt lat="43.61564675195369" lon="11.18864645153123"><ele>142.0</ele><time>2026-03-28T10:15:04Z</time></trkpt><trkpt lat="43.61559113525748" lon="11.188710075256193"><ele>142.0</ele><time>2026-03-28T10:15:05Z</time></trkpt><trkpt lat="43.615523776955946" lon="11.18875085880618"><ele>142.0</ele><time>2026-03-28T10:15:06Z</time></trkpt><trkpt lat="43.61543702143829" lon="11.188792833811334"><ele>142.0</ele><time>2026-03-28T10:15:07Z</time></trkpt><trkpt lat="43.61532491985149" lon="11.18885579815239"><ele>142.0</ele><time>2026-03-28T10:15:08Z</time></trkpt><trkpt lat="43.615176784362376" lon="11.188916332301643"><ele>142.0</ele><time>2026-03-28T10:15:09Z</time></trkpt><trkpt lat="43.615009970099315" lon="11.18900580080858"><ele>141.66666666666669</ele><time>2026-03-28T10:15:10Z</time></trkpt><trkpt lat="43.61483758867948" lon="11.189092575133015"><ele>141.33333333333334</ele><time>2026-03-28T10:15:11Z</time></trkpt><trkpt lat="43.614689268099156" lon="11.189182684407347"><ele>141.0</ele><time>2026-03-28T10:15:12Z</time></trkpt><trkpt lat="43.61454756323641" lon="11.189237497479336"><ele>141.0</ele><time>2026-03-28T10:15:13Z</time></trkpt><trkpt lat="43.61443389865136" lon="11.18929063771792"><ele>141.0</ele><time>2026-03-28T10:15:14Z</time></trkpt><trkpt lat="43.614342424875844" lon="11.189333711181893"><ele>141.0</ele><time>2026-03-28T10:15:15Z</time></trkpt><trkpt lat="43.61426102625195" lon="11.189372434707211"><ele>141.0</ele><time>2026-03-28T10:15:16Z</time></trkpt><trkpt lat="43.61420191124883" lon="11.189420231350123"><ele>141.0</ele><time>2026-03-28T10:15:17Z</time></trkpt><trkpt lat="43.6141668076052" lon="11.189495400875359"><ele>141.0</ele><time>2026-03-28T10:15:18Z</time></trkpt><trkpt lat="43.614166765926115" lon="11.189591053950581"><ele>141.0</ele><time>2026-03-28T10:15:19Z</time></trkpt><trkpt lat="43.614196619205764" lon="11.18969785927735"><ele>141.0</ele><time>2026-03-28T10:15:20Z</time></trkpt><trkpt lat="43.61424192483797" lon="11.1898172055358"><ele>141.0</ele><time>2026-03-28T10:15:21Z</time></trkpt><trkpt lat="43.6142630446109" lon="11.189936882918776"><ele>141.0</ele><time>2026-03-28T10:15:22Z</time></trkpt><trkpt lat="43.61426570163158" lon="11.1900576072885"><ele>141.0</ele><time>2026-03-28T10:15:23Z</time></trkpt><trkpt lat="43.61426322204432" lon="11.190209849402196"><ele>141.6</ele><time>2026-03-28T10:15:24Z</time></trkpt><trkpt lat="43.6142493993499" lon="11.19036174080601"><ele>142.2</ele><time>2026-03-28T10:15:25Z</time></trkpt><trkpt lat="43.61424257705999" lon="11.190488316783824"><ele>142.8</ele><time>2026-03-28T10:15:26Z</time></trkpt><trkpt lat="43.614241813769944" lon="11.190586750580426"><ele>143.4</ele><time>2026-03-28T10:15:27Z</time></trkpt><trkpt lat="43.61423773976547" lon="11.190719698441118"><ele>144.0</ele><time>2026-03-28T10:15:29Z</time></trkpt><trkpt lat="43.614159240799694" lon="11.190856692222797"><ele>144.5</ele><time>2026-03-28T10:15:32Z</time></trkpt><trkpt lat="43.61406139758972" lon="11.190907786459825"><ele>145.0</ele><time>2026-03-28T10:15:33Z</time></trkpt><trkpt lat="43.613927616716005" lon="11.190968308631556"><ele>145.5</ele><time>2026-03-28T10:15:34Z</time></trkpt><trkpt lat="43.613759928239084" lon="11.191043068464062"><ele>146.0</ele><time>2026-03-28T10:15:35Z</time></trkpt><trkpt lat="43.613563936312694" lon="11.19111556583472"><ele>146.0</ele><time>2026-03-28T10:15:36Z</time></trkpt><trkpt lat="43.61334938032668" lon="11.191163684758882"><ele>146.0</ele><time>2026-03-28T10:15:37Z</time></trkpt><trkpt lat="43.613151059415145" lon="11.191198682486148"><ele>146.0</ele><time>2026-03-28T10:15:38Z</time></trkpt><trkpt lat="43.61297265264415" lon="11.191218143016183"><ele>145.66666666666666</ele><time>2026-03-28T10:15:39Z</time></trkpt><trkpt lat="43.61280013185595" lon="11.191251023204408"><ele>145.33333333333334</ele><time>2026-03-28T10:15:40Z</time></trkpt><trkpt lat="43.612624448238705" lon="11.191286607796794"><ele>145.0</ele><time>2026-03-28T10:15:41Z</time></trkpt><trkpt lat="43.612449296956605" lon="11.191370868790969"><ele>145.0</ele><time>2026-03-28T10:15:42Z</time></trkpt><trkpt lat="43.612273552018046" lon="11.191449905960976"><ele>145.0</ele><time>2026-03-28T10:15:43Z</time></trkpt><trkpt lat="43.61209164202261" lon="11.191561747401833"><ele>145.0</ele><time>2026-03-28T10:15:44Z</time></trkpt><trkpt lat="43.61190068367912" lon="11.19170562425557"><ele>145.0</ele><time>2026-03-28T10:15:45Z</time></trkpt><trkpt lat="43.611700248295705" lon="11.191870460643885"><ele>145.0</ele><time>2026-03-28T10:15:46Z</time></trkpt><trkpt lat="43.61150550475316" lon="11.192011599197823"><ele>145.0</ele><time>2026-03-28T10:15:47Z</time></trkpt><trkpt lat="43.61134167657528" lon="11.192177373719488"><ele>145.0</ele><time>2026-03-28T10:15:48Z</time></trkpt><trkpt lat="43.61117837229918" lon="11.19230807408018"><ele>145.0</ele><time>2026-03-28T10:15:49Z</time></trkpt><trkpt lat="43.611014146811144" lon="11.192431157134804"><ele>146.0</ele><time>2026-03-28T10:15:50Z</time></trkpt><trkpt lat="43.61084843094939" lon="11.192546105438483"><ele>147.0</ele><time>2026-03-28T10:15:51Z</time></trkpt><trkpt lat="43.61068003603511" lon="11.19264367429147"><ele>148.0</ele><time>2026-03-28T10:15:52Z</time></trkpt><trkpt lat="43.61050262970116" lon="11.192689984093638"><ele>148.0</ele><time>2026-03-28T10:15:53Z</time></trkpt><trkpt lat="43.61033052501522" lon="11.192687850335133"><ele>148.0</ele><time>2026-03-28T10:15:54Z</time></trkpt><trkpt lat="43.61017715555246" lon="11.192728658114367"><ele>148.0</ele><time>2026-03-28T10:15:55Z</time></trkpt><trkpt lat="43.61001021661642" lon="11.19278438961718"><ele>147.33333333333334</ele><time>2026-03-28T10:15:56Z</time></trkpt><trkpt lat="43.609858451476974" lon="11.19290344931003"><ele>146.66666666666666</ele><time>2026-03-28T10:15:57Z</time></trkpt><trkpt lat="43.609725300584806" lon="11.19312034742992"><ele>146.0</ele><time>2026-03-28T10:15:58Z</time></trkpt><trkpt lat="43.60956506591563" lon="11.193268591978052"><ele>147.33333333333331</ele><time>2026-03-28T10:15:59Z</time></trkpt><trkpt lat="43.60940649517478" lon="11.193427981115137"><ele>148.66666666666666</ele><time>2026-03-28T10:16:00Z</time></trkpt><trkpt lat="43.609248514447486" lon="11.19358452028968"><ele>150.0</ele><time>2026-03-28T10:16:01Z</time></trkpt><trkpt lat="43.60909173065611" lon="11.19373076892513"><ele>150.0</ele><time>2026-03-28T10:16:02Z</time></trkpt><trkpt lat="43.60892475976213" lon="11.193866080450963"><ele>150.0</ele><time>2026-03-28T10:16:03Z</time></trkpt><trkpt lat="43.6087548830064" lon="11.193955428339967"><ele>150.0</ele><time>2026-03-28T10:16:04Z</time></trkpt><trkpt lat="43.608583303059106" lon="11.194037110804235"><ele>152.33333333333334</ele><time>2026-03-28T10:16:05Z</time></trkpt><trkpt lat="43.60841519620346" lon="11.194130188648678"><ele>154.66666666666669</ele><time>2026-03-28T10:16:06Z</time></trkpt><trkpt lat="43.60823493884302" lon="11.194200586497422"><ele>157.0</ele><time>2026-03-28T10:16:07Z</time></trkpt><trkpt lat="43.60803168068964" lon="11.194245701578273"><ele>156.33333333333334</ele><time>2026-03-28T10:16:08Z</time></trkpt><trkpt lat="43.60782051218872" lon="11.194270103460239"><ele>155.66666666666666</ele><time>2026-03-28T10:16:09Z</time></trkpt><trkpt lat="43.607624700714005" lon="11.19426648306479"><ele>155.0</ele><time>2026-03-28T10:16:10Z</time></trkpt><trkpt lat="43.60744100362468" lon="11.19424949012815"><ele>155.0</ele><time>2026-03-28T10:16:11Z</time></trkpt><trkpt lat="43.607258646767264" lon="11.194234679676288"><ele>155.0</ele><time>2026-03-28T10:16:12Z</time></trkpt><trkpt lat="43.607084844007055" lon="11.194211338592387"><ele>155.0</ele><time>2026-03-28T10:16:13Z</time></trkpt><trkpt lat="43.606913911486" lon="11.19418455716492"><ele>154.66666666666666</ele><time>2026-03-28T10:16:14Z</time></trkpt><trkpt lat="43.60675090113933" lon="11.194155887516908"><ele>154.33333333333334</ele><time>2026-03-28T10:16:15Z</time></trkpt><trkpt lat="43.606593805272006" lon="11.194133946218413"><ele>154.0</ele><time>2026-03-28T10:16:16Z</time></trkpt><trkpt lat="43.606446765007504" lon="11.194105071105804"><ele>154.0</ele><time>2026-03-28T10:16:17Z</time></trkpt><trkpt lat="43.60628608765688" lon="11.194150549796428"><ele>154.0</ele><time>2026-03-28T10:16:18Z</time></trkpt><trkpt lat="43.60611070654484" lon="11.194237873271572"><ele>154.0</ele><time>2026-03-28T10:16:19Z</time></trkpt><trkpt lat="43.60591325503348" lon="11.194340910872327"><ele>152.33333333333334</ele><time>2026-03-28T10:16:20Z</time></trkpt><trkpt lat="43.60570317016084" lon="11.19445054100984"><ele>150.66666666666666</ele><time>2026-03-28T10:16:21Z</time></trkpt><trkpt lat="43.60551788498214" lon="11.194568079966267"><ele>149.0</ele><time>2026-03-28T10:16:22Z</time></trkpt><trkpt lat="43.60532294945293" lon="11.19466198606276"><ele>148.33333333333331</ele><time>2026-03-28T10:16:23Z</time></trkpt><trkpt lat="43.60513600808177" lon="11.194759880553699"><ele>147.66666666666666</ele><time>2026-03-28T10:16:24Z</time></trkpt><trkpt lat="43.60493912767841" lon="11.194858878391264"><ele>147.0</ele><time>2026-03-28T10:16:25Z</time></trkpt><trkpt lat="43.604719591015964" lon="11.19492542773417"><ele>148.5</ele><time>2026-03-28T10:16:26Z</time></trkpt><trkpt lat="43.60447048342972" lon="11.195008409062964"><ele>150.0</ele><time>2026-03-28T10:16:27Z</time></trkpt><trkpt lat="43.604235869906674" lon="11.19510759160665"><ele>150.0</ele><time>2026-03-28T10:16:28Z</time></trkpt><trkpt lat="43.60402068024222" lon="11.195167469148794"><ele>150.0</ele><time>2026-03-28T10:16:29Z</time></trkpt><trkpt lat="43.60381712810048" lon="11.195237409801868"><ele>150.0</ele><time>2026-03-28T10:16:30Z</time></trkpt><trkpt lat="43.60360606210902" lon="11.195327768069413"><ele>149.5</ele><time>2026-03-28T10:16:31Z</time></trkpt><trkpt lat="43.603388756306394" lon="11.19543429756296"><ele>149.0</ele><time>2026-03-28T10:16:32Z</time></trkpt><trkpt lat="43.603155896299086" lon="11.195566533862364"><ele>151.0</ele><time>2026-03-28T10:16:33Z</time></trkpt><trkpt lat="43.602925757006254" lon="11.195716252269165"><ele>153.0</ele><time>2026-03-28T10:16:34Z</time></trkpt><trkpt lat="43.602725697389104" lon="11.19585859828997"><ele>153.33333333333334</ele><time>2026-03-28T10:16:35Z</time></trkpt><trkpt lat="43.60254594402155" lon="11.195991309898696"><ele>153.66666666666669</ele><time>2026-03-28T10:16:36Z</time></trkpt><trkpt lat="43.602364990357756" lon="11.19612732663092"><ele>154.0</ele><time>2026-03-28T10:16:37Z</time></trkpt><trkpt lat="43.60217918491946" lon="11.1962489049033"><ele>153.33333333333334</ele><time>2026-03-28T10:16:38Z</time></trkpt><trkpt lat="43.60199525499492" lon="11.196365010364184"><ele>152.66666666666666</ele><time>2026-03-28T10:16:39Z</time></trkpt><trkpt lat="43.60183150812977" lon="11.196493331558498"><ele>152.0</ele><time>2026-03-28T10:16:40Z</time></trkpt><trkpt lat="43.60168051391792" lon="11.196644711329014"><ele>154.0</ele><time>2026-03-28T10:16:41Z</time></trkpt><trkpt lat="43.60152997222765" lon="11.196828344569486"><ele>156.0</ele><time>2026-03-28T10:16:42Z</time></trkpt><trkpt lat="43.601375580344815" lon="11.197016414979503"><ele>158.0</ele><time>2026-03-28T10:16:43Z</time></trkpt><trkpt lat="43.60120509155785" lon="11.197154188808266"><ele>158.33333333333331</ele><time>2026-03-28T10:16:44Z</time></trkpt><trkpt lat="43.60102875316193" lon="11.197261760402865"><ele>158.66666666666666</ele><time>2026-03-28T10:16:45Z</time></trkpt><trkpt lat="43.60085222236643" lon="11.197357317378385"><ele>159.0</ele><time>2026-03-28T10:16:46Z</time></trkpt><trkpt lat="43.600657846940805" lon="11.197469205891167"><ele>159.0</ele><time>2026-03-28T10:16:47Z</time></trkpt><trkpt lat="43.60046364790678" lon="11.19756328913581"><ele>159.0</ele><time>2026-03-28T10:16:48Z</time></trkpt><trkpt lat="43.600295934394715" lon="11.19764682497498"><ele>159.0</ele><time>2026-03-28T10:16:49Z</time></trkpt><trkpt lat="43.60014048485026" lon="11.197743869573356"><ele>159.0</ele><time>2026-03-28T10:16:50Z</time></trkpt><trkpt lat="43.599997039747045" lon="11.197890468399178"><ele>159.0</ele><time>2026-03-28T10:16:51Z</time></trkpt><trkpt lat="43.599853555049066" lon="11.198079563913284"><ele>159.0</ele><time>2026-03-28T10:16:52Z</time></trkpt><trkpt lat="43.59968737805646" lon="11.198241056117645"><ele>159.0</ele><time>2026-03-28T10:16:53Z</time></trkpt><trkpt lat="43.59949097082285" lon="11.19839658796947"><ele>159.0</ele><time>2026-03-28T10:16:54Z</time></trkpt><trkpt lat="43.59926769422272" lon="11.198586562040946"><ele>159.0</ele><time>2026-03-28T10:16:55Z</time></trkpt><trkpt lat="43.599062846169424" lon="11.19878728432132"><ele>159.0</ele><time>2026-03-28T10:16:56Z</time></trkpt><trkpt lat="43.59885614408" lon="11.19890846590003"><ele>159.66666666666666</ele><time>2026-03-28T10:16:57Z</time></trkpt><trkpt lat="43.59867241733835" lon="11.199018983658863"><ele>160.33333333333331</ele><time>2026-03-28T10:16:58Z</time></trkpt><trkpt lat="43.59851413987412" lon="11.199127303824238"><ele>161.0</ele><time>2026-03-28T10:16:59Z</time></trkpt><trkpt lat="43.598376018101696" lon="11.199225446560499"><ele>161.0</ele><time>2026-03-28T10:17:00Z</time></trkpt><trkpt lat="43.59825638265016" lon="11.199385723579518"><ele>161.0</ele><time>2026-03-28T10:17:01Z</time></trkpt><trkpt lat="43.598122660616326" lon="11.199613904963016"><ele>161.0</ele><time>2026-03-28T10:17:02Z</time></trkpt><trkpt lat="43.597963402287" lon="11.199863668368176"><ele>160.5</ele><time>2026-03-28T10:17:03Z</time></trkpt><trkpt lat="43.597790980962394" lon="11.200125371245305"><ele>160.0</ele><time>2026-03-28T10:17:04Z</time></trkpt><trkpt lat="43.59764965818559" lon="11.200362299005791"><ele>160.0</ele><time>2026-03-28T10:17:05Z</time></trkpt><trkpt lat="43.597526408801215" lon="11.200585024543116"><ele>160.0</ele><time>2026-03-28T10:17:06Z</time></trkpt><trkpt lat="43.59741812187658" lon="11.20080561991043"><ele>160.0</ele><time>2026-03-28T10:17:07Z</time></trkpt><trkpt lat="43.59731338778854" lon="11.201008437025644"><ele>160.66666666666669</ele><time>2026-03-28T10:17:08Z</time></trkpt><trkpt lat="43.597207178794456" lon="11.20118946527303"><ele>161.33333333333334</ele><time>2026-03-28T10:17:09Z</time></trkpt><trkpt lat="43.59709713284995" lon="11.201373868319633"><ele>162.0</ele><time>2026-03-28T10:17:10Z</time></trkpt><trkpt lat="43.5969774411392" lon="11.201556947069726"><ele>162.0</ele><time>2026-03-28T10:17:11Z</time></trkpt><trkpt lat="43.59686113738832" lon="11.201718849420164"><ele>162.0</ele><time>2026-03-28T10:17:12Z</time></trkpt><trkpt lat="43.59674506149644" lon="11.201872518816156"><ele>162.0</ele><time>2026-03-28T10:17:13Z</time></trkpt><trkpt lat="43.59664869451233" lon="11.20203573117568"><ele>162.0</ele><time>2026-03-28T10:17:14Z</time></trkpt><trkpt lat="43.59655671034833" lon="11.202188124078871"><ele>162.0</ele><time>2026-03-28T10:17:15Z</time></trkpt><trkpt lat="43.59644075018994" lon="11.202307582193907"><ele>162.0</ele><time>2026-03-28T10:17:16Z</time></trkpt><trkpt lat="43.59629453261631" lon="11.202386776827595"><ele>162.0</ele><time>2026-03-28T10:17:17Z</time></trkpt><trkpt lat="43.59612430400687" lon="11.202433897052327"><ele>163.33333333333334</ele><time>2026-03-28T10:17:18Z</time></trkpt><trkpt lat="43.59595065920087" lon="11.202452051388137"><ele>164.66666666666669</ele><time>2026-03-28T10:17:19Z</time></trkpt><trkpt lat="43.595796533401405" lon="11.202464961649088"><ele>166.0</ele><time>2026-03-28T10:17:20Z</time></trkpt><trkpt lat="43.595648013691175" lon="11.202474352454908"><ele>166.0</ele><time>2026-03-28T10:17:21Z</time></trkpt><trkpt lat="43.59549889550359" lon="11.20245085784477"><ele>166.0</ele><time>2026-03-28T10:17:22Z</time></trkpt><trkpt lat="43.59534249128948" lon="11.20238607388895"><ele>166.0</ele><time>2026-03-28T10:17:23Z</time></trkpt><trkpt lat="43.59519268723183" lon="11.202307893599508"><ele>164.0</ele><time>2026-03-28T10:17:24Z</time></trkpt><trkpt lat="43.595049368785766" lon="11.202233923835395"><ele>162.0</ele><time>2026-03-28T10:17:25Z</time></trkpt><trkpt lat="43.594913437747934" lon="11.202170336099794"><ele>160.0</ele><time>2026-03-28T10:17:26Z</time></trkpt><trkpt lat="43.59477990075235" lon="11.20211534093097"><ele>158.0</ele><time>2026-03-28T10:17:27Z</time></trkpt><trkpt lat="43.59465707263227" lon="11.202065966450187"><ele>158.0</ele><time>2026-03-28T10:17:28Z</time></trkpt><trkpt lat="43.59454442423521" lon="11.2020173310902"><ele>158.0</ele><time>2026-03-28T10:17:29Z</time></trkpt><trkpt lat="43.59444256230829" lon="11.201973109452869"><ele>158.0</ele><time>2026-03-28T10:17:30Z</time></trkpt><trkpt lat="43.594352044824404" lon="11.201927740659233"><ele>158.0</ele><time>2026-03-28T10:17:31Z</time></trkpt><trkpt lat="43.594275523293824" lon="11.201883078684787"><ele>158.0</ele><time>2026-03-28T10:17:32Z</time></trkpt><trkpt lat="43.594211110266095" lon="11.201840317403844"><ele>158.66666666666666</ele><time>2026-03-28T10:17:33Z</time></trkpt><trkpt lat="43.5941496545545" lon="11.201810722372343"><ele>159.33333333333331</ele><time>2026-03-28T10:17:34Z</time></trkpt><trkpt lat="43.5940868468926" lon="11.20181955546904"><ele>160.0</ele><time>2026-03-28T10:17:35Z</time></trkpt><trkpt lat="43.594020855431936" lon="11.201883709186452"><ele>160.66666666666666</ele><time>2026-03-28T10:17:36Z</time></trkpt><trkpt lat="43.59396615692922" lon="11.201972829614494"><ele>161.33333333333334</ele><time>2026-03-28T10:17:37Z</time></trkpt><trkpt lat="43.59391160115562" lon="11.202119354385527"><ele>162.0</ele><time>2026-03-28T10:17:38Z</time></trkpt><trkpt lat="43.59382880678875" lon="11.2022813741782"><ele>162.0</ele><time>2026-03-28T10:17:39Z</time></trkpt><trkpt lat="43.593699542701465" lon="11.202455650130705"><ele>162.0</ele><time>2026-03-28T10:17:40Z</time></trkpt><trkpt lat="43.593535432838884" lon="11.202638965515685"><ele>162.0</ele><time>2026-03-28T10:17:41Z</time></trkpt><trkpt lat="43.59337167019159" lon="11.202810680790193"><ele>162.0</ele><time>2026-03-28T10:17:42Z</time></trkpt><trkpt lat="43.593218084084384" lon="11.202961017513914"><ele>162.0</ele><time>2026-03-28T10:17:43Z</time></trkpt><trkpt lat="43.593067204751094" lon="11.203113137511789"><ele>162.0</ele><time>2026-03-28T10:17:44Z</time></trkpt><trkpt lat="43.592901241022766" lon="11.203293095063577"><ele>160.0</ele><time>2026-03-28T10:17:45Z</time></trkpt><trkpt lat="43.59271242287707" lon="11.203513094325848"><ele>158.0</ele><time>2026-03-28T10:17:46Z</time></trkpt><trkpt lat="43.59251024020929" lon="11.203754157237727"><ele>158.0</ele><time>2026-03-28T10:17:47Z</time></trkpt><trkpt lat="43.5923238394824" lon="11.20398465225373"><ele>158.0</ele><time>2026-03-28T10:17:48Z</time></trkpt><trkpt lat="43.59215535922207" lon="11.20418851406482"><ele>159.66666666666666</ele><time>2026-03-28T10:17:49Z</time></trkpt><trkpt lat="43.5919921504288" lon="11.204385927962527"><ele>161.33333333333334</ele><time>2026-03-28T10:17:50Z</time></trkpt><trkpt lat="43.59184181863133" lon="11.204577179330181"><ele>163.0</ele><time>2026-03-28T10:17:51Z</time></trkpt><trkpt lat="43.591706197065015" lon="11.204757154163378"><ele>164.33333333333334</ele><time>2026-03-28T10:17:52Z</time></trkpt><trkpt lat="43.59158333853057" lon="11.204919212830795"><ele>165.66666666666666</ele><time>2026-03-28T10:17:53Z</time></trkpt><trkpt lat="43.59146963117214" lon="11.205064972367131"><ele>167.0</ele><time>2026-03-28T10:17:54Z</time></trkpt><trkpt lat="43.59135129026681" lon="11.205205617351439"><ele>167.0</ele><time>2026-03-28T10:17:55Z</time></trkpt><trkpt lat="43.59123389065709" lon="11.205331385118235"><ele>167.0</ele><time>2026-03-28T10:17:56Z</time></trkpt><trkpt lat="43.59111600566482" lon="11.205421189811076"><ele>167.0</ele><time>2026-03-28T10:17:57Z</time></trkpt><trkpt lat="43.590992838607676" lon="11.205483503262494"><ele>167.0</ele><time>2026-03-28T10:17:58Z</time></trkpt><trkpt lat="43.590877486943285" lon="11.205557022824468"><ele>168.5</ele><time>2026-03-28T10:17:59Z</time></trkpt><trkpt lat="43.59078115971566" lon="11.205687296081228"><ele>170.0</ele><time>2026-03-28T10:18:00Z</time></trkpt><trkpt lat="43.590692865425744" lon="11.205851312172369"><ele>171.5</ele><time>2026-03-28T10:18:01Z</time></trkpt><trkpt lat="43.59059779834387" lon="11.206038757982828"><ele>173.0</ele><time>2026-03-28T10:18:02Z</time></trkpt><trkpt lat="43.5904968070061" lon="11.206215314699918"><ele>173.0</ele><time>2026-03-28T10:18:03Z</time></trkpt><trkpt lat="43.59038776845048" lon="11.206387348894157"><ele>173.0</ele><time>2026-03-28T10:18:04Z</time></trkpt><trkpt lat="43.59026567757689" lon="11.206563757005993"><ele>173.0</ele><time>2026-03-28T10:18:05Z</time></trkpt><trkpt lat="43.59015163464519" lon="11.206753181312767"><ele>173.66666666666666</ele><time>2026-03-28T10:18:06Z</time></trkpt><trkpt lat="43.59002935307429" lon="11.206957785331037"><ele>174.33333333333334</ele><time>2026-03-28T10:18:07Z</time></trkpt><trkpt lat="43.58990553616927" lon="11.207153549739356"><ele>175.0</ele><time>2026-03-28T10:18:08Z</time></trkpt><trkpt lat="43.58978652062142" lon="11.20731813256181"><ele>176.5</ele><time>2026-03-28T10:18:09Z</time></trkpt><trkpt lat="43.58966507603082" lon="11.207460222982984"><ele>178.0</ele><time>2026-03-28T10:18:10Z</time></trkpt><trkpt lat="43.5895520094514" lon="11.20757531677275"><ele>179.5</ele><time>2026-03-28T10:18:11Z</time></trkpt><trkpt lat="43.58942439718709" lon="11.207656922248134"><ele>181.0</ele><time>2026-03-28T10:18:12Z</time></trkpt><trkpt lat="43.58912909091979" lon="11.20773419145232"><ele>181.0</ele><time>2026-03-28T10:18:14Z</time></trkpt><trkpt lat="43.58901193795591" lon="11.20780728052591"><ele>181.0</ele><time>2026-03-28T10:18:15Z</time></trkpt><trkpt lat="43.58889449071647" lon="11.207846923614353"><ele>181.0</ele><time>2026-03-28T10:18:16Z</time></trkpt><trkpt lat="43.58876440934115" lon="11.207906402180797"><ele>181.0</ele><time>2026-03-28T10:18:17Z</time></trkpt><trkpt lat="43.58862852041671" lon="11.207946520989173"><ele>182.0</ele><time>2026-03-28T10:18:18Z</time></trkpt><trkpt lat="43.58850823184749" lon="11.208008882851036"><ele>183.0</ele><time>2026-03-28T10:18:19Z</time></trkpt><trkpt lat="43.58838976743197" lon="11.208064980170489"><ele>184.0</ele><time>2026-03-28T10:18:20Z</time></trkpt><trkpt lat="43.58826387379611" lon="11.208116207004585"><ele>185.0</ele><time>2026-03-28T10:18:21Z</time></trkpt><trkpt lat="43.588116547186004" lon="11.208160539065874"><ele>185.0</ele><time>2026-03-28T10:18:22Z</time></trkpt><trkpt lat="43.587948667482635" lon="11.208246538692606"><ele>185.0</ele><time>2026-03-28T10:18:23Z</time></trkpt><trkpt lat="43.58775500042695" lon="11.208392382917424"><ele>185.0</ele><time>2026-03-28T10:18:24Z</time></trkpt><trkpt lat="43.58754082703346" lon="11.208544713060444"><ele>181.5</ele><time>2026-03-28T10:18:25Z</time></trkpt><trkpt lat="43.587314637966145" lon="11.208695796006637"><ele>178.0</ele><time>2026-03-28T10:18:26Z</time></trkpt><trkpt lat="43.58709587481075" lon="11.208836294068377"><ele>179.0</ele><time>2026-03-28T10:18:27Z</time></trkpt><trkpt lat="43.58689034129256" lon="11.208963725692545"><ele>180.0</ele><time>2026-03-28T10:18:28Z</time></trkpt><trkpt lat="43.58669777295361" lon="11.209086885602161"><ele>181.0</ele><time>2026-03-28T10:18:29Z</time></trkpt><trkpt lat="43.58651237518757" lon="11.20920391943246"><ele>181.0</ele><time>2026-03-28T10:18:30Z</time></trkpt><trkpt lat="43.5863386809718" lon="11.209308626317549"><ele>181.0</ele><time>2026-03-28T10:18:31Z</time></trkpt><trkpt lat="43.58616814922485" lon="11.209412086489497"><ele>181.0</ele><time>2026-03-28T10:18:32Z</time></trkpt><trkpt lat="43.58599675389447" lon="11.209520706439612"><ele>181.33333333333334</ele><time>2026-03-28T10:18:33Z</time></trkpt><trkpt lat="43.58582397645692" lon="11.209631973733105"><ele>181.66666666666666</ele><time>2026-03-28T10:18:34Z</time></trkpt><trkpt lat="43.58564324765012" lon="11.20974646678549"><ele>182.0</ele><time>2026-03-28T10:18:35Z</time></trkpt><trkpt lat="43.58546589253603" lon="11.20985957214282"><ele>179.0</ele><time>2026-03-28T10:18:36Z</time></trkpt><trkpt lat="43.58529704174451" lon="11.209966095013733"><ele>176.0</ele><time>2026-03-28T10:18:37Z</time></trkpt><trkpt lat="43.58512642789853" lon="11.210077728623068"><ele>173.0</ele><time>2026-03-28T10:18:38Z</time></trkpt><trkpt lat="43.584948343428735" lon="11.21018963130519"><ele>173.0</ele><time>2026-03-28T10:18:39Z</time></trkpt><trkpt lat="43.584760525368345" lon="11.210305252220605"><ele>173.0</ele><time>2026-03-28T10:18:40Z</time></trkpt><trkpt lat="43.58457957172544" lon="11.210420352776355"><ele>173.0</ele><time>2026-03-28T10:18:41Z</time></trkpt><trkpt lat="43.58440964454727" lon="11.21053075306284"><ele>173.0</ele><time>2026-03-28T10:18:42Z</time></trkpt><trkpt lat="43.58424777833704" lon="11.210631167781719"><ele>173.0</ele><time>2026-03-28T10:18:43Z</time></trkpt><trkpt lat="43.58409404173671" lon="11.210730989859215"><ele>173.0</ele><time>2026-03-28T10:18:44Z</time></trkpt><trkpt lat="43.58394167362791" lon="11.21083530326003"><ele>173.33333333333331</ele><time>2026-03-28T10:18:45Z</time></trkpt><trkpt lat="43.58378240776665" lon="11.210958832360983"><ele>173.66666666666666</ele><time>2026-03-28T10:18:46Z</time></trkpt><trkpt lat="43.58362160275325" lon="11.21110438757146"><ele>174.0</ele><time>2026-03-28T10:18:47Z</time></trkpt><trkpt lat="43.583463756325095" lon="11.211237099150255"><ele>174.0</ele><time>2026-03-28T10:18:48Z</time></trkpt><trkpt lat="43.583283109274554" lon="11.21134738441251"><ele>174.0</ele><time>2026-03-28T10:18:49Z</time></trkpt><trkpt lat="43.58305704839547" lon="11.211420351544179"><ele>174.0</ele><time>2026-03-28T10:18:50Z</time></trkpt><trkpt lat="43.582825625912896" lon="11.211531962754174"><ele>175.33333333333334</ele><time>2026-03-28T10:18:51Z</time></trkpt><trkpt lat="43.58261816010244" lon="11.211615932809163"><ele>176.66666666666669</ele><time>2026-03-28T10:18:52Z</time></trkpt><trkpt lat="43.5824301255663" lon="11.2117027234569"><ele>178.0</ele><time>2026-03-28T10:18:53Z</time></trkpt><trkpt lat="43.58224866668132" lon="11.211788537175082"><ele>178.0</ele><time>2026-03-28T10:18:54Z</time></trkpt><trkpt lat="43.58207677066744" lon="11.211869834564176"><ele>178.0</ele><time>2026-03-28T10:18:55Z</time></trkpt><trkpt lat="43.581904023769894" lon="11.211920667336628"><ele>178.0</ele><time>2026-03-28T10:18:56Z</time></trkpt><trkpt lat="43.58174598203696" lon="11.212016933198774"><ele>177.33333333333334</ele><time>2026-03-28T10:18:57Z</time></trkpt><trkpt lat="43.581584728086526" lon="11.212039053162535"><ele>176.66666666666666</ele><time>2026-03-28T10:18:58Z</time></trkpt><trkpt lat="43.581440451919" lon="11.21205732247951"><ele>176.0</ele><time>2026-03-28T10:18:59Z</time></trkpt><trkpt lat="43.58128614697292" lon="11.212032715444016"><ele>175.33333333333331</ele><time>2026-03-28T10:19:00Z</time></trkpt><trkpt lat="43.58112868296449" lon="11.21198213493029"><ele>174.66666666666666</ele><time>2026-03-28T10:19:01Z</time></trkpt><trkpt lat="43.58098443431981" lon="11.21198123818279"><ele>174.0</ele><time>2026-03-28T10:19:02Z</time></trkpt><trkpt lat="43.580817199356666" lon="11.211996844606555"><ele>174.0</ele><time>2026-03-28T10:19:03Z</time></trkpt><trkpt lat="43.58063748270484" lon="11.21203304171076"><ele>174.0</ele><time>2026-03-28T10:19:04Z</time></trkpt><trkpt lat="43.580452635936524" lon="11.212039360194323"><ele>174.0</ele><time>2026-03-28T10:19:05Z</time></trkpt><trkpt lat="43.580286676707104" lon="11.212068940597765"><ele>174.0</ele><time>2026-03-28T10:19:06Z</time></trkpt><trkpt lat="43.58012591984592" lon="11.212124921221395"><ele>174.0</ele><time>2026-03-28T10:19:07Z</time></trkpt><trkpt lat="43.579965085240126" lon="11.21215402890687"><ele>174.0</ele><time>2026-03-28T10:19:08Z</time></trkpt><trkpt lat="43.57980457094216" lon="11.212197224580736"><ele>174.0</ele><time>2026-03-28T10:19:09Z</time></trkpt><trkpt lat="43.579638122349614" lon="11.212273895329439"><ele>174.0</ele><time>2026-03-28T10:19:10Z</time></trkpt><trkpt lat="43.57945330034377" lon="11.212371689616742"><ele>174.0</ele><time>2026-03-28T10:19:11Z</time></trkpt><trkpt lat="43.579266641339665" lon="11.212463927986782"><ele>174.33333333333334</ele><time>2026-03-28T10:19:12Z</time></trkpt><trkpt lat="43.57909371681884" lon="11.212548767664588"><ele>174.66666666666669</ele><time>2026-03-28T10:19:13Z</time></trkpt><trkpt lat="43.57893315721644" lon="11.212626392012229"><ele>175.0</ele><time>2026-03-28T10:19:14Z</time></trkpt><trkpt lat="43.57878046272747" lon="11.212714158341248"><ele>173.66666666666669</ele><time>2026-03-28T10:19:15Z</time></trkpt><trkpt lat="43.57862426423146" lon="11.212820599331884"><ele>172.33333333333334</ele><time>2026-03-28T10:19:16Z</time></trkpt><trkpt lat="43.57847689304533" lon="11.212958668000587"><ele>171.0</ele><time>2026-03-28T10:19:17Z</time></trkpt><trkpt lat="43.57833221390812" lon="11.213131344314167"><ele>172.66666666666666</ele><time>2026-03-28T10:19:18Z</time></trkpt><trkpt lat="43.57819593184488" lon="11.2133215466836"><ele>174.33333333333331</ele><time>2026-03-28T10:19:19Z</time></trkpt><trkpt lat="43.57805830699082" lon="11.21351266253219"><ele>176.0</ele><time>2026-03-28T10:19:20Z</time></trkpt><trkpt lat="43.57791956215299" lon="11.21370573755972"><ele>175.66666666666666</ele><time>2026-03-28T10:19:21Z</time></trkpt><trkpt lat="43.57778142045396" lon="11.21389125020517"><ele>175.33333333333334</ele><time>2026-03-28T10:19:22Z</time></trkpt><trkpt lat="43.577653690433465" lon="11.214060655263488"><ele>175.0</ele><time>2026-03-28T10:19:23Z</time></trkpt><trkpt lat="43.57753366204649" lon="11.214213855434817"><ele>175.0</ele><time>2026-03-28T10:19:24Z</time></trkpt><trkpt lat="43.57740422306943" lon="11.21434347142739"><ele>175.0</ele><time>2026-03-28T10:19:25Z</time></trkpt><trkpt lat="43.57726048781539" lon="11.214441322833027"><ele>175.0</ele><time>2026-03-28T10:19:26Z</time></trkpt><trkpt lat="43.577099007913695" lon="11.214522158180564"><ele>174.33333333333334</ele><time>2026-03-28T10:19:27Z</time></trkpt><trkpt lat="43.57693594041774" lon="11.214578378882461"><ele>173.66666666666666</ele><time>2026-03-28T10:19:28Z</time></trkpt><trkpt lat="43.576777696144255" lon="11.214640915596195"><ele>173.0</ele><time>2026-03-28T10:19:29Z</time></trkpt><trkpt lat="43.57660877842919" lon="11.214729049326005"><ele>174.33333333333331</ele><time>2026-03-28T10:19:30Z</time></trkpt><trkpt lat="43.57642313412819" lon="11.214853527457874"><ele>175.66666666666666</ele><time>2026-03-28T10:19:31Z</time></trkpt><trkpt lat="43.57622086092042" lon="11.214946342379196"><ele>177.0</ele><time>2026-03-28T10:19:32Z</time></trkpt><trkpt lat="43.57599360668153" lon="11.215030820725556"><ele>177.0</ele><time>2026-03-28T10:19:33Z</time></trkpt><trkpt lat="43.57579628166391" lon="11.215113520698782"><ele>177.0</ele><time>2026-03-28T10:19:34Z</time></trkpt><trkpt lat="43.575599714888334" lon="11.215200207925317"><ele>177.0</ele><time>2026-03-28T10:19:35Z</time></trkpt><trkpt lat="43.57540491013281" lon="11.215288352262812"><ele>176.66666666666666</ele><time>2026-03-28T10:19:36Z</time></trkpt><trkpt lat="43.57520981714034" lon="11.215369566202078"><ele>176.33333333333331</ele><time>2026-03-28T10:19:37Z</time></trkpt><trkpt lat="43.57502895328883" lon="11.215444291859864"><ele>176.0</ele><time>2026-03-28T10:19:38Z</time></trkpt><trkpt lat="43.57484157895973" lon="11.215519193282754"><ele>176.0</ele><time>2026-03-28T10:19:39Z</time></trkpt><trkpt lat="43.57464297926074" lon="11.215570413675287"><ele>176.0</ele><time>2026-03-28T10:19:40Z</time></trkpt><trkpt lat="43.57445241005502" lon="11.215649304246313"><ele>176.0</ele><time>2026-03-28T10:19:41Z</time></trkpt><trkpt lat="43.57428879730869" lon="11.215747490505027"><ele>176.33333333333331</ele><time>2026-03-28T10:19:42Z</time></trkpt><trkpt lat="43.57411648820874" lon="11.215827653094259"><ele>176.66666666666666</ele><time>2026-03-28T10:19:43Z</time></trkpt><trkpt lat="43.57392665616466" lon="11.215890806958802"><ele>177.0</ele><time>2026-03-28T10:19:44Z</time></trkpt><trkpt lat="43.573740839036596" lon="11.215985497087312"><ele>177.66666666666666</ele><time>2026-03-28T10:19:45Z</time></trkpt><trkpt lat="43.573547097234226" lon="11.21611019498798"><ele>178.33333333333331</ele><time>2026-03-28T10:19:46Z</time></trkpt><trkpt lat="43.57338252067409" lon="11.216233633820483"><ele>179.0</ele><time>2026-03-28T10:19:47Z</time></trkpt><trkpt lat="43.57323401147859" lon="11.21635071274204"><ele>179.0</ele><time>2026-03-28T10:19:48Z</time></trkpt><trkpt lat="43.57308349568164" lon="11.216447844097043"><ele>179.0</ele><time>2026-03-28T10:19:49Z</time></trkpt><trkpt lat="43.5729026559564" lon="11.216515660302479"><ele>179.0</ele><time>2026-03-28T10:19:50Z</time></trkpt><trkpt lat="43.57272195499701" lon="11.216560473286957"><ele>181.0</ele><time>2026-03-28T10:19:51Z</time></trkpt><trkpt lat="43.572542637596094" lon="11.216583906628427"><ele>183.0</ele><time>2026-03-28T10:19:52Z</time></trkpt><trkpt lat="43.57237420649368" lon="11.216551093600458"><ele>185.0</ele><time>2026-03-28T10:19:53Z</time></trkpt><trkpt lat="43.57220479197532" lon="11.216492077624137"><ele>183.33333333333331</ele><time>2026-03-28T10:19:54Z</time></trkpt><trkpt lat="43.572047004757955" lon="11.216400117761701"><ele>181.66666666666666</ele><time>2026-03-28T10:19:55Z</time></trkpt><trkpt lat="43.571910105161244" lon="11.216300055606178"><ele>180.0</ele><time>2026-03-28T10:19:56Z</time></trkpt><trkpt lat="43.57179117131378" lon="11.21618049371607"><ele>180.0</ele><time>2026-03-28T10:19:57Z</time></trkpt><trkpt lat="43.5716791926965" lon="11.21604223951542"><ele>180.0</ele><time>2026-03-28T10:19:58Z</time></trkpt><trkpt lat="43.571560849605206" lon="11.215880400218099"><ele>180.0</ele><time>2026-03-28T10:19:59Z</time></trkpt><trkpt lat="43.571463682863715" lon="11.215737056355449"><ele>179.75</ele><time>2026-03-28T10:20:00Z</time></trkpt><trkpt lat="43.57139146320544" lon="11.215576757255626"><ele>179.5</ele><time>2026-03-28T10:20:01Z</time></trkpt><trkpt lat="43.57130500520945" lon="11.215456580085014"><ele>179.25</ele><time>2026-03-28T10:20:02Z</time></trkpt><trkpt lat="43.57120732994514" lon="11.215353250780453"><ele>179.0</ele><time>2026-03-28T10:20:03Z</time></trkpt><trkpt lat="43.57111680370585" lon="11.215230239034677"><ele>179.75</ele><time>2026-03-28T10:20:04Z</time></trkpt><trkpt lat="43.57101940167557" lon="11.215121741265218"><ele>180.5</ele><time>2026-03-28T10:20:05Z</time></trkpt><trkpt lat="43.57089681650885" lon="11.21504639281002"><ele>181.25</ele><time>2026-03-28T10:20:06Z</time></trkpt><trkpt lat="43.57074880640408" lon="11.214996052382777"><ele>182.0</ele><time>2026-03-28T10:20:07Z</time></trkpt><trkpt lat="43.57059072616381" lon="11.214967908743"><ele>182.0</ele><time>2026-03-28T10:20:08Z</time></trkpt><trkpt lat="43.57042229001888" lon="11.214974494237845"><ele>182.0</ele><time>2026-03-28T10:20:09Z</time></trkpt><trkpt lat="43.57024502742534" lon="11.21501680222045"><ele>182.0</ele><time>2026-03-28T10:20:10Z</time></trkpt><trkpt lat="43.57006190245417" lon="11.215085612655006"><ele>183.33333333333331</ele><time>2026-03-28T10:20:11Z</time></trkpt><trkpt lat="43.56987159651081" lon="11.215164957920171"><ele>184.66666666666666</ele><time>2026-03-28T10:20:12Z</time></trkpt><trkpt lat="43.56969531969674" lon="11.215241684896734"><ele>186.0</ele><time>2026-03-28T10:20:13Z</time></trkpt><trkpt lat="43.56953071067559" lon="11.215299976421287"><ele>189.66666666666669</ele><time>2026-03-28T10:20:14Z</time></trkpt><trkpt lat="43.56936433729947" lon="11.215358354407757"><ele>193.33333333333334</ele><time>2026-03-28T10:20:15Z</time></trkpt><trkpt lat="43.56916398377224" lon="11.21542591230816"><ele>197.0</ele><time>2026-03-28T10:20:16Z</time></trkpt><trkpt lat="43.568915640489124" lon="11.21551669193269"><ele>193.0</ele><time>2026-03-28T10:20:17Z</time></trkpt><trkpt lat="43.56865564660879" lon="11.215613808751884"><ele>189.0</ele><time>2026-03-28T10:20:18Z</time></trkpt><trkpt lat="43.56842335377332" lon="11.215696286867333"><ele>189.0</ele><time>2026-03-28T10:20:19Z</time></trkpt><trkpt lat="43.568212022310455" lon="11.2157672991356"><ele>189.0</ele><time>2026-03-28T10:20:20Z</time></trkpt><trkpt lat="43.56799819390817" lon="11.215843837054624"><ele>189.0</ele><time>2026-03-28T10:20:21Z</time></trkpt><trkpt lat="43.56777191079577" lon="11.215933967737428"><ele>193.5</ele><time>2026-03-28T10:20:22Z</time></trkpt><trkpt lat="43.56753854262557" lon="11.21600675511847"><ele>198.0</ele><time>2026-03-28T10:20:23Z</time></trkpt><trkpt lat="43.56729880551681" lon="11.216065095776775"><ele>198.0</ele><time>2026-03-28T10:20:24Z</time></trkpt><trkpt lat="43.56704513983625" lon="11.216121022440955"><ele>198.0</ele><time>2026-03-28T10:20:25Z</time></trkpt><trkpt lat="43.5668175703007" lon="11.216175755611813"><ele>201.0</ele><time>2026-03-28T10:20:26Z</time></trkpt><trkpt lat="43.566604714536744" lon="11.216229877303114"><ele>204.0</ele><time>2026-03-28T10:20:27Z</time></trkpt><trkpt lat="43.566384375401505" lon="11.216303127442492"><ele>207.0</ele><time>2026-03-28T10:20:28.001Z</time></trkpt><trkpt lat="43.56614900518863" lon="11.216392304820241"><ele>205.5</ele><time>2026-03-28T10:20:29.001Z</time></trkpt><trkpt lat="43.56591867868458" lon="11.216489487386015"><ele>204.0</ele><time>2026-03-28T10:20:30.001Z</time></trkpt><trkpt lat="43.56570557283229" lon="11.216568930203092"><ele>204.0</ele><time>2026-03-28T10:20:31.001Z</time></trkpt><trkpt lat="43.56550970002689" lon="11.21664240397892"><ele>204.0</ele><time>2026-03-28T10:20:32.001Z</time></trkpt><trkpt lat="43.56531610619328" lon="11.216715908726313"><ele>204.0</ele><time>2026-03-28T10:20:33.001Z</time></trkpt><trkpt lat="43.56514409583761" lon="11.216789359526697"><ele>204.0</ele><time>2026-03-28T10:20:34.001Z</time></trkpt><trkpt lat="43.56498526106167" lon="11.216876179719828"><ele>204.0</ele><time>2026-03-28T10:20:35.001Z</time></trkpt><trkpt lat="43.564836197243736" lon="11.216974048995228"><ele>204.0</ele><time>2026-03-28T10:20:36.001Z</time></trkpt><trkpt lat="43.56472166652048" lon="11.217104855771137"><ele>204.0</ele><time>2026-03-28T10:20:37.001Z</time></trkpt><trkpt lat="43.564610658352024" lon="11.217266138854583"><ele>204.0</ele><time>2026-03-28T10:20:38.001Z</time></trkpt><trkpt lat="43.564521013663764" lon="11.21747771993812"><ele>204.0</ele><time>2026-03-28T10:20:39.001Z</time></trkpt><trkpt lat="43.564443173413835" lon="11.21773256147542"><ele>208.66666666666669</ele><time>2026-03-28T10:20:40.001Z</time></trkpt><trkpt lat="43.56436799309081" lon="11.218007744559682"><ele>213.33333333333334</ele><time>2026-03-28T10:20:41.001Z</time></trkpt><trkpt lat="43.5642966592846" lon="11.218317965391979"><ele>218.0</ele><time>2026-03-28T10:20:42.001Z</time></trkpt><trkpt lat="43.5642141737515" lon="11.218656706101607"><ele>218.0</ele><time>2026-03-28T10:20:43.001Z</time></trkpt><trkpt lat="43.56413302403083" lon="11.21897075216511"><ele>218.0</ele><time>2026-03-28T10:20:44.001Z</time></trkpt><trkpt lat="43.564056066266154" lon="11.219269430848348"><ele>217.0</ele><time>2026-03-28T10:20:45.001Z</time></trkpt><trkpt lat="43.56398240332688" lon="11.219558124180773"><ele>216.0</ele><time>2026-03-28T10:20:46.001Z</time></trkpt><trkpt lat="43.563913011051724" lon="11.219816350940393"><ele>215.0</ele><time>2026-03-28T10:20:47.001Z</time></trkpt><trkpt lat="43.563851474725844" lon="11.220078492645204"><ele>214.33333333333334</ele><time>2026-03-28T10:20:48.001Z</time></trkpt><trkpt lat="43.563793032656875" lon="11.220318881490233"><ele>213.66666666666669</ele><time>2026-03-28T10:20:49.001Z</time></trkpt><trkpt lat="43.56373900145187" lon="11.220539563674556"><ele>213.0</ele><time>2026-03-28T10:20:50.001Z</time></trkpt><trkpt lat="43.563678369339996" lon="11.220731048103502"><ele>217.75</ele><time>2026-03-28T10:20:51.001Z</time></trkpt><trkpt lat="43.56358337126469" lon="11.220879619632463"><ele>222.5</ele><time>2026-03-28T10:20:52.001Z</time></trkpt><trkpt lat="43.56346696641185" lon="11.22101485213929"><ele>227.25</ele><time>2026-03-28T10:20:53.001Z</time></trkpt><trkpt lat="43.56332741870478" lon="11.221091225291893"><ele>232.0</ele><time>2026-03-28T10:20:54.001Z</time></trkpt><trkpt lat="43.56316301953363" lon="11.221162654331616"><ele>232.0</ele><time>2026-03-28T10:20:55Z</time></trkpt><trkpt lat="43.562971925268975" lon="11.221225730267227"><ele>232.0</ele><time>2026-03-28T10:20:56Z</time></trkpt><trkpt lat="43.56277043350944" lon="11.221302931133309"><ele>232.0</ele><time>2026-03-28T10:20:57Z</time></trkpt><trkpt lat="43.56254987045721" lon="11.22140231472763"><ele>231.0</ele><time>2026-03-28T10:20:58Z</time></trkpt><trkpt lat="43.56232861543979" lon="11.221527275219625"><ele>230.0</ele><time>2026-03-28T10:20:59Z</time></trkpt><trkpt lat="43.562121853742234" lon="11.221621755692505"><ele>233.66666666666669</ele><time>2026-03-28T10:21:00Z</time></trkpt><trkpt lat="43.561933657016496" lon="11.22169318189042"><ele>237.33333333333331</ele><time>2026-03-28T10:21:01Z</time></trkpt><trkpt lat="43.561764424014164" lon="11.221768870016685"><ele>241.0</ele><time>2026-03-28T10:21:02Z</time></trkpt><trkpt lat="43.56161517638326" lon="11.221835619853477"><ele>241.0</ele><time>2026-03-28T10:21:03Z</time></trkpt><trkpt lat="43.56148695009366" lon="11.221907794656783"><ele>241.0</ele><time>2026-03-28T10:21:04Z</time></trkpt><trkpt lat="43.561370690202594" lon="11.221959497880317"><ele>241.0</ele><time>2026-03-28T10:21:05Z</time></trkpt><trkpt lat="43.56127893950617" lon="11.222058485628295"><ele>241.0</ele><time>2026-03-28T10:21:06Z</time></trkpt><trkpt lat="43.56123661320575" lon="11.222210782320875"><ele>240.75</ele><time>2026-03-28T10:21:07Z</time></trkpt><trkpt lat="43.56123747920479" lon="11.222354225625315"><ele>240.5</ele><time>2026-03-28T10:21:08Z</time></trkpt><trkpt lat="43.561258652904975" lon="11.222493422359692"><ele>240.25</ele><time>2026-03-28T10:21:09Z</time></trkpt><trkpt lat="43.56132867877201" lon="11.22261688757198"><ele>240.0</ele><time>2026-03-28T10:21:10Z</time></trkpt><trkpt lat="43.561464638041606" lon="11.222665578096679"><ele>240.0</ele><time>2026-03-28T10:21:11Z</time></trkpt><trkpt lat="43.561610100423756" lon="11.222698383671492"><ele>240.0</ele><time>2026-03-28T10:21:12Z</time></trkpt><trkpt lat="43.5617538507849" lon="11.22273417007443"><ele>240.0</ele><time>2026-03-28T10:21:13Z</time></trkpt><trkpt lat="43.56189003212369" lon="11.22280006771203"><ele>240.0</ele><time>2026-03-28T10:21:14Z</time></trkpt><trkpt lat="43.5620241881661" lon="11.22288799771684"><ele>240.4</ele><time>2026-03-28T10:21:15Z</time></trkpt><trkpt lat="43.56211322460661" lon="11.222985573009232"><ele>240.8</ele><time>2026-03-28T10:21:16Z</time></trkpt><trkpt lat="43.56216886563531" lon="11.223057644332737"><ele>241.2</ele><time>2026-03-28T10:21:17Z</time></trkpt><trkpt lat="43.562163394515736" lon="11.223237357083224"><ele>241.6</ele><time>2026-03-28T10:21:19Z</time></trkpt><trkpt lat="43.56209552687446" lon="11.223314330896162"><ele>242.0</ele><time>2026-03-28T10:21:20Z</time></trkpt><trkpt lat="43.56197544293766" lon="11.223381547708781"><ele>246.0</ele><time>2026-03-28T10:21:21Z</time></trkpt><trkpt lat="43.56182209251592" lon="11.223472280538536"><ele>250.0</ele><time>2026-03-28T10:21:22Z</time></trkpt><trkpt lat="43.561643360893406" lon="11.223612850045505"><ele>254.0</ele><time>2026-03-28T10:21:23Z</time></trkpt><trkpt lat="43.561468181810156" lon="11.22381836616686"><ele>251.33333333333334</ele><time>2026-03-28T10:21:24Z</time></trkpt><trkpt lat="43.56132419750105" lon="11.224024499791673"><ele>248.66666666666669</ele><time>2026-03-28T10:21:25Z</time></trkpt><trkpt lat="43.561187098080126" lon="11.224164427759368"><ele>246.0</ele><time>2026-03-28T10:21:26Z</time></trkpt><trkpt lat="43.561052860491486" lon="11.224295469353706"><ele>252.66666666666669</ele><time>2026-03-28T10:21:27Z</time></trkpt><trkpt lat="43.560888778509934" lon="11.224391544028723"><ele>259.33333333333337</ele><time>2026-03-28T10:21:28Z</time></trkpt><trkpt lat="43.56070876309507" lon="11.224485136016645"><ele>266.0</ele><time>2026-03-28T10:21:29Z</time></trkpt><trkpt lat="43.56050877086942" lon="11.224608752358916"><ele>268.0</ele><time>2026-03-28T10:21:30Z</time></trkpt><trkpt lat="43.560302968338036" lon="11.224702843632901"><ele>270.0</ele><time>2026-03-28T10:21:31Z</time></trkpt><trkpt lat="43.56012447807309" lon="11.22478544795641"><ele>272.0</ele><time>2026-03-28T10:21:32Z</time></trkpt><trkpt lat="43.55996016310721" lon="11.224869800306614"><ele>272.0</ele><time>2026-03-28T10:21:33Z</time></trkpt><trkpt lat="43.55979237587877" lon="11.224957855932097"><ele>272.0</ele><time>2026-03-28T10:21:34Z</time></trkpt><trkpt lat="43.559641549513486" lon="11.225037248085561"><ele>272.0</ele><time>2026-03-28T10:21:35Z</time></trkpt><trkpt lat="43.55951276402019" lon="11.225104549815292"><ele>274.25</ele><time>2026-03-28T10:21:36Z</time></trkpt><trkpt lat="43.55940327167143" lon="11.225157436238455"><ele>276.5</ele><time>2026-03-28T10:21:37Z</time></trkpt><trkpt lat="43.559295513532064" lon="11.225180045531996"><ele>278.75</ele><time>2026-03-28T10:21:38Z</time></trkpt><trkpt lat="43.55917909109307" lon="11.225152113867944"><ele>281.0</ele><time>2026-03-28T10:21:39Z</time></trkpt><trkpt lat="43.559081817830446" lon="11.225020869869024"><ele>281.0</ele><time>2026-03-28T10:21:40Z</time></trkpt><trkpt lat="43.558943778043485" lon="11.224907460403333"><ele>281.0</ele><time>2026-03-28T10:21:41Z</time></trkpt><trkpt lat="43.55882896935989" lon="11.224757567869672"><ele>281.0</ele><time>2026-03-28T10:21:42Z</time></trkpt><trkpt lat="43.558722892072495" lon="11.224643821760253"><ele>284.25</ele><time>2026-03-28T10:21:43Z</time></trkpt><trkpt lat="43.558618282898465" lon="11.224571088097727"><ele>287.5</ele><time>2026-03-28T10:21:44Z</time></trkpt><trkpt lat="43.5584957888829" lon="11.22454643934536"><ele>290.75</ele><time>2026-03-28T10:21:45Z</time></trkpt><trkpt lat="43.55835886761951" lon="11.224570165213384"><ele>294.0</ele><time>2026-03-28T10:21:46Z</time></trkpt><trkpt lat="43.55823587921161" lon="11.224618719977025"><ele>294.0</ele><time>2026-03-28T10:21:47Z</time></trkpt><trkpt lat="43.55813614575056" lon="11.224624581886273"><ele>294.0</ele><time>2026-03-28T10:21:48Z</time></trkpt><trkpt lat="43.55804393987795" lon="11.224635155462378"><ele>294.0</ele><time>2026-03-28T10:21:49Z</time></trkpt><trkpt lat="43.557960851685024" lon="11.224537518810104"><ele>294.0</ele><time>2026-03-28T10:21:50Z</time></trkpt><trkpt lat="43.55788119151905" lon="11.224401633557035"><ele>294.0</ele><time>2026-03-28T10:21:51Z</time></trkpt><trkpt lat="43.557796310643226" lon="11.224234981039398"><ele>292.3333333333333</ele><time>2026-03-28T10:21:52Z</time></trkpt><trkpt lat="43.557685533791016" lon="11.224045610925955"><ele>290.66666666666663</ele><time>2026-03-28T10:21:53Z</time></trkpt><trkpt lat="43.5575275948851" lon="11.223856740473233"><ele>289.0</ele><time>2026-03-28T10:21:54Z</time></trkpt><trkpt lat="43.55735980086985" lon="11.223664150947522"><ele>291.75</ele><time>2026-03-28T10:21:55Z</time></trkpt><trkpt lat="43.55721515652815" lon="11.22352326025401"><ele>294.5</ele><time>2026-03-28T10:21:56Z</time></trkpt><trkpt lat="43.557159177961445" lon="11.223367862527997"><ele>297.25</ele><time>2026-03-28T10:21:57Z</time></trkpt><trkpt lat="43.557132337714165" lon="11.223198885825273"><ele>300.0</ele><time>2026-03-28T10:21:58Z</time></trkpt><trkpt lat="43.55707548644136" lon="11.223021899273814"><ele>302.25</ele><time>2026-03-28T10:21:59Z</time></trkpt><trkpt lat="43.557005328889" lon="11.222866138046141"><ele>304.5</ele><time>2026-03-28T10:22:00Z</time></trkpt><trkpt lat="43.55690531365097" lon="11.222754229955479"><ele>306.75</ele><time>2026-03-28T10:22:01Z</time></trkpt><trkpt lat="43.556767789698796" lon="11.22269986453461"><ele>309.0</ele><time>2026-03-28T10:22:02Z</time></trkpt><trkpt lat="43.55662244121185" lon="11.222707101730277"><ele>309.0</ele><time>2026-03-28T10:22:03Z</time></trkpt><trkpt lat="43.55647900133343" lon="11.222759129979815"><ele>309.0</ele><time>2026-03-28T10:22:04Z</time></trkpt><trkpt lat="43.55632870456462" lon="11.22280459875432"><ele>309.0</ele><time>2026-03-28T10:22:05Z</time></trkpt><trkpt lat="43.55619214824132" lon="11.222801704816087"><ele>309.0</ele><time>2026-03-28T10:22:06Z</time></trkpt><trkpt lat="43.556064781671154" lon="11.2227107364127"><ele>310.6666666666667</ele><time>2026-03-28T10:22:07Z</time></trkpt><trkpt lat="43.55592535799154" lon="11.222635220404243"><ele>312.33333333333337</ele><time>2026-03-28T10:22:08Z</time></trkpt><trkpt lat="43.55576977528753" lon="11.22263343699006"><ele>314.0</ele><time>2026-03-28T10:22:09Z</time></trkpt><trkpt lat="43.555621300657705" lon="11.222693075504642"><ele>314.0</ele><time>2026-03-28T10:22:10Z</time></trkpt><trkpt lat="43.55548002822101" lon="11.222772393150024"><ele>314.0</ele><time>2026-03-28T10:22:11Z</time></trkpt><trkpt lat="43.555365249756136" lon="11.22280435963716"><ele>314.0</ele><time>2026-03-28T10:22:12Z</time></trkpt><trkpt lat="43.55525494011727" lon="11.222803333690143"><ele>314.0</ele><time>2026-03-28T10:22:13Z</time></trkpt><trkpt lat="43.55514206849575" lon="11.222762060020424"><ele>314.33333333333337</ele><time>2026-03-28T10:22:14Z</time></trkpt><trkpt lat="43.55500861611776" lon="11.222703451499989"><ele>314.6666666666667</ele><time>2026-03-28T10:22:15Z</time></trkpt><trkpt lat="43.55485129517444" lon="11.222617691044835"><ele>315.0</ele><time>2026-03-28T10:22:16Z</time></trkpt><trkpt lat="43.554654647553164" lon="11.22249439066574"><ele>317.6666666666667</ele><time>2026-03-28T10:22:17Z</time></trkpt><trkpt lat="43.554452783268545" lon="11.222381294610125"><ele>320.33333333333337</ele><time>2026-03-28T10:22:18Z</time></trkpt><trkpt lat="43.55428973734046" lon="11.222280006882"><ele>323.0</ele><time>2026-03-28T10:22:19Z</time></trkpt><trkpt lat="43.55413515009919" lon="11.222157967927581"><ele>323.0</ele><time>2026-03-28T10:22:20Z</time></trkpt><trkpt lat="43.553995999454365" lon="11.222032251565881"><ele>323.0</ele><time>2026-03-28T10:22:21Z</time></trkpt><trkpt lat="43.55386298254903" lon="11.221914254810413"><ele>323.0</ele><time>2026-03-28T10:22:22Z</time></trkpt><trkpt lat="43.55371180337969" lon="11.221808129960442"><ele>320.0</ele><time>2026-03-28T10:22:23Z</time></trkpt><trkpt lat="43.55352976487113" lon="11.221728006635908"><ele>317.0</ele><time>2026-03-28T10:22:24Z</time></trkpt><trkpt lat="43.5533490966095" lon="11.221678560701312"><ele>314.0</ele><time>2026-03-28T10:22:25Z</time></trkpt><trkpt lat="43.553182130912845" lon="11.22163234248856"><ele>314.0</ele><time>2026-03-28T10:22:26Z</time></trkpt><trkpt lat="43.55302676911087" lon="11.221589545956858"><ele>314.0</ele><time>2026-03-28T10:22:27Z</time></trkpt><trkpt lat="43.55287301028931" lon="11.221538112268178"><ele>314.0</ele><time>2026-03-28T10:22:28Z</time></trkpt><trkpt lat="43.5526934737486" lon="11.221571625580594"><ele>315.0</ele><time>2026-03-28T10:22:29Z</time></trkpt><trkpt lat="43.55248970070673" lon="11.22161822156604"><ele>316.0</ele><time>2026-03-28T10:22:30Z</time></trkpt><trkpt lat="43.55228954578174" lon="11.221681872559667"><ele>317.0</ele><time>2026-03-28T10:22:31Z</time></trkpt><trkpt lat="43.55212257707461" lon="11.221752175748868"><ele>320.33333333333337</ele><time>2026-03-28T10:22:32Z</time></trkpt><trkpt lat="43.5519837247399" lon="11.221822533758552"><ele>323.6666666666667</ele><time>2026-03-28T10:22:33Z</time></trkpt><trkpt lat="43.55183376724605" lon="11.221955001872692"><ele>327.0</ele><time>2026-03-28T10:22:34Z</time></trkpt><trkpt lat="43.55166962019285" lon="11.222153471846555"><ele>326.0</ele><time>2026-03-28T10:22:35Z</time></trkpt><trkpt lat="43.55150129548578" lon="11.222360852778818"><ele>325.0</ele><time>2026-03-28T10:22:36Z</time></trkpt><trkpt lat="43.55134858177785" lon="11.222538652948183"><ele>324.0</ele><time>2026-03-28T10:22:37Z</time></trkpt><trkpt lat="43.55123401201148" lon="11.222689497710705"><ele>327.25</ele><time>2026-03-28T10:22:38Z</time></trkpt><trkpt lat="43.551115201923096" lon="11.222800156227027"><ele>330.5</ele><time>2026-03-28T10:22:39Z</time></trkpt><trkpt lat="43.55099397444226" lon="11.22289033175338"><ele>333.75</ele><time>2026-03-28T10:22:40Z</time></trkpt><trkpt lat="43.55086703019445" lon="11.222935580324709"><ele>337.0</ele><time>2026-03-28T10:22:41.001Z</time></trkpt><trkpt lat="43.55072366773849" lon="11.222952915525118"><ele>337.0</ele><time>2026-03-28T10:22:42.001Z</time></trkpt><trkpt lat="43.550546264217225" lon="11.222977931378864"><ele>337.0</ele><time>2026-03-28T10:22:43.001Z</time></trkpt><trkpt lat="43.55036178294887" lon="11.22305263458537"><ele>337.0</ele><time>2026-03-28T10:22:44.001Z</time></trkpt><trkpt lat="43.55017716243865" lon="11.223130878627611"><ele>334.5</ele><time>2026-03-28T10:22:45.001Z</time></trkpt><trkpt lat="43.549960131374206" lon="11.223308169708499"><ele>332.0</ele><time>2026-03-28T10:22:46.001Z</time></trkpt><trkpt lat="43.5497704184939" lon="11.223453811984776"><ele>332.0</ele><time>2026-03-28T10:22:47.001Z</time></trkpt><trkpt lat="43.54958808381537" lon="11.22358473079239"><ele>332.0</ele><time>2026-03-28T10:22:48.001Z</time></trkpt><trkpt lat="43.54942400207847" lon="11.223698269117122"><ele>332.0</ele><time>2026-03-28T10:22:49.001Z</time></trkpt><trkpt lat="43.549262362717606" lon="11.223840083470225"><ele>333.6666666666667</ele><time>2026-03-28T10:22:50.001Z</time></trkpt><trkpt lat="43.54908358045456" lon="11.223968015165816"><ele>335.3333333333333</ele><time>2026-03-28T10:22:51.001Z</time></trkpt><trkpt lat="43.548912444914066" lon="11.224093421721147"><ele>337.0</ele><time>2026-03-28T10:22:52.001Z</time></trkpt><trkpt lat="43.548725452097216" lon="11.22422023154826"><ele>339.66666666666663</ele><time>2026-03-28T10:22:53.001Z</time></trkpt><trkpt lat="43.548558757500935" lon="11.224319870319617"><ele>342.3333333333333</ele><time>2026-03-28T10:22:54.001Z</time></trkpt><trkpt lat="43.548400823276054" lon="11.224423815467166"><ele>345.0</ele><time>2026-03-28T10:22:55.001Z</time></trkpt><trkpt lat="43.5482767092218" lon="11.22456155511366"><ele>345.0</ele><time>2026-03-28T10:22:56.001Z</time></trkpt><trkpt lat="43.54817405136951" lon="11.224712021009706"><ele>345.0</ele><time>2026-03-28T10:22:57.001Z</time></trkpt><trkpt lat="43.54808719955089" lon="11.224931573271801"><ele>345.0</ele><time>2026-03-28T10:22:58.001Z</time></trkpt><trkpt lat="43.5480233704848" lon="11.225194432488983"><ele>346.6666666666667</ele><time>2026-03-28T10:22:59.001Z</time></trkpt><trkpt lat="43.54794592060816" lon="11.22542110820489"><ele>348.33333333333337</ele><time>2026-03-28T10:23:00.001Z</time></trkpt><trkpt lat="43.54786103842897" lon="11.225631170793845"><ele>350.0</ele><time>2026-03-28T10:23:01Z</time></trkpt><trkpt lat="43.547765440427796" lon="11.22583197553253"><ele>350.0</ele><time>2026-03-28T10:23:02Z</time></trkpt><trkpt lat="43.54767355021601" lon="11.226002032900272"><ele>350.0</ele><time>2026-03-28T10:23:03Z</time></trkpt><trkpt lat="43.54756161666435" lon="11.226135529583502"><ele>350.0</ele><time>2026-03-28T10:23:04Z</time></trkpt><trkpt lat="43.54744642712318" lon="11.226305697951274"><ele>350.0</ele><time>2026-03-28T10:23:05Z</time></trkpt><trkpt lat="43.54731286493875" lon="11.226452615837374"><ele>350.0</ele><time>2026-03-28T10:23:06Z</time></trkpt><trkpt lat="43.54719956523625" lon="11.226567755635589"><ele>350.0</ele><time>2026-03-28T10:23:07Z</time></trkpt><trkpt lat="43.547133457121014" lon="11.226627424791733"><ele>350.0</ele><time>2026-03-28T10:23:08Z</time></trkpt><trkpt lat="43.54706774552112" lon="11.226634117793171"><ele>350.0</ele><time>2026-03-28T10:23:10Z</time></trkpt><trkpt lat="43.54694600652924" lon="11.226677030374388"><ele>350.0</ele><time>2026-03-28T10:23:19Z</time></trkpt><trkpt lat="43.54687005736542" lon="11.226799651265415"><ele>350.0</ele><time>2026-03-28T10:23:20Z</time></trkpt><trkpt lat="43.54675959181263" lon="11.226968677187529"><ele>350.0</ele><time>2026-03-28T10:23:21Z</time></trkpt><trkpt lat="43.54657950296475" lon="11.227108279780403"><ele>350.0</ele><time>2026-03-28T10:23:22Z</time></trkpt><trkpt lat="43.546365551455786" lon="11.227272129725344"><ele>350.0</ele><time>2026-03-28T10:23:23Z</time></trkpt><trkpt lat="43.5461394135588" lon="11.227450721188955"><ele>351.0</ele><time>2026-03-28T10:23:24Z</time></trkpt><trkpt lat="43.5459004336732" lon="11.22763755974461"><ele>352.0</ele><time>2026-03-28T10:23:25Z</time></trkpt><trkpt lat="43.54563623853694" lon="11.227833663752342"><ele>352.0</ele><time>2026-03-28T10:23:26Z</time></trkpt><trkpt lat="43.54538088271536" lon="11.22802014516714"><ele>352.0</ele><time>2026-03-28T10:23:27Z</time></trkpt><trkpt lat="43.54513802997743" lon="11.228203088966344"><ele>354.5</ele><time>2026-03-28T10:23:28Z</time></trkpt><trkpt lat="43.54487408499749" lon="11.228407854772314"><ele>357.0</ele><time>2026-03-28T10:23:29Z</time></trkpt><trkpt lat="43.544646250037296" lon="11.228585055757001"><ele>357.3333333333333</ele><time>2026-03-28T10:23:30Z</time></trkpt><trkpt lat="43.544465556088134" lon="11.228725677173568"><ele>357.66666666666663</ele><time>2026-03-28T10:23:31Z</time></trkpt><trkpt lat="43.544293844368276" lon="11.228861151985658"><ele>358.0</ele><time>2026-03-28T10:23:32Z</time></trkpt><trkpt lat="43.544137578595276" lon="11.22898518171232"><ele>359.66666666666663</ele><time>2026-03-28T10:23:33Z</time></trkpt><trkpt lat="43.54399113127779" lon="11.229116258496713"><ele>361.3333333333333</ele><time>2026-03-28T10:23:34Z</time></trkpt><trkpt lat="43.54384677735968" lon="11.229223816732363"><ele>363.0</ele><time>2026-03-28T10:23:35Z</time></trkpt><trkpt lat="43.54372100798398" lon="11.229330692397962"><ele>363.5</ele><time>2026-03-28T10:23:36Z</time></trkpt><trkpt lat="43.54359615574741" lon="11.229433042007557"><ele>364.0</ele><time>2026-03-28T10:23:37Z</time></trkpt><trkpt lat="43.543468947358505" lon="11.229530421653513"><ele>364.5</ele><time>2026-03-28T10:23:38Z</time></trkpt><trkpt lat="43.543332002403794" lon="11.22963509638887"><ele>365.0</ele><time>2026-03-28T10:23:39Z</time></trkpt><trkpt lat="43.54319533231831" lon="11.229720037647631"><ele>365.0</ele><time>2026-03-28T10:23:40Z</time></trkpt><trkpt lat="43.543025977742" lon="11.22977220379588"><ele>365.0</ele><time>2026-03-28T10:23:41Z</time></trkpt><trkpt lat="43.54283461397352" lon="11.229851751927098"><ele>365.0</ele><time>2026-03-28T10:23:42Z</time></trkpt><trkpt lat="43.54260734680239" lon="11.229938451002775"><ele>365.0</ele><time>2026-03-28T10:23:43Z</time></trkpt><trkpt lat="43.54236240540788" lon="11.23005276329995"><ele>365.0</ele><time>2026-03-28T10:23:44Z</time></trkpt><trkpt lat="43.54214244342966" lon="11.230130385671345"><ele>365.33333333333337</ele><time>2026-03-28T10:23:45Z</time></trkpt><trkpt lat="43.54194645526917" lon="11.230204582951481"><ele>365.6666666666667</ele><time>2026-03-28T10:23:46Z</time></trkpt><trkpt lat="43.54175239089077" lon="11.230272955803509"><ele>366.0</ele><time>2026-03-28T10:23:47Z</time></trkpt><trkpt lat="43.54155328489304" lon="11.230339262278886"><ele>366.0</ele><time>2026-03-28T10:23:48Z</time></trkpt><trkpt lat="43.54135485900753" lon="11.230415487049386"><ele>366.0</ele><time>2026-03-28T10:23:49Z</time></trkpt><trkpt lat="43.54115440198437" lon="11.23049532336375"><ele>366.0</ele><time>2026-03-28T10:23:50Z</time></trkpt><trkpt lat="43.54094690272426" lon="11.23057199562942"><ele>367.3333333333333</ele><time>2026-03-28T10:23:51Z</time></trkpt><trkpt lat="43.540743242016106" lon="11.230654557338827"><ele>368.66666666666663</ele><time>2026-03-28T10:23:52Z</time></trkpt><trkpt lat="43.5405450023678" lon="11.230752036392389"><ele>370.0</ele><time>2026-03-28T10:23:53Z</time></trkpt><trkpt lat="43.54034816089734" lon="11.230852914109992"><ele>371.0</ele><time>2026-03-28T10:23:54Z</time></trkpt><trkpt lat="43.54015865325596" lon="11.230959219569833"><ele>372.0</ele><time>2026-03-28T10:23:55Z</time></trkpt><trkpt lat="43.539963439190224" lon="11.231062500987365"><ele>373.0</ele><time>2026-03-28T10:23:56Z</time></trkpt><trkpt lat="43.53977070974721" lon="11.23116111588838"><ele>373.0</ele><time>2026-03-28T10:23:57Z</time></trkpt><trkpt lat="43.53957675106628" lon="11.231254975115236"><ele>373.0</ele><time>2026-03-28T10:23:58Z</time></trkpt><trkpt lat="43.53938797166177" lon="11.231362128383108"><ele>373.0</ele><time>2026-03-28T10:23:59Z</time></trkpt><trkpt lat="43.539207768615036" lon="11.231473121656297"><ele>373.0</ele><time>2026-03-28T10:24:00Z</time></trkpt><trkpt lat="43.53903276902543" lon="11.231548814065407"><ele>373.0</ele><time>2026-03-28T10:24:01Z</time></trkpt><trkpt lat="43.538886168762474" lon="11.231656942710803"><ele>373.0</ele><time>2026-03-28T10:24:02Z</time></trkpt><trkpt lat="43.53875733523805" lon="11.23178412789776"><ele>374.3333333333333</ele><time>2026-03-28T10:24:03Z</time></trkpt><trkpt lat="43.53864427568319" lon="11.23192966421689"><ele>375.6666666666667</ele><time>2026-03-28T10:24:04Z</time></trkpt><trkpt lat="43.53854911060924" lon="11.232109742694117"><ele>377.0</ele><time>2026-03-28T10:24:05Z</time></trkpt><trkpt lat="43.538474006306586" lon="11.232323406153712"><ele>377.0</ele><time>2026-03-28T10:24:06Z</time></trkpt><trkpt lat="43.53841424296219" lon="11.232561291833385"><ele>377.0</ele><time>2026-03-28T10:24:07Z</time></trkpt><trkpt lat="43.5383740454347" lon="11.232816347540282"><ele>377.0</ele><time>2026-03-28T10:24:08Z</time></trkpt><trkpt lat="43.53836134408393" lon="11.233116224186873"><ele>377.5</ele><time>2026-03-28T10:24:09Z</time></trkpt><trkpt lat="43.538357291319386" lon="11.23343690934774"><ele>378.0</ele><time>2026-03-28T10:24:10Z</time></trkpt><trkpt lat="43.5383445650585" lon="11.23377850278758"><ele>381.5</ele><time>2026-03-28T10:24:11Z</time></trkpt><trkpt lat="43.53832777623627" lon="11.234101072759003"><ele>385.0</ele><time>2026-03-28T10:24:12Z</time></trkpt><trkpt lat="43.538308731749126" lon="11.234398600128136"><ele>385.0</ele><time>2026-03-28T10:24:13Z</time></trkpt><trkpt lat="43.53830718627147" lon="11.234670059217997"><ele>385.0</ele><time>2026-03-28T10:24:14Z</time></trkpt><trkpt lat="43.538300069864846" lon="11.234929037836867"><ele>385.0</ele><time>2026-03-28T10:24:15Z</time></trkpt><trkpt lat="43.53829407196308" lon="11.235171108157758"><ele>387.33333333333337</ele><time>2026-03-28T10:24:16Z</time></trkpt><trkpt lat="43.53828450734419" lon="11.235403499350005"><ele>389.66666666666663</ele><time>2026-03-28T10:24:17Z</time></trkpt><trkpt lat="43.538258053594554" lon="11.235626789834823"><ele>392.0</ele><time>2026-03-28T10:24:18Z</time></trkpt><trkpt lat="43.538209248968265" lon="11.235834869407073"><ele>393.0</ele><time>2026-03-28T10:24:19Z</time></trkpt><trkpt lat="43.5381398112369" lon="11.236025724444474"><ele>394.0</ele><time>2026-03-28T10:24:20Z</time></trkpt><trkpt lat="43.53804151019545" lon="11.23620825007419"><ele>395.0</ele><time>2026-03-28T10:24:21Z</time></trkpt><trkpt lat="43.53790725991214" lon="11.236376967250031"><ele>395.0</ele><time>2026-03-28T10:24:22Z</time></trkpt><trkpt lat="43.53773534492701" lon="11.236531678508735"><ele>395.0</ele><time>2026-03-28T10:24:23Z</time></trkpt><trkpt lat="43.53755377372801" lon="11.236679457779825"><ele>395.0</ele><time>2026-03-28T10:24:24Z</time></trkpt><trkpt lat="43.537389053734586" lon="11.236818618118182"><ele>395.0</ele><time>2026-03-28T10:24:25Z</time></trkpt><trkpt lat="43.537228807309944" lon="11.236956075499814"><ele>395.0</ele><time>2026-03-28T10:24:26Z</time></trkpt><trkpt lat="43.5370870925361" lon="11.237095464462937"><ele>395.0</ele><time>2026-03-28T10:24:27Z</time></trkpt><trkpt lat="43.53695059006012" lon="11.237240180219802"><ele>396.66666666666663</ele><time>2026-03-28T10:24:28Z</time></trkpt><trkpt lat="43.536821635821546" lon="11.23741101515106"><ele>398.33333333333337</ele><time>2026-03-28T10:24:29Z</time></trkpt><trkpt lat="43.53670890500009" lon="11.237615034035825"><ele>400.0</ele><time>2026-03-28T10:24:30Z</time></trkpt><trkpt lat="43.53659529142338" lon="11.237831604071463"><ele>400.0</ele><time>2026-03-28T10:24:31Z</time></trkpt><trkpt lat="43.536512639314594" lon="11.23809106869811"><ele>400.0</ele><time>2026-03-28T10:24:32Z</time></trkpt><trkpt lat="43.536439727746945" lon="11.238338293638009"><ele>400.0</ele><time>2026-03-28T10:24:33Z</time></trkpt><trkpt lat="43.53637557045823" lon="11.23854994985581"><ele>400.33333333333337</ele><time>2026-03-28T10:24:34Z</time></trkpt><trkpt lat="43.536315405771305" lon="11.238765615498375"><ele>400.66666666666663</ele><time>2026-03-28T10:24:35Z</time></trkpt><trkpt lat="43.53624368789163" lon="11.238987609822724"><ele>401.0</ele><time>2026-03-28T10:24:36Z</time></trkpt><trkpt lat="43.536174925316296" lon="11.239201030724054"><ele>401.0</ele><time>2026-03-28T10:24:37Z</time></trkpt><trkpt lat="43.53609239943027" lon="11.23941308234642"><ele>401.0</ele><time>2026-03-28T10:24:38Z</time></trkpt><trkpt lat="43.535987633644595" lon="11.23963532835741"><ele>401.0</ele><time>2026-03-28T10:24:39Z</time></trkpt><trkpt lat="43.53586704060309" lon="11.239858156678405"><ele>399.3333333333333</ele><time>2026-03-28T10:24:40Z</time></trkpt><trkpt lat="43.53573807917507" lon="11.240083296846517"><ele>397.66666666666663</ele><time>2026-03-28T10:24:41Z</time></trkpt><trkpt lat="43.535607677058906" lon="11.240293153439842"><ele>396.0</ele><time>2026-03-28T10:24:42Z</time></trkpt><trkpt lat="43.53546572138544" lon="11.240479722637033"><ele>394.0</ele><time>2026-03-28T10:24:43Z</time></trkpt><trkpt lat="43.53531289976725" lon="11.240655352012388"><ele>392.0</ele><time>2026-03-28T10:24:44Z</time></trkpt><trkpt lat="43.53514032905296" lon="11.240814216135991"><ele>390.0</ele><time>2026-03-28T10:24:45Z</time></trkpt><trkpt lat="43.534967974297516" lon="11.240947736414922"><ele>390.0</ele><time>2026-03-28T10:24:46Z</time></trkpt><trkpt lat="43.53480311732005" lon="11.241068722840309"><ele>390.0</ele><time>2026-03-28T10:24:47Z</time></trkpt><trkpt lat="43.5346447826544" lon="11.24118282119584"><ele>390.0</ele><time>2026-03-28T10:24:48Z</time></trkpt><trkpt lat="43.534484646483506" lon="11.241292966451722"><ele>389.33333333333337</ele><time>2026-03-28T10:24:49Z</time></trkpt><trkpt lat="43.53432470730859" lon="11.241397762041984"><ele>388.6666666666667</ele><time>2026-03-28T10:24:50Z</time></trkpt><trkpt lat="43.534203164305005" lon="11.24152750025396"><ele>388.0</ele><time>2026-03-28T10:24:51Z</time></trkpt><trkpt lat="43.53405880242552" lon="11.241609030624689"><ele>388.0</ele><time>2026-03-28T10:24:52Z</time></trkpt><trkpt lat="43.53391435355728" lon="11.24168852217196"><ele>388.0</ele><time>2026-03-28T10:24:53.001Z</time></trkpt><trkpt lat="43.5337843644315" lon="11.241737410258873"><ele>388.0</ele><time>2026-03-28T10:24:54.001Z</time></trkpt><trkpt lat="43.53368717127997" lon="11.241768726529214"><ele>388.0</ele><time>2026-03-28T10:24:55.001Z</time></trkpt><trkpt lat="43.533601002922644" lon="11.241796208293948"><ele>387.59999999999997</ele><time>2026-03-28T10:24:56.001Z</time></trkpt><trkpt lat="43.533533234942205" lon="11.24182210089717"><ele>387.2</ele><time>2026-03-28T10:24:57.001Z</time></trkpt><trkpt lat="43.5334257324539" lon="11.241871120688065"><ele>386.8</ele><time>2026-03-28T10:24:59.001Z</time></trkpt><trkpt lat="43.53335481606855" lon="11.241895178914813"><ele>386.4</ele><time>2026-03-28T10:25:01.001Z</time></trkpt><trkpt lat="43.53329134653858" lon="11.241912054608314"><ele>386.0</ele><time>2026-03-28T10:25:54Z</time></trkpt><trkpt lat="43.53314014926821" lon="11.241956689822896"><ele>386.0</ele><time>2026-03-28T10:25:56Z</time></trkpt><trkpt lat="43.533036496781385" lon="11.24197559504977"><ele>386.0</ele><time>2026-03-28T10:25:57Z</time></trkpt><trkpt lat="43.532940349756835" lon="11.2419835178687"><ele>386.0</ele><time>2026-03-28T10:25:58Z</time></trkpt><trkpt lat="43.53283423380233" lon="11.241987812745633"><ele>386.0</ele><time>2026-03-28T10:25:59Z</time></trkpt><trkpt lat="43.532704638365146" lon="11.241989255234344"><ele>386.0</ele><time>2026-03-28T10:26:00Z</time></trkpt><trkpt lat="43.53257019941404" lon="11.241986685775126"><ele>386.5</ele><time>2026-03-28T10:26:01Z</time></trkpt><trkpt lat="43.532448347862" lon="11.241995826828845"><ele>387.0</ele><time>2026-03-28T10:26:02Z</time></trkpt><trkpt lat="43.5323273976208" lon="11.241989652479765"><ele>387.5</ele><time>2026-03-28T10:26:03Z</time></trkpt><trkpt lat="43.53221244924873" lon="11.242000474053103"><ele>388.0</ele><time>2026-03-28T10:26:04Z</time></trkpt><trkpt lat="43.532080965163324" lon="11.241982905447758"><ele>389.25</ele><time>2026-03-28T10:26:05Z</time></trkpt><trkpt lat="43.531947788049756" lon="11.241991143328514"><ele>390.5</ele><time>2026-03-28T10:26:06Z</time></trkpt><trkpt lat="43.53181644796672" lon="11.24190407480284"><ele>391.75</ele><time>2026-03-28T10:26:07Z</time></trkpt><trkpt lat="43.53168632806783" lon="11.241820173467485"><ele>393.0</ele><time>2026-03-28T10:26:08Z</time></trkpt><trkpt lat="43.531539659002114" lon="11.241721297052663"><ele>393.0</ele><time>2026-03-28T10:26:09Z</time></trkpt><trkpt lat="43.531373105326566" lon="11.241597146179094"><ele>393.0</ele><time>2026-03-28T10:26:10Z</time></trkpt><trkpt lat="43.531200246339345" lon="11.241472851345987"><ele>393.0</ele><time>2026-03-28T10:26:11Z</time></trkpt><trkpt lat="43.53105110067185" lon="11.241333504801107"><ele>394.66666666666663</ele><time>2026-03-28T10:26:12Z</time></trkpt><trkpt lat="43.530904281383386" lon="11.241221909121812"><ele>396.3333333333333</ele><time>2026-03-28T10:26:13Z</time></trkpt><trkpt lat="43.53076996069537" lon="11.241097254230507"><ele>398.0</ele><time>2026-03-28T10:26:14Z</time></trkpt><trkpt lat="43.53061653562681" lon="11.241001455831093"><ele>398.0</ele><time>2026-03-28T10:26:15Z</time></trkpt><trkpt lat="43.530453476962535" lon="11.240911945188675"><ele>398.0</ele><time>2026-03-28T10:26:16Z</time></trkpt><trkpt lat="43.530270131649914" lon="11.240824360993253"><ele>398.0</ele><time>2026-03-28T10:26:17Z</time></trkpt><trkpt lat="43.530062354784036" lon="11.240746375986243"><ele>399.0</ele><time>2026-03-28T10:26:18Z</time></trkpt><trkpt lat="43.52983051968995" lon="11.240687162221306"><ele>400.0</ele><time>2026-03-28T10:26:19Z</time></trkpt><trkpt lat="43.5295939401017" lon="11.240614213138166"><ele>396.0</ele><time>2026-03-28T10:26:20Z</time></trkpt><trkpt lat="43.52937440419022" lon="11.240540343794473"><ele>392.0</ele><time>2026-03-28T10:26:21Z</time></trkpt><trkpt lat="43.52915931365141" lon="11.240427921517535"><ele>392.0</ele><time>2026-03-28T10:26:22Z</time></trkpt><trkpt lat="43.52894840736227" lon="11.240286898024474"><ele>392.0</ele><time>2026-03-28T10:26:23Z</time></trkpt><trkpt lat="43.52873197109333" lon="11.240136855274994"><ele>395.0</ele><time>2026-03-28T10:26:24Z</time></trkpt><trkpt lat="43.52852101790167" lon="11.239988284267486"><ele>398.0</ele><time>2026-03-28T10:26:25Z</time></trkpt><trkpt lat="43.52832251948346" lon="11.239847265212504"><ele>399.0</ele><time>2026-03-28T10:26:26Z</time></trkpt><trkpt lat="43.52813561096045" lon="11.239714735050367"><ele>400.0</ele><time>2026-03-28T10:26:27Z</time></trkpt><trkpt lat="43.52795250712545" lon="11.239584904351839"><ele>401.0</ele><time>2026-03-28T10:26:28Z</time></trkpt><trkpt lat="43.52776219569231" lon="11.239458838192434"><ele>401.0</ele><time>2026-03-28T10:26:29Z</time></trkpt><trkpt lat="43.527559514248495" lon="11.239338165625831"><ele>401.0</ele><time>2026-03-28T10:26:30Z</time></trkpt><trkpt lat="43.52734110800842" lon="11.239222971629827"><ele>401.0</ele><time>2026-03-28T10:26:31Z</time></trkpt><trkpt lat="43.5271079368308" lon="11.239116583173798"><ele>401.0</ele><time>2026-03-28T10:26:32Z</time></trkpt><trkpt lat="43.526858730557315" lon="11.23903464785732"><ele>401.5</ele><time>2026-03-28T10:26:33Z</time></trkpt><trkpt lat="43.526620568053914" lon="11.238959423584516"><ele>402.0</ele><time>2026-03-28T10:26:34Z</time></trkpt><trkpt lat="43.526388887806235" lon="11.238884685466386"><ele>404.0</ele><time>2026-03-28T10:26:35Z</time></trkpt><trkpt lat="43.52615835640862" lon="11.238795037237953"><ele>406.0</ele><time>2026-03-28T10:26:36Z</time></trkpt><trkpt lat="43.52594575946099" lon="11.23870296408707"><ele>406.0</ele><time>2026-03-28T10:26:37Z</time></trkpt><trkpt lat="43.52574588911874" lon="11.238615709385734"><ele>406.0</ele><time>2026-03-28T10:26:38Z</time></trkpt><trkpt lat="43.525561634921495" lon="11.2385395879446"><ele>406.0</ele><time>2026-03-28T10:26:39Z</time></trkpt><trkpt lat="43.52538507062635" lon="11.2384916718907"><ele>406.0</ele><time>2026-03-28T10:26:40Z</time></trkpt><trkpt lat="43.525225794946074" lon="11.238444940357862"><ele>406.0</ele><time>2026-03-28T10:26:41Z</time></trkpt><trkpt lat="43.52507623296855" lon="11.23843063010597"><ele>406.0</ele><time>2026-03-28T10:26:42Z</time></trkpt><trkpt lat="43.524930249500066" lon="11.23848101288228"><ele>406.0</ele><time>2026-03-28T10:26:43Z</time></trkpt><trkpt lat="43.524783296816615" lon="11.238590319000378"><ele>406.0</ele><time>2026-03-28T10:26:44Z</time></trkpt><trkpt lat="43.52464273538465" lon="11.238748521299497"><ele>406.0</ele><time>2026-03-28T10:26:45Z</time></trkpt><trkpt lat="43.52451497860784" lon="11.238930211555754"><ele>407.33333333333337</ele><time>2026-03-28T10:26:46Z</time></trkpt><trkpt lat="43.524404727388166" lon="11.23910716718068"><ele>408.66666666666663</ele><time>2026-03-28T10:26:47Z</time></trkpt><trkpt lat="43.5243335638126" lon="11.239298906241553"><ele>410.0</ele><time>2026-03-28T10:26:48Z</time></trkpt><trkpt lat="43.52428292872717" lon="11.23952451645082"><ele>410.0</ele><time>2026-03-28T10:26:49Z</time></trkpt><trkpt lat="43.52421989335882" lon="11.239739439045321"><ele>410.0</ele><time>2026-03-28T10:26:50Z</time></trkpt><trkpt lat="43.52413308068387" lon="11.23993589790637"><ele>410.0</ele><time>2026-03-28T10:26:51Z</time></trkpt><trkpt lat="43.52403141112672" lon="11.240130517002475"><ele>411.3333333333333</ele><time>2026-03-28T10:26:52Z</time></trkpt><trkpt lat="43.52393120175808" lon="11.240310152579374"><ele>412.66666666666663</ele><time>2026-03-28T10:26:53Z</time></trkpt><trkpt lat="43.52381665134336" lon="11.240478353204962"><ele>414.0</ele><time>2026-03-28T10:26:54Z</time></trkpt><trkpt lat="43.52368061155195" lon="11.240609425825435"><ele>415.33333333333337</ele><time>2026-03-28T10:26:55Z</time></trkpt><trkpt lat="43.52354464110644" lon="11.240711442821846"><ele>416.6666666666667</ele><time>2026-03-28T10:26:56Z</time></trkpt><trkpt lat="43.52338897204996" lon="11.240780807362658"><ele>418.0</ele><time>2026-03-28T10:26:57Z</time></trkpt><trkpt lat="43.52320445475719" lon="11.240869040692989"><ele>418.0</ele><time>2026-03-28T10:26:58Z</time></trkpt><trkpt lat="43.523035629028335" lon="11.24098122304799"><ele>418.0</ele><time>2026-03-28T10:26:59Z</time></trkpt><trkpt lat="43.52286741022248" lon="11.241074717633929"><ele>418.0</ele><time>2026-03-28T10:27:00Z</time></trkpt><trkpt lat="43.52271063251461" lon="11.241212476221156"><ele>417.6666666666667</ele><time>2026-03-28T10:27:01Z</time></trkpt><trkpt lat="43.52255416552025" lon="11.24140013648857"><ele>417.33333333333337</ele><time>2026-03-28T10:27:02Z</time></trkpt><trkpt lat="43.52239724074668" lon="11.241624693904091"><ele>417.0</ele><time>2026-03-28T10:27:03Z</time></trkpt><trkpt lat="43.522256045104015" lon="11.241869677856737"><ele>417.66666666666663</ele><time>2026-03-28T10:27:04Z</time></trkpt><trkpt lat="43.52214566961408" lon="11.24211876539466"><ele>418.3333333333333</ele><time>2026-03-28T10:27:05Z</time></trkpt><trkpt lat="43.52206475822393" lon="11.242377219190791"><ele>419.0</ele><time>2026-03-28T10:27:06Z</time></trkpt><trkpt lat="43.52199843456175" lon="11.242664906256305"><ele>421.3333333333333</ele><time>2026-03-28T10:27:07Z</time></trkpt><trkpt lat="43.52194443023939" lon="11.24297306727324"><ele>423.66666666666663</ele><time>2026-03-28T10:27:08Z</time></trkpt><trkpt lat="43.52188408541208" lon="11.24325914414418"><ele>426.0</ele><time>2026-03-28T10:27:09Z</time></trkpt><trkpt lat="43.5218258034264" lon="11.24350107678156"><ele>427.0</ele><time>2026-03-28T10:27:10Z</time></trkpt><trkpt lat="43.52176592351786" lon="11.243741252819296"><ele>428.0</ele><time>2026-03-28T10:27:11Z</time></trkpt><trkpt lat="43.52170859955276" lon="11.243998219379042"><ele>429.0</ele><time>2026-03-28T10:27:12Z</time></trkpt><trkpt lat="43.52165347449802" lon="11.244262550023901"><ele>429.0</ele><time>2026-03-28T10:27:13.001Z</time></trkpt><trkpt lat="43.52160103477122" lon="11.244516201058259"><ele>429.0</ele><time>2026-03-28T10:27:14.001Z</time></trkpt><trkpt lat="43.52155012501261" lon="11.244752804903694"><ele>429.0</ele><time>2026-03-28T10:27:15.001Z</time></trkpt><trkpt lat="43.52149381367842" lon="11.244984436543136"><ele>429.33333333333337</ele><time>2026-03-28T10:27:16.001Z</time></trkpt><trkpt lat="43.52140331477023" lon="11.245191380378214"><ele>429.6666666666667</ele><time>2026-03-28T10:27:17.001Z</time></trkpt><trkpt lat="43.521288408559705" lon="11.245384011784688"><ele>430.0</ele><time>2026-03-28T10:27:18.001Z</time></trkpt><trkpt lat="43.521148144143616" lon="11.245551694661364"><ele>429.0</ele><time>2026-03-28T10:27:19.001Z</time></trkpt><trkpt lat="43.520980792469885" lon="11.245691445961482"><ele>428.0</ele><time>2026-03-28T10:27:20.001Z</time></trkpt><trkpt lat="43.52077494040397" lon="11.245833780002489"><ele>427.0</ele><time>2026-03-28T10:27:21.001Z</time></trkpt><trkpt lat="43.520557198266204" lon="11.245964337932893"><ele>426.33333333333337</ele><time>2026-03-28T10:27:22.001Z</time></trkpt><trkpt lat="43.520362927871986" lon="11.246100337692612"><ele>425.66666666666663</ele><time>2026-03-28T10:27:23.001Z</time></trkpt><trkpt lat="43.52018996383966" lon="11.246200532425137"><ele>425.0</ele><time>2026-03-28T10:27:24.001Z</time></trkpt><trkpt lat="43.52001973754123" lon="11.246307309474757"><ele>425.0</ele><time>2026-03-28T10:27:25.001Z</time></trkpt><trkpt lat="43.519876503729584" lon="11.24644663414893"><ele>425.0</ele><time>2026-03-28T10:27:26.001Z</time></trkpt><trkpt lat="43.51972359226358" lon="11.246649374028776"><ele>425.0</ele><time>2026-03-28T10:27:27Z</time></trkpt><trkpt lat="43.519561846963256" lon="11.246832806553522"><ele>423.3333333333333</ele><time>2026-03-28T10:27:28Z</time></trkpt><trkpt lat="43.5194203615951" lon="11.247026519790047"><ele>421.66666666666663</ele><time>2026-03-28T10:27:29Z</time></trkpt><trkpt lat="43.51925183867313" lon="11.247209024295394"><ele>420.0</ele><time>2026-03-28T10:27:30Z</time></trkpt><trkpt lat="43.51907288155816" lon="11.247380455107711"><ele>419.0</ele><time>2026-03-28T10:27:31Z</time></trkpt><trkpt lat="43.518895968570106" lon="11.24753692687177"><ele>418.0</ele><time>2026-03-28T10:27:32Z</time></trkpt><trkpt lat="43.51872026833863" lon="11.247679591489476"><ele>417.0</ele><time>2026-03-28T10:27:33Z</time></trkpt><trkpt lat="43.51855064370087" lon="11.24781155586089"><ele>415.66666666666663</ele><time>2026-03-28T10:27:34Z</time></trkpt><trkpt lat="43.51837802737875" lon="11.247926730756413"><ele>414.3333333333333</ele><time>2026-03-28T10:27:35Z</time></trkpt><trkpt lat="43.518184502916874" lon="11.24798624026441"><ele>413.0</ele><time>2026-03-28T10:27:36Z</time></trkpt><trkpt lat="43.51799186499471" lon="11.2480457829372"><ele>412.0</ele><time>2026-03-28T10:27:37Z</time></trkpt><trkpt lat="43.51779509096974" lon="11.24809162246695"><ele>411.0</ele><time>2026-03-28T10:27:38Z</time></trkpt><trkpt lat="43.51759194351738" lon="11.248122253915907"><ele>410.0</ele><time>2026-03-28T10:27:39Z</time></trkpt><trkpt lat="43.51739997378964" lon="11.248117789127285"><ele>410.0</ele><time>2026-03-28T10:27:40Z</time></trkpt><trkpt lat="43.51721568496102" lon="11.248083668636719"><ele>410.0</ele><time>2026-03-28T10:27:41Z</time></trkpt><trkpt lat="43.517023169998794" lon="11.248033503809365"><ele>410.0</ele><time>2026-03-28T10:27:42Z</time></trkpt><trkpt lat="43.516835156954315" lon="11.247982236870035"><ele>412.66666666666663</ele><time>2026-03-28T10:27:43Z</time></trkpt><trkpt lat="43.516666381600125" lon="11.247921760901832"><ele>415.33333333333337</ele><time>2026-03-28T10:27:44Z</time></trkpt><trkpt lat="43.516513802281175" lon="11.247838514408587"><ele>418.0</ele><time>2026-03-28T10:27:45Z</time></trkpt><trkpt lat="43.516353249750104" lon="11.247703499009818"><ele>420.0</ele><time>2026-03-28T10:27:46Z</time></trkpt><trkpt lat="43.516205380683914" lon="11.247529292772166"><ele>422.0</ele><time>2026-03-28T10:27:47Z</time></trkpt><trkpt lat="43.51606346251635" lon="11.247387477362375"><ele>424.0</ele><time>2026-03-28T10:27:48Z</time></trkpt><trkpt lat="43.515910635709766" lon="11.247276641821363"><ele>424.6666666666667</ele><time>2026-03-28T10:27:49Z</time></trkpt><trkpt lat="43.515727781097354" lon="11.247168479831435"><ele>425.33333333333337</ele><time>2026-03-28T10:27:50Z</time></trkpt><trkpt lat="43.51553124655034" lon="11.247047888544701"><ele>426.0</ele><time>2026-03-28T10:27:51Z</time></trkpt><trkpt lat="43.51534971005953" lon="11.246985574565642"><ele>428.66666666666663</ele><time>2026-03-28T10:27:52Z</time></trkpt><trkpt lat="43.51518198721461" lon="11.24691111708482"><ele>431.3333333333333</ele><time>2026-03-28T10:27:53Z</time></trkpt><trkpt lat="43.51499887257065" lon="11.246876772024171"><ele>434.0</ele><time>2026-03-28T10:27:54Z</time></trkpt><trkpt lat="43.51481470522682" lon="11.246880426390854"><ele>434.0</ele><time>2026-03-28T10:27:55Z</time></trkpt><trkpt lat="43.51465153822658" lon="11.246872120402818"><ele>434.0</ele><time>2026-03-28T10:27:56Z</time></trkpt><trkpt lat="43.5145121900145" lon="11.246836251291333"><ele>434.0</ele><time>2026-03-28T10:27:57Z</time></trkpt><trkpt lat="43.51438881311201" lon="11.246764431718551"><ele>434.0</ele><time>2026-03-28T10:27:58Z</time></trkpt><trkpt lat="43.51426244424038" lon="11.246656022638158"><ele>438.3333333333333</ele><time>2026-03-28T10:27:59Z</time></trkpt><trkpt lat="43.51411423722689" lon="11.246517309837209"><ele>442.66666666666663</ele><time>2026-03-28T10:28:00Z</time></trkpt><trkpt lat="43.51397786306793" lon="11.246374766588673"><ele>447.0</ele><time>2026-03-28T10:28:01Z</time></trkpt><trkpt lat="43.513869586161874" lon="11.246238942249283"><ele>447.0</ele><time>2026-03-28T10:28:02Z</time></trkpt><trkpt lat="43.51379340264836" lon="11.246096449409327"><ele>447.0</ele><time>2026-03-28T10:28:03Z</time></trkpt><trkpt lat="43.5137540083294" lon="11.245945717658955"><ele>447.0</ele><time>2026-03-28T10:28:04Z</time></trkpt><trkpt lat="43.51377131817516" lon="11.245789797227655"><ele>447.0</ele><time>2026-03-28T10:28:05Z</time></trkpt><trkpt lat="43.5138096995068" lon="11.245625887963374"><ele>448.0</ele><time>2026-03-28T10:28:06Z</time></trkpt><trkpt lat="43.51384678756066" lon="11.245426469530603"><ele>449.0</ele><time>2026-03-28T10:28:07Z</time></trkpt><trkpt lat="43.51389749826059" lon="11.245259771186072"><ele>450.0</ele><time>2026-03-28T10:28:08Z</time></trkpt><trkpt lat="43.513901114578275" lon="11.24509328678648"><ele>451.0</ele><time>2026-03-28T10:28:09Z</time></trkpt><trkpt lat="43.5138557960873" lon="11.244927274942242"><ele>449.33333333333337</ele><time>2026-03-28T10:28:10Z</time></trkpt><trkpt lat="43.5137631587539" lon="11.244795963681858"><ele>447.66666666666663</ele><time>2026-03-28T10:28:11Z</time></trkpt><trkpt lat="43.513617696662934" lon="11.244686260508036"><ele>446.0</ele><time>2026-03-28T10:28:12Z</time></trkpt><trkpt lat="43.513457387488394" lon="11.244562034115857"><ele>451.66666666666663</ele><time>2026-03-28T10:28:13Z</time></trkpt><trkpt lat="43.51328079323884" lon="11.2444088255774"><ele>457.33333333333337</ele><time>2026-03-28T10:28:14Z</time></trkpt><trkpt lat="43.513090404019025" lon="11.244216202348289"><ele>463.0</ele><time>2026-03-28T10:28:15Z</time></trkpt><trkpt lat="43.512912576771086" lon="11.244040024790063"><ele>464.75</ele><time>2026-03-28T10:28:16Z</time></trkpt><trkpt lat="43.5127671854792" lon="11.243905344309114"><ele>466.5</ele><time>2026-03-28T10:28:17Z</time></trkpt><trkpt lat="43.51264117350042" lon="11.243822856895479"><ele>468.25</ele><time>2026-03-28T10:28:18Z</time></trkpt><trkpt lat="43.51254316870036" lon="11.243742173101833"><ele>470.0</ele><time>2026-03-28T10:28:19Z</time></trkpt><trkpt lat="43.51241618448489" lon="11.24373847209816"><ele>470.0</ele><time>2026-03-28T10:28:20Z</time></trkpt><trkpt lat="43.51226059082265" lon="11.243795998862076"><ele>470.0</ele><time>2026-03-28T10:28:21Z</time></trkpt><trkpt lat="43.512087527310115" lon="11.24388410676021"><ele>470.0</ele><time>2026-03-28T10:28:22Z</time></trkpt><trkpt lat="43.51187811279537" lon="11.243949867198204"><ele>477.0</ele><time>2026-03-28T10:28:23Z</time></trkpt><trkpt lat="43.51165259372851" lon="11.244035323019974"><ele>484.0</ele><time>2026-03-28T10:28:24Z</time></trkpt><trkpt lat="43.51144455555176" lon="11.244114154835081"><ele>484.0</ele><time>2026-03-28T10:28:25Z</time></trkpt><trkpt lat="43.5112773606102" lon="11.244177509922443"><ele>484.0</ele><time>2026-03-28T10:28:26Z</time></trkpt><trkpt lat="43.51111091344933" lon="11.244256073874125"><ele>484.0</ele><time>2026-03-28T10:28:27Z</time></trkpt><trkpt lat="43.510944288325135" lon="11.244265440891056"><ele>484.5</ele><time>2026-03-28T10:28:28Z</time></trkpt><trkpt lat="43.510786347872234" lon="11.244265791113868"><ele>485.0</ele><time>2026-03-28T10:28:29Z</time></trkpt><trkpt lat="43.51064698715864" lon="11.244240769321623"><ele>485.5</ele><time>2026-03-28T10:28:30Z</time></trkpt><trkpt lat="43.51052357746204" lon="11.244201240319667"><ele>486.0</ele><time>2026-03-28T10:28:31Z</time></trkpt><trkpt lat="43.510413064293495" lon="11.244154418212634"><ele>487.20000000000005</ele><time>2026-03-28T10:28:32Z</time></trkpt><trkpt lat="43.510311256134436" lon="11.244095527138208"><ele>488.40000000000003</ele><time>2026-03-28T10:28:33Z</time></trkpt><trkpt lat="43.51021392323739" lon="11.24402802158933"><ele>489.6</ele><time>2026-03-28T10:28:34Z</time></trkpt><trkpt lat="43.51014043275359" lon="11.243947273307784"><ele>490.8</ele><time>2026-03-28T10:28:35Z</time></trkpt><trkpt lat="43.51007300783886" lon="11.243841356765573"><ele>492.0</ele><time>2026-03-28T10:28:36Z</time></trkpt><trkpt lat="43.51000963735503" lon="11.24370388473146"><ele>492.0</ele><time>2026-03-28T10:28:37Z</time></trkpt><trkpt lat="43.50992674596366" lon="11.243538399826443"><ele>492.0</ele><time>2026-03-28T10:28:38Z</time></trkpt><trkpt lat="43.50984681243263" lon="11.243389519053851"><ele>492.0</ele><time>2026-03-28T10:28:39Z</time></trkpt><trkpt lat="43.50977821258349" lon="11.243260376815222"><ele>492.0</ele><time>2026-03-28T10:28:40Z</time></trkpt><trkpt lat="43.5097047734814" lon="11.243146090602245"><ele>490.0</ele><time>2026-03-28T10:28:41Z</time></trkpt><trkpt lat="43.50960218972279" lon="11.243054060247857"><ele>488.0</ele><time>2026-03-28T10:28:42Z</time></trkpt><trkpt lat="43.5094818694014" lon="11.242981116241364"><ele>486.0</ele><time>2026-03-28T10:28:43Z</time></trkpt><trkpt lat="43.50936299331683" lon="11.2429142689309"><ele>484.0</ele><time>2026-03-28T10:28:44Z</time></trkpt><trkpt lat="43.50925663711712" lon="11.242855666339395"><ele>488.0</ele><time>2026-03-28T10:28:45Z</time></trkpt><trkpt lat="43.509152336712035" lon="11.242813104176319"><ele>492.0</ele><time>2026-03-28T10:28:46Z</time></trkpt><trkpt lat="43.50903523976778" lon="11.242795138002785"><ele>496.0</ele><time>2026-03-28T10:28:47Z</time></trkpt><trkpt lat="43.5089045316439" lon="11.242844794566567"><ele>500.0</ele><time>2026-03-28T10:28:48Z</time></trkpt><trkpt lat="43.50877476529849" lon="11.24293393382265"><ele>500.0</ele><time>2026-03-28T10:28:49Z</time></trkpt><trkpt lat="43.50866082874546" lon="11.243034291569485"><ele>500.0</ele><time>2026-03-28T10:28:50Z</time></trkpt><trkpt lat="43.50854533675133" lon="11.243109501885458"><ele>500.0</ele><time>2026-03-28T10:28:51Z</time></trkpt><trkpt lat="43.50842981894493" lon="11.243175338730563"><ele>500.0</ele><time>2026-03-28T10:28:52Z</time></trkpt><trkpt lat="43.508307697551544" lon="11.243232204982789"><ele>500.0</ele><time>2026-03-28T10:28:53Z</time></trkpt><trkpt lat="43.50816193508596" lon="11.243214814478382"><ele>500.0</ele><time>2026-03-28T10:28:54Z</time></trkpt><trkpt lat="43.50797161188612" lon="11.24321329811202"><ele>500.0</ele><time>2026-03-28T10:28:55Z</time></trkpt><trkpt lat="43.50774933240942" lon="11.243206314069175"><ele>500.0</ele><time>2026-03-28T10:28:56Z</time></trkpt><trkpt lat="43.50753505061015" lon="11.24319973296055"><ele>500.0</ele><time>2026-03-28T10:28:57Z</time></trkpt><trkpt lat="43.507340702852375" lon="11.243221677529295"><ele>500.0</ele><time>2026-03-28T10:28:58Z</time></trkpt><trkpt lat="43.50713781822888" lon="11.243278835245249"><ele>502.66666666666663</ele><time>2026-03-28T10:28:59Z</time></trkpt><trkpt lat="43.50694590412229" lon="11.243391051149706"><ele>505.33333333333337</ele><time>2026-03-28T10:29:00Z</time></trkpt><trkpt lat="43.506775779604546" lon="11.243510813703805"><ele>508.0</ele><time>2026-03-28T10:29:01Z</time></trkpt><trkpt lat="43.50662007990544" lon="11.243609251766703"><ele>508.0</ele><time>2026-03-28T10:29:02Z</time></trkpt><trkpt lat="43.50646760323098" lon="11.243630241144794"><ele>508.0</ele><time>2026-03-28T10:29:03Z</time></trkpt><trkpt lat="43.506335685346755" lon="11.243586400092708"><ele>508.0</ele><time>2026-03-28T10:29:04Z</time></trkpt><trkpt lat="43.506190067466115" lon="11.24351021779739"><ele>508.0</ele><time>2026-03-28T10:29:05Z</time></trkpt><trkpt lat="43.50601446498148" lon="11.243424573852696"><ele>511.33333333333337</ele><time>2026-03-28T10:29:06Z</time></trkpt><trkpt lat="43.50583415097339" lon="11.243361084180599"><ele>514.6666666666666</ele><time>2026-03-28T10:29:07Z</time></trkpt><trkpt lat="43.50568279451853" lon="11.243302718154427"><ele>518.0</ele><time>2026-03-28T10:29:08Z</time></trkpt><trkpt lat="43.50553526525392" lon="11.243292017593303"><ele>519.6666666666666</ele><time>2026-03-28T10:29:09Z</time></trkpt><trkpt lat="43.5053783515533" lon="11.243328397246366"><ele>521.3333333333334</ele><time>2026-03-28T10:29:10Z</time></trkpt><trkpt lat="43.50519564968458" lon="11.243390439838533"><ele>523.0</ele><time>2026-03-28T10:29:11Z</time></trkpt><trkpt lat="43.50502549029924" lon="11.243474312640409"><ele>523.0</ele><time>2026-03-28T10:29:12Z</time></trkpt><trkpt lat="43.504856233483366" lon="11.243548435143218"><ele>523.0</ele><time>2026-03-28T10:29:13Z</time></trkpt><trkpt lat="43.50472820623689" lon="11.243680982380841"><ele>523.0</ele><time>2026-03-28T10:29:14Z</time></trkpt><trkpt lat="43.50459820501644" lon="11.243845209701677"><ele>523.6666666666667</ele><time>2026-03-28T10:29:15Z</time></trkpt><trkpt lat="43.50445269987367" lon="11.244008904521323"><ele>524.3333333333334</ele><time>2026-03-28T10:29:16Z</time></trkpt><trkpt lat="43.50431277149957" lon="11.244159790157813"><ele>525.0</ele><time>2026-03-28T10:29:17Z</time></trkpt><trkpt lat="43.50418923344429" lon="11.244295369550626"><ele>525.0</ele><time>2026-03-28T10:29:18Z</time></trkpt><trkpt lat="43.50406442715689" lon="11.244428905452642"><ele>525.0</ele><time>2026-03-28T10:29:19Z</time></trkpt><trkpt lat="43.50394443590922" lon="11.24457941135146"><ele>525.0</ele><time>2026-03-28T10:29:20Z</time></trkpt><trkpt lat="43.503798628412774" lon="11.244778004440276"><ele>527.0</ele><time>2026-03-28T10:29:21Z</time></trkpt><trkpt lat="43.503651630205745" lon="11.24502704895392"><ele>529.0</ele><time>2026-03-28T10:29:22Z</time></trkpt><trkpt lat="43.50353219958057" lon="11.245271634796651"><ele>531.0</ele><time>2026-03-28T10:29:23Z</time></trkpt><trkpt lat="43.50341660204178" lon="11.24547113432715"><ele>530.0</ele><time>2026-03-28T10:29:24Z</time></trkpt><trkpt lat="43.503286432857614" lon="11.24565548814412"><ele>529.0</ele><time>2026-03-28T10:29:25Z</time></trkpt><trkpt lat="43.50313217693803" lon="11.245851846022317"><ele>528.0</ele><time>2026-03-28T10:29:26Z</time></trkpt><trkpt lat="43.502953744401914" lon="11.246019751308314"><ele>526.6666666666666</ele><time>2026-03-28T10:29:27Z</time></trkpt><trkpt lat="43.50281364552526" lon="11.246179347165691"><ele>525.3333333333333</ele><time>2026-03-28T10:29:28Z</time></trkpt><trkpt lat="43.50269088007835" lon="11.246357502953067"><ele>524.0</ele><time>2026-03-28T10:29:29Z</time></trkpt><trkpt lat="43.502594147261235" lon="11.246565564560417"><ele>524.0</ele><time>2026-03-28T10:29:30Z</time></trkpt><trkpt lat="43.502522857980665" lon="11.246779638200563"><ele>524.0</ele><time>2026-03-28T10:29:31Z</time></trkpt><trkpt lat="43.50247357412439" lon="11.24701672829958"><ele>524.0</ele><time>2026-03-28T10:29:32Z</time></trkpt><trkpt lat="43.50242822332506" lon="11.247262804551315"><ele>525.3333333333333</ele><time>2026-03-28T10:29:33Z</time></trkpt><trkpt lat="43.5023828662382" lon="11.247501488170407"><ele>526.6666666666666</ele><time>2026-03-28T10:29:34Z</time></trkpt><trkpt lat="43.502334189707355" lon="11.247753771846131"><ele>528.0</ele><time>2026-03-28T10:29:35Z</time></trkpt><trkpt lat="43.50227023279552" lon="11.247987164146215"><ele>528.25</ele><time>2026-03-28T10:29:36Z</time></trkpt><trkpt lat="43.50222394047481" lon="11.248186810500213"><ele>528.5</ele><time>2026-03-28T10:29:37Z</time></trkpt><trkpt lat="43.50219666354818" lon="11.248367515196017"><ele>528.75</ele><time>2026-03-28T10:29:38Z</time></trkpt><trkpt lat="43.502191107765356" lon="11.248583045213119"><ele>529.0</ele><time>2026-03-28T10:29:39Z</time></trkpt><trkpt lat="43.50219367734289" lon="11.248819162185878"><ele>530.25</ele><time>2026-03-28T10:29:40Z</time></trkpt><trkpt lat="43.50219150018459" lon="11.249029449866368"><ele>531.5</ele><time>2026-03-28T10:29:41Z</time></trkpt><trkpt lat="43.502171813071634" lon="11.249215979764502"><ele>532.75</ele><time>2026-03-28T10:29:42Z</time></trkpt><trkpt lat="43.502125971863514" lon="11.249384628429212"><ele>534.0</ele><time>2026-03-28T10:29:43Z</time></trkpt><trkpt lat="43.50205021468084" lon="11.249523999688002"><ele>538.25</ele><time>2026-03-28T10:29:44Z</time></trkpt><trkpt lat="43.501950749458466" lon="11.249624711041788"><ele>542.5</ele><time>2026-03-28T10:29:45Z</time></trkpt><trkpt lat="43.501835184501466" lon="11.249689899407974"><ele>546.75</ele><time>2026-03-28T10:29:46Z</time></trkpt><trkpt lat="43.50170246261582" lon="11.24971350643076"><ele>551.0</ele><time>2026-03-28T10:29:47Z</time></trkpt><trkpt lat="43.501546597651476" lon="11.249717273462549"><ele>551.0</ele><time>2026-03-28T10:29:48Z</time></trkpt><trkpt lat="43.50137265195333" lon="11.249718731555141"><ele>551.0</ele><time>2026-03-28T10:29:49Z</time></trkpt><trkpt lat="43.50117213565877" lon="11.249728571643242"><ele>551.0</ele><time>2026-03-28T10:29:50Z</time></trkpt><trkpt lat="43.50094391520938" lon="11.24975196876126"><ele>555.0</ele><time>2026-03-28T10:29:51Z</time></trkpt><trkpt lat="43.50069098561729" lon="11.249777683123366"><ele>559.0</ele><time>2026-03-28T10:29:52Z</time></trkpt><trkpt lat="43.50041987607851" lon="11.249783083044088"><ele>555.0</ele><time>2026-03-28T10:29:53Z</time></trkpt><trkpt lat="43.50018732124074" lon="11.249841034680443"><ele>551.0</ele><time>2026-03-28T10:29:54Z</time></trkpt><trkpt lat="43.49995988417009" lon="11.249873256805172"><ele>551.0</ele><time>2026-03-28T10:29:55Z</time></trkpt><trkpt lat="43.49974421310992" lon="11.249901554660712"><ele>551.0</ele><time>2026-03-28T10:29:56Z</time></trkpt><trkpt lat="43.49953660443376" lon="11.24992279423162"><ele>551.0</ele><time>2026-03-28T10:29:57Z</time></trkpt><trkpt lat="43.499332703315964" lon="11.24993515860243"><ele>551.3333333333333</ele><time>2026-03-28T10:29:58Z</time></trkpt><trkpt lat="43.499135794760086" lon="11.249950973433068"><ele>551.6666666666666</ele><time>2026-03-28T10:29:59Z</time></trkpt><trkpt lat="43.49893500717922" lon="11.249974784454272"><ele>552.0</ele><time>2026-03-28T10:30:00Z</time></trkpt><trkpt lat="43.49874502720996" lon="11.250015616060267"><ele>553.0</ele><time>2026-03-28T10:30:01Z</time></trkpt><trkpt lat="43.49857887655824" lon="11.250078453651522"><ele>554.0</ele><time>2026-03-28T10:30:02Z</time></trkpt><trkpt lat="43.49842152343166" lon="11.250166093179255"><ele>555.0</ele><time>2026-03-28T10:30:03Z</time></trkpt><trkpt lat="43.49827159891131" lon="11.250285812240579"><ele>555.0</ele><time>2026-03-28T10:30:04Z</time></trkpt><trkpt lat="43.49812971627196" lon="11.250439048968476"><ele>555.0</ele><time>2026-03-28T10:30:05Z</time></trkpt><trkpt lat="43.49801810069179" lon="11.250606918892425"><ele>555.0</ele><time>2026-03-28T10:30:06Z</time></trkpt><trkpt lat="43.4979019101287" lon="11.250741634512323"><ele>557.75</ele><time>2026-03-28T10:30:07Z</time></trkpt><trkpt lat="43.49779147960805" lon="11.250856864368565"><ele>560.5</ele><time>2026-03-28T10:30:08Z</time></trkpt><trkpt lat="43.49765133431071" lon="11.250943325906944"><ele>563.25</ele><time>2026-03-28T10:30:09Z</time></trkpt><trkpt lat="43.49752329154772" lon="11.250997469990693"><ele>566.0</ele><time>2026-03-28T10:30:10Z</time></trkpt><trkpt lat="43.49739553525225" lon="11.251024686123648"><ele>566.0</ele><time>2026-03-28T10:30:11Z</time></trkpt><trkpt lat="43.4972479084666" lon="11.250996918799263"><ele>566.0</ele><time>2026-03-28T10:30:12Z</time></trkpt><trkpt lat="43.49710843791469" lon="11.250948989536077"><ele>566.0</ele><time>2026-03-28T10:30:13Z</time></trkpt><trkpt lat="43.49694984271213" lon="11.250885608874512"><ele>565.0</ele><time>2026-03-28T10:30:14Z</time></trkpt><trkpt lat="43.496797143379865" lon="11.250789947459072"><ele>564.0</ele><time>2026-03-28T10:30:15Z</time></trkpt><trkpt lat="43.496639044030154" lon="11.250691598972585"><ele>563.0</ele><time>2026-03-28T10:30:16Z</time></trkpt><trkpt lat="43.49648298127006" lon="11.2505936437379"><ele>563.25</ele><time>2026-03-28T10:30:17Z</time></trkpt><trkpt lat="43.49634426785382" lon="11.25051013642479"><ele>563.5</ele><time>2026-03-28T10:30:18Z</time></trkpt><trkpt lat="43.49620441461476" lon="11.250453254547677"><ele>563.75</ele><time>2026-03-28T10:30:19Z</time></trkpt><trkpt lat="43.496068992925906" lon="11.250474611138843"><ele>564.0</ele><time>2026-03-28T10:30:20Z</time></trkpt><trkpt lat="43.49593406299525" lon="11.250541502765447"><ele>564.0</ele><time>2026-03-28T10:30:21Z</time></trkpt><trkpt lat="43.49582215889435" lon="11.250689082738417"><ele>564.0</ele><time>2026-03-28T10:30:22Z</time></trkpt><trkpt lat="43.495711299168704" lon="11.25087815069344"><ele>564.0</ele><time>2026-03-28T10:30:23Z</time></trkpt><trkpt lat="43.49562021217262" lon="11.251049005261612"><ele>564.0</ele><time>2026-03-28T10:30:24Z</time></trkpt><trkpt lat="43.495543605743755" lon="11.251202683704436"><ele>564.0</ele><time>2026-03-28T10:30:25Z</time></trkpt><trkpt lat="43.49548549984538" lon="11.251359180269825"><ele>564.0</ele><time>2026-03-28T10:30:26Z</time></trkpt><trkpt lat="43.49543919553183" lon="11.251537903902854"><ele>564.0</ele><time>2026-03-28T10:30:27Z</time></trkpt><trkpt lat="43.495406514963406" lon="11.251726065456474"><ele>563.75</ele><time>2026-03-28T10:30:28Z</time></trkpt><trkpt lat="43.49538212029757" lon="11.251891932065547"><ele>563.5</ele><time>2026-03-28T10:30:29Z</time></trkpt><trkpt lat="43.495355080627085" lon="11.252054974001407"><ele>563.25</ele><time>2026-03-28T10:30:30Z</time></trkpt><trkpt lat="43.49532202742494" lon="11.252208329204947"><ele>563.0</ele><time>2026-03-28T10:30:31Z</time></trkpt><trkpt lat="43.49528115597522" lon="11.2523595121641"><ele>563.75</ele><time>2026-03-28T10:30:32Z</time></trkpt><trkpt lat="43.49522749225453" lon="11.252515133277814"><ele>564.5</ele><time>2026-03-28T10:30:33Z</time></trkpt><trkpt lat="43.49515019328472" lon="11.252691752007154"><ele>565.25</ele><time>2026-03-28T10:30:34Z</time></trkpt><trkpt lat="43.495029460761806" lon="11.252849638569094"><ele>566.0</ele><time>2026-03-28T10:30:35Z</time></trkpt><trkpt lat="43.494915445832454" lon="11.253015994074719"><ele>568.3333333333333</ele><time>2026-03-28T10:30:36Z</time></trkpt><trkpt lat="43.494801043142076" lon="11.25315618959369"><ele>570.6666666666666</ele><time>2026-03-28T10:30:37Z</time></trkpt><trkpt lat="43.49472701143367" lon="11.253347839577321"><ele>573.0</ele><time>2026-03-28T10:30:38Z</time></trkpt><trkpt lat="43.49467724045707" lon="11.253589192844169"><ele>573.0</ele><time>2026-03-28T10:30:39Z</time></trkpt><trkpt lat="43.49465306679255" lon="11.253874997059263"><ele>573.0</ele><time>2026-03-28T10:30:40Z</time></trkpt><trkpt lat="43.494649465935275" lon="11.254171440058442"><ele>573.0</ele><time>2026-03-28T10:30:41Z</time></trkpt><trkpt lat="43.49465095228993" lon="11.254423475823774"><ele>572.6666666666666</ele><time>2026-03-28T10:30:42Z</time></trkpt><trkpt lat="43.4946417394789" lon="11.254659922619338"><ele>572.3333333333333</ele><time>2026-03-28T10:30:43Z</time></trkpt><trkpt lat="43.4946106222462" lon="11.254894771974246"><ele>572.0</ele><time>2026-03-28T10:30:44Z</time></trkpt><trkpt lat="43.49454236191996" lon="11.255126858098023"><ele>572.0</ele><time>2026-03-28T10:30:45Z</time></trkpt><trkpt lat="43.49446555330673" lon="11.255328058962037"><ele>572.0</ele><time>2026-03-28T10:30:46Z</time></trkpt><trkpt lat="43.494393222753004" lon="11.255492710045205"><ele>572.0</ele><time>2026-03-28T10:30:47Z</time></trkpt><trkpt lat="43.494322447718034" lon="11.255630329334037"><ele>572.0</ele><time>2026-03-28T10:30:48Z</time></trkpt><trkpt lat="43.49421805955651" lon="11.255735563083167"><ele>575.0</ele><time>2026-03-28T10:30:49Z</time></trkpt><trkpt lat="43.4941112236297" lon="11.255784461604765"><ele>578.0</ele><time>2026-03-28T10:30:50Z</time></trkpt><trkpt lat="43.49398289445306" lon="11.255793791905502"><ele>581.0</ele><time>2026-03-28T10:30:51Z</time></trkpt><trkpt lat="43.49382951953451" lon="11.25575070170522"><ele>584.0</ele><time>2026-03-28T10:30:52Z</time></trkpt><trkpt lat="43.49371269236057" lon="11.255706303962578"><ele>584.0</ele><time>2026-03-28T10:30:53Z</time></trkpt><trkpt lat="43.49359056300455" lon="11.255686308896916"><ele>584.0</ele><time>2026-03-28T10:30:54Z</time></trkpt><trkpt lat="43.49347246635475" lon="11.255674236643298"><ele>584.0</ele><time>2026-03-28T10:30:55Z</time></trkpt><trkpt lat="43.493353343489716" lon="11.25571830278128"><ele>584.0</ele><time>2026-03-28T10:30:56Z</time></trkpt><trkpt lat="43.49326719349051" lon="11.255821529439302"><ele>584.0</ele><time>2026-03-28T10:30:57Z</time></trkpt><trkpt lat="43.49319612855783" lon="11.25601133945885"><ele>584.0</ele><time>2026-03-28T10:30:58Z</time></trkpt><trkpt lat="43.493140373854835" lon="11.256274248519546"><ele>584.0</ele><time>2026-03-28T10:30:59Z</time></trkpt><trkpt lat="43.49309374270076" lon="11.256580618291741"><ele>585.3333333333333</ele><time>2026-03-28T10:31:00Z</time></trkpt><trkpt lat="43.493057868219424" lon="11.256846950275555"><ele>586.6666666666666</ele><time>2026-03-28T10:31:01Z</time></trkpt><trkpt lat="43.493021090367" lon="11.257080429428754"><ele>588.0</ele><time>2026-03-28T10:31:02Z</time></trkpt><trkpt lat="43.492955342383326" lon="11.257279715319694"><ele>588.3333333333334</ele><time>2026-03-28T10:31:03Z</time></trkpt><trkpt lat="43.492852438976314" lon="11.257444556943563"><ele>588.6666666666667</ele><time>2026-03-28T10:31:04Z</time></trkpt><trkpt lat="43.49269973782483" lon="11.257564930351817"><ele>589.0</ele><time>2026-03-28T10:31:05Z</time></trkpt><trkpt lat="43.492515823455854" lon="11.257693459286157"><ele>589.0</ele><time>2026-03-28T10:31:06Z</time></trkpt><trkpt lat="43.492350735231646" lon="11.257835447538906"><ele>589.0</ele><time>2026-03-28T10:31:07Z</time></trkpt><trkpt lat="43.49220364365299" lon="11.258034679828162"><ele>589.0</ele><time>2026-03-28T10:31:08Z</time></trkpt><trkpt lat="43.49206732319965" lon="11.25825622937467"><ele>587.6666666666667</ele><time>2026-03-28T10:31:09Z</time></trkpt><trkpt lat="43.491944643353264" lon="11.258443110100188"><ele>586.3333333333334</ele><time>2026-03-28T10:31:10Z</time></trkpt><trkpt lat="43.49180383142566" lon="11.258634074116964"><ele>585.0</ele><time>2026-03-28T10:31:11Z</time></trkpt><trkpt lat="43.49163903668614" lon="11.258816827916558"><ele>587.0</ele><time>2026-03-28T10:31:12Z</time></trkpt><trkpt lat="43.49144961421821" lon="11.258969496668158"><ele>589.0</ele><time>2026-03-28T10:31:13Z</time></trkpt><trkpt lat="43.49126023953209" lon="11.259096738731202"><ele>591.0</ele><time>2026-03-28T10:31:14Z</time></trkpt><trkpt lat="43.491078200017654" lon="11.259208187793467"><ele>593.3333333333334</ele><time>2026-03-28T10:31:15Z</time></trkpt><trkpt lat="43.49090616846608" lon="11.259312366057896"><ele>595.6666666666667</ele><time>2026-03-28T10:31:16Z</time></trkpt><trkpt lat="43.49075048835541" lon="11.259406641919984"><ele>598.0</ele><time>2026-03-28T10:31:17Z</time></trkpt><trkpt lat="43.49061756173768" lon="11.259519768466259"><ele>598.0</ele><time>2026-03-28T10:31:18Z</time></trkpt><trkpt lat="43.49048982031655" lon="11.25962097618587"><ele>598.0</ele><time>2026-03-28T10:31:19Z</time></trkpt><trkpt lat="43.49038788390755" lon="11.25976707418151"><ele>598.0</ele><time>2026-03-28T10:31:20Z</time></trkpt><trkpt lat="43.49030926747156" lon="11.259942920586225"><ele>598.0</ele><time>2026-03-28T10:31:21Z</time></trkpt><trkpt lat="43.490248049864434" lon="11.260140120036732"><ele>597.5</ele><time>2026-03-28T10:31:22Z</time></trkpt><trkpt lat="43.49017480601467" lon="11.260319717583922"><ele>597.0</ele><time>2026-03-28T10:31:23Z</time></trkpt><trkpt lat="43.490088208196326" lon="11.26047166375351"><ele>596.5</ele><time>2026-03-28T10:31:24Z</time></trkpt><trkpt lat="43.48997759688302" lon="11.260604345241157"><ele>596.0</ele><time>2026-03-28T10:31:25Z</time></trkpt><trkpt lat="43.48983804893403" lon="11.260685451536004"><ele>596.0</ele><time>2026-03-28T10:31:26Z</time></trkpt><trkpt lat="43.489676819641204" lon="11.260731855346247"><ele>596.0</ele><time>2026-03-28T10:31:27Z</time></trkpt><trkpt lat="43.489496254658214" lon="11.260754680027963"><ele>596.0</ele><time>2026-03-28T10:31:28Z</time></trkpt><trkpt lat="43.48933340704155" lon="11.26077905764968"><ele>595.6666666666666</ele><time>2026-03-28T10:31:29Z</time></trkpt><trkpt lat="43.489182935992076" lon="11.260832465359027"><ele>595.3333333333334</ele><time>2026-03-28T10:31:30Z</time></trkpt><trkpt lat="43.48902482387035" lon="11.260944101302785"><ele>595.0</ele><time>2026-03-28T10:31:31Z</time></trkpt><trkpt lat="43.488851734990355" lon="11.261092985612299"><ele>595.6666666666667</ele><time>2026-03-28T10:31:32Z</time></trkpt><trkpt lat="43.48866656201615" lon="11.261245948609403"><ele>596.3333333333334</ele><time>2026-03-28T10:31:33Z</time></trkpt><trkpt lat="43.48850416678975" lon="11.261371506489741"><ele>597.0</ele><time>2026-03-28T10:31:34Z</time></trkpt><trkpt lat="43.4883460532575" lon="11.261491125340104"><ele>597.0</ele><time>2026-03-28T10:31:35Z</time></trkpt><trkpt lat="43.488191013979204" lon="11.261589256161447"><ele>597.0</ele><time>2026-03-28T10:31:36Z</time></trkpt><trkpt lat="43.48805134242167" lon="11.261667357252069"><ele>597.0</ele><time>2026-03-28T10:31:37Z</time></trkpt><trkpt lat="43.487923386927505" lon="11.26173775105677"><ele>596.3333333333334</ele><time>2026-03-28T10:31:38Z</time></trkpt><trkpt lat="43.487803604380005" lon="11.26182920565356"><ele>595.6666666666667</ele><time>2026-03-28T10:31:39Z</time></trkpt><trkpt lat="43.48765889509061" lon="11.261977996587275"><ele>595.0</ele><time>2026-03-28T10:31:40Z</time></trkpt><trkpt lat="43.487532115882466" lon="11.262232147589506"><ele>594.6666666666667</ele><time>2026-03-28T10:31:41Z</time></trkpt><trkpt lat="43.48739613421361" lon="11.262487791977641"><ele>594.3333333333334</ele><time>2026-03-28T10:31:42Z</time></trkpt><trkpt lat="43.48725842319182" lon="11.262670913436173"><ele>594.0</ele><time>2026-03-28T10:31:43Z</time></trkpt><trkpt lat="43.48713445029719" lon="11.262846252435807"><ele>592.3333333333334</ele><time>2026-03-28T10:31:44Z</time></trkpt><trkpt lat="43.486976297244766" lon="11.262972114856451"><ele>590.6666666666667</ele><time>2026-03-28T10:31:45Z</time></trkpt><trkpt lat="43.486819756170384" lon="11.26308594846086"><ele>589.0</ele><time>2026-03-28T10:31:46Z</time></trkpt><trkpt lat="43.48664829200692" lon="11.263211558413778"><ele>592.0</ele><time>2026-03-28T10:31:47Z</time></trkpt><trkpt lat="43.48645734059927" lon="11.263318347317814"><ele>595.0</ele><time>2026-03-28T10:31:48Z</time></trkpt><trkpt lat="43.486263458876934" lon="11.263401383714225"><ele>598.0</ele><time>2026-03-28T10:31:49Z</time></trkpt><trkpt lat="43.48608113856237" lon="11.263490944350517"><ele>598.0</ele><time>2026-03-28T10:31:50Z</time></trkpt><trkpt lat="43.48590267582538" lon="11.263561144221484"><ele>598.0</ele><time>2026-03-28T10:31:51Z</time></trkpt><trkpt lat="43.48572096612385" lon="11.263626555209449"><ele>598.0</ele><time>2026-03-28T10:31:52Z</time></trkpt><trkpt lat="43.48554316603372" lon="11.263705343958577"><ele>599.0</ele><time>2026-03-28T10:31:53Z</time></trkpt><trkpt lat="43.485370776484956" lon="11.263765706828442"><ele>600.0</ele><time>2026-03-28T10:31:54Z</time></trkpt><trkpt lat="43.485204684442536" lon="11.263840490492482"><ele>601.0</ele><time>2026-03-28T10:31:55Z</time></trkpt><trkpt lat="43.48504142150907" lon="11.263953860116414"><ele>599.0</ele><time>2026-03-28T10:31:56Z</time></trkpt><trkpt lat="43.48487477723018" lon="11.264101656634399"><ele>597.0</ele><time>2026-03-28T10:31:57Z</time></trkpt><trkpt lat="43.48470402341653" lon="11.264297374676627"><ele>595.0</ele><time>2026-03-28T10:31:58Z</time></trkpt><trkpt lat="43.48454309578279" lon="11.264514824990513"><ele>593.6666666666667</ele><time>2026-03-28T10:31:59Z</time></trkpt><trkpt lat="43.48439435299598" lon="11.264733064044888"><ele>592.3333333333334</ele><time>2026-03-28T10:32:00Z</time></trkpt><trkpt lat="43.48423005348166" lon="11.264934192857698"><ele>591.0</ele><time>2026-03-28T10:32:01Z</time></trkpt><trkpt lat="43.484067812717484" lon="11.265085162862077"><ele>591.0</ele><time>2026-03-28T10:32:02Z</time></trkpt><trkpt lat="43.483914622211586" lon="11.265223915392324"><ele>591.0</ele><time>2026-03-28T10:32:03Z</time></trkpt><trkpt lat="43.483756920739886" lon="11.265359336833745"><ele>591.0</ele><time>2026-03-28T10:32:04Z</time></trkpt><trkpt lat="43.48359994688831" lon="11.26549428506476"><ele>591.6666666666666</ele><time>2026-03-28T10:32:05Z</time></trkpt><trkpt lat="43.483463499542154" lon="11.265625452482206"><ele>592.3333333333333</ele><time>2026-03-28T10:32:06Z</time></trkpt><trkpt lat="43.483339907139865" lon="11.265779734046617"><ele>593.0</ele><time>2026-03-28T10:32:07Z</time></trkpt><trkpt lat="43.483250401717065" lon="11.26596530221628"><ele>593.0</ele><time>2026-03-28T10:32:08Z</time></trkpt><trkpt lat="43.483182277384074" lon="11.266195340437706"><ele>593.0</ele><time>2026-03-28T10:32:09Z</time></trkpt><trkpt lat="43.48314170930253" lon="11.266408621582688"><ele>593.0</ele><time>2026-03-28T10:32:10Z</time></trkpt><trkpt lat="43.483107192068125" lon="11.266602300036046"><ele>594.0</ele><time>2026-03-28T10:32:11Z</time></trkpt><trkpt lat="43.48305963042198" lon="11.26679748984132"><ele>595.0</ele><time>2026-03-28T10:32:12Z</time></trkpt><trkpt lat="43.482987260084855" lon="11.266975934484808"><ele>596.0</ele><time>2026-03-28T10:32:13Z</time></trkpt><trkpt lat="43.48288630936563" lon="11.267118419306394"><ele>597.0</ele><time>2026-03-28T10:32:14Z</time></trkpt><trkpt lat="43.482752944204925" lon="11.267245380904019"><ele>598.0</ele><time>2026-03-28T10:32:15Z</time></trkpt><trkpt lat="43.4825943326813" lon="11.267380886117104"><ele>599.0</ele><time>2026-03-28T10:32:16Z</time></trkpt><trkpt lat="43.48242010740468" lon="11.267523538045896"><ele>600.0</ele><time>2026-03-28T10:32:17Z</time></trkpt><trkpt lat="43.48226735556748" lon="11.267645515187535"><ele>600.0</ele><time>2026-03-28T10:32:18Z</time></trkpt><trkpt lat="43.482106345872985" lon="11.267778645566741"><ele>600.0</ele><time>2026-03-28T10:32:19Z</time></trkpt><trkpt lat="43.48192654211915" lon="11.267931472539239"><ele>600.0</ele><time>2026-03-28T10:32:20Z</time></trkpt><trkpt lat="43.481761862333215" lon="11.268053105288937"><ele>604.0</ele><time>2026-03-28T10:32:21Z</time></trkpt><trkpt lat="43.481589311109325" lon="11.268140845892404"><ele>608.0</ele><time>2026-03-28T10:32:22Z</time></trkpt><trkpt lat="43.48139590885413" lon="11.26822058413304"><ele>612.0</ele><time>2026-03-28T10:32:23Z</time></trkpt><trkpt lat="43.48122860551559" lon="11.268287370300769"><ele>613.0</ele><time>2026-03-28T10:32:24Z</time></trkpt><trkpt lat="43.481080368693064" lon="11.268336784382598"><ele>614.0</ele><time>2026-03-28T10:32:25Z</time></trkpt><trkpt lat="43.48092795475045" lon="11.268359819367133"><ele>615.0</ele><time>2026-03-28T10:32:26Z</time></trkpt><trkpt lat="43.4807506871006" lon="11.268370577980328"><ele>615.0</ele><time>2026-03-28T10:32:27Z</time></trkpt><trkpt lat="43.480556330263305" lon="11.268323591063021"><ele>615.0</ele><time>2026-03-28T10:32:28Z</time></trkpt><trkpt lat="43.480361620339224" lon="11.268247619629241"><ele>615.0</ele><time>2026-03-28T10:32:29Z</time></trkpt><trkpt lat="43.48017309069337" lon="11.26816496420785"><ele>616.6666666666666</ele><time>2026-03-28T10:32:30Z</time></trkpt><trkpt lat="43.47995788145448" lon="11.268090670862511"><ele>618.3333333333333</ele><time>2026-03-28T10:32:31Z</time></trkpt><trkpt lat="43.47974055532028" lon="11.268050756941681"><ele>620.0</ele><time>2026-03-28T10:32:32Z</time></trkpt><trkpt lat="43.47957415534647" lon="11.26802996432834"><ele>620.0</ele><time>2026-03-28T10:32:33Z</time></trkpt><trkpt lat="43.479407191799034" lon="11.26802018275885"><ele>620.0</ele><time>2026-03-28T10:32:34Z</time></trkpt><trkpt lat="43.47924390699215" lon="11.268013938418735"><ele>620.0</ele><time>2026-03-28T10:32:35Z</time></trkpt><trkpt lat="43.47909263230713" lon="11.26801277712348"><ele>620.0</ele><time>2026-03-28T10:32:36Z</time></trkpt><trkpt lat="43.478937861258196" lon="11.268019872617534"><ele>620.0</ele><time>2026-03-28T10:32:37Z</time></trkpt><trkpt lat="43.478803938283335" lon="11.268067528174846"><ele>620.0</ele><time>2026-03-28T10:32:38Z</time></trkpt><trkpt lat="43.478675190659274" lon="11.268112245789185"><ele>620.0</ele><time>2026-03-28T10:32:39Z</time></trkpt><trkpt lat="43.47855356424581" lon="11.268218848314207"><ele>621.6666666666666</ele><time>2026-03-28T10:32:40Z</time></trkpt><trkpt lat="43.47843404318606" lon="11.268345120109885"><ele>623.3333333333334</ele><time>2026-03-28T10:32:41Z</time></trkpt><trkpt lat="43.478298757857864" lon="11.268511136116828"><ele>625.0</ele><time>2026-03-28T10:32:42Z</time></trkpt><trkpt lat="43.47815182703606" lon="11.268714196093285"><ele>625.0</ele><time>2026-03-28T10:32:43Z</time></trkpt><trkpt lat="43.47798509685715" lon="11.2689434797716"><ele>625.0</ele><time>2026-03-28T10:32:44Z</time></trkpt><trkpt lat="43.47783955653469" lon="11.269146274406596"><ele>625.0</ele><time>2026-03-28T10:32:45Z</time></trkpt><trkpt lat="43.47771227046432" lon="11.269339251065064"><ele>625.0</ele><time>2026-03-28T10:32:46Z</time></trkpt><trkpt lat="43.477583279859125" lon="11.269517168709783"><ele>625.0</ele><time>2026-03-28T10:32:47Z</time></trkpt><trkpt lat="43.477441187277044" lon="11.26968671022831"><ele>625.0</ele><time>2026-03-28T10:32:48Z</time></trkpt><trkpt lat="43.47729752712663" lon="11.269823494185937"><ele>624.6666666666667</ele><time>2026-03-28T10:32:49Z</time></trkpt><trkpt lat="43.47718094222834" lon="11.269998576619836"><ele>624.3333333333334</ele><time>2026-03-28T10:32:50Z</time></trkpt><trkpt lat="43.47705663495268" lon="11.270178819546125"><ele>624.0</ele><time>2026-03-28T10:32:51Z</time></trkpt><trkpt lat="43.47695716997364" lon="11.27036983278445"><ele>624.0</ele><time>2026-03-28T10:32:52Z</time></trkpt><trkpt lat="43.47687430671918" lon="11.27057298973139"><ele>624.0</ele><time>2026-03-28T10:32:53Z</time></trkpt><trkpt lat="43.47678710149564" lon="11.270793309095556"><ele>624.0</ele><time>2026-03-28T10:32:54Z</time></trkpt><trkpt lat="43.47670138024449" lon="11.270998804486267"><ele>624.6666666666666</ele><time>2026-03-28T10:32:55Z</time></trkpt><trkpt lat="43.47661471893754" lon="11.271183556654654"><ele>625.3333333333333</ele><time>2026-03-28T10:32:56Z</time></trkpt><trkpt lat="43.47653704487359" lon="11.271379824527807"><ele>626.0</ele><time>2026-03-28T10:32:57Z</time></trkpt><trkpt lat="43.47644166108575" lon="11.27158048030723"><ele>627.0</ele><time>2026-03-28T10:32:58Z</time></trkpt><trkpt lat="43.47631086598021" lon="11.271756382250013"><ele>628.0</ele><time>2026-03-28T10:32:59Z</time></trkpt><trkpt lat="43.47615867384867" lon="11.27193985176385"><ele>629.0</ele><time>2026-03-28T10:33:00Z</time></trkpt><trkpt lat="43.47601392637375" lon="11.272125282299218"><ele>625.0</ele><time>2026-03-28T10:33:01Z</time></trkpt><trkpt lat="43.47585939492679" lon="11.272257736329635"><ele>621.0</ele><time>2026-03-28T10:33:02Z</time></trkpt><trkpt lat="43.47573563089007" lon="11.272422805971603"><ele>617.0</ele><time>2026-03-28T10:33:03Z</time></trkpt><trkpt lat="43.47560974047855" lon="11.272570272798315"><ele>617.0</ele><time>2026-03-28T10:33:04Z</time></trkpt><trkpt lat="43.4754861434303" lon="11.272757874721357"><ele>617.0</ele><time>2026-03-28T10:33:05Z</time></trkpt><trkpt lat="43.47534276551057" lon="11.272969398467467"><ele>617.0</ele><time>2026-03-28T10:33:06Z</time></trkpt><trkpt lat="43.47521419019393" lon="11.273195573397967"><ele>614.6666666666666</ele><time>2026-03-28T10:33:07Z</time></trkpt><trkpt lat="43.475113044996675" lon="11.273414802221579"><ele>612.3333333333334</ele><time>2026-03-28T10:33:08Z</time></trkpt><trkpt lat="43.47500424370506" lon="11.273625375827809"><ele>610.0</ele><time>2026-03-28T10:33:09Z</time></trkpt><trkpt lat="43.47491805872599" lon="11.273856768860202"><ele>610.3333333333334</ele><time>2026-03-28T10:33:10Z</time></trkpt><trkpt lat="43.474848745811165" lon="11.274135318208602"><ele>610.6666666666666</ele><time>2026-03-28T10:33:11Z</time></trkpt><trkpt lat="43.47478928509781" lon="11.27442213921933"><ele>611.0</ele><time>2026-03-28T10:33:12Z</time></trkpt><trkpt lat="43.47472886492676" lon="11.274658630397537"><ele>611.6666666666666</ele><time>2026-03-28T10:33:13Z</time></trkpt><trkpt lat="43.47469671393901" lon="11.274918729813951"><ele>612.3333333333334</ele><time>2026-03-28T10:33:14Z</time></trkpt><trkpt lat="43.47469186147392" lon="11.275151583799047"><ele>613.0</ele><time>2026-03-28T10:33:15Z</time></trkpt><trkpt lat="43.47470905595999" lon="11.275385530299953"><ele>614.0</ele><time>2026-03-28T10:33:16Z</time></trkpt><trkpt lat="43.47474032986955" lon="11.27560462877917"><ele>615.0</ele><time>2026-03-28T10:33:17Z</time></trkpt><trkpt lat="43.47476745784878" lon="11.275800937205409"><ele>616.0</ele><time>2026-03-28T10:33:18Z</time></trkpt><trkpt lat="43.4747808236986" lon="11.276014214460893"><ele>616.0</ele><time>2026-03-28T10:33:19Z</time></trkpt><trkpt lat="43.47478678679237" lon="11.276226064572601"><ele>616.0</ele><time>2026-03-28T10:33:20Z</time></trkpt><trkpt lat="43.47477852202579" lon="11.27642108956329"><ele>616.0</ele><time>2026-03-28T10:33:21Z</time></trkpt><trkpt lat="43.47476680308835" lon="11.276591110174834"><ele>616.0</ele><time>2026-03-28T10:33:22Z</time></trkpt><trkpt lat="43.474747204195644" lon="11.276738620805444"><ele>615.6</ele><time>2026-03-28T10:33:23Z</time></trkpt><trkpt lat="43.47469502119737" lon="11.276848607764546"><ele>615.2</ele><time>2026-03-28T10:33:24Z</time></trkpt><trkpt lat="43.474666914942446" lon="11.27696749623624"><ele>614.8</ele><time>2026-03-28T10:33:25Z</time></trkpt><trkpt lat="43.47459634233666" lon="11.277063026001379"><ele>614.4</ele><time>2026-03-28T10:33:26Z</time></trkpt><trkpt lat="43.47452481200628" lon="11.277186791666685"><ele>614.0</ele><time>2026-03-28T10:33:27Z</time></trkpt><trkpt lat="43.474466528891035" lon="11.277305564804312"><ele>612.8333333333333</ele><time>2026-03-28T10:33:28Z</time></trkpt><trkpt lat="43.47441738467442" lon="11.277415092598185"><ele>611.6666666666666</ele><time>2026-03-28T10:33:29Z</time></trkpt><trkpt lat="43.47437511043897" lon="11.277502912424728"><ele>610.5</ele><time>2026-03-28T10:33:30Z</time></trkpt><trkpt lat="43.47433255380812" lon="11.277590971727728"><ele>609.3333333333334</ele><time>2026-03-28T10:33:31Z</time></trkpt><trkpt lat="43.47429163851888" lon="11.27767649675427"><ele>608.1666666666667</ele><time>2026-03-28T10:33:32Z</time></trkpt><trkpt lat="43.47424516200086" lon="11.277775590348163"><ele>607.0</ele><time>2026-03-28T10:33:33Z</time></trkpt><trkpt lat="43.47418717409526" lon="11.277904874620873"><ele>607.0</ele><time>2026-03-28T10:33:34Z</time></trkpt><trkpt lat="43.47409531186435" lon="11.27807712218854"><ele>607.0</ele><time>2026-03-28T10:33:35Z</time></trkpt><trkpt lat="43.47399117717399" lon="11.278280042495245"><ele>607.0</ele><time>2026-03-28T10:33:36Z</time></trkpt><trkpt lat="43.47390575479119" lon="11.278464078183177"><ele>605.75</ele><time>2026-03-28T10:33:37Z</time></trkpt><trkpt lat="43.47381479710207" lon="11.278606852335601"><ele>604.5</ele><time>2026-03-28T10:33:38Z</time></trkpt><trkpt lat="43.47373155103269" lon="11.278755168238703"><ele>603.25</ele><time>2026-03-28T10:33:39Z</time></trkpt><trkpt lat="43.47363237764532" lon="11.278894809795531"><ele>602.0</ele><time>2026-03-28T10:33:40Z</time></trkpt><trkpt lat="43.47351520844434" lon="11.279026953376523"><ele>600.0</ele><time>2026-03-28T10:33:41Z</time></trkpt><trkpt lat="43.47342507047759" lon="11.279179121749934"><ele>598.0</ele><time>2026-03-28T10:33:42Z</time></trkpt><trkpt lat="43.473340795957625" lon="11.279318770453767"><ele>596.0</ele><time>2026-03-28T10:33:43Z</time></trkpt><trkpt lat="43.47325602479831" lon="11.27944985933249"><ele>594.0</ele><time>2026-03-28T10:33:44Z</time></trkpt><trkpt lat="43.47320530129962" lon="11.279615626976"><ele>592.25</ele><time>2026-03-28T10:33:45Z</time></trkpt><trkpt lat="43.47315993597468" lon="11.279783878039229"><ele>590.5</ele><time>2026-03-28T10:33:46Z</time></trkpt><trkpt lat="43.473125908986596" lon="11.279954658725655"><ele>588.75</ele><time>2026-03-28T10:33:47Z</time></trkpt><trkpt lat="43.473095581109256" lon="11.280117533390987"><ele>587.0</ele><time>2026-03-28T10:33:48Z</time></trkpt><trkpt lat="43.47306551763429" lon="11.28027816799502"><ele>587.0</ele><time>2026-03-28T10:33:49Z</time></trkpt><trkpt lat="43.47301395136464" lon="11.280431836943931"><ele>587.0</ele><time>2026-03-28T10:33:50Z</time></trkpt><trkpt lat="43.47294287929515" lon="11.280564192292493"><ele>587.0</ele><time>2026-03-28T10:33:51Z</time></trkpt><trkpt lat="43.47288930218694" lon="11.280704174484617"><ele>587.0</ele><time>2026-03-28T10:33:52Z</time></trkpt><trkpt lat="43.47282409240003" lon="11.280821326038833"><ele>586.8000000000001</ele><time>2026-03-28T10:33:53Z</time></trkpt><trkpt lat="43.47277289885866" lon="11.280924957623958"><ele>586.6</ele><time>2026-03-28T10:33:54Z</time></trkpt><trkpt lat="43.472722049100945" lon="11.281030372977067"><ele>586.4000000000001</ele><time>2026-03-28T10:33:55Z</time></trkpt><trkpt lat="43.4726651223614" lon="11.281140354717245"><ele>586.2</ele><time>2026-03-28T10:33:56Z</time></trkpt><trkpt lat="43.47259159390838" lon="11.28125241798363"><ele>586.0</ele><time>2026-03-28T10:33:57Z</time></trkpt><trkpt lat="43.472494761485954" lon="11.281364915271023"><ele>587.75</ele><time>2026-03-28T10:33:58Z</time></trkpt><trkpt lat="43.472391876818754" lon="11.281477750413433"><ele>589.5</ele><time>2026-03-28T10:33:59Z</time></trkpt><trkpt lat="43.47229457494126" lon="11.281596700020245"><ele>591.25</ele><time>2026-03-28T10:34:00Z</time></trkpt><trkpt lat="43.472212133269544" lon="11.281720556621618"><ele>593.0</ele><time>2026-03-28T10:34:01Z</time></trkpt><trkpt lat="43.47214589605203" lon="11.28183638821585"><ele>593.0</ele><time>2026-03-28T10:34:02Z</time></trkpt><trkpt lat="43.47211528491368" lon="11.28196220315405"><ele>593.0</ele><time>2026-03-28T10:34:03Z</time></trkpt><trkpt lat="43.47208822006692" lon="11.282086519151456"><ele>593.0</ele><time>2026-03-28T10:34:04Z</time></trkpt><trkpt lat="43.47205446588343" lon="11.282250789865083"><ele>593.0</ele><time>2026-03-28T10:34:05Z</time></trkpt><trkpt lat="43.47200843840883" lon="11.282415755370288"><ele>593.0</ele><time>2026-03-28T10:34:06Z</time></trkpt><trkpt lat="43.47197657338455" lon="11.282593731023423"><ele>590.75</ele><time>2026-03-28T10:34:07Z</time></trkpt><trkpt lat="43.471942494829314" lon="11.282766827971152"><ele>588.5</ele><time>2026-03-28T10:34:08Z</time></trkpt><trkpt lat="43.47190776771422" lon="11.282927742396343"><ele>586.25</ele><time>2026-03-28T10:34:09Z</time></trkpt><trkpt lat="43.47187126700448" lon="11.283083728290716"><ele>584.0</ele><time>2026-03-28T10:34:10Z</time></trkpt><trkpt lat="43.47183728127822" lon="11.283242563542352"><ele>583.0</ele><time>2026-03-28T10:34:11Z</time></trkpt><trkpt lat="43.471801057911655" lon="11.283403298351253"><ele>582.0</ele><time>2026-03-28T10:34:12Z</time></trkpt><trkpt lat="43.47176408654734" lon="11.28357559918972"><ele>581.0</ele><time>2026-03-28T10:34:13Z</time></trkpt><trkpt lat="43.47172900025541" lon="11.283744085075467"><ele>580.0</ele><time>2026-03-28T10:34:14Z</time></trkpt><trkpt lat="43.47169571871024" lon="11.28390054019946"><ele>579.8</ele><time>2026-03-28T10:34:15Z</time></trkpt><trkpt lat="43.47166306733756" lon="11.284050961627855"><ele>579.6</ele><time>2026-03-28T10:34:16Z</time></trkpt><trkpt lat="43.471631700488906" lon="11.284200732649058"><ele>579.4</ele><time>2026-03-28T10:34:17Z</time></trkpt><trkpt lat="43.47160965018542" lon="11.284352428311092"><ele>579.2</ele><time>2026-03-28T10:34:18Z</time></trkpt><trkpt lat="43.47159035755101" lon="11.284499783057955"><ele>579.0</ele><time>2026-03-28T10:34:19Z</time></trkpt><trkpt lat="43.47158188703643" lon="11.284637835190749"><ele>578.5</ele><time>2026-03-28T10:34:20Z</time></trkpt><trkpt lat="43.471579859225876" lon="11.284784644572117"><ele>578.0</ele><time>2026-03-28T10:34:21Z</time></trkpt><trkpt lat="43.471570196114875" lon="11.284907694118166"><ele>577.5</ele><time>2026-03-28T10:34:22Z</time></trkpt><trkpt lat="43.47154356017083" lon="11.285019490282581"><ele>577.0</ele><time>2026-03-28T10:34:23Z</time></trkpt><trkpt lat="43.47154033406791" lon="11.28513480243355"><ele>576.5</ele><time>2026-03-28T10:34:24Z</time></trkpt><trkpt lat="43.47150441495996" lon="11.285232266113344"><ele>576.0</ele><time>2026-03-28T10:34:25Z</time></trkpt><trkpt lat="43.47148769083585" lon="11.285326157659545"><ele>576.0</ele><time>2026-03-28T10:34:26Z</time></trkpt><trkpt lat="43.47145838882079" lon="11.285417300601692"><ele>576.0</ele><time>2026-03-28T10:34:28Z</time></trkpt><trkpt lat="43.471418825440715" lon="11.285489278043102"><ele>576.0</ele><time>2026-03-28T10:34:32Z</time></trkpt><trkpt lat="43.47135297727267" lon="11.285433758790903"><ele>576.0</ele><time>2026-03-28T10:34:33Z</time></trkpt><trkpt lat="43.47128888015008" lon="11.28539009715695"><ele>576.0</ele><time>2026-03-28T10:34:37Z</time></trkpt><trkpt lat="43.471169638899255" lon="11.285401487093042"><ele>576.0</ele><time>2026-03-28T10:34:41Z</time></trkpt><trkpt lat="43.47105077526901" lon="11.285416591849206"><ele>573.6666666666666</ele><time>2026-03-28T10:34:42Z</time></trkpt><trkpt lat="43.4708989536025" lon="11.285443729064141"><ele>571.3333333333333</ele><time>2026-03-28T10:34:43Z</time></trkpt><trkpt lat="43.470701304993355" lon="11.285538005013708"><ele>569.0</ele><time>2026-03-28T10:34:44Z</time></trkpt><trkpt lat="43.47053532772695" lon="11.285641684335436"><ele>568.75</ele><time>2026-03-28T10:34:45Z</time></trkpt><trkpt lat="43.470399853191324" lon="11.28572072947344"><ele>568.5</ele><time>2026-03-28T10:34:46Z</time></trkpt><trkpt lat="43.47028867521211" lon="11.285789954646125"><ele>568.25</ele><time>2026-03-28T10:34:47Z</time></trkpt><trkpt lat="43.470188376957914" lon="11.285843484633267"><ele>568.0</ele><time>2026-03-28T10:34:48Z</time></trkpt><trkpt lat="43.47009575354695" lon="11.285894521741396"><ele>568.0</ele><time>2026-03-28T10:34:49Z</time></trkpt><trkpt lat="43.4700259783815" lon="11.28593330603013"><ele>568.0</ele><time>2026-03-28T10:34:50Z</time></trkpt><trkpt lat="43.46995884075901" lon="11.285977262726703"><ele>568.0</ele><time>2026-03-28T10:34:51Z</time></trkpt><trkpt lat="43.46989300803298" lon="11.28600611815693"><ele>568.0</ele><time>2026-03-28T10:34:52Z</time></trkpt><trkpt lat="43.4698026032495" lon="11.286015646598164"><ele>568.0</ele><time>2026-03-28T10:34:54Z</time></trkpt><trkpt lat="43.469887126292555" lon="11.285995338060784"><ele>568.0</ele><time>2026-03-28T10:34:58Z</time></trkpt><trkpt lat="43.469970295834706" lon="11.285997866831819"><ele>568.0</ele><time>2026-03-28T10:35:00Z</time></trkpt><trkpt lat="43.470064851057884" lon="11.285948624320962"><ele>568.0</ele><time>2026-03-28T10:35:02Z</time></trkpt><trkpt lat="43.4701236755115" lon="11.28591206065577"><ele>568.0</ele><time>2026-03-28T10:35:03Z</time></trkpt><trkpt lat="43.47023502435949" lon="11.28584454862009"><ele>568.0</ele><time>2026-03-28T10:35:05Z</time></trkpt><trkpt lat="43.47030095930367" lon="11.285811703269323"><ele>568.0</ele><time>2026-03-28T10:35:06Z</time></trkpt><trkpt lat="43.4703707497837" lon="11.28577494386728"><ele>568.0</ele><time>2026-03-28T10:35:07Z</time></trkpt><trkpt lat="43.47048669631904" lon="11.285715425946348"><ele>568.1666666666667</ele><time>2026-03-28T10:35:09Z</time></trkpt><trkpt lat="43.47055383482657" lon="11.285685011136287"><ele>568.3333333333334</ele><time>2026-03-28T10:35:10Z</time></trkpt><trkpt lat="43.470629797936155" lon="11.28565252714897"><ele>568.5</ele><time>2026-03-28T10:35:11Z</time></trkpt><trkpt lat="43.47071185379595" lon="11.285607162149612"><ele>568.6666666666666</ele><time>2026-03-28T10:35:12Z</time></trkpt><trkpt lat="43.47078429147465" lon="11.285561965051789"><ele>568.8333333333333</ele><time>2026-03-28T10:35:13Z</time></trkpt><trkpt lat="43.47085421500012" lon="11.28553752926197"><ele>569.0</ele><time>2026-03-28T10:35:14Z</time></trkpt><trkpt lat="43.47091402824656" lon="11.28550180686585"><ele>567.8333333333333</ele><time>2026-03-28T10:35:15Z</time></trkpt><trkpt lat="43.470985209606745" lon="11.285469905856356"><ele>566.6666666666666</ele><time>2026-03-28T10:35:16Z</time></trkpt><trkpt lat="43.47105409499063" lon="11.28545349889432"><ele>565.5</ele><time>2026-03-28T10:35:17Z</time></trkpt><trkpt lat="43.471157539749264" lon="11.285452722827355"><ele>564.3333333333334</ele><time>2026-03-28T10:35:19Z</time></trkpt><trkpt lat="43.47122587409836" lon="11.285458169758789"><ele>563.1666666666667</ele><time>2026-03-28T10:35:21Z</time></trkpt><trkpt lat="43.47133062705301" lon="11.285476846590914"><ele>562.0</ele><time>2026-03-28T10:35:24Z</time></trkpt><trkpt lat="43.471406314877655" lon="11.285496509925807"><ele>564.5</ele><time>2026-03-28T10:35:25Z</time></trkpt><trkpt lat="43.471511257206764" lon="11.285520661289185"><ele>567.0</ele><time>2026-03-28T10:35:26Z</time></trkpt><trkpt lat="43.471643406410244" lon="11.285556624976643"><ele>569.5</ele><time>2026-03-28T10:35:27Z</time></trkpt><trkpt lat="43.47180954784138" lon="11.285604076341842"><ele>572.0</ele><time>2026-03-28T10:35:28Z</time></trkpt><trkpt lat="43.47193733676743" lon="11.285642814366412"><ele>572.0</ele><time>2026-03-28T10:35:29Z</time></trkpt><trkpt lat="43.47205699139875" lon="11.285674552001488"><ele>572.0</ele><time>2026-03-28T10:35:30Z</time></trkpt><trkpt lat="43.47216490210695" lon="11.285711195875606"><ele>572.0</ele><time>2026-03-28T10:35:31Z</time></trkpt><trkpt lat="43.472282721093876" lon="11.285744162389701"><ele>572.0</ele><time>2026-03-28T10:35:32Z</time></trkpt><trkpt lat="43.47240297080207" lon="11.285785829360078"><ele>573.5</ele><time>2026-03-28T10:35:33Z</time></trkpt><trkpt lat="43.47252765161752" lon="11.285824511871276"><ele>575.0</ele><time>2026-03-28T10:35:34Z</time></trkpt><trkpt lat="43.47263889650857" lon="11.285867577391679"><ele>576.5</ele><time>2026-03-28T10:35:35Z</time></trkpt><trkpt lat="43.472739567727224" lon="11.285927346231567"><ele>578.0</ele><time>2026-03-28T10:35:36Z</time></trkpt><trkpt lat="43.47282404610722" lon="11.286014627638751"><ele>578.0</ele><time>2026-03-28T10:35:37Z</time></trkpt><trkpt lat="43.47289198372425" lon="11.28612909046525"><ele>578.0</ele><time>2026-03-28T10:35:38Z</time></trkpt><trkpt lat="43.472952587365256" lon="11.286265292370164"><ele>578.0</ele><time>2026-03-28T10:35:39Z</time></trkpt><trkpt lat="43.47301124183483" lon="11.28642449627669"><ele>578.0</ele><time>2026-03-28T10:35:40Z</time></trkpt><trkpt lat="43.47306277456875" lon="11.28658344889628"><ele>576.25</ele><time>2026-03-28T10:35:41Z</time></trkpt><trkpt lat="43.47309504855039" lon="11.28675390149033"><ele>574.5</ele><time>2026-03-28T10:35:42Z</time></trkpt><trkpt lat="43.473108842642624" lon="11.286928021511532"><ele>572.75</ele><time>2026-03-28T10:35:43Z</time></trkpt><trkpt lat="43.47309486612652" lon="11.287114453089941"><ele>571.0</ele><time>2026-03-28T10:35:44Z</time></trkpt><trkpt lat="43.473068122873656" lon="11.287326468605173"><ele>570.75</ele><time>2026-03-28T10:35:45Z</time></trkpt><trkpt lat="43.47304098698362" lon="11.28751872809694"><ele>570.5</ele><time>2026-03-28T10:35:46Z</time></trkpt><trkpt lat="43.47301930479863" lon="11.287691241244936"><ele>570.25</ele><time>2026-03-28T10:35:47Z</time></trkpt><trkpt lat="43.47298867210802" lon="11.28788030851262"><ele>570.0</ele><time>2026-03-28T10:35:48Z</time></trkpt><trkpt lat="43.47296125103476" lon="11.288072617366264"><ele>569.25</ele><time>2026-03-28T10:35:49Z</time></trkpt><trkpt lat="43.472940859960914" lon="11.288243724846861"><ele>568.5</ele><time>2026-03-28T10:35:50Z</time></trkpt><trkpt lat="43.47293079255081" lon="11.288407771984778"><ele>567.75</ele><time>2026-03-28T10:35:51Z</time></trkpt><trkpt lat="43.472949333083136" lon="11.288558655824916"><ele>567.0</ele><time>2026-03-28T10:35:52Z</time></trkpt><trkpt lat="43.47299765024384" lon="11.288690495406751"><ele>567.0</ele><time>2026-03-28T10:35:53Z</time></trkpt><trkpt lat="43.47307904918099" lon="11.288783423043913"><ele>567.0</ele><time>2026-03-28T10:35:54Z</time></trkpt><trkpt lat="43.47318066106532" lon="11.288838519318421"><ele>567.0</ele><time>2026-03-28T10:35:55Z</time></trkpt><trkpt lat="43.473290604700196" lon="11.288835220761024"><ele>567.0</ele><time>2026-03-28T10:35:56Z</time></trkpt><trkpt lat="43.47340496969139" lon="11.288779636148487"><ele>567.0</ele><time>2026-03-28T10:35:57Z</time></trkpt><trkpt lat="43.47350406244942" lon="11.288648836098263"><ele>567.0</ele><time>2026-03-28T10:35:58Z</time></trkpt><trkpt lat="43.473582505232635" lon="11.288450278725326"><ele>567.0</ele><time>2026-03-28T10:35:59Z</time></trkpt><trkpt lat="43.473659823194815" lon="11.288255647540055"><ele>567.0</ele><time>2026-03-28T10:36:00Z</time></trkpt><trkpt lat="43.47372739769498" lon="11.288067863900071"><ele>562.3333333333334</ele><time>2026-03-28T10:36:01Z</time></trkpt><trkpt lat="43.473787529288046" lon="11.287852686897038"><ele>557.6666666666667</ele><time>2026-03-28T10:36:02Z</time></trkpt><trkpt lat="43.473836734112716" lon="11.287597984571779"><ele>553.0</ele><time>2026-03-28T10:36:03Z</time></trkpt><trkpt lat="43.4738794208493" lon="11.287327162059434"><ele>553.3333333333334</ele><time>2026-03-28T10:36:04Z</time></trkpt><trkpt lat="43.473910656510654" lon="11.2871004553641"><ele>553.6666666666666</ele><time>2026-03-28T10:36:05Z</time></trkpt><trkpt lat="43.47394066849669" lon="11.28688262994439"><ele>554.0</ele><time>2026-03-28T10:36:06Z</time></trkpt><trkpt lat="43.47396792978733" lon="11.286684769038336"><ele>554.0</ele><time>2026-03-28T10:36:07Z</time></trkpt><trkpt lat="43.47399333948794" lon="11.2865141544236"><ele>554.0</ele><time>2026-03-28T10:36:08Z</time></trkpt><trkpt lat="43.4740242846534" lon="11.286354721886783"><ele>554.0</ele><time>2026-03-28T10:36:09Z</time></trkpt><trkpt lat="43.47406964913713" lon="11.286200148634016"><ele>554.0</ele><time>2026-03-28T10:36:10Z</time></trkpt><trkpt lat="43.474128385182574" lon="11.286066176269625"><ele>554.2</ele><time>2026-03-28T10:36:11Z</time></trkpt><trkpt lat="43.47421266340128" lon="11.285970277189627"><ele>554.4</ele><time>2026-03-28T10:36:12Z</time></trkpt><trkpt lat="43.47431528506042" lon="11.285920720836291"><ele>554.6</ele><time>2026-03-28T10:36:13Z</time></trkpt><trkpt lat="43.47441853696772" lon="11.285923423465452"><ele>554.8</ele><time>2026-03-28T10:36:14Z</time></trkpt><trkpt lat="43.47451048720152" lon="11.286019404983021"><ele>555.0</ele><time>2026-03-28T10:36:15Z</time></trkpt><trkpt lat="43.474574415639815" lon="11.286168350115089"><ele>557.5</ele><time>2026-03-28T10:36:16Z</time></trkpt><trkpt lat="43.47460908609291" lon="11.286343999520279"><ele>560.0</ele><time>2026-03-28T10:36:17Z</time></trkpt><trkpt lat="43.47461252963016" lon="11.286545059761655"><ele>562.5</ele><time>2026-03-28T10:36:18Z</time></trkpt><trkpt lat="43.474624198849675" lon="11.286745573167378"><ele>565.0</ele><time>2026-03-28T10:36:19Z</time></trkpt><trkpt lat="43.474658659019575" lon="11.286937722984394"><ele>565.0</ele><time>2026-03-28T10:36:20Z</time></trkpt><trkpt lat="43.47469597965081" lon="11.287131858816542"><ele>565.0</ele><time>2026-03-28T10:36:21Z</time></trkpt><trkpt lat="43.474725913176464" lon="11.28730842406522"><ele>565.0</ele><time>2026-03-28T10:36:22Z</time></trkpt><trkpt lat="43.47476436503379" lon="11.28748566654423"><ele>565.0</ele><time>2026-03-28T10:36:23Z</time></trkpt><trkpt lat="43.47480453934629" lon="11.287667938115309"><ele>563.0</ele><time>2026-03-28T10:36:24Z</time></trkpt><trkpt lat="43.47484169203596" lon="11.28783874806161"><ele>561.0</ele><time>2026-03-28T10:36:25Z</time></trkpt><trkpt lat="43.474889349824174" lon="11.28799284793156"><ele>559.0</ele><time>2026-03-28T10:36:26Z</time></trkpt><trkpt lat="43.47494927286738" lon="11.288125605868174"><ele>557.0</ele><time>2026-03-28T10:36:27Z</time></trkpt><trkpt lat="43.474995236450866" lon="11.288259686349711"><ele>555.5</ele><time>2026-03-28T10:36:28Z</time></trkpt><trkpt lat="43.47507474642026" lon="11.2883621530688"><ele>554.0</ele><time>2026-03-28T10:36:29Z</time></trkpt><trkpt lat="43.475163175319224" lon="11.288456607654096"><ele>552.5</ele><time>2026-03-28T10:36:30Z</time></trkpt><trkpt lat="43.47528890984424" lon="11.288530992071689"><ele>551.0</ele><time>2026-03-28T10:36:31Z</time></trkpt><trkpt lat="43.47543746715015" lon="11.288589289240262"><ele>551.0</ele><time>2026-03-28T10:36:32Z</time></trkpt><trkpt lat="43.47556606522497" lon="11.288628387221168"><ele>551.0</ele><time>2026-03-28T10:36:33Z</time></trkpt><trkpt lat="43.4756908170318" lon="11.28866653912803"><ele>551.0</ele><time>2026-03-28T10:36:34Z</time></trkpt><trkpt lat="43.47581610577304" lon="11.288720567579578"><ele>551.0</ele><time>2026-03-28T10:36:35Z</time></trkpt><trkpt lat="43.475930916909505" lon="11.28880440337962"><ele>551.0</ele><time>2026-03-28T10:36:36Z</time></trkpt><trkpt lat="43.47602937433118" lon="11.288919161780608"><ele>551.0</ele><time>2026-03-28T10:36:37Z</time></trkpt><trkpt lat="43.47611519432567" lon="11.2890701547921"><ele>551.0</ele><time>2026-03-28T10:36:38Z</time></trkpt><trkpt lat="43.47618717908157" lon="11.289251899304944"><ele>551.0</ele><time>2026-03-28T10:36:39Z</time></trkpt><trkpt lat="43.47623809772891" lon="11.2894644188673"><ele>549.3333333333333</ele><time>2026-03-28T10:36:40Z</time></trkpt><trkpt lat="43.47628100987001" lon="11.289733714981505"><ele>547.6666666666666</ele><time>2026-03-28T10:36:41Z</time></trkpt><trkpt lat="43.476329134952856" lon="11.290023244321812"><ele>546.0</ele><time>2026-03-28T10:36:42Z</time></trkpt><trkpt lat="43.47637336417788" lon="11.290291121483413"><ele>546.0</ele><time>2026-03-28T10:36:43Z</time></trkpt><trkpt lat="43.476423311810485" lon="11.290516007075801"><ele>546.0</ele><time>2026-03-28T10:36:44Z</time></trkpt><trkpt lat="43.47646559502018" lon="11.290722203473553"><ele>546.0</ele><time>2026-03-28T10:36:45Z</time></trkpt><trkpt lat="43.4764919084526" lon="11.290894070462324"><ele>546.0</ele><time>2026-03-28T10:36:46Z</time></trkpt><trkpt lat="43.47648439282336" lon="11.291045564461216"><ele>546.0</ele><time>2026-03-28T10:36:47Z</time></trkpt><trkpt lat="43.476429792448606" lon="11.291176949657892"><ele>546.0</ele><time>2026-03-28T10:36:48Z</time></trkpt><trkpt lat="43.47633121700296" lon="11.291258627299698"><ele>546.0</ele><time>2026-03-28T10:36:49Z</time></trkpt><trkpt lat="43.476202378323265" lon="11.291307761079056"><ele>545.6666666666666</ele><time>2026-03-28T10:36:50Z</time></trkpt><trkpt lat="43.476073777785764" lon="11.291366674696333"><ele>545.3333333333333</ele><time>2026-03-28T10:36:51Z</time></trkpt><trkpt lat="43.47594814633619" lon="11.2914850293364"><ele>545.0</ele><time>2026-03-28T10:36:52Z</time></trkpt><trkpt lat="43.47582380710274" lon="11.291660825059282"><ele>545.0</ele><time>2026-03-28T10:36:53Z</time></trkpt><trkpt lat="43.475700837596584" lon="11.29185212965738"><ele>545.0</ele><time>2026-03-28T10:36:54Z</time></trkpt><trkpt lat="43.47559994593249" lon="11.292039558898884"><ele>545.0</ele><time>2026-03-28T10:36:55Z</time></trkpt><trkpt lat="43.475502532607564" lon="11.292216021513674"><ele>542.0</ele><time>2026-03-28T10:36:56Z</time></trkpt><trkpt lat="43.47542152224262" lon="11.292411658765605"><ele>539.0</ele><time>2026-03-28T10:36:57Z</time></trkpt><trkpt lat="43.47536210828326" lon="11.29263751333949"><ele>536.0</ele><time>2026-03-28T10:36:58Z</time></trkpt><trkpt lat="43.475319362134925" lon="11.292906142463506"><ele>538.0</ele><time>2026-03-28T10:36:59Z</time></trkpt><trkpt lat="43.475285836423865" lon="11.293220408287118"><ele>540.0</ele><time>2026-03-28T10:37:00Z</time></trkpt><trkpt lat="43.475262620565" lon="11.293553099544255"><ele>540.0</ele><time>2026-03-28T10:37:01Z</time></trkpt><trkpt lat="43.47524123943341" lon="11.293856040195152"><ele>540.0</ele><time>2026-03-28T10:37:02Z</time></trkpt><trkpt lat="43.47521236185799" lon="11.294161249883471"><ele>540.0</ele><time>2026-03-28T10:37:03Z</time></trkpt><trkpt lat="43.4751848261263" lon="11.294445253908588"><ele>542.6666666666666</ele><time>2026-03-28T10:37:04Z</time></trkpt><trkpt lat="43.47517371435436" lon="11.294721419382448"><ele>545.3333333333333</ele><time>2026-03-28T10:37:05Z</time></trkpt><trkpt lat="43.475156008259646" lon="11.294961613397291"><ele>548.0</ele><time>2026-03-28T10:37:06Z</time></trkpt><trkpt lat="43.47514220654342" lon="11.29519803379675"><ele>548.3333333333333</ele><time>2026-03-28T10:37:07Z</time></trkpt><trkpt lat="43.47515145728699" lon="11.295429039128571"><ele>548.6666666666666</ele><time>2026-03-28T10:37:08Z</time></trkpt><trkpt lat="43.475197226841104" lon="11.295660574465343"><ele>549.0</ele><time>2026-03-28T10:37:09Z</time></trkpt><trkpt lat="43.475260790001705" lon="11.295899219478208"><ele>549.0</ele><time>2026-03-28T10:37:10Z</time></trkpt><trkpt lat="43.47534860033915" lon="11.296120366865278"><ele>549.0</ele><time>2026-03-28T10:37:11Z</time></trkpt><trkpt lat="43.47546236956937" lon="11.29632656880002"><ele>549.0</ele><time>2026-03-28T10:37:12Z</time></trkpt><trkpt lat="43.47559554358889" lon="11.29649032631357"><ele>553.3333333333334</ele><time>2026-03-28T10:37:13Z</time></trkpt><trkpt lat="43.475747834670514" lon="11.296613481386272"><ele>557.6666666666667</ele><time>2026-03-28T10:37:14Z</time></trkpt><trkpt lat="43.475915883476866" lon="11.296707562601899"><ele>562.0</ele><time>2026-03-28T10:37:15Z</time></trkpt><trkpt lat="43.476102355981716" lon="11.296792447481554"><ele>566.3333333333334</ele><time>2026-03-28T10:37:16Z</time></trkpt><trkpt lat="43.47629471854243" lon="11.296879097596081"><ele>570.6666666666666</ele><time>2026-03-28T10:37:17Z</time></trkpt><trkpt lat="43.47647353078268" lon="11.29696229638629"><ele>575.0</ele><time>2026-03-28T10:37:18Z</time></trkpt><trkpt lat="43.47664554686807" lon="11.297043494624702"><ele>575.0</ele><time>2026-03-28T10:37:19Z</time></trkpt><trkpt lat="43.476816944865156" lon="11.297122411531248"><ele>575.0</ele><time>2026-03-28T10:37:20Z</time></trkpt><trkpt lat="43.47699408183199" lon="11.297204410392371"><ele>575.0</ele><time>2026-03-28T10:37:21Z</time></trkpt><trkpt lat="43.47717150632154" lon="11.297287344049783"><ele>575.0</ele><time>2026-03-28T10:37:22Z</time></trkpt><trkpt lat="43.47734520555937" lon="11.297369472239547"><ele>575.0</ele><time>2026-03-28T10:37:23Z</time></trkpt><trkpt lat="43.477506484190066" lon="11.297450107671477"><ele>575.0</ele><time>2026-03-28T10:37:24Z</time></trkpt><trkpt lat="43.477654569044205" lon="11.29752456100928"><ele>575.0</ele><time>2026-03-28T10:37:25Z</time></trkpt><trkpt lat="43.477790129482536" lon="11.297588629759334"><ele>575.0</ele><time>2026-03-28T10:37:26Z</time></trkpt><trkpt lat="43.47791740895257" lon="11.297643694660694"><ele>575.0</ele><time>2026-03-28T10:37:27Z</time></trkpt><trkpt lat="43.47803669860333" lon="11.297695936591275"><ele>575.0</ele><time>2026-03-28T10:37:28Z</time></trkpt><trkpt lat="43.47814836579896" lon="11.297747167867644"><ele>574.8</ele><time>2026-03-28T10:37:29Z</time></trkpt><trkpt lat="43.47825186915738" lon="11.297795940058483"><ele>574.6</ele><time>2026-03-28T10:37:30Z</time></trkpt><trkpt lat="43.47834243894148" lon="11.297838915046594"><ele>574.4</ele><time>2026-03-28T10:37:31Z</time></trkpt><trkpt lat="43.47841208035566" lon="11.29786816519108"><ele>574.2</ele><time>2026-03-28T10:37:32Z</time></trkpt><trkpt lat="43.47852187576158" lon="11.297900113325165"><ele>574.0</ele><time>2026-03-28T10:37:34Z</time></trkpt><trkpt lat="43.478630551642304" lon="11.297934718005834"><ele>574.0</ele><time>2026-03-28T10:37:36Z</time></trkpt><trkpt lat="43.47872870764664" lon="11.297950105304876"><ele>574.0</ele><time>2026-03-28T10:37:38Z</time></trkpt><trkpt lat="43.47882284914757" lon="11.297962380637612"><ele>574.0</ele><time>2026-03-28T10:37:40Z</time></trkpt><trkpt lat="43.47894245677814" lon="11.29796242949726"><ele>574.0</ele><time>2026-03-28T10:37:42Z</time></trkpt><trkpt lat="43.47903113683428" lon="11.297953740813483"><ele>574.0</ele><time>2026-03-28T10:37:43Z</time></trkpt><trkpt lat="43.479111108388594" lon="11.2979544052646"><ele>572.3333333333334</ele><time>2026-03-28T10:37:44Z</time></trkpt><trkpt lat="43.47921319417647" lon="11.297992722200624"><ele>570.6666666666667</ele><time>2026-03-28T10:37:46Z</time></trkpt><trkpt lat="43.47927964225376" lon="11.29801736323359"><ele>569.0</ele><time>2026-03-28T10:37:48Z</time></trkpt><trkpt lat="43.479331547045454" lon="11.297967055084927"><ele>567.3333333333334</ele><time>2026-03-28T10:37:51Z</time></trkpt><trkpt lat="43.47926160686172" lon="11.297933994212212"><ele>565.6666666666666</ele><time>2026-03-28T10:37:55Z</time></trkpt><trkpt lat="43.47916192467979" lon="11.297900015798279"><ele>564.0</ele><time>2026-03-28T10:37:56Z</time></trkpt><trkpt lat="43.479044828528025" lon="11.297898465454665"><ele>564.0</ele><time>2026-03-28T10:37:57Z</time></trkpt><trkpt lat="43.478898009350985" lon="11.297894849761171"><ele>564.0</ele><time>2026-03-28T10:37:58Z</time></trkpt><trkpt lat="43.47872369565775" lon="11.297881800258901"><ele>564.0</ele><time>2026-03-28T10:37:59Z</time></trkpt><trkpt lat="43.47852688150026" lon="11.297840226384059"><ele>567.3333333333334</ele><time>2026-03-28T10:38:00Z</time></trkpt><trkpt lat="43.47831604834968" lon="11.297764409101209"><ele>570.6666666666667</ele><time>2026-03-28T10:38:01Z</time></trkpt><trkpt lat="43.47810181485233" lon="11.297666169251773"><ele>574.0</ele><time>2026-03-28T10:38:02Z</time></trkpt><trkpt lat="43.47791943508961" lon="11.297584227681385"><ele>574.3333333333334</ele><time>2026-03-28T10:38:03Z</time></trkpt><trkpt lat="43.47774129867899" lon="11.297507628470026"><ele>574.6666666666666</ele><time>2026-03-28T10:38:04Z</time></trkpt><trkpt lat="43.47757537877179" lon="11.297412356552904"><ele>575.0</ele><time>2026-03-28T10:38:05Z</time></trkpt><trkpt lat="43.477423615994006" lon="11.297342053699646"><ele>575.0</ele><time>2026-03-28T10:38:06Z</time></trkpt><trkpt lat="43.47728435039388" lon="11.297277540031228"><ele>575.0</ele><time>2026-03-28T10:38:07Z</time></trkpt><trkpt lat="43.47715904709902" lon="11.297219494325724"><ele>575.0</ele><time>2026-03-28T10:38:08Z</time></trkpt><trkpt lat="43.477052245714546" lon="11.297169936980554"><ele>575.0</ele><time>2026-03-28T10:38:09Z</time></trkpt><trkpt lat="43.47696408333488" lon="11.297128806720481"><ele>575.0</ele><time>2026-03-28T10:38:10Z</time></trkpt><trkpt lat="43.476896142379374" lon="11.297097110340358"><ele>575.0</ele><time>2026-03-28T10:38:11Z</time></trkpt><trkpt lat="43.47676971785294" lon="11.297276302359986"><ele>575.0</ele><time>2026-03-28T10:38:13Z</time></trkpt><trkpt lat="43.476749642048134" lon="11.297454278295092"><ele>575.0</ele><time>2026-03-28T10:38:15Z</time></trkpt><trkpt lat="43.4767741667727" lon="11.29756753775707"><ele>573.3333333333333</ele><time>2026-03-28T10:38:16Z</time></trkpt><trkpt lat="43.476830190503776" lon="11.29770071106629"><ele>571.6666666666666</ele><time>2026-03-28T10:38:17Z</time></trkpt><trkpt lat="43.47691050706475" lon="11.297884356045643"><ele>570.0</ele><time>2026-03-28T10:38:18Z</time></trkpt><trkpt lat="43.47698820504866" lon="11.298139537987405"><ele>570.0</ele><time>2026-03-28T10:38:19Z</time></trkpt><trkpt lat="43.47708149000298" lon="11.29844347870825"><ele>570.0</ele><time>2026-03-28T10:38:20Z</time></trkpt><trkpt lat="43.477178401366906" lon="11.298745910962971"><ele>569.3333333333334</ele><time>2026-03-28T10:38:21Z</time></trkpt><trkpt lat="43.47725086635836" lon="11.29898634704659"><ele>568.6666666666667</ele><time>2026-03-28T10:38:22Z</time></trkpt><trkpt lat="43.47728661757511" lon="11.299174592141611"><ele>568.0</ele><time>2026-03-28T10:38:23Z</time></trkpt><trkpt lat="43.477304512651166" lon="11.299358206485051"><ele>568.0</ele><time>2026-03-28T10:38:24Z</time></trkpt><trkpt lat="43.47729639463871" lon="11.299555389387699"><ele>568.0</ele><time>2026-03-28T10:38:25Z</time></trkpt><trkpt lat="43.47723108236455" lon="11.299783271404147"><ele>568.0</ele><time>2026-03-28T10:38:26Z</time></trkpt><trkpt lat="43.47717052906354" lon="11.300047630394149"><ele>569.3333333333334</ele><time>2026-03-28T10:38:27Z</time></trkpt><trkpt lat="43.47712444290859" lon="11.300327379960805"><ele>570.6666666666666</ele><time>2026-03-28T10:38:28Z</time></trkpt><trkpt lat="43.47706253099869" lon="11.300579327568677"><ele>572.0</ele><time>2026-03-28T10:38:29Z</time></trkpt><trkpt lat="43.477007350553706" lon="11.300805837748271"><ele>575.75</ele><time>2026-03-28T10:38:30Z</time></trkpt><trkpt lat="43.476958195418945" lon="11.300992144818254"><ele>579.5</ele><time>2026-03-28T10:38:31Z</time></trkpt><trkpt lat="43.476927669313824" lon="11.301160767990817"><ele>583.25</ele><time>2026-03-28T10:38:32Z</time></trkpt><trkpt lat="43.476923195774766" lon="11.301319317277798"><ele>587.0</ele><time>2026-03-28T10:38:33Z</time></trkpt><trkpt lat="43.47696124845888" lon="11.30148281772323"><ele>587.3333333333333</ele><time>2026-03-28T10:38:34Z</time></trkpt><trkpt lat="43.47705553600931" lon="11.301630451688881"><ele>587.6666666666666</ele><time>2026-03-28T10:38:35Z</time></trkpt><trkpt lat="43.477193824758125" lon="11.30174934726748"><ele>588.0</ele><time>2026-03-28T10:38:36Z</time></trkpt><trkpt lat="43.477419991131555" lon="11.301837627294155"><ele>585.6666666666666</ele><time>2026-03-28T10:38:37Z</time></trkpt><trkpt lat="43.47761026931869" lon="11.30194441216169"><ele>583.3333333333333</ele><time>2026-03-28T10:38:38Z</time></trkpt><trkpt lat="43.47778162315465" lon="11.302062841933228"><ele>581.0</ele><time>2026-03-28T10:38:39Z</time></trkpt><trkpt lat="43.47791732321585" lon="11.302189832567093"><ele>583.3333333333333</ele><time>2026-03-28T10:38:40Z</time></trkpt><trkpt lat="43.47803153251592" lon="11.302333139479977"><ele>585.6666666666666</ele><time>2026-03-28T10:38:41Z</time></trkpt><trkpt lat="43.4781230144718" lon="11.30251416329144"><ele>588.0</ele><time>2026-03-28T10:38:42Z</time></trkpt><trkpt lat="43.47819426176293" lon="11.302735910711764"><ele>588.0</ele><time>2026-03-28T10:38:43Z</time></trkpt><trkpt lat="43.47824621946433" lon="11.30301864611406"><ele>588.0</ele><time>2026-03-28T10:38:44Z</time></trkpt><trkpt lat="43.47830743380324" lon="11.303274938484197"><ele>588.0</ele><time>2026-03-28T10:38:45Z</time></trkpt><trkpt lat="43.47838795623265" lon="11.303506459566563"><ele>587.6666666666666</ele><time>2026-03-28T10:38:46Z</time></trkpt><trkpt lat="43.478516784543125" lon="11.303720729177753"><ele>587.3333333333333</ele><time>2026-03-28T10:38:47Z</time></trkpt><trkpt lat="43.478671483311494" lon="11.303899175415845"><ele>587.0</ele><time>2026-03-28T10:38:48Z</time></trkpt><trkpt lat="43.478794507541124" lon="11.30406735844847"><ele>586.0</ele><time>2026-03-28T10:38:49Z</time></trkpt><trkpt lat="43.478918429551534" lon="11.304252854028954"><ele>585.0</ele><time>2026-03-28T10:38:50Z</time></trkpt><trkpt lat="43.47905407684853" lon="11.304460451301596"><ele>584.0</ele><time>2026-03-28T10:38:51Z</time></trkpt><trkpt lat="43.47918159533681" lon="11.304670116899661"><ele>583.6666666666666</ele><time>2026-03-28T10:38:52Z</time></trkpt><trkpt lat="43.479298335510315" lon="11.304867917973306"><ele>583.3333333333334</ele><time>2026-03-28T10:38:53Z</time></trkpt><trkpt lat="43.47942686481985" lon="11.305047919016726"><ele>583.0</ele><time>2026-03-28T10:38:54Z</time></trkpt><trkpt lat="43.479582184968315" lon="11.305221733060927"><ele>581.6666666666667</ele><time>2026-03-28T10:38:55Z</time></trkpt><trkpt lat="43.47975821690987" lon="11.305392964494368"><ele>580.3333333333334</ele><time>2026-03-28T10:38:56Z</time></trkpt><trkpt lat="43.47994049166563" lon="11.305548124450691"><ele>579.0</ele><time>2026-03-28T10:38:57Z</time></trkpt><trkpt lat="43.48010596178106" lon="11.305675251179826"><ele>578.75</ele><time>2026-03-28T10:38:58Z</time></trkpt><trkpt lat="43.48025016803033" lon="11.30575721006403"><ele>578.5</ele><time>2026-03-28T10:38:59Z</time></trkpt><trkpt lat="43.48038005520867" lon="11.305799483457767"><ele>578.25</ele><time>2026-03-28T10:39:00Z</time></trkpt><trkpt lat="43.480517787777515" lon="11.305777729118425"><ele>578.0</ele><time>2026-03-28T10:39:01Z</time></trkpt><trkpt lat="43.480645601968135" lon="11.305677501707487"><ele>577.75</ele><time>2026-03-28T10:39:02Z</time></trkpt><trkpt lat="43.48074239254163" lon="11.30555549232528"><ele>577.5</ele><time>2026-03-28T10:39:03Z</time></trkpt><trkpt lat="43.480843746588114" lon="11.305497326543675"><ele>577.25</ele><time>2026-03-28T10:39:04Z</time></trkpt><trkpt lat="43.48094854644859" lon="11.305536054840843"><ele>577.0</ele><time>2026-03-28T10:39:05Z</time></trkpt><trkpt lat="43.48103277768188" lon="11.305647722728827"><ele>578.25</ele><time>2026-03-28T10:39:06Z</time></trkpt><trkpt lat="43.481088286093225" lon="11.30581180916325"><ele>579.5</ele><time>2026-03-28T10:39:07Z</time></trkpt><trkpt lat="43.48107855247832" lon="11.305985450475847"><ele>580.75</ele><time>2026-03-28T10:39:08Z</time></trkpt><trkpt lat="43.48103599740653" lon="11.306170520804491"><ele>582.0</ele><time>2026-03-28T10:39:09Z</time></trkpt><trkpt lat="43.48098850892909" lon="11.306375606867546"><ele>583.6666666666666</ele><time>2026-03-28T10:39:10Z</time></trkpt><trkpt lat="43.48097878797522" lon="11.306606851827183"><ele>585.3333333333333</ele><time>2026-03-28T10:39:11Z</time></trkpt><trkpt lat="43.480994915051966" lon="11.30689537784634"><ele>587.0</ele><time>2026-03-28T10:39:12Z</time></trkpt><trkpt lat="43.48101589081362" lon="11.307219477601517"><ele>589.3333333333333</ele><time>2026-03-28T10:39:13Z</time></trkpt><trkpt lat="43.481047648030604" lon="11.307525182230767"><ele>591.6666666666666</ele><time>2026-03-28T10:39:14Z</time></trkpt><trkpt lat="43.4810968282606" lon="11.307772876017383"><ele>594.0</ele><time>2026-03-28T10:39:15Z</time></trkpt><trkpt lat="43.481154208695045" lon="11.30800567995978"><ele>596.0</ele><time>2026-03-28T10:39:16Z</time></trkpt><trkpt lat="43.4812267859738" lon="11.30822484891316"><ele>598.0</ele><time>2026-03-28T10:39:17Z</time></trkpt><trkpt lat="43.481315161711244" lon="11.308430210162069"><ele>600.0</ele><time>2026-03-28T10:39:18Z</time></trkpt><trkpt lat="43.48139827126859" lon="11.308641963853537"><ele>600.6666666666666</ele><time>2026-03-28T10:39:19Z</time></trkpt><trkpt lat="43.481464566820264" lon="11.308870018953131"><ele>601.3333333333333</ele><time>2026-03-28T10:39:20Z</time></trkpt><trkpt lat="43.48150859447139" lon="11.309119154704463"><ele>602.0</ele><time>2026-03-28T10:39:21Z</time></trkpt><trkpt lat="43.481503238073" lon="11.309391531532627"><ele>602.6666666666666</ele><time>2026-03-28T10:39:22Z</time></trkpt><trkpt lat="43.481480960613474" lon="11.309681182668342"><ele>603.3333333333334</ele><time>2026-03-28T10:39:23Z</time></trkpt><trkpt lat="43.481464376496795" lon="11.309934864102432"><ele>604.0</ele><time>2026-03-28T10:39:24Z</time></trkpt><trkpt lat="43.48143153049576" lon="11.310151073547807"><ele>604.5</ele><time>2026-03-28T10:39:25Z</time></trkpt><trkpt lat="43.48137312033906" lon="11.310330754029009"><ele>605.0</ele><time>2026-03-28T10:39:26Z</time></trkpt><trkpt lat="43.48124741145357" lon="11.310436053817522"><ele>605.5</ele><time>2026-03-28T10:39:27Z</time></trkpt><trkpt lat="43.481154472257494" lon="11.310560942675103"><ele>606.0</ele><time>2026-03-28T10:39:28Z</time></trkpt><trkpt lat="43.481076244575725" lon="11.310670721706666"><ele>606.0</ele><time>2026-03-28T10:39:29Z</time></trkpt><trkpt lat="43.48104947754706" lon="11.310812479675086"><ele>606.0</ele><time>2026-03-28T10:39:30Z</time></trkpt><trkpt lat="43.48104912307" lon="11.310991713826875"><ele>606.0</ele><time>2026-03-28T10:39:31Z</time></trkpt><trkpt lat="43.481094150179345" lon="11.311161039285604"><ele>606.0</ele><time>2026-03-28T10:39:32Z</time></trkpt><trkpt lat="43.48119797193205" lon="11.31130987861046"><ele>606.0</ele><time>2026-03-28T10:39:33Z</time></trkpt><trkpt lat="43.48133628757456" lon="11.311464810481123"><ele>606.0</ele><time>2026-03-28T10:39:34Z</time></trkpt><trkpt lat="43.48149205596018" lon="11.31163911120231"><ele>606.0</ele><time>2026-03-28T10:39:35Z</time></trkpt><trkpt lat="43.48164675503665" lon="11.311835002440953"><ele>606.0</ele><time>2026-03-28T10:39:36Z</time></trkpt><trkpt lat="43.481793972228225" lon="11.312006343240874"><ele>606.0</ele><time>2026-03-28T10:39:37Z</time></trkpt><trkpt lat="43.48194464260678" lon="11.312113587664777"><ele>606.0</ele><time>2026-03-28T10:39:38Z</time></trkpt><trkpt lat="43.482118697386674" lon="11.31215816167254"><ele>605.3333333333334</ele><time>2026-03-28T10:39:39Z</time></trkpt><trkpt lat="43.48232323950578" lon="11.312181488666482"><ele>604.6666666666667</ele><time>2026-03-28T10:39:40Z</time></trkpt><trkpt lat="43.48251564807456" lon="11.312230156383729"><ele>604.0</ele><time>2026-03-28T10:39:41Z</time></trkpt><trkpt lat="43.482678598692665" lon="11.312308425290588"><ele>604.0</ele><time>2026-03-28T10:39:42Z</time></trkpt><trkpt lat="43.48282294815407" lon="11.312434312793036"><ele>604.0</ele><time>2026-03-28T10:39:43Z</time></trkpt><trkpt lat="43.482954234530496" lon="11.312616317446466"><ele>604.0</ele><time>2026-03-28T10:39:44Z</time></trkpt><trkpt lat="43.483065983596596" lon="11.312813964546608"><ele>602.3333333333334</ele><time>2026-03-28T10:39:45Z</time></trkpt><trkpt lat="43.48318261038171" lon="11.312989120313148"><ele>600.6666666666666</ele><time>2026-03-28T10:39:46Z</time></trkpt><trkpt lat="43.4833277077306" lon="11.313128873998203"><ele>599.0</ele><time>2026-03-28T10:39:47Z</time></trkpt><trkpt lat="43.48350580904599" lon="11.313227184694032"><ele>599.0</ele><time>2026-03-28T10:39:48Z</time></trkpt><trkpt lat="43.48370243061834" lon="11.313290606207245"><ele>599.0</ele><time>2026-03-28T10:39:49Z</time></trkpt><trkpt lat="43.48389221754344" lon="11.313314694714796"><ele>599.0</ele><time>2026-03-28T10:39:50Z</time></trkpt><trkpt lat="43.484073512139915" lon="11.31332187192065"><ele>601.6666666666666</ele><time>2026-03-28T10:39:51Z</time></trkpt><trkpt lat="43.484231796922344" lon="11.31334915431947"><ele>604.3333333333334</ele><time>2026-03-28T10:39:52Z</time></trkpt><trkpt lat="43.48438064960503" lon="11.313418185503723"><ele>607.0</ele><time>2026-03-28T10:39:53Z</time></trkpt><trkpt lat="43.484509414127054" lon="11.313537559884239"><ele>609.3333333333334</ele><time>2026-03-28T10:39:54Z</time></trkpt><trkpt lat="43.48461185176199" lon="11.313705893034797"><ele>611.6666666666666</ele><time>2026-03-28T10:39:55Z</time></trkpt><trkpt lat="43.484685927597134" lon="11.313905791361211"><ele>614.0</ele><time>2026-03-28T10:39:56Z</time></trkpt><trkpt lat="43.4847235831843" lon="11.31414223988121"><ele>614.0</ele><time>2026-03-28T10:39:57Z</time></trkpt><trkpt lat="43.484730095202785" lon="11.314414181082201"><ele>614.0</ele><time>2026-03-28T10:39:58Z</time></trkpt><trkpt lat="43.484741062807785" lon="11.314660950059489"><ele>614.0</ele><time>2026-03-28T10:39:59Z</time></trkpt><trkpt lat="43.48478734863385" lon="11.314896192104179"><ele>610.6666666666666</ele><time>2026-03-28T10:40:00Z</time></trkpt><trkpt lat="43.48485765169912" lon="11.315118541552856"><ele>607.3333333333334</ele><time>2026-03-28T10:40:01Z</time></trkpt><trkpt lat="43.48495120469186" lon="11.315323211205744"><ele>604.0</ele><time>2026-03-28T10:40:02Z</time></trkpt><trkpt lat="43.48507871758554" lon="11.315461053697804"><ele>604.0</ele><time>2026-03-28T10:40:03Z</time></trkpt><trkpt lat="43.48522547583708" lon="11.315547143837074"><ele>604.0</ele><time>2026-03-28T10:40:04Z</time></trkpt><trkpt lat="43.48535385790013" lon="11.315629017378281"><ele>604.0</ele><time>2026-03-28T10:40:05Z</time></trkpt><trkpt lat="43.48544934122332" lon="11.315763753641262"><ele>604.0</ele><time>2026-03-28T10:40:06Z</time></trkpt><trkpt lat="43.48550027580816" lon="11.315955265529052"><ele>604.6666666666667</ele><time>2026-03-28T10:40:07Z</time></trkpt><trkpt lat="43.48548326788894" lon="11.316164312656905"><ele>605.3333333333334</ele><time>2026-03-28T10:40:08Z</time></trkpt><trkpt lat="43.48548036168681" lon="11.316388834516701"><ele>606.0</ele><time>2026-03-28T10:40:09Z</time></trkpt><trkpt lat="43.48549999513384" lon="11.31661601164157"><ele>606.0</ele><time>2026-03-28T10:40:10Z</time></trkpt><trkpt lat="43.4855611977772" lon="11.316836588113869"><ele>606.0</ele><time>2026-03-28T10:40:11Z</time></trkpt><trkpt lat="43.48566567668243" lon="11.31704394150275"><ele>606.0</ele><time>2026-03-28T10:40:12Z</time></trkpt><trkpt lat="43.485761294565044" lon="11.317200327194003"><ele>603.75</ele><time>2026-03-28T10:40:13Z</time></trkpt><trkpt lat="43.48587324073206" lon="11.317337106144029"><ele>601.5</ele><time>2026-03-28T10:40:14Z</time></trkpt><trkpt lat="43.48596528136195" lon="11.317459854618837"><ele>599.25</ele><time>2026-03-28T10:40:15Z</time></trkpt><trkpt lat="43.486026116674125" lon="11.317597908499785"><ele>597.0</ele><time>2026-03-28T10:40:16Z</time></trkpt><trkpt lat="43.48603386361322" lon="11.31776925629723"><ele>597.0</ele><time>2026-03-28T10:40:17Z</time></trkpt><trkpt lat="43.48597281769558" lon="11.317940054118703"><ele>597.0</ele><time>2026-03-28T10:40:18Z</time></trkpt><trkpt lat="43.485858072691734" lon="11.31808626433884"><ele>597.0</ele><time>2026-03-28T10:40:19Z</time></trkpt><trkpt lat="43.48572919521977" lon="11.31826218000261"><ele>596.3333333333334</ele><time>2026-03-28T10:40:20Z</time></trkpt><trkpt lat="43.48559013005909" lon="11.318416279145737"><ele>595.6666666666667</ele><time>2026-03-28T10:40:21Z</time></trkpt><trkpt lat="43.48548210941821" lon="11.318597577302587"><ele>595.0</ele><time>2026-03-28T10:40:22Z</time></trkpt><trkpt lat="43.4853787547264" lon="11.318808558052941"><ele>598.6666666666667</ele><time>2026-03-28T10:40:23Z</time></trkpt><trkpt lat="43.48529376184712" lon="11.31902585820608"><ele>602.3333333333334</ele><time>2026-03-28T10:40:24Z</time></trkpt><trkpt lat="43.48522547992617" lon="11.319259425191241"><ele>606.0</ele><time>2026-03-28T10:40:25Z</time></trkpt><trkpt lat="43.4851846617232" lon="11.319476447072576"><ele>606.0</ele><time>2026-03-28T10:40:26Z</time></trkpt><trkpt lat="43.48516499591028" lon="11.319692774167228"><ele>606.0</ele><time>2026-03-28T10:40:27Z</time></trkpt><trkpt lat="43.485179568037815" lon="11.319954127180326"><ele>606.0</ele><time>2026-03-28T10:40:28Z</time></trkpt><trkpt lat="43.48519924850448" lon="11.320204300800054"><ele>606.75</ele><time>2026-03-28T10:40:29Z</time></trkpt><trkpt lat="43.48520982521072" lon="11.320419064014843"><ele>607.5</ele><time>2026-03-28T10:40:30Z</time></trkpt><trkpt lat="43.48517976593024" lon="11.320612334138659"><ele>608.25</ele><time>2026-03-28T10:40:31Z</time></trkpt><trkpt lat="43.485122350661946" lon="11.320802078883952"><ele>609.0</ele><time>2026-03-28T10:40:32Z</time></trkpt><trkpt lat="43.48504195813965" lon="11.321025495801178"><ele>606.3333333333334</ele><time>2026-03-28T10:40:33Z</time></trkpt><trkpt lat="43.484944592364286" lon="11.321289918032207"><ele>603.6666666666667</ele><time>2026-03-28T10:40:34Z</time></trkpt><trkpt lat="43.48484035131524" lon="11.321578056105736"><ele>601.0</ele><time>2026-03-28T10:40:35Z</time></trkpt><trkpt lat="43.484749015725434" lon="11.321843243662677"><ele>600.3333333333334</ele><time>2026-03-28T10:40:36Z</time></trkpt><trkpt lat="43.48466942978859" lon="11.322114022806943"><ele>599.6666666666666</ele><time>2026-03-28T10:40:37Z</time></trkpt><trkpt lat="43.48459726336361" lon="11.322416503238735"><ele>599.0</ele><time>2026-03-28T10:40:38Z</time></trkpt><trkpt lat="43.484536203765884" lon="11.322779236985067"><ele>596.5</ele><time>2026-03-28T10:40:39Z</time></trkpt><trkpt lat="43.48448613818948" lon="11.323158324639957"><ele>594.0</ele><time>2026-03-28T10:40:40Z</time></trkpt><trkpt lat="43.484448197710876" lon="11.323491516826616"><ele>594.0</ele><time>2026-03-28T10:40:41Z</time></trkpt><trkpt lat="43.48441199142467" lon="11.323786817221398"><ele>594.0</ele><time>2026-03-28T10:40:42Z</time></trkpt><trkpt lat="43.48436107972663" lon="11.324060504395218"><ele>594.0</ele><time>2026-03-28T10:40:43Z</time></trkpt><trkpt lat="43.48428326442202" lon="11.324315065674794"><ele>596.0</ele><time>2026-03-28T10:40:44Z</time></trkpt><trkpt lat="43.484197501114174" lon="11.32455415864983"><ele>598.0</ele><time>2026-03-28T10:40:45Z</time></trkpt><trkpt lat="43.484091397731184" lon="11.32476837591867"><ele>600.0</ele><time>2026-03-28T10:40:46Z</time></trkpt><trkpt lat="43.48397971032319" lon="11.324937778304966"><ele>601.6666666666666</ele><time>2026-03-28T10:40:47Z</time></trkpt><trkpt lat="43.483839373436844" lon="11.325077850042142"><ele>603.3333333333333</ele><time>2026-03-28T10:40:48Z</time></trkpt><trkpt lat="43.48365970596562" lon="11.325209434099614"><ele>605.0</ele><time>2026-03-28T10:40:49Z</time></trkpt><trkpt lat="43.48345910426936" lon="11.325325545945905"><ele>606.6666666666666</ele><time>2026-03-28T10:40:50Z</time></trkpt><trkpt lat="43.48328537607828" lon="11.325432105771108"><ele>608.3333333333334</ele><time>2026-03-28T10:40:51Z</time></trkpt><trkpt lat="43.48312298685582" lon="11.325535030889185"><ele>610.0</ele><time>2026-03-28T10:40:52Z</time></trkpt><trkpt lat="43.48297584859485" lon="11.325611531671491"><ele>609.3333333333334</ele><time>2026-03-28T10:40:53Z</time></trkpt><trkpt lat="43.48283397486939" lon="11.325651746913962"><ele>608.6666666666666</ele><time>2026-03-28T10:40:54Z</time></trkpt><trkpt lat="43.482671618250464" lon="11.325647443039408"><ele>608.0</ele><time>2026-03-28T10:40:55Z</time></trkpt><trkpt lat="43.482469497197016" lon="11.32560597623606"><ele>612.5</ele><time>2026-03-28T10:40:56Z</time></trkpt><trkpt lat="43.482235857194375" lon="11.325544667658457"><ele>617.0</ele><time>2026-03-28T10:40:57Z</time></trkpt><trkpt lat="43.48198318024106" lon="11.325481409246995"><ele>617.0</ele><time>2026-03-28T10:40:58Z</time></trkpt><trkpt lat="43.48176096921489" lon="11.32543112972553"><ele>617.0</ele><time>2026-03-28T10:40:59Z</time></trkpt><trkpt lat="43.48156255674371" lon="11.325394230749572"><ele>617.0</ele><time>2026-03-28T10:41:00Z</time></trkpt><trkpt lat="43.48139925193314" lon="11.32536000028517"><ele>617.25</ele><time>2026-03-28T10:41:01Z</time></trkpt><trkpt lat="43.481256184150965" lon="11.325353310657327"><ele>617.5</ele><time>2026-03-28T10:41:02Z</time></trkpt><trkpt lat="43.48112331054586" lon="11.325398702463257"><ele>617.75</ele><time>2026-03-28T10:41:03Z</time></trkpt><trkpt lat="43.48100825660201" lon="11.325511168243496"><ele>618.0</ele><time>2026-03-28T10:41:04Z</time></trkpt><trkpt lat="43.48090551524856" lon="11.325686562464895"><ele>617.3333333333334</ele><time>2026-03-28T10:41:05Z</time></trkpt><trkpt lat="43.480793089308634" lon="11.325926404819207"><ele>616.6666666666667</ele><time>2026-03-28T10:41:06Z</time></trkpt><trkpt lat="43.48067384831253" lon="11.326161986616558"><ele>616.0</ele><time>2026-03-28T10:41:07Z</time></trkpt><trkpt lat="43.48055375787438" lon="11.32636177948812"><ele>614.3333333333334</ele><time>2026-03-28T10:41:08Z</time></trkpt><trkpt lat="43.480426316710236" lon="11.326544659475035"><ele>612.6666666666666</ele><time>2026-03-28T10:41:09Z</time></trkpt><trkpt lat="43.48032216391732" lon="11.3267163435492"><ele>611.0</ele><time>2026-03-28T10:41:10Z</time></trkpt><trkpt lat="43.48024907625252" lon="11.326884281839614"><ele>611.0</ele><time>2026-03-28T10:41:11Z</time></trkpt><trkpt lat="43.48023386943893" lon="11.32708004026507"><ele>611.0</ele><time>2026-03-28T10:41:12Z</time></trkpt><trkpt lat="43.480265860589135" lon="11.327292158604655"><ele>611.0</ele><time>2026-03-28T10:41:13Z</time></trkpt><trkpt lat="43.480309703834806" lon="11.327521867187295"><ele>610.0</ele><time>2026-03-28T10:41:14Z</time></trkpt><trkpt lat="43.48036859053937" lon="11.327794297328891"><ele>609.0</ele><time>2026-03-28T10:41:15Z</time></trkpt><trkpt lat="43.48038869231539" lon="11.32805895207114"><ele>608.0</ele><time>2026-03-28T10:41:16Z</time></trkpt><trkpt lat="43.48037756409077" lon="11.328298956974562"><ele>608.0</ele><time>2026-03-28T10:41:17Z</time></trkpt><trkpt lat="43.48033847183957" lon="11.328506916050845"><ele>608.0</ele><time>2026-03-28T10:41:18Z</time></trkpt><trkpt lat="43.48028019009449" lon="11.328691922728883"><ele>608.0</ele><time>2026-03-28T10:41:19Z</time></trkpt><trkpt lat="43.48020130038616" lon="11.32883750094098"><ele>608.0</ele><time>2026-03-28T10:41:20Z</time></trkpt><trkpt lat="43.48009357354136" lon="11.328946421205675"><ele>608.25</ele><time>2026-03-28T10:41:21Z</time></trkpt><trkpt lat="43.479964834647596" lon="11.328987528929616"><ele>608.5</ele><time>2026-03-28T10:41:22Z</time></trkpt><trkpt lat="43.47981724711494" lon="11.328978177716076"><ele>608.75</ele><time>2026-03-28T10:41:23Z</time></trkpt><trkpt lat="43.47968420861873" lon="11.328996169099462"><ele>609.0</ele><time>2026-03-28T10:41:24Z</time></trkpt><trkpt lat="43.479569790891475" lon="11.329107757623119"><ele>609.0</ele><time>2026-03-28T10:41:25Z</time></trkpt><trkpt lat="43.47945935845778" lon="11.329261830861377"><ele>609.0</ele><time>2026-03-28T10:41:26Z</time></trkpt><trkpt lat="43.47939214731449" lon="11.329456687540116"><ele>609.0</ele><time>2026-03-28T10:41:27Z</time></trkpt><trkpt lat="43.47932036764105" lon="11.329664534249812"><ele>611.25</ele><time>2026-03-28T10:41:28Z</time></trkpt><trkpt lat="43.47925898641865" lon="11.329839298347236"><ele>613.5</ele><time>2026-03-28T10:41:29Z</time></trkpt><trkpt lat="43.479205725214435" lon="11.329989548816481"><ele>615.75</ele><time>2026-03-28T10:41:30Z</time></trkpt><trkpt lat="43.47916612076789" lon="11.330135679582613"><ele>618.0</ele><time>2026-03-28T10:41:31Z</time></trkpt><trkpt lat="43.47914489451462" lon="11.330284060319574"><ele>618.0</ele><time>2026-03-28T10:41:32Z</time></trkpt><trkpt lat="43.479137421949204" lon="11.330447661762713"><ele>618.0</ele><time>2026-03-28T10:41:33Z</time></trkpt><trkpt lat="43.47915010206023" lon="11.330618592502628"><ele>618.0</ele><time>2026-03-28T10:41:34Z</time></trkpt><trkpt lat="43.47916737047232" lon="11.330778840634245"><ele>618.0</ele><time>2026-03-28T10:41:35Z</time></trkpt><trkpt lat="43.47917677821738" lon="11.330919831113924"><ele>618.4</ele><time>2026-03-28T10:41:36Z</time></trkpt><trkpt lat="43.479186035607306" lon="11.331053075373905"><ele>618.8</ele><time>2026-03-28T10:41:37Z</time></trkpt><trkpt lat="43.47918945943335" lon="11.331186332452157"><ele>619.2</ele><time>2026-03-28T10:41:38Z</time></trkpt><trkpt lat="43.479183309437616" lon="11.33132782960381"><ele>619.6</ele><time>2026-03-28T10:41:39Z</time></trkpt><trkpt lat="43.479159945790514" lon="11.331460370283871"><ele>620.0</ele><time>2026-03-28T10:41:40Z</time></trkpt><trkpt lat="43.47910704843441" lon="11.33158519003274"><ele>619.6</ele><time>2026-03-28T10:41:41Z</time></trkpt><trkpt lat="43.4790305392506" lon="11.33168055320537"><ele>619.2</ele><time>2026-03-28T10:41:42Z</time></trkpt><trkpt lat="43.47891791979199" lon="11.33172652678851"><ele>618.8</ele><time>2026-03-28T10:41:43Z</time></trkpt><trkpt lat="43.478812214593106" lon="11.331794605965175"><ele>618.4</ele><time>2026-03-28T10:41:44Z</time></trkpt><trkpt lat="43.4787176308571" lon="11.33187182038607"><ele>618.0</ele><time>2026-03-28T10:41:45Z</time></trkpt><trkpt lat="43.47861708923836" lon="11.331929107378444"><ele>618.0</ele><time>2026-03-28T10:41:46Z</time></trkpt><trkpt lat="43.478510825722005" lon="11.332007155542609"><ele>618.0</ele><time>2026-03-28T10:41:47Z</time></trkpt><trkpt lat="43.478403776137334" lon="11.332104594682676"><ele>618.0</ele><time>2026-03-28T10:41:48Z</time></trkpt><trkpt lat="43.47825713015103" lon="11.332240869956628"><ele>618.0</ele><time>2026-03-28T10:41:49Z</time></trkpt><trkpt lat="43.47812443030521" lon="11.3323978074863"><ele>616.75</ele><time>2026-03-28T10:41:50Z</time></trkpt><trkpt lat="43.47801259009233" lon="11.33252943403337"><ele>615.5</ele><time>2026-03-28T10:41:51Z</time></trkpt><trkpt lat="43.477885418757545" lon="11.332621939457619"><ele>614.25</ele><time>2026-03-28T10:41:52Z</time></trkpt><trkpt lat="43.47777015504495" lon="11.332705640398464"><ele>613.0</ele><time>2026-03-28T10:41:53Z</time></trkpt><trkpt lat="43.47767150585622" lon="11.33277508443726"><ele>613.0</ele><time>2026-03-28T10:41:54Z</time></trkpt><trkpt lat="43.47758351608357" lon="11.33284583615441"><ele>613.0</ele><time>2026-03-28T10:41:55Z</time></trkpt><trkpt lat="43.47750297175911" lon="11.332916564830386"><ele>613.0</ele><time>2026-03-28T10:41:56Z</time></trkpt><trkpt lat="43.477405476522065" lon="11.33296775063745"><ele>613.0</ele><time>2026-03-28T10:41:57Z</time></trkpt><trkpt lat="43.477291305857065" lon="11.332999331597398"><ele>613.0</ele><time>2026-03-28T10:41:58Z</time></trkpt><trkpt lat="43.47717473159456" lon="11.333018588187693"><ele>612.25</ele><time>2026-03-28T10:41:59Z</time></trkpt><trkpt lat="43.47705701585903" lon="11.332988761046078"><ele>611.5</ele><time>2026-03-28T10:42:00Z</time></trkpt><trkpt lat="43.476936185764465" lon="11.332958525701772"><ele>610.75</ele><time>2026-03-28T10:42:01Z</time></trkpt><trkpt lat="43.476813912531995" lon="11.332944966428338"><ele>610.0</ele><time>2026-03-28T10:42:02Z</time></trkpt><trkpt lat="43.47671033344921" lon="11.332904032003984"><ele>610.0</ele><time>2026-03-28T10:42:03Z</time></trkpt><trkpt lat="43.4766064244792" lon="11.332867571515017"><ele>610.0</ele><time>2026-03-28T10:42:04Z</time></trkpt><trkpt lat="43.47650531791489" lon="11.332850346707817"><ele>610.0</ele><time>2026-03-28T10:42:05Z</time></trkpt><trkpt lat="43.47640584745659" lon="11.33286783541639"><ele>610.0</ele><time>2026-03-28T10:42:06Z</time></trkpt><trkpt lat="43.4763175401724" lon="11.33293805310056"><ele>610.0</ele><time>2026-03-28T10:42:07Z</time></trkpt><trkpt lat="43.476232143252965" lon="11.333081579163679"><ele>608.3333333333334</ele><time>2026-03-28T10:42:08Z</time></trkpt><trkpt lat="43.47611945875103" lon="11.33329033583749"><ele>606.6666666666666</ele><time>2026-03-28T10:42:09Z</time></trkpt><trkpt lat="43.47600704136301" lon="11.333446279154167"><ele>605.0</ele><time>2026-03-28T10:42:10Z</time></trkpt><trkpt lat="43.475902645351375" lon="11.333571004968267"><ele>605.0</ele><time>2026-03-28T10:42:11Z</time></trkpt><trkpt lat="43.47579261808852" lon="11.333674294349585"><ele>605.0</ele><time>2026-03-28T10:42:12Z</time></trkpt><trkpt lat="43.475653696550495" lon="11.33370025832468"><ele>605.0</ele><time>2026-03-28T10:42:13Z</time></trkpt><trkpt lat="43.47551728912228" lon="11.333713526898661"><ele>605.0</ele><time>2026-03-28T10:42:14Z</time></trkpt><trkpt lat="43.4753440360964" lon="11.333696048805946"><ele>604.0</ele><time>2026-03-28T10:42:15Z</time></trkpt><trkpt lat="43.475138980301175" lon="11.333678253755226"><ele>603.0</ele><time>2026-03-28T10:42:16Z</time></trkpt><trkpt lat="43.474941068971006" lon="11.33366484085894"><ele>602.0</ele><time>2026-03-28T10:42:17Z</time></trkpt><trkpt lat="43.474763928479" lon="11.333644392329546"><ele>601.5</ele><time>2026-03-28T10:42:18Z</time></trkpt><trkpt lat="43.4745950367837" lon="11.333632848664028"><ele>601.0</ele><time>2026-03-28T10:42:19Z</time></trkpt><trkpt lat="43.474446998534276" lon="11.333618202150838"><ele>600.5</ele><time>2026-03-28T10:42:20Z</time></trkpt><trkpt lat="43.47432002359823" lon="11.333605205965432"><ele>600.0</ele><time>2026-03-28T10:42:21Z</time></trkpt><trkpt lat="43.47421210916875" lon="11.333616239641954"><ele>600.0</ele><time>2026-03-28T10:42:22Z</time></trkpt><trkpt lat="43.47409504309953" lon="11.333675329012195"><ele>600.0</ele><time>2026-03-28T10:42:23Z</time></trkpt><trkpt lat="43.47401526016018" lon="11.333846981601289"><ele>600.0</ele><time>2026-03-28T10:42:24Z</time></trkpt><trkpt lat="43.4740131644725" lon="11.334012184095531"><ele>600.0</ele><time>2026-03-28T10:42:25Z</time></trkpt><trkpt lat="43.474055269554846" lon="11.33420338177045"><ele>600.6666666666666</ele><time>2026-03-28T10:42:26Z</time></trkpt><trkpt lat="43.47413508394316" lon="11.334438179460596"><ele>601.3333333333333</ele><time>2026-03-28T10:42:27Z</time></trkpt><trkpt lat="43.474225917668676" lon="11.334741601199298"><ele>602.0</ele><time>2026-03-28T10:42:28Z</time></trkpt><trkpt lat="43.47435821870029" lon="11.335039853595706"><ele>602.0</ele><time>2026-03-28T10:42:29Z</time></trkpt><trkpt lat="43.47451577625323" lon="11.335387867956262"><ele>602.0</ele><time>2026-03-28T10:42:30Z</time></trkpt><trkpt lat="43.47466766652507" lon="11.335724597925282"><ele>596.5</ele><time>2026-03-28T10:42:31Z</time></trkpt><trkpt lat="43.47479298399608" lon="11.336018821707984"><ele>591.0</ele><time>2026-03-28T10:42:32Z</time></trkpt><trkpt lat="43.47490960107497" lon="11.336277860433883"><ele>595.5</ele><time>2026-03-28T10:42:33Z</time></trkpt><trkpt lat="43.47508596783366" lon="11.336473632619308"><ele>600.0</ele><time>2026-03-28T10:42:34Z</time></trkpt><trkpt lat="43.47530187981005" lon="11.33678541424609"><ele>599.0</ele><time>2026-03-28T10:42:35Z</time></trkpt><trkpt lat="43.47548017086103" lon="11.337048259773526"><ele>598.0</ele><time>2026-03-28T10:42:36Z</time></trkpt><trkpt lat="43.47562513208659" lon="11.337271714356891"><ele>598.0</ele><time>2026-03-28T10:42:37Z</time></trkpt><trkpt lat="43.47575412008864" lon="11.337449059792444"><ele>598.0</ele><time>2026-03-28T10:42:38Z</time></trkpt><trkpt lat="43.47585266442192" lon="11.337596041714072"><ele>598.0</ele><time>2026-03-28T10:42:39Z</time></trkpt><trkpt lat="43.47589450847631" lon="11.337774560322396"><ele>598.0</ele><time>2026-03-28T10:42:40Z</time></trkpt><trkpt lat="43.47595493498842" lon="11.337972877984637"><ele>598.0</ele><time>2026-03-28T10:42:41Z</time></trkpt><trkpt lat="43.47600259069805" lon="11.33819059317679"><ele>598.0</ele><time>2026-03-28T10:42:42Z</time></trkpt><trkpt lat="43.47603785153554" lon="11.338396652413477"><ele>597.0</ele><time>2026-03-28T10:42:43Z</time></trkpt><trkpt lat="43.47600583240774" lon="11.338631751435251"><ele>596.0</ele><time>2026-03-28T10:42:44Z</time></trkpt><trkpt lat="43.47596250614994" lon="11.3388847600356"><ele>595.0</ele><time>2026-03-28T10:42:45Z</time></trkpt><trkpt lat="43.47589812524759" lon="11.33918862637365"><ele>593.3333333333334</ele><time>2026-03-28T10:42:46Z</time></trkpt><trkpt lat="43.47582869417181" lon="11.339490715028278"><ele>591.6666666666666</ele><time>2026-03-28T10:42:47Z</time></trkpt><trkpt lat="43.47577509472259" lon="11.339746316161587"><ele>590.0</ele><time>2026-03-28T10:42:48Z</time></trkpt><trkpt lat="43.475749309503385" lon="11.339982259430245"><ele>590.0</ele><time>2026-03-28T10:42:49Z</time></trkpt><trkpt lat="43.475725677967596" lon="11.340233766306698"><ele>590.0</ele><time>2026-03-28T10:42:50Z</time></trkpt><trkpt lat="43.47575174531295" lon="11.340515352831817"><ele>590.0</ele><time>2026-03-28T10:42:51Z</time></trkpt><trkpt lat="43.47578443733286" lon="11.340775363706886"><ele>589.0</ele><time>2026-03-28T10:42:52Z</time></trkpt><trkpt lat="43.475748922543644" lon="11.341026742729376"><ele>588.0</ele><time>2026-03-28T10:42:53Z</time></trkpt><trkpt lat="43.47569587991575" lon="11.341349912029468"><ele>587.0</ele><time>2026-03-28T10:42:54Z</time></trkpt><trkpt lat="43.47563939325616" lon="11.341710361874396"><ele>586.3333333333333</ele><time>2026-03-28T10:42:55Z</time></trkpt><trkpt lat="43.47558224305393" lon="11.342036425111997"><ele>585.6666666666666</ele><time>2026-03-28T10:42:56Z</time></trkpt><trkpt lat="43.475539180409676" lon="11.342308714905734"><ele>585.0</ele><time>2026-03-28T10:42:57Z</time></trkpt><trkpt lat="43.47549988283651" lon="11.342549899954088"><ele>584.3333333333334</ele><time>2026-03-28T10:42:58Z</time></trkpt><trkpt lat="43.475479130156586" lon="11.34277456131329"><ele>583.6666666666667</ele><time>2026-03-28T10:42:59Z</time></trkpt><trkpt lat="43.475488885381935" lon="11.342996617314867"><ele>583.0</ele><time>2026-03-28T10:43:00Z</time></trkpt><trkpt lat="43.475548754784526" lon="11.343234026840584"><ele>581.3333333333334</ele><time>2026-03-28T10:43:01Z</time></trkpt><trkpt lat="43.47564039352933" lon="11.343466317017862"><ele>579.6666666666666</ele><time>2026-03-28T10:43:02Z</time></trkpt><trkpt lat="43.47572442424368" lon="11.343681163450533"><ele>578.0</ele><time>2026-03-28T10:43:03Z</time></trkpt><trkpt lat="43.475783546895904" lon="11.343887625983486"><ele>577.6666666666666</ele><time>2026-03-28T10:43:04Z</time></trkpt><trkpt lat="43.47581615307142" lon="11.344114677498135"><ele>577.3333333333334</ele><time>2026-03-28T10:43:05Z</time></trkpt><trkpt lat="43.47581369423429" lon="11.34438345489981"><ele>577.0</ele><time>2026-03-28T10:43:06Z</time></trkpt><trkpt lat="43.475794574123114" lon="11.344648329656208"><ele>576.0</ele><time>2026-03-28T10:43:07Z</time></trkpt><trkpt lat="43.47572503064481" lon="11.34488283518701"><ele>575.0</ele><time>2026-03-28T10:43:08Z</time></trkpt><trkpt lat="43.47564499015201" lon="11.345148848726149"><ele>574.0</ele><time>2026-03-28T10:43:09Z</time></trkpt><trkpt lat="43.475562811781565" lon="11.345467085959648"><ele>572.0</ele><time>2026-03-28T10:43:10Z</time></trkpt><trkpt lat="43.475464707472945" lon="11.345770939887242"><ele>570.0</ele><time>2026-03-28T10:43:11Z</time></trkpt><trkpt lat="43.475375995177295" lon="11.346029084379284"><ele>568.0</ele><time>2026-03-28T10:43:12Z</time></trkpt><trkpt lat="43.47531177067671" lon="11.34624581048383"><ele>571.4</ele><time>2026-03-28T10:43:13Z</time></trkpt><trkpt lat="43.47526625581458" lon="11.346407819883776"><ele>574.8</ele><time>2026-03-28T10:43:14Z</time></trkpt><trkpt lat="43.47523941396846" lon="11.34653433848021"><ele>578.2</ele><time>2026-03-28T10:43:15Z</time></trkpt><trkpt lat="43.47525408642853" lon="11.346665682736297"><ele>581.6</ele><time>2026-03-28T10:43:16Z</time></trkpt><trkpt lat="43.47532570622346" lon="11.346794068145252"><ele>585.0</ele><time>2026-03-28T10:43:17Z</time></trkpt><trkpt lat="43.47543581717691" lon="11.34688195287442"><ele>581.25</ele><time>2026-03-28T10:43:18Z</time></trkpt><trkpt lat="43.47556383683406" lon="11.34691340400399"><ele>577.5</ele><time>2026-03-28T10:43:19Z</time></trkpt><trkpt lat="43.475690891504016" lon="11.346880125391698"><ele>573.75</ele><time>2026-03-28T10:43:20Z</time></trkpt><trkpt lat="43.475846300814574" lon="11.346795261575142"><ele>570.0</ele><time>2026-03-28T10:43:21Z</time></trkpt><trkpt lat="43.47603231993636" lon="11.346729307326566"><ele>570.0</ele><time>2026-03-28T10:43:22Z</time></trkpt><trkpt lat="43.47620131908741" lon="11.346701600211015"><ele>570.0</ele><time>2026-03-28T10:43:23Z</time></trkpt><trkpt lat="43.476345198767554" lon="11.346713898065984"><ele>570.0</ele><time>2026-03-28T10:43:24Z</time></trkpt><trkpt lat="43.47647917943498" lon="11.34676866229797"><ele>570.5</ele><time>2026-03-28T10:43:25Z</time></trkpt><trkpt lat="43.47659270914036" lon="11.346881704177454"><ele>571.0</ele><time>2026-03-28T10:43:26Z</time></trkpt><trkpt lat="43.4766692903445" lon="11.347059169242007"><ele>571.5</ele><time>2026-03-28T10:43:27Z</time></trkpt><trkpt lat="43.47673359179668" lon="11.347252991794754"><ele>572.0</ele><time>2026-03-28T10:43:28Z</time></trkpt><trkpt lat="43.4767800970266" lon="11.347447321033677"><ele>572.0</ele><time>2026-03-28T10:43:29Z</time></trkpt><trkpt lat="43.476820477571714" lon="11.347669179818954"><ele>572.0</ele><time>2026-03-28T10:43:30Z</time></trkpt><trkpt lat="43.4768710201378" lon="11.347944223683005"><ele>572.0</ele><time>2026-03-28T10:43:31Z</time></trkpt><trkpt lat="43.476912141663476" lon="11.348256485230497"><ele>574.0</ele><time>2026-03-28T10:43:32Z</time></trkpt><trkpt lat="43.47695019250161" lon="11.348531053190865"><ele>576.0</ele><time>2026-03-28T10:43:33Z</time></trkpt><trkpt lat="43.47698778760924" lon="11.348762354178135"><ele>578.0</ele><time>2026-03-28T10:43:34Z</time></trkpt><trkpt lat="43.477042199479776" lon="11.348958939566893"><ele>572.0</ele><time>2026-03-28T10:43:35Z</time></trkpt><trkpt lat="43.47713989489061" lon="11.349130653621645"><ele>566.0</ele><time>2026-03-28T10:43:36Z</time></trkpt><trkpt lat="43.477285420631446" lon="11.34927360647559"><ele>560.0</ele><time>2026-03-28T10:43:37Z</time></trkpt><trkpt lat="43.47742308323114" lon="11.349406135650122"><ele>560.0</ele><time>2026-03-28T10:43:38Z</time></trkpt><trkpt lat="43.47751352785382" lon="11.34956105825206"><ele>560.0</ele><time>2026-03-28T10:43:39Z</time></trkpt><trkpt lat="43.47756645078447" lon="11.349758091768171"><ele>560.0</ele><time>2026-03-28T10:43:40Z</time></trkpt><trkpt lat="43.47754299889034" lon="11.349960203970616"><ele>560.0</ele><time>2026-03-28T10:43:41Z</time></trkpt><trkpt lat="43.47751425308787" lon="11.350169470644193"><ele>563.0</ele><time>2026-03-28T10:43:42Z</time></trkpt><trkpt lat="43.47747718285769" lon="11.350417198271527"><ele>566.0</ele><time>2026-03-28T10:43:43Z</time></trkpt><trkpt lat="43.477450240571486" lon="11.35066320640914"><ele>569.0</ele><time>2026-03-28T10:43:44Z</time></trkpt><trkpt lat="43.477479113721735" lon="11.350923757884408"><ele>570.0</ele><time>2026-03-28T10:43:45Z</time></trkpt><trkpt lat="43.47754009498603" lon="11.351198106872346"><ele>571.0</ele><time>2026-03-28T10:43:46Z</time></trkpt><trkpt lat="43.477600941713476" lon="11.351417125664494"><ele>572.0</ele><time>2026-03-28T10:43:47Z</time></trkpt><trkpt lat="43.47769471434086" lon="11.351597333496398"><ele>573.75</ele><time>2026-03-28T10:43:48Z</time></trkpt><trkpt lat="43.477812929967804" lon="11.351744374966351"><ele>575.5</ele><time>2026-03-28T10:43:49Z</time></trkpt><trkpt lat="43.4778914889371" lon="11.35190851684132"><ele>577.25</ele><time>2026-03-28T10:43:50Z</time></trkpt><trkpt lat="43.477887680646575" lon="11.352106629218573"><ele>579.0</ele><time>2026-03-28T10:43:51Z</time></trkpt><trkpt lat="43.477881899081126" lon="11.352337473710262"><ele>580.6666666666666</ele><time>2026-03-28T10:43:52Z</time></trkpt><trkpt lat="43.477849793763006" lon="11.35259503036241"><ele>582.3333333333333</ele><time>2026-03-28T10:43:53Z</time></trkpt><trkpt lat="43.477851670373724" lon="11.352819529087906"><ele>584.0</ele><time>2026-03-28T10:43:54Z</time></trkpt><trkpt lat="43.477907750150216" lon="11.353003365171414"><ele>575.6666666666666</ele><time>2026-03-28T10:43:55Z</time></trkpt><trkpt lat="43.478011956188794" lon="11.353176099204179"><ele>567.3333333333334</ele><time>2026-03-28T10:43:56Z</time></trkpt><trkpt lat="43.47815358053334" lon="11.353366239513031"><ele>559.0</ele><time>2026-03-28T10:43:57Z</time></trkpt><trkpt lat="43.47827343002415" lon="11.35361561235613"><ele>560.6666666666667</ele><time>2026-03-28T10:43:58Z</time></trkpt><trkpt lat="43.478377911968046" lon="11.353892494433644"><ele>562.3333333333334</ele><time>2026-03-28T10:43:59Z</time></trkpt><trkpt lat="43.47846543755102" lon="11.354151334369712"><ele>564.0</ele><time>2026-03-28T10:44:00Z</time></trkpt><trkpt lat="43.478558247081324" lon="11.354420708898777"><ele>562.5</ele><time>2026-03-28T10:44:01Z</time></trkpt><trkpt lat="43.47862968005655" lon="11.354734279214636"><ele>561.0</ele><time>2026-03-28T10:44:02Z</time></trkpt><trkpt lat="43.47868488601626" lon="11.35509900792763"><ele>561.0</ele><time>2026-03-28T10:44:03Z</time></trkpt><trkpt lat="43.47875208982053" lon="11.355481761821213"><ele>561.0</ele><time>2026-03-28T10:44:04Z</time></trkpt><trkpt lat="43.47881329140225" lon="11.355840857283727"><ele>560.5</ele><time>2026-03-28T10:44:05Z</time></trkpt><trkpt lat="43.47887088956303" lon="11.356165637795176"><ele>560.0</ele><time>2026-03-28T10:44:06Z</time></trkpt><trkpt lat="43.47892285086679" lon="11.356474630916901"><ele>560.6666666666666</ele><time>2026-03-28T10:44:07Z</time></trkpt><trkpt lat="43.478972701723194" lon="11.356747019482302"><ele>561.3333333333334</ele><time>2026-03-28T10:44:08Z</time></trkpt><trkpt lat="43.47900931764046" lon="11.356985911609211"><ele>562.0</ele><time>2026-03-28T10:44:09Z</time></trkpt><trkpt lat="43.47902750654213" lon="11.357179183905306"><ele>563.5</ele><time>2026-03-28T10:44:10Z</time></trkpt><trkpt lat="43.47901210271609" lon="11.357348796403166"><ele>565.0</ele><time>2026-03-28T10:44:11Z</time></trkpt><trkpt lat="43.47895612463768" lon="11.357493771288178"><ele>566.5</ele><time>2026-03-28T10:44:12Z</time></trkpt><trkpt lat="43.47887082746767" lon="11.357643728630704"><ele>568.0</ele><time>2026-03-28T10:44:13Z</time></trkpt><trkpt lat="43.4787571035477" lon="11.35781846188841"><ele>562.6666666666667</ele><time>2026-03-28T10:44:14Z</time></trkpt><trkpt lat="43.478644415514104" lon="11.357983178199506"><ele>557.3333333333334</ele><time>2026-03-28T10:44:15Z</time></trkpt><trkpt lat="43.47855588094081" lon="11.358141281690491"><ele>552.0</ele><time>2026-03-28T10:44:16Z</time></trkpt><trkpt lat="43.47849501088702" lon="11.358317548349225"><ele>552.0</ele><time>2026-03-28T10:44:17Z</time></trkpt><trkpt lat="43.478468347603254" lon="11.35850448418369"><ele>552.0</ele><time>2026-03-28T10:44:18Z</time></trkpt><trkpt lat="43.47849536577546" lon="11.358687829707996"><ele>552.0</ele><time>2026-03-28T10:44:19Z</time></trkpt><trkpt lat="43.478568701420784" lon="11.358871651571581"><ele>552.0</ele><time>2026-03-28T10:44:20Z</time></trkpt><trkpt lat="43.47866451023707" lon="11.359079621128945"><ele>550.3333333333334</ele><time>2026-03-28T10:44:21Z</time></trkpt><trkpt lat="43.478743174398" lon="11.359279519544604"><ele>548.6666666666667</ele><time>2026-03-28T10:44:22Z</time></trkpt><trkpt lat="43.478804319914104" lon="11.35946811665203"><ele>547.0</ele><time>2026-03-28T10:44:23Z</time></trkpt><trkpt lat="43.478859480678246" lon="11.359650794642008"><ele>552.0</ele><time>2026-03-28T10:44:24Z</time></trkpt><trkpt lat="43.47891094644715" lon="11.35983651316263"><ele>557.0</ele><time>2026-03-28T10:44:25Z</time></trkpt><trkpt lat="43.47896261178614" lon="11.360057136003386"><ele>562.0</ele><time>2026-03-28T10:44:26Z</time></trkpt><trkpt lat="43.47902293401049" lon="11.360278680673316"><ele>562.0</ele><time>2026-03-28T10:44:27Z</time></trkpt><trkpt lat="43.47907677687055" lon="11.360476538707717"><ele>562.0</ele><time>2026-03-28T10:44:28Z</time></trkpt><trkpt lat="43.4791276073721" lon="11.360649185431566"><ele>562.0</ele><time>2026-03-28T10:44:29Z</time></trkpt><trkpt lat="43.479176912949335" lon="11.36083869354116"><ele>562.0</ele><time>2026-03-28T10:44:30Z</time></trkpt><trkpt lat="43.47922888174137" lon="11.36106203321725"><ele>560.75</ele><time>2026-03-28T10:44:31Z</time></trkpt><trkpt lat="43.47925509535364" lon="11.361269947677096"><ele>559.5</ele><time>2026-03-28T10:44:32Z</time></trkpt><trkpt lat="43.47925742132568" lon="11.361446156889759"><ele>558.25</ele><time>2026-03-28T10:44:33Z</time></trkpt><trkpt lat="43.47924806937444" lon="11.361581259838765"><ele>557.0</ele><time>2026-03-28T10:44:34Z</time></trkpt><trkpt lat="43.47923737629779" lon="11.36167953107835"><ele>557.0</ele><time>2026-03-28T10:44:35Z</time></trkpt><trkpt lat="43.479231612468794" lon="11.361775652623463"><ele>557.0</ele><time>2026-03-28T10:44:37Z</time></trkpt><trkpt lat="43.47926487874857" lon="11.361659663069313"><ele>557.0</ele><time>2026-03-28T10:44:41Z</time></trkpt><trkpt lat="43.47926831833044" lon="11.361471333531629"><ele>557.0</ele><time>2026-03-28T10:44:42Z</time></trkpt><trkpt lat="43.479240790569285" lon="11.36123674735721"><ele>557.0</ele><time>2026-03-28T10:44:43Z</time></trkpt><trkpt lat="43.47921870069334" lon="11.360956768336996"><ele>557.0</ele><time>2026-03-28T10:44:44Z</time></trkpt><trkpt lat="43.47917391700246" lon="11.360635137814509"><ele>557.0</ele><time>2026-03-28T10:44:45Z</time></trkpt><trkpt lat="43.47908158423464" lon="11.360296013804069"><ele>559.5</ele><time>2026-03-28T10:44:46Z</time></trkpt><trkpt lat="43.4789959662928" lon="11.359974844856273"><ele>562.0</ele><time>2026-03-28T10:44:47Z</time></trkpt><trkpt lat="43.47891485206307" lon="11.35968592558937"><ele>564.0</ele><time>2026-03-28T10:44:48Z</time></trkpt><trkpt lat="43.478836585291404" lon="11.35942471226691"><ele>566.0</ele><time>2026-03-28T10:44:49Z</time></trkpt><trkpt lat="43.478753704104655" lon="11.3591760212865"><ele>568.0</ele><time>2026-03-28T10:44:50Z</time></trkpt><trkpt lat="43.47867730839133" lon="11.35896216003901"><ele>564.0</ele><time>2026-03-28T10:44:51Z</time></trkpt><trkpt lat="43.478613447506845" lon="11.358783750610264"><ele>560.0</ele><time>2026-03-28T10:44:52Z</time></trkpt><trkpt lat="43.47856383889061" lon="11.358627590113517"><ele>556.0</ele><time>2026-03-28T10:44:53Z</time></trkpt><trkpt lat="43.47853896472462" lon="11.358477074918346"><ele>552.0</ele><time>2026-03-28T10:44:54Z</time></trkpt><trkpt lat="43.47854967874124" lon="11.358311333813745"><ele>552.0</ele><time>2026-03-28T10:44:55Z</time></trkpt><trkpt lat="43.47860139678686" lon="11.358146862563016"><ele>552.0</ele><time>2026-03-28T10:44:56Z</time></trkpt><trkpt lat="43.47869003322734" lon="11.357966614521267"><ele>552.0</ele><time>2026-03-28T10:44:57Z</time></trkpt><trkpt lat="43.478806154383925" lon="11.357789827555855"><ele>554.5</ele><time>2026-03-28T10:44:58Z</time></trkpt><trkpt lat="43.478906953242685" lon="11.357609329947197"><ele>557.0</ele><time>2026-03-28T10:44:59Z</time></trkpt><trkpt lat="43.47899317360263" lon="11.357450653979132"><ele>559.5</ele><time>2026-03-28T10:45:00Z</time></trkpt><trkpt lat="43.47904764246336" lon="11.357287608847058"><ele>562.0</ele><time>2026-03-28T10:45:01Z</time></trkpt><trkpt lat="43.47906676550297" lon="11.357102880780205"><ele>562.0</ele><time>2026-03-28T10:45:02Z</time></trkpt><trkpt lat="43.47903921423895" lon="11.356890572904883"><ele>562.0</ele><time>2026-03-28T10:45:03Z</time></trkpt><trkpt lat="43.47897880839588" lon="11.356635224132756"><ele>562.0</ele><time>2026-03-28T10:45:04Z</time></trkpt><trkpt lat="43.47894426635086" lon="11.356375717168461"><ele>561.3333333333334</ele><time>2026-03-28T10:45:05Z</time></trkpt><trkpt lat="43.47889395388556" lon="11.356093911235117"><ele>560.6666666666666</ele><time>2026-03-28T10:45:06Z</time></trkpt><trkpt lat="43.47885118500482" lon="11.355853669516769"><ele>560.0</ele><time>2026-03-28T10:45:07Z</time></trkpt><trkpt lat="43.47881937974626" lon="11.35567501261127"><ele>560.0</ele><time>2026-03-28T10:45:08Z</time></trkpt><trkpt lat="43.47879789727181" lon="11.35555354151739"><ele>560.0</ele><time>2026-03-28T10:45:09Z</time></trkpt><trkpt lat="43.47877931984106" lon="11.355446318414078"><ele>560.0</ele><time>2026-03-28T10:45:10Z</time></trkpt><trkpt lat="43.478795548061434" lon="11.355347801239066"><ele>560.0</ele><time>2026-03-28T10:45:13Z</time></trkpt><trkpt lat="43.478879829249585" lon="11.35534103506704"><ele>560.0</ele><time>2026-03-28T10:45:15Z</time></trkpt><trkpt lat="43.478944747423476" lon="11.35536547525125"><ele>560.0</ele><time>2026-03-28T10:45:16Z</time></trkpt><trkpt lat="43.47902270871265" lon="11.355390136311131"><ele>560.0</ele><time>2026-03-28T10:45:17Z</time></trkpt><trkpt lat="43.47909609458598" lon="11.355409069462574"><ele>560.0</ele><time>2026-03-28T10:45:18Z</time></trkpt><trkpt lat="43.47917187067877" lon="11.355426472559532"><ele>560.0</ele><time>2026-03-28T10:45:19Z</time></trkpt><trkpt lat="43.47923998660492" lon="11.355442903351516"><ele>560.0</ele><time>2026-03-28T10:45:20Z</time></trkpt><trkpt lat="43.47930776843125" lon="11.35546196019902"><ele>560.0</ele><time>2026-03-28T10:45:21Z</time></trkpt><trkpt lat="43.47937719238486" lon="11.35549411576884"><ele>560.0</ele><time>2026-03-28T10:45:22Z</time></trkpt><trkpt lat="43.4794408030131" lon="11.355534085795648"><ele>560.0</ele><time>2026-03-28T10:45:23Z</time></trkpt><trkpt lat="43.479498091075484" lon="11.35558313497624"><ele>560.0</ele><time>2026-03-28T10:45:24Z</time></trkpt><trkpt lat="43.479588624153266" lon="11.355701605622924"><ele>560.0</ele><time>2026-03-28T10:45:26Z</time></trkpt><trkpt lat="43.47963586016355" lon="11.355782253126389"><ele>560.0</ele><time>2026-03-28T10:45:27Z</time></trkpt><trkpt lat="43.4797179158483" lon="11.355869985785626"><ele>560.0</ele><time>2026-03-28T10:45:29Z</time></trkpt><trkpt lat="43.479761361135246" lon="11.355932841567295"><ele>560.0</ele><time>2026-03-28T10:45:31Z</time></trkpt><trkpt lat="43.47983782390209" lon="11.355987745333637"><ele>557.4</ele><time>2026-03-28T10:48:19Z</time></trkpt><trkpt lat="43.47990482879152" lon="11.356065549862977"><ele>554.8</ele><time>2026-03-28T10:48:21Z</time></trkpt><trkpt lat="43.479983845043456" lon="11.356119236320996"><ele>552.2</ele><time>2026-03-28T10:48:23Z</time></trkpt><trkpt lat="43.48009607769917" lon="11.356192470122668"><ele>549.6</ele><time>2026-03-28T10:48:25Z</time></trkpt><trkpt lat="43.48017894154566" lon="11.356236365292098"><ele>547.0</ele><time>2026-03-28T10:48:26Z</time></trkpt><trkpt lat="43.480258503375545" lon="11.35627393791064"><ele>547.0</ele><time>2026-03-28T10:48:27Z</time></trkpt><trkpt lat="43.480344234721215" lon="11.35630609807978"><ele>547.0</ele><time>2026-03-28T10:48:28Z</time></trkpt><trkpt lat="43.480421282275834" lon="11.356323333469991"><ele>547.0</ele><time>2026-03-28T10:48:29Z</time></trkpt><trkpt lat="43.48050174361522" lon="11.356333300594699"><ele>547.0</ele><time>2026-03-28T10:48:30Z</time></trkpt><trkpt lat="43.480599588590344" lon="11.356343691043293"><ele>547.0</ele><time>2026-03-28T10:48:31Z</time></trkpt><trkpt lat="43.48070760850511" lon="11.356356988823885"><ele>547.6666666666667</ele><time>2026-03-28T10:48:32Z</time></trkpt><trkpt lat="43.480799030898574" lon="11.356363421490553"><ele>548.3333333333334</ele><time>2026-03-28T10:48:33Z</time></trkpt><trkpt lat="43.48088043149157" lon="11.356367943604637"><ele>549.0</ele><time>2026-03-28T10:48:34Z</time></trkpt><trkpt lat="43.480958198257106" lon="11.356376521025622"><ele>549.6666666666666</ele><time>2026-03-28T10:48:35Z</time></trkpt><trkpt lat="43.48102582710725" lon="11.356403767745352"><ele>550.3333333333333</ele><time>2026-03-28T10:48:36Z</time></trkpt><trkpt lat="43.48109762889766" lon="11.356446566116531"><ele>551.0</ele><time>2026-03-28T10:48:37Z</time></trkpt><trkpt lat="43.48116534321799" lon="11.356520810564783"><ele>551.0</ele><time>2026-03-28T10:48:38Z</time></trkpt><trkpt lat="43.48124021816439" lon="11.35660019094635"><ele>551.0</ele><time>2026-03-28T10:48:39Z</time></trkpt><trkpt lat="43.481320936166696" lon="11.356679916855374"><ele>551.0</ele><time>2026-03-28T10:48:40Z</time></trkpt><trkpt lat="43.481419172743784" lon="11.35675268828551"><ele>551.0</ele><time>2026-03-28T10:48:41Z</time></trkpt><trkpt lat="43.48154142272356" lon="11.356814256851004"><ele>551.0</ele><time>2026-03-28T10:48:42Z</time></trkpt><trkpt lat="43.48166705375596" lon="11.356864471481368"><ele>548.8</ele><time>2026-03-28T10:48:43Z</time></trkpt><trkpt lat="43.48177673564328" lon="11.35689860175094"><ele>546.6</ele><time>2026-03-28T10:48:44Z</time></trkpt><trkpt lat="43.481892503441856" lon="11.356934095509912"><ele>544.4</ele><time>2026-03-28T10:48:45Z</time></trkpt><trkpt lat="43.4819955886517" lon="11.356959932740567"><ele>542.2</ele><time>2026-03-28T10:48:46Z</time></trkpt><trkpt lat="43.48207797699879" lon="11.356967527462615"><ele>540.0</ele><time>2026-03-28T10:48:47Z</time></trkpt><trkpt lat="43.48214463790644" lon="11.356971215642972"><ele>538.5</ele><time>2026-03-28T10:48:48Z</time></trkpt><trkpt lat="43.48221758071172" lon="11.356978383348775"><ele>537.0</ele><time>2026-03-28T10:48:49Z</time></trkpt><trkpt lat="43.48229798042669" lon="11.357003256231028"><ele>535.5</ele><time>2026-03-28T10:48:50Z</time></trkpt><trkpt lat="43.48237399574021" lon="11.357045350674163"><ele>534.0</ele><time>2026-03-28T10:48:51Z</time></trkpt><trkpt lat="43.482439758979964" lon="11.357097431694893"><ele>532.5</ele><time>2026-03-28T10:48:52Z</time></trkpt><trkpt lat="43.482500166721636" lon="11.357156402493187"><ele>531.0</ele><time>2026-03-28T10:48:53Z</time></trkpt><trkpt lat="43.48256031659227" lon="11.357227992295424"><ele>534.3333333333334</ele><time>2026-03-28T10:48:54Z</time></trkpt><trkpt lat="43.48261328023617" lon="11.357324796842938"><ele>537.6666666666666</ele><time>2026-03-28T10:48:55Z</time></trkpt><trkpt lat="43.482663015739945" lon="11.357432834856715"><ele>541.0</ele><time>2026-03-28T10:48:56Z</time></trkpt><trkpt lat="43.4827025039822" lon="11.357537774691373"><ele>544.3333333333333</ele><time>2026-03-28T10:48:57Z</time></trkpt><trkpt lat="43.48274485370447" lon="11.357622858061118"><ele>547.6666666666666</ele><time>2026-03-28T10:48:58Z</time></trkpt><trkpt lat="43.482795421334934" lon="11.357699297954701"><ele>551.0</ele><time>2026-03-28T10:48:59Z</time></trkpt><trkpt lat="43.48285873364438" lon="11.357776370758028"><ele>550.5</ele><time>2026-03-28T10:49:00Z</time></trkpt><trkpt lat="43.482937905075325" lon="11.357854557963673"><ele>550.0</ele><time>2026-03-28T10:49:01Z</time></trkpt><trkpt lat="43.482993876225144" lon="11.357951629944592"><ele>549.5</ele><time>2026-03-28T10:49:02Z</time></trkpt><trkpt lat="43.48305733563054" lon="11.35802246128723"><ele>549.0</ele><time>2026-03-28T10:49:03Z</time></trkpt><trkpt lat="43.48311135189826" lon="11.358080981884685"><ele>548.5</ele><time>2026-03-28T10:49:04Z</time></trkpt><trkpt lat="43.4831579127999" lon="11.358144690518316"><ele>548.0</ele><time>2026-03-28T10:49:05Z</time></trkpt><trkpt lat="43.48321562515714" lon="11.358216947780559"><ele>548.0</ele><time>2026-03-28T10:49:06Z</time></trkpt><trkpt lat="43.483263507879315" lon="11.358291804432753"><ele>548.0</ele><time>2026-03-28T10:49:07Z</time></trkpt><trkpt lat="43.4832889236432" lon="11.35838160149065"><ele>548.0</ele><time>2026-03-28T10:49:08Z</time></trkpt><trkpt lat="43.48331033366594" lon="11.35847255284927"><ele>548.0</ele><time>2026-03-28T10:49:09Z</time></trkpt><trkpt lat="43.48333896955909" lon="11.358572749900354"><ele>548.0</ele><time>2026-03-28T10:49:10Z</time></trkpt><trkpt lat="43.48336597787481" lon="11.358692616825099"><ele>548.0</ele><time>2026-03-28T10:49:11Z</time></trkpt><trkpt lat="43.483390817147914" lon="11.358824165172274"><ele>549.0</ele><time>2026-03-28T10:49:12Z</time></trkpt><trkpt lat="43.483415772591655" lon="11.358940130082082"><ele>550.0</ele><time>2026-03-28T10:49:13Z</time></trkpt><trkpt lat="43.4834457149188" lon="11.359042515614428"><ele>551.0</ele><time>2026-03-28T10:49:14Z</time></trkpt><trkpt lat="43.48347680516533" lon="11.359131113958293"><ele>552.0</ele><time>2026-03-28T10:49:15Z</time></trkpt><trkpt lat="43.483510396234834" lon="11.359288415896014"><ele>553.0</ele><time>2026-03-28T10:49:17Z</time></trkpt><trkpt lat="43.48351985005459" lon="11.359408029110607"><ele>554.0</ele><time>2026-03-28T10:49:18Z</time></trkpt><trkpt lat="43.483522370632286" lon="11.359501226603829"><ele>554.0</ele><time>2026-03-28T10:49:19Z</time></trkpt><trkpt lat="43.483504727846494" lon="11.359648570077129"><ele>554.0</ele><time>2026-03-28T10:49:21Z</time></trkpt><trkpt lat="43.4834837433054" lon="11.359760297126897"><ele>554.0</ele><time>2026-03-28T10:49:22Z</time></trkpt><trkpt lat="43.483469102672245" lon="11.359874561602721"><ele>554.0</ele><time>2026-03-28T10:49:23Z</time></trkpt><trkpt lat="43.48347383385253" lon="11.359977073206315"><ele>554.0</ele><time>2026-03-28T10:49:24Z</time></trkpt><trkpt lat="43.48350048688069" lon="11.360062057735997"><ele>554.0</ele><time>2026-03-28T10:49:25Z</time></trkpt><trkpt lat="43.48353951232215" lon="11.3601582219041"><ele>554.6</ele><time>2026-03-28T10:49:26Z</time></trkpt><trkpt lat="43.48359580549323" lon="11.36026675228959"><ele>555.2</ele><time>2026-03-28T10:49:27Z</time></trkpt><trkpt lat="43.483647505705356" lon="11.360371451292647"><ele>555.8000000000001</ele><time>2026-03-28T10:49:28Z</time></trkpt><trkpt lat="43.48369406839889" lon="11.360472610853472"><ele>556.4</ele><time>2026-03-28T10:49:29Z</time></trkpt><trkpt lat="43.48374626661765" lon="11.360578000175579"><ele>557.0</ele><time>2026-03-28T10:49:30Z</time></trkpt><trkpt lat="43.48379898327304" lon="11.360694883373503"><ele>552.0</ele><time>2026-03-28T10:49:31Z</time></trkpt><trkpt lat="43.48387281070442" lon="11.360809941037964"><ele>547.0</ele><time>2026-03-28T10:49:32Z</time></trkpt><trkpt lat="43.48393149448606" lon="11.360928708687528"><ele>542.0</ele><time>2026-03-28T10:49:33Z</time></trkpt><trkpt lat="43.48400265948844" lon="11.361023263363919"><ele>537.0</ele><time>2026-03-28T10:49:34Z</time></trkpt><trkpt lat="43.48406695140887" lon="11.361104440791125"><ele>532.0</ele><time>2026-03-28T10:49:35Z</time></trkpt><trkpt lat="43.48413266587965" lon="11.361209462438573"><ele>532.0</ele><time>2026-03-28T10:49:36Z</time></trkpt><trkpt lat="43.484203422904535" lon="11.361302454858818"><ele>532.0</ele><time>2026-03-28T10:49:37Z</time></trkpt><trkpt lat="43.48426266577459" lon="11.361388377119713"><ele>532.0</ele><time>2026-03-28T10:49:38Z</time></trkpt><trkpt lat="43.484320918605" lon="11.361487888032565"><ele>532.0</ele><time>2026-03-28T10:49:39Z</time></trkpt><trkpt lat="43.484376076178386" lon="11.361592419461736"><ele>532.0</ele><time>2026-03-28T10:49:40Z</time></trkpt><trkpt lat="43.48442033282429" lon="11.361686484575733"><ele>533.5</ele><time>2026-03-28T10:49:41Z</time></trkpt><trkpt lat="43.484459588224475" lon="11.361780343176532"><ele>535.0</ele><time>2026-03-28T10:49:42Z</time></trkpt><trkpt lat="43.484487407462794" lon="11.36186848629594"><ele>536.5</ele><time>2026-03-28T10:49:43Z</time></trkpt><trkpt lat="43.484501497257945" lon="11.361967355043861"><ele>538.0</ele><time>2026-03-28T10:49:44Z</time></trkpt><trkpt lat="43.48451727025048" lon="11.36207905347848"><ele>539.5</ele><time>2026-03-28T10:49:45Z</time></trkpt><trkpt lat="43.48452166993581" lon="11.362208748344383"><ele>541.0</ele><time>2026-03-28T10:49:46Z</time></trkpt><trkpt lat="43.4845278185104" lon="11.36234396119696"><ele>541.0</ele><time>2026-03-28T10:49:47Z</time></trkpt><trkpt lat="43.48453265575106" lon="11.362454022445254"><ele>541.0</ele><time>2026-03-28T10:49:48Z</time></trkpt><trkpt lat="43.48455217148169" lon="11.362617015241469"><ele>541.0</ele><time>2026-03-28T10:49:50Z</time></trkpt><trkpt lat="43.48456415720045" lon="11.362734663282708"><ele>541.0</ele><time>2026-03-28T10:49:51Z</time></trkpt><trkpt lat="43.48458112040393" lon="11.362904263054181"><ele>541.0</ele><time>2026-03-28T10:49:52Z</time></trkpt><trkpt lat="43.48459413279447" lon="11.363055173196791"><ele>534.2</ele><time>2026-03-28T10:49:53Z</time></trkpt><trkpt lat="43.48460742926272" lon="11.363188427283363"><ele>527.4000000000001</ele><time>2026-03-28T10:49:54Z</time></trkpt><trkpt lat="43.48462551968949" lon="11.363326016291456"><ele>520.6</ele><time>2026-03-28T10:49:55Z</time></trkpt><trkpt lat="43.48464022883068" lon="11.363457689540455"><ele>513.8000000000001</ele><time>2026-03-28T10:49:56Z</time></trkpt><trkpt lat="43.48465014713542" lon="11.363570519187538"><ele>507.0</ele><time>2026-03-28T10:49:57Z</time></trkpt><trkpt lat="43.48466445236488" lon="11.363674146799735"><ele>507.0</ele><time>2026-03-28T10:49:58Z</time></trkpt><trkpt lat="43.48467073466824" lon="11.363784202591619"><ele>507.0</ele><time>2026-03-28T10:49:59Z</time></trkpt><trkpt lat="43.484676029654054" lon="11.363893652211614"><ele>507.0</ele><time>2026-03-28T10:50:00Z</time></trkpt><trkpt lat="43.484683011106966" lon="11.3640006373244"><ele>507.0</ele><time>2026-03-28T10:50:01Z</time></trkpt><trkpt lat="43.48469174146183" lon="11.364101187338123"><ele>507.0</ele><time>2026-03-28T10:50:02Z</time></trkpt><trkpt lat="43.484704280529556" lon="11.364216857250268"><ele>507.0</ele><time>2026-03-28T10:50:03Z</time></trkpt><trkpt lat="43.484728756171705" lon="11.364338673393142"><ele>506.8333333333333</ele><time>2026-03-28T10:50:04Z</time></trkpt><trkpt lat="43.48477478159832" lon="11.364434833520363"><ele>506.66666666666663</ele><time>2026-03-28T10:50:05Z</time></trkpt><trkpt lat="43.48480164029167" lon="11.364545823469765"><ele>506.5</ele><time>2026-03-28T10:50:06Z</time></trkpt><trkpt lat="43.484842269264554" lon="11.364636633694687"><ele>506.3333333333333</ele><time>2026-03-28T10:50:07Z</time></trkpt><trkpt lat="43.48486749941164" lon="11.364717104652746"><ele>506.16666666666663</ele><time>2026-03-28T10:50:08Z</time></trkpt><trkpt lat="43.48488873865733" lon="11.364809229551293"><ele>506.0</ele><time>2026-03-28T10:50:09Z</time></trkpt><trkpt lat="43.484896694925204" lon="11.364922110215725"><ele>505.66666666666663</ele><time>2026-03-28T10:50:10Z</time></trkpt><trkpt lat="43.484898105296764" lon="11.365028675176154"><ele>505.3333333333333</ele><time>2026-03-28T10:50:11Z</time></trkpt><trkpt lat="43.48488545538342" lon="11.365129295416928"><ele>505.0</ele><time>2026-03-28T10:50:12Z</time></trkpt><trkpt lat="43.48486232659573" lon="11.36523701616086"><ele>504.66666666666663</ele><time>2026-03-28T10:50:13Z</time></trkpt><trkpt lat="43.48483779724399" lon="11.36534698591626"><ele>504.3333333333333</ele><time>2026-03-28T10:50:14Z</time></trkpt><trkpt lat="43.484807926068555" lon="11.365445296386007"><ele>504.0</ele><time>2026-03-28T10:50:15Z</time></trkpt><trkpt lat="43.484774216167004" lon="11.365539146524"><ele>503.4</ele><time>2026-03-28T10:50:16Z</time></trkpt><trkpt lat="43.4847429290265" lon="11.365621328675076"><ele>502.79999999999995</ele><time>2026-03-28T10:50:17Z</time></trkpt><trkpt lat="43.48468826232009" lon="11.365758339504817"><ele>502.20000000000005</ele><time>2026-03-28T10:50:18.999Z</time></trkpt><trkpt lat="43.48464112542011" lon="11.36588193704047"><ele>501.6</ele><time>2026-03-28T10:50:20.999Z</time></trkpt><trkpt lat="43.484602212286234" lon="11.36601480860885"><ele>501.0</ele><time>2026-03-28T10:50:22.999Z</time></trkpt><trkpt lat="43.48458006336957" lon="11.366134596994767"><ele>501.0</ele><time>2026-03-28T10:50:24.999Z</time></trkpt><trkpt lat="43.48456496816919" lon="11.366231491619969"><ele>501.0</ele><time>2026-03-28T10:50:26.999Z</time></trkpt><trkpt lat="43.4845421191659" lon="11.366350105516299"><ele>501.0</ele><time>2026-03-28T10:50:28.999Z</time></trkpt><trkpt lat="43.48451987824669" lon="11.366483562586748"><ele>501.0</ele><time>2026-03-28T10:50:30.999Z</time></trkpt><trkpt lat="43.48447944161185" lon="11.366625297702905"><ele>501.0</ele><time>2026-03-28T10:50:32.999Z</time></trkpt><trkpt lat="43.48445220671074" lon="11.366753020061413"><ele>501.0</ele><time>2026-03-28T10:50:34.999Z</time></trkpt><trkpt lat="43.484421849988465" lon="11.366844855633106"><ele>501.0</ele><time>2026-03-28T10:50:37.999Z</time></trkpt><trkpt lat="43.48437626121695" lon="11.366730839534982"><ele>501.0</ele><time>2026-03-28T10:50:41.999Z</time></trkpt><trkpt lat="43.48436834516056" lon="11.36662719010264"><ele>501.0</ele><time>2026-03-28T10:50:42.999Z</time></trkpt><trkpt lat="43.48437178620948" lon="11.366536249021769"><ele>501.0</ele><time>2026-03-28T10:50:44Z</time></trkpt><trkpt lat="43.48438446220739" lon="11.366424950043141"><ele>501.0</ele><time>2026-03-28T10:50:45Z</time></trkpt><trkpt lat="43.484383399522805" lon="11.366304213683524"><ele>501.0</ele><time>2026-03-28T10:50:46Z</time></trkpt><trkpt lat="43.48440517890453" lon="11.36621056770748"><ele>501.0</ele><time>2026-03-28T10:50:47Z</time></trkpt><trkpt lat="43.4844149048181" lon="11.36610081835199"><ele>501.0</ele><time>2026-03-28T10:50:48Z</time></trkpt><trkpt lat="43.48442504187818" lon="11.365980549271308"><ele>501.0</ele><time>2026-03-28T10:50:49Z</time></trkpt><trkpt lat="43.484431988653476" lon="11.365854948818345"><ele>501.0</ele><time>2026-03-28T10:50:50Z</time></trkpt><trkpt lat="43.48439304135172" lon="11.365739502484052"><ele>501.0</ele><time>2026-03-28T10:50:51Z</time></trkpt><trkpt lat="43.48432573727502" lon="11.36565683553833"><ele>501.0</ele><time>2026-03-28T10:50:52Z</time></trkpt><trkpt lat="43.48425043122863" lon="11.36561023446247"><ele>501.0</ele><time>2026-03-28T10:50:53Z</time></trkpt><trkpt lat="43.484191360493" lon="11.365541817809666"><ele>501.0</ele><time>2026-03-28T10:50:54Z</time></trkpt><trkpt lat="43.48412700529264" lon="11.365491812287313"><ele>501.0</ele><time>2026-03-28T10:50:55Z</time></trkpt><trkpt lat="43.48405715786531" lon="11.36547109427437"><ele>501.0</ele><time>2026-03-28T10:50:56Z</time></trkpt><trkpt lat="43.48396999480869" lon="11.365410886738673"><ele>501.0</ele><time>2026-03-28T10:50:58Z</time></trkpt><trkpt lat="43.48389795930971" lon="11.36554636152702"><ele>501.0</ele><time>2026-03-28T10:50:59Z</time></trkpt><trkpt lat="43.48384169139239" lon="11.365624085983379"><ele>501.0</ele><time>2026-03-28T10:51:00Z</time></trkpt><trkpt lat="43.483763047785715" lon="11.365717682755538"><ele>501.0</ele><time>2026-03-28T10:51:01Z</time></trkpt><trkpt lat="43.48366865763533" lon="11.365851264098202"><ele>501.0</ele><time>2026-03-28T10:51:02Z</time></trkpt><trkpt lat="43.483581465179164" lon="11.36598880630829"><ele>502.5</ele><time>2026-03-28T10:51:03Z</time></trkpt><trkpt lat="43.48349429072253" lon="11.366113823469673"><ele>504.0</ele><time>2026-03-28T10:51:04Z</time></trkpt><trkpt lat="43.48339452592875" lon="11.366237380819028"><ele>505.5</ele><time>2026-03-28T10:51:05Z</time></trkpt><trkpt lat="43.483297787274104" lon="11.366340944230727"><ele>507.0</ele><time>2026-03-28T10:51:06Z</time></trkpt><trkpt lat="43.48320765373956" lon="11.366420185616224"><ele>503.5</ele><time>2026-03-28T10:51:07Z</time></trkpt><trkpt lat="43.48311779889172" lon="11.366473263005943"><ele>500.0</ele><time>2026-03-28T10:51:08Z</time></trkpt><trkpt lat="43.483010322177286" lon="11.36650318806856"><ele>496.5</ele><time>2026-03-28T10:51:09Z</time></trkpt><trkpt lat="43.48288893071744" lon="11.366468214611043"><ele>493.0</ele><time>2026-03-28T10:51:10Z</time></trkpt><trkpt lat="43.48275175780125" lon="11.36643335079201"><ele>492.75</ele><time>2026-03-28T10:51:11Z</time></trkpt><trkpt lat="43.4826022691116" lon="11.366412119873008"><ele>492.5</ele><time>2026-03-28T10:51:12Z</time></trkpt><trkpt lat="43.48247149127334" lon="11.366380656864463"><ele>492.25</ele><time>2026-03-28T10:51:13Z</time></trkpt><trkpt lat="43.48234778733362" lon="11.366376268323783"><ele>492.0</ele><time>2026-03-28T10:51:14Z</time></trkpt><trkpt lat="43.482234372946905" lon="11.366420558657484"><ele>492.0</ele><time>2026-03-28T10:51:15Z</time></trkpt><trkpt lat="43.48212885325966" lon="11.36652312538823"><ele>492.0</ele><time>2026-03-28T10:51:16Z</time></trkpt><trkpt lat="43.48202998868615" lon="11.36660583679429"><ele>492.0</ele><time>2026-03-28T10:51:17Z</time></trkpt><trkpt lat="43.481947452669694" lon="11.366758244447913"><ele>492.0</ele><time>2026-03-28T10:51:18Z</time></trkpt><trkpt lat="43.481865010899305" lon="11.366900639011172"><ele>493.0</ele><time>2026-03-28T10:51:19Z</time></trkpt><trkpt lat="43.48177484179207" lon="11.3670182990906"><ele>494.0</ele><time>2026-03-28T10:51:20Z</time></trkpt><trkpt lat="43.48167166254579" lon="11.367093288238243"><ele>495.0</ele><time>2026-03-28T10:51:21Z</time></trkpt><trkpt lat="43.48154466286321" lon="11.367110769425219"><ele>496.0</ele><time>2026-03-28T10:51:22Z</time></trkpt><trkpt lat="43.48140185961718" lon="11.367099208960509"><ele>494.5</ele><time>2026-03-28T10:51:23Z</time></trkpt><trkpt lat="43.48125611385716" lon="11.367103766436184"><ele>493.0</ele><time>2026-03-28T10:51:24Z</time></trkpt><trkpt lat="43.48113442695148" lon="11.36713622116618"><ele>491.5</ele><time>2026-03-28T10:51:25Z</time></trkpt><trkpt lat="43.48101793562027" lon="11.367194501633485"><ele>490.0</ele><time>2026-03-28T10:51:26Z</time></trkpt><trkpt lat="43.480915011216375" lon="11.367308185236071"><ele>490.0</ele><time>2026-03-28T10:51:27Z</time></trkpt><trkpt lat="43.48083600355587" lon="11.367453134481973"><ele>490.0</ele><time>2026-03-28T10:51:28Z</time></trkpt><trkpt lat="43.48077676123691" lon="11.36759915138553"><ele>490.0</ele><time>2026-03-28T10:51:29Z</time></trkpt><trkpt lat="43.48070493514031" lon="11.367707797365924"><ele>490.0</ele><time>2026-03-28T10:51:30Z</time></trkpt><trkpt lat="43.4805986621468" lon="11.367756280896517"><ele>490.0</ele><time>2026-03-28T10:51:31Z</time></trkpt><trkpt lat="43.480488457123016" lon="11.367734608332713"><ele>490.0</ele><time>2026-03-28T10:51:32Z</time></trkpt><trkpt lat="43.48039446200888" lon="11.367622143574621"><ele>490.0</ele><time>2026-03-28T10:51:33Z</time></trkpt><trkpt lat="43.480297914097" lon="11.367590546078585"><ele>490.0</ele><time>2026-03-28T10:51:34Z</time></trkpt><trkpt lat="43.480196021387805" lon="11.36763396832136"><ele>490.0</ele><time>2026-03-28T10:51:35Z</time></trkpt><trkpt lat="43.48010603887362" lon="11.367677882629252"><ele>491.2</ele><time>2026-03-28T10:51:36Z</time></trkpt><trkpt lat="43.48004039741774" lon="11.367776680082526"><ele>492.4</ele><time>2026-03-28T10:51:37Z</time></trkpt><trkpt lat="43.4799461414458" lon="11.367824080446347"><ele>493.6</ele><time>2026-03-28T10:51:38Z</time></trkpt><trkpt lat="43.47991490926713" lon="11.367984094873911"><ele>494.8</ele><time>2026-03-28T10:51:39Z</time></trkpt><trkpt lat="43.47984315542088" lon="11.36812296238182"><ele>496.0</ele><time>2026-03-28T10:51:40Z</time></trkpt><trkpt lat="43.479757908387015" lon="11.368245454511873"><ele>495.75</ele><time>2026-03-28T10:51:41Z</time></trkpt><trkpt lat="43.479666803458215" lon="11.368371175937254"><ele>495.5</ele><time>2026-03-28T10:51:42Z</time></trkpt><trkpt lat="43.479571807301355" lon="11.368504891058237"><ele>495.25</ele><time>2026-03-28T10:51:43Z</time></trkpt><trkpt lat="43.4794705864757" lon="11.368651873624039"><ele>495.0</ele><time>2026-03-28T10:51:44Z</time></trkpt><trkpt lat="43.479365495221224" lon="11.368808172156706"><ele>491.5</ele><time>2026-03-28T10:51:45Z</time></trkpt><trkpt lat="43.47926881155229" lon="11.368955589289001"><ele>488.0</ele><time>2026-03-28T10:51:46Z</time></trkpt><trkpt lat="43.47917403200851" lon="11.369094138677397"><ele>484.5</ele><time>2026-03-28T10:51:47Z</time></trkpt><trkpt lat="43.479076431218225" lon="11.36922897363903"><ele>481.0</ele><time>2026-03-28T10:51:48Z</time></trkpt><trkpt lat="43.478973734748806" lon="11.369372551873226"><ele>481.0</ele><time>2026-03-28T10:51:49Z</time></trkpt><trkpt lat="43.47886944445606" lon="11.36952261914585"><ele>481.0</ele><time>2026-03-28T10:51:50Z</time></trkpt><trkpt lat="43.478774982365294" lon="11.369664233572728"><ele>481.0</ele><time>2026-03-28T10:51:51Z</time></trkpt><trkpt lat="43.478666621101766" lon="11.369781253529482"><ele>481.0</ele><time>2026-03-28T10:51:52Z</time></trkpt><trkpt lat="43.47853388689982" lon="11.369801975292676"><ele>478.5</ele><time>2026-03-28T10:51:53Z</time></trkpt><trkpt lat="43.47841353887889" lon="11.369800214512512"><ele>476.0</ele><time>2026-03-28T10:51:54Z</time></trkpt><trkpt lat="43.47827847554606" lon="11.369770902812833"><ele>473.5</ele><time>2026-03-28T10:51:55Z</time></trkpt><trkpt lat="43.47815063921849" lon="11.369766472777236"><ele>471.0</ele><time>2026-03-28T10:51:56Z</time></trkpt><trkpt lat="43.47804715820979" lon="11.369774320059049"><ele>471.0</ele><time>2026-03-28T10:51:57Z</time></trkpt><trkpt lat="43.47796788512765" lon="11.369836373495767"><ele>471.0</ele><time>2026-03-28T10:51:58Z</time></trkpt><trkpt lat="43.47790653897998" lon="11.369968451160917"><ele>471.0</ele><time>2026-03-28T10:51:59Z</time></trkpt><trkpt lat="43.4779029555156" lon="11.370117080069656"><ele>471.0</ele><time>2026-03-28T10:52:00Z</time></trkpt><trkpt lat="43.47793183174179" lon="11.370268530549442"><ele>471.0</ele><time>2026-03-28T10:52:01Z</time></trkpt><trkpt lat="43.477988655988746" lon="11.370413681164282"><ele>469.0</ele><time>2026-03-28T10:52:02Z</time></trkpt><trkpt lat="43.47803914177605" lon="11.370593899113294"><ele>467.0</ele><time>2026-03-28T10:52:03Z</time></trkpt><trkpt lat="43.478087156880036" lon="11.370792561388308"><ele>465.0</ele><time>2026-03-28T10:52:04Z</time></trkpt><trkpt lat="43.47813182925402" lon="11.37097514107027"><ele>463.0</ele><time>2026-03-28T10:52:05Z</time></trkpt><trkpt lat="43.47817349959411" lon="11.371137603052782"><ele>463.0</ele><time>2026-03-28T10:52:06Z</time></trkpt><trkpt lat="43.47820823182025" lon="11.371285107927257"><ele>463.0</ele><time>2026-03-28T10:52:07Z</time></trkpt><trkpt lat="43.47823143596313" lon="11.37143329019798"><ele>463.0</ele><time>2026-03-28T10:52:08Z</time></trkpt><trkpt lat="43.47821445027863" lon="11.371589932704792"><ele>463.0</ele><time>2026-03-28T10:52:09Z</time></trkpt><trkpt lat="43.478152667676305" lon="11.371748054604836"><ele>461.5</ele><time>2026-03-28T10:52:10Z</time></trkpt><trkpt lat="43.47804196868407" lon="11.371861989681431"><ele>460.0</ele><time>2026-03-28T10:52:11Z</time></trkpt><trkpt lat="43.47791770212829" lon="11.37193605347132"><ele>458.5</ele><time>2026-03-28T10:52:12Z</time></trkpt><trkpt lat="43.47778070572913" lon="11.371967310854291"><ele>457.0</ele><time>2026-03-28T10:52:13Z</time></trkpt><trkpt lat="43.47763344281098" lon="11.371980440705995"><ele>457.0</ele><time>2026-03-28T10:52:14Z</time></trkpt><trkpt lat="43.47750118200676" lon="11.371958552109335"><ele>457.0</ele><time>2026-03-28T10:52:15Z</time></trkpt><trkpt lat="43.47737616261011" lon="11.371910537569"><ele>457.0</ele><time>2026-03-28T10:52:16Z</time></trkpt><trkpt lat="43.47726145931741" lon="11.37184815723548"><ele>457.0</ele><time>2026-03-28T10:52:17Z</time></trkpt><trkpt lat="43.47714333931931" lon="11.371811935826871"><ele>456.6</ele><time>2026-03-28T10:52:18Z</time></trkpt><trkpt lat="43.47704118440296" lon="11.371771684703711"><ele>456.20000000000005</ele><time>2026-03-28T10:52:19Z</time></trkpt><trkpt lat="43.47694499876041" lon="11.37177526128698"><ele>455.8</ele><time>2026-03-28T10:52:20Z</time></trkpt><trkpt lat="43.47684115623989" lon="11.371846466768941"><ele>455.4</ele><time>2026-03-28T10:52:21Z</time></trkpt><trkpt lat="43.476761707455196" lon="11.371925936316442"><ele>455.0</ele><time>2026-03-28T10:52:22Z</time></trkpt><trkpt lat="43.47668544500549" lon="11.372049566824096"><ele>452.75</ele><time>2026-03-28T10:52:23Z</time></trkpt><trkpt lat="43.476647012559276" lon="11.372223895824545"><ele>450.5</ele><time>2026-03-28T10:52:24Z</time></trkpt><trkpt lat="43.47663646446097" lon="11.372433385803253"><ele>448.25</ele><time>2026-03-28T10:52:24.999Z</time></trkpt><trkpt lat="43.476627977244824" lon="11.3726600958952"><ele>446.0</ele><time>2026-03-28T10:52:25.999Z</time></trkpt><trkpt lat="43.47660389961402" lon="11.372861073417038"><ele>443.0</ele><time>2026-03-28T10:52:26.999Z</time></trkpt><trkpt lat="43.4765744157208" lon="11.37303988971689"><ele>440.0</ele><time>2026-03-28T10:52:27.999Z</time></trkpt><trkpt lat="43.47654809773215" lon="11.373213054784303"><ele>437.0</ele><time>2026-03-28T10:52:28.999Z</time></trkpt><trkpt lat="43.476531576089926" lon="11.37338028249182"><ele>434.0</ele><time>2026-03-28T10:52:29.999Z</time></trkpt><trkpt lat="43.47650770955911" lon="11.37352987850168"><ele>434.0</ele><time>2026-03-28T10:52:30.999Z</time></trkpt><trkpt lat="43.47646899720163" lon="11.373654668779842"><ele>434.0</ele><time>2026-03-28T10:52:31.999Z</time></trkpt><trkpt lat="43.47639221086928" lon="11.37373449297278"><ele>434.0</ele><time>2026-03-28T10:52:32.999Z</time></trkpt><trkpt lat="43.47628327766282" lon="11.373774197345561"><ele>434.0</ele><time>2026-03-28T10:52:33.999Z</time></trkpt><trkpt lat="43.47613701930944" lon="11.373757420856405"><ele>436.0</ele><time>2026-03-28T10:52:34.999Z</time></trkpt><trkpt lat="43.475958244979154" lon="11.373779164863642"><ele>438.0</ele><time>2026-03-28T10:52:35.999Z</time></trkpt><trkpt lat="43.47574473091893" lon="11.373807426534059"><ele>440.0</ele><time>2026-03-28T10:52:36.999Z</time></trkpt><trkpt lat="43.47555352715112" lon="11.373834464647043"><ele>433.3333333333333</ele><time>2026-03-28T10:52:37.999Z</time></trkpt><trkpt lat="43.47538614347277" lon="11.37385813436099"><ele>426.66666666666663</ele><time>2026-03-28T10:52:38.999Z</time></trkpt><trkpt lat="43.475225475926685" lon="11.373879695014033"><ele>420.0</ele><time>2026-03-28T10:52:39.999Z</time></trkpt><trkpt lat="43.47507539040831" lon="11.373899769054164"><ele>420.0</ele><time>2026-03-28T10:52:40.999Z</time></trkpt><trkpt lat="43.474947211019796" lon="11.373914976333563"><ele>420.0</ele><time>2026-03-28T10:52:41.999Z</time></trkpt><trkpt lat="43.47484685205848" lon="11.373897059973967"><ele>420.0</ele><time>2026-03-28T10:52:42.999Z</time></trkpt><trkpt lat="43.474759280876825" lon="11.373849499397478"><ele>420.0</ele><time>2026-03-28T10:52:43.999Z</time></trkpt><trkpt lat="43.47469600099781" lon="11.37376912924602"><ele>420.0</ele><time>2026-03-28T10:52:44.999Z</time></trkpt><trkpt lat="43.47462739776907" lon="11.373670497726923"><ele>422.25</ele><time>2026-03-28T10:52:45.999Z</time></trkpt><trkpt lat="43.474541717489686" lon="11.373576033346692"><ele>424.5</ele><time>2026-03-28T10:52:46.999Z</time></trkpt><trkpt lat="43.47442818750122" lon="11.373526901605649"><ele>426.75</ele><time>2026-03-28T10:52:47.999Z</time></trkpt><trkpt lat="43.474317788605376" lon="11.37351069115784"><ele>429.0</ele><time>2026-03-28T10:52:48.999Z</time></trkpt><trkpt lat="43.47420082421591" lon="11.373565594045774"><ele>429.0</ele><time>2026-03-28T10:52:49.999Z</time></trkpt><trkpt lat="43.474072697033485" lon="11.373669751557468"><ele>429.0</ele><time>2026-03-28T10:52:50.999Z</time></trkpt><trkpt lat="43.47395739033756" lon="11.373818836544757"><ele>429.0</ele><time>2026-03-28T10:52:51.999Z</time></trkpt><trkpt lat="43.4738670921712" lon="11.373984344798851"><ele>425.25</ele><time>2026-03-28T10:52:52.999Z</time></trkpt><trkpt lat="43.473798362855995" lon="11.3741390129533"><ele>421.5</ele><time>2026-03-28T10:52:53.999Z</time></trkpt><trkpt lat="43.47371793323292" lon="11.374265109495179"><ele>417.75</ele><time>2026-03-28T10:52:54.999Z</time></trkpt><trkpt lat="43.473599960590754" lon="11.374372503098195"><ele>414.0</ele><time>2026-03-28T10:52:55.999Z</time></trkpt><trkpt lat="43.473448950691505" lon="11.374383143463248"><ele>414.0</ele><time>2026-03-28T10:52:56.999Z</time></trkpt><trkpt lat="43.47330796981315" lon="11.374367917312902"><ele>414.0</ele><time>2026-03-28T10:52:57.999Z</time></trkpt><trkpt lat="43.473159227754884" lon="11.374310713541446"><ele>414.0</ele><time>2026-03-28T10:52:58.999Z</time></trkpt><trkpt lat="43.472982027341615" lon="11.374215419127715"><ele>410.33333333333337</ele><time>2026-03-28T10:53:00Z</time></trkpt><trkpt lat="43.47279327894894" lon="11.374102546408832"><ele>406.6666666666667</ele><time>2026-03-28T10:53:01Z</time></trkpt><trkpt lat="43.472627881949165" lon="11.374000318305555"><ele>403.0</ele><time>2026-03-28T10:53:02Z</time></trkpt><trkpt lat="43.47248070409507" lon="11.373941846178543"><ele>403.0</ele><time>2026-03-28T10:53:03Z</time></trkpt><trkpt lat="43.472338496622264" lon="11.373889488385279"><ele>403.0</ele><time>2026-03-28T10:53:04Z</time></trkpt><trkpt lat="43.47217971440741" lon="11.373906841923684"><ele>403.0</ele><time>2026-03-28T10:53:05Z</time></trkpt><trkpt lat="43.47199805656081" lon="11.373960642241208"><ele>401.0</ele><time>2026-03-28T10:53:06Z</time></trkpt><trkpt lat="43.47180932912476" lon="11.374018428375079"><ele>399.0</ele><time>2026-03-28T10:53:07Z</time></trkpt><trkpt lat="43.47163476520115" lon="11.374044642813613"><ele>397.0</ele><time>2026-03-28T10:53:08Z</time></trkpt><trkpt lat="43.47147121180478" lon="11.374096174713431"><ele>397.0</ele><time>2026-03-28T10:53:09Z</time></trkpt><trkpt lat="43.47130367609551" lon="11.374151920432203"><ele>397.0</ele><time>2026-03-28T10:53:10Z</time></trkpt><trkpt lat="43.47114792534146" lon="11.374200412058181"><ele>397.0</ele><time>2026-03-28T10:53:11Z</time></trkpt><trkpt lat="43.4709953819099" lon="11.374231555148146"><ele>396.33333333333337</ele><time>2026-03-28T10:53:12Z</time></trkpt><trkpt lat="43.47083102432828" lon="11.374253295524642"><ele>395.66666666666663</ele><time>2026-03-28T10:53:13Z</time></trkpt><trkpt lat="43.470671028654124" lon="11.374268662247797"><ele>395.0</ele><time>2026-03-28T10:53:14Z</time></trkpt><trkpt lat="43.47051225416196" lon="11.374269737804296"><ele>394.0</ele><time>2026-03-28T10:53:15Z</time></trkpt><trkpt lat="43.47034363998483" lon="11.374262962619914"><ele>393.0</ele><time>2026-03-28T10:53:16Z</time></trkpt><trkpt lat="43.47017458357783" lon="11.374255695877109"><ele>392.0</ele><time>2026-03-28T10:53:17Z</time></trkpt><trkpt lat="43.470005447166685" lon="11.374248425691347"><ele>392.0</ele><time>2026-03-28T10:53:18Z</time></trkpt><trkpt lat="43.469833750266936" lon="11.374241045444224"><ele>392.0</ele><time>2026-03-28T10:53:19Z</time></trkpt><trkpt lat="43.469659743034434" lon="11.374257798280324"><ele>392.0</ele><time>2026-03-28T10:53:20Z</time></trkpt><trkpt lat="43.469494588895316" lon="11.374250770912715"><ele>390.25</ele><time>2026-03-28T10:53:21Z</time></trkpt><trkpt lat="43.46934351673268" lon="11.37422802704883"><ele>388.5</ele><time>2026-03-28T10:53:22Z</time></trkpt><trkpt lat="43.46920949406761" lon="11.374221159645591"><ele>386.75</ele><time>2026-03-28T10:53:23Z</time></trkpt><trkpt lat="43.46909160883624" lon="11.374201121770211"><ele>385.0</ele><time>2026-03-28T10:53:24Z</time></trkpt><trkpt lat="43.46898633326306" lon="11.374156918502388"><ele>385.0</ele><time>2026-03-28T10:53:25Z</time></trkpt><trkpt lat="43.46888700422559" lon="11.374071413796171"><ele>385.0</ele><time>2026-03-28T10:53:26Z</time></trkpt><trkpt lat="43.46879124231945" lon="11.373949067566494"><ele>385.0</ele><time>2026-03-28T10:53:27Z</time></trkpt><trkpt lat="43.46869270082655" lon="11.373800387480369"><ele>385.0</ele><time>2026-03-28T10:53:28Z</time></trkpt><trkpt lat="43.468593556168074" lon="11.373654633353256"><ele>384.5</ele><time>2026-03-28T10:53:29Z</time></trkpt><trkpt lat="43.46850252702686" lon="11.373541291886504"><ele>384.0</ele><time>2026-03-28T10:53:30Z</time></trkpt><trkpt lat="43.46838373606893" lon="11.373458868078988"><ele>383.5</ele><time>2026-03-28T10:53:31Z</time></trkpt><trkpt lat="43.46826356872474" lon="11.373395145236772"><ele>383.0</ele><time>2026-03-28T10:53:32Z</time></trkpt><trkpt lat="43.468153295459565" lon="11.37334099994467"><ele>383.0</ele><time>2026-03-28T10:53:33Z</time></trkpt><trkpt lat="43.468059008293565" lon="11.373294703948211"><ele>383.0</ele><time>2026-03-28T10:53:34Z</time></trkpt><trkpt lat="43.46797733790117" lon="11.373254602938232"><ele>383.0</ele><time>2026-03-28T10:53:35Z</time></trkpt><trkpt lat="43.46791024746458" lon="11.373221660872108"><ele>383.0</ele><time>2026-03-28T10:53:36Z</time></trkpt><trkpt lat="43.467835655943645" lon="11.373124335304075"><ele>383.0</ele><time>2026-03-28T10:53:38Z</time></trkpt><trkpt lat="43.467889222463455" lon="11.372958853390418"><ele>381.59999999999997</ele><time>2026-03-28T10:53:39Z</time></trkpt><trkpt lat="43.467879168763815" lon="11.372838680889657"><ele>380.2</ele><time>2026-03-28T10:53:40Z</time></trkpt><trkpt lat="43.467858852311615" lon="11.37270387234137"><ele>378.8</ele><time>2026-03-28T10:53:41Z</time></trkpt><trkpt lat="43.46782289151196" lon="11.372569746728423"><ele>377.4</ele><time>2026-03-28T10:53:42Z</time></trkpt><trkpt lat="43.46777382400442" lon="11.372417217835675"><ele>376.0</ele><time>2026-03-28T10:53:43Z</time></trkpt><trkpt lat="43.467716688594486" lon="11.372246455145763"><ele>376.8</ele><time>2026-03-28T10:53:44Z</time></trkpt><trkpt lat="43.4676615058496" lon="11.372086718170163"><ele>377.6</ele><time>2026-03-28T10:53:45Z</time></trkpt><trkpt lat="43.46761197342649" lon="11.371958342881866"><ele>378.4</ele><time>2026-03-28T10:53:46Z</time></trkpt><trkpt lat="43.467570675022216" lon="11.371861394510393"><ele>379.2</ele><time>2026-03-28T10:53:47Z</time></trkpt><trkpt lat="43.46752768426111" lon="11.371777484813716"><ele>380.0</ele><time>2026-03-28T10:53:48Z</time></trkpt><trkpt lat="43.46748534171125" lon="11.37170430671805"><ele>380.0</ele><time>2026-03-28T10:53:49Z</time></trkpt><trkpt lat="43.46743700599494" lon="11.37163645113036"><ele>380.0</ele><time>2026-03-28T10:53:50Z</time></trkpt><trkpt lat="43.467336441677546" lon="11.37154577621586"><ele>380.0</ele><time>2026-03-28T10:53:51Z</time></trkpt><trkpt lat="43.46723938970463" lon="11.37147363887608"><ele>380.0</ele><time>2026-03-28T10:53:52Z</time></trkpt><trkpt lat="43.46712421507585" lon="11.37139476214343"><ele>380.0</ele><time>2026-03-28T10:53:53Z</time></trkpt><trkpt lat="43.467020378840765" lon="11.371323652031416"><ele>379.8</ele><time>2026-03-28T10:53:54Z</time></trkpt><trkpt lat="43.46692395587809" lon="11.371252473741631"><ele>379.6</ele><time>2026-03-28T10:53:55Z</time></trkpt><trkpt lat="43.46683005723966" lon="11.37117644799941"><ele>379.4</ele><time>2026-03-28T10:53:56Z</time></trkpt><trkpt lat="43.46674148472175" lon="11.371090496536242"><ele>379.2</ele><time>2026-03-28T10:53:57Z</time></trkpt><trkpt lat="43.466664802119105" lon="11.37098907250986"><ele>379.0</ele><time>2026-03-28T10:53:58Z</time></trkpt><trkpt lat="43.46658683644125" lon="11.37086474830044"><ele>379.0</ele><time>2026-03-28T10:53:59Z</time></trkpt><trkpt lat="43.46650034489504" lon="11.370728672805264"><ele>379.0</ele><time>2026-03-28T10:54:00Z</time></trkpt><trkpt lat="43.46641687067603" lon="11.370584888360739"><ele>379.0</ele><time>2026-03-28T10:54:01Z</time></trkpt><trkpt lat="43.466342580188424" lon="11.370449366065788"><ele>379.0</ele><time>2026-03-28T10:54:02Z</time></trkpt><trkpt lat="43.46626866608323" lon="11.370301520590159"><ele>378.25</ele><time>2026-03-28T10:54:03Z</time></trkpt><trkpt lat="43.46620503359138" lon="11.370160840307408"><ele>377.5</ele><time>2026-03-28T10:54:04Z</time></trkpt><trkpt lat="43.466144639545924" lon="11.37001699006408"><ele>376.75</ele><time>2026-03-28T10:54:05Z</time></trkpt><trkpt lat="43.46608790908233" lon="11.369869881565636"><ele>376.0</ele><time>2026-03-28T10:54:06Z</time></trkpt><trkpt lat="43.466033668382515" lon="11.369720638379665"><ele>375.5</ele><time>2026-03-28T10:54:07Z</time></trkpt><trkpt lat="43.46598154827795" lon="11.369552088577977"><ele>375.0</ele><time>2026-03-28T10:54:08Z</time></trkpt><trkpt lat="43.46591721112693" lon="11.369383288780272"><ele>374.5</ele><time>2026-03-28T10:54:09Z</time></trkpt><trkpt lat="43.465879145126024" lon="11.36921831359965"><ele>374.0</ele><time>2026-03-28T10:54:10Z</time></trkpt><trkpt lat="43.46583784646366" lon="11.369056079148613"><ele>374.0</ele><time>2026-03-28T10:54:11Z</time></trkpt><trkpt lat="43.46580066619674" lon="11.368894396290093"><ele>374.0</ele><time>2026-03-28T10:54:12Z</time></trkpt><trkpt lat="43.46577097498173" lon="11.368739338875562"><ele>374.0</ele><time>2026-03-28T10:54:13Z</time></trkpt><trkpt lat="43.46574979191377" lon="11.368576409983186"><ele>374.0</ele><time>2026-03-28T10:54:14Z</time></trkpt><trkpt lat="43.46574037771145" lon="11.368412989854926"><ele>374.0</ele><time>2026-03-28T10:54:15Z</time></trkpt><trkpt lat="43.46576913645564" lon="11.368243695716174"><ele>374.0</ele><time>2026-03-28T10:54:16Z</time></trkpt><trkpt lat="43.46580562208675" lon="11.368059709058942"><ele>374.0</ele><time>2026-03-28T10:54:17Z</time></trkpt><trkpt lat="43.46585218225138" lon="11.367850015280947"><ele>374.0</ele><time>2026-03-28T10:54:18Z</time></trkpt><trkpt lat="43.46590682183014" lon="11.367599539467857"><ele>373.0</ele><time>2026-03-28T10:54:19Z</time></trkpt><trkpt lat="43.46595914581723" lon="11.367334730310217"><ele>372.0</ele><time>2026-03-28T10:54:20Z</time></trkpt><trkpt lat="43.46600151072768" lon="11.367116333491557"><ele>371.0</ele><time>2026-03-28T10:54:21Z</time></trkpt><trkpt lat="43.46602642434087" lon="11.366915077342606"><ele>370.33333333333337</ele><time>2026-03-28T10:54:22Z</time></trkpt><trkpt lat="43.46607729161847" lon="11.366719127567325"><ele>369.6666666666667</ele><time>2026-03-28T10:54:23Z</time></trkpt><trkpt lat="43.466121285909686" lon="11.366517323025372"><ele>369.0</ele><time>2026-03-28T10:54:24Z</time></trkpt><trkpt lat="43.46616287087643" lon="11.366301110077126"><ele>368.6666666666667</ele><time>2026-03-28T10:54:25Z</time></trkpt><trkpt lat="43.466227226089664" lon="11.36606595374103"><ele>368.33333333333337</ele><time>2026-03-28T10:54:26Z</time></trkpt><trkpt lat="43.46628570231869" lon="11.365806718844638"><ele>368.0</ele><time>2026-03-28T10:54:27Z</time></trkpt><trkpt lat="43.4663204974041" lon="11.365568300008917"><ele>368.6666666666667</ele><time>2026-03-28T10:54:28Z</time></trkpt><trkpt lat="43.466368393909896" lon="11.3653550184213"><ele>369.3333333333333</ele><time>2026-03-28T10:54:29Z</time></trkpt><trkpt lat="43.466406915612296" lon="11.365156536380622"><ele>370.0</ele><time>2026-03-28T10:54:30Z</time></trkpt><trkpt lat="43.46646572691672" lon="11.364956690190674"><ele>370.0</ele><time>2026-03-28T10:54:30.999Z</time></trkpt><trkpt lat="43.46651085873262" lon="11.364742879294228"><ele>370.0</ele><time>2026-03-28T10:54:31.999Z</time></trkpt><trkpt lat="43.46655559978546" lon="11.364530919177067"><ele>370.0</ele><time>2026-03-28T10:54:32.999Z</time></trkpt><trkpt lat="43.466598057659915" lon="11.36433370484894"><ele>369.75</ele><time>2026-03-28T10:54:33.999Z</time></trkpt><trkpt lat="43.46663737249882" lon="11.364150684326074"><ele>369.5</ele><time>2026-03-28T10:54:34.999Z</time></trkpt><trkpt lat="43.46667744679464" lon="11.363977022691245"><ele>369.25</ele><time>2026-03-28T10:54:35.999Z</time></trkpt><trkpt lat="43.46670185350023" lon="11.36380973185199"><ele>369.0</ele><time>2026-03-28T10:54:36.999Z</time></trkpt><trkpt lat="43.466742008868366" lon="11.363651168112295"><ele>368.4</ele><time>2026-03-28T10:54:37.999Z</time></trkpt><trkpt lat="43.46677603294249" lon="11.363504515276164"><ele>367.79999999999995</ele><time>2026-03-28T10:54:38.999Z</time></trkpt><trkpt lat="43.46680499725896" lon="11.363376115344236"><ele>367.20000000000005</ele><time>2026-03-28T10:54:39.999Z</time></trkpt><trkpt lat="43.46683817559302" lon="11.363257660541601"><ele>366.6</ele><time>2026-03-28T10:54:40.999Z</time></trkpt><trkpt lat="43.46686864465013" lon="11.363154464853205"><ele>366.0</ele><time>2026-03-28T10:54:41.999Z</time></trkpt><trkpt lat="43.466873418718805" lon="11.363054429604581"><ele>366.6</ele><time>2026-03-28T10:54:42.999Z</time></trkpt><trkpt lat="43.46685935061196" lon="11.362949419018287"><ele>367.20000000000005</ele><time>2026-03-28T10:54:43.999Z</time></trkpt><trkpt lat="43.466822183808766" lon="11.362850730022023"><ele>367.79999999999995</ele><time>2026-03-28T10:54:44.999Z</time></trkpt><trkpt lat="43.46677574685388" lon="11.362750261229829"><ele>368.4</ele><time>2026-03-28T10:54:46Z</time></trkpt><trkpt lat="43.466698225899044" lon="11.362639885424219"><ele>369.0</ele><time>2026-03-28T10:54:47Z</time></trkpt><trkpt lat="43.466594635240796" lon="11.362585379262741"><ele>369.0</ele><time>2026-03-28T10:54:48Z</time></trkpt><trkpt lat="43.46652562075541" lon="11.362460017679748"><ele>369.0</ele><time>2026-03-28T10:54:49Z</time></trkpt><trkpt lat="43.466462973576135" lon="11.362325592859255"><ele>369.0</ele><time>2026-03-28T10:54:50Z</time></trkpt><trkpt lat="43.466403170431605" lon="11.362173757875361"><ele>369.0</ele><time>2026-03-28T10:54:51Z</time></trkpt><trkpt lat="43.46633727386467" lon="11.362003380471803"><ele>368.5</ele><time>2026-03-28T10:54:52Z</time></trkpt><trkpt lat="43.46632409153983" lon="11.36178463621196"><ele>368.0</ele><time>2026-03-28T10:54:53Z</time></trkpt><trkpt lat="43.46628143191192" lon="11.36163271029496"><ele>367.5</ele><time>2026-03-28T10:54:54Z</time></trkpt><trkpt lat="43.46624528918161" lon="11.361492220115139"><ele>367.0</ele><time>2026-03-28T10:54:55Z</time></trkpt><trkpt lat="43.46621765921818" lon="11.36136987568846"><ele>367.6</ele><time>2026-03-28T10:54:56Z</time></trkpt><trkpt lat="43.46618575894107" lon="11.361259571670724"><ele>368.20000000000005</ele><time>2026-03-28T10:54:57Z</time></trkpt><trkpt lat="43.46613441033016" lon="11.36115867995876"><ele>368.8</ele><time>2026-03-28T10:54:58Z</time></trkpt><trkpt lat="43.4660627262655" lon="11.361064489694414"><ele>369.4</ele><time>2026-03-28T10:54:59Z</time></trkpt><trkpt lat="43.4659528099041" lon="11.36097735211283"><ele>370.0</ele><time>2026-03-28T10:55:00Z</time></trkpt><trkpt lat="43.46584703919064" lon="11.360912831040126"><ele>370.0</ele><time>2026-03-28T10:55:01Z</time></trkpt><trkpt lat="43.465753468621166" lon="11.360825814647441"><ele>370.0</ele><time>2026-03-28T10:55:02Z</time></trkpt><trkpt lat="43.465682491731" lon="11.360719148983254"><ele>370.0</ele><time>2026-03-28T10:55:03Z</time></trkpt><trkpt lat="43.46562261790479" lon="11.360602933559239"><ele>370.0</ele><time>2026-03-28T10:55:04Z</time></trkpt><trkpt lat="43.46555964787852" lon="11.360456721209825"><ele>370.0</ele><time>2026-03-28T10:55:05Z</time></trkpt><trkpt lat="43.465485087123064" lon="11.360310656890633"><ele>368.25</ele><time>2026-03-28T10:55:06Z</time></trkpt><trkpt lat="43.46540917976518" lon="11.36018136111007"><ele>366.5</ele><time>2026-03-28T10:55:07Z</time></trkpt><trkpt lat="43.4653164603734" lon="11.360078650426054"><ele>364.75</ele><time>2026-03-28T10:55:08Z</time></trkpt><trkpt lat="43.46522040643686" lon="11.359992434892304"><ele>363.0</ele><time>2026-03-28T10:55:09Z</time></trkpt><trkpt lat="43.465172800723145" lon="11.35986007150737"><ele>363.0</ele><time>2026-03-28T10:55:10Z</time></trkpt><trkpt lat="43.465115311642734" lon="11.359718966258022"><ele>363.0</ele><time>2026-03-28T10:55:11Z</time></trkpt><trkpt lat="43.46504857860123" lon="11.359576967127378"><ele>363.0</ele><time>2026-03-28T10:55:12Z</time></trkpt><trkpt lat="43.464994668671316" lon="11.359445119805882"><ele>363.0</ele><time>2026-03-28T10:55:13Z</time></trkpt><trkpt lat="43.46496865687625" lon="11.359306768330454"><ele>363.5</ele><time>2026-03-28T10:55:14Z</time></trkpt><trkpt lat="43.46495472369112" lon="11.359147042830237"><ele>364.0</ele><time>2026-03-28T10:55:15Z</time></trkpt><trkpt lat="43.46493472000476" lon="11.358973210034979"><ele>364.5</ele><time>2026-03-28T10:55:16Z</time></trkpt><trkpt lat="43.4649070312643" lon="11.358786253202698"><ele>365.0</ele><time>2026-03-28T10:55:17Z</time></trkpt><trkpt lat="43.46487017261621" lon="11.358605233794705"><ele>366.0</ele><time>2026-03-28T10:55:18Z</time></trkpt><trkpt lat="43.46483124633719" lon="11.358440228927302"><ele>367.0</ele><time>2026-03-28T10:55:19Z</time></trkpt><trkpt lat="43.4647924994812" lon="11.358291684567023"><ele>368.0</ele><time>2026-03-28T10:55:20Z</time></trkpt><trkpt lat="43.464747141483464" lon="11.358142631443306"><ele>369.0</ele><time>2026-03-28T10:55:21Z</time></trkpt><trkpt lat="43.46469241632294" lon="11.357995020840793"><ele>368.0</ele><time>2026-03-28T10:55:22Z</time></trkpt><trkpt lat="43.46463411220843" lon="11.357872734597086"><ele>367.0</ele><time>2026-03-28T10:55:23Z</time></trkpt><trkpt lat="43.46457686175153" lon="11.357753591855905"><ele>366.0</ele><time>2026-03-28T10:55:24Z</time></trkpt><trkpt lat="43.46450845858887" lon="11.3576470243"><ele>365.0</ele><time>2026-03-28T10:55:25Z</time></trkpt><trkpt lat="43.464426084600134" lon="11.357553261738035"><ele>364.0</ele><time>2026-03-28T10:55:26Z</time></trkpt><trkpt lat="43.46434620571051" lon="11.357458708523918"><ele>364.0</ele><time>2026-03-28T10:55:27Z</time></trkpt><trkpt lat="43.464254165992294" lon="11.357368310542087"><ele>364.0</ele><time>2026-03-28T10:55:28Z</time></trkpt><trkpt lat="43.46415911108898" lon="11.357297904178008"><ele>364.0</ele><time>2026-03-28T10:55:29Z</time></trkpt><trkpt lat="43.4640613466218" lon="11.357238499362355"><ele>364.0</ele><time>2026-03-28T10:55:30Z</time></trkpt><trkpt lat="43.463970433280416" lon="11.357175420185976"><ele>364.0</ele><time>2026-03-28T10:55:31Z</time></trkpt><trkpt lat="43.46388796801926" lon="11.3571328702193"><ele>364.79999999999995</ele><time>2026-03-28T10:55:32Z</time></trkpt><trkpt lat="43.46379204831281" lon="11.357100933017012"><ele>365.59999999999997</ele><time>2026-03-28T10:55:33Z</time></trkpt><trkpt lat="43.46368915248174" lon="11.357085409668816"><ele>366.4</ele><time>2026-03-28T10:55:34Z</time></trkpt><trkpt lat="43.463585480132544" lon="11.35708545028863"><ele>367.2</ele><time>2026-03-28T10:55:35Z</time></trkpt><trkpt lat="43.46349977614785" lon="11.357051720897921"><ele>368.0</ele><time>2026-03-28T10:55:36Z</time></trkpt><trkpt lat="43.46339781682645" lon="11.357025966937742"><ele>368.0</ele><time>2026-03-28T10:55:37Z</time></trkpt><trkpt lat="43.463305617235676" lon="11.357008467776406"><ele>368.0</ele><time>2026-03-28T10:55:38Z</time></trkpt><trkpt lat="43.46321609529085" lon="11.357000445691877"><ele>368.0</ele><time>2026-03-28T10:55:39Z</time></trkpt><trkpt lat="43.4631261118963" lon="11.356976537052397"><ele>368.0</ele><time>2026-03-28T10:55:40Z</time></trkpt><trkpt lat="43.46303473406353" lon="11.356954062926004"><ele>368.0</ele><time>2026-03-28T10:55:41Z</time></trkpt><trkpt lat="43.462953800164854" lon="11.356891674504174"><ele>364.75</ele><time>2026-03-28T10:55:42Z</time></trkpt><trkpt lat="43.46286952891229" lon="11.356808687813595"><ele>361.5</ele><time>2026-03-28T10:55:43Z</time></trkpt><trkpt lat="43.46277594827831" lon="11.356708785317643"><ele>358.25</ele><time>2026-03-28T10:55:44Z</time></trkpt><trkpt lat="43.462662626314035" lon="11.356599729255167"><ele>355.0</ele><time>2026-03-28T10:55:45Z</time></trkpt><trkpt lat="43.462551366824115" lon="11.35649821697136"><ele>355.0</ele><time>2026-03-28T10:55:46Z</time></trkpt><trkpt lat="43.46244419301965" lon="11.356403386897924"><ele>355.0</ele><time>2026-03-28T10:55:47Z</time></trkpt><trkpt lat="43.46232941280606" lon="11.35631136980774"><ele>355.0</ele><time>2026-03-28T10:55:48Z</time></trkpt><trkpt lat="43.462210448280835" lon="11.356193453730175"><ele>355.0</ele><time>2026-03-28T10:55:49Z</time></trkpt><trkpt lat="43.462100333659976" lon="11.356078016043295"><ele>355.25</ele><time>2026-03-28T10:55:50Z</time></trkpt><trkpt lat="43.461992636727025" lon="11.355963846404256"><ele>355.5</ele><time>2026-03-28T10:55:51Z</time></trkpt><trkpt lat="43.46186534451269" lon="11.355862571510933"><ele>355.75</ele><time>2026-03-28T10:55:52Z</time></trkpt><trkpt lat="43.46173768718069" lon="11.35576043513737"><ele>356.0</ele><time>2026-03-28T10:55:53Z</time></trkpt><trkpt lat="43.46163058528401" lon="11.355674252249372"><ele>356.0</ele><time>2026-03-28T10:55:54Z</time></trkpt><trkpt lat="43.46154307930367" lon="11.355597151443211"><ele>356.0</ele><time>2026-03-28T10:55:55Z</time></trkpt><trkpt lat="43.461459877220165" lon="11.355542707014418"><ele>356.0</ele><time>2026-03-28T10:55:56Z</time></trkpt><trkpt lat="43.46137916242399" lon="11.35550119051234"><ele>356.0</ele><time>2026-03-28T10:55:57Z</time></trkpt><trkpt lat="43.46128947403035" lon="11.355505775284856"><ele>356.0</ele><time>2026-03-28T10:55:58Z</time></trkpt><trkpt lat="43.461179778127246" lon="11.355525268313402"><ele>355.6</ele><time>2026-03-28T10:55:59Z</time></trkpt><trkpt lat="43.46106326622137" lon="11.35557324086451"><ele>355.20000000000005</ele><time>2026-03-28T10:56:00Z</time></trkpt><trkpt lat="43.460950335823846" lon="11.355597427042442"><ele>354.79999999999995</ele><time>2026-03-28T10:56:01Z</time></trkpt><trkpt lat="43.46084056953481" lon="11.355614292723448"><ele>354.4</ele><time>2026-03-28T10:56:02Z</time></trkpt><trkpt lat="43.46073800219309" lon="11.355622457262909"><ele>354.0</ele><time>2026-03-28T10:56:03Z</time></trkpt><trkpt lat="43.46061909412572" lon="11.355619668755057"><ele>354.0</ele><time>2026-03-28T10:56:04Z</time></trkpt><trkpt lat="43.460487534031365" lon="11.355582088250813"><ele>354.0</ele><time>2026-03-28T10:56:05Z</time></trkpt><trkpt lat="43.460362315062504" lon="11.355555983888516"><ele>354.0</ele><time>2026-03-28T10:56:06Z</time></trkpt><trkpt lat="43.46025545818947" lon="11.355512147743658"><ele>354.0</ele><time>2026-03-28T10:56:07Z</time></trkpt><trkpt lat="43.4601587184866" lon="11.355493972947977"><ele>353.4</ele><time>2026-03-28T10:56:08Z</time></trkpt><trkpt lat="43.460057395865284" lon="11.355494827024526"><ele>352.79999999999995</ele><time>2026-03-28T10:56:09Z</time></trkpt><trkpt lat="43.45995663970896" lon="11.355540599048812"><ele>352.20000000000005</ele><time>2026-03-28T10:56:10Z</time></trkpt><trkpt lat="43.459858148177624" lon="11.355573138268241"><ele>351.6</ele><time>2026-03-28T10:56:11Z</time></trkpt><trkpt lat="43.459743611482835" lon="11.355597375766036"><ele>351.0</ele><time>2026-03-28T10:56:12Z</time></trkpt><trkpt lat="43.45961887129549" lon="11.355601926060464"><ele>350.5</ele><time>2026-03-28T10:56:13Z</time></trkpt><trkpt lat="43.45949666059078" lon="11.355590302442149"><ele>350.0</ele><time>2026-03-28T10:56:14.001Z</time></trkpt><trkpt lat="43.45936869070745" lon="11.355554294666856"><ele>349.5</ele><time>2026-03-28T10:56:15.001Z</time></trkpt><trkpt lat="43.459244408838344" lon="11.355527061778693"><ele>349.0</ele><time>2026-03-28T10:56:16.001Z</time></trkpt><trkpt lat="43.45913632746467" lon="11.355491672982572"><ele>349.2</ele><time>2026-03-28T10:56:17.001Z</time></trkpt><trkpt lat="43.4590313074653" lon="11.355464658691558"><ele>349.4</ele><time>2026-03-28T10:56:18.001Z</time></trkpt><trkpt lat="43.4589251334813" lon="11.35542699220955"><ele>349.6</ele><time>2026-03-28T10:56:19.001Z</time></trkpt><trkpt lat="43.458828698238165" lon="11.355371597373788"><ele>349.8</ele><time>2026-03-28T10:56:20.001Z</time></trkpt><trkpt lat="43.45872317382349" lon="11.355320890447205"><ele>350.0</ele><time>2026-03-28T10:56:21.001Z</time></trkpt><trkpt lat="43.458620056290684" lon="11.355223029268178"><ele>350.0</ele><time>2026-03-28T10:56:22.001Z</time></trkpt><trkpt lat="43.45850062343886" lon="11.35513338769344"><ele>350.0</ele><time>2026-03-28T10:56:23.001Z</time></trkpt><trkpt lat="43.458383399407694" lon="11.355022030405499"><ele>350.0</ele><time>2026-03-28T10:56:24.001Z</time></trkpt><trkpt lat="43.45827312705843" lon="11.354920567984971"><ele>350.0</ele><time>2026-03-28T10:56:25.001Z</time></trkpt><trkpt lat="43.458182615099304" lon="11.354832623284922"><ele>350.0</ele><time>2026-03-28T10:56:26.001Z</time></trkpt><trkpt lat="43.458100310539464" lon="11.354764267531719"><ele>350.0</ele><time>2026-03-28T10:56:27.001Z</time></trkpt><trkpt lat="43.458018663892815" lon="11.35472611260725"><ele>350.0</ele><time>2026-03-28T10:56:28.001Z</time></trkpt><trkpt lat="43.45790514182885" lon="11.3547069871367"><ele>350.0</ele><time>2026-03-28T10:56:29.001Z</time></trkpt><trkpt lat="43.457776214192215" lon="11.354669300142671"><ele>350.0</ele><time>2026-03-28T10:56:30.001Z</time></trkpt><trkpt lat="43.45764334786233" lon="11.354604124739474"><ele>351.25</ele><time>2026-03-28T10:56:31.001Z</time></trkpt><trkpt lat="43.45751463160486" lon="11.354562437539522"><ele>352.5</ele><time>2026-03-28T10:56:32.001Z</time></trkpt><trkpt lat="43.457386937155846" lon="11.354508351748208"><ele>353.75</ele><time>2026-03-28T10:56:33.001Z</time></trkpt><trkpt lat="43.45728147250663" lon="11.354455238491878"><ele>355.0</ele><time>2026-03-28T10:56:34.001Z</time></trkpt><trkpt lat="43.45721856183887" lon="11.354392828743652"><ele>355.0</ele><time>2026-03-28T10:56:35.001Z</time></trkpt><trkpt lat="43.45713272327535" lon="11.354332670433292"><ele>355.0</ele><time>2026-03-28T10:56:36.001Z</time></trkpt><trkpt lat="43.4570161066887" lon="11.35431515855735"><ele>355.0</ele><time>2026-03-28T10:56:37Z</time></trkpt><trkpt lat="43.456897396292966" lon="11.35429536365942"><ele>355.0</ele><time>2026-03-28T10:56:38Z</time></trkpt><trkpt lat="43.456764947561204" lon="11.354276560185541"><ele>352.75</ele><time>2026-03-28T10:56:39Z</time></trkpt><trkpt lat="43.456642592232356" lon="11.354241639001744"><ele>350.5</ele><time>2026-03-28T10:56:40Z</time></trkpt><trkpt lat="43.45649767575384" lon="11.354218136391186"><ele>348.25</ele><time>2026-03-28T10:56:41Z</time></trkpt><trkpt lat="43.45635386715509" lon="11.354183936457526"><ele>346.0</ele><time>2026-03-28T10:56:42Z</time></trkpt><trkpt lat="43.45621471961392" lon="11.354153838103485"><ele>345.75</ele><time>2026-03-28T10:56:43Z</time></trkpt><trkpt lat="43.4560758561542" lon="11.354150055216333"><ele>345.5</ele><time>2026-03-28T10:56:44Z</time></trkpt><trkpt lat="43.455949243492036" lon="11.354117842208396"><ele>345.25</ele><time>2026-03-28T10:56:45Z</time></trkpt><trkpt lat="43.455836432966436" lon="11.354070452350642"><ele>345.0</ele><time>2026-03-28T10:56:46Z</time></trkpt><trkpt lat="43.455726292981595" lon="11.354018772479678"><ele>345.0</ele><time>2026-03-28T10:56:47Z</time></trkpt><trkpt lat="43.455624345153765" lon="11.353973989186343"><ele>345.0</ele><time>2026-03-28T10:56:48Z</time></trkpt><trkpt lat="43.45552836054791" lon="11.353941686863159"><ele>345.0</ele><time>2026-03-28T10:56:49Z</time></trkpt><trkpt lat="43.45542897070901" lon="11.353917033315163"><ele>345.0</ele><time>2026-03-28T10:56:50Z</time></trkpt><trkpt lat="43.455344218144916" lon="11.35392230570683"><ele>345.0</ele><time>2026-03-28T10:56:51Z</time></trkpt><trkpt lat="43.45526462502931" lon="11.353931530517704"><ele>344.6666666666667</ele><time>2026-03-28T10:56:52Z</time></trkpt><trkpt lat="43.455179435478755" lon="11.353963100598433"><ele>344.3333333333333</ele><time>2026-03-28T10:56:53Z</time></trkpt><trkpt lat="43.45510096569858" lon="11.353986407942234"><ele>344.0</ele><time>2026-03-28T10:56:54Z</time></trkpt><trkpt lat="43.45501791434812" lon="11.354013447246087"><ele>343.66666666666663</ele><time>2026-03-28T10:56:55Z</time></trkpt><trkpt lat="43.45494032346025" lon="11.35403864699624"><ele>343.3333333333333</ele><time>2026-03-28T10:56:56Z</time></trkpt><trkpt lat="43.45486393814518" lon="11.354060162233425"><ele>343.0</ele><time>2026-03-28T10:56:57Z</time></trkpt><trkpt lat="43.454784450147656" lon="11.354085833096205"><ele>343.0</ele><time>2026-03-28T10:56:58Z</time></trkpt><trkpt lat="43.45470698399272" lon="11.354137667719353"><ele>343.0</ele><time>2026-03-28T10:56:59Z</time></trkpt><trkpt lat="43.45462784351381" lon="11.354199228586415"><ele>343.0</ele><time>2026-03-28T10:57:00Z</time></trkpt><trkpt lat="43.454542927074975" lon="11.354250715771707"><ele>343.0</ele><time>2026-03-28T10:57:01Z</time></trkpt><trkpt lat="43.45446118992524" lon="11.354312653255278"><ele>343.0</ele><time>2026-03-28T10:57:02Z</time></trkpt><trkpt lat="43.45437535638091" lon="11.354354361583626"><ele>341.8333333333333</ele><time>2026-03-28T10:57:03Z</time></trkpt><trkpt lat="43.45429818851109" lon="11.354384875980422"><ele>340.66666666666663</ele><time>2026-03-28T10:57:04Z</time></trkpt><trkpt lat="43.45421264415971" lon="11.354372204830778"><ele>339.5</ele><time>2026-03-28T10:57:05Z</time></trkpt><trkpt lat="43.4541384565067" lon="11.354335136551217"><ele>338.3333333333333</ele><time>2026-03-28T10:57:06Z</time></trkpt><trkpt lat="43.45407175848996" lon="11.354281461910343"><ele>337.1666666666667</ele><time>2026-03-28T10:57:07Z</time></trkpt><trkpt lat="43.45396193576442" lon="11.35422263341446"><ele>336.0</ele><time>2026-03-28T10:57:09Z</time></trkpt><trkpt lat="43.45389620368798" lon="11.354258343768594"><ele>336.0</ele><time>2026-03-28T10:57:10Z</time></trkpt><trkpt lat="43.45381062947125" lon="11.354317953106708"><ele>336.0</ele><time>2026-03-28T10:57:11Z</time></trkpt><trkpt lat="43.45371171834798" lon="11.354371600232641"><ele>336.0</ele><time>2026-03-28T10:57:12Z</time></trkpt><trkpt lat="43.45361261392245" lon="11.354431585905948"><ele>336.0</ele><time>2026-03-28T10:57:13Z</time></trkpt><trkpt lat="43.453506262184845" lon="11.354468763521773"><ele>336.0</ele><time>2026-03-28T10:57:14Z</time></trkpt><trkpt lat="43.45341003374641" lon="11.354519886773176"><ele>337.5</ele><time>2026-03-28T10:57:15Z</time></trkpt><trkpt lat="43.453304821022385" lon="11.354567030429813"><ele>339.0</ele><time>2026-03-28T10:57:16Z</time></trkpt><trkpt lat="43.453193737424854" lon="11.354629724732915"><ele>340.5</ele><time>2026-03-28T10:57:17Z</time></trkpt><trkpt lat="43.45307082898155" lon="11.354701757860827"><ele>342.0</ele><time>2026-03-28T10:57:18Z</time></trkpt><trkpt lat="43.45289958668054" lon="11.354815610973164"><ele>342.0</ele><time>2026-03-28T10:57:19Z</time></trkpt><trkpt lat="43.45274566210796" lon="11.354921450579955"><ele>342.0</ele><time>2026-03-28T10:57:20Z</time></trkpt><trkpt lat="43.45261558535668" lon="11.354996137556501"><ele>342.0</ele><time>2026-03-28T10:57:21Z</time></trkpt><trkpt lat="43.4524921845911" lon="11.355066668915581"><ele>342.0</ele><time>2026-03-28T10:57:22Z</time></trkpt><trkpt lat="43.45236306349771" lon="11.355119679388757"><ele>342.0</ele><time>2026-03-28T10:57:23Z</time></trkpt><trkpt lat="43.4522453933431" lon="11.355161710068852"><ele>342.0</ele><time>2026-03-28T10:57:24Z</time></trkpt><trkpt lat="43.45213741823079" lon="11.355209905471396"><ele>342.0</ele><time>2026-03-28T10:57:25Z</time></trkpt><trkpt lat="43.45203777824091" lon="11.355250490037166"><ele>342.0</ele><time>2026-03-28T10:57:26Z</time></trkpt><trkpt lat="43.45194092123174" lon="11.355276513069835"><ele>342.0</ele><time>2026-03-28T10:57:27Z</time></trkpt><trkpt lat="43.451826179376006" lon="11.355288872038454"><ele>343.0</ele><time>2026-03-28T10:57:28Z</time></trkpt><trkpt lat="43.45171320210483" lon="11.355299193012183"><ele>344.0</ele><time>2026-03-28T10:57:29Z</time></trkpt><trkpt lat="43.45161790660054" lon="11.355321649625058"><ele>345.0</ele><time>2026-03-28T10:57:30Z</time></trkpt><trkpt lat="43.45152272982471" lon="11.355372497190228"><ele>346.0</ele><time>2026-03-28T10:57:31Z</time></trkpt><trkpt lat="43.45140317369404" lon="11.355455039846948"><ele>347.0</ele><time>2026-03-28T10:57:32Z</time></trkpt><trkpt lat="43.451284634334925" lon="11.355553669750591"><ele>347.0</ele><time>2026-03-28T10:57:33Z</time></trkpt><trkpt lat="43.45116839320684" lon="11.355634219212293"><ele>347.0</ele><time>2026-03-28T10:57:34Z</time></trkpt><trkpt lat="43.451074823921424" lon="11.35569607464131"><ele>347.0</ele><time>2026-03-28T10:57:35Z</time></trkpt><trkpt lat="43.45100247771289" lon="11.355798213105984"><ele>347.0</ele><time>2026-03-28T10:57:36Z</time></trkpt><trkpt lat="43.45090896854686" lon="11.355897914226523"><ele>347.0</ele><time>2026-03-28T10:57:37Z</time></trkpt><trkpt lat="43.45082792706643" lon="11.355992071849998"><ele>347.0</ele><time>2026-03-28T10:57:38Z</time></trkpt><trkpt lat="43.45075622104808" lon="11.356081880453782"><ele>347.0</ele><time>2026-03-28T10:57:39Z</time></trkpt><trkpt lat="43.45069216513593" lon="11.35614716175445"><ele>347.0</ele><time>2026-03-28T10:57:40Z</time></trkpt><trkpt lat="43.450632888829865" lon="11.356214268015547"><ele>347.0</ele><time>2026-03-28T10:57:41Z</time></trkpt><trkpt lat="43.45057012316053" lon="11.356284679938678"><ele>347.0</ele><time>2026-03-28T10:57:42Z</time></trkpt><trkpt lat="43.45048610023361" lon="11.356374048315262"><ele>345.25</ele><time>2026-03-28T10:57:43Z</time></trkpt><trkpt lat="43.45039027578193" lon="11.356478774990684"><ele>343.5</ele><time>2026-03-28T10:57:44Z</time></trkpt><trkpt lat="43.450282589922836" lon="11.356577007026862"><ele>341.75</ele><time>2026-03-28T10:57:45Z</time></trkpt><trkpt lat="43.450184012364254" lon="11.356655201798272"><ele>340.0</ele><time>2026-03-28T10:57:46Z</time></trkpt><trkpt lat="43.450096547159795" lon="11.356712281054751"><ele>340.0</ele><time>2026-03-28T10:57:47Z</time></trkpt><trkpt lat="43.450008419382335" lon="11.356753440769578"><ele>340.0</ele><time>2026-03-28T10:57:48Z</time></trkpt><trkpt lat="43.4499040319988" lon="11.356781228754537"><ele>340.0</ele><time>2026-03-28T10:57:49Z</time></trkpt><trkpt lat="43.44977793044291" lon="11.356778705701563"><ele>340.0</ele><time>2026-03-28T10:57:50Z</time></trkpt><trkpt lat="43.44963532710057" lon="11.356736788055644"><ele>338.0</ele><time>2026-03-28T10:57:51Z</time></trkpt><trkpt lat="43.44949708459856" lon="11.356702456161237"><ele>336.0</ele><time>2026-03-28T10:57:52.001Z</time></trkpt><trkpt lat="43.44938404622719" lon="11.356673409238436"><ele>334.0</ele><time>2026-03-28T10:57:53.001Z</time></trkpt><trkpt lat="43.449279656577005" lon="11.356646433815367"><ele>332.0</ele><time>2026-03-28T10:57:54.001Z</time></trkpt><trkpt lat="43.449180125227855" lon="11.356587219922996"><ele>332.0</ele><time>2026-03-28T10:57:55.001Z</time></trkpt><trkpt lat="43.449073947154" lon="11.356492533343584"><ele>332.0</ele><time>2026-03-28T10:57:56.001Z</time></trkpt><trkpt lat="43.448951829634815" lon="11.356383054641885"><ele>332.0</ele><time>2026-03-28T10:57:57.001Z</time></trkpt><trkpt lat="43.448796435667745" lon="11.356272119821895"><ele>332.0</ele><time>2026-03-28T10:57:58.001Z</time></trkpt><trkpt lat="43.44859876331307" lon="11.356177663647417"><ele>333.33333333333337</ele><time>2026-03-28T10:57:59.001Z</time></trkpt><trkpt lat="43.448438283441476" lon="11.356087882529419"><ele>334.6666666666667</ele><time>2026-03-28T10:58:00.001Z</time></trkpt><trkpt lat="43.44828345313122" lon="11.355981991028754"><ele>336.0</ele><time>2026-03-28T10:58:01.001Z</time></trkpt><trkpt lat="43.448149136829215" lon="11.355896115451287"><ele>336.0</ele><time>2026-03-28T10:58:02.001Z</time></trkpt><trkpt lat="43.44802169686094" lon="11.355813635774593"><ele>336.0</ele><time>2026-03-28T10:58:03.001Z</time></trkpt><trkpt lat="43.44790325374928" lon="11.355744076160109"><ele>336.0</ele><time>2026-03-28T10:58:04.001Z</time></trkpt><trkpt lat="43.44779455653785" lon="11.355676539386698"><ele>336.0</ele><time>2026-03-28T10:58:05.001Z</time></trkpt><trkpt lat="43.44768519254043" lon="11.355619104282544"><ele>334.75</ele><time>2026-03-28T10:58:06.001Z</time></trkpt><trkpt lat="43.447584568150745" lon="11.35555672597578"><ele>333.5</ele><time>2026-03-28T10:58:07.001Z</time></trkpt><trkpt lat="43.44745695239821" lon="11.355500429533919"><ele>332.25</ele><time>2026-03-28T10:58:08.001Z</time></trkpt><trkpt lat="43.44732173744248" lon="11.3554584681792"><ele>331.0</ele><time>2026-03-28T10:58:09.001Z</time></trkpt><trkpt lat="43.447177440387854" lon="11.355426530089172"><ele>333.0</ele><time>2026-03-28T10:58:10.001Z</time></trkpt><trkpt lat="43.44702611389243" lon="11.355418065021166"><ele>335.0</ele><time>2026-03-28T10:58:11.001Z</time></trkpt><trkpt lat="43.446882266908354" lon="11.355392083017184"><ele>337.0</ele><time>2026-03-28T10:58:12.001Z</time></trkpt><trkpt lat="43.44672995769626" lon="11.35535629611382"><ele>337.0</ele><time>2026-03-28T10:58:13.001Z</time></trkpt><trkpt lat="43.44656531477095" lon="11.35533110120808"><ele>337.0</ele><time>2026-03-28T10:58:14.001Z</time></trkpt><trkpt lat="43.44641600981983" lon="11.355303031828468"><ele>337.0</ele><time>2026-03-28T10:58:15.001Z</time></trkpt><trkpt lat="43.446280619236255" lon="11.35527646038453"><ele>335.75</ele><time>2026-03-28T10:58:16.001Z</time></trkpt><trkpt lat="43.44615126346985" lon="11.35525445134575"><ele>334.5</ele><time>2026-03-28T10:58:17.001Z</time></trkpt><trkpt lat="43.44601965654414" lon="11.355245089953259"><ele>333.25</ele><time>2026-03-28T10:58:18.001Z</time></trkpt><trkpt lat="43.44590289640836" lon="11.355235651481873"><ele>332.0</ele><time>2026-03-28T10:58:19.001Z</time></trkpt><trkpt lat="43.44579145895644" lon="11.355219618962852"><ele>332.0</ele><time>2026-03-28T10:58:20.001Z</time></trkpt><trkpt lat="43.445677569891444" lon="11.355188536465"><ele>332.0</ele><time>2026-03-28T10:58:21.001Z</time></trkpt><trkpt lat="43.44556671540786" lon="11.355161990241221"><ele>332.0</ele><time>2026-03-28T10:58:22.001Z</time></trkpt><trkpt lat="43.44546427810568" lon="11.355100837599418"><ele>332.0</ele><time>2026-03-28T10:58:23.001Z</time></trkpt><trkpt lat="43.445352785581925" lon="11.355013346437271"><ele>331.0</ele><time>2026-03-28T10:58:24.001Z</time></trkpt><trkpt lat="43.445236930679194" lon="11.35490744939071"><ele>330.0</ele><time>2026-03-28T10:58:25.001Z</time></trkpt><trkpt lat="43.44513975677671" lon="11.354800232671208"><ele>329.0</ele><time>2026-03-28T10:58:26.001Z</time></trkpt><trkpt lat="43.445064797343804" lon="11.354689513932275"><ele>328.0</ele><time>2026-03-28T10:58:27.001Z</time></trkpt><trkpt lat="43.44500685225712" lon="11.35457859025428"><ele>328.0</ele><time>2026-03-28T10:58:28.001Z</time></trkpt><trkpt lat="43.44496231024628" lon="11.354454331459403"><ele>328.0</ele><time>2026-03-28T10:58:29.001Z</time></trkpt><trkpt lat="43.44492204209288" lon="11.354332494861675"><ele>328.0</ele><time>2026-03-28T10:58:30.001Z</time></trkpt><trkpt lat="43.44490911704295" lon="11.354203509087816"><ele>328.0</ele><time>2026-03-28T10:58:31.001Z</time></trkpt><trkpt lat="43.44490636381966" lon="11.354091784895715"><ele>328.0</ele><time>2026-03-28T10:58:32.001Z</time></trkpt><trkpt lat="43.44490493684916" lon="11.353995153599236"><ele>328.0</ele><time>2026-03-28T10:58:33.001Z</time></trkpt><trkpt lat="43.44490016221017" lon="11.353907403203616"><ele>327.79999999999995</ele><time>2026-03-28T10:58:34.001Z</time></trkpt><trkpt lat="43.444848788540185" lon="11.353776769946498"><ele>327.6</ele><time>2026-03-28T10:58:36.001Z</time></trkpt><trkpt lat="43.444725378185545" lon="11.353750221800128"><ele>327.4</ele><time>2026-03-28T10:58:38.001Z</time></trkpt><trkpt lat="43.444638316368874" lon="11.353773013226705"><ele>327.20000000000005</ele><time>2026-03-28T10:58:39.001Z</time></trkpt><trkpt lat="43.44454213077138" lon="11.353807160649987"><ele>327.0</ele><time>2026-03-28T10:58:40.001Z</time></trkpt><trkpt lat="43.444438182121125" lon="11.353821069806452"><ele>326.25</ele><time>2026-03-28T10:58:41.001Z</time></trkpt><trkpt lat="43.44431523659815" lon="11.353844497905074"><ele>325.5</ele><time>2026-03-28T10:58:42.001Z</time></trkpt><trkpt lat="43.444195862660315" lon="11.353910491205488"><ele>324.75</ele><time>2026-03-28T10:58:43Z</time></trkpt><trkpt lat="43.44408090170347" lon="11.353955569816664"><ele>324.0</ele><time>2026-03-28T10:58:44Z</time></trkpt><trkpt lat="43.443957042204026" lon="11.354023042438403"><ele>324.0</ele><time>2026-03-28T10:58:45Z</time></trkpt><trkpt lat="43.44381991459062" lon="11.354107093488132"><ele>324.0</ele><time>2026-03-28T10:58:46Z</time></trkpt><trkpt lat="43.44367312552797" lon="11.354214755756885"><ele>324.0</ele><time>2026-03-28T10:58:47Z</time></trkpt><trkpt lat="43.443507816240654" lon="11.354332763745935"><ele>327.3333333333333</ele><time>2026-03-28T10:58:48Z</time></trkpt><trkpt lat="43.44333527392833" lon="11.354446905930155"><ele>330.66666666666663</ele><time>2026-03-28T10:58:49Z</time></trkpt><trkpt lat="43.44318063899449" lon="11.354551969020267"><ele>334.0</ele><time>2026-03-28T10:58:50Z</time></trkpt><trkpt lat="43.443030556079535" lon="11.354652657495423"><ele>334.66666666666663</ele><time>2026-03-28T10:58:51Z</time></trkpt><trkpt lat="43.44289033506836" lon="11.35473586082674"><ele>335.3333333333333</ele><time>2026-03-28T10:58:52Z</time></trkpt><trkpt lat="43.442750756726774" lon="11.354806515417257"><ele>336.0</ele><time>2026-03-28T10:58:53Z</time></trkpt><trkpt lat="43.44261655311006" lon="11.354896381738337"><ele>336.0</ele><time>2026-03-28T10:58:54Z</time></trkpt><trkpt lat="43.442485540842554" lon="11.355011376047658"><ele>336.0</ele><time>2026-03-28T10:58:55Z</time></trkpt><trkpt lat="43.44237433308039" lon="11.35512363252976"><ele>336.0</ele><time>2026-03-28T10:58:56Z</time></trkpt><trkpt lat="43.44227254663954" lon="11.355210769561"><ele>336.0</ele><time>2026-03-28T10:58:57Z</time></trkpt><trkpt lat="43.44217845461907" lon="11.355266834860556"><ele>339.1666666666667</ele><time>2026-03-28T10:58:58Z</time></trkpt><trkpt lat="43.44209154634547" lon="11.355303091493587"><ele>342.3333333333333</ele><time>2026-03-28T10:58:59Z</time></trkpt><trkpt lat="43.4419944014373" lon="11.355318738289855"><ele>345.5</ele><time>2026-03-28T10:59:00Z</time></trkpt><trkpt lat="43.44191340860751" lon="11.355312855490608"><ele>348.66666666666663</ele><time>2026-03-28T10:59:01Z</time></trkpt><trkpt lat="43.441840830309644" lon="11.355320905629844"><ele>351.8333333333333</ele><time>2026-03-28T10:59:02Z</time></trkpt><trkpt lat="43.441757013289674" lon="11.355324758182805"><ele>355.0</ele><time>2026-03-28T10:59:03Z</time></trkpt><trkpt lat="43.44168066659819" lon="11.355332441286752"><ele>355.0</ele><time>2026-03-28T10:59:04Z</time></trkpt><trkpt lat="43.441596458648476" lon="11.355360280421541"><ele>355.0</ele><time>2026-03-28T10:59:05Z</time></trkpt><trkpt lat="43.441512578343875" lon="11.355431649972878"><ele>355.0</ele><time>2026-03-28T10:59:06Z</time></trkpt><trkpt lat="43.44145583466402" lon="11.355528742904166"><ele>355.0</ele><time>2026-03-28T10:59:07Z</time></trkpt><trkpt lat="43.44141999060529" lon="11.355627746822512"><ele>355.0</ele><time>2026-03-28T10:59:08Z</time></trkpt><trkpt lat="43.44137203885519" lon="11.355727834724533"><ele>355.0</ele><time>2026-03-28T10:59:09Z</time></trkpt><trkpt lat="43.44130968245903" lon="11.355801381446218"><ele>354.4</ele><time>2026-03-28T10:59:10Z</time></trkpt><trkpt lat="43.441230673121304" lon="11.355851493863655"><ele>353.8</ele><time>2026-03-28T10:59:11Z</time></trkpt><trkpt lat="43.44116496176033" lon="11.355887003954564"><ele>353.20000000000005</ele><time>2026-03-28T10:59:12Z</time></trkpt><trkpt lat="43.44107309932548" lon="11.355908700879697"><ele>352.6</ele><time>2026-03-28T10:59:14Z</time></trkpt><trkpt lat="43.44100508514957" lon="11.355795432410613"><ele>352.0</ele><time>2026-03-28T10:59:16Z</time></trkpt><trkpt lat="43.441003932369796" lon="11.355658607944077"><ele>352.20000000000005</ele><time>2026-03-28T10:59:19Z</time></trkpt><trkpt lat="43.44105901058936" lon="11.355482411462337"><ele>352.4</ele><time>2026-03-28T10:59:21Z</time></trkpt><trkpt lat="43.44108515010553" lon="11.355290545039818"><ele>352.6</ele><time>2026-03-28T10:59:23Z</time></trkpt><trkpt lat="43.44108066204376" lon="11.35517643379858"><ele>352.79999999999995</ele><time>2026-03-28T10:59:24Z</time></trkpt><trkpt lat="43.44106675091288" lon="11.355063019862904"><ele>353.0</ele><time>2026-03-28T10:59:25Z</time></trkpt><trkpt lat="43.441048729869316" lon="11.354943177425888"><ele>353.0</ele><time>2026-03-28T10:59:26Z</time></trkpt><trkpt lat="43.44102607829147" lon="11.354819562285906"><ele>353.0</ele><time>2026-03-28T10:59:27Z</time></trkpt><trkpt lat="43.440998726454204" lon="11.354675462614619"><ele>353.0</ele><time>2026-03-28T10:59:28Z</time></trkpt><trkpt lat="43.440965682277884" lon="11.354522433765244"><ele>353.0</ele><time>2026-03-28T10:59:29Z</time></trkpt><trkpt lat="43.440933364698196" lon="11.354379974611708"><ele>353.0</ele><time>2026-03-28T10:59:30Z</time></trkpt><trkpt lat="43.440902679292115" lon="11.354242673190004"><ele>353.5</ele><time>2026-03-28T10:59:31Z</time></trkpt><trkpt lat="43.44087306693591" lon="11.354092576648968"><ele>354.0</ele><time>2026-03-28T10:59:32Z</time></trkpt><trkpt lat="43.440848122625844" lon="11.353940730901412"><ele>354.5</ele><time>2026-03-28T10:59:33Z</time></trkpt><trkpt lat="43.440829478815964" lon="11.353793115917963"><ele>355.0</ele><time>2026-03-28T10:59:34Z</time></trkpt><trkpt lat="43.44080660759468" lon="11.353608946327986"><ele>357.0</ele><time>2026-03-28T10:59:35Z</time></trkpt><trkpt lat="43.4407847149053" lon="11.35340369927616"><ele>359.0</ele><time>2026-03-28T10:59:36Z</time></trkpt><trkpt lat="43.440763155183035" lon="11.35320157381198"><ele>361.0</ele><time>2026-03-28T10:59:37Z</time></trkpt><trkpt lat="43.44074072077194" lon="11.35299124799076"><ele>362.5</ele><time>2026-03-28T10:59:38Z</time></trkpt><trkpt lat="43.44072037828038" lon="11.352800534174047"><ele>364.0</ele><time>2026-03-28T10:59:39Z</time></trkpt><trkpt lat="43.44069392042405" lon="11.35260764068"><ele>365.5</ele><time>2026-03-28T10:59:40Z</time></trkpt><trkpt lat="43.44066091678256" lon="11.352436461325881"><ele>367.0</ele><time>2026-03-28T10:59:41Z</time></trkpt><trkpt lat="43.440620241337605" lon="11.352285172804066"><ele>368.20000000000005</ele><time>2026-03-28T10:59:42Z</time></trkpt><trkpt lat="43.44060156369545" lon="11.352123091017088"><ele>369.4</ele><time>2026-03-28T10:59:43Z</time></trkpt><trkpt lat="43.440583190566" lon="11.351968408311265"><ele>370.6</ele><time>2026-03-28T10:59:44Z</time></trkpt><trkpt lat="43.440571188762945" lon="11.351814678747997"><ele>371.79999999999995</ele><time>2026-03-28T10:59:45Z</time></trkpt><trkpt lat="43.440569230321" lon="11.351697583611923"><ele>373.0</ele><time>2026-03-28T10:59:46Z</time></trkpt><trkpt lat="43.44056352379517" lon="11.351584857365543"><ele>373.0</ele><time>2026-03-28T10:59:47Z</time></trkpt><trkpt lat="43.44048601338057" lon="11.351502314334379"><ele>373.0</ele><time>2026-03-28T10:59:48Z</time></trkpt><trkpt lat="43.440434428136065" lon="11.351356648273494"><ele>373.0</ele><time>2026-03-28T10:59:49Z</time></trkpt><trkpt lat="43.440380795168224" lon="11.351208265166408"><ele>373.0</ele><time>2026-03-28T10:59:50Z</time></trkpt><trkpt lat="43.44034081974059" lon="11.351073964881396"><ele>373.0</ele><time>2026-03-28T10:59:51Z</time></trkpt><trkpt lat="43.44030756528879" lon="11.350966788108927"><ele>373.0</ele><time>2026-03-28T10:59:52Z</time></trkpt><trkpt lat="43.440253889339104" lon="11.350843058813215"><ele>373.0</ele><time>2026-03-28T10:59:53Z</time></trkpt><trkpt lat="43.440179278634744" lon="11.350737642905358"><ele>373.0</ele><time>2026-03-28T10:59:54.001Z</time></trkpt><trkpt lat="43.44009053739174" lon="11.350639098948049"><ele>373.0</ele><time>2026-03-28T10:59:55.001Z</time></trkpt><trkpt lat="43.43998190020285" lon="11.35055618440002"><ele>373.75</ele><time>2026-03-28T10:59:56.001Z</time></trkpt><trkpt lat="43.439856785967535" lon="11.350473291166871"><ele>374.5</ele><time>2026-03-28T10:59:57.001Z</time></trkpt><trkpt lat="43.43970775184262" lon="11.35040670717315"><ele>375.25</ele><time>2026-03-28T10:59:58.001Z</time></trkpt><trkpt lat="43.439592481688955" lon="11.350343655794408"><ele>376.0</ele><time>2026-03-28T10:59:59.001Z</time></trkpt><trkpt lat="43.439486108111005" lon="11.350291382912372"><ele>376.25</ele><time>2026-03-28T11:00:00.001Z</time></trkpt><trkpt lat="43.4393705104728" lon="11.350238447047225"><ele>376.5</ele><time>2026-03-28T11:00:01.001Z</time></trkpt><trkpt lat="43.43924340051278" lon="11.350161290784621"><ele>376.75</ele><time>2026-03-28T11:00:02.001Z</time></trkpt><trkpt lat="43.43911355867089" lon="11.35012128792262"><ele>377.0</ele><time>2026-03-28T11:00:03.001Z</time></trkpt><trkpt lat="43.43900225811632" lon="11.350077948388972"><ele>377.0</ele><time>2026-03-28T11:00:04.001Z</time></trkpt><trkpt lat="43.438900806123044" lon="11.35002934771922"><ele>377.0</ele><time>2026-03-28T11:00:05.001Z</time></trkpt><trkpt lat="43.43880561225791" lon="11.349986848471765"><ele>377.0</ele><time>2026-03-28T11:00:06.001Z</time></trkpt><trkpt lat="43.43871522325255" lon="11.349937121504686"><ele>377.0</ele><time>2026-03-28T11:00:07.001Z</time></trkpt><trkpt lat="43.43860209185424" lon="11.349902615722558"><ele>377.0</ele><time>2026-03-28T11:00:08.001Z</time></trkpt><trkpt lat="43.438489085346845" lon="11.349845872757816"><ele>376.5</ele><time>2026-03-28T11:00:09.001Z</time></trkpt><trkpt lat="43.43837990346867" lon="11.349768864297692"><ele>376.0</ele><time>2026-03-28T11:00:10.001Z</time></trkpt><trkpt lat="43.43828894027549" lon="11.349681333728247"><ele>375.5</ele><time>2026-03-28T11:00:11.001Z</time></trkpt><trkpt lat="43.4382048637548" lon="11.349582633651654"><ele>375.0</ele><time>2026-03-28T11:00:12.001Z</time></trkpt><trkpt lat="43.438124656401" lon="11.349460735268238"><ele>375.4</ele><time>2026-03-28T11:00:13.001Z</time></trkpt><trkpt lat="43.43807390460168" lon="11.349310569956078"><ele>375.8</ele><time>2026-03-28T11:00:14.001Z</time></trkpt><trkpt lat="43.43802513898675" lon="11.349177699281585"><ele>376.20000000000005</ele><time>2026-03-28T11:00:15.001Z</time></trkpt><trkpt lat="43.43799045011767" lon="11.34904479514494"><ele>376.6</ele><time>2026-03-28T11:00:16.001Z</time></trkpt><trkpt lat="43.4379639953257" lon="11.348919491141581"><ele>377.0</ele><time>2026-03-28T11:00:17.001Z</time></trkpt><trkpt lat="43.437956289674936" lon="11.34878814071173"><ele>377.0</ele><time>2026-03-28T11:00:18.001Z</time></trkpt><trkpt lat="43.43792053075672" lon="11.348634170519016"><ele>377.0</ele><time>2026-03-28T11:00:19.001Z</time></trkpt><trkpt lat="43.437847669350056" lon="11.348507871437121"><ele>377.0</ele><time>2026-03-28T11:00:20.001Z</time></trkpt><trkpt lat="43.43776682367576" lon="11.34840110940137"><ele>377.0</ele><time>2026-03-28T11:00:21.001Z</time></trkpt><trkpt lat="43.4376705258166" lon="11.348345333089206"><ele>377.0</ele><time>2026-03-28T11:00:22.001Z</time></trkpt><trkpt lat="43.437568111030906" lon="11.348327386538957"><ele>377.0</ele><time>2026-03-28T11:00:23.001Z</time></trkpt><trkpt lat="43.43746433515611" lon="11.348351443172872"><ele>377.0</ele><time>2026-03-28T11:00:24.001Z</time></trkpt><trkpt lat="43.43737141013713" lon="11.348422347080293"><ele>377.0</ele><time>2026-03-28T11:00:25.001Z</time></trkpt><trkpt lat="43.437298362906596" lon="11.348529963914887"><ele>377.0</ele><time>2026-03-28T11:00:26.001Z</time></trkpt><trkpt lat="43.43724590313828" lon="11.34867459689387"><ele>377.0</ele><time>2026-03-28T11:00:27.001Z</time></trkpt><trkpt lat="43.43721128975685" lon="11.34881804408502"><ele>377.0</ele><time>2026-03-28T11:00:28.001Z</time></trkpt><trkpt lat="43.437185258212146" lon="11.348934048455654"><ele>377.0</ele><time>2026-03-28T11:00:29.001Z</time></trkpt><trkpt lat="43.43715968687058" lon="11.349031413838208"><ele>377.0</ele><time>2026-03-28T11:00:30.001Z</time></trkpt><trkpt lat="43.437133630668484" lon="11.34911809934497"><ele>377.0</ele><time>2026-03-28T11:00:31.001Z</time></trkpt><trkpt lat="43.43708356751254" lon="11.349213185381341"><ele>377.0</ele><time>2026-03-28T11:00:32.001Z</time></trkpt><trkpt lat="43.43701768991155" lon="11.349300004646183"><ele>376.33333333333337</ele><time>2026-03-28T11:00:33.001Z</time></trkpt><trkpt lat="43.43694444646199" lon="11.34933877333436"><ele>375.6666666666667</ele><time>2026-03-28T11:00:34.001Z</time></trkpt><trkpt lat="43.43685475585515" lon="11.349358734928135"><ele>375.0</ele><time>2026-03-28T11:00:35.001Z</time></trkpt><trkpt lat="43.43676468479524" lon="11.349366344810406"><ele>374.3333333333333</ele><time>2026-03-28T11:00:36.001Z</time></trkpt><trkpt lat="43.43669366111397" lon="11.349307025840174"><ele>373.66666666666663</ele><time>2026-03-28T11:00:37.001Z</time></trkpt><trkpt lat="43.43663415273858" lon="11.349228614298664"><ele>373.0</ele><time>2026-03-28T11:00:38.001Z</time></trkpt><trkpt lat="43.43655092474284" lon="11.349143428868015"><ele>373.0</ele><time>2026-03-28T11:00:39.001Z</time></trkpt><trkpt lat="43.436443291865764" lon="11.349051791224836"><ele>373.0</ele><time>2026-03-28T11:00:40.001Z</time></trkpt><trkpt lat="43.43635092537357" lon="11.348959579406007"><ele>373.0</ele><time>2026-03-28T11:00:41.001Z</time></trkpt><trkpt lat="43.43625091154581" lon="11.348885784538243"><ele>373.0</ele><time>2026-03-28T11:00:42.001Z</time></trkpt><trkpt lat="43.43615215539686" lon="11.348815538562725"><ele>375.0</ele><time>2026-03-28T11:00:43.001Z</time></trkpt><trkpt lat="43.43606974420102" lon="11.348751953434425"><ele>377.0</ele><time>2026-03-28T11:00:44.001Z</time></trkpt><trkpt lat="43.43599194647151" lon="11.34868564038667"><ele>379.0</ele><time>2026-03-28T11:00:45.001Z</time></trkpt><trkpt lat="43.43590680619396" lon="11.34864583909745"><ele>381.0</ele><time>2026-03-28T11:00:46.001Z</time></trkpt><trkpt lat="43.43581399080487" lon="11.3486311548242"><ele>383.0</ele><time>2026-03-28T11:00:47.001Z</time></trkpt><trkpt lat="43.435722730103166" lon="11.348657971654381"><ele>383.0</ele><time>2026-03-28T11:00:48.001Z</time></trkpt><trkpt lat="43.435634780795944" lon="11.348655954824586"><ele>383.0</ele><time>2026-03-28T11:00:49Z</time></trkpt><trkpt lat="43.43554842851008" lon="11.34868423162839"><ele>383.0</ele><time>2026-03-28T11:00:50Z</time></trkpt><trkpt lat="43.43545772852407" lon="11.348720146288267"><ele>383.0</ele><time>2026-03-28T11:00:51Z</time></trkpt><trkpt lat="43.43537013748591" lon="11.348771234232846"><ele>383.0</ele><time>2026-03-28T11:00:52Z</time></trkpt><trkpt lat="43.435284325743766" lon="11.348793456619365"><ele>383.1666666666667</ele><time>2026-03-28T11:00:53Z</time></trkpt><trkpt lat="43.435205258402746" lon="11.348804882596887"><ele>383.33333333333337</ele><time>2026-03-28T11:00:54Z</time></trkpt><trkpt lat="43.43512674080694" lon="11.34877321550353"><ele>383.5</ele><time>2026-03-28T11:00:55Z</time></trkpt><trkpt lat="43.43505087910006" lon="11.34873679865277"><ele>383.6666666666667</ele><time>2026-03-28T11:00:56Z</time></trkpt><trkpt lat="43.43497841989401" lon="11.348702980031685"><ele>383.8333333333333</ele><time>2026-03-28T11:00:57Z</time></trkpt><trkpt lat="43.43490211550153" lon="11.348680743523571"><ele>384.0</ele><time>2026-03-28T11:00:58Z</time></trkpt><trkpt lat="43.43482686621788" lon="11.348672903153872"><ele>384.0</ele><time>2026-03-28T11:00:59Z</time></trkpt><trkpt lat="43.4347524978802" lon="11.348698237178281"><ele>384.0</ele><time>2026-03-28T11:01:00Z</time></trkpt><trkpt lat="43.434684018777965" lon="11.3487662982162"><ele>384.0</ele><time>2026-03-28T11:01:01Z</time></trkpt><trkpt lat="43.43464367800788" lon="11.348864007568867"><ele>384.0</ele><time>2026-03-28T11:01:02Z</time></trkpt><trkpt lat="43.43459351393453" lon="11.348974013987396"><ele>384.0</ele><time>2026-03-28T11:01:03Z</time></trkpt><trkpt lat="43.43454764270948" lon="11.34909942921819"><ele>384.0</ele><time>2026-03-28T11:01:04Z</time></trkpt><trkpt lat="43.43449887813269" lon="11.349251093502952"><ele>383.5</ele><time>2026-03-28T11:01:05Z</time></trkpt><trkpt lat="43.43443683757871" lon="11.349451603035282"><ele>383.0</ele><time>2026-03-28T11:01:06Z</time></trkpt><trkpt lat="43.43437178021096" lon="11.349608462716077"><ele>382.5</ele><time>2026-03-28T11:01:07Z</time></trkpt><trkpt lat="43.434298337539765" lon="11.349738819756292"><ele>382.0</ele><time>2026-03-28T11:01:08Z</time></trkpt><trkpt lat="43.434255073171926" lon="11.34985220159094"><ele>382.0</ele><time>2026-03-28T11:01:09Z</time></trkpt><trkpt lat="43.434178947655326" lon="11.349940886304909"><ele>382.0</ele><time>2026-03-28T11:01:10Z</time></trkpt><trkpt lat="43.434082418910364" lon="11.35005967073806"><ele>382.0</ele><time>2026-03-28T11:01:11Z</time></trkpt><trkpt lat="43.43397457875668" lon="11.350211829342472"><ele>382.0</ele><time>2026-03-28T11:01:12Z</time></trkpt><trkpt lat="43.433869650290184" lon="11.35033328577261"><ele>381.75</ele><time>2026-03-28T11:01:13Z</time></trkpt><trkpt lat="43.43377542695921" lon="11.350443405197574"><ele>381.5</ele><time>2026-03-28T11:01:14Z</time></trkpt><trkpt lat="43.433688562790564" lon="11.350548687010509"><ele>381.25</ele><time>2026-03-28T11:01:15Z</time></trkpt><trkpt lat="43.43359809631523" lon="11.350658669806421"><ele>381.0</ele><time>2026-03-28T11:01:16Z</time></trkpt><trkpt lat="43.43349443366469" lon="11.350765542713551"><ele>381.0</ele><time>2026-03-28T11:01:17Z</time></trkpt><trkpt lat="43.43337786533109" lon="11.350881595264726"><ele>381.0</ele><time>2026-03-28T11:01:18Z</time></trkpt><trkpt lat="43.43324953891628" lon="11.351000544958016"><ele>381.0</ele><time>2026-03-28T11:01:19Z</time></trkpt><trkpt lat="43.43312443973967" lon="11.351102891455426"><ele>381.0</ele><time>2026-03-28T11:01:20Z</time></trkpt><trkpt lat="43.43300206138833" lon="11.351192982365909"><ele>382.8</ele><time>2026-03-28T11:01:21Z</time></trkpt><trkpt lat="43.43290047125314" lon="11.351270915222555"><ele>384.6</ele><time>2026-03-28T11:01:22Z</time></trkpt><trkpt lat="43.432809887199625" lon="11.351332536068384"><ele>386.4</ele><time>2026-03-28T11:01:23Z</time></trkpt><trkpt lat="43.432714520652084" lon="11.351387666979065"><ele>388.2</ele><time>2026-03-28T11:01:24Z</time></trkpt><trkpt lat="43.432608662601396" lon="11.351377033524193"><ele>390.0</ele><time>2026-03-28T11:01:25Z</time></trkpt><trkpt lat="43.43250457711305" lon="11.351379079696928"><ele>390.0</ele><time>2026-03-28T11:01:26Z</time></trkpt><trkpt lat="43.43239618000973" lon="11.35139094166304"><ele>390.0</ele><time>2026-03-28T11:01:27Z</time></trkpt><trkpt lat="43.43227285839145" lon="11.351364439647943"><ele>390.0</ele><time>2026-03-28T11:01:28Z</time></trkpt><trkpt lat="43.43214667366094" lon="11.35135554403315"><ele>390.0</ele><time>2026-03-28T11:01:29Z</time></trkpt><trkpt lat="43.43206319363712" lon="11.351316065715814"><ele>390.0</ele><time>2026-03-28T11:01:30Z</time></trkpt><trkpt lat="43.43198109040834" lon="11.351288797182475"><ele>391.2</ele><time>2026-03-28T11:01:31Z</time></trkpt><trkpt lat="43.43188711021032" lon="11.3512715655788"><ele>392.4</ele><time>2026-03-28T11:01:32Z</time></trkpt><trkpt lat="43.43181629373886" lon="11.351170751303812"><ele>393.6</ele><time>2026-03-28T11:01:33Z</time></trkpt><trkpt lat="43.43174526502424" lon="11.351092085791379"><ele>394.8</ele><time>2026-03-28T11:01:34Z</time></trkpt><trkpt lat="43.43168334528793" lon="11.351012459617452"><ele>396.0</ele><time>2026-03-28T11:01:35Z</time></trkpt><trkpt lat="43.431629055087996" lon="11.350927715607831"><ele>396.0</ele><time>2026-03-28T11:01:36Z</time></trkpt><trkpt lat="43.43157443609666" lon="11.350841196850007"><ele>396.0</ele><time>2026-03-28T11:01:37Z</time></trkpt><trkpt lat="43.4315280896497" lon="11.350751034757542"><ele>396.0</ele><time>2026-03-28T11:01:38Z</time></trkpt><trkpt lat="43.4314804754078" lon="11.350679615576672"><ele>396.0</ele><time>2026-03-28T11:01:39Z</time></trkpt><trkpt lat="43.43141598631267" lon="11.35062880955293"><ele>396.0</ele><time>2026-03-28T11:01:40Z</time></trkpt><trkpt lat="43.431343462540134" lon="11.35060398028419"><ele>396.0</ele><time>2026-03-28T11:01:41Z</time></trkpt><trkpt lat="43.431254165047065" lon="11.35065530543716"><ele>393.20000000000005</ele><time>2026-03-28T11:01:42Z</time></trkpt><trkpt lat="43.43116805206444" lon="11.350703704009835"><ele>390.40000000000003</ele><time>2026-03-28T11:01:43Z</time></trkpt><trkpt lat="43.431075273476594" lon="11.35078108675924"><ele>387.6</ele><time>2026-03-28T11:01:44Z</time></trkpt><trkpt lat="43.430974484218176" lon="11.350856642950305"><ele>384.8</ele><time>2026-03-28T11:01:45Z</time></trkpt><trkpt lat="43.43086782018682" lon="11.350908795768548"><ele>382.0</ele><time>2026-03-28T11:01:46Z</time></trkpt><trkpt lat="43.43075457066614" lon="11.350922293255003"><ele>382.0</ele><time>2026-03-28T11:01:47Z</time></trkpt><trkpt lat="43.430641734853495" lon="11.350905801436175"><ele>382.0</ele><time>2026-03-28T11:01:48Z</time></trkpt><trkpt lat="43.43051336192543" lon="11.350872877625056"><ele>382.0</ele><time>2026-03-28T11:01:49Z</time></trkpt><trkpt lat="43.43036381029239" lon="11.350818009658413"><ele>382.0</ele><time>2026-03-28T11:01:50Z</time></trkpt><trkpt lat="43.430217993818154" lon="11.350828894272402"><ele>381.40000000000003</ele><time>2026-03-28T11:01:51Z</time></trkpt><trkpt lat="43.43009648586377" lon="11.350835721117999"><ele>380.8</ele><time>2026-03-28T11:01:52Z</time></trkpt><trkpt lat="43.429984157141334" lon="11.350841755679175"><ele>380.2</ele><time>2026-03-28T11:01:53Z</time></trkpt><trkpt lat="43.4298869054137" lon="11.35086394168209"><ele>379.6</ele><time>2026-03-28T11:01:54Z</time></trkpt><trkpt lat="43.42978210108976" lon="11.350868749852772"><ele>379.0</ele><time>2026-03-28T11:01:55Z</time></trkpt><trkpt lat="43.4296683369736" lon="11.350849396664774"><ele>377.5</ele><time>2026-03-28T11:01:56Z</time></trkpt><trkpt lat="43.4295499203345" lon="11.350839460612926"><ele>376.0</ele><time>2026-03-28T11:01:57Z</time></trkpt><trkpt lat="43.42945038052419" lon="11.350734611403883"><ele>374.5</ele><time>2026-03-28T11:01:58Z</time></trkpt><trkpt lat="43.429336562898754" lon="11.350651845888585"><ele>373.0</ele><time>2026-03-28T11:01:59.001Z</time></trkpt><trkpt lat="43.42922662736702" lon="11.350567618404899"><ele>373.79999999999995</ele><time>2026-03-28T11:02:00.001Z</time></trkpt><trkpt lat="43.42912809576068" lon="11.350492316084042"><ele>374.6</ele><time>2026-03-28T11:02:01.001Z</time></trkpt><trkpt lat="43.429037740591426" lon="11.350423311216218"><ele>375.4</ele><time>2026-03-28T11:02:02.001Z</time></trkpt><trkpt lat="43.42894601891469" lon="11.350355210182734"><ele>376.20000000000005</ele><time>2026-03-28T11:02:03.001Z</time></trkpt><trkpt lat="43.42885272339584" lon="11.350287007882876"><ele>377.0</ele><time>2026-03-28T11:02:04.001Z</time></trkpt><trkpt lat="43.428757278147756" lon="11.35021163644513"><ele>377.0</ele><time>2026-03-28T11:02:05.001Z</time></trkpt><trkpt lat="43.428665551358044" lon="11.350140784779775"><ele>377.0</ele><time>2026-03-28T11:02:06.001Z</time></trkpt><trkpt lat="43.42857628138255" lon="11.350100621127474"><ele>377.0</ele><time>2026-03-28T11:02:07.001Z</time></trkpt><trkpt lat="43.42850499749684" lon="11.35004445899928"><ele>377.0</ele><time>2026-03-28T11:02:08.001Z</time></trkpt><trkpt lat="43.428420938024715" lon="11.35000680565948"><ele>377.0</ele><time>2026-03-28T11:02:09.001Z</time></trkpt><trkpt lat="43.428323101393325" lon="11.34998851156917"><ele>377.0</ele><time>2026-03-28T11:02:10.001Z</time></trkpt><trkpt lat="43.42820983272975" lon="11.349990860755584"><ele>377.0</ele><time>2026-03-28T11:02:11.001Z</time></trkpt><trkpt lat="43.42809536148284" lon="11.350006714923152"><ele>377.0</ele><time>2026-03-28T11:02:12.001Z</time></trkpt><trkpt lat="43.42798268573324" lon="11.350046972676815"><ele>377.0</ele><time>2026-03-28T11:02:13.001Z</time></trkpt><trkpt lat="43.42787466721791" lon="11.350107005333031"><ele>377.25</ele><time>2026-03-28T11:02:14.001Z</time></trkpt><trkpt lat="43.42777265157144" lon="11.35018191866859"><ele>377.5</ele><time>2026-03-28T11:02:15.001Z</time></trkpt><trkpt lat="43.42766909042739" lon="11.350243552783507"><ele>377.75</ele><time>2026-03-28T11:02:16.001Z</time></trkpt><trkpt lat="43.42756277618054" lon="11.350291171508353"><ele>378.0</ele><time>2026-03-28T11:02:17.001Z</time></trkpt><trkpt lat="43.42745630555278" lon="11.350329153567152"><ele>378.0</ele><time>2026-03-28T11:02:18.001Z</time></trkpt><trkpt lat="43.427337596949336" lon="11.35036583339556"><ele>378.0</ele><time>2026-03-28T11:02:19.001Z</time></trkpt><trkpt lat="43.42722716705433" lon="11.350388025915894"><ele>378.0</ele><time>2026-03-28T11:02:20.001Z</time></trkpt><trkpt lat="43.42713146032644" lon="11.350423277067375"><ele>378.0</ele><time>2026-03-28T11:02:21.001Z</time></trkpt><trkpt lat="43.42705191509476" lon="11.350467776685983"><ele>378.0</ele><time>2026-03-28T11:02:22.001Z</time></trkpt><trkpt lat="43.42698679953449" lon="11.350524598998517"><ele>381.2</ele><time>2026-03-28T11:02:23.001Z</time></trkpt><trkpt lat="43.426928389567315" lon="11.350588535636417"><ele>384.4</ele><time>2026-03-28T11:02:24.001Z</time></trkpt><trkpt lat="43.42687561726317" lon="11.350684822570122"><ele>387.59999999999997</ele><time>2026-03-28T11:02:25.001Z</time></trkpt><trkpt lat="43.42683711540378" lon="11.350782567124455"><ele>390.79999999999995</ele><time>2026-03-28T11:02:26.001Z</time></trkpt><trkpt lat="43.42678438937827" lon="11.35090780294976"><ele>394.0</ele><time>2026-03-28T11:02:27.001Z</time></trkpt><trkpt lat="43.426737496896564" lon="11.351038426103313"><ele>394.0</ele><time>2026-03-28T11:02:28.001Z</time></trkpt><trkpt lat="43.42670773803772" lon="11.351165183707245"><ele>394.0</ele><time>2026-03-28T11:02:29.001Z</time></trkpt><trkpt lat="43.42665201892268" lon="11.351288082418684"><ele>394.0</ele><time>2026-03-28T11:02:30.001Z</time></trkpt><trkpt lat="43.42661742668156" lon="11.35138854597419"><ele>394.0</ele><time>2026-03-28T11:02:31.001Z</time></trkpt><trkpt lat="43.42656586555221" lon="11.351481048360148"><ele>394.0</ele><time>2026-03-28T11:02:32.001Z</time></trkpt><trkpt lat="43.426504916225134" lon="11.351580332281392"><ele>393.0</ele><time>2026-03-28T11:02:33.001Z</time></trkpt><trkpt lat="43.42642376787155" lon="11.351681222441492"><ele>392.0</ele><time>2026-03-28T11:02:34.001Z</time></trkpt><trkpt lat="43.426337423617774" lon="11.351752116254586"><ele>391.0</ele><time>2026-03-28T11:02:35.001Z</time></trkpt><trkpt lat="43.42626804260824" lon="11.35185187360182"><ele>390.0</ele><time>2026-03-28T11:02:36.001Z</time></trkpt><trkpt lat="43.426175063697855" lon="11.35192628327595"><ele>389.0</ele><time>2026-03-28T11:02:37.001Z</time></trkpt><trkpt lat="43.426090913478696" lon="11.351983443065853"><ele>391.4</ele><time>2026-03-28T11:02:38.001Z</time></trkpt><trkpt lat="43.426017400386094" lon="11.35203754575647"><ele>393.79999999999995</ele><time>2026-03-28T11:02:39.001Z</time></trkpt><trkpt lat="43.425953821724114" lon="11.352109343361064"><ele>396.20000000000005</ele><time>2026-03-28T11:02:40.001Z</time></trkpt><trkpt lat="43.42590374898761" lon="11.35220933320874"><ele>398.6</ele><time>2026-03-28T11:02:41.001Z</time></trkpt><trkpt lat="43.42585413125684" lon="11.35234236812391"><ele>401.0</ele><time>2026-03-28T11:02:42.001Z</time></trkpt><trkpt lat="43.42581837155304" lon="11.352495577924392"><ele>401.0</ele><time>2026-03-28T11:02:43.001Z</time></trkpt><trkpt lat="43.42578518338263" lon="11.352683573658451"><ele>401.0</ele><time>2026-03-28T11:02:44.001Z</time></trkpt><trkpt lat="43.42577078438093" lon="11.352856946336287"><ele>401.0</ele><time>2026-03-28T11:02:45.001Z</time></trkpt><trkpt lat="43.42574372476281" lon="11.353016061110857"><ele>401.0</ele><time>2026-03-28T11:02:46.001Z</time></trkpt><trkpt lat="43.42573910592183" lon="11.35315864067896"><ele>400.6</ele><time>2026-03-28T11:02:47.001Z</time></trkpt><trkpt lat="43.42573848172631" lon="11.353307561991686"><ele>400.20000000000005</ele><time>2026-03-28T11:02:48.001Z</time></trkpt><trkpt lat="43.42574961091732" lon="11.353443987577728"><ele>399.79999999999995</ele><time>2026-03-28T11:02:49.001Z</time></trkpt><trkpt lat="43.42576331298194" lon="11.353565281598367"><ele>399.4</ele><time>2026-03-28T11:02:50.001Z</time></trkpt><trkpt lat="43.425767133743946" lon="11.35370701836943"><ele>399.0</ele><time>2026-03-28T11:02:51.001Z</time></trkpt><trkpt lat="43.425762484313864" lon="11.3538531818305"><ele>400.6</ele><time>2026-03-28T11:02:52.001Z</time></trkpt><trkpt lat="43.42573360676358" lon="11.353989673052325"><ele>402.2</ele><time>2026-03-28T11:02:53.001Z</time></trkpt><trkpt lat="43.425681813006555" lon="11.354141764738362"><ele>403.8</ele><time>2026-03-28T11:02:54.001Z</time></trkpt><trkpt lat="43.4256225575046" lon="11.354265319963025"><ele>405.40000000000003</ele><time>2026-03-28T11:02:55Z</time></trkpt><trkpt lat="43.42554856046666" lon="11.354334491598973"><ele>407.0</ele><time>2026-03-28T11:02:56Z</time></trkpt><trkpt lat="43.42548097091096" lon="11.354401570284613"><ele>409.99999999999994</ele><time>2026-03-28T11:02:57Z</time></trkpt><trkpt lat="43.425370227038265" lon="11.354378654320389"><ele>413.0</ele><time>2026-03-28T11:02:58Z</time></trkpt><trkpt lat="43.42527515523873" lon="11.354388839889264"><ele>416.0</ele><time>2026-03-28T11:02:59Z</time></trkpt><trkpt lat="43.42520381419285" lon="11.354375764490628"><ele>419.0</ele><time>2026-03-28T11:03:00Z</time></trkpt><trkpt lat="43.42512489002417" lon="11.354407652582054"><ele>421.99999999999994</ele><time>2026-03-28T11:03:01Z</time></trkpt><trkpt lat="43.42505763775754" lon="11.354448424696173"><ele>425.0</ele><time>2026-03-28T11:03:02Z</time></trkpt><trkpt lat="43.425012974163565" lon="11.354514565462244"><ele>425.0</ele><time>2026-03-28T11:03:03Z</time></trkpt><trkpt lat="43.42498446262261" lon="11.354596493293514"><ele>425.0</ele><time>2026-03-28T11:03:04Z</time></trkpt><trkpt lat="43.42497841543358" lon="11.35470060552827"><ele>425.0</ele><time>2026-03-28T11:03:05Z</time></trkpt><trkpt lat="43.42490383280865" lon="11.3548277121831"><ele>425.0</ele><time>2026-03-28T11:03:07Z</time></trkpt><trkpt lat="43.424776941834004" lon="11.354820429214087"><ele>425.0</ele><time>2026-03-28T11:03:09Z</time></trkpt><trkpt lat="43.42469677928231" lon="11.354813679550032"><ele>423.8</ele><time>2026-03-28T11:03:10Z</time></trkpt><trkpt lat="43.424592574709806" lon="11.354803908309917"><ele>422.6</ele><time>2026-03-28T11:03:11Z</time></trkpt><trkpt lat="43.42447467846544" lon="11.354792853198003"><ele>421.4</ele><time>2026-03-28T11:03:12Z</time></trkpt><trkpt lat="43.424381950152465" lon="11.354780375479681"><ele>420.2</ele><time>2026-03-28T11:03:13Z</time></trkpt><trkpt lat="43.42428217148288" lon="11.354769291135947"><ele>419.0</ele><time>2026-03-28T11:03:14Z</time></trkpt><trkpt lat="43.42421019668444" lon="11.354741768325981"><ele>421.66666666666663</ele><time>2026-03-28T11:03:15Z</time></trkpt><trkpt lat="43.424136169568534" lon="11.354667348907709"><ele>424.3333333333333</ele><time>2026-03-28T11:03:16Z</time></trkpt><trkpt lat="43.424071902097666" lon="11.354554845159564"><ele>427.0</ele><time>2026-03-28T11:03:17Z</time></trkpt><trkpt lat="43.424010715157216" lon="11.354448341827412"><ele>429.66666666666663</ele><time>2026-03-28T11:03:18Z</time></trkpt><trkpt lat="43.42396075889461" lon="11.354363476300366"><ele>432.3333333333333</ele><time>2026-03-28T11:03:19Z</time></trkpt><trkpt lat="43.42393830087274" lon="11.354271275539245"><ele>435.0</ele><time>2026-03-28T11:03:20Z</time></trkpt><trkpt lat="43.423891306942565" lon="11.354110464625393"><ele>435.0</ele><time>2026-03-28T11:03:22Z</time></trkpt><trkpt lat="43.42387042673207" lon="11.35401560564316"><ele>435.0</ele><time>2026-03-28T11:03:23Z</time></trkpt><trkpt lat="43.42385404758562" lon="11.353844214688147"><ele>435.0</ele><time>2026-03-28T11:03:25Z</time></trkpt><trkpt lat="43.42384651726731" lon="11.353753580687906"><ele>435.0</ele><time>2026-03-28T11:03:26Z</time></trkpt><trkpt lat="43.423835244263024" lon="11.35363053751206"><ele>435.0</ele><time>2026-03-28T11:03:27Z</time></trkpt><trkpt lat="43.42381796655087" lon="11.353490374045954"><ele>434.6</ele><time>2026-03-28T11:03:28Z</time></trkpt><trkpt lat="43.42379860789333" lon="11.353349548798201"><ele>434.2</ele><time>2026-03-28T11:03:29Z</time></trkpt><trkpt lat="43.42378150154901" lon="11.353225107720124"><ele>433.79999999999995</ele><time>2026-03-28T11:03:30Z</time></trkpt><trkpt lat="43.42376559011505" lon="11.35309990308235"><ele>433.4</ele><time>2026-03-28T11:03:31Z</time></trkpt><trkpt lat="43.42374875424017" lon="11.352963822190864"><ele>433.0</ele><time>2026-03-28T11:03:32Z</time></trkpt><trkpt lat="43.423733219648646" lon="11.352825406658287"><ele>435.0</ele><time>2026-03-28T11:03:33Z</time></trkpt><trkpt lat="43.42371873346386" lon="11.352694941746911"><ele>436.99999999999994</ele><time>2026-03-28T11:03:34Z</time></trkpt><trkpt lat="43.4237060299228" lon="11.35258053177237"><ele>438.99999999999994</ele><time>2026-03-28T11:03:35Z</time></trkpt><trkpt lat="43.42367863512545" lon="11.352464292238095"><ele>441.0</ele><time>2026-03-28T11:03:36Z</time></trkpt><trkpt lat="43.42367482663659" lon="11.35232839521124"><ele>443.0</ele><time>2026-03-28T11:03:37Z</time></trkpt><trkpt lat="43.42369762622626" lon="11.352205070101729"><ele>444.0</ele><time>2026-03-28T11:03:38Z</time></trkpt><trkpt lat="43.42371009286325" lon="11.352090607369796"><ele>444.99999999999994</ele><time>2026-03-28T11:03:39Z</time></trkpt><trkpt lat="43.42372684723633" lon="11.351966074217783"><ele>445.99999999999994</ele><time>2026-03-28T11:03:40Z</time></trkpt><trkpt lat="43.423774592465314" lon="11.351833829137892"><ele>447.0</ele><time>2026-03-28T11:03:41Z</time></trkpt><trkpt lat="43.423825966855084" lon="11.351683387142895"><ele>448.0</ele><time>2026-03-28T11:03:42Z</time></trkpt><trkpt lat="43.42387290723229" lon="11.351541035471806"><ele>448.79999999999995</ele><time>2026-03-28T11:03:43Z</time></trkpt><trkpt lat="43.42390752884434" lon="11.351412218676643"><ele>449.59999999999997</ele><time>2026-03-28T11:03:44Z</time></trkpt><trkpt lat="43.42394937915547" lon="11.351281107744606"><ele>450.40000000000003</ele><time>2026-03-28T11:03:45Z</time></trkpt><trkpt lat="43.42397716469639" lon="11.351135442474176"><ele>451.20000000000005</ele><time>2026-03-28T11:03:46Z</time></trkpt><trkpt lat="43.42399515853" lon="11.350990922564437"><ele>452.0</ele><time>2026-03-28T11:03:47Z</time></trkpt><trkpt lat="43.423990858537834" lon="11.350831210759031"><ele>452.16666666666663</ele><time>2026-03-28T11:03:48Z</time></trkpt><trkpt lat="43.4239945701312" lon="11.35067479744629"><ele>452.3333333333333</ele><time>2026-03-28T11:03:49Z</time></trkpt><trkpt lat="43.423996292540856" lon="11.350556492615487"><ele>452.5</ele><time>2026-03-28T11:03:50Z</time></trkpt><trkpt lat="43.42400459064801" lon="11.350450999483833"><ele>452.66666666666663</ele><time>2026-03-28T11:03:51Z</time></trkpt><trkpt lat="43.42398586630786" lon="11.350358530389117"><ele>452.8333333333333</ele><time>2026-03-28T11:03:52Z</time></trkpt><trkpt lat="43.423955481747846" lon="11.350280405012676"><ele>453.0</ele><time>2026-03-28T11:03:53Z</time></trkpt><trkpt lat="43.42391861793147" lon="11.350205403824665"><ele>455.2</ele><time>2026-03-28T11:03:54Z</time></trkpt><trkpt lat="43.42384450452509" lon="11.350158533765232"><ele>457.4</ele><time>2026-03-28T11:03:55Z</time></trkpt><trkpt lat="43.423751626694944" lon="11.350166370127818"><ele>459.59999999999997</ele><time>2026-03-28T11:03:56Z</time></trkpt><trkpt lat="43.42366395119091" lon="11.350175555901274"><ele>461.79999999999995</ele><time>2026-03-28T11:03:57Z</time></trkpt><trkpt lat="43.423575379211144" lon="11.350210083782907"><ele>464.0</ele><time>2026-03-28T11:03:58Z</time></trkpt><trkpt lat="43.423454612237485" lon="11.350270785564687"><ele>463.2</ele><time>2026-03-28T11:03:59Z</time></trkpt><trkpt lat="43.4233420390863" lon="11.350300066067732"><ele>462.4</ele><time>2026-03-28T11:04:00Z</time></trkpt><trkpt lat="43.42324726772574" lon="11.350357691867165"><ele>461.6</ele><time>2026-03-28T11:04:01.001Z</time></trkpt><trkpt lat="43.423161021400084" lon="11.350432802215074"><ele>460.8</ele><time>2026-03-28T11:04:02.001Z</time></trkpt><trkpt lat="43.42310014344775" lon="11.350540732799718"><ele>460.0</ele><time>2026-03-28T11:04:03.001Z</time></trkpt><trkpt lat="43.42303567202378" lon="11.350590761094448"><ele>460.50000000000006</ele><time>2026-03-28T11:04:04.001Z</time></trkpt><trkpt lat="43.42294290723931" lon="11.350665900047362"><ele>461.0</ele><time>2026-03-28T11:04:06.001Z</time></trkpt><trkpt lat="43.42287851975036" lon="11.3506154402059"><ele>461.5</ele><time>2026-03-28T11:04:08.001Z</time></trkpt><trkpt lat="43.42284061637168" lon="11.350498190429434"><ele>462.0</ele><time>2026-03-28T11:04:10.001Z</time></trkpt><trkpt lat="43.422823241601996" lon="11.350409936227766"><ele>462.50000000000006</ele><time>2026-03-28T11:04:11.001Z</time></trkpt><trkpt lat="43.42278133086526" lon="11.350296935390567"><ele>463.0</ele><time>2026-03-28T11:04:12.001Z</time></trkpt><trkpt lat="43.42273262377758" lon="11.35020975344126"><ele>467.2</ele><time>2026-03-28T11:04:13.001Z</time></trkpt><trkpt lat="43.42265981016131" lon="11.350121875398424"><ele>471.4</ele><time>2026-03-28T11:04:14.001Z</time></trkpt><trkpt lat="43.4225696924572" lon="11.350060351845709"><ele>475.59999999999997</ele><time>2026-03-28T11:04:15.001Z</time></trkpt><trkpt lat="43.422469348157435" lon="11.350001818667925"><ele>479.79999999999995</ele><time>2026-03-28T11:04:16.001Z</time></trkpt><trkpt lat="43.42236636944629" lon="11.349937163263863"><ele>484.0</ele><time>2026-03-28T11:04:17.001Z</time></trkpt><trkpt lat="43.422262339563346" lon="11.349865999994432"><ele>484.0</ele><time>2026-03-28T11:04:18.001Z</time></trkpt><trkpt lat="43.42217353597895" lon="11.349775427791018"><ele>484.0</ele><time>2026-03-28T11:04:19.001Z</time></trkpt><trkpt lat="43.42209072884743" lon="11.349665933929245"><ele>484.0</ele><time>2026-03-28T11:04:20.001Z</time></trkpt><trkpt lat="43.42201946245438" lon="11.349596081459813"><ele>484.0</ele><time>2026-03-28T11:04:21.001Z</time></trkpt><trkpt lat="43.4219402063286" lon="11.349536487879517"><ele>484.0</ele><time>2026-03-28T11:04:22.001Z</time></trkpt><trkpt lat="43.42184729256219" lon="11.34949708740435"><ele>486.33333333333337</ele><time>2026-03-28T11:04:23.001Z</time></trkpt><trkpt lat="43.42174767635209" lon="11.34948110523275"><ele>488.6666666666667</ele><time>2026-03-28T11:04:24.001Z</time></trkpt><trkpt lat="43.42162927567073" lon="11.349544088712108"><ele>491.0</ele><time>2026-03-28T11:04:25.001Z</time></trkpt><trkpt lat="43.42156005945359" lon="11.349548467243263"><ele>493.33333333333337</ele><time>2026-03-28T11:04:26.001Z</time></trkpt><trkpt lat="43.4214900558466" lon="11.3495448569246"><ele>495.6666666666667</ele><time>2026-03-28T11:04:27.001Z</time></trkpt><trkpt lat="43.42141944040361" lon="11.349515465629466"><ele>498.0</ele><time>2026-03-28T11:04:28.001Z</time></trkpt><trkpt lat="43.421386229020996" lon="11.349439380828622"><ele>498.0</ele><time>2026-03-28T11:04:29.001Z</time></trkpt><trkpt lat="43.42134820898132" lon="11.349362080788211"><ele>497.99999999999994</ele><time>2026-03-28T11:04:30.001Z</time></trkpt><trkpt lat="43.42131978336257" lon="11.349238128363204"><ele>497.99999999999994</ele><time>2026-03-28T11:04:31.001Z</time></trkpt><trkpt lat="43.421328644285005" lon="11.34907628036625"><ele>498.0</ele><time>2026-03-28T11:04:32.001Z</time></trkpt><trkpt lat="43.42132796982638" lon="11.348909420412914"><ele>498.0</ele><time>2026-03-28T11:04:33.001Z</time></trkpt><trkpt lat="43.4213350451113" lon="11.348760422029471"><ele>499.2</ele><time>2026-03-28T11:04:34.001Z</time></trkpt><trkpt lat="43.42133517693922" lon="11.348618519212884"><ele>500.4</ele><time>2026-03-28T11:04:35.001Z</time></trkpt><trkpt lat="43.42135703562586" lon="11.34848442106262"><ele>501.59999999999997</ele><time>2026-03-28T11:04:36.001Z</time></trkpt><trkpt lat="43.42137796548617" lon="11.348341325317753"><ele>502.79999999999995</ele><time>2026-03-28T11:04:37.001Z</time></trkpt><trkpt lat="43.421391307686825" lon="11.348207222648414"><ele>504.0</ele><time>2026-03-28T11:04:38.001Z</time></trkpt><trkpt lat="43.421400082777225" lon="11.348078726943102"><ele>503.5</ele><time>2026-03-28T11:04:39.001Z</time></trkpt><trkpt lat="43.42140314816928" lon="11.34795857884228"><ele>503.0</ele><time>2026-03-28T11:04:40.001Z</time></trkpt><trkpt lat="43.421419154222946" lon="11.347864725864074"><ele>502.5</ele><time>2026-03-28T11:04:41.001Z</time></trkpt><trkpt lat="43.42139846881371" lon="11.347713024793961"><ele>502.0</ele><time>2026-03-28T11:04:43.001Z</time></trkpt><trkpt lat="43.42140684080397" lon="11.34762239848838"><ele>501.5</ele><time>2026-03-28T11:04:44.001Z</time></trkpt><trkpt lat="43.421378360045956" lon="11.347528814731684"><ele>501.0</ele><time>2026-03-28T11:04:45.001Z</time></trkpt><trkpt lat="43.421340907970944" lon="11.347445493181535"><ele>501.0</ele><time>2026-03-28T11:04:46.001Z</time></trkpt><trkpt lat="43.4212775767095" lon="11.347372771247622"><ele>501.0</ele><time>2026-03-28T11:04:47.001Z</time></trkpt><trkpt lat="43.42120131467021" lon="11.347316409902529"><ele>501.0</ele><time>2026-03-28T11:04:48.001Z</time></trkpt><trkpt lat="43.42111848747786" lon="11.347278386517855"><ele>501.0</ele><time>2026-03-28T11:04:49.001Z</time></trkpt><trkpt lat="43.42101322583906" lon="11.347254586885649"><ele>501.0</ele><time>2026-03-28T11:04:50.001Z</time></trkpt><trkpt lat="43.420898998200144" lon="11.34724153933962"><ele>501.0</ele><time>2026-03-28T11:04:51.001Z</time></trkpt><trkpt lat="43.420791488560056" lon="11.347238367315445"><ele>501.0</ele><time>2026-03-28T11:04:52.001Z</time></trkpt><trkpt lat="43.42069531511514" lon="11.347239165908388"><ele>501.0</ele><time>2026-03-28T11:04:53.001Z</time></trkpt><trkpt lat="43.42059900509722" lon="11.347238130175356"><ele>501.0</ele><time>2026-03-28T11:04:54.001Z</time></trkpt><trkpt lat="43.42051680927778" lon="11.347234362210596"><ele>501.0</ele><time>2026-03-28T11:04:55.001Z</time></trkpt><trkpt lat="43.420445348214805" lon="11.347212454378571"><ele>502.20000000000005</ele><time>2026-03-28T11:04:56.001Z</time></trkpt><trkpt lat="43.420370946091424" lon="11.347143360286038"><ele>503.40000000000003</ele><time>2026-03-28T11:04:57.001Z</time></trkpt><trkpt lat="43.420275277031905" lon="11.347078816656635"><ele>504.6</ele><time>2026-03-28T11:04:58.001Z</time></trkpt><trkpt lat="43.42017034481611" lon="11.347009813008695"><ele>505.8</ele><time>2026-03-28T11:04:59.001Z</time></trkpt><trkpt lat="43.42004397054852" lon="11.346956151545479"><ele>507.0</ele><time>2026-03-28T11:05:00.001Z</time></trkpt><trkpt lat="43.41991381286974" lon="11.346936457753943"><ele>507.0</ele><time>2026-03-28T11:05:01.001Z</time></trkpt><trkpt lat="43.41979513520251" lon="11.346945247531103"><ele>507.00000000000006</ele><time>2026-03-28T11:05:02.001Z</time></trkpt><trkpt lat="43.419692116189125" lon="11.346955264508448"><ele>507.00000000000006</ele><time>2026-03-28T11:05:03.001Z</time></trkpt><trkpt lat="43.41958789196983" lon="11.34695649171661"><ele>507.0</ele><time>2026-03-28T11:05:04.001Z</time></trkpt><trkpt lat="43.41948057928322" lon="11.3469403624252"><ele>507.0</ele><time>2026-03-28T11:05:05.001Z</time></trkpt><trkpt lat="43.4193665209632" lon="11.346880543625655"><ele>505.5</ele><time>2026-03-28T11:05:06.001Z</time></trkpt><trkpt lat="43.419242387353286" lon="11.346781067025578"><ele>504.0</ele><time>2026-03-28T11:05:07.001Z</time></trkpt><trkpt lat="43.419109866148226" lon="11.346668149607023"><ele>502.5</ele><time>2026-03-28T11:05:08.001Z</time></trkpt><trkpt lat="43.41899536550635" lon="11.346559339329602"><ele>501.0</ele><time>2026-03-28T11:05:09Z</time></trkpt><trkpt lat="43.418885996812335" lon="11.346463386806915"><ele>500.5</ele><time>2026-03-28T11:05:10Z</time></trkpt><trkpt lat="43.41875863164839" lon="11.346440872834789"><ele>500.0</ele><time>2026-03-28T11:05:11Z</time></trkpt><trkpt lat="43.41864957744209" lon="11.346373472813703"><ele>499.5</ele><time>2026-03-28T11:05:12Z</time></trkpt><trkpt lat="43.418498872579505" lon="11.34645673868705"><ele>499.0</ele><time>2026-03-28T11:05:13Z</time></trkpt><trkpt lat="43.41834750111222" lon="11.34649794101796"><ele>499.0</ele><time>2026-03-28T11:05:14Z</time></trkpt><trkpt lat="43.4181956514078" lon="11.346543947366543"><ele>499.0</ele><time>2026-03-28T11:05:15Z</time></trkpt><trkpt lat="43.4180526370802" lon="11.346601619390386"><ele>499.0</ele><time>2026-03-28T11:05:16Z</time></trkpt><trkpt lat="43.41791719976891" lon="11.346668062333709"><ele>499.0</ele><time>2026-03-28T11:05:17Z</time></trkpt><trkpt lat="43.417780075603076" lon="11.346752113832926"><ele>502.0</ele><time>2026-03-28T11:05:18Z</time></trkpt><trkpt lat="43.417644111126904" lon="11.346855263129719"><ele>505.0</ele><time>2026-03-28T11:05:19Z</time></trkpt><trkpt lat="43.41752706901472" lon="11.346958787040117"><ele>508.0</ele><time>2026-03-28T11:05:20Z</time></trkpt><trkpt lat="43.4174223199171" lon="11.347068603965615"><ele>511.0</ele><time>2026-03-28T11:05:21Z</time></trkpt><trkpt lat="43.41732383147306" lon="11.347184183459932"><ele>511.0</ele><time>2026-03-28T11:05:22Z</time></trkpt><trkpt lat="43.41723243523617" lon="11.347288850268335"><ele>511.0</ele><time>2026-03-28T11:05:23Z</time></trkpt><trkpt lat="43.417150130688285" lon="11.347397608673102"><ele>511.0</ele><time>2026-03-28T11:05:24Z</time></trkpt><trkpt lat="43.417092514724764" lon="11.347533420504984"><ele>511.0</ele><time>2026-03-28T11:05:25Z</time></trkpt><trkpt lat="43.41707321276368" lon="11.347688155126965"><ele>511.0</ele><time>2026-03-28T11:05:26Z</time></trkpt><trkpt lat="43.417088093604775" lon="11.347854401383364"><ele>511.0</ele><time>2026-03-28T11:05:27Z</time></trkpt><trkpt lat="43.41712080807237" lon="11.348029635966785"><ele>511.0</ele><time>2026-03-28T11:05:28Z</time></trkpt><trkpt lat="43.41715094681686" lon="11.348184807518157"><ele>511.0</ele><time>2026-03-28T11:05:29Z</time></trkpt><trkpt lat="43.41717555009375" lon="11.348318533257139"><ele>509.8</ele><time>2026-03-28T11:05:30Z</time></trkpt><trkpt lat="43.41717126365586" lon="11.348440320945636"><ele>508.6</ele><time>2026-03-28T11:05:31Z</time></trkpt><trkpt lat="43.41713471764926" lon="11.348541603775118"><ele>507.4</ele><time>2026-03-28T11:05:32Z</time></trkpt><trkpt lat="43.41706487072984" lon="11.34861763163093"><ele>506.2</ele><time>2026-03-28T11:05:33Z</time></trkpt><trkpt lat="43.41696936587917" lon="11.34868635056924"><ele>505.0</ele><time>2026-03-28T11:05:34Z</time></trkpt><trkpt lat="43.41685237829022" lon="11.348739353519946"><ele>505.0</ele><time>2026-03-28T11:05:35Z</time></trkpt><trkpt lat="43.41675722157082" lon="11.348756242058565"><ele>505.0</ele><time>2026-03-28T11:05:36Z</time></trkpt><trkpt lat="43.41666686729837" lon="11.348774636978334"><ele>505.0</ele><time>2026-03-28T11:05:37Z</time></trkpt><trkpt lat="43.41657125667512" lon="11.348768461450492"><ele>505.0</ele><time>2026-03-28T11:05:38Z</time></trkpt><trkpt lat="43.416473292263376" lon="11.348780506696826"><ele>505.0</ele><time>2026-03-28T11:05:39Z</time></trkpt><trkpt lat="43.41637056944949" lon="11.348810464975006"><ele>504.5</ele><time>2026-03-28T11:05:40Z</time></trkpt><trkpt lat="43.41624837398701" lon="11.34882514384786"><ele>504.0</ele><time>2026-03-28T11:05:41Z</time></trkpt><trkpt lat="43.41610814793198" lon="11.348840220084146"><ele>503.5</ele><time>2026-03-28T11:05:42Z</time></trkpt><trkpt lat="43.41596495098768" lon="11.348866474812363"><ele>503.0</ele><time>2026-03-28T11:05:43Z</time></trkpt><trkpt lat="43.41584215957127" lon="11.348899428680086"><ele>502.75</ele><time>2026-03-28T11:05:44Z</time></trkpt><trkpt lat="43.41572005912955" lon="11.34892435761264"><ele>502.5</ele><time>2026-03-28T11:05:45Z</time></trkpt><trkpt lat="43.41558681277385" lon="11.348887665404305"><ele>502.25</ele><time>2026-03-28T11:05:46Z</time></trkpt><trkpt lat="43.415447011076" lon="11.34885862612542"><ele>502.0</ele><time>2026-03-28T11:05:47Z</time></trkpt><trkpt lat="43.41532607443914" lon="11.3488130398993"><ele>502.0</ele><time>2026-03-28T11:05:48Z</time></trkpt><trkpt lat="43.41520911775221" lon="11.348777583642331"><ele>502.0</ele><time>2026-03-28T11:05:49Z</time></trkpt><trkpt lat="43.41508891936838" lon="11.348832682966675"><ele>502.0</ele><time>2026-03-28T11:05:50Z</time></trkpt><trkpt lat="43.41498724844956" lon="11.348897728661905"><ele>502.0</ele><time>2026-03-28T11:05:51Z</time></trkpt><trkpt lat="43.41489029540335" lon="11.348979135715124"><ele>501.40000000000003</ele><time>2026-03-28T11:05:52Z</time></trkpt><trkpt lat="43.41479645741278" lon="11.349056886468567"><ele>500.80000000000007</ele><time>2026-03-28T11:05:53Z</time></trkpt><trkpt lat="43.414719794382584" lon="11.349150587518775"><ele>500.2</ele><time>2026-03-28T11:05:54Z</time></trkpt><trkpt lat="43.41465907215949" lon="11.349256138369794"><ele>499.6</ele><time>2026-03-28T11:05:55Z</time></trkpt><trkpt lat="43.41462204669643" lon="11.34937119849805"><ele>499.0</ele><time>2026-03-28T11:05:56Z</time></trkpt><trkpt lat="43.41460480600168" lon="11.349513077235988"><ele>499.0</ele><time>2026-03-28T11:05:57Z</time></trkpt><trkpt lat="43.41459335124668" lon="11.34967859495488"><ele>499.0</ele><time>2026-03-28T11:05:58Z</time></trkpt><trkpt lat="43.41458716773494" lon="11.349853004422629"><ele>499.0</ele><time>2026-03-28T11:05:59Z</time></trkpt><trkpt lat="43.41458608947251" lon="11.350021600554062"><ele>499.0</ele><time>2026-03-28T11:06:00Z</time></trkpt><trkpt lat="43.414580697837984" lon="11.350182664242523"><ele>498.0</ele><time>2026-03-28T11:06:01Z</time></trkpt><trkpt lat="43.41455607949656" lon="11.350316398822757"><ele>497.0</ele><time>2026-03-28T11:06:02Z</time></trkpt><trkpt lat="43.41450160704863" lon="11.350416182916351"><ele>496.0</ele><time>2026-03-28T11:06:03Z</time></trkpt><trkpt lat="43.41442619679305" lon="11.350470565361992"><ele>495.0</ele><time>2026-03-28T11:06:04Z</time></trkpt><trkpt lat="43.414335194921726" lon="11.350433786451898"><ele>494.0</ele><time>2026-03-28T11:06:05Z</time></trkpt><trkpt lat="43.41423146253581" lon="11.350387903322252"><ele>494.0</ele><time>2026-03-28T11:06:06Z</time></trkpt><trkpt lat="43.41412121859477" lon="11.350343747713104"><ele>494.0</ele><time>2026-03-28T11:06:07Z</time></trkpt><trkpt lat="43.414025207717046" lon="11.350302865372239"><ele>494.0</ele><time>2026-03-28T11:06:08Z</time></trkpt><trkpt lat="43.413922440501" lon="11.350295346751313"><ele>494.0</ele><time>2026-03-28T11:06:09Z</time></trkpt><trkpt lat="43.413809166643745" lon="11.350346183580253"><ele>494.0</ele><time>2026-03-28T11:06:10Z</time></trkpt><trkpt lat="43.41370131505135" lon="11.350459920905024"><ele>489.3333333333333</ele><time>2026-03-28T11:06:11Z</time></trkpt><trkpt lat="43.41358928117113" lon="11.350643014151142"><ele>484.66666666666663</ele><time>2026-03-28T11:06:12Z</time></trkpt><trkpt lat="43.41346030600922" lon="11.35082847450919"><ele>480.0</ele><time>2026-03-28T11:06:13Z</time></trkpt><trkpt lat="43.413327132975745" lon="11.351002554683003"><ele>480.0</ele><time>2026-03-28T11:06:14Z</time></trkpt><trkpt lat="43.413205654929875" lon="11.351164314984972"><ele>480.0</ele><time>2026-03-28T11:06:15Z</time></trkpt><trkpt lat="43.41308854571744" lon="11.351320004931495"><ele>480.0</ele><time>2026-03-28T11:06:16Z</time></trkpt><trkpt lat="43.4129713035128" lon="11.351471336497283"><ele>477.33333333333337</ele><time>2026-03-28T11:06:17Z</time></trkpt><trkpt lat="43.4128529470852" lon="11.351605560792539"><ele>474.6666666666667</ele><time>2026-03-28T11:06:18Z</time></trkpt><trkpt lat="43.41270427336985" lon="11.351688461686757"><ele>472.0</ele><time>2026-03-28T11:06:19Z</time></trkpt><trkpt lat="43.41253548716547" lon="11.351739215561079"><ele>472.0</ele><time>2026-03-28T11:06:20Z</time></trkpt><trkpt lat="43.412334116335735" lon="11.35178733674309"><ele>472.0</ele><time>2026-03-28T11:06:21Z</time></trkpt><trkpt lat="43.41211552797855" lon="11.351840886753969"><ele>472.0</ele><time>2026-03-28T11:06:22Z</time></trkpt><trkpt lat="43.41188435927819" lon="11.351897518589709"><ele>471.6666666666667</ele><time>2026-03-28T11:06:23Z</time></trkpt><trkpt lat="43.41165709956589" lon="11.351972434921958"><ele>471.33333333333337</ele><time>2026-03-28T11:06:24Z</time></trkpt><trkpt lat="43.411448231413296" lon="11.352024525112817"><ele>471.0</ele><time>2026-03-28T11:06:25Z</time></trkpt><trkpt lat="43.41124403615725" lon="11.35205631925561"><ele>471.0</ele><time>2026-03-28T11:06:26Z</time></trkpt><trkpt lat="43.411045344205405" lon="11.352106744141112"><ele>471.0</ele><time>2026-03-28T11:06:27Z</time></trkpt><trkpt lat="43.41085871813105" lon="11.352156331005542"><ele>471.0</ele><time>2026-03-28T11:06:28Z</time></trkpt><trkpt lat="43.41068477794476" lon="11.35220411947427"><ele>470.5</ele><time>2026-03-28T11:06:29Z</time></trkpt><trkpt lat="43.41052479135284" lon="11.352268404569168"><ele>470.0</ele><time>2026-03-28T11:06:30Z</time></trkpt><trkpt lat="43.410398940586525" lon="11.352296127679047"><ele>469.5</ele><time>2026-03-28T11:06:31Z</time></trkpt><trkpt lat="43.41029965836242" lon="11.352286481816725"><ele>469.0</ele><time>2026-03-28T11:06:32.001Z</time></trkpt><trkpt lat="43.41019997047491" lon="11.352272282623735"><ele>469.00000000000006</ele><time>2026-03-28T11:06:34.001Z</time></trkpt><trkpt lat="43.41013525442631" lon="11.352394275009267"><ele>469.0</ele><time>2026-03-28T11:06:35.001Z</time></trkpt><trkpt lat="43.41008224165773" lon="11.352459969360128"><ele>469.0</ele><time>2026-03-28T11:06:36.001Z</time></trkpt><trkpt lat="43.410033220401516" lon="11.352520717508959"><ele>469.0</ele><time>2026-03-28T11:06:37.001Z</time></trkpt><trkpt lat="43.409982244031326" lon="11.352585596794802"><ele>469.00000000000006</ele><time>2026-03-28T11:06:38.001Z</time></trkpt><trkpt lat="43.40992985439037" lon="11.35265242685412"><ele>469.0</ele><time>2026-03-28T11:06:39.001Z</time></trkpt><trkpt lat="43.40988863793282" lon="11.352742436930132"><ele>469.00000000000006</ele><time>2026-03-28T11:06:40.001Z</time></trkpt><trkpt lat="43.40984438309681" lon="11.352825695653374"><ele>469.0</ele><time>2026-03-28T11:06:41.001Z</time></trkpt><trkpt lat="43.409809184340475" lon="11.352927683968415"><ele>469.0</ele><time>2026-03-28T11:06:42.001Z</time></trkpt><trkpt lat="43.409792642592635" lon="11.35303743232123"><ele>469.0</ele><time>2026-03-28T11:06:43.001Z</time></trkpt><trkpt lat="43.40978810490462" lon="11.353142373916231"><ele>469.00000000000006</ele><time>2026-03-28T11:06:44.001Z</time></trkpt><trkpt lat="43.409728716283176" lon="11.353281116885384"><ele>469.0</ele><time>2026-03-28T11:06:46.001Z</time></trkpt><trkpt lat="43.409672242807495" lon="11.353342820888848"><ele>468.79999999999995</ele><time>2026-03-28T11:06:47.001Z</time></trkpt><trkpt lat="43.40956965190499" lon="11.353315189609283"><ele>468.59999999999997</ele><time>2026-03-28T11:06:49.001Z</time></trkpt><trkpt lat="43.40942938701378" lon="11.35320510527065"><ele>468.4</ele><time>2026-03-28T11:06:51.001Z</time></trkpt><trkpt lat="43.4093349275889" lon="11.35317936554762"><ele>468.2</ele><time>2026-03-28T11:06:52.001Z</time></trkpt><trkpt lat="43.40925240456797" lon="11.353164569871002"><ele>468.0</ele><time>2026-03-28T11:06:53.001Z</time></trkpt><trkpt lat="43.40915102621752" lon="11.35316096044994"><ele>468.0</ele><time>2026-03-28T11:06:54.001Z</time></trkpt><trkpt lat="43.4090648685355" lon="11.35317338707522"><ele>468.0</ele><time>2026-03-28T11:06:55.001Z</time></trkpt><trkpt lat="43.408982451609376" lon="11.353222286680406"><ele>468.0</ele><time>2026-03-28T11:06:56.001Z</time></trkpt><trkpt lat="43.40890468848904" lon="11.353239822679905"><ele>468.0</ele><time>2026-03-28T11:06:57.001Z</time></trkpt><trkpt lat="43.40885777836218" lon="11.35331483509449"><ele>468.0</ele><time>2026-03-28T11:06:58.001Z</time></trkpt><trkpt lat="43.40878702505" lon="11.353424901075845"><ele>468.0</ele><time>2026-03-28T11:07:00.001Z</time></trkpt><trkpt lat="43.40875335883334" lon="11.353550369005719"><ele>468.6666666666667</ele><time>2026-03-28T11:07:02.001Z</time></trkpt><trkpt lat="43.408724657968826" lon="11.35370713361328"><ele>469.33333333333337</ele><time>2026-03-28T11:07:04.001Z</time></trkpt><trkpt lat="43.40872613088226" lon="11.353818178869215"><ele>470.0</ele><time>2026-03-28T11:07:05.001Z</time></trkpt><trkpt lat="43.408710010858876" lon="11.353945689426284"><ele>470.6666666666667</ele><time>2026-03-28T11:07:06.001Z</time></trkpt><trkpt lat="43.40868378966813" lon="11.354043611510507"><ele>471.33333333333337</ele><time>2026-03-28T11:07:07Z</time></trkpt><trkpt lat="43.40861505151449" lon="11.3540959609122"><ele>472.0</ele><time>2026-03-28T11:07:08Z</time></trkpt><trkpt lat="43.40849677534651" lon="11.354149168360756"><ele>472.00000000000006</ele><time>2026-03-28T11:07:10Z</time></trkpt><trkpt lat="43.40843717278034" lon="11.354097084744959"><ele>472.0</ele><time>2026-03-28T11:07:11Z</time></trkpt><trkpt lat="43.408388657854296" lon="11.35402228353081"><ele>472.0</ele><time>2026-03-28T11:07:12Z</time></trkpt><trkpt lat="43.40829309602908" lon="11.353972796537818"><ele>472.0</ele><time>2026-03-28T11:07:13Z</time></trkpt><trkpt lat="43.40821889240908" lon="11.353871917710737"><ele>472.00000000000006</ele><time>2026-03-28T11:07:14Z</time></trkpt><trkpt lat="43.4081427728084" lon="11.353801854734296"><ele>472.0</ele><time>2026-03-28T11:07:15Z</time></trkpt><trkpt lat="43.40807517226943" lon="11.353749525733999"><ele>470.83333333333337</ele><time>2026-03-28T11:07:16Z</time></trkpt><trkpt lat="43.407995694014296" lon="11.353733915709448"><ele>469.6666666666667</ele><time>2026-03-28T11:07:17Z</time></trkpt><trkpt lat="43.40791201528351" lon="11.353737004927588"><ele>468.5</ele><time>2026-03-28T11:07:18Z</time></trkpt><trkpt lat="43.407831830424584" lon="11.353765469455709"><ele>467.33333333333337</ele><time>2026-03-28T11:07:19Z</time></trkpt><trkpt lat="43.407760908938464" lon="11.353813157035672"><ele>466.1666666666667</ele><time>2026-03-28T11:07:20Z</time></trkpt><trkpt lat="43.40770400844566" lon="11.35388542181562"><ele>465.0</ele><time>2026-03-28T11:07:21Z</time></trkpt><trkpt lat="43.40765827617326" lon="11.353978198474483"><ele>465.0</ele><time>2026-03-28T11:07:22Z</time></trkpt><trkpt lat="43.40762709019531" lon="11.35406999914873"><ele>465.0</ele><time>2026-03-28T11:07:23Z</time></trkpt><trkpt lat="43.407609463942585" lon="11.354176602928087"><ele>465.0</ele><time>2026-03-28T11:07:24Z</time></trkpt><trkpt lat="43.407600303837384" lon="11.354277375741777"><ele>465.0</ele><time>2026-03-28T11:07:25Z</time></trkpt><trkpt lat="43.40757092132333" lon="11.354366704684306"><ele>465.0</ele><time>2026-03-28T11:07:26Z</time></trkpt><trkpt lat="43.40752636523483" lon="11.354430135273855"><ele>465.0</ele><time>2026-03-28T11:07:27Z</time></trkpt><trkpt lat="43.40744924612237" lon="11.354450893179871"><ele>465.0</ele><time>2026-03-28T11:07:28Z</time></trkpt><trkpt lat="43.4073760004712" lon="11.354381099342588"><ele>465.0</ele><time>2026-03-28T11:07:29Z</time></trkpt><trkpt lat="43.407281944987936" lon="11.354374871300271"><ele>465.0</ele><time>2026-03-28T11:07:30Z</time></trkpt><trkpt lat="43.407197377965915" lon="11.354330649542165"><ele>465.0</ele><time>2026-03-28T11:07:31Z</time></trkpt><trkpt lat="43.40712264054276" lon="11.354338468873308"><ele>465.0</ele><time>2026-03-28T11:07:32Z</time></trkpt><trkpt lat="43.40703114474269" lon="11.35438218646535"><ele>465.0</ele><time>2026-03-28T11:07:33Z</time></trkpt><trkpt lat="43.4069279289016" lon="11.354446107335443"><ele>464.4</ele><time>2026-03-28T11:07:34Z</time></trkpt><trkpt lat="43.40680692365413" lon="11.35453362645989"><ele>463.8</ele><time>2026-03-28T11:07:35Z</time></trkpt><trkpt lat="43.40670393933961" lon="11.35461979478819"><ele>463.20000000000005</ele><time>2026-03-28T11:07:36Z</time></trkpt><trkpt lat="43.40662622550695" lon="11.354695562693255"><ele>462.6</ele><time>2026-03-28T11:07:37Z</time></trkpt><trkpt lat="43.40656813720121" lon="11.354779475566513"><ele>462.0</ele><time>2026-03-28T11:07:38Z</time></trkpt><trkpt lat="43.406537997557535" lon="11.354858308972373"><ele>462.0</ele><time>2026-03-28T11:07:39Z</time></trkpt><trkpt lat="43.406528186781216" lon="11.354958077242088"><ele>462.00000000000006</ele><time>2026-03-28T11:07:40Z</time></trkpt><trkpt lat="43.40653028733555" lon="11.355077935343596"><ele>462.00000000000006</ele><time>2026-03-28T11:07:41Z</time></trkpt><trkpt lat="43.40654685582108" lon="11.355209859815986"><ele>462.0</ele><time>2026-03-28T11:07:42Z</time></trkpt><trkpt lat="43.406582315569956" lon="11.355360397876359"><ele>462.0</ele><time>2026-03-28T11:07:43Z</time></trkpt><trkpt lat="43.406608302161764" lon="11.355497100674715"><ele>462.57142857142856</ele><time>2026-03-28T11:07:44Z</time></trkpt><trkpt lat="43.406624041527145" lon="11.355614211730865"><ele>463.1428571428571</ele><time>2026-03-28T11:07:45Z</time></trkpt><trkpt lat="43.40665092698057" lon="11.35571684800967"><ele>463.7142857142857</ele><time>2026-03-28T11:07:46Z</time></trkpt><trkpt lat="43.406672586825444" lon="11.355808848389486"><ele>464.2857142857143</ele><time>2026-03-28T11:07:47Z</time></trkpt><trkpt lat="43.40668437718796" lon="11.355901834993263"><ele>464.85714285714283</ele><time>2026-03-28T11:07:48Z</time></trkpt><trkpt lat="43.40664699212147" lon="11.355983770625713"><ele>465.42857142857144</ele><time>2026-03-28T11:07:49Z</time></trkpt><trkpt lat="43.40659764371635" lon="11.356038733684331"><ele>466.0</ele><time>2026-03-28T11:07:50Z</time></trkpt><trkpt lat="43.406474905867135" lon="11.356049376269747"><ele>466.0</ele><time>2026-03-28T11:07:52Z</time></trkpt><trkpt lat="43.40641875639968" lon="11.355980430539379"><ele>466.0</ele><time>2026-03-28T11:07:53Z</time></trkpt><trkpt lat="43.406352493754035" lon="11.355914101771512"><ele>466.0</ele><time>2026-03-28T11:07:54Z</time></trkpt><trkpt lat="43.406265124769234" lon="11.355824095446376"><ele>466.0</ele><time>2026-03-28T11:07:55Z</time></trkpt><trkpt lat="43.40617694517548" lon="11.355730383689112"><ele>466.0</ele><time>2026-03-28T11:07:56Z</time></trkpt><trkpt lat="43.40608763637286" lon="11.35563693549047"><ele>465.4</ele><time>2026-03-28T11:07:57Z</time></trkpt><trkpt lat="43.40599226366268" lon="11.355574009835802"><ele>464.8</ele><time>2026-03-28T11:07:58Z</time></trkpt><trkpt lat="43.4059132381261" lon="11.355496913751598"><ele>464.19999999999993</ele><time>2026-03-28T11:07:59Z</time></trkpt><trkpt lat="43.40583892749079" lon="11.355405245828564"><ele>463.59999999999997</ele><time>2026-03-28T11:08:00Z</time></trkpt><trkpt lat="43.4057505873426" lon="11.355379597144717"><ele>463.0</ele><time>2026-03-28T11:08:01Z</time></trkpt><trkpt lat="43.40567728165515" lon="11.355370234782603"><ele>461.59999999999997</ele><time>2026-03-28T11:08:02Z</time></trkpt><trkpt lat="43.405601857830206" lon="11.35536973023845"><ele>460.19999999999993</ele><time>2026-03-28T11:08:03Z</time></trkpt><trkpt lat="43.40552953107341" lon="11.35539672529247"><ele>458.8</ele><time>2026-03-28T11:08:04Z</time></trkpt><trkpt lat="43.40545008200164" lon="11.355469017720448"><ele>457.4</ele><time>2026-03-28T11:08:05Z</time></trkpt><trkpt lat="43.40538340999194" lon="11.355615907984664"><ele>456.0</ele><time>2026-03-28T11:08:07Z</time></trkpt><trkpt lat="43.40536434544531" lon="11.355827501822374"><ele>456.0</ele><time>2026-03-28T11:08:09Z</time></trkpt><trkpt lat="43.40531144370774" lon="11.355946918853077"><ele>456.0</ele><time>2026-03-28T11:08:10Z</time></trkpt><trkpt lat="43.405253827024595" lon="11.356054284951405"><ele>456.0</ele><time>2026-03-28T11:08:11Z</time></trkpt><trkpt lat="43.405190947028004" lon="11.356086207749538"><ele>456.0</ele><time>2026-03-28T11:08:12Z</time></trkpt><trkpt lat="43.40506380592541" lon="11.35606904409655"><ele>456.0</ele><time>2026-03-28T11:08:14Z</time></trkpt><trkpt lat="43.404998830038735" lon="11.355969545157413"><ele>456.0</ele><time>2026-03-28T11:08:15Z</time></trkpt><trkpt lat="43.40490522462677" lon="11.355911565817149"><ele>456.0</ele><time>2026-03-28T11:08:16Z</time></trkpt><trkpt lat="43.40480516997132" lon="11.355835127979862"><ele>456.0</ele><time>2026-03-28T11:08:17Z</time></trkpt><trkpt lat="43.40471592575949" lon="11.3557667115877"><ele>456.0</ele><time>2026-03-28T11:08:18Z</time></trkpt><trkpt lat="43.40464898789949" lon="11.355699342725615"><ele>456.0</ele><time>2026-03-28T11:08:19Z</time></trkpt><trkpt lat="43.4045698381551" lon="11.355654335428014"><ele>455.20000000000005</ele><time>2026-03-28T11:08:20Z</time></trkpt><trkpt lat="43.40444747317402" lon="11.355580096455261"><ele>454.40000000000003</ele><time>2026-03-28T11:08:22Z</time></trkpt><trkpt lat="43.40431423350864" lon="11.355558886923655"><ele>453.6</ele><time>2026-03-28T11:08:23Z</time></trkpt><trkpt lat="43.40422294421675" lon="11.355566401078974"><ele>452.8</ele><time>2026-03-28T11:08:24Z</time></trkpt><trkpt lat="43.404144378961355" lon="11.355562582856413"><ele>452.0</ele><time>2026-03-28T11:08:25Z</time></trkpt><trkpt lat="43.404063655324364" lon="11.355581405037714"><ele>452.0</ele><time>2026-03-28T11:08:26Z</time></trkpt><trkpt lat="43.403990472632955" lon="11.355616012345193"><ele>452.00000000000006</ele><time>2026-03-28T11:08:27Z</time></trkpt><trkpt lat="43.40390323873442" lon="11.355682461018585"><ele>452.00000000000006</ele><time>2026-03-28T11:08:28Z</time></trkpt><trkpt lat="43.40381216699893" lon="11.355753985212111"><ele>452.0</ele><time>2026-03-28T11:08:29Z</time></trkpt><trkpt lat="43.403735369525805" lon="11.355820896903571"><ele>452.0</ele><time>2026-03-28T11:08:30Z</time></trkpt><trkpt lat="43.40366819825867" lon="11.355878567211812"><ele>451.0</ele><time>2026-03-28T11:08:31Z</time></trkpt><trkpt lat="43.40360803845997" lon="11.355945612910364"><ele>450.00000000000006</ele><time>2026-03-28T11:08:32Z</time></trkpt><trkpt lat="43.403550428607616" lon="11.356079063259726"><ele>449.00000000000006</ele><time>2026-03-28T11:08:34Z</time></trkpt><trkpt lat="43.40356816397066" lon="11.356247328036499"><ele>448.0</ele><time>2026-03-28T11:08:36Z</time></trkpt><trkpt lat="43.403606005739206" lon="11.356336725847475"><ele>447.0</ele><time>2026-03-28T11:08:37Z</time></trkpt><trkpt lat="43.40365709139906" lon="11.356425266927374"><ele>447.0</ele><time>2026-03-28T11:08:38Z</time></trkpt><trkpt lat="43.4037193037076" lon="11.35651005789554"><ele>447.0</ele><time>2026-03-28T11:08:39Z</time></trkpt><trkpt lat="43.40377365881177" lon="11.356601948865835"><ele>447.0</ele><time>2026-03-28T11:08:40Z</time></trkpt><trkpt lat="43.403818039158224" lon="11.356710774449521"><ele>447.0</ele><time>2026-03-28T11:08:41Z</time></trkpt><trkpt lat="43.40383438668789" lon="11.356826310681523"><ele>447.0</ele><time>2026-03-28T11:08:42Z</time></trkpt><trkpt lat="43.40381797485639" lon="11.35692544650807"><ele>447.0</ele><time>2026-03-28T11:08:43Z</time></trkpt><trkpt lat="43.40377792636454" lon="11.357014861026434"><ele>447.0</ele><time>2026-03-28T11:08:44Z</time></trkpt><trkpt lat="43.40370584982236" lon="11.357047537399735"><ele>447.00000000000006</ele><time>2026-03-28T11:08:45.001Z</time></trkpt><trkpt lat="43.40363594426967" lon="11.357081939807763"><ele>447.00000000000006</ele><time>2026-03-28T11:08:46.001Z</time></trkpt><trkpt lat="43.403549341936035" lon="11.357096676652075"><ele>447.0</ele><time>2026-03-28T11:08:47.001Z</time></trkpt><trkpt lat="43.40345146969418" lon="11.357106879300222"><ele>447.0</ele><time>2026-03-28T11:08:48.001Z</time></trkpt><trkpt lat="43.40333122985404" lon="11.357094302027237"><ele>447.0</ele><time>2026-03-28T11:08:49.001Z</time></trkpt><trkpt lat="43.40320670972322" lon="11.357108447343403"><ele>447.00000000000006</ele><time>2026-03-28T11:08:50.001Z</time></trkpt><trkpt lat="43.40311579624067" lon="11.35710335425206"><ele>447.00000000000006</ele><time>2026-03-28T11:08:51.001Z</time></trkpt><trkpt lat="43.40302929275905" lon="11.357104510124586"><ele>447.0</ele><time>2026-03-28T11:08:52.001Z</time></trkpt><trkpt lat="43.40295364562257" lon="11.357176272257881"><ele>447.0</ele><time>2026-03-28T11:08:53.001Z</time></trkpt><trkpt lat="43.40288039206987" lon="11.357238189801885"><ele>446.3333333333333</ele><time>2026-03-28T11:08:54.001Z</time></trkpt><trkpt lat="43.4028000625703" lon="11.357325727565478"><ele>445.66666666666663</ele><time>2026-03-28T11:08:55.001Z</time></trkpt><trkpt lat="43.40276130448201" lon="11.357417608613439"><ele>445.0</ele><time>2026-03-28T11:08:56.001Z</time></trkpt><trkpt lat="43.40272433132562" lon="11.357527056504242"><ele>444.3333333333333</ele><time>2026-03-28T11:08:57.001Z</time></trkpt><trkpt lat="43.40270782147042" lon="11.357645524892488"><ele>443.66666666666663</ele><time>2026-03-28T11:08:58.001Z</time></trkpt><trkpt lat="43.4027137147201" lon="11.357766065493388"><ele>443.0</ele><time>2026-03-28T11:08:59.001Z</time></trkpt><trkpt lat="43.40273899668481" lon="11.357871170872848"><ele>443.0</ele><time>2026-03-28T11:09:00.001Z</time></trkpt><trkpt lat="43.402767089395844" lon="11.358005342751635"><ele>442.99999999999994</ele><time>2026-03-28T11:09:01.001Z</time></trkpt><trkpt lat="43.402801621726915" lon="11.358151443915938"><ele>442.99999999999994</ele><time>2026-03-28T11:09:02.001Z</time></trkpt><trkpt lat="43.40282779185107" lon="11.358311466728082"><ele>443.0</ele><time>2026-03-28T11:09:03.001Z</time></trkpt><trkpt lat="43.402851330192554" lon="11.35844688423754"><ele>443.0</ele><time>2026-03-28T11:09:04.001Z</time></trkpt><trkpt lat="43.40287374154516" lon="11.358571458265056"><ele>442.8333333333333</ele><time>2026-03-28T11:09:05.001Z</time></trkpt><trkpt lat="43.40288820382711" lon="11.358686477509817"><ele>442.66666666666663</ele><time>2026-03-28T11:09:06.001Z</time></trkpt><trkpt lat="43.40293233468401" lon="11.358779044664225"><ele>442.5</ele><time>2026-03-28T11:09:07.001Z</time></trkpt><trkpt lat="43.402974384969106" lon="11.358847053647269"><ele>442.33333333333337</ele><time>2026-03-28T11:09:08.001Z</time></trkpt><trkpt lat="43.40303709067854" lon="11.358892171263046"><ele>442.1666666666667</ele><time>2026-03-28T11:09:09.001Z</time></trkpt><trkpt lat="43.4031141029553" lon="11.358946246681267"><ele>442.0</ele><time>2026-03-28T11:09:10.001Z</time></trkpt><trkpt lat="43.40321193328953" lon="11.358981851935827"><ele>442.50000000000006</ele><time>2026-03-28T11:09:11.001Z</time></trkpt><trkpt lat="43.403311084102675" lon="11.35899659810986"><ele>443.0</ele><time>2026-03-28T11:09:12.001Z</time></trkpt><trkpt lat="43.403393319063234" lon="11.359030995009439"><ele>443.5</ele><time>2026-03-28T11:09:13Z</time></trkpt><trkpt lat="43.40345818871912" lon="11.359112349232648"><ele>444.0</ele><time>2026-03-28T11:09:14Z</time></trkpt><trkpt lat="43.403522468307926" lon="11.359196998886757"><ele>444.50000000000006</ele><time>2026-03-28T11:09:15Z</time></trkpt><trkpt lat="43.40356769662834" lon="11.359281192706396"><ele>445.0</ele><time>2026-03-28T11:09:16Z</time></trkpt><trkpt lat="43.40358600888677" lon="11.359397947648237"><ele>445.0</ele><time>2026-03-28T11:09:17Z</time></trkpt><trkpt lat="43.40357529341263" lon="11.359528319946241"><ele>445.0</ele><time>2026-03-28T11:09:18Z</time></trkpt><trkpt lat="43.403546436736654" lon="11.359668955435424"><ele>445.0</ele><time>2026-03-28T11:09:19Z</time></trkpt><trkpt lat="43.40350293812718" lon="11.359826383551024"><ele>445.0</ele><time>2026-03-28T11:09:20Z</time></trkpt><trkpt lat="43.40346628417804" lon="11.35997648228078"><ele>445.0</ele><time>2026-03-28T11:09:21Z</time></trkpt><trkpt lat="43.40345969413442" lon="11.360114616984426"><ele>445.1666666666667</ele><time>2026-03-28T11:09:22Z</time></trkpt><trkpt lat="43.40347334309166" lon="11.360242780541592"><ele>445.33333333333337</ele><time>2026-03-28T11:09:23Z</time></trkpt><trkpt lat="43.403490321682455" lon="11.360375005082007"><ele>445.5</ele><time>2026-03-28T11:09:24Z</time></trkpt><trkpt lat="43.40350199657973" lon="11.360483588158393"><ele>445.66666666666663</ele><time>2026-03-28T11:09:25Z</time></trkpt><trkpt lat="43.403499511018424" lon="11.36058347640407"><ele>445.8333333333333</ele><time>2026-03-28T11:09:26Z</time></trkpt><trkpt lat="43.40347103769874" lon="11.360685828581865"><ele>446.0</ele><time>2026-03-28T11:09:27Z</time></trkpt><trkpt lat="43.40341410960738" lon="11.360776367738877"><ele>446.0</ele><time>2026-03-28T11:09:28Z</time></trkpt><trkpt lat="43.403329421182676" lon="11.360792744612422"><ele>446.0</ele><time>2026-03-28T11:09:29Z</time></trkpt><trkpt lat="43.403243514467015" lon="11.360822141722805"><ele>446.0</ele><time>2026-03-28T11:09:30Z</time></trkpt><trkpt lat="43.40313865607705" lon="11.360874277924024"><ele>446.0</ele><time>2026-03-28T11:09:31Z</time></trkpt><trkpt lat="43.403017518118894" lon="11.360898040072193"><ele>446.0</ele><time>2026-03-28T11:09:32Z</time></trkpt><trkpt lat="43.402895687424" lon="11.360911705407283"><ele>445.0</ele><time>2026-03-28T11:09:33Z</time></trkpt><trkpt lat="43.402778152265086" lon="11.360893853907092"><ele>444.0</ele><time>2026-03-28T11:09:34Z</time></trkpt><trkpt lat="43.40266043902943" lon="11.360869320176423"><ele>443.0</ele><time>2026-03-28T11:09:35Z</time></trkpt><trkpt lat="43.402556724852" lon="11.360855206337948"><ele>442.0</ele><time>2026-03-28T11:09:36Z</time></trkpt><trkpt lat="43.40246231837966" lon="11.36083551588951"><ele>441.0</ele><time>2026-03-28T11:09:37Z</time></trkpt><trkpt lat="43.4023746208649" lon="11.360845272873721"><ele>441.0</ele><time>2026-03-28T11:09:38Z</time></trkpt><trkpt lat="43.40229233706839" lon="11.360880112152755"><ele>441.0</ele><time>2026-03-28T11:09:39Z</time></trkpt><trkpt lat="43.402215989491786" lon="11.360922550434948"><ele>441.0</ele><time>2026-03-28T11:09:40Z</time></trkpt><trkpt lat="43.4021309542189" lon="11.36100302024637"><ele>441.0</ele><time>2026-03-28T11:09:41Z</time></trkpt><trkpt lat="43.40204204132071" lon="11.361100744709082"><ele>441.0</ele><time>2026-03-28T11:09:42Z</time></trkpt><trkpt lat="43.40196694877813" lon="11.361197989846612"><ele>441.75</ele><time>2026-03-28T11:09:43Z</time></trkpt><trkpt lat="43.401877209107376" lon="11.361316541929446"><ele>442.5</ele><time>2026-03-28T11:09:44Z</time></trkpt><trkpt lat="43.40178462928584" lon="11.361444383350765"><ele>443.25</ele><time>2026-03-28T11:09:45Z</time></trkpt><trkpt lat="43.40167874261341" lon="11.361556229466936"><ele>444.0</ele><time>2026-03-28T11:09:46Z</time></trkpt><trkpt lat="43.401588110489875" lon="11.361650066655129"><ele>444.0</ele><time>2026-03-28T11:09:47Z</time></trkpt><trkpt lat="43.40149524435399" lon="11.361723548986625"><ele>444.0</ele><time>2026-03-28T11:09:48Z</time></trkpt><trkpt lat="43.40141826206751" lon="11.361791068802297"><ele>444.0</ele><time>2026-03-28T11:09:49Z</time></trkpt><trkpt lat="43.401353803115136" lon="11.36187107022865"><ele>444.0</ele><time>2026-03-28T11:09:50Z</time></trkpt><trkpt lat="43.40131322866538" lon="11.361938507035205"><ele>444.0</ele><time>2026-03-28T11:09:51Z</time></trkpt><trkpt lat="43.40128149089095" lon="11.362100875406519"><ele>445.0</ele><time>2026-03-28T11:09:53Z</time></trkpt><trkpt lat="43.401289982909724" lon="11.362198226999409"><ele>446.0</ele><time>2026-03-28T11:09:54Z</time></trkpt><trkpt lat="43.40132658681191" lon="11.362303890338225"><ele>447.0</ele><time>2026-03-28T11:09:55Z</time></trkpt><trkpt lat="43.401366094595566" lon="11.36244287026427"><ele>448.0</ele><time>2026-03-28T11:09:56Z</time></trkpt><trkpt lat="43.401388452673615" lon="11.362582690582999"><ele>449.0</ele><time>2026-03-28T11:09:57Z</time></trkpt><trkpt lat="43.401399542569024" lon="11.362709998259575"><ele>449.0</ele><time>2026-03-28T11:09:58Z</time></trkpt><trkpt lat="43.40138202614726" lon="11.362837812250968"><ele>449.0</ele><time>2026-03-28T11:09:59Z</time></trkpt><trkpt lat="43.401348682510005" lon="11.362955333092437"><ele>449.0</ele><time>2026-03-28T11:10:00Z</time></trkpt><trkpt lat="43.40130452309402" lon="11.36305320935299"><ele>449.0</ele><time>2026-03-28T11:10:01Z</time></trkpt><trkpt lat="43.40124275215466" lon="11.363132358376642"><ele>449.0</ele><time>2026-03-28T11:10:02Z</time></trkpt><trkpt lat="43.4011466919914" lon="11.363156395521884"><ele>447.49999999999994</ele><time>2026-03-28T11:10:03Z</time></trkpt><trkpt lat="43.401044053122014" lon="11.36319708406737"><ele>446.0</ele><time>2026-03-28T11:10:04Z</time></trkpt><trkpt lat="43.40096650702267" lon="11.363267851073038"><ele>444.5</ele><time>2026-03-28T11:10:05Z</time></trkpt><trkpt lat="43.40089473352264" lon="11.363317494088708"><ele>443.0</ele><time>2026-03-28T11:10:06Z</time></trkpt><trkpt lat="43.4008485300767" lon="11.363386565033712"><ele>441.49999999999994</ele><time>2026-03-28T11:10:07Z</time></trkpt><trkpt lat="43.4008100269405" lon="11.363473216986637"><ele>440.0</ele><time>2026-03-28T11:10:08Z</time></trkpt><trkpt lat="43.400784466399095" lon="11.363581444988727"><ele>439.99999999999994</ele><time>2026-03-28T11:10:09Z</time></trkpt><trkpt lat="43.40076105525391" lon="11.363705383008643"><ele>440.0</ele><time>2026-03-28T11:10:10Z</time></trkpt><trkpt lat="43.40074439859468" lon="11.36383285582337"><ele>440.0</ele><time>2026-03-28T11:10:11Z</time></trkpt><trkpt lat="43.400748807924565" lon="11.363948725874511"><ele>440.0</ele><time>2026-03-28T11:10:12Z</time></trkpt><trkpt lat="43.40076216554599" lon="11.364060754459892"><ele>439.99999999999994</ele><time>2026-03-28T11:10:13Z</time></trkpt><trkpt lat="43.400789974310285" lon="11.364173772113483"><ele>440.0</ele><time>2026-03-28T11:10:14Z</time></trkpt><trkpt lat="43.40083029728602" lon="11.364284510798454"><ele>440.0</ele><time>2026-03-28T11:10:15Z</time></trkpt><trkpt lat="43.40089529721069" lon="11.364423335340039"><ele>440.0</ele><time>2026-03-28T11:10:16Z</time></trkpt><trkpt lat="43.40095661405603" lon="11.364577939402023"><ele>440.0</ele><time>2026-03-28T11:10:17Z</time></trkpt><trkpt lat="43.40100758380913" lon="11.364718751586052"><ele>440.0</ele><time>2026-03-28T11:10:18Z</time></trkpt><trkpt lat="43.40103688418037" lon="11.364849202559945"><ele>440.0</ele><time>2026-03-28T11:10:19Z</time></trkpt><trkpt lat="43.4010501176314" lon="11.364980372036754"><ele>440.0</ele><time>2026-03-28T11:10:20Z</time></trkpt><trkpt lat="43.40106184967702" lon="11.365118982010605"><ele>440.0</ele><time>2026-03-28T11:10:21Z</time></trkpt><trkpt lat="43.40103934100753" lon="11.365243568413002"><ele>440.0</ele><time>2026-03-28T11:10:22Z</time></trkpt><trkpt lat="43.401101113083456" lon="11.365375079970933"><ele>440.0</ele><time>2026-03-28T11:10:23Z</time></trkpt><trkpt lat="43.4011217837327" lon="11.365496853472777"><ele>440.2</ele><time>2026-03-28T11:10:24Z</time></trkpt><trkpt lat="43.40114183314387" lon="11.365632992736318"><ele>440.4</ele><time>2026-03-28T11:10:25Z</time></trkpt><trkpt lat="43.40116305324442" lon="11.365776847366428"><ele>440.6</ele><time>2026-03-28T11:10:26Z</time></trkpt><trkpt lat="43.40118951074898" lon="11.365919686074745"><ele>440.8</ele><time>2026-03-28T11:10:27Z</time></trkpt><trkpt lat="43.40121025070822" lon="11.366059090261759"><ele>441.0</ele><time>2026-03-28T11:10:28Z</time></trkpt><trkpt lat="43.401229585331855" lon="11.36619324287607"><ele>441.0</ele><time>2026-03-28T11:10:29Z</time></trkpt><trkpt lat="43.40125175679871" lon="11.36633287095347"><ele>441.0</ele><time>2026-03-28T11:10:30Z</time></trkpt><trkpt lat="43.40128539711803" lon="11.366477937804293"><ele>441.0</ele><time>2026-03-28T11:10:31Z</time></trkpt><trkpt lat="43.401328130433704" lon="11.366613453015717"><ele>441.0</ele><time>2026-03-28T11:10:32Z</time></trkpt><trkpt lat="43.40137659491934" lon="11.3667381068314"><ele>441.0</ele><time>2026-03-28T11:10:33Z</time></trkpt><trkpt lat="43.40142195546407" lon="11.366850155761917"><ele>439.8</ele><time>2026-03-28T11:10:34Z</time></trkpt><trkpt lat="43.401478348870185" lon="11.366956781620907"><ele>438.6</ele><time>2026-03-28T11:10:35Z</time></trkpt><trkpt lat="43.40152891755852" lon="11.36708801686899"><ele>437.4</ele><time>2026-03-28T11:10:36Z</time></trkpt><trkpt lat="43.40156517081602" lon="11.367230218375193"><ele>436.2</ele><time>2026-03-28T11:10:37Z</time></trkpt><trkpt lat="43.40158207187724" lon="11.367388801759919"><ele>435.0</ele><time>2026-03-28T11:10:38Z</time></trkpt><trkpt lat="43.40159585235284" lon="11.367565665534284"><ele>434.66666666666663</ele><time>2026-03-28T11:10:39Z</time></trkpt><trkpt lat="43.401608892984164" lon="11.36776622046318"><ele>434.3333333333333</ele><time>2026-03-28T11:10:40Z</time></trkpt><trkpt lat="43.40162373237569" lon="11.367992263158728"><ele>434.0</ele><time>2026-03-28T11:10:41Z</time></trkpt><trkpt lat="43.40164225324278" lon="11.368205347034465"><ele>433.5</ele><time>2026-03-28T11:10:42Z</time></trkpt><trkpt lat="43.4016592381363" lon="11.368395773743353"><ele>433.0</ele><time>2026-03-28T11:10:43Z</time></trkpt><trkpt lat="43.40167710352056" lon="11.368579772267413"><ele>432.5</ele><time>2026-03-28T11:10:44Z</time></trkpt><trkpt lat="43.401692028407936" lon="11.368754129431954"><ele>432.0</ele><time>2026-03-28T11:10:45Z</time></trkpt><trkpt lat="43.40170093715479" lon="11.368916786703245"><ele>431.5</ele><time>2026-03-28T11:10:46Z</time></trkpt><trkpt lat="43.401690485030855" lon="11.369088226295199"><ele>431.0</ele><time>2026-03-28T11:10:47Z</time></trkpt><trkpt lat="43.40167003715967" lon="11.369270407522935"><ele>430.5</ele><time>2026-03-28T11:10:48Z</time></trkpt><trkpt lat="43.40163290497243" lon="11.369461867419746"><ele>430.0</ele><time>2026-03-28T11:10:49Z</time></trkpt><trkpt lat="43.40159574337083" lon="11.369649026314908"><ele>429.75</ele><time>2026-03-28T11:10:50Z</time></trkpt><trkpt lat="43.401558146953874" lon="11.369820423127852"><ele>429.5</ele><time>2026-03-28T11:10:51Z</time></trkpt><trkpt lat="43.40151658475155" lon="11.369994905845148"><ele>429.25</ele><time>2026-03-28T11:10:52Z</time></trkpt><trkpt lat="43.4014623746711" lon="11.370173020181793"><ele>429.0</ele><time>2026-03-28T11:10:53Z</time></trkpt><trkpt lat="43.4014028526258" lon="11.370334486847831"><ele>429.0</ele><time>2026-03-28T11:10:54Z</time></trkpt><trkpt lat="43.40135126750978" lon="11.370483103708558"><ele>429.0</ele><time>2026-03-28T11:10:55Z</time></trkpt><trkpt lat="43.401309434112136" lon="11.370634572174566"><ele>429.0</ele><time>2026-03-28T11:10:56Z</time></trkpt><trkpt lat="43.401284865447664" lon="11.370786242995575"><ele>429.0</ele><time>2026-03-28T11:10:57Z</time></trkpt><trkpt lat="43.40126375874115" lon="11.37095098056049"><ele>429.25</ele><time>2026-03-28T11:10:58Z</time></trkpt><trkpt lat="43.40122761926785" lon="11.371130147476196"><ele>429.5</ele><time>2026-03-28T11:10:59Z</time></trkpt><trkpt lat="43.40119622660842" lon="11.371317156494737"><ele>429.75</ele><time>2026-03-28T11:11:00Z</time></trkpt><trkpt lat="43.40123031958146" lon="11.371510056847404"><ele>430.0</ele><time>2026-03-28T11:11:01Z</time></trkpt><trkpt lat="43.401241304375176" lon="11.371678967087396"><ele>431.0</ele><time>2026-03-28T11:11:02Z</time></trkpt><trkpt lat="43.40124123689203" lon="11.371850763204447"><ele>432.0</ele><time>2026-03-28T11:11:03Z</time></trkpt><trkpt lat="43.40124538503952" lon="11.372022238603515"><ele>433.0</ele><time>2026-03-28T11:11:04Z</time></trkpt><trkpt lat="43.401248109881315" lon="11.372184621337029"><ele>434.0</ele><time>2026-03-28T11:11:05Z</time></trkpt><trkpt lat="43.40124932030608" lon="11.372330828604499"><ele>434.4</ele><time>2026-03-28T11:11:06Z</time></trkpt><trkpt lat="43.401242284912726" lon="11.372463190225337"><ele>434.79999999999995</ele><time>2026-03-28T11:11:07Z</time></trkpt><trkpt lat="43.40120809860121" lon="11.372596630776593"><ele>435.20000000000005</ele><time>2026-03-28T11:11:08Z</time></trkpt><trkpt lat="43.40115277433321" lon="11.372724716080825"><ele>435.6</ele><time>2026-03-28T11:11:09Z</time></trkpt><trkpt lat="43.4010811529907" lon="11.372835019157884"><ele>436.0</ele><time>2026-03-28T11:11:10Z</time></trkpt><trkpt lat="43.400993115677004" lon="11.372940764300683"><ele>436.4</ele><time>2026-03-28T11:11:11Z</time></trkpt><trkpt lat="43.400900814035445" lon="11.373029453323168"><ele>436.8</ele><time>2026-03-28T11:11:12Z</time></trkpt><trkpt lat="43.40082461452123" lon="11.373108209576698"><ele>437.19999999999993</ele><time>2026-03-28T11:11:13Z</time></trkpt><trkpt lat="43.400759402971566" lon="11.373191434130861"><ele>437.59999999999997</ele><time>2026-03-28T11:11:14Z</time></trkpt><trkpt lat="43.400707545777806" lon="11.37329245397768"><ele>438.0</ele><time>2026-03-28T11:11:15Z</time></trkpt><trkpt lat="43.40066374192368" lon="11.373422010454096"><ele>438.0</ele><time>2026-03-28T11:11:16Z</time></trkpt><trkpt lat="43.400623544486486" lon="11.373558347191628"><ele>437.99999999999994</ele><time>2026-03-28T11:11:17Z</time></trkpt><trkpt lat="43.40059765744311" lon="11.373689366292897"><ele>437.99999999999994</ele><time>2026-03-28T11:11:18Z</time></trkpt><trkpt lat="43.40057536076668" lon="11.373829556604266"><ele>438.0</ele><time>2026-03-28T11:11:19Z</time></trkpt><trkpt lat="43.400555341477464" lon="11.373945217598534"><ele>438.0</ele><time>2026-03-28T11:11:20Z</time></trkpt><trkpt lat="43.400530796620686" lon="11.37404671587232"><ele>438.2</ele><time>2026-03-28T11:11:21Z</time></trkpt><trkpt lat="43.4004926199129" lon="11.374165437710937"><ele>438.4</ele><time>2026-03-28T11:11:22Z</time></trkpt><trkpt lat="43.400443787191044" lon="11.374282864683892"><ele>438.59999999999997</ele><time>2026-03-28T11:11:23Z</time></trkpt><trkpt lat="43.40037896447615" lon="11.374407361412468"><ele>438.79999999999995</ele><time>2026-03-28T11:11:24Z</time></trkpt><trkpt lat="43.40029385641005" lon="11.374540880832686"><ele>439.0</ele><time>2026-03-28T11:11:25Z</time></trkpt><trkpt lat="43.40021219689982" lon="11.374671592217375"><ele>438.25</ele><time>2026-03-28T11:11:26Z</time></trkpt><trkpt lat="43.400142057045876" lon="11.374798584234448"><ele>437.5</ele><time>2026-03-28T11:11:27Z</time></trkpt><trkpt lat="43.40005537992617" lon="11.374938612561621"><ele>436.75</ele><time>2026-03-28T11:11:28Z</time></trkpt><trkpt lat="43.399972706329294" lon="11.375063145183493"><ele>436.0</ele><time>2026-03-28T11:11:29Z</time></trkpt><trkpt lat="43.39990636618009" lon="11.375186712688928"><ele>436.0</ele><time>2026-03-28T11:11:30Z</time></trkpt><trkpt lat="43.399836628141045" lon="11.375316156150603"><ele>436.0</ele><time>2026-03-28T11:11:31Z</time></trkpt><trkpt lat="43.39977151833834" lon="11.375430607993522"><ele>436.0</ele><time>2026-03-28T11:11:32Z</time></trkpt><trkpt lat="43.39970171598893" lon="11.375543691429373"><ele>436.0</ele><time>2026-03-28T11:11:33Z</time></trkpt><trkpt lat="43.39963319130801" lon="11.37563789702804"><ele>436.0</ele><time>2026-03-28T11:11:34Z</time></trkpt><trkpt lat="43.39956838711522" lon="11.375766904736054"><ele>434.0</ele><time>2026-03-28T11:11:35Z</time></trkpt><trkpt lat="43.399490506143124" lon="11.375852706670303"><ele>432.0</ele><time>2026-03-28T11:11:36Z</time></trkpt><trkpt lat="43.399394285528835" lon="11.375914001842723"><ele>430.0</ele><time>2026-03-28T11:11:37Z</time></trkpt><trkpt lat="43.39928634745947" lon="11.375937296617485"><ele>428.0</ele><time>2026-03-28T11:11:38Z</time></trkpt><trkpt lat="43.39915259896328" lon="11.375973862266168"><ele>428.0</ele><time>2026-03-28T11:11:39Z</time></trkpt><trkpt lat="43.399028398509174" lon="11.376005627022629"><ele>428.0</ele><time>2026-03-28T11:11:40Z</time></trkpt><trkpt lat="43.398912621758775" lon="11.376043411076347"><ele>428.0</ele><time>2026-03-28T11:11:41Z</time></trkpt><trkpt lat="43.39880939633318" lon="11.376108140251226"><ele>428.0</ele><time>2026-03-28T11:11:42Z</time></trkpt><trkpt lat="43.398695600575" lon="11.37614926246476"><ele>426.75</ele><time>2026-03-28T11:11:43Z</time></trkpt><trkpt lat="43.39859061882601" lon="11.376240901983467"><ele>425.5</ele><time>2026-03-28T11:11:44Z</time></trkpt><trkpt lat="43.39847272361592" lon="11.376343587019097"><ele>424.25</ele><time>2026-03-28T11:11:45Z</time></trkpt><trkpt lat="43.398354694953014" lon="11.37643005828103"><ele>423.0</ele><time>2026-03-28T11:11:46Z</time></trkpt><trkpt lat="43.39825051443212" lon="11.37654274858053"><ele>422.5</ele><time>2026-03-28T11:11:47Z</time></trkpt><trkpt lat="43.39815282448665" lon="11.376649871555204"><ele>422.0</ele><time>2026-03-28T11:11:48Z</time></trkpt><trkpt lat="43.39805397788314" lon="11.376773069565248"><ele>421.5</ele><time>2026-03-28T11:11:49Z</time></trkpt><trkpt lat="43.397943189497745" lon="11.376919499838008"><ele>421.0</ele><time>2026-03-28T11:11:50Z</time></trkpt><trkpt lat="43.39783019470668" lon="11.377079767839984"><ele>420.5</ele><time>2026-03-28T11:11:51Z</time></trkpt><trkpt lat="43.39772868646618" lon="11.377228082723192"><ele>420.0</ele><time>2026-03-28T11:11:52Z</time></trkpt><trkpt lat="43.39763999015032" lon="11.377368095789961"><ele>419.5</ele><time>2026-03-28T11:11:53Z</time></trkpt><trkpt lat="43.39755202079772" lon="11.377507936718626"><ele>419.0</ele><time>2026-03-28T11:11:54Z</time></trkpt><trkpt lat="43.39746669080968" lon="11.377652791185126"><ele>419.0</ele><time>2026-03-28T11:11:55Z</time></trkpt><trkpt lat="43.39738901486767" lon="11.377782187896713"><ele>419.0</ele><time>2026-03-28T11:11:56Z</time></trkpt><trkpt lat="43.397318352652704" lon="11.37790879345211"><ele>419.0</ele><time>2026-03-28T11:11:57Z</time></trkpt><trkpt lat="43.397244191756535" lon="11.378039529649081"><ele>419.0</ele><time>2026-03-28T11:11:58Z</time></trkpt><trkpt lat="43.3971891141263" lon="11.378167960058665"><ele>418.79999999999995</ele><time>2026-03-28T11:11:59Z</time></trkpt><trkpt lat="43.39712623500996" lon="11.378280700351617"><ele>418.59999999999997</ele><time>2026-03-28T11:12:00Z</time></trkpt><trkpt lat="43.3970588045443" lon="11.378386336251209"><ele>418.4</ele><time>2026-03-28T11:12:01Z</time></trkpt><trkpt lat="43.39699743865318" lon="11.378498166889392"><ele>418.2</ele><time>2026-03-28T11:12:02Z</time></trkpt><trkpt lat="43.39693275412303" lon="11.378618454669946"><ele>418.0</ele><time>2026-03-28T11:12:03Z</time></trkpt><trkpt lat="43.39688012030786" lon="11.378744832389371"><ele>417.0</ele><time>2026-03-28T11:12:04Z</time></trkpt><trkpt lat="43.39684010800045" lon="11.378879030557949"><ele>416.0</ele><time>2026-03-28T11:12:05Z</time></trkpt><trkpt lat="43.39681063837695" lon="11.37903055896174"><ele>415.0</ele><time>2026-03-28T11:12:06Z</time></trkpt><trkpt lat="43.39678376084645" lon="11.379204661389796"><ele>414.0</ele><time>2026-03-28T11:12:07Z</time></trkpt><trkpt lat="43.39675228017177" lon="11.37936764236442"><ele>414.0</ele><time>2026-03-28T11:12:08Z</time></trkpt><trkpt lat="43.396718920919376" lon="11.379539751509942"><ele>414.0</ele><time>2026-03-28T11:12:09Z</time></trkpt><trkpt lat="43.396684240421486" lon="11.37972488287545"><ele>414.0</ele><time>2026-03-28T11:12:10Z</time></trkpt><trkpt lat="43.396652748171434" lon="11.379890552354746"><ele>414.0</ele><time>2026-03-28T11:12:11Z</time></trkpt><trkpt lat="43.39662025887639" lon="11.380061952437122"><ele>412.75</ele><time>2026-03-28T11:12:12Z</time></trkpt><trkpt lat="43.396589175667366" lon="11.380224681924204"><ele>411.5</ele><time>2026-03-28T11:12:13Z</time></trkpt><trkpt lat="43.39655225257143" lon="11.380379103459774"><ele>410.25</ele><time>2026-03-28T11:12:14Z</time></trkpt><trkpt lat="43.39649879757163" lon="11.380535366884997"><ele>409.0</ele><time>2026-03-28T11:12:15Z</time></trkpt><trkpt lat="43.39642197879888" lon="11.380684563585833"><ele>409.75</ele><time>2026-03-28T11:12:16Z</time></trkpt><trkpt lat="43.39633054360185" lon="11.380814964633638"><ele>410.5</ele><time>2026-03-28T11:12:17Z</time></trkpt><trkpt lat="43.3962219679689" lon="11.380909286933447"><ele>411.25</ele><time>2026-03-28T11:12:18Z</time></trkpt><trkpt lat="43.39611429706099" lon="11.380980119880938"><ele>412.0</ele><time>2026-03-28T11:12:19Z</time></trkpt><trkpt lat="43.39599300211963" lon="11.381022979336832"><ele>412.0</ele><time>2026-03-28T11:12:20Z</time></trkpt><trkpt lat="43.395861448664746" lon="11.381039660730885"><ele>412.0</ele><time>2026-03-28T11:12:21Z</time></trkpt><trkpt lat="43.395705577531736" lon="11.381012962446347"><ele>412.0</ele><time>2026-03-28T11:12:22Z</time></trkpt><trkpt lat="43.39552353480373" lon="11.38098847202571"><ele>413.33333333333337</ele><time>2026-03-28T11:12:23Z</time></trkpt><trkpt lat="43.39530032493507" lon="11.38094890938236"><ele>414.66666666666663</ele><time>2026-03-28T11:12:24Z</time></trkpt><trkpt lat="43.3950907165773" lon="11.380926958451143"><ele>416.0</ele><time>2026-03-28T11:12:25Z</time></trkpt><trkpt lat="43.39489515046497" lon="11.380944212210986"><ele>416.0</ele><time>2026-03-28T11:12:26Z</time></trkpt><trkpt lat="43.394702945576924" lon="11.380974356238996"><ele>416.0</ele><time>2026-03-28T11:12:27Z</time></trkpt><trkpt lat="43.394513674984324" lon="11.381022558489123"><ele>416.0</ele><time>2026-03-28T11:12:28Z</time></trkpt><trkpt lat="43.39432337013937" lon="11.381078945737872"><ele>415.66666666666663</ele><time>2026-03-28T11:12:29Z</time></trkpt><trkpt lat="43.39415529466849" lon="11.381137797559981"><ele>415.33333333333337</ele><time>2026-03-28T11:12:30Z</time></trkpt><trkpt lat="43.394000428896334" lon="11.381205109036541"><ele>415.0</ele><time>2026-03-28T11:12:31Z</time></trkpt><trkpt lat="43.39384527230951" lon="11.381292673782431"><ele>417.0</ele><time>2026-03-28T11:12:32Z</time></trkpt><trkpt lat="43.39367560816436" lon="11.381402281320446"><ele>419.0</ele><time>2026-03-28T11:12:33Z</time></trkpt><trkpt lat="43.39349085595748" lon="11.381536552548114"><ele>421.0</ele><time>2026-03-28T11:12:34Z</time></trkpt><trkpt lat="43.39327492880658" lon="11.381672757414233"><ele>421.0</ele><time>2026-03-28T11:12:35Z</time></trkpt><trkpt lat="43.39306842174702" lon="11.381838342715023"><ele>421.0</ele><time>2026-03-28T11:12:36Z</time></trkpt><trkpt lat="43.39288880390429" lon="11.381983483040349"><ele>421.0</ele><time>2026-03-28T11:12:37Z</time></trkpt><trkpt lat="43.39272308718766" lon="11.382118181272286"><ele>422.33333333333337</ele><time>2026-03-28T11:12:38Z</time></trkpt><trkpt lat="43.392571087280736" lon="11.38224701844828"><ele>423.66666666666663</ele><time>2026-03-28T11:12:39Z</time></trkpt><trkpt lat="43.39243955569011" lon="11.382392250407591"><ele>425.0</ele><time>2026-03-28T11:12:40Z</time></trkpt><trkpt lat="43.39231023616949" lon="11.38251051220179"><ele>425.0</ele><time>2026-03-28T11:12:41Z</time></trkpt><trkpt lat="43.392197182315506" lon="11.382639724587408"><ele>425.0</ele><time>2026-03-28T11:12:42Z</time></trkpt><trkpt lat="43.392105528592175" lon="11.382785752644597"><ele>425.0</ele><time>2026-03-28T11:12:43Z</time></trkpt><trkpt lat="43.3920375961557" lon="11.382946741607858"><ele>425.0</ele><time>2026-03-28T11:12:44Z</time></trkpt><trkpt lat="43.39198409867231" lon="11.383126207960288"><ele>425.0</ele><time>2026-03-28T11:12:45Z</time></trkpt><trkpt lat="43.39195041788596" lon="11.38333008179493"><ele>425.0</ele><time>2026-03-28T11:12:46Z</time></trkpt><trkpt lat="43.39192830007889" lon="11.383531678091618"><ele>425.0</ele><time>2026-03-28T11:12:47Z</time></trkpt><trkpt lat="43.391900743398374" lon="11.383711816540192"><ele>425.0</ele><time>2026-03-28T11:12:48Z</time></trkpt><trkpt lat="43.39186338017928" lon="11.38390384690592"><ele>425.0</ele><time>2026-03-28T11:12:49Z</time></trkpt><trkpt lat="43.391798966714546" lon="11.384063485024079"><ele>425.0</ele><time>2026-03-28T11:12:50Z</time></trkpt><trkpt lat="43.391705201245685" lon="11.384192840814343"><ele>425.0</ele><time>2026-03-28T11:12:51Z</time></trkpt><trkpt lat="43.39159445345084" lon="11.384292134323939"><ele>425.0</ele><time>2026-03-28T11:12:52Z</time></trkpt><trkpt lat="43.39144947370479" lon="11.384402458212673"><ele>424.66666666666663</ele><time>2026-03-28T11:12:53Z</time></trkpt><trkpt lat="43.39129957299813" lon="11.384532252835825"><ele>424.33333333333337</ele><time>2026-03-28T11:12:54Z</time></trkpt><trkpt lat="43.39121339504207" lon="11.384633916605463"><ele>424.0</ele><time>2026-03-28T11:12:55Z</time></trkpt><trkpt lat="43.391061660791365" lon="11.384771250185912"><ele>424.0</ele><time>2026-03-28T11:12:56Z</time></trkpt><trkpt lat="43.39092278558381" lon="11.384897208967686"><ele>424.0</ele><time>2026-03-28T11:12:57Z</time></trkpt><trkpt lat="43.390807033168045" lon="11.385023108154057"><ele>424.0</ele><time>2026-03-28T11:12:58Z</time></trkpt><trkpt lat="43.39068002924025" lon="11.385135099893983"><ele>424.0</ele><time>2026-03-28T11:12:59Z</time></trkpt><trkpt lat="43.39053738760524" lon="11.385241957753927"><ele>424.0</ele><time>2026-03-28T11:13:00Z</time></trkpt><trkpt lat="43.39039613297659" lon="11.385331746485443"><ele>424.0</ele><time>2026-03-28T11:13:01Z</time></trkpt><trkpt lat="43.39026026347549" lon="11.385417457580477"><ele>423.75</ele><time>2026-03-28T11:13:02Z</time></trkpt><trkpt lat="43.390144930321085" lon="11.385490925549696"><ele>423.5</ele><time>2026-03-28T11:13:03Z</time></trkpt><trkpt lat="43.390031398725725" lon="11.385565512149732"><ele>423.25</ele><time>2026-03-28T11:13:04Z</time></trkpt><trkpt lat="43.38994228213061" lon="11.385632524766708"><ele>423.0</ele><time>2026-03-28T11:13:05Z</time></trkpt><trkpt lat="43.38984199723933" lon="11.38572054166782"><ele>422.75</ele><time>2026-03-28T11:13:07Z</time></trkpt><trkpt lat="43.38974392672376" lon="11.385981457480085"><ele>422.5</ele><time>2026-03-28T11:13:10Z</time></trkpt><trkpt lat="43.38970953631695" lon="11.386103052669021"><ele>422.25</ele><time>2026-03-28T11:13:11Z</time></trkpt><trkpt lat="43.38966897964842" lon="11.386229076864412"><ele>422.0</ele><time>2026-03-28T11:13:12Z</time></trkpt><trkpt lat="43.389619094337064" lon="11.386352614005514"><ele>422.75</ele><time>2026-03-28T11:13:13Z</time></trkpt><trkpt lat="43.38956458956091" lon="11.386477064809222"><ele>423.5</ele><time>2026-03-28T11:13:14Z</time></trkpt><trkpt lat="43.38950092462075" lon="11.386612660066286"><ele>424.25</ele><time>2026-03-28T11:13:15Z</time></trkpt><trkpt lat="43.389434496393235" lon="11.386759583160535"><ele>425.0</ele><time>2026-03-28T11:13:16Z</time></trkpt><trkpt lat="43.38936383472343" lon="11.386920487264803"><ele>425.0</ele><time>2026-03-28T11:13:17Z</time></trkpt><trkpt lat="43.389284047794284" lon="11.387101140998235"><ele>425.0</ele><time>2026-03-28T11:13:18Z</time></trkpt><trkpt lat="43.389189594394615" lon="11.387247016800357"><ele>425.0</ele><time>2026-03-28T11:13:19Z</time></trkpt><trkpt lat="43.38910890908885" lon="11.387405242372473"><ele>425.0</ele><time>2026-03-28T11:13:20Z</time></trkpt><trkpt lat="43.389052644092764" lon="11.387598341906564"><ele>424.0</ele><time>2026-03-28T11:13:21Z</time></trkpt><trkpt lat="43.38897918921916" lon="11.387787245320455"><ele>423.0</ele><time>2026-03-28T11:13:22Z</time></trkpt><trkpt lat="43.38889459571449" lon="11.38799656780063"><ele>422.0</ele><time>2026-03-28T11:13:23Z</time></trkpt><trkpt lat="43.38880799977728" lon="11.38820189570199"><ele>424.3333333333333</ele><time>2026-03-28T11:13:24Z</time></trkpt><trkpt lat="43.38872605657155" lon="11.388375284036783"><ele>426.66666666666663</ele><time>2026-03-28T11:13:25Z</time></trkpt><trkpt lat="43.38864561550042" lon="11.388547520574797"><ele>429.0</ele><time>2026-03-28T11:13:26Z</time></trkpt><trkpt lat="43.388562305000185" lon="11.38873306128814"><ele>428.5</ele><time>2026-03-28T11:13:27Z</time></trkpt><trkpt lat="43.38847816184366" lon="11.388924939826373"><ele>428.0</ele><time>2026-03-28T11:13:28Z</time></trkpt><trkpt lat="43.3884018938191" lon="11.38909462922873"><ele>427.5</ele><time>2026-03-28T11:13:29Z</time></trkpt><trkpt lat="43.388336923512824" lon="11.38924870283575"><ele>427.0</ele><time>2026-03-28T11:13:30Z</time></trkpt><trkpt lat="43.38827224394731" lon="11.389408036234698"><ele>427.0</ele><time>2026-03-28T11:13:31Z</time></trkpt><trkpt lat="43.38820914014543" lon="11.389572867569626"><ele>427.0</ele><time>2026-03-28T11:13:32Z</time></trkpt><trkpt lat="43.38815941958251" lon="11.389731504224631"><ele>427.0</ele><time>2026-03-28T11:13:33Z</time></trkpt><trkpt lat="43.388124981222646" lon="11.389869973456529"><ele>427.0</ele><time>2026-03-28T11:13:34Z</time></trkpt><trkpt lat="43.3881027733271" lon="11.390007850726889"><ele>427.20000000000005</ele><time>2026-03-28T11:13:35Z</time></trkpt><trkpt lat="43.388085587597324" lon="11.390164152162711"><ele>427.40000000000003</ele><time>2026-03-28T11:13:36Z</time></trkpt><trkpt lat="43.3880585582124" lon="11.39031900012544"><ele>427.59999999999997</ele><time>2026-03-28T11:13:37Z</time></trkpt><trkpt lat="43.38801987380444" lon="11.390451571085626"><ele>427.79999999999995</ele><time>2026-03-28T11:13:38Z</time></trkpt><trkpt lat="43.38796005224052" lon="11.390569816162643"><ele>428.0</ele><time>2026-03-28T11:13:39Z</time></trkpt><trkpt lat="43.38787910693543" lon="11.390684326808378"><ele>429.5</ele><time>2026-03-28T11:13:40Z</time></trkpt><trkpt lat="43.387786555020334" lon="11.390817163719651"><ele>431.0</ele><time>2026-03-28T11:13:41Z</time></trkpt><trkpt lat="43.387685406393935" lon="11.390965481040034"><ele>432.5</ele><time>2026-03-28T11:13:42Z</time></trkpt><trkpt lat="43.387579781448274" lon="11.391135604542034"><ele>434.0</ele><time>2026-03-28T11:13:43Z</time></trkpt><trkpt lat="43.38744443378871" lon="11.39134791951855"><ele>434.0</ele><time>2026-03-28T11:13:44Z</time></trkpt><trkpt lat="43.38731280706706" lon="11.39154946659598"><ele>434.0</ele><time>2026-03-28T11:13:45Z</time></trkpt><trkpt lat="43.387204393386604" lon="11.391715705325034"><ele>434.0</ele><time>2026-03-28T11:13:46Z</time></trkpt><trkpt lat="43.387108220610784" lon="11.391864945842709"><ele>433.25</ele><time>2026-03-28T11:13:47Z</time></trkpt><trkpt lat="43.38701550755987" lon="11.392003726724415"><ele>432.5</ele><time>2026-03-28T11:13:48Z</time></trkpt><trkpt lat="43.38692486539712" lon="11.39212897458311"><ele>431.75</ele><time>2026-03-28T11:13:49Z</time></trkpt><trkpt lat="43.38682821206144" lon="11.392251769369333"><ele>431.0</ele><time>2026-03-28T11:13:50Z</time></trkpt><trkpt lat="43.38672183434231" lon="11.392362693691917"><ele>431.0</ele><time>2026-03-28T11:13:51Z</time></trkpt><trkpt lat="43.38660808725766" lon="11.392458324788274"><ele>431.0</ele><time>2026-03-28T11:13:52Z</time></trkpt><trkpt lat="43.38650686816922" lon="11.392546260761769"><ele>431.0</ele><time>2026-03-28T11:13:53Z</time></trkpt><trkpt lat="43.386412167549786" lon="11.392632048809945"><ele>431.0</ele><time>2026-03-28T11:13:54Z</time></trkpt><trkpt lat="43.386317702808206" lon="11.392734894970479"><ele>430.0</ele><time>2026-03-28T11:13:55Z</time></trkpt><trkpt lat="43.38621497780333" lon="11.392860335291347"><ele>429.0</ele><time>2026-03-28T11:13:56Z</time></trkpt><trkpt lat="43.386117203456706" lon="11.39300785145679"><ele>428.0</ele><time>2026-03-28T11:13:57Z</time></trkpt><trkpt lat="43.38599895762545" lon="11.393182009450236"><ele>428.0</ele><time>2026-03-28T11:13:58Z</time></trkpt><trkpt lat="43.385871346435266" lon="11.39337589489789"><ele>428.0</ele><time>2026-03-28T11:13:59Z</time></trkpt><trkpt lat="43.385761707501395" lon="11.39354126271885"><ele>428.0</ele><time>2026-03-28T11:14:00Z</time></trkpt><trkpt lat="43.38565240344062" lon="11.39369964565331"><ele>427.0</ele><time>2026-03-28T11:14:01Z</time></trkpt><trkpt lat="43.38553748988643" lon="11.393870210208673"><ele>426.0</ele><time>2026-03-28T11:14:02Z</time></trkpt><trkpt lat="43.38543444051422" lon="11.394022409658287"><ele>425.0</ele><time>2026-03-28T11:14:03Z</time></trkpt><trkpt lat="43.38533187407897" lon="11.394168764786349"><ele>425.0</ele><time>2026-03-28T11:14:04Z</time></trkpt><trkpt lat="43.38522844100532" lon="11.394318383392621"><ele>425.0</ele><time>2026-03-28T11:14:05Z</time></trkpt><trkpt lat="43.38513112032719" lon="11.394466618388302"><ele>425.0</ele><time>2026-03-28T11:14:06Z</time></trkpt><trkpt lat="43.385031457273925" lon="11.394621700011795"><ele>425.0</ele><time>2026-03-28T11:14:07Z</time></trkpt><trkpt lat="43.38494006266111" lon="11.39476233552395"><ele>424.5</ele><time>2026-03-28T11:14:08Z</time></trkpt><trkpt lat="43.38484927992436" lon="11.394887263329412"><ele>424.0</ele><time>2026-03-28T11:14:09Z</time></trkpt><trkpt lat="43.38476829469626" lon="11.395012759346447"><ele>423.5</ele><time>2026-03-28T11:14:10Z</time></trkpt><trkpt lat="43.38468788622536" lon="11.395130594253342"><ele>423.0</ele><time>2026-03-28T11:14:11Z</time></trkpt><trkpt lat="43.384594419030954" lon="11.395236643179436"><ele>421.25</ele><time>2026-03-28T11:14:12Z</time></trkpt><trkpt lat="43.38448612305445" lon="11.395323351208752"><ele>419.5</ele><time>2026-03-28T11:14:13Z</time></trkpt><trkpt lat="43.38435552579336" lon="11.39536077152256"><ele>417.75</ele><time>2026-03-28T11:14:14Z</time></trkpt><trkpt lat="43.38421368545228" lon="11.395417183695606"><ele>416.0</ele><time>2026-03-28T11:14:15Z</time></trkpt><trkpt lat="43.38404666665439" lon="11.395479702178529"><ele>416.66666666666663</ele><time>2026-03-28T11:14:16Z</time></trkpt><trkpt lat="43.383889631837924" lon="11.395538746148604"><ele>417.33333333333337</ele><time>2026-03-28T11:14:17Z</time></trkpt><trkpt lat="43.38371316501613" lon="11.395632827370301"><ele>418.0</ele><time>2026-03-28T11:14:18Z</time></trkpt><trkpt lat="43.383523736606534" lon="11.39568668311754"><ele>418.0</ele><time>2026-03-28T11:14:19Z</time></trkpt><trkpt lat="43.38336868083575" lon="11.395765731086446"><ele>418.0</ele><time>2026-03-28T11:14:20Z</time></trkpt><trkpt lat="43.383226775768996" lon="11.39582012133481"><ele>418.0</ele><time>2026-03-28T11:14:21Z</time></trkpt><trkpt lat="43.38307934864597" lon="11.39587824698529"><ele>417.0</ele><time>2026-03-28T11:14:22Z</time></trkpt><trkpt lat="43.38293475775818" lon="11.395935320250718"><ele>416.0</ele><time>2026-03-28T11:14:23Z</time></trkpt><trkpt lat="43.38279550261121" lon="11.39599090976321"><ele>415.0</ele><time>2026-03-28T11:14:24Z</time></trkpt><trkpt lat="43.38265722595233" lon="11.39601236018623"><ele>414.0</ele><time>2026-03-28T11:14:25Z</time></trkpt><trkpt lat="43.38252730094271" lon="11.396049224747975"><ele>414.0</ele><time>2026-03-28T11:14:26Z</time></trkpt><trkpt lat="43.382401034732005" lon="11.396093388344914"><ele>414.0</ele><time>2026-03-28T11:14:27Z</time></trkpt><trkpt lat="43.382274274329234" lon="11.396123719694737"><ele>414.0</ele><time>2026-03-28T11:14:28Z</time></trkpt><trkpt lat="43.382141215124236" lon="11.396151173026253"><ele>414.0</ele><time>2026-03-28T11:14:29Z</time></trkpt><trkpt lat="43.38200590102117" lon="11.396161461574533"><ele>413.0</ele><time>2026-03-28T11:14:30Z</time></trkpt><trkpt lat="43.38186354219146" lon="11.39618333136167"><ele>412.0</ele><time>2026-03-28T11:14:31Z</time></trkpt><trkpt lat="43.38171755549375" lon="11.396205416526072"><ele>411.0</ele><time>2026-03-28T11:14:32Z</time></trkpt><trkpt lat="43.381580382525584" lon="11.396225748437864"><ele>410.0</ele><time>2026-03-28T11:14:33Z</time></trkpt><trkpt lat="43.38143829030945" lon="11.396242758116651"><ele>409.5</ele><time>2026-03-28T11:14:34Z</time></trkpt><trkpt lat="43.38128040142065" lon="11.396247870898582"><ele>409.0</ele><time>2026-03-28T11:14:35Z</time></trkpt><trkpt lat="43.38113662983597" lon="11.39624787089799"><ele>408.5</ele><time>2026-03-28T11:14:36Z</time></trkpt><trkpt lat="43.3810033870039" lon="11.396246581692052"><ele>408.0</ele><time>2026-03-28T11:14:37Z</time></trkpt><trkpt lat="43.380866478093296" lon="11.396268932651088"><ele>408.0</ele><time>2026-03-28T11:14:38Z</time></trkpt><trkpt lat="43.38072199963338" lon="11.396291187270682"><ele>408.0</ele><time>2026-03-28T11:14:39Z</time></trkpt><trkpt lat="43.38057470362926" lon="11.396325101300413"><ele>408.0</ele><time>2026-03-28T11:14:40Z</time></trkpt><trkpt lat="43.38044213881587" lon="11.396360312579462"><ele>408.0</ele><time>2026-03-28T11:14:41Z</time></trkpt><trkpt lat="43.38031746242658" lon="11.396370015518883"><ele>407.0</ele><time>2026-03-28T11:14:42Z</time></trkpt><trkpt lat="43.380200719502724" lon="11.396400837505762"><ele>406.0</ele><time>2026-03-28T11:14:43Z</time></trkpt><trkpt lat="43.38006225557616" lon="11.396437394182147"><ele>405.0</ele><time>2026-03-28T11:14:44Z</time></trkpt><trkpt lat="43.379895080320026" lon="11.396503860918228"><ele>404.0</ele><time>2026-03-28T11:14:45Z</time></trkpt><trkpt lat="43.37971567449253" lon="11.396543747883365"><ele>402.66666666666663</ele><time>2026-03-28T11:14:46Z</time></trkpt><trkpt lat="43.37954900334189" lon="11.396588228305035"><ele>401.33333333333337</ele><time>2026-03-28T11:14:47Z</time></trkpt><trkpt lat="43.379392717957565" lon="11.396629170930273"><ele>400.0</ele><time>2026-03-28T11:14:48Z</time></trkpt><trkpt lat="43.379230054845245" lon="11.396676104671695"><ele>400.0</ele><time>2026-03-28T11:14:49Z</time></trkpt><trkpt lat="43.37904119116312" lon="11.396737509354281"><ele>400.0</ele><time>2026-03-28T11:14:50Z</time></trkpt><trkpt lat="43.37883934780596" lon="11.396813325089383"><ele>400.0</ele><time>2026-03-28T11:14:51Z</time></trkpt><trkpt lat="43.3786607926538" lon="11.396853306787483"><ele>398.0</ele><time>2026-03-28T11:14:52Z</time></trkpt><trkpt lat="43.37848143412487" lon="11.396913346210592"><ele>396.0</ele><time>2026-03-28T11:14:53Z</time></trkpt><trkpt lat="43.37831360376021" lon="11.396969409722516"><ele>394.0</ele><time>2026-03-28T11:14:54Z</time></trkpt><trkpt lat="43.37815261513552" lon="11.397021992386627"><ele>392.75</ele><time>2026-03-28T11:14:55Z</time></trkpt><trkpt lat="43.377999716847306" lon="11.397070640274952"><ele>391.5</ele><time>2026-03-28T11:14:56Z</time></trkpt><trkpt lat="43.37785482829521" lon="11.397098729186068"><ele>390.25</ele><time>2026-03-28T11:14:57Z</time></trkpt><trkpt lat="43.37771405880816" lon="11.397112763152782"><ele>389.0</ele><time>2026-03-28T11:14:58Z</time></trkpt><trkpt lat="43.37757177894094" lon="11.397159325026827"><ele>388.5</ele><time>2026-03-28T11:14:59Z</time></trkpt><trkpt lat="43.377455686149936" lon="11.397207038702367"><ele>388.0</ele><time>2026-03-28T11:15:00Z</time></trkpt><trkpt lat="43.37732643231311" lon="11.397291226806566"><ele>387.5</ele><time>2026-03-28T11:15:01Z</time></trkpt><trkpt lat="43.37719814467979" lon="11.397409867362045"><ele>387.0</ele><time>2026-03-28T11:15:02Z</time></trkpt><trkpt lat="43.37708779041559" lon="11.397520567941411"><ele>387.0</ele><time>2026-03-28T11:15:03Z</time></trkpt><trkpt lat="43.37697834194421" lon="11.39763312528602"><ele>387.0</ele><time>2026-03-28T11:15:04Z</time></trkpt><trkpt lat="43.376871329047326" lon="11.397750138632588"><ele>387.0</ele><time>2026-03-28T11:15:05Z</time></trkpt><trkpt lat="43.376775207632065" lon="11.397848441326452"><ele>387.0</ele><time>2026-03-28T11:15:06Z</time></trkpt><trkpt lat="43.37667738908876" lon="11.39794774866145"><ele>385.6666666666667</ele><time>2026-03-28T11:15:07Z</time></trkpt><trkpt lat="43.3765590464318" lon="11.398043193981554"><ele>384.33333333333337</ele><time>2026-03-28T11:15:08Z</time></trkpt><trkpt lat="43.37641401235248" lon="11.398119432712159"><ele>383.0</ele><time>2026-03-28T11:15:09Z</time></trkpt><trkpt lat="43.37623484508613" lon="11.398186402972254"><ele>383.0</ele><time>2026-03-28T11:15:10Z</time></trkpt><trkpt lat="43.37604467338755" lon="11.398245667469125"><ele>383.0</ele><time>2026-03-28T11:15:11Z</time></trkpt><trkpt lat="43.375878863623626" lon="11.398307494281307"><ele>383.0</ele><time>2026-03-28T11:15:12Z</time></trkpt><trkpt lat="43.3757412542321" lon="11.398364521300902"><ele>383.0</ele><time>2026-03-28T11:15:13Z</time></trkpt><trkpt lat="43.37561590373264" lon="11.39841525234663"><ele>383.0</ele><time>2026-03-28T11:15:14Z</time></trkpt><trkpt lat="43.37550110910274" lon="11.398467401794456"><ele>383.0</ele><time>2026-03-28T11:15:15Z</time></trkpt><trkpt lat="43.37540062479705" lon="11.39852658306409"><ele>383.0</ele><time>2026-03-28T11:15:16Z</time></trkpt><trkpt lat="43.375307623938006" lon="11.398592086505364"><ele>383.0</ele><time>2026-03-28T11:15:17Z</time></trkpt><trkpt lat="43.375208723281325" lon="11.398675242897436"><ele>383.0</ele><time>2026-03-28T11:15:18Z</time></trkpt><trkpt lat="43.37509789717811" lon="11.398780776564912"><ele>383.0</ele><time>2026-03-28T11:15:19Z</time></trkpt><trkpt lat="43.374984043516044" lon="11.39889838371342"><ele>383.0</ele><time>2026-03-28T11:15:20Z</time></trkpt><trkpt lat="43.37486938930516" lon="11.399031689697033"><ele>382.75</ele><time>2026-03-28T11:15:21Z</time></trkpt><trkpt lat="43.37475715184567" lon="11.399165743218608"><ele>382.5</ele><time>2026-03-28T11:15:22Z</time></trkpt><trkpt lat="43.37465353327592" lon="11.399283561804477"><ele>382.25</ele><time>2026-03-28T11:15:23Z</time></trkpt><trkpt lat="43.3745561259223" lon="11.399395823367822"><ele>382.0</ele><time>2026-03-28T11:15:24Z</time></trkpt><trkpt lat="43.3744599043744" lon="11.399507992840308"><ele>382.25</ele><time>2026-03-28T11:15:25Z</time></trkpt><trkpt lat="43.374357905687404" lon="11.399615938331053"><ele>382.5</ele><time>2026-03-28T11:15:26Z</time></trkpt><trkpt lat="43.37425907804457" lon="11.399708474080073"><ele>382.75</ele><time>2026-03-28T11:15:27Z</time></trkpt><trkpt lat="43.37416145128393" lon="11.399782918785704"><ele>383.0</ele><time>2026-03-28T11:15:28Z</time></trkpt><trkpt lat="43.374058861195735" lon="11.399850813389996"><ele>383.0</ele><time>2026-03-28T11:15:29Z</time></trkpt><trkpt lat="43.37394406139392" lon="11.399919349387734"><ele>383.0</ele><time>2026-03-28T11:15:30Z</time></trkpt><trkpt lat="43.373810065155304" lon="11.399983441028443"><ele>383.0</ele><time>2026-03-28T11:15:31Z</time></trkpt><trkpt lat="43.37368003601088" lon="11.400038516901494"><ele>383.0</ele><time>2026-03-28T11:15:32Z</time></trkpt><trkpt lat="43.37355929794864" lon="11.400081065282244"><ele>383.0</ele><time>2026-03-28T11:15:33Z</time></trkpt><trkpt lat="43.37344948471319" lon="11.400121272384956"><ele>383.0</ele><time>2026-03-28T11:15:34Z</time></trkpt><trkpt lat="43.37334853746039" lon="11.400166950854262"><ele>383.0</ele><time>2026-03-28T11:15:35Z</time></trkpt><trkpt lat="43.37324182784405" lon="11.400227426368797"><ele>383.0</ele><time>2026-03-28T11:15:36Z</time></trkpt><trkpt lat="43.37314031990987" lon="11.400299188274603"><ele>383.0</ele><time>2026-03-28T11:15:37Z</time></trkpt><trkpt lat="43.37304494073781" lon="11.400386007793966"><ele>383.25</ele><time>2026-03-28T11:15:38Z</time></trkpt><trkpt lat="43.372952096011716" lon="11.400491755662634"><ele>383.5</ele><time>2026-03-28T11:15:39Z</time></trkpt><trkpt lat="43.37284276349353" lon="11.40061551020604"><ele>383.75</ele><time>2026-03-28T11:15:40Z</time></trkpt><trkpt lat="43.37273182362211" lon="11.400750558901027"><ele>384.0</ele><time>2026-03-28T11:15:41Z</time></trkpt><trkpt lat="43.372635027988615" lon="11.400863673117783"><ele>384.4</ele><time>2026-03-28T11:15:42Z</time></trkpt><trkpt lat="43.372544985679305" lon="11.400966691568971"><ele>384.79999999999995</ele><time>2026-03-28T11:15:43Z</time></trkpt><trkpt lat="43.37245718358344" lon="11.401064841861924"><ele>385.20000000000005</ele><time>2026-03-28T11:15:44Z</time></trkpt><trkpt lat="43.37237159487096" lon="11.401150809658196"><ele>385.6</ele><time>2026-03-28T11:15:45Z</time></trkpt><trkpt lat="43.37228930443227" lon="11.401230180443266"><ele>386.0</ele><time>2026-03-28T11:15:46Z</time></trkpt><trkpt lat="43.37220886544561" lon="11.401311816058332"><ele>385.0</ele><time>2026-03-28T11:15:47Z</time></trkpt><trkpt lat="43.372121573477166" lon="11.401401345653426"><ele>384.0</ele><time>2026-03-28T11:15:48Z</time></trkpt><trkpt lat="43.37204089696374" lon="11.401482165647295"><ele>383.0</ele><time>2026-03-28T11:15:49Z</time></trkpt><trkpt lat="43.37197154094024" lon="11.401549299224547"><ele>382.0</ele><time>2026-03-28T11:15:50Z</time></trkpt><trkpt lat="43.37191576305821" lon="11.401629684094424"><ele>381.0</ele><time>2026-03-28T11:15:51Z</time></trkpt><trkpt lat="43.371878831484935" lon="11.401753710486759"><ele>381.0</ele><time>2026-03-28T11:15:52Z</time></trkpt><trkpt lat="43.37185546646281" lon="11.401903273063215"><ele>381.0</ele><time>2026-03-28T11:15:53Z</time></trkpt><trkpt lat="43.371849603203955" lon="11.402042167654523"><ele>381.0</ele><time>2026-03-28T11:15:54Z</time></trkpt><trkpt lat="43.37183633183697" lon="11.402185051625152"><ele>381.0</ele><time>2026-03-28T11:15:55Z</time></trkpt><trkpt lat="43.371801967316486" lon="11.40231672980642"><ele>381.0</ele><time>2026-03-28T11:15:56Z</time></trkpt><trkpt lat="43.37173096239998" lon="11.402434118489653"><ele>380.5</ele><time>2026-03-28T11:15:57Z</time></trkpt><trkpt lat="43.37167722690368" lon="11.402560363119404"><ele>380.0</ele><time>2026-03-28T11:15:58Z</time></trkpt><trkpt lat="43.37161628517412" lon="11.40271202541246"><ele>379.5</ele><time>2026-03-28T11:15:59Z</time></trkpt><trkpt lat="43.371557617084676" lon="11.402852486904864"><ele>379.0</ele><time>2026-03-28T11:16:00Z</time></trkpt><trkpt lat="43.371499971328724" lon="11.4029914328847"><ele>377.25</ele><time>2026-03-28T11:16:01Z</time></trkpt><trkpt lat="43.371434672657855" lon="11.403151546384919"><ele>375.5</ele><time>2026-03-28T11:16:02Z</time></trkpt><trkpt lat="43.37137577385915" lon="11.403299587095663"><ele>373.75</ele><time>2026-03-28T11:16:03Z</time></trkpt><trkpt lat="43.37132169798026" lon="11.403425241279612"><ele>372.0</ele><time>2026-03-28T11:16:04Z</time></trkpt><trkpt lat="43.37126245503207" lon="11.4035460378245"><ele>371.20000000000005</ele><time>2026-03-28T11:16:05Z</time></trkpt><trkpt lat="43.37121070360286" lon="11.403663698557274"><ele>370.4</ele><time>2026-03-28T11:16:06Z</time></trkpt><trkpt lat="43.37116554036442" lon="11.403772085153458"><ele>369.6</ele><time>2026-03-28T11:16:07Z</time></trkpt><trkpt lat="43.371115483294815" lon="11.403888590393953"><ele>368.79999999999995</ele><time>2026-03-28T11:16:08Z</time></trkpt><trkpt lat="43.3710658808152" lon="11.404002684897076"><ele>368.0</ele><time>2026-03-28T11:16:09Z</time></trkpt><trkpt lat="43.37101714286265" lon="11.404114131804857"><ele>367.6666666666667</ele><time>2026-03-28T11:16:10Z</time></trkpt><trkpt lat="43.37097391090131" lon="11.404214030926829"><ele>367.33333333333337</ele><time>2026-03-28T11:16:11Z</time></trkpt><trkpt lat="43.37091997770882" lon="11.404301216304484"><ele>367.0</ele><time>2026-03-28T11:16:12Z</time></trkpt><trkpt lat="43.370840263964126" lon="11.404365692670892"><ele>366.6666666666667</ele><time>2026-03-28T11:16:13Z</time></trkpt><trkpt lat="43.37075455854693" lon="11.40441756325659"><ele>366.3333333333333</ele><time>2026-03-28T11:16:14Z</time></trkpt><trkpt lat="43.3706650969475" lon="11.404447577484904"><ele>366.0</ele><time>2026-03-28T11:16:15Z</time></trkpt><trkpt lat="43.37055756803332" lon="11.404471009607969"><ele>364.75</ele><time>2026-03-28T11:16:16Z</time></trkpt><trkpt lat="43.370449841915516" lon="11.404484141199202"><ele>363.5</ele><time>2026-03-28T11:16:17Z</time></trkpt><trkpt lat="43.37033173332882" lon="11.4044838190475"><ele>362.25</ele><time>2026-03-28T11:16:18Z</time></trkpt><trkpt lat="43.370178908035435" lon="11.404475375925198"><ele>361.0</ele><time>2026-03-28T11:16:19Z</time></trkpt><trkpt lat="43.37000707343077" lon="11.404465882598538"><ele>361.0</ele><time>2026-03-28T11:16:20Z</time></trkpt><trkpt lat="43.3698736544583" lon="11.404458511616468"><ele>361.0</ele><time>2026-03-28T11:16:21Z</time></trkpt><trkpt lat="43.36972638550388" lon="11.404450685593018"><ele>361.0</ele><time>2026-03-28T11:16:22Z</time></trkpt><trkpt lat="43.36956097458343" lon="11.404445544674445"><ele>361.0</ele><time>2026-03-28T11:16:23Z</time></trkpt><trkpt lat="43.369403432589564" lon="11.404437721949238"><ele>359.5</ele><time>2026-03-28T11:16:24Z</time></trkpt><trkpt lat="43.369253876697876" lon="11.404439500273364"><ele>358.0</ele><time>2026-03-28T11:16:25Z</time></trkpt><trkpt lat="43.36910481998398" lon="11.404476181548079"><ele>356.5</ele><time>2026-03-28T11:16:26Z</time></trkpt><trkpt lat="43.3689615434114" lon="11.404479506105282"><ele>355.0</ele><time>2026-03-28T11:16:27Z</time></trkpt><trkpt lat="43.368835412922564" lon="11.404498002532748"><ele>354.25</ele><time>2026-03-28T11:16:28Z</time></trkpt><trkpt lat="43.36871069298304" lon="11.404497046596255"><ele>353.5</ele><time>2026-03-28T11:16:29Z</time></trkpt><trkpt lat="43.3685708862882" lon="11.404483041946492"><ele>352.75</ele><time>2026-03-28T11:16:30Z</time></trkpt><trkpt lat="43.36841091676275" lon="11.404456846857855"><ele>352.0</ele><time>2026-03-28T11:16:31Z</time></trkpt><trkpt lat="43.36824582011215" lon="11.404424419724622"><ele>352.0</ele><time>2026-03-28T11:16:32Z</time></trkpt><trkpt lat="43.368096567240336" lon="11.40439656485599"><ele>352.0</ele><time>2026-03-28T11:16:33Z</time></trkpt><trkpt lat="43.36795570150386" lon="11.404376663236967"><ele>352.0</ele><time>2026-03-28T11:16:34Z</time></trkpt><trkpt lat="43.36779832404391" lon="11.40434051080541"><ele>351.25</ele><time>2026-03-28T11:16:35Z</time></trkpt><trkpt lat="43.367653026331766" lon="11.404319054750534"><ele>350.5</ele><time>2026-03-28T11:16:36Z</time></trkpt><trkpt lat="43.36752010581202" lon="11.404291688910694"><ele>349.75</ele><time>2026-03-28T11:16:37Z</time></trkpt><trkpt lat="43.36738590918022" lon="11.40426331688242"><ele>349.0</ele><time>2026-03-28T11:16:38Z</time></trkpt><trkpt lat="43.367253266906324" lon="11.40424570789909"><ele>349.0</ele><time>2026-03-28T11:16:39Z</time></trkpt><trkpt lat="43.367113456183475" lon="11.404253053211294"><ele>349.0</ele><time>2026-03-28T11:16:40Z</time></trkpt><trkpt lat="43.36698845255688" lon="11.404288355072083"><ele>349.0</ele><time>2026-03-28T11:16:41Z</time></trkpt><trkpt lat="43.36686344122753" lon="11.404342985818126"><ele>349.0</ele><time>2026-03-28T11:16:42Z</time></trkpt><trkpt lat="43.36674892223513" lon="11.404409964416585"><ele>349.0</ele><time>2026-03-28T11:16:43Z</time></trkpt><trkpt lat="43.36664514728344" lon="11.404506842264231"><ele>349.0</ele><time>2026-03-28T11:16:44Z</time></trkpt><trkpt lat="43.36654889158124" lon="11.404623370498623"><ele>349.0</ele><time>2026-03-28T11:16:45Z</time></trkpt><trkpt lat="43.3664872174269" lon="11.404738170158948"><ele>349.0</ele><time>2026-03-28T11:16:46Z</time></trkpt><trkpt lat="43.36641121326643" lon="11.404875224257056"><ele>348.75</ele><time>2026-03-28T11:16:47Z</time></trkpt><trkpt lat="43.366350587788894" lon="11.40502032631013"><ele>348.5</ele><time>2026-03-28T11:16:48Z</time></trkpt><trkpt lat="43.366289351410124" lon="11.405170224629595"><ele>348.25</ele><time>2026-03-28T11:16:49Z</time></trkpt><trkpt lat="43.36623510764587" lon="11.405313848873677"><ele>348.0</ele><time>2026-03-28T11:16:50Z</time></trkpt><trkpt lat="43.366182236612836" lon="11.40544965439229"><ele>347.3333333333333</ele><time>2026-03-28T11:16:51Z</time></trkpt><trkpt lat="43.36613281524327" lon="11.405573984809326"><ele>346.6666666666667</ele><time>2026-03-28T11:16:52Z</time></trkpt><trkpt lat="43.36609119379012" lon="11.405689768821542"><ele>346.0</ele><time>2026-03-28T11:16:53Z</time></trkpt><trkpt lat="43.36605166549735" lon="11.405794861032469"><ele>345.33333333333337</ele><time>2026-03-28T11:16:54Z</time></trkpt><trkpt lat="43.3660115695896" lon="11.40589408901319"><ele>344.6666666666667</ele><time>2026-03-28T11:16:55Z</time></trkpt><trkpt lat="43.36597476348347" lon="11.405986583765326"><ele>344.0</ele><time>2026-03-28T11:16:56Z</time></trkpt><trkpt lat="43.36594389470195" lon="11.406075775698207"><ele>344.0</ele><time>2026-03-28T11:16:57Z</time></trkpt><trkpt lat="43.36588678088805" lon="11.40615201589915"><ele>344.0</ele><time>2026-03-28T11:16:58Z</time></trkpt><trkpt lat="43.365801348221616" lon="11.406192503008342"><ele>344.0</ele><time>2026-03-28T11:16:59Z</time></trkpt><trkpt lat="43.365707058778106" lon="11.406231806293789"><ele>344.0</ele><time>2026-03-28T11:17:00Z</time></trkpt><trkpt lat="43.36560441012482" lon="11.406275748964223"><ele>344.0</ele><time>2026-03-28T11:17:01Z</time></trkpt><trkpt lat="43.36551321267549" lon="11.406314259656321"><ele>343.1666666666667</ele><time>2026-03-28T11:17:02Z</time></trkpt><trkpt lat="43.36544127285238" lon="11.406366861550048"><ele>342.33333333333337</ele><time>2026-03-28T11:17:03Z</time></trkpt><trkpt lat="43.36533474859509" lon="11.406397600587141"><ele>341.5</ele><time>2026-03-28T11:17:05Z</time></trkpt><trkpt lat="43.36525700392049" lon="11.40643260616809"><ele>340.6666666666667</ele><time>2026-03-28T11:17:07Z</time></trkpt><trkpt lat="43.3651948214336" lon="11.406458128393572"><ele>339.8333333333333</ele><time>2026-03-28T11:17:09Z</time></trkpt><trkpt lat="43.36509489006599" lon="11.40646674149315"><ele>339.0</ele><time>2026-03-28T11:17:12Z</time></trkpt><trkpt lat="43.365027496966995" lon="11.406457262414742"><ele>339.0</ele><time>2026-03-28T11:17:14Z</time></trkpt><trkpt lat="43.36495677496559" lon="11.406409299578076"><ele>339.0</ele><time>2026-03-28T11:17:16Z</time></trkpt><trkpt lat="43.36491301628033" lon="11.406346496527028"><ele>339.0</ele><time>2026-03-28T11:17:17Z</time></trkpt><trkpt lat="43.364856249526206" lon="11.406277805719613"><ele>339.0</ele><time>2026-03-28T11:17:18Z</time></trkpt><trkpt lat="43.36479905727458" lon="11.40620705990113"><ele>339.0</ele><time>2026-03-28T11:17:19Z</time></trkpt><trkpt lat="43.364750433683575" lon="11.406139730402982"><ele>339.0</ele><time>2026-03-28T11:17:20Z</time></trkpt><trkpt lat="43.36470494534749" lon="11.406075129601202"><ele>339.0</ele><time>2026-03-28T11:17:21Z</time></trkpt><trkpt lat="43.364652044464044" lon="11.40602168616691"><ele>337.0</ele><time>2026-03-28T11:17:22Z</time></trkpt><trkpt lat="43.36458752773169" lon="11.405984885821715"><ele>335.0</ele><time>2026-03-28T11:17:23Z</time></trkpt><trkpt lat="43.36451532727535" lon="11.40597834523403"><ele>333.0</ele><time>2026-03-28T11:17:24Z</time></trkpt><trkpt lat="43.36443106358217" lon="11.405994536463815"><ele>331.0</ele><time>2026-03-28T11:17:25Z</time></trkpt><trkpt lat="43.36434227306813" lon="11.406051176192376"><ele>329.0</ele><time>2026-03-28T11:17:26Z</time></trkpt><trkpt lat="43.364232991509304" lon="11.406145165738613"><ele>329.0</ele><time>2026-03-28T11:17:27Z</time></trkpt><trkpt lat="43.36408253147611" lon="11.406234621449933"><ele>329.0</ele><time>2026-03-28T11:17:28Z</time></trkpt><trkpt lat="43.36393926810782" lon="11.406306054590933"><ele>329.0</ele><time>2026-03-28T11:17:29Z</time></trkpt><trkpt lat="43.36378880698434" lon="11.40643047787463"><ele>326.5</ele><time>2026-03-28T11:17:30Z</time></trkpt><trkpt lat="43.36366491146955" lon="11.406528104250166"><ele>324.0</ele><time>2026-03-28T11:17:31Z</time></trkpt><trkpt lat="43.36353753967469" lon="11.406610560026479"><ele>321.5</ele><time>2026-03-28T11:17:32Z</time></trkpt><trkpt lat="43.36342063348473" lon="11.406685124494942"><ele>319.0</ele><time>2026-03-28T11:17:33Z</time></trkpt><trkpt lat="43.36331240340364" lon="11.406750722422823"><ele>319.0</ele><time>2026-03-28T11:17:34Z</time></trkpt><trkpt lat="43.36320010976398" lon="11.406817173059792"><ele>319.0</ele><time>2026-03-28T11:17:35Z</time></trkpt><trkpt lat="43.363079584184504" lon="11.406889502985539"><ele>319.0</ele><time>2026-03-28T11:17:36.001Z</time></trkpt><trkpt lat="43.36295185179682" lon="11.40696417442866"><ele>319.0</ele><time>2026-03-28T11:17:37Z</time></trkpt><trkpt lat="43.362780120205045" lon="11.407057461580948"><ele>317.3333333333333</ele><time>2026-03-28T11:17:38Z</time></trkpt><trkpt lat="43.36256535178375" lon="11.407150465121115"><ele>315.6666666666667</ele><time>2026-03-28T11:17:39Z</time></trkpt><trkpt lat="43.36236341152586" lon="11.407214457822512"><ele>314.0</ele><time>2026-03-28T11:17:40Z</time></trkpt><trkpt lat="43.362185256061494" lon="11.407271646857792"><ele>311.33333333333337</ele><time>2026-03-28T11:17:41Z</time></trkpt><trkpt lat="43.36201595541514" lon="11.407321803731092"><ele>308.6666666666667</ele><time>2026-03-28T11:17:42Z</time></trkpt><trkpt lat="43.36185335795722" lon="11.407368427895243"><ele>306.0</ele><time>2026-03-28T11:17:43Z</time></trkpt><trkpt lat="43.36169962344859" lon="11.407412715263185"><ele>306.0</ele><time>2026-03-28T11:17:44Z</time></trkpt><trkpt lat="43.36155401670933" lon="11.407454273290886"><ele>306.0</ele><time>2026-03-28T11:17:45Z</time></trkpt><trkpt lat="43.36141398491863" lon="11.40749012597043"><ele>306.0</ele><time>2026-03-28T11:17:46Z</time></trkpt><trkpt lat="43.36127306310654" lon="11.407492676465607"><ele>306.0</ele><time>2026-03-28T11:17:47Z</time></trkpt><trkpt lat="43.361128981948184" lon="11.407532773747636"><ele>303.3333333333333</ele><time>2026-03-28T11:17:48Z</time></trkpt><trkpt lat="43.36097856000641" lon="11.407543784534184"><ele>300.66666666666663</ele><time>2026-03-28T11:17:49Z</time></trkpt><trkpt lat="43.36082191050393" lon="11.407550341170687"><ele>298.0</ele><time>2026-03-28T11:17:50Z</time></trkpt><trkpt lat="43.36067899475055" lon="11.407526459017085"><ele>298.0</ele><time>2026-03-28T11:17:51Z</time></trkpt><trkpt lat="43.36054620279135" lon="11.407508765884453"><ele>298.0</ele><time>2026-03-28T11:17:52Z</time></trkpt><trkpt lat="43.36041374938546" lon="11.40748839581402"><ele>298.0</ele><time>2026-03-28T11:17:53Z</time></trkpt><trkpt lat="43.36028301446471" lon="11.40746525250435"><ele>298.0</ele><time>2026-03-28T11:17:54Z</time></trkpt><trkpt lat="43.36015441133189" lon="11.407459225453158"><ele>297.6</ele><time>2026-03-28T11:17:55Z</time></trkpt><trkpt lat="43.36003931220917" lon="11.407426608785643"><ele>297.20000000000005</ele><time>2026-03-28T11:17:56Z</time></trkpt><trkpt lat="43.35993256019952" lon="11.407392778140368"><ele>296.8</ele><time>2026-03-28T11:17:57Z</time></trkpt><trkpt lat="43.35983906479052" lon="11.407370611418322"><ele>296.40000000000003</ele><time>2026-03-28T11:17:58Z</time></trkpt><trkpt lat="43.359757373794125" lon="11.407378167263186"><ele>296.0</ele><time>2026-03-28T11:17:59Z</time></trkpt><trkpt lat="43.35968232677513" lon="11.407414833427822"><ele>296.0</ele><time>2026-03-28T11:18:00Z</time></trkpt><trkpt lat="43.35961583774108" lon="11.407480197266919"><ele>296.0</ele><time>2026-03-28T11:18:01Z</time></trkpt><trkpt lat="43.35955664684165" lon="11.407562020162562"><ele>296.0</ele><time>2026-03-28T11:18:02Z</time></trkpt><trkpt lat="43.359509999850786" lon="11.407644562075818"><ele>296.0</ele><time>2026-03-28T11:18:03Z</time></trkpt><trkpt lat="43.35947296950231" lon="11.40772881403871"><ele>296.0</ele><time>2026-03-28T11:18:04Z</time></trkpt><trkpt lat="43.35944645865108" lon="11.407825087235702"><ele>296.0</ele><time>2026-03-28T11:18:05Z</time></trkpt><trkpt lat="43.35943415846208" lon="11.407930712208806"><ele>294.83333333333337</ele><time>2026-03-28T11:18:06Z</time></trkpt><trkpt lat="43.35944080870423" lon="11.408038824633273"><ele>293.6666666666667</ele><time>2026-03-28T11:18:07Z</time></trkpt><trkpt lat="43.359460286966" lon="11.408143884583158"><ele>292.5</ele><time>2026-03-28T11:18:08Z</time></trkpt><trkpt lat="43.359496452859545" lon="11.408231263644682"><ele>291.3333333333333</ele><time>2026-03-28T11:18:09Z</time></trkpt><trkpt lat="43.35954869422548" lon="11.408305147737238"><ele>290.16666666666663</ele><time>2026-03-28T11:18:10Z</time></trkpt><trkpt lat="43.359615688180035" lon="11.408373364623156"><ele>289.0</ele><time>2026-03-28T11:18:11Z</time></trkpt><trkpt lat="43.359701312733975" lon="11.408433959225075"><ele>289.0</ele><time>2026-03-28T11:18:12Z</time></trkpt><trkpt lat="43.35980464643243" lon="11.408499438179817"><ele>289.0</ele><time>2026-03-28T11:18:13Z</time></trkpt><trkpt lat="43.35990902532532" lon="11.408578600575026"><ele>289.0</ele><time>2026-03-28T11:18:14Z</time></trkpt><trkpt lat="43.360001544549526" lon="11.408655546646918"><ele>289.0</ele><time>2026-03-28T11:18:15Z</time></trkpt><trkpt lat="43.36010100328304" lon="11.408731260673413"><ele>289.0</ele><time>2026-03-28T11:18:16Z</time></trkpt><trkpt lat="43.360198665052714" lon="11.408816245495643"><ele>289.0</ele><time>2026-03-28T11:18:17Z</time></trkpt><trkpt lat="43.36028258537375" lon="11.408899815683187"><ele>289.0</ele><time>2026-03-28T11:18:18Z</time></trkpt><trkpt lat="43.36035813507334" lon="11.409000072860524"><ele>289.0</ele><time>2026-03-28T11:18:19Z</time></trkpt><trkpt lat="43.360432211760795" lon="11.409119711750895"><ele>289.0</ele><time>2026-03-28T11:18:20Z</time></trkpt><trkpt lat="43.36050063453609" lon="11.409263581846043"><ele>288.59999999999997</ele><time>2026-03-28T11:18:21Z</time></trkpt><trkpt lat="43.360560507623646" lon="11.409402618964329"><ele>288.2</ele><time>2026-03-28T11:18:22Z</time></trkpt><trkpt lat="43.36062033204382" lon="11.409536162322363"><ele>287.79999999999995</ele><time>2026-03-28T11:18:23Z</time></trkpt><trkpt lat="43.36067790308225" lon="11.409659133480426"><ele>287.4</ele><time>2026-03-28T11:18:24Z</time></trkpt><trkpt lat="43.36072384748685" lon="11.409769962545496"><ele>287.0</ele><time>2026-03-28T11:18:25Z</time></trkpt><trkpt lat="43.360763911694846" lon="11.409892177277854"><ele>285.8</ele><time>2026-03-28T11:18:26Z</time></trkpt><trkpt lat="43.360795438270124" lon="11.410001851567234"><ele>284.6</ele><time>2026-03-28T11:18:27Z</time></trkpt><trkpt lat="43.36083031978445" lon="11.410111916436657"><ele>283.40000000000003</ele><time>2026-03-28T11:18:28Z</time></trkpt><trkpt lat="43.36085206162294" lon="11.41023595235303"><ele>282.2</ele><time>2026-03-28T11:18:29Z</time></trkpt><trkpt lat="43.360855300984596" lon="11.410367738777822"><ele>281.0</ele><time>2026-03-28T11:18:30Z</time></trkpt><trkpt lat="43.36083081113989" lon="11.41049733318962"><ele>280.40000000000003</ele><time>2026-03-28T11:18:31Z</time></trkpt><trkpt lat="43.36078769422351" lon="11.410610808330723"><ele>279.8</ele><time>2026-03-28T11:18:32Z</time></trkpt><trkpt lat="43.36072768262135" lon="11.410701809626099"><ele>279.20000000000005</ele><time>2026-03-28T11:18:33Z</time></trkpt><trkpt lat="43.360635273814665" lon="11.410734378255805"><ele>278.6</ele><time>2026-03-28T11:18:34Z</time></trkpt><trkpt lat="43.360557976917214" lon="11.410777488717459"><ele>278.0</ele><time>2026-03-28T11:18:35Z</time></trkpt><trkpt lat="43.36046979406446" lon="11.41085149660429"><ele>276.4</ele><time>2026-03-28T11:18:36Z</time></trkpt><trkpt lat="43.36035662429534" lon="11.410896903774917"><ele>274.8</ele><time>2026-03-28T11:18:37Z</time></trkpt><trkpt lat="43.36025471044595" lon="11.410941842099897"><ele>273.2</ele><time>2026-03-28T11:18:38Z</time></trkpt><trkpt lat="43.36017160119337" lon="11.410985127799712"><ele>271.6</ele><time>2026-03-28T11:18:39Z</time></trkpt><trkpt lat="43.36010005329857" lon="11.411029439139265"><ele>270.0</ele><time>2026-03-28T11:18:40Z</time></trkpt><trkpt lat="43.36003806034357" lon="11.411089700324235"><ele>270.0</ele><time>2026-03-28T11:18:41Z</time></trkpt><trkpt lat="43.35999078986418" lon="11.41115678901324"><ele>270.0</ele><time>2026-03-28T11:18:42Z</time></trkpt><trkpt lat="43.35995052544026" lon="11.411230894294645"><ele>270.0</ele><time>2026-03-28T11:18:43Z</time></trkpt><trkpt lat="43.35991769366536" lon="11.411320842116247"><ele>270.0</ele><time>2026-03-28T11:18:44Z</time></trkpt><trkpt lat="43.35989224037807" lon="11.411415726174548"><ele>270.0</ele><time>2026-03-28T11:18:45Z</time></trkpt><trkpt lat="43.35988520403238" lon="11.411511707781955"><ele>270.0</ele><time>2026-03-28T11:18:46Z</time></trkpt><trkpt lat="43.359890648994025" lon="11.411604836935629"><ele>270.0</ele><time>2026-03-28T11:18:47Z</time></trkpt><trkpt lat="43.35990740022969" lon="11.41168850028519"><ele>270.0</ele><time>2026-03-28T11:18:48Z</time></trkpt><trkpt lat="43.35995187714205" lon="11.411828568112373"><ele>270.0</ele><time>2026-03-28T11:18:50Z</time></trkpt><trkpt lat="43.359965279286165" lon="11.411947288381818"><ele>270.0</ele><time>2026-03-28T11:18:52Z</time></trkpt><trkpt lat="43.35990790801653" lon="11.412048599237435"><ele>270.0</ele><time>2026-03-28T11:18:54Z</time></trkpt><trkpt lat="43.35984261806681" lon="11.412043221844892"><ele>270.0</ele><time>2026-03-28T11:18:55Z</time></trkpt><trkpt lat="43.35974318217469" lon="11.411982136192979"><ele>267.6</ele><time>2026-03-28T11:18:57Z</time></trkpt><trkpt lat="43.359659118197115" lon="11.411852666431393"><ele>265.2</ele><time>2026-03-28T11:18:59Z</time></trkpt><trkpt lat="43.35962723215635" lon="11.41172982122858"><ele>262.8</ele><time>2026-03-28T11:19:00Z</time></trkpt><trkpt lat="43.35962458901069" lon="11.411601460072502"><ele>260.4</ele><time>2026-03-28T11:19:01Z</time></trkpt><trkpt lat="43.35959114023132" lon="11.411487228219872"><ele>258.0</ele><time>2026-03-28T11:19:02Z</time></trkpt><trkpt lat="43.3595680340394" lon="11.411356853676983"><ele>259.0</ele><time>2026-03-28T11:19:03Z</time></trkpt><trkpt lat="43.35953834610235" lon="11.411244528544538"><ele>260.0</ele><time>2026-03-28T11:19:04Z</time></trkpt><trkpt lat="43.3595214317123" lon="11.411141891929594"><ele>261.0</ele><time>2026-03-28T11:19:05Z</time></trkpt><trkpt lat="43.35948148120513" lon="11.41105740864673"><ele>262.0</ele><time>2026-03-28T11:19:06Z</time></trkpt><trkpt lat="43.35943857562418" lon="11.41098913244111"><ele>263.0</ele><time>2026-03-28T11:19:07Z</time></trkpt><trkpt lat="43.359313309136176" lon="11.410905757753776"><ele>264.0</ele><time>2026-03-28T11:19:09Z</time></trkpt><trkpt lat="43.359228552952516" lon="11.410886694845955"><ele>264.0</ele><time>2026-03-28T11:19:10Z</time></trkpt><trkpt lat="43.35914936254704" lon="11.410943828766841"><ele>264.0</ele><time>2026-03-28T11:19:11Z</time></trkpt><trkpt lat="43.359081448092994" lon="11.411017484650834"><ele>264.0</ele><time>2026-03-28T11:19:12Z</time></trkpt><trkpt lat="43.359033733774545" lon="11.411113737737907"><ele>264.0</ele><time>2026-03-28T11:19:13Z</time></trkpt><trkpt lat="43.35899898111668" lon="11.411231551708338"><ele>264.0</ele><time>2026-03-28T11:19:14Z</time></trkpt><trkpt lat="43.35897806287976" lon="11.411381093694526"><ele>262.8</ele><time>2026-03-28T11:19:15Z</time></trkpt><trkpt lat="43.358965951238126" lon="11.41153996253021"><ele>261.59999999999997</ele><time>2026-03-28T11:19:16Z</time></trkpt><trkpt lat="43.35896731380367" lon="11.411684018035096"><ele>260.4</ele><time>2026-03-28T11:19:17Z</time></trkpt><trkpt lat="43.35896849792401" lon="11.411817984582015"><ele>259.2</ele><time>2026-03-28T11:19:18Z</time></trkpt><trkpt lat="43.35897476112586" lon="11.411942823111623"><ele>258.0</ele><time>2026-03-28T11:19:19Z</time></trkpt><trkpt lat="43.35896666560818" lon="11.412062530427477"><ele>256.5</ele><time>2026-03-28T11:19:20Z</time></trkpt><trkpt lat="43.35893977211448" lon="11.412166799575347"><ele>255.0</ele><time>2026-03-28T11:19:21Z</time></trkpt><trkpt lat="43.358887357929746" lon="11.412252085279698"><ele>253.5</ele><time>2026-03-28T11:19:22Z</time></trkpt><trkpt lat="43.35880351713672" lon="11.412282362114578"><ele>252.0</ele><time>2026-03-28T11:19:23Z</time></trkpt><trkpt lat="43.35872833848091" lon="11.412334753812148"><ele>250.5</ele><time>2026-03-28T11:19:24Z</time></trkpt><trkpt lat="43.35863270932767" lon="11.412383163624826"><ele>249.0</ele><time>2026-03-28T11:19:25Z</time></trkpt><trkpt lat="43.35852721366871" lon="11.412405682062229"><ele>248.6</ele><time>2026-03-28T11:19:26Z</time></trkpt><trkpt lat="43.3584275234303" lon="11.412416520575833"><ele>248.2</ele><time>2026-03-28T11:19:27Z</time></trkpt><trkpt lat="43.35832735682372" lon="11.4124221961927"><ele>247.79999999999998</ele><time>2026-03-28T11:19:28Z</time></trkpt><trkpt lat="43.358227857473416" lon="11.412445597638444"><ele>247.39999999999998</ele><time>2026-03-28T11:19:29Z</time></trkpt><trkpt lat="43.35812768685576" lon="11.412414897035106"><ele>247.0</ele><time>2026-03-28T11:19:30Z</time></trkpt><trkpt lat="43.35800964915074" lon="11.412394677080394"><ele>246.0</ele><time>2026-03-28T11:19:31Z</time></trkpt><trkpt lat="43.35790569701671" lon="11.412357224919075"><ele>245.0</ele><time>2026-03-28T11:19:32Z</time></trkpt><trkpt lat="43.357816911578425" lon="11.41230790434792"><ele>244.0</ele><time>2026-03-28T11:19:33Z</time></trkpt><trkpt lat="43.3577363178565" lon="11.412269729831008"><ele>243.0</ele><time>2026-03-28T11:19:34Z</time></trkpt><trkpt lat="43.35764509548309" lon="11.412278779975082"><ele>242.0</ele><time>2026-03-28T11:19:35Z</time></trkpt><trkpt lat="43.357546456728464" lon="11.412283646053519"><ele>242.0</ele><time>2026-03-28T11:19:36Z</time></trkpt><trkpt lat="43.35745858328793" lon="11.412288260487777"><ele>242.0</ele><time>2026-03-28T11:19:37Z</time></trkpt><trkpt lat="43.35737349649753" lon="11.412349507729104"><ele>242.0</ele><time>2026-03-28T11:19:38Z</time></trkpt><trkpt lat="43.35728467675554" lon="11.41238380348091"><ele>242.0</ele><time>2026-03-28T11:19:39Z</time></trkpt><trkpt lat="43.35720902830839" lon="11.412463353928333"><ele>242.0</ele><time>2026-03-28T11:19:40Z</time></trkpt><trkpt lat="43.3571428909139" lon="11.412556242127831"><ele>240.75</ele><time>2026-03-28T11:19:41Z</time></trkpt><trkpt lat="43.35707791405132" lon="11.412680322492584"><ele>239.5</ele><time>2026-03-28T11:19:42Z</time></trkpt><trkpt lat="43.357016351911646" lon="11.41284162073527"><ele>238.25</ele><time>2026-03-28T11:19:43Z</time></trkpt><trkpt lat="43.35695256697995" lon="11.413032651448606"><ele>237.0</ele><time>2026-03-28T11:19:44Z</time></trkpt><trkpt lat="43.356889693729855" lon="11.413231078402813"><ele>236.25</ele><time>2026-03-28T11:19:45Z</time></trkpt><trkpt lat="43.356831321515536" lon="11.413421716375526"><ele>235.5</ele><time>2026-03-28T11:19:46Z</time></trkpt><trkpt lat="43.35679333038108" lon="11.413608847920074"><ele>234.75</ele><time>2026-03-28T11:19:47Z</time></trkpt><trkpt lat="43.3567473151934" lon="11.413774222563534"><ele>234.0</ele><time>2026-03-28T11:19:48Z</time></trkpt><trkpt lat="43.35669891608127" lon="11.413940142953583"><ele>233.25</ele><time>2026-03-28T11:19:49Z</time></trkpt><trkpt lat="43.35664767596716" lon="11.414109233130498"><ele>232.5</ele><time>2026-03-28T11:19:50Z</time></trkpt><trkpt lat="43.35660795823375" lon="11.414272434985318"><ele>231.75</ele><time>2026-03-28T11:19:51Z</time></trkpt><trkpt lat="43.35656912346898" lon="11.414419816925523"><ele>231.0</ele><time>2026-03-28T11:19:52Z</time></trkpt><trkpt lat="43.356531829234406" lon="11.414565043021032"><ele>230.20000000000002</ele><time>2026-03-28T11:19:53Z</time></trkpt><trkpt lat="43.356496403438136" lon="11.414716813740782"><ele>229.40000000000003</ele><time>2026-03-28T11:19:54Z</time></trkpt><trkpt lat="43.35646367404959" lon="11.41486372746827"><ele>228.6</ele><time>2026-03-28T11:19:55Z</time></trkpt><trkpt lat="43.35643105620727" lon="11.41501282607051"><ele>227.8</ele><time>2026-03-28T11:19:56Z</time></trkpt><trkpt lat="43.356401107366985" lon="11.41515542052121"><ele>227.0</ele><time>2026-03-28T11:19:57Z</time></trkpt><trkpt lat="43.35637778305045" lon="11.415278825252237"><ele>228.0</ele><time>2026-03-28T11:19:58Z</time></trkpt><trkpt lat="43.35635635613794" lon="11.415393472388798"><ele>229.0</ele><time>2026-03-28T11:19:59Z</time></trkpt><trkpt lat="43.358227857473416" lon="11.412445597638444"><ele>231.6</ele><time>2026-03-28T11:19:29Z</time></trkpt><trkpt lat="43.35812768685576" lon="11.412414897035106"><ele>234.2</ele><time>2026-03-28T11:19:30Z</time></trkpt><trkpt lat="43.35800964915074" lon="11.412394677080394"><ele>236.79999999999998</ele><time>2026-03-28T11:19:31Z</time></trkpt><trkpt lat="43.35790569701671" lon="11.412357224919075"><ele>239.39999999999998</ele><time>2026-03-28T11:19:32Z</time></trkpt><trkpt lat="43.357816911578425" lon="11.41230790434792"><ele>242.0</ele><time>2026-03-28T11:19:33Z</time></trkpt><trkpt lat="43.3577363178565" lon="11.412269729831008"><ele>242.0</ele><time>2026-03-28T11:19:34Z</time></trkpt><trkpt lat="43.35764509548309" lon="11.412278779975082"><ele>242.0</ele><time>2026-03-28T11:19:35Z</time></trkpt><trkpt lat="43.357546456728464" lon="11.412283646053519"><ele>242.0</ele><time>2026-03-28T11:19:36Z</time></trkpt><trkpt lat="43.35745858328793" lon="11.412288260487777"><ele>242.0</ele><time>2026-03-28T11:19:37Z</time></trkpt><trkpt lat="43.35737349649753" lon="11.412349507729104"><ele>242.0</ele><time>2026-03-28T11:19:38Z</time></trkpt><trkpt lat="43.35728467675554" lon="11.41238380348091"><ele>242.0</ele><time>2026-03-28T11:19:39Z</time></trkpt><trkpt lat="43.35720902830839" lon="11.412463353928333"><ele>242.0</ele><time>2026-03-28T11:19:40Z</time></trkpt><trkpt lat="43.3571428909139" lon="11.412556242127831"><ele>242.0</ele><time>2026-03-28T11:19:41Z</time></trkpt><trkpt lat="43.35707791405132" lon="11.412680322492584"><ele>242.0</ele><time>2026-03-28T11:19:42Z</time></trkpt><trkpt lat="43.357016351911646" lon="11.41284162073527"><ele>242.0</ele><time>2026-03-28T11:19:43Z</time></trkpt><trkpt lat="43.35695256697995" lon="11.413032651448606"><ele>240.0</ele><time>2026-03-28T11:19:44Z</time></trkpt><trkpt lat="43.356889693729855" lon="11.413231078402813"><ele>238.0</ele><time>2026-03-28T11:19:45Z</time></trkpt><trkpt lat="43.356831321515536" lon="11.413421716375526"><ele>236.0</ele><time>2026-03-28T11:19:46Z</time></trkpt><trkpt lat="43.35679333038108" lon="11.413608847920074"><ele>234.0</ele><time>2026-03-28T11:19:47Z</time></trkpt><trkpt lat="43.3567473151934" lon="11.413774222563534"><ele>233.25</ele><time>2026-03-28T11:19:48Z</time></trkpt><trkpt lat="43.35669891608127" lon="11.413940142953583"><ele>232.5</ele><time>2026-03-28T11:19:49Z</time></trkpt><trkpt lat="43.35664767596716" lon="11.414109233130498"><ele>231.75</ele><time>2026-03-28T11:19:50Z</time></trkpt><trkpt lat="43.35660795823375" lon="11.414272434985318"><ele>231.0</ele><time>2026-03-28T11:19:51Z</time></trkpt><trkpt lat="43.35656912346898" lon="11.414419816925523"><ele>231.0</ele><time>2026-03-28T11:19:52Z</time></trkpt><trkpt lat="43.356531829234406" lon="11.414565043021032"><ele>231.0</ele><time>2026-03-28T11:19:53Z</time></trkpt><trkpt lat="43.356496403438136" lon="11.414716813740782"><ele>231.0</ele><time>2026-03-28T11:19:54Z</time></trkpt><trkpt lat="43.35646367404959" lon="11.41486372746827"><ele>231.0</ele><time>2026-03-28T11:19:55Z</time></trkpt><trkpt lat="43.35643105620727" lon="11.41501282607051"><ele>230.60000000000002</ele><time>2026-03-28T11:19:56Z</time></trkpt><trkpt lat="43.356401107366985" lon="11.41515542052121"><ele>230.20000000000002</ele><time>2026-03-28T11:19:57Z</time></trkpt><trkpt lat="43.35637778305045" lon="11.415278825252237"><ele>229.79999999999998</ele><time>2026-03-28T11:19:58Z</time></trkpt><trkpt lat="43.35635635613794" lon="11.415393472388798"><ele>229.39999999999998</ele><time>2026-03-28T11:19:59Z</time></trkpt><trkpt lat="43.3563390841453" lon="11.415498927451882"><ele>229.0</ele><time>2026-03-28T11:20:00Z</time></trkpt><trkpt lat="43.356313120068606" lon="11.415655553611634"><ele>227.6</ele><time>2026-03-28T11:20:02Z</time></trkpt><trkpt lat="43.356280429070324" lon="11.41576084350185"><ele>226.2</ele><time>2026-03-28T11:20:04Z</time></trkpt><trkpt lat="43.356162075013145" lon="11.41584323831462"><ele>224.79999999999998</ele><time>2026-03-28T11:20:07Z</time></trkpt><trkpt lat="43.35607961407359" lon="11.415857504098124"><ele>223.39999999999998</ele><time>2026-03-28T11:20:08Z</time></trkpt><trkpt lat="43.35596721296707" lon="11.415908699435565"><ele>222.0</ele><time>2026-03-28T11:20:09Z</time></trkpt><trkpt lat="43.355842708935015" lon="11.415992903886767"><ele>222.0</ele><time>2026-03-28T11:20:10Z</time></trkpt><trkpt lat="43.35571389876521" lon="11.416083018673596"><ele>222.0</ele><time>2026-03-28T11:20:11Z</time></trkpt><trkpt lat="43.3556016256596" lon="11.416157608943932"><ele>222.0</ele><time>2026-03-28T11:20:12Z</time></trkpt><trkpt lat="43.355496984174714" lon="11.416215370460025"><ele>222.0</ele><time>2026-03-28T11:20:13Z</time></trkpt><trkpt lat="43.3553967714953" lon="11.41624947588355"><ele>223.25</ele><time>2026-03-28T11:20:14Z</time></trkpt><trkpt lat="43.35530033461506" lon="11.416236381305314"><ele>224.5</ele><time>2026-03-28T11:20:15Z</time></trkpt><trkpt lat="43.35518417334084" lon="11.416226988999965"><ele>225.75</ele><time>2026-03-28T11:20:16Z</time></trkpt><trkpt lat="43.35505623057546" lon="11.416226837699863"><ele>227.0</ele><time>2026-03-28T11:20:17Z</time></trkpt><trkpt lat="43.35491738293803" lon="11.416206311764297"><ele>227.0</ele><time>2026-03-28T11:20:18Z</time></trkpt><trkpt lat="43.35477420662828" lon="11.416188911581827"><ele>227.0</ele><time>2026-03-28T11:20:19Z</time></trkpt><trkpt lat="43.35462828526012" lon="11.416166591219687"><ele>227.0</ele><time>2026-03-28T11:20:20Z</time></trkpt><trkpt lat="43.354473110667364" lon="11.416143934803408"><ele>227.0</ele><time>2026-03-28T11:20:21Z</time></trkpt><trkpt lat="43.35430520719468" lon="11.416124255119875"><ele>226.33333333333334</ele><time>2026-03-28T11:20:22Z</time></trkpt><trkpt lat="43.35413218301253" lon="11.416103167262419"><ele>225.66666666666669</ele><time>2026-03-28T11:20:23Z</time></trkpt><trkpt lat="43.35397446561997" lon="11.416083186704324"><ele>225.0</ele><time>2026-03-28T11:20:24Z</time></trkpt><trkpt lat="43.353816714196505" lon="11.416066983148522"><ele>224.33333333333331</ele><time>2026-03-28T11:20:25Z</time></trkpt><trkpt lat="43.35366254730865" lon="11.416038869101218"><ele>223.66666666666666</ele><time>2026-03-28T11:20:26Z</time></trkpt><trkpt lat="43.35350433610877" lon="11.415996655978114"><ele>223.0</ele><time>2026-03-28T11:20:27Z</time></trkpt><trkpt lat="43.35335464242885" lon="11.415951134075097"><ele>223.0</ele><time>2026-03-28T11:20:28Z</time></trkpt><trkpt lat="43.35320802047022" lon="11.415910417232498"><ele>223.0</ele><time>2026-03-28T11:20:29Z</time></trkpt><trkpt lat="43.353060421619816" lon="11.41587292395403"><ele>223.0</ele><time>2026-03-28T11:20:30Z</time></trkpt><trkpt lat="43.352924958996226" lon="11.415831863786693"><ele>223.0</ele><time>2026-03-28T11:20:31Z</time></trkpt><trkpt lat="43.35278796193519" lon="11.415793645938841"><ele>223.0</ele><time>2026-03-28T11:20:32Z</time></trkpt><trkpt lat="43.35264923582018" lon="11.415751317939336"><ele>223.0</ele><time>2026-03-28T11:20:33Z</time></trkpt><trkpt lat="43.35251193492504" lon="11.415710133752782"><ele>223.0</ele><time>2026-03-28T11:20:34Z</time></trkpt><trkpt lat="43.35236201192639" lon="11.415668923267114"><ele>223.0</ele><time>2026-03-28T11:20:35Z</time></trkpt><trkpt lat="43.352225711538594" lon="11.415614251733043"><ele>222.5</ele><time>2026-03-28T11:20:36Z</time></trkpt><trkpt lat="43.35209083850513" lon="11.415576040573473"><ele>222.0</ele><time>2026-03-28T11:20:37Z</time></trkpt><trkpt lat="43.35195438001336" lon="11.415567233386605"><ele>221.5</ele><time>2026-03-28T11:20:38Z</time></trkpt><trkpt lat="43.3518099991537" lon="11.41552419452032"><ele>221.0</ele><time>2026-03-28T11:20:39Z</time></trkpt><trkpt lat="43.35166380347733" lon="11.415483439693121"><ele>221.0</ele><time>2026-03-28T11:20:40Z</time></trkpt><trkpt lat="43.35150176751439" lon="11.415435371154317"><ele>221.0</ele><time>2026-03-28T11:20:41Z</time></trkpt><trkpt lat="43.35129791266481" lon="11.41536772992745"><ele>221.0</ele><time>2026-03-28T11:20:42Z</time></trkpt><trkpt lat="43.351075852431755" lon="11.415286374517532"><ele>220.66666666666669</ele><time>2026-03-28T11:20:43Z</time></trkpt><trkpt lat="43.350879972863105" lon="11.415230636472298"><ele>220.33333333333331</ele><time>2026-03-28T11:20:44Z</time></trkpt><trkpt lat="43.35069520481771" lon="11.41517839200102"><ele>220.0</ele><time>2026-03-28T11:20:45Z</time></trkpt><trkpt lat="43.35052635637236" lon="11.41513022167012"><ele>222.0</ele><time>2026-03-28T11:20:46Z</time></trkpt><trkpt lat="43.35036708830743" lon="11.415083995762732"><ele>224.0</ele><time>2026-03-28T11:20:47Z</time></trkpt><trkpt lat="43.35022018872657" lon="11.415045638058672"><ele>226.0</ele><time>2026-03-28T11:20:48Z</time></trkpt><trkpt lat="43.35009335759948" lon="11.414943370072427"><ele>226.0</ele><time>2026-03-28T11:20:49Z</time></trkpt><trkpt lat="43.349991822947" lon="11.414798408801321"><ele>226.0</ele><time>2026-03-28T11:20:50Z</time></trkpt><trkpt lat="43.349897456413046" lon="11.414612417125188"><ele>226.0</ele><time>2026-03-28T11:20:51Z</time></trkpt><trkpt lat="43.34979361441257" lon="11.414410130658494"><ele>226.33333333333331</ele><time>2026-03-28T11:20:52Z</time></trkpt><trkpt lat="43.34969029379442" lon="11.414219399611623"><ele>226.66666666666669</ele><time>2026-03-28T11:20:53Z</time></trkpt><trkpt lat="43.34960541060417" lon="11.414049957754274"><ele>227.0</ele><time>2026-03-28T11:20:54Z</time></trkpt><trkpt lat="43.349523500036845" lon="11.413855153509793"><ele>227.0</ele><time>2026-03-28T11:20:55Z</time></trkpt><trkpt lat="43.34945779128807" lon="11.413666356935492"><ele>227.0</ele><time>2026-03-28T11:20:56Z</time></trkpt><trkpt lat="43.34939322682007" lon="11.413478093051118"><ele>227.0</ele><time>2026-03-28T11:20:57Z</time></trkpt><trkpt lat="43.34930058293574" lon="11.41325975606445"><ele>227.0</ele><time>2026-03-28T11:20:58Z</time></trkpt><trkpt lat="43.34916241380203" lon="11.413031157006944"><ele>227.0</ele><time>2026-03-28T11:20:59Z</time></trkpt><trkpt lat="43.349024629463415" lon="11.412839865754203"><ele>227.0</ele><time>2026-03-28T11:21:00Z</time></trkpt><trkpt lat="43.348908210791386" lon="11.412671847737235"><ele>228.66666666666669</ele><time>2026-03-28T11:21:01Z</time></trkpt><trkpt lat="43.348809527237044" lon="11.4124983140602"><ele>230.33333333333331</ele><time>2026-03-28T11:21:02Z</time></trkpt><trkpt lat="43.34871731411054" lon="11.412284754396596"><ele>232.0</ele><time>2026-03-28T11:21:03Z</time></trkpt><trkpt lat="43.34864005960793" lon="11.412050709631306"><ele>232.0</ele><time>2026-03-28T11:21:04Z</time></trkpt><trkpt lat="43.34857848617283" lon="11.411824391754218"><ele>232.0</ele><time>2026-03-28T11:21:05Z</time></trkpt><trkpt lat="43.34854875901673" lon="11.41157954931414"><ele>232.0</ele><time>2026-03-28T11:21:06Z</time></trkpt><trkpt lat="43.34853091698751" lon="11.411291046806989"><ele>234.0</ele><time>2026-03-28T11:21:07Z</time></trkpt><trkpt lat="43.34851152780857" lon="11.411019435620249"><ele>236.0</ele><time>2026-03-28T11:21:08Z</time></trkpt><trkpt lat="43.34847806456711" lon="11.410749746296279"><ele>238.0</ele><time>2026-03-28T11:21:09Z</time></trkpt><trkpt lat="43.34841766765682" lon="11.410442096780798"><ele>239.0</ele><time>2026-03-28T11:21:10Z</time></trkpt><trkpt lat="43.348339102755006" lon="11.41011758282029"><ele>240.0</ele><time>2026-03-28T11:21:11Z</time></trkpt><trkpt lat="43.348262148018094" lon="11.409816507081574"><ele>240.0</ele><time>2026-03-28T11:21:12Z</time></trkpt><trkpt lat="43.34819536862296" lon="11.409555528025766"><ele>240.0</ele><time>2026-03-28T11:21:13Z</time></trkpt><trkpt lat="43.348134835844746" lon="11.409315291828038"><ele>240.0</ele><time>2026-03-28T11:21:14Z</time></trkpt><trkpt lat="43.34808520200863" lon="11.409083283065257"><ele>240.0</ele><time>2026-03-28T11:21:15Z</time></trkpt><trkpt lat="43.34805284508636" lon="11.408830501211327"><ele>240.0</ele><time>2026-03-28T11:21:16Z</time></trkpt><trkpt lat="43.348038645493375" lon="11.40854722376077"><ele>240.0</ele><time>2026-03-28T11:21:17Z</time></trkpt><trkpt lat="43.34801473194189" lon="11.408234916063238"><ele>255.0</ele><time>2026-03-28T11:21:18Z</time></trkpt><trkpt lat="43.34801962236875" lon="11.40790483378079"><ele>270.0</ele><time>2026-03-28T11:21:19Z</time></trkpt><trkpt lat="43.34803429663608" lon="11.407589669560341"><ele>263.0</ele><time>2026-03-28T11:21:20Z</time></trkpt><trkpt lat="43.348051649020455" lon="11.407288900838633"><ele>256.0</ele><time>2026-03-28T11:21:21Z</time></trkpt><trkpt lat="43.34806658277114" lon="11.407021621773872"><ele>249.0</ele><time>2026-03-28T11:21:22Z</time></trkpt><trkpt lat="43.34808552492972" lon="11.40677475128973"><ele>249.0</ele><time>2026-03-28T11:21:23Z</time></trkpt><trkpt lat="43.34811468889394" lon="11.406546949887145"><ele>249.0</ele><time>2026-03-28T11:21:24Z</time></trkpt><trkpt lat="43.348164846041506" lon="11.406299425108571"><ele>249.0</ele><time>2026-03-28T11:21:25Z</time></trkpt><trkpt lat="43.34823647957666" lon="11.406049659154574"><ele>251.33333333333331</ele><time>2026-03-28T11:21:26Z</time></trkpt><trkpt lat="43.34830997891853" lon="11.405822120497227"><ele>253.66666666666666</ele><time>2026-03-28T11:21:27Z</time></trkpt><trkpt lat="43.34837430215888" lon="11.4055848680435"><ele>256.0</ele><time>2026-03-28T11:21:28Z</time></trkpt><trkpt lat="43.34842509070679" lon="11.405306562492214"><ele>259.66666666666663</ele><time>2026-03-28T11:21:29Z</time></trkpt><trkpt lat="43.34845363218311" lon="11.40502122930508"><ele>263.3333333333333</ele><time>2026-03-28T11:21:30Z</time></trkpt><trkpt lat="43.348482747604315" lon="11.40473771071459"><ele>267.0</ele><time>2026-03-28T11:21:31Z</time></trkpt><trkpt lat="43.34853506317983" lon="11.404508380630546"><ele>267.6666666666667</ele><time>2026-03-28T11:21:32Z</time></trkpt><trkpt lat="43.348609609247774" lon="11.404304262264985"><ele>268.33333333333337</ele><time>2026-03-28T11:21:33Z</time></trkpt><trkpt lat="43.348720953775974" lon="11.404107319684014"><ele>269.0</ele><time>2026-03-28T11:21:34Z</time></trkpt><trkpt lat="43.34884211740275" lon="11.403949055822121"><ele>270.0</ele><time>2026-03-28T11:21:35Z</time></trkpt><trkpt lat="43.34894370923829" lon="11.40380043023069"><ele>271.0</ele><time>2026-03-28T11:21:36Z</time></trkpt><trkpt lat="43.34902982000052" lon="11.403617946921424"><ele>272.0</ele><time>2026-03-28T11:21:37Z</time></trkpt><trkpt lat="43.34909110779095" lon="11.403404211666654"><ele>272.0</ele><time>2026-03-28T11:21:38Z</time></trkpt><trkpt lat="43.34911547451562" lon="11.403172472233305"><ele>272.0</ele><time>2026-03-28T11:21:39Z</time></trkpt><trkpt lat="43.34915172389269" lon="11.402909398988767"><ele>272.0</ele><time>2026-03-28T11:21:40Z</time></trkpt><trkpt lat="43.349173914041536" lon="11.402633589405403"><ele>274.33333333333337</ele><time>2026-03-28T11:21:41Z</time></trkpt><trkpt lat="43.349195488237385" lon="11.402384939065897"><ele>276.6666666666667</ele><time>2026-03-28T11:21:42Z</time></trkpt><trkpt lat="43.34921809375771" lon="11.40216805223785"><ele>279.0</ele><time>2026-03-28T11:21:43Z</time></trkpt><trkpt lat="43.349247119326286" lon="11.401977579370476"><ele>281.0</ele><time>2026-03-28T11:21:44Z</time></trkpt><trkpt lat="43.349296318721855" lon="11.401807604815737"><ele>283.0</ele><time>2026-03-28T11:21:45Z</time></trkpt><trkpt lat="43.34935548332508" lon="11.401658366496124"><ele>285.0</ele><time>2026-03-28T11:21:46Z</time></trkpt><trkpt lat="43.34946074112239" lon="11.401559680044853"><ele>287.0</ele><time>2026-03-28T11:21:47Z</time></trkpt><trkpt lat="43.34958392224226" lon="11.40152107683168"><ele>287.0</ele><time>2026-03-28T11:21:48Z</time></trkpt><trkpt lat="43.349701432806256" lon="11.401541139925026"><ele>287.0</ele><time>2026-03-28T11:21:49Z</time></trkpt><trkpt lat="43.349829787875315" lon="11.40160491868294"><ele>287.0</ele><time>2026-03-28T11:21:50Z</time></trkpt><trkpt lat="43.349942938564936" lon="11.401663001117969"><ele>287.0</ele><time>2026-03-28T11:21:51Z</time></trkpt><trkpt lat="43.35003891919133" lon="11.401671699618163"><ele>286.0</ele><time>2026-03-28T11:21:52Z</time></trkpt><trkpt lat="43.350134483064934" lon="11.401623350294512"><ele>285.0</ele><time>2026-03-28T11:21:53Z</time></trkpt><trkpt lat="43.35021547918506" lon="11.401518585087052"><ele>284.0</ele><time>2026-03-28T11:21:54Z</time></trkpt><trkpt lat="43.35025989480417" lon="11.401390756445966"><ele>283.0</ele><time>2026-03-28T11:21:55Z</time></trkpt><trkpt lat="43.35023828808936" lon="11.401222921488497"><ele>282.0</ele><time>2026-03-28T11:21:56Z</time></trkpt><trkpt lat="43.35013747887456" lon="11.401086506662413"><ele>285.3333333333333</ele><time>2026-03-28T11:21:57Z</time></trkpt><trkpt lat="43.35001853689087" lon="11.400932874541283"><ele>288.66666666666663</ele><time>2026-03-28T11:21:58Z</time></trkpt><trkpt lat="43.34989605461434" lon="11.400763474058806"><ele>292.0</ele><time>2026-03-28T11:21:59Z</time></trkpt><trkpt lat="43.34977204610326" lon="11.400688378322753"><ele>292.5</ele><time>2026-03-28T11:22:00Z</time></trkpt><trkpt lat="43.34965877461623" lon="11.400638769163022"><ele>293.0</ele><time>2026-03-28T11:22:01Z</time></trkpt><trkpt lat="43.34953029750935" lon="11.400625300874205"><ele>293.5</ele><time>2026-03-28T11:22:02Z</time></trkpt><trkpt lat="43.349386902977805" lon="11.400670981233162"><ele>294.0</ele><time>2026-03-28T11:22:03Z</time></trkpt><trkpt lat="43.34922479411535" lon="11.400775488159786"><ele>294.0</ele><time>2026-03-28T11:22:04Z</time></trkpt><trkpt lat="43.349055410949994" lon="11.400878897155113"><ele>294.0</ele><time>2026-03-28T11:22:05Z</time></trkpt><trkpt lat="43.34891910175782" lon="11.400963180451114"><ele>294.0</ele><time>2026-03-28T11:22:06Z</time></trkpt><trkpt lat="43.34880212012431" lon="11.401043232247362"><ele>295.5</ele><time>2026-03-28T11:22:07Z</time></trkpt><trkpt lat="43.34869096478794" lon="11.40105868347364"><ele>297.0</ele><time>2026-03-28T11:22:08Z</time></trkpt><trkpt lat="43.34858751478524" lon="11.401029307113268"><ele>298.5</ele><time>2026-03-28T11:22:09Z</time></trkpt><trkpt lat="43.34849684269252" lon="11.400938897003515"><ele>300.0</ele><time>2026-03-28T11:22:10Z</time></trkpt><trkpt lat="43.348384580419285" lon="11.400811005665881"><ele>300.0</ele><time>2026-03-28T11:22:11Z</time></trkpt><trkpt lat="43.34825536760142" lon="11.400659328761"><ele>300.0</ele><time>2026-03-28T11:22:12Z</time></trkpt><trkpt lat="43.34809694170197" lon="11.400496103725448"><ele>300.0</ele><time>2026-03-28T11:22:13Z</time></trkpt><trkpt lat="43.347949678311885" lon="11.400377263331645"><ele>301.75</ele><time>2026-03-28T11:22:14Z</time></trkpt><trkpt lat="43.347814236275056" lon="11.400294108785062"><ele>303.5</ele><time>2026-03-28T11:22:15Z</time></trkpt><trkpt lat="43.347691991632736" lon="11.40021953741805"><ele>305.25</ele><time>2026-03-28T11:22:16Z</time></trkpt><trkpt lat="43.347589061222905" lon="11.40014996667598"><ele>307.0</ele><time>2026-03-28T11:22:17Z</time></trkpt><trkpt lat="43.347503213284945" lon="11.400067398340063"><ele>307.0</ele><time>2026-03-28T11:22:18Z</time></trkpt><trkpt lat="43.34745260111119" lon="11.399944535564543"><ele>307.0</ele><time>2026-03-28T11:22:19Z</time></trkpt><trkpt lat="43.347417496704" lon="11.399817779807968"><ele>307.0</ele><time>2026-03-28T11:22:20Z</time></trkpt><trkpt lat="43.34741977168142" lon="11.399687297662522"><ele>307.0</ele><time>2026-03-28T11:22:21Z</time></trkpt><trkpt lat="43.34746045769204" lon="11.39956612534824"><ele>307.0</ele><time>2026-03-28T11:22:22Z</time></trkpt><trkpt lat="43.34752552572298" lon="11.399456054855815"><ele>307.25</ele><time>2026-03-28T11:22:23Z</time></trkpt><trkpt lat="43.34758950391618" lon="11.399351176630708"><ele>307.5</ele><time>2026-03-28T11:22:24Z</time></trkpt><trkpt lat="43.34769618855035" lon="11.399267067403716"><ele>307.75</ele><time>2026-03-28T11:22:25Z</time></trkpt><trkpt lat="43.34782176612236" lon="11.399177458249532"><ele>308.0</ele><time>2026-03-28T11:22:26Z</time></trkpt><trkpt lat="43.34794597979154" lon="11.399109346031578"><ele>308.4</ele><time>2026-03-28T11:22:27Z</time></trkpt><trkpt lat="43.348078731253864" lon="11.399062831544448"><ele>308.8</ele><time>2026-03-28T11:22:28Z</time></trkpt><trkpt lat="43.34819380844103" lon="11.399034320893175"><ele>309.2</ele><time>2026-03-28T11:22:29Z</time></trkpt><trkpt lat="43.34828687022997" lon="11.399019148121413"><ele>309.6</ele><time>2026-03-28T11:22:30Z</time></trkpt><trkpt lat="43.348359360700705" lon="11.399009932717362"><ele>310.0</ele><time>2026-03-28T11:22:31Z</time></trkpt><trkpt lat="43.34842270503363" lon="11.398977909169622"><ele>309.0</ele><time>2026-03-28T11:22:34Z</time></trkpt><trkpt lat="43.34838406359279" lon="11.398817016828149"><ele>308.0</ele><time>2026-03-28T11:22:35Z</time></trkpt><trkpt lat="43.34835844819906" lon="11.398714530671668"><ele>307.0</ele><time>2026-03-28T11:22:36Z</time></trkpt><trkpt lat="43.348320043124936" lon="11.39863362967729"><ele>306.0</ele><time>2026-03-28T11:22:37Z</time></trkpt><trkpt lat="43.34825447926307" lon="11.398532375981027"><ele>305.0</ele><time>2026-03-28T11:22:39Z</time></trkpt><trkpt lat="43.348184370039604" lon="11.398471272061363"><ele>305.0</ele><time>2026-03-28T11:22:41Z</time></trkpt><trkpt lat="43.34810322791629" lon="11.398456640399582"><ele>305.0</ele><time>2026-03-28T11:22:43Z</time></trkpt><trkpt lat="43.34802541807822" lon="11.398473229953634"><ele>305.0</ele><time>2026-03-28T11:22:45Z</time></trkpt><trkpt lat="43.347954250983406" lon="11.398521180272335"><ele>305.0</ele><time>2026-03-28T11:22:46Z</time></trkpt><trkpt lat="43.34785971327995" lon="11.398573250195364"><ele>305.0</ele><time>2026-03-28T11:22:47Z</time></trkpt><trkpt lat="43.34773049823451" lon="11.398633927256654"><ele>303.0</ele><time>2026-03-28T11:22:48Z</time></trkpt><trkpt lat="43.347563256333764" lon="11.398650610009561"><ele>301.0</ele><time>2026-03-28T11:22:49Z</time></trkpt><trkpt lat="43.34738665373312" lon="11.398678454643889"><ele>299.0</ele><time>2026-03-28T11:22:50Z</time></trkpt><trkpt lat="43.34722837555786" lon="11.39870565758539"><ele>299.75</ele><time>2026-03-28T11:22:51Z</time></trkpt><trkpt lat="43.34708517809268" lon="11.398751286552976"><ele>300.5</ele><time>2026-03-28T11:22:52Z</time></trkpt><trkpt lat="43.34697755326601" lon="11.398780008250009"><ele>301.25</ele><time>2026-03-28T11:22:53Z</time></trkpt><trkpt lat="43.34687114250774" lon="11.39882384286635"><ele>302.0</ele><time>2026-03-28T11:22:54Z</time></trkpt><trkpt lat="43.34678184046152" lon="11.398901907779111"><ele>302.0</ele><time>2026-03-28T11:22:55Z</time></trkpt><trkpt lat="43.346690235723464" lon="11.399011000897605"><ele>302.0</ele><time>2026-03-28T11:22:56Z</time></trkpt><trkpt lat="43.34658540146846" lon="11.399184575509452"><ele>302.0</ele><time>2026-03-28T11:22:57Z</time></trkpt><trkpt lat="43.34649199180073" lon="11.399339468144353"><ele>302.0</ele><time>2026-03-28T11:22:58Z</time></trkpt><trkpt lat="43.3464003738397" lon="11.399479567432664"><ele>301.25</ele><time>2026-03-28T11:22:59Z</time></trkpt><trkpt lat="43.34632000369481" lon="11.39961572642513"><ele>300.5</ele><time>2026-03-28T11:23:00Z</time></trkpt><trkpt lat="43.34624006632019" lon="11.399746792222802"><ele>299.75</ele><time>2026-03-28T11:23:01Z</time></trkpt><trkpt lat="43.34616314725971" lon="11.399860035593589"><ele>299.0</ele><time>2026-03-28T11:23:02Z</time></trkpt><trkpt lat="43.34609556819373" lon="11.399965216588617"><ele>299.0</ele><time>2026-03-28T11:23:03Z</time></trkpt><trkpt lat="43.34602877044339" lon="11.40007219359378"><ele>299.0</ele><time>2026-03-28T11:23:04Z</time></trkpt><trkpt lat="43.34595275744948" lon="11.40018208428241"><ele>299.0</ele><time>2026-03-28T11:23:05Z</time></trkpt><trkpt lat="43.34587373820672" lon="11.400295453238225"><ele>299.0</ele><time>2026-03-28T11:23:06Z</time></trkpt><trkpt lat="43.345804844498" lon="11.400395302232194"><ele>299.0</ele><time>2026-03-28T11:23:07Z</time></trkpt><trkpt lat="43.34572887782293" lon="11.40050134758056"><ele>299.0</ele><time>2026-03-28T11:23:08Z</time></trkpt><trkpt lat="43.34566046148754" lon="11.400592335303697"><ele>299.0</ele><time>2026-03-28T11:23:09Z</time></trkpt><trkpt lat="43.345596380164594" lon="11.400685533613078"><ele>299.0</ele><time>2026-03-28T11:23:10Z</time></trkpt><trkpt lat="43.34553988583131" lon="11.400781977944625"><ele>299.0</ele><time>2026-03-28T11:23:11Z</time></trkpt><trkpt lat="43.34548367853452" lon="11.400865694112927"><ele>299.0</ele><time>2026-03-28T11:23:12Z</time></trkpt><trkpt lat="43.34542469048871" lon="11.400953008388235"><ele>299.0</ele><time>2026-03-28T11:23:13Z</time></trkpt><trkpt lat="43.34536132720592" lon="11.40103640375816"><ele>299.0</ele><time>2026-03-28T11:23:14Z</time></trkpt><trkpt lat="43.34528507002773" lon="11.401107468597756"><ele>299.0</ele><time>2026-03-28T11:23:15Z</time></trkpt><trkpt lat="43.34518452518029" lon="11.401139218959944"><ele>299.0</ele><time>2026-03-28T11:23:16Z</time></trkpt><trkpt lat="43.345083031796605" lon="11.401201279332543"><ele>299.0</ele><time>2026-03-28T11:23:17Z</time></trkpt><trkpt lat="43.34499690711772" lon="11.401237628331453"><ele>299.0</ele><time>2026-03-28T11:23:18Z</time></trkpt><trkpt lat="43.34490289041114" lon="11.401253037834083"><ele>299.0</ele><time>2026-03-28T11:23:19Z</time></trkpt><trkpt lat="43.34480153439221" lon="11.401285633808868"><ele>299.0</ele><time>2026-03-28T11:23:20Z</time></trkpt><trkpt lat="43.34469407258112" lon="11.401304754676458"><ele>299.0</ele><time>2026-03-28T11:23:21Z</time></trkpt><trkpt lat="43.344576889080116" lon="11.401308910170238"><ele>299.0</ele><time>2026-03-28T11:23:22Z</time></trkpt><trkpt lat="43.344460150930296" lon="11.40130806414709"><ele>299.0</ele><time>2026-03-28T11:23:23Z</time></trkpt><trkpt lat="43.344355693973604" lon="11.40131721234712"><ele>297.8</ele><time>2026-03-28T11:23:24Z</time></trkpt><trkpt lat="43.34425069508671" lon="11.401348573726704"><ele>296.59999999999997</ele><time>2026-03-28T11:23:25Z</time></trkpt><trkpt lat="43.34414531945154" lon="11.401361146842847"><ele>295.4</ele><time>2026-03-28T11:23:26Z</time></trkpt><trkpt lat="43.34404056738362" lon="11.401394564604454"><ele>294.2</ele><time>2026-03-28T11:23:27Z</time></trkpt><trkpt lat="43.343934083353815" lon="11.401451228459264"><ele>293.0</ele><time>2026-03-28T11:23:28Z</time></trkpt><trkpt lat="43.3437979873988" lon="11.40152487956129"><ele>292.75</ele><time>2026-03-28T11:23:29Z</time></trkpt><trkpt lat="43.343675184004574" lon="11.401573005644206"><ele>292.5</ele><time>2026-03-28T11:23:30Z</time></trkpt><trkpt lat="43.34357544721496" lon="11.401656453724014"><ele>292.25</ele><time>2026-03-28T11:23:31Z</time></trkpt><trkpt lat="43.34347196242798" lon="11.401716192634412"><ele>292.0</ele><time>2026-03-28T11:23:32Z</time></trkpt><trkpt lat="43.343387432346674" lon="11.401783523651718"><ele>292.0</ele><time>2026-03-28T11:23:33Z</time></trkpt><trkpt lat="43.34331243737074" lon="11.40185775075151"><ele>292.0</ele><time>2026-03-28T11:23:34Z</time></trkpt><trkpt lat="43.343246763093134" lon="11.40194396360814"><ele>292.0</ele><time>2026-03-28T11:23:35Z</time></trkpt><trkpt lat="43.3431888804346" lon="11.402043199665723"><ele>292.0</ele><time>2026-03-28T11:23:36Z</time></trkpt><trkpt lat="43.343137939084045" lon="11.402145391712502"><ele>292.0</ele><time>2026-03-28T11:23:37.001Z</time></trkpt><trkpt lat="43.343095308655236" lon="11.40227267634823"><ele>291.4</ele><time>2026-03-28T11:23:38.001Z</time></trkpt><trkpt lat="43.343070823075955" lon="11.402407612634219"><ele>290.79999999999995</ele><time>2026-03-28T11:23:39.001Z</time></trkpt><trkpt lat="43.34305670568377" lon="11.40254481872614"><ele>290.2</ele><time>2026-03-28T11:23:40.001Z</time></trkpt><trkpt lat="43.34305028309647" lon="11.402668207440009"><ele>289.59999999999997</ele><time>2026-03-28T11:23:41.001Z</time></trkpt><trkpt lat="43.34304601681875" lon="11.402783471772889"><ele>289.0</ele><time>2026-03-28T11:23:42.001Z</time></trkpt><trkpt lat="43.34303181848464" lon="11.402913645220279"><ele>289.0</ele><time>2026-03-28T11:23:43.001Z</time></trkpt><trkpt lat="43.34300378436487" lon="11.403056446134622"><ele>289.0</ele><time>2026-03-28T11:23:44.001Z</time></trkpt><trkpt lat="43.34295602217766" lon="11.403178989721194"><ele>289.0</ele><time>2026-03-28T11:23:45.001Z</time></trkpt><trkpt lat="43.34287471380807" lon="11.403241948877788"><ele>289.0</ele><time>2026-03-28T11:23:46.001Z</time></trkpt><trkpt lat="43.34280511836329" lon="11.403323758880964"><ele>289.0</ele><time>2026-03-28T11:23:47.001Z</time></trkpt><trkpt lat="43.34269732481305" lon="11.403295394979532"><ele>289.0</ele><time>2026-03-28T11:23:48.001Z</time></trkpt><trkpt lat="43.34258859226064" lon="11.403310260830764"><ele>289.0</ele><time>2026-03-28T11:23:49.001Z</time></trkpt><trkpt lat="43.34249498968425" lon="11.40335418724258"><ele>289.0</ele><time>2026-03-28T11:23:50.001Z</time></trkpt><trkpt lat="43.34240900245769" lon="11.403380980387118"><ele>289.0</ele><time>2026-03-28T11:23:51.001Z</time></trkpt><trkpt lat="43.342320911726695" lon="11.403445602746835"><ele>289.0</ele><time>2026-03-28T11:23:52.001Z</time></trkpt><trkpt lat="43.34222475994641" lon="11.403515485731198"><ele>287.75</ele><time>2026-03-28T11:23:53.001Z</time></trkpt><trkpt lat="43.342137261434445" lon="11.403616066780636"><ele>286.5</ele><time>2026-03-28T11:23:54.001Z</time></trkpt><trkpt lat="43.34204746463494" lon="11.403744825661363"><ele>285.25</ele><time>2026-03-28T11:23:55Z</time></trkpt><trkpt lat="43.34194151872391" lon="11.403859791806127"><ele>284.0</ele><time>2026-03-28T11:23:56Z</time></trkpt><trkpt lat="43.341834170995845" lon="11.403979971701022"><ele>284.0</ele><time>2026-03-28T11:23:57Z</time></trkpt><trkpt lat="43.34173293446668" lon="11.404101504571221"><ele>284.0</ele><time>2026-03-28T11:23:58Z</time></trkpt><trkpt lat="43.34162817284293" lon="11.404224111043932"><ele>284.0</ele><time>2026-03-28T11:23:59Z</time></trkpt><trkpt lat="43.34153400491311" lon="11.404324920812073"><ele>284.0</ele><time>2026-03-28T11:24:00Z</time></trkpt><trkpt lat="43.341440913828414" lon="11.404431701765285"><ele>285.5</ele><time>2026-03-28T11:24:01Z</time></trkpt><trkpt lat="43.34135286463956" lon="11.404547807334689"><ele>287.0</ele><time>2026-03-28T11:24:02Z</time></trkpt><trkpt lat="43.34127249159727" lon="11.404674244511796"><ele>288.5</ele><time>2026-03-28T11:24:03Z</time></trkpt><trkpt lat="43.341179866608705" lon="11.404827070061788"><ele>290.0</ele><time>2026-03-28T11:24:04Z</time></trkpt><trkpt lat="43.341097673864795" lon="11.404970348943715"><ele>290.0</ele><time>2026-03-28T11:24:05Z</time></trkpt><trkpt lat="43.34100510646085" lon="11.405107126476434"><ele>290.0</ele><time>2026-03-28T11:24:06Z</time></trkpt><trkpt lat="43.34090823068883" lon="11.405229998450775"><ele>290.0</ele><time>2026-03-28T11:24:07Z</time></trkpt><trkpt lat="43.34079168466208" lon="11.405304359872948"><ele>290.0</ele><time>2026-03-28T11:24:08Z</time></trkpt><trkpt lat="43.34067330806757" lon="11.405390952698117"><ele>290.0</ele><time>2026-03-28T11:24:09Z</time></trkpt><trkpt lat="43.34053027932997" lon="11.405481281025521"><ele>290.0</ele><time>2026-03-28T11:24:10Z</time></trkpt><trkpt lat="43.34037563246039" lon="11.40557539199187"><ele>290.0</ele><time>2026-03-28T11:24:11Z</time></trkpt><trkpt lat="43.3402505942141" lon="11.40567435079219"><ele>290.0</ele><time>2026-03-28T11:24:12Z</time></trkpt><trkpt lat="43.34012434731062" lon="11.405745899904673"><ele>290.0</ele><time>2026-03-28T11:24:13Z</time></trkpt><trkpt lat="43.33999459859436" lon="11.405825027994917"><ele>290.0</ele><time>2026-03-28T11:24:14Z</time></trkpt><trkpt lat="43.33987013532685" lon="11.405904779840206"><ele>290.0</ele><time>2026-03-28T11:24:15Z</time></trkpt><trkpt lat="43.33976200391286" lon="11.405974010592736"><ele>289.4</ele><time>2026-03-28T11:24:16Z</time></trkpt><trkpt lat="43.33967399087309" lon="11.406033850375055"><ele>288.8</ele><time>2026-03-28T11:24:17Z</time></trkpt><trkpt lat="43.33961227487069" lon="11.406087355854066"><ele>288.2</ele><time>2026-03-28T11:24:18Z</time></trkpt><trkpt lat="43.339547051685535" lon="11.406171141481195"><ele>287.6</ele><time>2026-03-28T11:24:20Z</time></trkpt><trkpt lat="43.33949486894717" lon="11.406311151153718"><ele>287.0</ele><time>2026-03-28T11:24:23Z</time></trkpt><trkpt lat="43.33946433126225" lon="11.406407571427392"><ele>287.0</ele><time>2026-03-28T11:24:24Z</time></trkpt><trkpt lat="43.33942751922104" lon="11.406516459712599"><ele>287.0</ele><time>2026-03-28T11:24:25Z</time></trkpt><trkpt lat="43.33935458838151" lon="11.40662898072606"><ele>287.0</ele><time>2026-03-28T11:24:26Z</time></trkpt><trkpt lat="43.339273316607695" lon="11.406754673965091"><ele>287.0</ele><time>2026-03-28T11:24:27Z</time></trkpt><trkpt lat="43.33918249941997" lon="11.406857066241104"><ele>287.0</ele><time>2026-03-28T11:24:28Z</time></trkpt><trkpt lat="43.3390730721969" lon="11.406994973010407"><ele>287.0</ele><time>2026-03-28T11:24:29Z</time></trkpt><trkpt lat="43.338949383834304" lon="11.407123485994289"><ele>287.0</ele><time>2026-03-28T11:24:30Z</time></trkpt><trkpt lat="43.338833196906805" lon="11.407289094463412"><ele>287.0</ele><time>2026-03-28T11:24:31Z</time></trkpt><trkpt lat="43.338707611201315" lon="11.407418059464208"><ele>287.5</ele><time>2026-03-28T11:24:32Z</time></trkpt><trkpt lat="43.33859180930122" lon="11.4075272414664"><ele>288.0</ele><time>2026-03-28T11:24:33Z</time></trkpt><trkpt lat="43.338485766836065" lon="11.40761876479066"><ele>288.5</ele><time>2026-03-28T11:24:34Z</time></trkpt><trkpt lat="43.338380794164884" lon="11.407692883878969"><ele>289.0</ele><time>2026-03-28T11:24:35Z</time></trkpt><trkpt lat="43.338279977166366" lon="11.407752816573328"><ele>289.0</ele><time>2026-03-28T11:24:36Z</time></trkpt><trkpt lat="43.338192598000255" lon="11.407802222787765"><ele>289.0</ele><time>2026-03-28T11:24:37Z</time></trkpt><trkpt lat="43.33811132086571" lon="11.407825757014281"><ele>289.0</ele><time>2026-03-28T11:24:38Z</time></trkpt><trkpt lat="43.33803658032108" lon="11.407802309255933"><ele>289.0</ele><time>2026-03-28T11:24:39Z</time></trkpt><trkpt lat="43.33796334418469" lon="11.407720820796571"><ele>289.0</ele><time>2026-03-28T11:24:40Z</time></trkpt><trkpt lat="43.33787228585496" lon="11.407631851764865"><ele>289.5</ele><time>2026-03-28T11:24:41Z</time></trkpt><trkpt lat="43.33775420125897" lon="11.40751388767193"><ele>290.0</ele><time>2026-03-28T11:24:42Z</time></trkpt><trkpt lat="43.337635889406755" lon="11.4073972854256"><ele>290.5</ele><time>2026-03-28T11:24:43Z</time></trkpt><trkpt lat="43.33753362372218" lon="11.407298419007752"><ele>291.0</ele><time>2026-03-28T11:24:44Z</time></trkpt><trkpt lat="43.33743033607068" lon="11.407203623236823"><ele>290.75</ele><time>2026-03-28T11:24:45Z</time></trkpt><trkpt lat="43.33732270303418" lon="11.40713290728167"><ele>290.5</ele><time>2026-03-28T11:24:46Z</time></trkpt><trkpt lat="43.33722543844568" lon="11.407050940844302"><ele>290.25</ele><time>2026-03-28T11:24:47Z</time></trkpt><trkpt lat="43.33711783403909" lon="11.4069762539305"><ele>290.0</ele><time>2026-03-28T11:24:48Z</time></trkpt><trkpt lat="43.33698598515714" lon="11.406909809339018"><ele>290.5</ele><time>2026-03-28T11:24:49Z</time></trkpt><trkpt lat="43.336854813816025" lon="11.406852988232666"><ele>291.0</ele><time>2026-03-28T11:24:50Z</time></trkpt><trkpt lat="43.33673186826822" lon="11.406792713191692"><ele>291.5</ele><time>2026-03-28T11:24:51Z</time></trkpt><trkpt lat="43.33660731134824" lon="11.406740107040816"><ele>292.0</ele><time>2026-03-28T11:24:52Z</time></trkpt><trkpt lat="43.336488096123894" lon="11.406698689529737"><ele>292.0</ele><time>2026-03-28T11:24:53Z</time></trkpt><trkpt lat="43.33638650134999" lon="11.406648777521635"><ele>292.0</ele><time>2026-03-28T11:24:54Z</time></trkpt><trkpt lat="43.336285319008816" lon="11.406629691257352"><ele>292.0</ele><time>2026-03-28T11:24:55Z</time></trkpt><trkpt lat="43.33618925372535" lon="11.406630886352897"><ele>292.0</ele><time>2026-03-28T11:24:56Z</time></trkpt><trkpt lat="43.33609753184684" lon="11.406660854898666"><ele>292.0</ele><time>2026-03-28T11:24:57Z</time></trkpt><trkpt lat="43.336011603144165" lon="11.406715785945499"><ele>293.75</ele><time>2026-03-28T11:24:58Z</time></trkpt><trkpt lat="43.335918976651534" lon="11.406797436321236"><ele>295.5</ele><time>2026-03-28T11:24:59Z</time></trkpt><trkpt lat="43.335820109789" lon="11.406910847437215"><ele>297.25</ele><time>2026-03-28T11:25:00Z</time></trkpt><trkpt lat="43.33572424683205" lon="11.407028343804928"><ele>299.0</ele><time>2026-03-28T11:25:01Z</time></trkpt><trkpt lat="43.33562436758659" lon="11.407135941402093"><ele>298.59999999999997</ele><time>2026-03-28T11:25:02Z</time></trkpt><trkpt lat="43.33551063115498" lon="11.407229441290228"><ele>298.2</ele><time>2026-03-28T11:25:03Z</time></trkpt><trkpt lat="43.33544777411409" lon="11.407319928452482"><ele>297.79999999999995</ele><time>2026-03-28T11:25:04Z</time></trkpt><trkpt lat="43.33536857116466" lon="11.407369937768186"><ele>297.4</ele><time>2026-03-28T11:25:05Z</time></trkpt><trkpt lat="43.335279712258426" lon="11.40739218391988"><ele>297.0</ele><time>2026-03-28T11:25:06Z</time></trkpt><trkpt lat="43.33517506899726" lon="11.407365034212418"><ele>297.0</ele><time>2026-03-28T11:25:07Z</time></trkpt><trkpt lat="43.33506109324991" lon="11.407392964391022"><ele>297.0</ele><time>2026-03-28T11:25:08Z</time></trkpt><trkpt lat="43.33493589578819" lon="11.407421338763863"><ele>297.0</ele><time>2026-03-28T11:25:09Z</time></trkpt><trkpt lat="43.334820361913664" lon="11.407460251013406"><ele>297.0</ele><time>2026-03-28T11:25:10Z</time></trkpt><trkpt lat="43.33471478401554" lon="11.40747084657284"><ele>295.8333333333333</ele><time>2026-03-28T11:25:11Z</time></trkpt><trkpt lat="43.334611358107075" lon="11.407469085564712"><ele>294.6666666666667</ele><time>2026-03-28T11:25:12Z</time></trkpt><trkpt lat="43.33452042502311" lon="11.407474284113638"><ele>293.5</ele><time>2026-03-28T11:25:13Z</time></trkpt><trkpt lat="43.334442949094594" lon="11.407476300605413"><ele>292.33333333333337</ele><time>2026-03-28T11:25:14Z</time></trkpt><trkpt lat="43.33437675981022" lon="11.407466506226553"><ele>291.1666666666667</ele><time>2026-03-28T11:25:15Z</time></trkpt><trkpt lat="43.334290188180226" lon="11.40738828832119"><ele>290.0</ele><time>2026-03-28T11:25:17Z</time></trkpt><trkpt lat="43.33424732018786" lon="11.407227210843754"><ele>289.75</ele><time>2026-03-28T11:25:19Z</time></trkpt><trkpt lat="43.33423090434601" lon="11.407092516218079"><ele>289.5</ele><time>2026-03-28T11:25:20Z</time></trkpt><trkpt lat="43.33421308259107" lon="11.406917345903357"><ele>289.25</ele><time>2026-03-28T11:25:21Z</time></trkpt><trkpt lat="43.334196590467904" lon="11.406760068746419"><ele>289.0</ele><time>2026-03-28T11:25:22Z</time></trkpt><trkpt lat="43.33417744854144" lon="11.406604642586096"><ele>289.0</ele><time>2026-03-28T11:25:23Z</time></trkpt><trkpt lat="43.3341575964781" lon="11.406451070152775"><ele>289.0</ele><time>2026-03-28T11:25:24Z</time></trkpt><trkpt lat="43.33413787692868" lon="11.406305821239021"><ele>289.0</ele><time>2026-03-28T11:25:25Z</time></trkpt><trkpt lat="43.33411981738421" lon="11.406174509042385"><ele>289.0</ele><time>2026-03-28T11:25:26Z</time></trkpt><trkpt lat="43.33408713121492" lon="11.406049754846508"><ele>289.0</ele><time>2026-03-28T11:25:27Z</time></trkpt><trkpt lat="43.33407558657337" lon="11.405914289978258"><ele>288.25</ele><time>2026-03-28T11:25:28Z</time></trkpt><trkpt lat="43.33409762995115" lon="11.405756932008796"><ele>287.5</ele><time>2026-03-28T11:25:29Z</time></trkpt><trkpt lat="43.33411237078802" lon="11.405555461777668"><ele>286.75</ele><time>2026-03-28T11:25:30Z</time></trkpt><trkpt lat="43.33413189522317" lon="11.405341110869626"><ele>286.0</ele><time>2026-03-28T11:25:31Z</time></trkpt><trkpt lat="43.33414871113242" lon="11.405152583198861"><ele>285.0</ele><time>2026-03-28T11:25:32Z</time></trkpt><trkpt lat="43.334162183337945" lon="11.404983634561525"><ele>284.0</ele><time>2026-03-28T11:25:33Z</time></trkpt><trkpt lat="43.334160048370514" lon="11.404809052111197"><ele>283.0</ele><time>2026-03-28T11:25:34Z</time></trkpt><trkpt lat="43.33417910220005" lon="11.404634038849872"><ele>282.0</ele><time>2026-03-28T11:25:35Z</time></trkpt><trkpt lat="43.33419238774728" lon="11.404472746757795"><ele>282.0</ele><time>2026-03-28T11:25:36Z</time></trkpt><trkpt lat="43.33420382290722" lon="11.404345138375874"><ele>282.0</ele><time>2026-03-28T11:25:37Z</time></trkpt><trkpt lat="43.33421716443048" lon="11.404245490743172"><ele>282.0</ele><time>2026-03-28T11:25:38Z</time></trkpt><trkpt lat="43.33419973320049" lon="11.404149995420724"><ele>282.0</ele><time>2026-03-28T11:25:39Z</time></trkpt><trkpt lat="43.33414658979912" lon="11.403996247950719"><ele>282.0</ele><time>2026-03-28T11:25:41Z</time></trkpt><trkpt lat="43.334077609649846" lon="11.403966703840933"><ele>282.0</ele><time>2026-03-28T11:25:42.001Z</time></trkpt><trkpt lat="43.333983659164396" lon="11.40398122625227"><ele>282.0</ele><time>2026-03-28T11:25:43.001Z</time></trkpt><trkpt lat="43.33390182127619" lon="11.404073728871053"><ele>282.0</ele><time>2026-03-28T11:25:44.001Z</time></trkpt><trkpt lat="43.333809410086495" lon="11.404136338096746"><ele>282.0</ele><time>2026-03-28T11:25:45.001Z</time></trkpt><trkpt lat="43.333667097326625" lon="11.404196668343976"><ele>282.0</ele><time>2026-03-28T11:25:46.001Z</time></trkpt><trkpt lat="43.3334726484266" lon="11.404296486752425"><ele>281.6666666666667</ele><time>2026-03-28T11:25:47.001Z</time></trkpt><trkpt lat="43.333279692193095" lon="11.4043914320123"><ele>281.33333333333337</ele><time>2026-03-28T11:25:48.001Z</time></trkpt><trkpt lat="43.33310210401491" lon="11.404480681463895"><ele>281.0</ele><time>2026-03-28T11:25:49.001Z</time></trkpt><trkpt lat="43.332933697839955" lon="11.404586944853339"><ele>281.0</ele><time>2026-03-28T11:25:50.001Z</time></trkpt><trkpt lat="43.332772762193976" lon="11.404656896484287"><ele>281.0</ele><time>2026-03-28T11:25:51.001Z</time></trkpt><trkpt lat="43.33262997474599" lon="11.404735935965032"><ele>281.0</ele><time>2026-03-28T11:25:52.001Z</time></trkpt><trkpt lat="43.33250235426262" lon="11.404829582421366"><ele>280.25</ele><time>2026-03-28T11:25:53.001Z</time></trkpt><trkpt lat="43.3323677547963" lon="11.404902044161453"><ele>279.5</ele><time>2026-03-28T11:25:54.001Z</time></trkpt><trkpt lat="43.332228726475556" lon="11.404970702082972"><ele>278.75</ele><time>2026-03-28T11:25:55.001Z</time></trkpt><trkpt lat="43.33209385750771" lon="11.405036786069841"><ele>278.0</ele><time>2026-03-28T11:25:56.001Z</time></trkpt><trkpt lat="43.331975512844174" lon="11.405087486609663"><ele>278.0</ele><time>2026-03-28T11:25:57.001Z</time></trkpt><trkpt lat="43.3318512302608" lon="11.405156167195768"><ele>278.0</ele><time>2026-03-28T11:25:58.001Z</time></trkpt><trkpt lat="43.331720619986044" lon="11.405203298289715"><ele>278.0</ele><time>2026-03-28T11:25:59.001Z</time></trkpt><trkpt lat="43.331592829049164" lon="11.405233660527468"><ele>278.0</ele><time>2026-03-28T11:26:00.001Z</time></trkpt><trkpt lat="43.33144035489525" lon="11.405285953732458"><ele>276.5</ele><time>2026-03-28T11:26:01Z</time></trkpt><trkpt lat="43.33129456724365" lon="11.405303671218917"><ele>275.0</ele><time>2026-03-28T11:26:02Z</time></trkpt><trkpt lat="43.331167652265535" lon="11.405356141419345"><ele>273.5</ele><time>2026-03-28T11:26:03Z</time></trkpt><trkpt lat="43.33103109321587" lon="11.405371014019087"><ele>272.0</ele><time>2026-03-28T11:26:04Z</time></trkpt><trkpt lat="43.33090230043406" lon="11.405425237373741"><ele>272.0</ele><time>2026-03-28T11:26:05Z</time></trkpt><trkpt lat="43.33078132528449" lon="11.405439471867185"><ele>272.0</ele><time>2026-03-28T11:26:06Z</time></trkpt><trkpt lat="43.33067395462908" lon="11.40547196474809"><ele>272.0</ele><time>2026-03-28T11:26:07Z</time></trkpt><trkpt lat="43.3305557830146" lon="11.405498681025577"><ele>272.0</ele><time>2026-03-28T11:26:08Z</time></trkpt><trkpt lat="43.33045023023119" lon="11.405552208110576"><ele>270.0</ele><time>2026-03-28T11:26:09Z</time></trkpt><trkpt lat="43.330330284909145" lon="11.405604721375468"><ele>268.0</ele><time>2026-03-28T11:26:10Z</time></trkpt><trkpt lat="43.33020293370286" lon="11.405662987900422"><ele>266.0</ele><time>2026-03-28T11:26:11Z</time></trkpt><trkpt lat="43.330083269344854" lon="11.405716135219786"><ele>264.0</ele><time>2026-03-28T11:26:12Z</time></trkpt><trkpt lat="43.329975840377706" lon="11.40578490006747"><ele>264.0</ele><time>2026-03-28T11:26:13Z</time></trkpt><trkpt lat="43.329900789294804" lon="11.405839445718088"><ele>264.0</ele><time>2026-03-28T11:26:14Z</time></trkpt><trkpt lat="43.32978212950481" lon="11.405913320929034"><ele>264.0</ele><time>2026-03-28T11:26:15Z</time></trkpt><trkpt lat="43.32967772888087" lon="11.405991611088243"><ele>264.0</ele><time>2026-03-28T11:26:16Z</time></trkpt><trkpt lat="43.32956509132202" lon="11.406092021812643"><ele>262.75</ele><time>2026-03-28T11:26:17Z</time></trkpt><trkpt lat="43.32945872625749" lon="11.406218888840783"><ele>261.5</ele><time>2026-03-28T11:26:18Z</time></trkpt><trkpt lat="43.32936304013596" lon="11.40634353010267"><ele>260.25</ele><time>2026-03-28T11:26:19Z</time></trkpt><trkpt lat="43.32926603770833" lon="11.406465710283486"><ele>259.0</ele><time>2026-03-28T11:26:20Z</time></trkpt><trkpt lat="43.32917565342316" lon="11.4065742216637"><ele>258.75</ele><time>2026-03-28T11:26:21Z</time></trkpt><trkpt lat="43.329084473279416" lon="11.406685216070278"><ele>258.5</ele><time>2026-03-28T11:26:22Z</time></trkpt><trkpt lat="43.32898251767221" lon="11.406791632432085"><ele>258.25</ele><time>2026-03-28T11:26:23Z</time></trkpt><trkpt lat="43.32889515759901" lon="11.406899900299251"><ele>258.0</ele><time>2026-03-28T11:26:24Z</time></trkpt><trkpt lat="43.328813879682386" lon="11.406997245089665"><ele>257.75</ele><time>2026-03-28T11:26:25Z</time></trkpt><trkpt lat="43.328735140975105" lon="11.407087598451758"><ele>257.5</ele><time>2026-03-28T11:26:26Z</time></trkpt><trkpt lat="43.32864613999807" lon="11.407193638349815"><ele>257.25</ele><time>2026-03-28T11:26:27Z</time></trkpt><trkpt lat="43.32855631674158" lon="11.407309931436886"><ele>257.0</ele><time>2026-03-28T11:26:28Z</time></trkpt><trkpt lat="43.32845572888602" lon="11.40742598153255"><ele>256.0</ele><time>2026-03-28T11:26:29Z</time></trkpt><trkpt lat="43.328364900000395" lon="11.407539730279863"><ele>255.0</ele><time>2026-03-28T11:26:30Z</time></trkpt><trkpt lat="43.32827514967192" lon="11.407628917298581"><ele>254.0</ele><time>2026-03-28T11:26:31Z</time></trkpt><trkpt lat="43.32818346183025" lon="11.407758835732073"><ele>253.0</ele><time>2026-03-28T11:26:32Z</time></trkpt><trkpt lat="43.32808676345557" lon="11.407869232126641"><ele>253.0</ele><time>2026-03-28T11:26:33Z</time></trkpt><trkpt lat="43.327996738972054" lon="11.407974319560818"><ele>253.0</ele><time>2026-03-28T11:26:34Z</time></trkpt><trkpt lat="43.32790667784589" lon="11.408074123310193"><ele>253.0</ele><time>2026-03-28T11:26:35Z</time></trkpt><trkpt lat="43.32782082395367" lon="11.408180191732198"><ele>253.0</ele><time>2026-03-28T11:26:36Z</time></trkpt><trkpt lat="43.32772588719717" lon="11.40829624495894"><ele>253.0</ele><time>2026-03-28T11:26:37Z</time></trkpt><trkpt lat="43.32764272006646" lon="11.408394014942957"><ele>253.0</ele><time>2026-03-28T11:26:38Z</time></trkpt><trkpt lat="43.32755995205549" lon="11.408484846353154"><ele>253.0</ele><time>2026-03-28T11:26:39Z</time></trkpt><trkpt lat="43.327474879564434" lon="11.408585920562588"><ele>253.0</ele><time>2026-03-28T11:26:40Z</time></trkpt><trkpt lat="43.32737781556388" lon="11.408692112172645"><ele>253.0</ele><time>2026-03-28T11:26:41Z</time></trkpt><trkpt lat="43.3272914634907" lon="11.408789417919415"><ele>253.0</ele><time>2026-03-28T11:26:42Z</time></trkpt><trkpt lat="43.327199652343886" lon="11.408891640955536"><ele>253.0</ele><time>2026-03-28T11:26:43Z</time></trkpt><trkpt lat="43.32711906402682" lon="11.408986373848924"><ele>253.0</ele><time>2026-03-28T11:26:44Z</time></trkpt><trkpt lat="43.32705080299925" lon="11.409090412333772"><ele>253.0</ele><time>2026-03-28T11:26:45Z</time></trkpt><trkpt lat="43.32697824044803" lon="11.40920320961496"><ele>251.25</ele><time>2026-03-28T11:26:46Z</time></trkpt><trkpt lat="43.32689834503697" lon="11.40931231894891"><ele>249.5</ele><time>2026-03-28T11:26:47Z</time></trkpt><trkpt lat="43.326828148424696" lon="11.409435031437441"><ele>247.75</ele><time>2026-03-28T11:26:48Z</time></trkpt><trkpt lat="43.32674916718238" lon="11.409570491465704"><ele>246.0</ele><time>2026-03-28T11:26:49Z</time></trkpt><trkpt lat="43.32666770888947" lon="11.409684164699732"><ele>245.4</ele><time>2026-03-28T11:26:50Z</time></trkpt><trkpt lat="43.32657144518849" lon="11.409758080082232"><ele>244.8</ele><time>2026-03-28T11:26:51Z</time></trkpt><trkpt lat="43.32648611304081" lon="11.409846470596406"><ele>244.20000000000002</ele><time>2026-03-28T11:26:52Z</time></trkpt><trkpt lat="43.32641757886123" lon="11.409937915589941"><ele>243.60000000000002</ele><time>2026-03-28T11:26:53Z</time></trkpt><trkpt lat="43.3263508343622" lon="11.41000994475181"><ele>243.0</ele><time>2026-03-28T11:26:54Z</time></trkpt><trkpt lat="43.326292034373715" lon="11.410075019133492"><ele>243.0</ele><time>2026-03-28T11:26:55Z</time></trkpt><trkpt lat="43.32622685840275" lon="11.410148689279325"><ele>243.0</ele><time>2026-03-28T11:26:56Z</time></trkpt><trkpt lat="43.32616305421853" lon="11.410220095703583"><ele>243.0</ele><time>2026-03-28T11:26:57Z</time></trkpt><trkpt lat="43.326114102725604" lon="11.410282772667832"><ele>243.0</ele><time>2026-03-28T11:26:58Z</time></trkpt><trkpt lat="43.32606042249255" lon="11.410339820990439"><ele>243.0</ele><time>2026-03-28T11:26:59Z</time></trkpt><trkpt lat="43.325992405245316" lon="11.410382730240938"><ele>243.0</ele><time>2026-03-28T11:27:01Z</time></trkpt><trkpt lat="43.325908248749826" lon="11.41016336694197"><ele>243.0</ele><time>2026-03-28T11:27:02Z</time></trkpt><trkpt lat="43.325849149500826" lon="11.409994470030654"><ele>243.0</ele><time>2026-03-28T11:27:03Z</time></trkpt><trkpt lat="43.32581117677304" lon="11.409821294228779"><ele>243.0</ele><time>2026-03-28T11:27:04Z</time></trkpt><trkpt lat="43.32581780991977" lon="11.409648910882208"><ele>243.0</ele><time>2026-03-28T11:27:05Z</time></trkpt><trkpt lat="43.32584022280607" lon="11.409409741318076"><ele>239.0</ele><time>2026-03-28T11:27:06Z</time></trkpt><trkpt lat="43.32584701739667" lon="11.409082317953878"><ele>235.0</ele><time>2026-03-28T11:27:07Z</time></trkpt><trkpt lat="43.3258107379574" lon="11.40871048339737"><ele>233.0</ele><time>2026-03-28T11:27:08Z</time></trkpt><trkpt lat="43.32576984957529" lon="11.40833691253111"><ele>231.0</ele><time>2026-03-28T11:27:09Z</time></trkpt><trkpt lat="43.325734579378704" lon="11.408009707972134"><ele>229.66666666666669</ele><time>2026-03-28T11:27:10Z</time></trkpt><trkpt lat="43.32570294060481" lon="11.407717583600947"><ele>228.33333333333334</ele><time>2026-03-28T11:27:11Z</time></trkpt><trkpt lat="43.32567292771248" lon="11.407445813278267"><ele>227.0</ele><time>2026-03-28T11:27:12Z</time></trkpt><trkpt lat="43.325644270150924" lon="11.407189341667042"><ele>225.66666666666669</ele><time>2026-03-28T11:27:13Z</time></trkpt><trkpt lat="43.325617243950624" lon="11.40695585050017"><ele>224.33333333333331</ele><time>2026-03-28T11:27:14Z</time></trkpt><trkpt lat="43.325568073039996" lon="11.406732422985067"><ele>223.0</ele><time>2026-03-28T11:27:15Z</time></trkpt><trkpt lat="43.32548007629582" lon="11.406525213426116"><ele>221.0</ele><time>2026-03-28T11:27:16Z</time></trkpt><trkpt lat="43.32538205576546" lon="11.40632424477828"><ele>219.0</ele><time>2026-03-28T11:27:17Z</time></trkpt><trkpt lat="43.325290825905334" lon="11.4061479216349"><ele>217.0</ele><time>2026-03-28T11:27:18Z</time></trkpt><trkpt lat="43.32521929594072" lon="11.405976636937128"><ele>217.0</ele><time>2026-03-28T11:27:19Z</time></trkpt><trkpt lat="43.32516301495657" lon="11.405805205548413"><ele>217.0</ele><time>2026-03-28T11:27:20Z</time></trkpt><trkpt lat="43.32511850040387" lon="11.405653488743114"><ele>217.0</ele><time>2026-03-28T11:27:21Z</time></trkpt><trkpt lat="43.32508541719533" lon="11.405531731220147"><ele>217.0</ele><time>2026-03-28T11:27:22Z</time></trkpt><trkpt lat="43.325053667885264" lon="11.405402495873938"><ele>216.5</ele><time>2026-03-28T11:27:23Z</time></trkpt><trkpt lat="43.325022389077944" lon="11.405261613344013"><ele>216.0</ele><time>2026-03-28T11:27:24Z</time></trkpt><trkpt lat="43.32499518185667" lon="11.405111475006912"><ele>215.5</ele><time>2026-03-28T11:27:25Z</time></trkpt><trkpt lat="43.32497586822196" lon="11.404932119446071"><ele>215.0</ele><time>2026-03-28T11:27:26Z</time></trkpt><trkpt lat="43.324960225766056" lon="11.404702295360007"><ele>214.75</ele><time>2026-03-28T11:27:27Z</time></trkpt><trkpt lat="43.32495375728116" lon="11.404461091863933"><ele>214.5</ele><time>2026-03-28T11:27:28Z</time></trkpt><trkpt lat="43.32495118434827" lon="11.404289431490795"><ele>214.25</ele><time>2026-03-28T11:27:29Z</time></trkpt><trkpt lat="43.324950697506864" lon="11.404169190477688"><ele>214.0</ele><time>2026-03-28T11:27:30Z</time></trkpt><trkpt lat="43.32495098516459" lon="11.404056053823629"><ele>214.0</ele><time>2026-03-28T11:27:31Z</time></trkpt><trkpt lat="43.324953560319464" lon="11.40391449633438"><ele>213.99999999999997</ele><time>2026-03-28T11:27:32Z</time></trkpt><trkpt lat="43.32495747625524" lon="11.403770520536819"><ele>213.99999999999997</ele><time>2026-03-28T11:27:33Z</time></trkpt><trkpt lat="43.32496226098023" lon="11.403631767950023"><ele>214.0</ele><time>2026-03-28T11:27:34Z</time></trkpt><trkpt lat="43.324972036400396" lon="11.403463983720043"><ele>214.0</ele><time>2026-03-28T11:27:35Z</time></trkpt><trkpt lat="43.32498873913846" lon="11.403255941383172"><ele>213.33333333333331</ele><time>2026-03-28T11:27:36Z</time></trkpt><trkpt lat="43.32500760226107" lon="11.403037718609339"><ele>212.66666666666669</ele><time>2026-03-28T11:27:37Z</time></trkpt><trkpt lat="43.32502946960271" lon="11.40278471277126"><ele>212.0</ele><time>2026-03-28T11:27:38Z</time></trkpt><trkpt lat="43.32505605454381" lon="11.402477103357953"><ele>213.33333333333334</ele><time>2026-03-28T11:27:39Z</time></trkpt><trkpt lat="43.32506290544465" lon="11.402197739210186"><ele>214.66666666666669</ele><time>2026-03-28T11:27:40Z</time></trkpt><trkpt lat="43.32509525342635" lon="11.401941222231581"><ele>216.0</ele><time>2026-03-28T11:27:41Z</time></trkpt><trkpt lat="43.32510355120253" lon="11.401653759520455"><ele>218.5</ele><time>2026-03-28T11:27:42Z</time></trkpt><trkpt lat="43.32509787077096" lon="11.401412112270286"><ele>221.0</ele><time>2026-03-28T11:27:43Z</time></trkpt><trkpt lat="43.325092056795434" lon="11.40122768002511"><ele>223.5</ele><time>2026-03-28T11:27:44Z</time></trkpt><trkpt lat="43.3250863753821" lon="11.401072406952567"><ele>226.0</ele><time>2026-03-28T11:27:45Z</time></trkpt><trkpt lat="43.32508117601062" lon="11.400925126004767"><ele>227.25</ele><time>2026-03-28T11:27:46Z</time></trkpt><trkpt lat="43.3250661453111" lon="11.40079268460528"><ele>228.5</ele><time>2026-03-28T11:27:47Z</time></trkpt><trkpt lat="43.32508368785849" lon="11.400641047343997"><ele>229.75</ele><time>2026-03-28T11:27:48.001Z</time></trkpt><trkpt lat="43.325108002513645" lon="11.400473558693747"><ele>231.0</ele><time>2026-03-28T11:27:49.001Z</time></trkpt><trkpt lat="43.325149935647616" lon="11.400303581838603"><ele>232.25</ele><time>2026-03-28T11:27:50.001Z</time></trkpt><trkpt lat="43.3251714079652" lon="11.400126205804812"><ele>233.5</ele><time>2026-03-28T11:27:51.001Z</time></trkpt><trkpt lat="43.325160635725766" lon="11.399945931882932"><ele>234.75</ele><time>2026-03-28T11:27:52.001Z</time></trkpt><trkpt lat="43.32516816709727" lon="11.399725340857106"><ele>236.0</ele><time>2026-03-28T11:27:53.001Z</time></trkpt><trkpt lat="43.3251519742067" lon="11.399452286741905"><ele>237.66666666666669</ele><time>2026-03-28T11:27:54.001Z</time></trkpt><trkpt lat="43.32513428293778" lon="11.399165914229297"><ele>239.33333333333331</ele><time>2026-03-28T11:27:55.001Z</time></trkpt><trkpt lat="43.32511806260493" lon="11.39890369990067"><ele>241.0</ele><time>2026-03-28T11:27:56.001Z</time></trkpt><trkpt lat="43.32510239268642" lon="11.398638884493048"><ele>243.0</ele><time>2026-03-28T11:27:57.001Z</time></trkpt><trkpt lat="43.32509298390095" lon="11.398411762258686"><ele>245.0</ele><time>2026-03-28T11:27:58.001Z</time></trkpt><trkpt lat="43.32508726849882" lon="11.398202116615401"><ele>247.0</ele><time>2026-03-28T11:27:59.001Z</time></trkpt><trkpt lat="43.32508685513171" lon="11.39800734015146"><ele>247.5</ele><time>2026-03-28T11:28:00.001Z</time></trkpt><trkpt lat="43.32509519346769" lon="11.397837247513996"><ele>248.0</ele><time>2026-03-28T11:28:01.001Z</time></trkpt><trkpt lat="43.32512611338722" lon="11.397699033766035"><ele>248.5</ele><time>2026-03-28T11:28:02.001Z</time></trkpt><trkpt lat="43.32517761027953" lon="11.397565684693847"><ele>249.0</ele><time>2026-03-28T11:28:03.001Z</time></trkpt><trkpt lat="43.325246431893575" lon="11.397386476565675"><ele>248.33333333333331</ele><time>2026-03-28T11:28:04.001Z</time></trkpt><trkpt lat="43.32532304897323" lon="11.397166190868205"><ele>247.66666666666666</ele><time>2026-03-28T11:28:05.001Z</time></trkpt><trkpt lat="43.32539721670256" lon="11.396924690208625"><ele>247.0</ele><time>2026-03-28T11:28:06.001Z</time></trkpt><trkpt lat="43.32545378340016" lon="11.396663810712155"><ele>247.0</ele><time>2026-03-28T11:28:07Z</time></trkpt><trkpt lat="43.32552387739835" lon="11.396451526215008"><ele>247.0</ele><time>2026-03-28T11:28:08Z</time></trkpt><trkpt lat="43.32558818334264" lon="11.396259756335825"><ele>247.0</ele><time>2026-03-28T11:28:09Z</time></trkpt><trkpt lat="43.325647038313534" lon="11.396062233359915"><ele>248.0</ele><time>2026-03-28T11:28:10Z</time></trkpt><trkpt lat="43.32568482797649" lon="11.395851637751521"><ele>249.0</ele><time>2026-03-28T11:28:11Z</time></trkpt><trkpt lat="43.32571239343073" lon="11.39562707463008"><ele>250.0</ele><time>2026-03-28T11:28:12Z</time></trkpt><trkpt lat="43.325707192576594" lon="11.395353997495652"><ele>250.66666666666666</ele><time>2026-03-28T11:28:13Z</time></trkpt><trkpt lat="43.32570048013186" lon="11.395070370398022"><ele>251.33333333333331</ele><time>2026-03-28T11:28:14Z</time></trkpt><trkpt lat="43.32568924247236" lon="11.394825912336001"><ele>252.0</ele><time>2026-03-28T11:28:15Z</time></trkpt><trkpt lat="43.325678035416935" lon="11.394610705603679"><ele>253.0</ele><time>2026-03-28T11:28:16Z</time></trkpt><trkpt lat="43.32562690100261" lon="11.39435311358836"><ele>254.0</ele><time>2026-03-28T11:28:17Z</time></trkpt><trkpt lat="43.32554195712416" lon="11.394057142827736"><ele>255.0</ele><time>2026-03-28T11:28:18Z</time></trkpt><trkpt lat="43.32543539003939" lon="11.393724944149836"><ele>257.5</ele><time>2026-03-28T11:28:19Z</time></trkpt><trkpt lat="43.3253390420974" lon="11.393408646454459"><ele>260.0</ele><time>2026-03-28T11:28:20Z</time></trkpt><trkpt lat="43.32525699990326" lon="11.3931433386131"><ele>261.0</ele><time>2026-03-28T11:28:21Z</time></trkpt><trkpt lat="43.325184013587425" lon="11.392909935898924"><ele>262.0</ele><time>2026-03-28T11:28:22Z</time></trkpt><trkpt lat="43.325121430278905" lon="11.392726371785153"><ele>263.0</ele><time>2026-03-28T11:28:23Z</time></trkpt><trkpt lat="43.32506550106988" lon="11.392600469348888"><ele>264.0</ele><time>2026-03-28T11:28:24Z</time></trkpt><trkpt lat="43.32502572752822" lon="11.39248414842054"><ele>264.0</ele><time>2026-03-28T11:28:25Z</time></trkpt><trkpt lat="43.32489812058828" lon="11.39247421978355"><ele>264.0</ele><time>2026-03-28T11:28:26Z</time></trkpt><trkpt lat="43.3247830044811" lon="11.392500613914944"><ele>264.0</ele><time>2026-03-28T11:28:27Z</time></trkpt><trkpt lat="43.324648282509244" lon="11.392554247885514"><ele>264.0</ele><time>2026-03-28T11:28:28Z</time></trkpt><trkpt lat="43.32451099575981" lon="11.392543681152398"><ele>264.3333333333333</ele><time>2026-03-28T11:28:29Z</time></trkpt><trkpt lat="43.32437865940685" lon="11.392541596724259"><ele>264.66666666666663</ele><time>2026-03-28T11:28:30Z</time></trkpt><trkpt lat="43.324245333581565" lon="11.39242368385399"><ele>265.0</ele><time>2026-03-28T11:28:31Z</time></trkpt><trkpt lat="43.32408850980011" lon="11.392357159085586"><ele>265.0</ele><time>2026-03-28T11:28:32Z</time></trkpt><trkpt lat="43.32392373099052" lon="11.392327597922582"><ele>265.0</ele><time>2026-03-28T11:28:33Z</time></trkpt><trkpt lat="43.32377289382618" lon="11.392292751723318"><ele>265.0</ele><time>2026-03-28T11:28:34Z</time></trkpt><trkpt lat="43.32363789047149" lon="11.392237158602677"><ele>264.66666666666663</ele><time>2026-03-28T11:28:35Z</time></trkpt><trkpt lat="43.32349313875302" lon="11.392194444132585"><ele>264.3333333333333</ele><time>2026-03-28T11:28:36Z</time></trkpt><trkpt lat="43.32333047498149" lon="11.392157761907809"><ele>264.0</ele><time>2026-03-28T11:28:37Z</time></trkpt><trkpt lat="43.32315705286295" lon="11.392119810759016"><ele>261.6666666666667</ele><time>2026-03-28T11:28:38Z</time></trkpt><trkpt lat="43.322993535640656" lon="11.39207991649706"><ele>259.33333333333337</ele><time>2026-03-28T11:28:39Z</time></trkpt><trkpt lat="43.322821139258856" lon="11.392029463156453"><ele>257.0</ele><time>2026-03-28T11:28:40Z</time></trkpt><trkpt lat="43.32262659444579" lon="11.391971178002253"><ele>257.0</ele><time>2026-03-28T11:28:41Z</time></trkpt><trkpt lat="43.32245209114255" lon="11.391919276224119"><ele>257.0</ele><time>2026-03-28T11:28:42Z</time></trkpt><trkpt lat="43.32228426160904" lon="11.391875282902301"><ele>257.0</ele><time>2026-03-28T11:28:43Z</time></trkpt><trkpt lat="43.32211833810228" lon="11.391835793100704"><ele>255.66666666666669</ele><time>2026-03-28T11:28:44Z</time></trkpt><trkpt lat="43.32194800665343" lon="11.3917846341568"><ele>254.33333333333331</ele><time>2026-03-28T11:28:45Z</time></trkpt><trkpt lat="43.32177913481745" lon="11.39173317870071"><ele>253.0</ele><time>2026-03-28T11:28:46Z</time></trkpt><trkpt lat="43.3216103977179" lon="11.391696398589678"><ele>253.0</ele><time>2026-03-28T11:28:47Z</time></trkpt><trkpt lat="43.32145817862399" lon="11.391589695761411"><ele>253.0</ele><time>2026-03-28T11:28:48Z</time></trkpt><trkpt lat="43.32128564699068" lon="11.391468586567482"><ele>253.0</ele><time>2026-03-28T11:28:49Z</time></trkpt><trkpt lat="43.32111641837364" lon="11.39134619340852"><ele>251.0</ele><time>2026-03-28T11:28:50Z</time></trkpt><trkpt lat="43.32096371436597" lon="11.39124096585342"><ele>249.0</ele><time>2026-03-28T11:28:51Z</time></trkpt><trkpt lat="43.320809332588574" lon="11.39113587107354"><ele>247.0</ele><time>2026-03-28T11:28:52Z</time></trkpt><trkpt lat="43.32066592150843" lon="11.391044232197935"><ele>247.5</ele><time>2026-03-28T11:28:53Z</time></trkpt><trkpt lat="43.32052748986818" lon="11.39097407881208"><ele>248.0</ele><time>2026-03-28T11:28:54Z</time></trkpt><trkpt lat="43.320399379693185" lon="11.390937691243233"><ele>248.5</ele><time>2026-03-28T11:28:55Z</time></trkpt><trkpt lat="43.32028815918048" lon="11.390940545505384"><ele>249.0</ele><time>2026-03-28T11:28:56Z</time></trkpt><trkpt lat="43.320194221997134" lon="11.39091064025589"><ele>249.0</ele><time>2026-03-28T11:28:57Z</time></trkpt><trkpt lat="43.32011768389318" lon="11.390837938629266"><ele>249.0</ele><time>2026-03-28T11:28:58Z</time></trkpt><trkpt lat="43.32009849593091" lon="11.390693509180492"><ele>249.0</ele><time>2026-03-28T11:28:59Z</time></trkpt><trkpt lat="43.32006147141549" lon="11.390532059025096"><ele>249.0</ele><time>2026-03-28T11:29:00Z</time></trkpt><trkpt lat="43.320039103384616" lon="11.390330615415198"><ele>248.33333333333331</ele><time>2026-03-28T11:29:01Z</time></trkpt><trkpt lat="43.320004270740675" lon="11.390132081606689"><ele>247.66666666666666</ele><time>2026-03-28T11:29:02Z</time></trkpt><trkpt lat="43.31996654061455" lon="11.38993020946244"><ele>247.0</ele><time>2026-03-28T11:29:03Z</time></trkpt><trkpt lat="43.319909743884864" lon="11.389706546010494"><ele>245.66666666666666</ele><time>2026-03-28T11:29:04Z</time></trkpt><trkpt lat="43.31985905287514" lon="11.389493636920884"><ele>244.33333333333331</ele><time>2026-03-28T11:29:05Z</time></trkpt><trkpt lat="43.31979841090452" lon="11.389295715719067"><ele>243.0</ele><time>2026-03-28T11:29:06Z</time></trkpt><trkpt lat="43.319743269458556" lon="11.389077365372284"><ele>238.33333333333331</ele><time>2026-03-28T11:29:07Z</time></trkpt><trkpt lat="43.31969047366581" lon="11.38883691089977"><ele>233.66666666666666</ele><time>2026-03-28T11:29:08Z</time></trkpt><trkpt lat="43.31963580076291" lon="11.38860696661417"><ele>229.0</ele><time>2026-03-28T11:29:09Z</time></trkpt><trkpt lat="43.31957839800282" lon="11.388391904754094"><ele>229.0</ele><time>2026-03-28T11:29:10Z</time></trkpt><trkpt lat="43.31954012676618" lon="11.388179394486066"><ele>229.0</ele><time>2026-03-28T11:29:11Z</time></trkpt><trkpt lat="43.31950196187757" lon="11.387983604482601"><ele>229.0</ele><time>2026-03-28T11:29:12Z</time></trkpt><trkpt lat="43.31948874416829" lon="11.38780146040189"><ele>229.0</ele><time>2026-03-28T11:29:13Z</time></trkpt><trkpt lat="43.31944796090822" lon="11.38765946730793"><ele>229.0</ele><time>2026-03-28T11:29:14Z</time></trkpt><trkpt lat="43.319409172159865" lon="11.387519593621983"><ele>229.0</ele><time>2026-03-28T11:29:15Z</time></trkpt><trkpt lat="43.31929449911265" lon="11.387420068161187"><ele>229.0</ele><time>2026-03-28T11:29:16Z</time></trkpt><trkpt lat="43.319175159053174" lon="11.387355549237375"><ele>229.0</ele><time>2026-03-28T11:29:17Z</time></trkpt><trkpt lat="43.31908266892342" lon="11.387290514958114"><ele>229.0</ele><time>2026-03-28T11:29:18Z</time></trkpt><trkpt lat="43.31902614707762" lon="11.38718822055432"><ele>228.99999999999997</ele><time>2026-03-28T11:29:19Z</time></trkpt><trkpt lat="43.31902995214131" lon="11.38707319627159"><ele>228.99999999999997</ele><time>2026-03-28T11:29:20Z</time></trkpt><trkpt lat="43.31903763904479" lon="11.386948124222203"><ele>229.0</ele><time>2026-03-28T11:29:21Z</time></trkpt><trkpt lat="43.31906756881548" lon="11.386804860827993"><ele>229.0</ele><time>2026-03-28T11:29:22Z</time></trkpt><trkpt lat="43.3191110869663" lon="11.38668082730691"><ele>228.5</ele><time>2026-03-28T11:29:23Z</time></trkpt><trkpt lat="43.31917768815249" lon="11.386578924896831"><ele>228.0</ele><time>2026-03-28T11:29:24Z</time></trkpt><trkpt lat="43.31927702735828" lon="11.386497934069144"><ele>227.5</ele><time>2026-03-28T11:29:25Z</time></trkpt><trkpt lat="43.319392118566434" lon="11.386414997885888"><ele>227.0</ele><time>2026-03-28T11:29:26Z</time></trkpt><trkpt lat="43.31952116362107" lon="11.38633450074374"><ele>226.2</ele><time>2026-03-28T11:29:27Z</time></trkpt><trkpt lat="43.3196254401361" lon="11.38627024254734"><ele>225.39999999999998</ele><time>2026-03-28T11:29:28Z</time></trkpt><trkpt lat="43.319725273467846" lon="11.386209873551657"><ele>224.60000000000002</ele><time>2026-03-28T11:29:29Z</time></trkpt><trkpt lat="43.31983247674326" lon="11.386147998917096"><ele>223.8</ele><time>2026-03-28T11:29:30Z</time></trkpt><trkpt lat="43.319919519588595" lon="11.386085240665881"><ele>223.0</ele><time>2026-03-28T11:29:31.001Z</time></trkpt><trkpt lat="43.319991669076046" lon="11.385988429507515"><ele>222.75</ele><time>2026-03-28T11:29:32.001Z</time></trkpt><trkpt lat="43.32004131687186" lon="11.385842743459607"><ele>222.5</ele><time>2026-03-28T11:29:33.001Z</time></trkpt><trkpt lat="43.320047489682246" lon="11.385661295733762"><ele>222.25</ele><time>2026-03-28T11:29:34.001Z</time></trkpt><trkpt lat="43.320120801701414" lon="11.385434304457883"><ele>222.0</ele><time>2026-03-28T11:29:35.001Z</time></trkpt><trkpt lat="43.32011364415508" lon="11.385224390979975"><ele>221.0</ele><time>2026-03-28T11:29:36.001Z</time></trkpt><trkpt lat="43.32011902912812" lon="11.385033737906195"><ele>220.0</ele><time>2026-03-28T11:29:37.001Z</time></trkpt><trkpt lat="43.320170108585216" lon="11.384966520935725"><ele>219.0</ele><time>2026-03-28T11:29:39.001Z</time></trkpt><trkpt lat="43.3202149616127" lon="11.384816080696408"><ele>218.0</ele><time>2026-03-28T11:29:40.001Z</time></trkpt><trkpt lat="43.32030836698652" lon="11.38470902886576"><ele>217.0</ele><time>2026-03-28T11:29:41.001Z</time></trkpt><trkpt lat="43.32041612647274" lon="11.384587674130366"><ele>216.0</ele><time>2026-03-28T11:29:42.001Z</time></trkpt><trkpt lat="43.3205085991479" lon="11.38448029312133"><ele>215.0</ele><time>2026-03-28T11:29:43.001Z</time></trkpt><trkpt lat="43.32058889811468" lon="11.384387048378029"><ele>214.0</ele><time>2026-03-28T11:29:44.001Z</time></trkpt><trkpt lat="43.32066609321181" lon="11.384291756291764"><ele>213.0</ele><time>2026-03-28T11:29:45.001Z</time></trkpt><trkpt lat="43.320732857488935" lon="11.38415240191728"><ele>212.25</ele><time>2026-03-28T11:29:46.001Z</time></trkpt><trkpt lat="43.32078402890028" lon="11.384021299100597"><ele>211.5</ele><time>2026-03-28T11:29:47.001Z</time></trkpt><trkpt lat="43.32080320147689" lon="11.383884489018023"><ele>210.75</ele><time>2026-03-28T11:29:48.001Z</time></trkpt><trkpt lat="43.32078391431877" lon="11.383728101434794"><ele>210.0</ele><time>2026-03-28T11:29:49.001Z</time></trkpt><trkpt lat="43.320718938024555" lon="11.383552388339712"><ele>207.33333333333331</ele><time>2026-03-28T11:29:50.001Z</time></trkpt><trkpt lat="43.32064144347409" lon="11.383325630370626"><ele>204.66666666666666</ele><time>2026-03-28T11:29:51.001Z</time></trkpt><trkpt lat="43.32058905786858" lon="11.383016723469053"><ele>202.0</ele><time>2026-03-28T11:29:52.001Z</time></trkpt><trkpt lat="43.32056964642841" lon="11.382660725852501"><ele>200.5</ele><time>2026-03-28T11:29:53.001Z</time></trkpt><trkpt lat="43.32052146448244" lon="11.38230684216699"><ele>199.0</ele><time>2026-03-28T11:29:54.001Z</time></trkpt><trkpt lat="43.320476074124976" lon="11.38201116433311"><ele>198.66666666666666</ele><time>2026-03-28T11:29:55.001Z</time></trkpt><trkpt lat="43.32043113848048" lon="11.381738976765064"><ele>198.33333333333331</ele><time>2026-03-28T11:29:56.001Z</time></trkpt><trkpt lat="43.32038868104995" lon="11.381488927018218"><ele>198.0</ele><time>2026-03-28T11:29:57.001Z</time></trkpt><trkpt lat="43.320352030248216" lon="11.381255666131638"><ele>197.66666666666669</ele><time>2026-03-28T11:29:58.001Z</time></trkpt><trkpt lat="43.32032309427113" lon="11.381047343656117"><ele>197.33333333333334</ele><time>2026-03-28T11:29:59.001Z</time></trkpt><trkpt lat="43.32031726849243" lon="11.38083250742519"><ele>197.0</ele><time>2026-03-28T11:30:00.001Z</time></trkpt><trkpt lat="43.320344269077076" lon="11.380606837388926"><ele>197.0</ele><time>2026-03-28T11:30:01.001Z</time></trkpt><trkpt lat="43.32037849246021" lon="11.380375884900273"><ele>197.0</ele><time>2026-03-28T11:30:02.001Z</time></trkpt><trkpt lat="43.32040904449538" lon="11.380163154723075"><ele>197.0</ele><time>2026-03-28T11:30:03.001Z</time></trkpt><trkpt lat="43.32043303286845" lon="11.379979331995084"><ele>197.0</ele><time>2026-03-28T11:30:04.001Z</time></trkpt><trkpt lat="43.32045605948851" lon="11.379804444323202"><ele>197.0</ele><time>2026-03-28T11:30:05.001Z</time></trkpt><trkpt lat="43.32048210396354" lon="11.379597463416754"><ele>197.0</ele><time>2026-03-28T11:30:06.001Z</time></trkpt><trkpt lat="43.32050929053228" lon="11.379385299605692"><ele>197.0</ele><time>2026-03-28T11:30:07.001Z</time></trkpt><trkpt lat="43.32053424781092" lon="11.379190959965937"><ele>197.75</ele><time>2026-03-28T11:30:08.001Z</time></trkpt><trkpt lat="43.320559783246956" lon="11.378992118932704"><ele>198.5</ele><time>2026-03-28T11:30:09.001Z</time></trkpt><trkpt lat="43.32058418754534" lon="11.378795682342046"><ele>199.25</ele><time>2026-03-28T11:30:10.001Z</time></trkpt><trkpt lat="43.320588839093595" lon="11.378610710443269"><ele>200.0</ele><time>2026-03-28T11:30:11.001Z</time></trkpt><trkpt lat="43.32059808759036" lon="11.378413318182641"><ele>202.0</ele><time>2026-03-28T11:30:12.001Z</time></trkpt><trkpt lat="43.32058375204209" lon="11.378181926180526"><ele>204.0</ele><time>2026-03-28T11:30:13Z</time></trkpt><trkpt lat="43.32055711887988" lon="11.377931630443175"><ele>206.0</ele><time>2026-03-28T11:30:14Z</time></trkpt><trkpt lat="43.32052013230165" lon="11.37770328417389"><ele>208.66666666666669</ele><time>2026-03-28T11:30:15Z</time></trkpt><trkpt lat="43.320485767468476" lon="11.37748140036606"><ele>211.33333333333331</ele><time>2026-03-28T11:30:16Z</time></trkpt><trkpt lat="43.3204665720486" lon="11.377254565320927"><ele>214.0</ele><time>2026-03-28T11:30:17Z</time></trkpt><trkpt lat="43.32042501458186" lon="11.377007299238858"><ele>216.33333333333331</ele><time>2026-03-28T11:30:18Z</time></trkpt><trkpt lat="43.320433551290385" lon="11.37676615081733"><ele>218.66666666666669</ele><time>2026-03-28T11:30:19Z</time></trkpt><trkpt lat="43.320447156548376" lon="11.376517416393812"><ele>221.0</ele><time>2026-03-28T11:30:20Z</time></trkpt><trkpt lat="43.320468774489036" lon="11.376284470278033"><ele>221.0</ele><time>2026-03-28T11:30:21Z</time></trkpt><trkpt lat="43.320491938350436" lon="11.376070751197041"><ele>221.0</ele><time>2026-03-28T11:30:22Z</time></trkpt><trkpt lat="43.32049482340923" lon="11.37585651622133"><ele>221.0</ele><time>2026-03-28T11:30:23Z</time></trkpt><trkpt lat="43.32048855229439" lon="11.375685805884805"><ele>221.0</ele><time>2026-03-28T11:30:24Z</time></trkpt><trkpt lat="43.32047957780745" lon="11.375559644482617"><ele>220.60000000000002</ele><time>2026-03-28T11:30:25Z</time></trkpt><trkpt lat="43.32044196621407" lon="11.375435198730845"><ele>220.20000000000002</ele><time>2026-03-28T11:30:26Z</time></trkpt><trkpt lat="43.32037893522385" lon="11.375310833244484"><ele>219.79999999999998</ele><time>2026-03-28T11:30:27Z</time></trkpt><trkpt lat="43.32028831018008" lon="11.375179465586642"><ele>219.39999999999998</ele><time>2026-03-28T11:30:28Z</time></trkpt><trkpt lat="43.32022472345746" lon="11.375079390390624"><ele>219.0</ele><time>2026-03-28T11:30:29Z</time></trkpt><trkpt lat="43.3201868647076" lon="11.374962713725889"><ele>219.0</ele><time>2026-03-28T11:30:30Z</time></trkpt><trkpt lat="43.32023411691117" lon="11.374847778425151"><ele>219.0</ele><time>2026-03-28T11:30:31Z</time></trkpt><trkpt lat="43.32026893737587" lon="11.374699912068605"><ele>219.0</ele><time>2026-03-28T11:30:32Z</time></trkpt><trkpt lat="43.32031193036594" lon="11.37451799691641"><ele>219.0</ele><time>2026-03-28T11:30:33Z</time></trkpt><trkpt lat="43.32037287337887" lon="11.37427239863443"><ele>219.66666666666669</ele><time>2026-03-28T11:30:34Z</time></trkpt><trkpt lat="43.320453896717545" lon="11.373978359946545"><ele>220.33333333333334</ele><time>2026-03-28T11:30:35Z</time></trkpt><trkpt lat="43.320548613525794" lon="11.373711019060828"><ele>221.0</ele><time>2026-03-28T11:30:36Z</time></trkpt><trkpt lat="43.320643560010396" lon="11.373493296541495"><ele>223.66666666666669</ele><time>2026-03-28T11:30:37Z</time></trkpt><trkpt lat="43.32073750875269" lon="11.373292544037957"><ele>226.33333333333331</ele><time>2026-03-28T11:30:38Z</time></trkpt><trkpt lat="43.32082814163523" lon="11.373108858400254"><ele>229.0</ele><time>2026-03-28T11:30:39Z</time></trkpt><trkpt lat="43.32090939991743" lon="11.372950046721076"><ele>231.25</ele><time>2026-03-28T11:30:40Z</time></trkpt><trkpt lat="43.32096266349136" lon="11.372799990295565"><ele>233.5</ele><time>2026-03-28T11:30:41Z</time></trkpt><trkpt lat="43.32102148354672" lon="11.372654782448945"><ele>235.75</ele><time>2026-03-28T11:30:42Z</time></trkpt><trkpt lat="43.32105132919306" lon="11.372467919376032"><ele>238.0</ele><time>2026-03-28T11:30:43Z</time></trkpt><trkpt lat="43.321081324426196" lon="11.37225838467266"><ele>241.0</ele><time>2026-03-28T11:30:44Z</time></trkpt><trkpt lat="43.321118891564325" lon="11.37201268118337"><ele>244.0</ele><time>2026-03-28T11:30:45Z</time></trkpt><trkpt lat="43.32115274771643" lon="11.371771223425046"><ele>247.0</ele><time>2026-03-28T11:30:46Z</time></trkpt><trkpt lat="43.32117708790271" lon="11.371536481050677"><ele>248.66666666666666</ele><time>2026-03-28T11:30:47Z</time></trkpt><trkpt lat="43.32119272237513" lon="11.371310446695363"><ele>250.33333333333331</ele><time>2026-03-28T11:30:48Z</time></trkpt><trkpt lat="43.321240742791744" lon="11.371088314262161"><ele>252.0</ele><time>2026-03-28T11:30:49Z</time></trkpt><trkpt lat="43.32130015829305" lon="11.370863591393377"><ele>252.0</ele><time>2026-03-28T11:30:50Z</time></trkpt><trkpt lat="43.321374200819584" lon="11.370664224491136"><ele>252.0</ele><time>2026-03-28T11:30:51Z</time></trkpt><trkpt lat="43.32147257193391" lon="11.37046393559736"><ele>252.0</ele><time>2026-03-28T11:30:52Z</time></trkpt><trkpt lat="43.32158966022299" lon="11.370227582883755"><ele>252.0</ele><time>2026-03-28T11:30:53Z</time></trkpt><trkpt lat="43.321713669306405" lon="11.369977259815245"><ele>252.0</ele><time>2026-03-28T11:30:54Z</time></trkpt><trkpt lat="43.32182137863953" lon="11.369760692698115"><ele>252.0</ele><time>2026-03-28T11:30:55Z</time></trkpt><trkpt lat="43.32191112554966" lon="11.369581388483192"><ele>253.5</ele><time>2026-03-28T11:30:56Z</time></trkpt><trkpt lat="43.32198328816778" lon="11.369439129385022"><ele>255.0</ele><time>2026-03-28T11:30:57Z</time></trkpt><trkpt lat="43.322034211617854" lon="11.369321112099668"><ele>256.5</ele><time>2026-03-28T11:30:58Z</time></trkpt><trkpt lat="43.32204782878678" lon="11.369225869294048"><ele>258.0</ele><time>2026-03-28T11:30:59Z</time></trkpt><trkpt lat="43.322033044424884" lon="11.369140825499585"><ele>259.5</ele><time>2026-03-28T11:31:00Z</time></trkpt><trkpt lat="43.32196661939154" lon="11.36909200870386"><ele>261.0</ele><time>2026-03-28T11:31:01Z</time></trkpt><trkpt lat="43.32186399271545" lon="11.369092534121162"><ele>261.0</ele><time>2026-03-28T11:31:02Z</time></trkpt><trkpt lat="43.32177671387857" lon="11.369190383233146"><ele>261.0</ele><time>2026-03-28T11:31:03Z</time></trkpt><trkpt lat="43.32167038890899" lon="11.369308275611521"><ele>261.0</ele><time>2026-03-28T11:31:04Z</time></trkpt><trkpt lat="43.3215693582175" lon="11.36941414185612"><ele>261.0</ele><time>2026-03-28T11:31:05Z</time></trkpt><trkpt lat="43.32146404552098" lon="11.369435406594002"><ele>261.40000000000003</ele><time>2026-03-28T11:31:06Z</time></trkpt><trkpt lat="43.321371866695266" lon="11.36937789549793"><ele>261.8</ele><time>2026-03-28T11:31:07Z</time></trkpt><trkpt lat="43.321281303687144" lon="11.369271567998464"><ele>262.20000000000005</ele><time>2026-03-28T11:31:08Z</time></trkpt><trkpt lat="43.3211851797313" lon="11.369158361831255"><ele>262.6</ele><time>2026-03-28T11:31:09Z</time></trkpt><trkpt lat="43.3211012351915" lon="11.36908740792412"><ele>263.0</ele><time>2026-03-28T11:31:10Z</time></trkpt><trkpt lat="43.32104576629561" lon="11.36902257959524"><ele>263.0</ele><time>2026-03-28T11:31:11Z</time></trkpt><trkpt lat="43.32100071140947" lon="11.368950942499449"><ele>263.0</ele><time>2026-03-28T11:31:12Z</time></trkpt><trkpt lat="43.32093274393844" lon="11.36882481188116"><ele>263.0</ele><time>2026-03-28T11:31:14Z</time></trkpt><trkpt lat="43.32096400562379" lon="11.36868036334817"><ele>263.0</ele><time>2026-03-28T11:31:16Z</time></trkpt><trkpt lat="43.32098380738359" lon="11.368588359879986"><ele>263.0</ele><time>2026-03-28T11:31:17Z</time></trkpt><trkpt lat="43.32101144723932" lon="11.368474307524552"><ele>263.0</ele><time>2026-03-28T11:31:18Z</time></trkpt><trkpt lat="43.321037539017844" lon="11.368363172149378"><ele>263.0</ele><time>2026-03-28T11:31:19Z</time></trkpt><trkpt lat="43.32106322301317" lon="11.36822926623993"><ele>263.0</ele><time>2026-03-28T11:31:20Z</time></trkpt><trkpt lat="43.32107993705223" lon="11.368083050670363"><ele>263.0</ele><time>2026-03-28T11:31:21Z</time></trkpt><trkpt lat="43.32108695609242" lon="11.367928535096059"><ele>263.0</ele><time>2026-03-28T11:31:22Z</time></trkpt><trkpt lat="43.32109335970629" lon="11.36776622620927"><ele>263.8</ele><time>2026-03-28T11:31:23Z</time></trkpt><trkpt lat="43.32110048722103" lon="11.36759936818509"><ele>264.6</ele><time>2026-03-28T11:31:24Z</time></trkpt><trkpt lat="43.321108115279706" lon="11.367448687847533"><ele>265.4</ele><time>2026-03-28T11:31:25Z</time></trkpt><trkpt lat="43.321114114734065" lon="11.367311458809793"><ele>266.2</ele><time>2026-03-28T11:31:26Z</time></trkpt><trkpt lat="43.3211165511046" lon="11.367172364581576"><ele>267.0</ele><time>2026-03-28T11:31:27Z</time></trkpt><trkpt lat="43.32110142563036" lon="11.367015831511626"><ele>268.0</ele><time>2026-03-28T11:31:28Z</time></trkpt><trkpt lat="43.321101854460906" lon="11.366845325403478"><ele>269.0</ele><time>2026-03-28T11:31:29Z</time></trkpt><trkpt lat="43.32110026624916" lon="11.366686837977504"><ele>270.0</ele><time>2026-03-28T11:31:30Z</time></trkpt><trkpt lat="43.321089274576686" lon="11.36654865000981"><ele>271.0</ele><time>2026-03-28T11:31:31.001Z</time></trkpt><trkpt lat="43.321066954362514" lon="11.366400914407402"><ele>271.0</ele><time>2026-03-28T11:31:32.001Z</time></trkpt><trkpt lat="43.32104110034366" lon="11.366264193465067"><ele>271.0</ele><time>2026-03-28T11:31:33.001Z</time></trkpt><trkpt lat="43.32101981242706" lon="11.366138289460988"><ele>271.0</ele><time>2026-03-28T11:31:34.001Z</time></trkpt><trkpt lat="43.32099811321021" lon="11.366012342109176"><ele>271.0</ele><time>2026-03-28T11:31:35.001Z</time></trkpt><trkpt lat="43.32097594421802" lon="11.365863994712331"><ele>271.0</ele><time>2026-03-28T11:31:36.001Z</time></trkpt><trkpt lat="43.32093660000088" lon="11.365708390287548"><ele>271.0</ele><time>2026-03-28T11:31:37.001Z</time></trkpt><trkpt lat="43.32088495280724" lon="11.365541219875665"><ele>271.0</ele><time>2026-03-28T11:31:38.001Z</time></trkpt><trkpt lat="43.32082729724631" lon="11.365383778188342"><ele>271.0</ele><time>2026-03-28T11:31:39.001Z</time></trkpt><trkpt lat="43.32078469581979" lon="11.36523306446395"><ele>271.0</ele><time>2026-03-28T11:31:40.001Z</time></trkpt><trkpt lat="43.32071184541113" lon="11.365098937087291"><ele>271.2</ele><time>2026-03-28T11:31:41.001Z</time></trkpt><trkpt lat="43.32065426727248" lon="11.364963858527911"><ele>271.40000000000003</ele><time>2026-03-28T11:31:42.001Z</time></trkpt><trkpt lat="43.320596595198495" lon="11.364836396908567"><ele>271.6</ele><time>2026-03-28T11:31:43.001Z</time></trkpt><trkpt lat="43.32053465547295" lon="11.364722064153208"><ele>271.8</ele><time>2026-03-28T11:31:44.001Z</time></trkpt><trkpt lat="43.3204782110038" lon="11.36460691345021"><ele>272.0</ele><time>2026-03-28T11:31:45.001Z</time></trkpt><trkpt lat="43.320415810781235" lon="11.364490675674428"><ele>272.4</ele><time>2026-03-28T11:31:46.001Z</time></trkpt><trkpt lat="43.320351912629015" lon="11.364386334872256"><ele>272.79999999999995</ele><time>2026-03-28T11:31:47.001Z</time></trkpt><trkpt lat="43.32028991684261" lon="11.364270635724536"><ele>273.2</ele><time>2026-03-28T11:31:48.001Z</time></trkpt><trkpt lat="43.32022734908222" lon="11.36415390250246"><ele>273.59999999999997</ele><time>2026-03-28T11:31:49.001Z</time></trkpt><trkpt lat="43.320154037468455" lon="11.364045159886402"><ele>274.0</ele><time>2026-03-28T11:31:50.001Z</time></trkpt><trkpt lat="43.320079649535046" lon="11.36391923446152"><ele>272.5</ele><time>2026-03-28T11:31:51.001Z</time></trkpt><trkpt lat="43.32000153294353" lon="11.363796484579739"><ele>271.0</ele><time>2026-03-28T11:31:52.001Z</time></trkpt><trkpt lat="43.31991820319165" lon="11.363679158878552"><ele>269.5</ele><time>2026-03-28T11:31:53.001Z</time></trkpt><trkpt lat="43.31984065046771" lon="11.363569830239168"><ele>268.0</ele><time>2026-03-28T11:31:54.001Z</time></trkpt><trkpt lat="43.31976707052185" lon="11.363467061493374"><ele>268.4</ele><time>2026-03-28T11:31:55.001Z</time></trkpt><trkpt lat="43.31970079122234" lon="11.363384422832162"><ele>268.8</ele><time>2026-03-28T11:31:56.001Z</time></trkpt><trkpt lat="43.31964131419368" lon="11.36330648433889"><ele>269.2</ele><time>2026-03-28T11:31:57.001Z</time></trkpt><trkpt lat="43.31958243957767" lon="11.363229285827222"><ele>269.6</ele><time>2026-03-28T11:31:58.001Z</time></trkpt><trkpt lat="43.31951912278565" lon="11.36312375443458"><ele>270.0</ele><time>2026-03-28T11:31:59.001Z</time></trkpt><trkpt lat="43.31946651633191" lon="11.362989995267757"><ele>270.0</ele><time>2026-03-28T11:32:00.001Z</time></trkpt><trkpt lat="43.31942842134385" lon="11.362869655326126"><ele>270.0</ele><time>2026-03-28T11:32:01.001Z</time></trkpt><trkpt lat="43.31941621838714" lon="11.362746958169875"><ele>270.0</ele><time>2026-03-28T11:32:02.001Z</time></trkpt><trkpt lat="43.31937352806753" lon="11.362638398278715"><ele>270.0</ele><time>2026-03-28T11:32:03.001Z</time></trkpt><trkpt lat="43.319321413188966" lon="11.362526240530169"><ele>270.0</ele><time>2026-03-28T11:32:04.001Z</time></trkpt><trkpt lat="43.319257520274455" lon="11.362428116717847"><ele>270.0</ele><time>2026-03-28T11:32:05.001Z</time></trkpt><trkpt lat="43.31918270495586" lon="11.36232254464806"><ele>270.0</ele><time>2026-03-28T11:32:06.001Z</time></trkpt><trkpt lat="43.3191005409631" lon="11.362194385619256"><ele>270.0</ele><time>2026-03-28T11:32:07.001Z</time></trkpt><trkpt lat="43.31901010577136" lon="11.36206598732705"><ele>270.0</ele><time>2026-03-28T11:32:08.001Z</time></trkpt><trkpt lat="43.318929640334346" lon="11.361944754503703"><ele>269.0</ele><time>2026-03-28T11:32:09.001Z</time></trkpt><trkpt lat="43.318850745304495" lon="11.361814382161073"><ele>268.0</ele><time>2026-03-28T11:32:10.001Z</time></trkpt><trkpt lat="43.31878021352284" lon="11.361694423893656"><ele>267.0</ele><time>2026-03-28T11:32:11.001Z</time></trkpt><trkpt lat="43.318710844230836" lon="11.36154880140387"><ele>266.0</ele><time>2026-03-28T11:32:12.001Z</time></trkpt><trkpt lat="43.31864670978112" lon="11.361378645613286"><ele>264.0</ele><time>2026-03-28T11:32:13.001Z</time></trkpt><trkpt lat="43.31859087065841" lon="11.361213285661204"><ele>262.0</ele><time>2026-03-28T11:32:14.001Z</time></trkpt><trkpt lat="43.318542037945896" lon="11.361058080525918"><ele>260.0</ele><time>2026-03-28T11:32:15.001Z</time></trkpt><trkpt lat="43.318490258731664" lon="11.360897052996004"><ele>258.0</ele><time>2026-03-28T11:32:16.001Z</time></trkpt><trkpt lat="43.318424053201554" lon="11.360745500164345"><ele>258.0</ele><time>2026-03-28T11:32:17.001Z</time></trkpt><trkpt lat="43.31835425864077" lon="11.360602746179813"><ele>258.0</ele><time>2026-03-28T11:32:18.001Z</time></trkpt><trkpt lat="43.31830335735408" lon="11.360455211900556"><ele>258.0</ele><time>2026-03-28T11:32:19Z</time></trkpt><trkpt lat="43.31823996600706" lon="11.360302778709489"><ele>258.0</ele><time>2026-03-28T11:32:20Z</time></trkpt><trkpt lat="43.31816822348444" lon="11.360162685228405"><ele>256.25</ele><time>2026-03-28T11:32:21Z</time></trkpt><trkpt lat="43.3180865975275" lon="11.360034970860163"><ele>254.5</ele><time>2026-03-28T11:32:22Z</time></trkpt><trkpt lat="43.31800056570995" lon="11.359913012331118"><ele>252.75</ele><time>2026-03-28T11:32:23Z</time></trkpt><trkpt lat="43.317925706792956" lon="11.35977791836423"><ele>251.0</ele><time>2026-03-28T11:32:24Z</time></trkpt><trkpt lat="43.31786147735751" lon="11.3596414100899"><ele>249.0</ele><time>2026-03-28T11:32:25Z</time></trkpt><trkpt lat="43.31781903996715" lon="11.359499873891126"><ele>247.00000000000003</ele><time>2026-03-28T11:32:26Z</time></trkpt><trkpt lat="43.31777553447576" lon="11.359351666538945"><ele>245.00000000000003</ele><time>2026-03-28T11:32:27Z</time></trkpt><trkpt lat="43.31775530878008" lon="11.359203337474659"><ele>243.0</ele><time>2026-03-28T11:32:28Z</time></trkpt><trkpt lat="43.317732265905946" lon="11.359062638425995"><ele>241.0</ele><time>2026-03-28T11:32:29Z</time></trkpt><trkpt lat="43.31770479861233" lon="11.35892043565284"><ele>240.20000000000002</ele><time>2026-03-28T11:32:30Z</time></trkpt><trkpt lat="43.31766834606819" lon="11.358791483229965"><ele>239.40000000000003</ele><time>2026-03-28T11:32:31Z</time></trkpt><trkpt lat="43.31761405259593" lon="11.35865087774473"><ele>238.6</ele><time>2026-03-28T11:32:32Z</time></trkpt><trkpt lat="43.31754078041109" lon="11.358541466047143"><ele>237.8</ele><time>2026-03-28T11:32:33Z</time></trkpt><trkpt lat="43.31745490109741" lon="11.358446105440224"><ele>237.0</ele><time>2026-03-28T11:32:34Z</time></trkpt><trkpt lat="43.31736212006131" lon="11.358381960194508"><ele>237.0</ele><time>2026-03-28T11:32:35Z</time></trkpt><trkpt lat="43.317268069227126" lon="11.358341086322136"><ele>237.0</ele><time>2026-03-28T11:32:36Z</time></trkpt><trkpt lat="43.3171803848958" lon="11.358318820483417"><ele>237.0</ele><time>2026-03-28T11:32:37Z</time></trkpt><trkpt lat="43.31709165239203" lon="11.358308736456564"><ele>237.0</ele><time>2026-03-28T11:32:38Z</time></trkpt><trkpt lat="43.316989371959856" lon="11.358305801292984"><ele>237.0</ele><time>2026-03-28T11:32:39Z</time></trkpt><trkpt lat="43.31687658641768" lon="11.358301111757095"><ele>235.75</ele><time>2026-03-28T11:32:40Z</time></trkpt><trkpt lat="43.316757855332476" lon="11.358264004458604"><ele>234.5</ele><time>2026-03-28T11:32:41Z</time></trkpt><trkpt lat="43.31666158420492" lon="11.358172243960322"><ele>233.25</ele><time>2026-03-28T11:32:42Z</time></trkpt><trkpt lat="43.31658485890545" lon="11.358060520131303"><ele>232.0</ele><time>2026-03-28T11:32:43Z</time></trkpt><trkpt lat="43.31649294882063" lon="11.357924660800473"><ele>230.75</ele><time>2026-03-28T11:32:44Z</time></trkpt><trkpt lat="43.316399480589915" lon="11.357781407651634"><ele>229.5</ele><time>2026-03-28T11:32:45Z</time></trkpt><trkpt lat="43.316322297151494" lon="11.357643745922486"><ele>228.25</ele><time>2026-03-28T11:32:46Z</time></trkpt><trkpt lat="43.316247119620584" lon="11.35752770802647"><ele>227.0</ele><time>2026-03-28T11:32:47Z</time></trkpt><trkpt lat="43.31617488813704" lon="11.357423385907573"><ele>227.0</ele><time>2026-03-28T11:32:48Z</time></trkpt><trkpt lat="43.316133630854594" lon="11.357283415864321"><ele>227.0</ele><time>2026-03-28T11:32:49Z</time></trkpt><trkpt lat="43.31609169485728" lon="11.357124866427737"><ele>227.0</ele><time>2026-03-28T11:32:50Z</time></trkpt><trkpt lat="43.316063476610815" lon="11.35698408134731"><ele>227.0</ele><time>2026-03-28T11:32:51Z</time></trkpt><trkpt lat="43.316053781042356" lon="11.356859520604564"><ele>227.0</ele><time>2026-03-28T11:32:52Z</time></trkpt><trkpt lat="43.31603046986135" lon="11.35673535881878"><ele>226.83333333333334</ele><time>2026-03-28T11:32:53Z</time></trkpt><trkpt lat="43.31604278740419" lon="11.356622369194556"><ele>226.66666666666669</ele><time>2026-03-28T11:32:54Z</time></trkpt><trkpt lat="43.316042239217445" lon="11.356526461090233"><ele>226.5</ele><time>2026-03-28T11:32:55Z</time></trkpt><trkpt lat="43.31603556039207" lon="11.35639741101465"><ele>226.33333333333331</ele><time>2026-03-28T11:32:57Z</time></trkpt><trkpt lat="43.31601143089269" lon="11.356261393252469"><ele>226.16666666666666</ele><time>2026-03-28T11:33:02Z</time></trkpt><trkpt lat="43.31597761660148" lon="11.356145817047748"><ele>226.0</ele><time>2026-03-28T11:33:05Z</time></trkpt><trkpt lat="43.31600426725376" lon="11.356059197469094"><ele>225.83333333333331</ele><time>2026-03-28T11:33:06Z</time></trkpt><trkpt lat="43.316074484560986" lon="11.355982872036561"><ele>225.66666666666666</ele><time>2026-03-28T11:33:07Z</time></trkpt><trkpt lat="43.31612197304106" lon="11.355907274067974"><ele>225.5</ele><time>2026-03-28T11:33:09Z</time></trkpt><trkpt lat="43.31617405617068" lon="11.35581815312651"><ele>225.33333333333331</ele><time>2026-03-28T11:33:13Z</time></trkpt><trkpt lat="43.31623970825838" lon="11.355713709224654"><ele>225.16666666666666</ele><time>2026-03-28T11:33:15Z</time></trkpt><trkpt lat="43.31631549160682" lon="11.355616990812852"><ele>225.0</ele><time>2026-03-28T11:33:17Z</time></trkpt><trkpt lat="43.3163777016769" lon="11.355505932305121"><ele>225.4</ele><time>2026-03-28T11:33:19Z</time></trkpt><trkpt lat="43.31639899389901" lon="11.355372480976023"><ele>225.8</ele><time>2026-03-28T11:33:21Z</time></trkpt><trkpt lat="43.316311857101596" lon="11.355266922898965"><ele>226.2</ele><time>2026-03-28T11:33:23Z</time></trkpt><trkpt lat="43.3162105031441" lon="11.355223145148502"><ele>226.6</ele><time>2026-03-28T11:33:25Z</time></trkpt><trkpt lat="43.31611017469822" lon="11.355294256959343"><ele>227.0</ele><time>2026-03-28T11:33:27Z</time></trkpt><trkpt lat="43.31606874075616" lon="11.355443507109584"><ele>226.71428571428572</ele><time>2026-03-28T11:33:29Z</time></trkpt><trkpt lat="43.31606271401725" lon="11.355544576637566"><ele>226.42857142857144</ele><time>2026-03-28T11:33:30Z</time></trkpt><trkpt lat="43.316052506576085" lon="11.355643917275758"><ele>226.14285714285717</ele><time>2026-03-28T11:33:31Z</time></trkpt><trkpt lat="43.316032323110946" lon="11.355732083141326"><ele>225.8571428571429</ele><time>2026-03-28T11:33:32Z</time></trkpt><trkpt lat="43.31599264194726" lon="11.355811290018877"><ele>225.57142857142858</ele><time>2026-03-28T11:33:33.001Z</time></trkpt><trkpt lat="43.315953205761026" lon="11.355881617519643"><ele>225.28571428571433</ele><time>2026-03-28T11:33:34.001Z</time></trkpt><trkpt lat="43.315907794340625" lon="11.355945188594015"><ele>225.00000000000003</ele><time>2026-03-28T11:33:35.001Z</time></trkpt><trkpt lat="43.315861965431566" lon="11.356005281155525"><ele>225.0</ele><time>2026-03-28T11:33:36.001Z</time></trkpt><trkpt lat="43.315734138941075" lon="11.355930449493146"><ele>225.0</ele><time>2026-03-28T11:33:38.001Z</time></trkpt><trkpt lat="43.31565036853873" lon="11.355892978596295"><ele>225.0</ele><time>2026-03-28T11:33:39.001Z</time></trkpt><trkpt lat="43.31554940389078" lon="11.355851093779412"><ele>225.0</ele><time>2026-03-28T11:33:40.001Z</time></trkpt><trkpt lat="43.31543321681434" lon="11.355818611790506"><ele>225.8</ele><time>2026-03-28T11:33:41.001Z</time></trkpt><trkpt lat="43.315329248136514" lon="11.355797901139926"><ele>226.6</ele><time>2026-03-28T11:33:42.001Z</time></trkpt><trkpt lat="43.315239043202475" lon="11.355798067790124"><ele>227.39999999999998</ele><time>2026-03-28T11:33:43.001Z</time></trkpt><trkpt lat="43.31515378417106" lon="11.35582361711608"><ele>228.2</ele><time>2026-03-28T11:33:44.001Z</time></trkpt><trkpt lat="43.31506728798122" lon="11.355884833154816"><ele>229.0</ele><time>2026-03-28T11:33:45.001Z</time></trkpt><trkpt lat="43.31497309804414" lon="11.355990412139676"><ele>229.0</ele><time>2026-03-28T11:33:46.001Z</time></trkpt><trkpt lat="43.314866894982906" lon="11.356096749888902"><ele>229.0</ele><time>2026-03-28T11:33:47.001Z</time></trkpt><trkpt lat="43.31474752871062" lon="11.356208255579118"><ele>229.0</ele><time>2026-03-28T11:33:48.001Z</time></trkpt><trkpt lat="43.314647851384365" lon="11.35629872907922"><ele>229.0</ele><time>2026-03-28T11:33:49.001Z</time></trkpt><trkpt lat="43.31457034323688" lon="11.356374846478461"><ele>229.79999999999998</ele><time>2026-03-28T11:33:50.001Z</time></trkpt><trkpt lat="43.31450199680714" lon="11.356402521044332"><ele>230.59999999999997</ele><time>2026-03-28T11:33:51.001Z</time></trkpt><trkpt lat="43.31441183085638" lon="11.356368254633415"><ele>231.4</ele><time>2026-03-28T11:33:53.001Z</time></trkpt><trkpt lat="43.314396104834145" lon="11.356239147448905"><ele>232.2</ele><time>2026-03-28T11:33:54.001Z</time></trkpt><trkpt lat="43.31439883836098" lon="11.356152510320461"><ele>233.0</ele><time>2026-03-28T11:33:55.001Z</time></trkpt><trkpt lat="43.31449218738681" lon="11.356006070129212"><ele>235.5</ele><time>2026-03-28T11:33:56.001Z</time></trkpt><trkpt lat="43.314555331544874" lon="11.355883789944592"><ele>238.0</ele><time>2026-03-28T11:33:57.001Z</time></trkpt><trkpt lat="43.31459218435673" lon="11.355751723719168"><ele>240.5</ele><time>2026-03-28T11:33:58.001Z</time></trkpt><trkpt lat="43.31462424545342" lon="11.355594404070876"><ele>243.0</ele><time>2026-03-28T11:33:59.001Z</time></trkpt><trkpt lat="43.31464658991025" lon="11.355431307717355"><ele>245.75</ele><time>2026-03-28T11:34:00.001Z</time></trkpt><trkpt lat="43.314664910649846" lon="11.355277398199988"><ele>248.5</ele><time>2026-03-28T11:34:01.001Z</time></trkpt><trkpt lat="43.31467334653126" lon="11.355119263297548"><ele>251.25</ele><time>2026-03-28T11:34:02.001Z</time></trkpt><trkpt lat="43.31467750364711" lon="11.35494515910502"><ele>254.0</ele><time>2026-03-28T11:34:03.001Z</time></trkpt><trkpt lat="43.314649901318866" lon="11.354787037155951"><ele>255.0</ele><time>2026-03-28T11:34:04.001Z</time></trkpt><trkpt lat="43.314643125663515" lon="11.354644075374887"><ele>255.99999999999997</ele><time>2026-03-28T11:34:05.001Z</time></trkpt><trkpt lat="43.314611653408896" lon="11.354521247603708"><ele>257.0</ele><time>2026-03-28T11:34:06.001Z</time></trkpt><trkpt lat="43.31455675865525" lon="11.354404803588801"><ele>258.0</ele><time>2026-03-28T11:34:07.001Z</time></trkpt><trkpt lat="43.31447554969241" lon="11.354294764955647"><ele>259.0</ele><time>2026-03-28T11:34:08.001Z</time></trkpt><trkpt lat="43.314386521460946" lon="11.354210518711366"><ele>259.0</ele><time>2026-03-28T11:34:09.001Z</time></trkpt><trkpt lat="43.314330463482314" lon="11.354072319753962"><ele>259.0</ele><time>2026-03-28T11:34:10.001Z</time></trkpt><trkpt lat="43.314279642490455" lon="11.353929835406973"><ele>259.0</ele><time>2026-03-28T11:34:11.001Z</time></trkpt><trkpt lat="43.31417970054362" lon="11.353694020447078"><ele>259.0</ele><time>2026-03-28T11:34:13.001Z</time></trkpt><trkpt lat="43.31408974070414" lon="11.353575326327798"><ele>257.66666666666663</ele><time>2026-03-28T11:34:14.001Z</time></trkpt><trkpt lat="43.313971980871806" lon="11.353444075913295"><ele>256.3333333333333</ele><time>2026-03-28T11:34:15.001Z</time></trkpt><trkpt lat="43.313832163789996" lon="11.353278067841352"><ele>255.0</ele><time>2026-03-28T11:34:16.001Z</time></trkpt><trkpt lat="43.31370911465426" lon="11.353128015788348"><ele>258.5</ele><time>2026-03-28T11:34:17.001Z</time></trkpt><trkpt lat="43.313596652531096" lon="11.352987426465866"><ele>262.0</ele><time>2026-03-28T11:34:18.001Z</time></trkpt><trkpt lat="43.31348729836111" lon="11.35283848560125"><ele>265.5</ele><time>2026-03-28T11:34:19.001Z</time></trkpt><trkpt lat="43.313396159501934" lon="11.352690624486723"><ele>269.0</ele><time>2026-03-28T11:34:20.001Z</time></trkpt><trkpt lat="43.31331995308699" lon="11.352589820744774"><ele>269.0</ele><time>2026-03-28T11:34:21.001Z</time></trkpt><trkpt lat="43.313283212355564" lon="11.35251265992937"><ele>269.0</ele><time>2026-03-28T11:34:22.001Z</time></trkpt><trkpt lat="43.31323509056921" lon="11.352427321828145"><ele>269.0</ele><time>2026-03-28T11:34:24.001Z</time></trkpt><trkpt lat="43.31321037325648" lon="11.352341426824264"><ele>269.0</ele><time>2026-03-28T11:34:29Z</time></trkpt><trkpt lat="43.31315754610533" lon="11.352234032256197"><ele>269.0</ele><time>2026-03-28T11:34:31Z</time></trkpt><trkpt lat="43.31311280238552" lon="11.352143071441262"><ele>269.0</ele><time>2026-03-28T11:34:32Z</time></trkpt><trkpt lat="43.31305744110655" lon="11.352034981961886"><ele>270.1666666666667</ele><time>2026-03-28T11:34:33Z</time></trkpt><trkpt lat="43.31301438642172" lon="11.351936327898082"><ele>271.33333333333337</ele><time>2026-03-28T11:34:34Z</time></trkpt><trkpt lat="43.31297592504949" lon="11.351836567307977"><ele>272.5</ele><time>2026-03-28T11:34:35Z</time></trkpt><trkpt lat="43.31294149515384" lon="11.351733753882373"><ele>273.6666666666667</ele><time>2026-03-28T11:34:36Z</time></trkpt><trkpt lat="43.31291378139794" lon="11.351632773314833"><ele>274.8333333333333</ele><time>2026-03-28T11:34:37Z</time></trkpt><trkpt lat="43.31287378696636" lon="11.351543118813577"><ele>276.0</ele><time>2026-03-28T11:34:38Z</time></trkpt><trkpt lat="43.31285621864022" lon="11.351438953324086"><ele>276.8333333333333</ele><time>2026-03-28T11:34:39Z</time></trkpt><trkpt lat="43.31283700244733" lon="11.351328779899289"><ele>277.6666666666667</ele><time>2026-03-28T11:34:40Z</time></trkpt><trkpt lat="43.3128211502356" lon="11.351215707973815"><ele>278.5</ele><time>2026-03-28T11:34:41Z</time></trkpt><trkpt lat="43.31279737305401" lon="11.351119822745025"><ele>279.33333333333337</ele><time>2026-03-28T11:34:42Z</time></trkpt><trkpt lat="43.31276587533747" lon="11.350975128336575"><ele>280.1666666666667</ele><time>2026-03-28T11:34:44Z</time></trkpt><trkpt lat="43.31275018149831" lon="11.350879510336773"><ele>281.0</ele><time>2026-03-28T11:34:45Z</time></trkpt><trkpt lat="43.312728664151216" lon="11.350791111034775"><ele>281.0</ele><time>2026-03-28T11:34:46Z</time></trkpt><trkpt lat="43.31270467187007" lon="11.350694096741334"><ele>281.0</ele><time>2026-03-28T11:34:48Z</time></trkpt><trkpt lat="43.31265256822419" lon="11.350572765008263"><ele>281.0</ele><time>2026-03-28T11:34:51Z</time></trkpt><trkpt lat="43.31262211306858" lon="11.350464355103163"><ele>281.0</ele><time>2026-03-28T11:34:53Z</time></trkpt><trkpt lat="43.312564576302016" lon="11.350304085920351"><ele>281.0</ele><time>2026-03-28T11:34:55Z</time></trkpt><trkpt lat="43.31252572162646" lon="11.350209895157294"><ele>280.6666666666667</ele><time>2026-03-28T11:34:56Z</time></trkpt><trkpt lat="43.31249548231574" lon="11.350116912151108"><ele>280.33333333333337</ele><time>2026-03-28T11:34:57Z</time></trkpt><trkpt lat="43.31247244356351" lon="11.350020917838878"><ele>280.0</ele><time>2026-03-28T11:34:58Z</time></trkpt><trkpt lat="43.312488635336926" lon="11.349934053000435"><ele>279.6666666666667</ele><time>2026-03-28T11:34:59Z</time></trkpt><trkpt lat="43.31250687959229" lon="11.34978522527989"><ele>279.3333333333333</ele><time>2026-03-28T11:35:01Z</time></trkpt><trkpt lat="43.3125590938926" lon="11.34965465779436"><ele>279.0</ele><time>2026-03-28T11:35:03Z</time></trkpt><trkpt lat="43.31260657077515" lon="11.349577025544194"><ele>278.0</ele><time>2026-03-28T11:35:04Z</time></trkpt><trkpt lat="43.31264445109018" lon="11.349486661199544"><ele>277.0</ele><time>2026-03-28T11:35:05Z</time></trkpt><trkpt lat="43.31268466490244" lon="11.349383315105719"><ele>276.0</ele><time>2026-03-28T11:35:06Z</time></trkpt><trkpt lat="43.31271501554074" lon="11.349287575228217"><ele>275.0</ele><time>2026-03-28T11:35:07Z</time></trkpt><trkpt lat="43.312750492145554" lon="11.349153751771537"><ele>274.0</ele><time>2026-03-28T11:35:09Z</time></trkpt><trkpt lat="43.31275315661676" lon="11.348972027533609"><ele>273.3333333333333</ele><time>2026-03-28T11:35:11Z</time></trkpt><trkpt lat="43.31273945477976" lon="11.348866197695411"><ele>272.66666666666663</ele><time>2026-03-28T11:35:12Z</time></trkpt><trkpt lat="43.31271513376979" lon="11.348757541115603"><ele>272.0</ele><time>2026-03-28T11:35:13Z</time></trkpt><trkpt lat="43.31268599502204" lon="11.348653862005762"><ele>271.3333333333333</ele><time>2026-03-28T11:35:14Z</time></trkpt><trkpt lat="43.31265370299634" lon="11.348557634666275"><ele>270.6666666666667</ele><time>2026-03-28T11:35:15Z</time></trkpt><trkpt lat="43.312620120530305" lon="11.348476712183057"><ele>270.0</ele><time>2026-03-28T11:35:16Z</time></trkpt><trkpt lat="43.31255198119355" lon="11.348337943183378"><ele>270.0</ele><time>2026-03-28T11:35:18Z</time></trkpt><trkpt lat="43.31250700987532" lon="11.348265086333399"><ele>270.0</ele><time>2026-03-28T11:35:19Z</time></trkpt><trkpt lat="43.31243009361066" lon="11.34815313817963"><ele>270.0</ele><time>2026-03-28T11:35:21Z</time></trkpt><trkpt lat="43.31236448079402" lon="11.348074770750278"><ele>270.0</ele><time>2026-03-28T11:35:23Z</time></trkpt><trkpt lat="43.31231805018853" lon="11.34798966860718"><ele>270.0</ele><time>2026-03-28T11:35:27Z</time></trkpt><trkpt lat="43.31221048908581" lon="11.348106802608738"><ele>269.0</ele><time>2026-03-28T11:35:30Z</time></trkpt><trkpt lat="43.31217749685306" lon="11.348205596514012"><ele>268.0</ele><time>2026-03-28T11:35:32Z</time></trkpt><trkpt lat="43.31213611879446" lon="11.348299364924415"><ele>267.0</ele><time>2026-03-28T11:35:35Z</time></trkpt><trkpt lat="43.312095820495706" lon="11.348374662717132"><ele>266.0</ele><time>2026-03-28T11:35:37.001Z</time></trkpt><trkpt lat="43.31204560137305" lon="11.348531134042274"><ele>265.0</ele><time>2026-03-28T11:35:39.001Z</time></trkpt><trkpt lat="43.312011991398" lon="11.348661770581428"><ele>265.0</ele><time>2026-03-28T11:35:40.001Z</time></trkpt><trkpt lat="43.31198645217201" lon="11.348777531365494"><ele>265.0</ele><time>2026-03-28T11:35:41.001Z</time></trkpt><trkpt lat="43.31195485940885" lon="11.348916266971836"><ele>265.0</ele><time>2026-03-28T11:35:42.001Z</time></trkpt><trkpt lat="43.3119021985512" lon="11.349080760802705"><ele>265.0</ele><time>2026-03-28T11:35:43.001Z</time></trkpt><trkpt lat="43.311841649862984" lon="11.34926237459634"><ele>264.25</ele><time>2026-03-28T11:35:44.001Z</time></trkpt><trkpt lat="43.31178346716258" lon="11.349403618919286"><ele>263.5</ele><time>2026-03-28T11:35:45.001Z</time></trkpt><trkpt lat="43.31171723215879" lon="11.349526127124772"><ele>262.75</ele><time>2026-03-28T11:35:46.001Z</time></trkpt><trkpt lat="43.3116319442923" lon="11.349638032041232"><ele>262.0</ele><time>2026-03-28T11:35:47.001Z</time></trkpt><trkpt lat="43.31154062120469" lon="11.349724173019977"><ele>262.0</ele><time>2026-03-28T11:35:48.001Z</time></trkpt><trkpt lat="43.311437698234954" lon="11.349791273795597"><ele>262.0</ele><time>2026-03-28T11:35:49.001Z</time></trkpt><trkpt lat="43.31132812082104" lon="11.349823578749353"><ele>262.0</ele><time>2026-03-28T11:35:50.001Z</time></trkpt><trkpt lat="43.31123294782057" lon="11.349863349180437"><ele>262.0</ele><time>2026-03-28T11:35:51.001Z</time></trkpt><trkpt lat="43.311149314008674" lon="11.349916958638339"><ele>262.0</ele><time>2026-03-28T11:35:52.001Z</time></trkpt><trkpt lat="43.31107032526278" lon="11.349918598620574"><ele>262.0</ele><time>2026-03-28T11:35:53.001Z</time></trkpt><trkpt lat="43.31100281421539" lon="11.349938875797038"><ele>262.0</ele><time>2026-03-28T11:35:54.001Z</time></trkpt><trkpt lat="43.31088770185418" lon="11.349993800523741"><ele>262.0</ele><time>2026-03-28T11:35:56.001Z</time></trkpt><trkpt lat="43.310809315864326" lon="11.350020333448226"><ele>262.0</ele><time>2026-03-28T11:35:57.001Z</time></trkpt><trkpt lat="43.31072250682541" lon="11.350051046660345"><ele>262.0</ele><time>2026-03-28T11:35:58.001Z</time></trkpt><trkpt lat="43.31064337860048" lon="11.350081029069829"><ele>262.0</ele><time>2026-03-28T11:35:59.001Z</time></trkpt><trkpt lat="43.310568635240266" lon="11.350114776032598"><ele>262.0</ele><time>2026-03-28T11:36:00.001Z</time></trkpt><trkpt lat="43.31050237157304" lon="11.350162416684194"><ele>262.0</ele><time>2026-03-28T11:36:01.001Z</time></trkpt><trkpt lat="43.310434676974914" lon="11.350213901600627"><ele>262.0</ele><time>2026-03-28T11:36:03.001Z</time></trkpt><trkpt lat="43.310359258368436" lon="11.350269074682975"><ele>262.0</ele><time>2026-03-28T11:36:05.001Z</time></trkpt><trkpt lat="43.31030837120454" lon="11.350336328621529"><ele>262.0</ele><time>2026-03-28T11:36:06.001Z</time></trkpt><trkpt lat="43.31024716189302" lon="11.35041662403799"><ele>262.0</ele><time>2026-03-28T11:36:07.001Z</time></trkpt><trkpt lat="43.31017660777422" lon="11.350493252314918"><ele>261.75</ele><time>2026-03-28T11:36:08.001Z</time></trkpt><trkpt lat="43.31009655275363" lon="11.350608385194976"><ele>261.5</ele><time>2026-03-28T11:36:09.001Z</time></trkpt><trkpt lat="43.31000446139377" lon="11.350739808725793"><ele>261.25</ele><time>2026-03-28T11:36:10.001Z</time></trkpt><trkpt lat="43.3099083439605" lon="11.350854643904762"><ele>261.0</ele><time>2026-03-28T11:36:11.001Z</time></trkpt><trkpt lat="43.30982747312139" lon="11.350975843848245"><ele>261.0</ele><time>2026-03-28T11:36:12.001Z</time></trkpt><trkpt lat="43.309755178908844" lon="11.351124611083586"><ele>261.0</ele><time>2026-03-28T11:36:13.001Z</time></trkpt><trkpt lat="43.309687830105815" lon="11.351309533414108"><ele>261.0</ele><time>2026-03-28T11:36:14.001Z</time></trkpt><trkpt lat="43.309623109109495" lon="11.351492798680779"><ele>261.0</ele><time>2026-03-28T11:36:15.001Z</time></trkpt><trkpt lat="43.309572147771796" lon="11.351680051515437"><ele>262.0</ele><time>2026-03-28T11:36:16.001Z</time></trkpt><trkpt lat="43.30953201221255" lon="11.351886327444287"><ele>263.0</ele><time>2026-03-28T11:36:17.001Z</time></trkpt><trkpt lat="43.309493679422886" lon="11.352105813271217"><ele>264.0</ele><time>2026-03-28T11:36:18.001Z</time></trkpt><trkpt lat="43.309458088901685" lon="11.352300719390803"><ele>264.0</ele><time>2026-03-28T11:36:19.001Z</time></trkpt><trkpt lat="43.30942793779452" lon="11.35248178751691"><ele>264.0</ele><time>2026-03-28T11:36:20.001Z</time></trkpt><trkpt lat="43.30939917641321" lon="11.352660132224882"><ele>264.0</ele><time>2026-03-28T11:36:21.001Z</time></trkpt><trkpt lat="43.30936859429102" lon="11.352831242668167"><ele>264.0</ele><time>2026-03-28T11:36:22.001Z</time></trkpt><trkpt lat="43.30934085845579" lon="11.352994344799946"><ele>264.2</ele><time>2026-03-28T11:36:23.001Z</time></trkpt><trkpt lat="43.30931784713784" lon="11.353160232324"><ele>264.4</ele><time>2026-03-28T11:36:24.001Z</time></trkpt><trkpt lat="43.30929155884254" lon="11.353304070728727"><ele>264.6</ele><time>2026-03-28T11:36:25.001Z</time></trkpt><trkpt lat="43.309259295389985" lon="11.35343263141261"><ele>264.8</ele><time>2026-03-28T11:36:26.001Z</time></trkpt><trkpt lat="43.30923983291712" lon="11.353557624801939"><ele>265.0</ele><time>2026-03-28T11:36:27.001Z</time></trkpt><trkpt lat="43.309229047391106" lon="11.353683167913104"><ele>265.0</ele><time>2026-03-28T11:36:28.001Z</time></trkpt><trkpt lat="43.30922813099637" lon="11.353814266936709"><ele>265.0</ele><time>2026-03-28T11:36:29.001Z</time></trkpt><trkpt lat="43.30922489852785" lon="11.353949286878478"><ele>265.0</ele><time>2026-03-28T11:36:30.001Z</time></trkpt><trkpt lat="43.30921888775726" lon="11.354082798786752"><ele>265.0</ele><time>2026-03-28T11:36:30.999Z</time></trkpt><trkpt lat="43.30922206069499" lon="11.354218427712473"><ele>265.0</ele><time>2026-03-28T11:36:31.999Z</time></trkpt><trkpt lat="43.30920949500683" lon="11.354359168521569"><ele>264.6</ele><time>2026-03-28T11:36:32.999Z</time></trkpt><trkpt lat="43.30920589292771" lon="11.354513620382908"><ele>264.2</ele><time>2026-03-28T11:36:33.999Z</time></trkpt><trkpt lat="43.30920280822569" lon="11.354650085729547"><ele>263.8</ele><time>2026-03-28T11:36:34.999Z</time></trkpt><trkpt lat="43.30920201980558" lon="11.354782598157977"><ele>263.4</ele><time>2026-03-28T11:36:35.999Z</time></trkpt><trkpt lat="43.309213116025134" lon="11.354923970770226"><ele>263.0</ele><time>2026-03-28T11:36:36.999Z</time></trkpt><trkpt lat="43.309228108762355" lon="11.355072471076468"><ele>263.0</ele><time>2026-03-28T11:36:37.999Z</time></trkpt><trkpt lat="43.30926167445106" lon="11.355229071894364"><ele>263.0</ele><time>2026-03-28T11:36:38.999Z</time></trkpt><trkpt lat="43.30929870849108" lon="11.355379034486319"><ele>263.0</ele><time>2026-03-28T11:36:39.999Z</time></trkpt><trkpt lat="43.30933446072088" lon="11.35554755494495"><ele>263.0</ele><time>2026-03-28T11:36:40.999Z</time></trkpt><trkpt lat="43.30936682685733" lon="11.355701561346471"><ele>262.6</ele><time>2026-03-28T11:36:41.999Z</time></trkpt><trkpt lat="43.30939116328495" lon="11.355843903346882"><ele>262.20000000000005</ele><time>2026-03-28T11:36:42.999Z</time></trkpt><trkpt lat="43.30942946659921" lon="11.355989002431969"><ele>261.8</ele><time>2026-03-28T11:36:43.999Z</time></trkpt><trkpt lat="43.30946535893446" lon="11.356122133622687"><ele>261.40000000000003</ele><time>2026-03-28T11:36:44.999Z</time></trkpt><trkpt lat="43.30949497216528" lon="11.356251901919835"><ele>261.0</ele><time>2026-03-28T11:36:45.999Z</time></trkpt><trkpt lat="43.309510114335254" lon="11.356391663232833"><ele>259.5</ele><time>2026-03-28T11:36:46.999Z</time></trkpt><trkpt lat="43.309504764901234" lon="11.356542416741048"><ele>258.0</ele><time>2026-03-28T11:36:48Z</time></trkpt><trkpt lat="43.30948063700703" lon="11.356702519178986"><ele>256.5</ele><time>2026-03-28T11:36:49Z</time></trkpt><trkpt lat="43.30943999968722" lon="11.356868882362129"><ele>255.0</ele><time>2026-03-28T11:36:50Z</time></trkpt><trkpt lat="43.30939725931086" lon="11.357013356680072"><ele>255.0</ele><time>2026-03-28T11:36:51Z</time></trkpt><trkpt lat="43.30935008643821" lon="11.357147526238386"><ele>255.0</ele><time>2026-03-28T11:36:52Z</time></trkpt><trkpt lat="43.30927814142867" lon="11.357277972592787"><ele>255.0</ele><time>2026-03-28T11:36:53Z</time></trkpt><trkpt lat="43.30919039259697" lon="11.357393455899965"><ele>255.0</ele><time>2026-03-28T11:36:54Z</time></trkpt><trkpt lat="43.309088032751426" lon="11.357502519255206"><ele>254.5</ele><time>2026-03-28T11:36:55Z</time></trkpt><trkpt lat="43.30899304166315" lon="11.357609015494548"><ele>254.0</ele><time>2026-03-28T11:36:56Z</time></trkpt><trkpt lat="43.30888424541656" lon="11.357715959796693"><ele>253.5</ele><time>2026-03-28T11:36:57Z</time></trkpt><trkpt lat="43.308778311521955" lon="11.357817359524399"><ele>253.0</ele><time>2026-03-28T11:36:58Z</time></trkpt><trkpt lat="43.30867460539855" lon="11.357926607726014"><ele>251.5</ele><time>2026-03-28T11:36:59Z</time></trkpt><trkpt lat="43.30857154530824" lon="11.358030844327674"><ele>250.0</ele><time>2026-03-28T11:37:00Z</time></trkpt><trkpt lat="43.30846384909553" lon="11.358130775888773"><ele>248.5</ele><time>2026-03-28T11:37:01Z</time></trkpt><trkpt lat="43.30834437222625" lon="11.358209908715965"><ele>247.0</ele><time>2026-03-28T11:37:02Z</time></trkpt><trkpt lat="43.30823089123494" lon="11.358283506816518"><ele>247.0</ele><time>2026-03-28T11:37:03Z</time></trkpt><trkpt lat="43.30812671777038" lon="11.358367083489163"><ele>247.0</ele><time>2026-03-28T11:37:04Z</time></trkpt><trkpt lat="43.308020946856594" lon="11.358458228101357"><ele>247.0</ele><time>2026-03-28T11:37:05Z</time></trkpt><trkpt lat="43.307901432279294" lon="11.35859099606891"><ele>247.0</ele><time>2026-03-28T11:37:06Z</time></trkpt><trkpt lat="43.30777264885873" lon="11.358747365738703"><ele>244.0</ele><time>2026-03-28T11:37:07Z</time></trkpt><trkpt lat="43.30763299469556" lon="11.358884416786577"><ele>241.0</ele><time>2026-03-28T11:37:08Z</time></trkpt><trkpt lat="43.30749487548936" lon="11.359038849638324"><ele>238.0</ele><time>2026-03-28T11:37:09Z</time></trkpt><trkpt lat="43.30736030451844" lon="11.359192558344283"><ele>236.66666666666666</ele><time>2026-03-28T11:37:10Z</time></trkpt><trkpt lat="43.307241408944556" lon="11.359338485730035"><ele>235.33333333333331</ele><time>2026-03-28T11:37:11Z</time></trkpt><trkpt lat="43.30712862266818" lon="11.359477854885682"><ele>234.0</ele><time>2026-03-28T11:37:12Z</time></trkpt><trkpt lat="43.30702090836565" lon="11.35960931690341"><ele>235.75</ele><time>2026-03-28T11:37:13Z</time></trkpt><trkpt lat="43.306911466541514" lon="11.359742123557602"><ele>237.5</ele><time>2026-03-28T11:37:14Z</time></trkpt><trkpt lat="43.30680764089267" lon="11.359883178205981"><ele>239.25</ele><time>2026-03-28T11:37:15Z</time></trkpt><trkpt lat="43.30671528755159" lon="11.360014501857869"><ele>241.0</ele><time>2026-03-28T11:37:16Z</time></trkpt><trkpt lat="43.30662533562145" lon="11.36016204589883"><ele>241.0</ele><time>2026-03-28T11:37:17Z</time></trkpt><trkpt lat="43.306534393870194" lon="11.36031434809445"><ele>241.0</ele><time>2026-03-28T11:37:18Z</time></trkpt><trkpt lat="43.30643181149691" lon="11.360473602012572"><ele>241.0</ele><time>2026-03-28T11:37:19Z</time></trkpt><trkpt lat="43.30635063510838" lon="11.360607792809146"><ele>241.0</ele><time>2026-03-28T11:37:20Z</time></trkpt><trkpt lat="43.30626293279051" lon="11.360726222124285"><ele>243.20000000000002</ele><time>2026-03-28T11:37:21Z</time></trkpt><trkpt lat="43.30618573316233" lon="11.360833396713996"><ele>245.40000000000003</ele><time>2026-03-28T11:37:22Z</time></trkpt><trkpt lat="43.3061141850022" lon="11.360958380482819"><ele>247.6</ele><time>2026-03-28T11:37:23Z</time></trkpt><trkpt lat="43.30606101215466" lon="11.361090325201598"><ele>249.8</ele><time>2026-03-28T11:37:24Z</time></trkpt><trkpt lat="43.30601658448343" lon="11.361217102190551"><ele>252.0</ele><time>2026-03-28T11:37:25Z</time></trkpt><trkpt lat="43.30596338721562" lon="11.361335405162679"><ele>251.0</ele><time>2026-03-28T11:37:26Z</time></trkpt><trkpt lat="43.30590901871062" lon="11.36143716618885"><ele>250.0</ele><time>2026-03-28T11:37:27Z</time></trkpt><trkpt lat="43.305839814583535" lon="11.361530610260651"><ele>249.0</ele><time>2026-03-28T11:37:28Z</time></trkpt><trkpt lat="43.305752093603516" lon="11.361602024879584"><ele>248.0</ele><time>2026-03-28T11:37:29Z</time></trkpt><trkpt lat="43.305649157624146" lon="11.361655335040457"><ele>247.0</ele><time>2026-03-28T11:37:30Z</time></trkpt><trkpt lat="43.30552978698435" lon="11.361696885408001"><ele>247.0</ele><time>2026-03-28T11:37:31Z</time></trkpt><trkpt lat="43.30538807794372" lon="11.361721193792844"><ele>247.0</ele><time>2026-03-28T11:37:32Z</time></trkpt><trkpt lat="43.305247172401394" lon="11.36173870608267"><ele>247.0</ele><time>2026-03-28T11:37:33Z</time></trkpt><trkpt lat="43.30512683099684" lon="11.36176082377701"><ele>247.0</ele><time>2026-03-28T11:37:34Z</time></trkpt><trkpt lat="43.305023719757195" lon="11.361775879225108"><ele>247.0</ele><time>2026-03-28T11:37:35Z</time></trkpt><trkpt lat="43.30492849646657" lon="11.361799567919899"><ele>247.0</ele><time>2026-03-28T11:37:36Z</time></trkpt><trkpt lat="43.304836707612445" lon="11.36181770071314"><ele>247.0</ele><time>2026-03-28T11:37:37Z</time></trkpt><trkpt lat="43.304752864110675" lon="11.361823896886024"><ele>247.0</ele><time>2026-03-28T11:37:38Z</time></trkpt><trkpt lat="43.30466047539632" lon="11.361822180168325"><ele>247.0</ele><time>2026-03-28T11:37:39Z</time></trkpt><trkpt lat="43.30455620856391" lon="11.361825796325318"><ele>244.5</ele><time>2026-03-28T11:37:40Z</time></trkpt><trkpt lat="43.30444286822732" lon="11.361849349619298"><ele>242.0</ele><time>2026-03-28T11:37:41Z</time></trkpt><trkpt lat="43.30432931393228" lon="11.361909433213519"><ele>239.5</ele><time>2026-03-28T11:37:42Z</time></trkpt><trkpt lat="43.30420138504405" lon="11.361992652917106"><ele>237.0</ele><time>2026-03-28T11:37:43Z</time></trkpt><trkpt lat="43.30405930073272" lon="11.36209596808008"><ele>240.0</ele><time>2026-03-28T11:37:44Z</time></trkpt><trkpt lat="43.30390794169242" lon="11.362219395155723"><ele>243.0</ele><time>2026-03-28T11:37:45Z</time></trkpt><trkpt lat="43.30375831007257" lon="11.362346084972136"><ele>246.0</ele><time>2026-03-28T11:37:46Z</time></trkpt><trkpt lat="43.303633979056855" lon="11.362462687480145"><ele>246.0</ele><time>2026-03-28T11:37:47Z</time></trkpt><trkpt lat="43.303529013764205" lon="11.36258087951635"><ele>246.0</ele><time>2026-03-28T11:37:48.001Z</time></trkpt><trkpt lat="43.30344913462572" lon="11.362707896590472"><ele>246.0</ele><time>2026-03-28T11:37:49.001Z</time></trkpt><trkpt lat="43.30339638036534" lon="11.362853723574705"><ele>246.0</ele><time>2026-03-28T11:37:50.001Z</time></trkpt><trkpt lat="43.30336769587968" lon="11.36302492245801"><ele>247.25</ele><time>2026-03-28T11:37:51.001Z</time></trkpt><trkpt lat="43.30335774065259" lon="11.363221084127911"><ele>248.5</ele><time>2026-03-28T11:37:52.001Z</time></trkpt><trkpt lat="43.30334166236739" lon="11.363426950237596"><ele>249.75</ele><time>2026-03-28T11:37:53.001Z</time></trkpt><trkpt lat="43.30331338398655" lon="11.363595493624722"><ele>251.0</ele><time>2026-03-28T11:37:54.001Z</time></trkpt><trkpt lat="43.30327980302097" lon="11.363718965552126"><ele>251.0</ele><time>2026-03-28T11:37:55.001Z</time></trkpt><trkpt lat="43.30322668968052" lon="11.363824073988665"><ele>251.00000000000003</ele><time>2026-03-28T11:37:56.001Z</time></trkpt><trkpt lat="43.303151734184134" lon="11.363900291327639"><ele>251.00000000000003</ele><time>2026-03-28T11:37:57.001Z</time></trkpt><trkpt lat="43.30305566742643" lon="11.363949183533657"><ele>251.0</ele><time>2026-03-28T11:37:58.001Z</time></trkpt><trkpt lat="43.30294158092768" lon="11.363941840650318"><ele>251.0</ele><time>2026-03-28T11:37:59.001Z</time></trkpt><trkpt lat="43.30281788032531" lon="11.363944100940992"><ele>251.4</ele><time>2026-03-28T11:38:00.001Z</time></trkpt><trkpt lat="43.30270506865624" lon="11.363940673340563"><ele>251.8</ele><time>2026-03-28T11:38:01.001Z</time></trkpt><trkpt lat="43.302617436756385" lon="11.36396488019563"><ele>252.20000000000002</ele><time>2026-03-28T11:38:02.001Z</time></trkpt><trkpt lat="43.30251874012321" lon="11.363986951365918"><ele>252.60000000000002</ele><time>2026-03-28T11:38:03.001Z</time></trkpt><trkpt lat="43.30240447364023" lon="11.364038464511804"><ele>253.0</ele><time>2026-03-28T11:38:04.001Z</time></trkpt><trkpt lat="43.30227808968248" lon="11.364113671448699"><ele>249.75</ele><time>2026-03-28T11:38:05.001Z</time></trkpt><trkpt lat="43.30215680324501" lon="11.364195314798547"><ele>246.5</ele><time>2026-03-28T11:38:06.001Z</time></trkpt><trkpt lat="43.302053310633525" lon="11.364275952243885"><ele>243.25</ele><time>2026-03-28T11:38:07.001Z</time></trkpt><trkpt lat="43.30195808378635" lon="11.364368629094193"><ele>240.0</ele><time>2026-03-28T11:38:08.001Z</time></trkpt><trkpt lat="43.3018779480651" lon="11.364474500933333"><ele>240.0</ele><time>2026-03-28T11:38:09.001Z</time></trkpt><trkpt lat="43.3018152796733" lon="11.364615314302407"><ele>240.0</ele><time>2026-03-28T11:38:10.001Z</time></trkpt><trkpt lat="43.301770982165344" lon="11.364774317556922"><ele>240.0</ele><time>2026-03-28T11:38:11.001Z</time></trkpt><trkpt lat="43.30172715338638" lon="11.364915837724537"><ele>240.0</ele><time>2026-03-28T11:38:12.001Z</time></trkpt><trkpt lat="43.30168308233062" lon="11.365065564877183"><ele>240.75</ele><time>2026-03-28T11:38:13.001Z</time></trkpt><trkpt lat="43.301620957655224" lon="11.365196896559732"><ele>241.5</ele><time>2026-03-28T11:38:14.001Z</time></trkpt><trkpt lat="43.301527125842135" lon="11.365298379439345"><ele>242.25</ele><time>2026-03-28T11:38:15.001Z</time></trkpt><trkpt lat="43.301397091310356" lon="11.36538313444587"><ele>243.0</ele><time>2026-03-28T11:38:16.001Z</time></trkpt><trkpt lat="43.30123857612221" lon="11.365473206572346"><ele>242.33333333333331</ele><time>2026-03-28T11:38:17.001Z</time></trkpt><trkpt lat="43.301070818818616" lon="11.365575613097286"><ele>241.66666666666666</ele><time>2026-03-28T11:38:18.001Z</time></trkpt><trkpt lat="43.30092733730439" lon="11.3656596661996"><ele>241.0</ele><time>2026-03-28T11:38:19.001Z</time></trkpt><trkpt lat="43.30079732091762" lon="11.365725216484318"><ele>241.0</ele><time>2026-03-28T11:38:20.001Z</time></trkpt><trkpt lat="43.30066303464862" lon="11.36571925624515"><ele>241.0</ele><time>2026-03-28T11:38:21.001Z</time></trkpt><trkpt lat="43.30052483946253" lon="11.365746069179782"><ele>241.0</ele><time>2026-03-28T11:38:22.001Z</time></trkpt><trkpt lat="43.30040114911242" lon="11.365724482786598"><ele>241.0</ele><time>2026-03-28T11:38:23.001Z</time></trkpt><trkpt lat="43.30028971541924" lon="11.365722246545971"><ele>241.75</ele><time>2026-03-28T11:38:24.001Z</time></trkpt><trkpt lat="43.3001844191651" lon="11.36573847392685"><ele>242.5</ele><time>2026-03-28T11:38:25.001Z</time></trkpt><trkpt lat="43.30007904347192" lon="11.365778814183258"><ele>243.25</ele><time>2026-03-28T11:38:26.001Z</time></trkpt><trkpt lat="43.299972823606794" lon="11.36585941852903"><ele>244.0</ele><time>2026-03-28T11:38:27.001Z</time></trkpt><trkpt lat="43.29986090053665" lon="11.365961740047489"><ele>244.0</ele><time>2026-03-28T11:38:28.001Z</time></trkpt><trkpt lat="43.299766184017614" lon="11.366069474988606"><ele>244.0</ele><time>2026-03-28T11:38:29.001Z</time></trkpt><trkpt lat="43.29968089898749" lon="11.36617481027676"><ele>244.0</ele><time>2026-03-28T11:38:30.001Z</time></trkpt><trkpt lat="43.299585303316256" lon="11.366302349926661"><ele>244.0</ele><time>2026-03-28T11:38:31.001Z</time></trkpt><trkpt lat="43.29947663853758" lon="11.366440413000728"><ele>242.25</ele><time>2026-03-28T11:38:32.001Z</time></trkpt><trkpt lat="43.29938005447645" lon="11.366565763194947"><ele>240.5</ele><time>2026-03-28T11:38:33.001Z</time></trkpt><trkpt lat="43.299282181037995" lon="11.36669010492795"><ele>238.75</ele><time>2026-03-28T11:38:34.001Z</time></trkpt><trkpt lat="43.29919458012594" lon="11.366810943793"><ele>237.0</ele><time>2026-03-28T11:38:35.001Z</time></trkpt><trkpt lat="43.299104377094736" lon="11.366952861794756"><ele>237.0</ele><time>2026-03-28T11:38:36.001Z</time></trkpt><trkpt lat="43.29902631036157" lon="11.367111744455734"><ele>237.0</ele><time>2026-03-28T11:38:37Z</time></trkpt><trkpt lat="43.29894827996634" lon="11.367308055734133"><ele>237.0</ele><time>2026-03-28T11:38:38Z</time></trkpt><trkpt lat="43.29888536444523" lon="11.367487511705589"><ele>237.0</ele><time>2026-03-28T11:38:39Z</time></trkpt><trkpt lat="43.29882247630892" lon="11.367653222264602"><ele>236.5</ele><time>2026-03-28T11:38:40Z</time></trkpt><trkpt lat="43.29876143206522" lon="11.367802793112954"><ele>236.0</ele><time>2026-03-28T11:38:41Z</time></trkpt><trkpt lat="43.298702347929904" lon="11.367949799096744"><ele>235.5</ele><time>2026-03-28T11:38:42Z</time></trkpt><trkpt lat="43.298637856797846" lon="11.36808636038711"><ele>235.0</ele><time>2026-03-28T11:38:43Z</time></trkpt><trkpt lat="43.29857280837257" lon="11.368207123438655"><ele>235.0</ele><time>2026-03-28T11:38:44Z</time></trkpt><trkpt lat="43.29849611618723" lon="11.368316513129171"><ele>235.0</ele><time>2026-03-28T11:38:45Z</time></trkpt><trkpt lat="43.29840210490605" lon="11.36838428304287"><ele>235.0</ele><time>2026-03-28T11:38:46Z</time></trkpt><trkpt lat="43.29830865736354" lon="11.368432287516951"><ele>235.0</ele><time>2026-03-28T11:38:47Z</time></trkpt><trkpt lat="43.29821731744254" lon="11.368490873132664"><ele>235.0</ele><time>2026-03-28T11:38:48Z</time></trkpt><trkpt lat="43.29811533845533" lon="11.36851606725997"><ele>235.6</ele><time>2026-03-28T11:38:49Z</time></trkpt><trkpt lat="43.298016775783104" lon="11.36852699150503"><ele>236.2</ele><time>2026-03-28T11:38:50Z</time></trkpt><trkpt lat="43.297918539183755" lon="11.36852957910285"><ele>236.8</ele><time>2026-03-28T11:38:51Z</time></trkpt><trkpt lat="43.29782364911869" lon="11.368481167178409"><ele>237.4</ele><time>2026-03-28T11:38:52Z</time></trkpt><trkpt lat="43.2977109667221" lon="11.368435215007944"><ele>238.0</ele><time>2026-03-28T11:38:53Z</time></trkpt><trkpt lat="43.29758354900879" lon="11.368370958291841"><ele>238.0</ele><time>2026-03-28T11:38:54Z</time></trkpt><trkpt lat="43.29745437798978" lon="11.3682876340998"><ele>238.0</ele><time>2026-03-28T11:38:55Z</time></trkpt><trkpt lat="43.29732542766349" lon="11.368235642989815"><ele>238.0</ele><time>2026-03-28T11:38:56Z</time></trkpt><trkpt lat="43.29721063455857" lon="11.368168539287293"><ele>238.0</ele><time>2026-03-28T11:38:57Z</time></trkpt><trkpt lat="43.29708765649375" lon="11.36811238978258"><ele>237.25</ele><time>2026-03-28T11:38:58Z</time></trkpt><trkpt lat="43.296960503698514" lon="11.368074650697519"><ele>236.5</ele><time>2026-03-28T11:38:59Z</time></trkpt><trkpt lat="43.296839266348144" lon="11.368042944440312"><ele>235.75</ele><time>2026-03-28T11:39:00Z</time></trkpt><trkpt lat="43.29671728882311" lon="11.36802585236432"><ele>235.0</ele><time>2026-03-28T11:39:01Z</time></trkpt><trkpt lat="43.29660136198838" lon="11.368016336532472"><ele>234.75</ele><time>2026-03-28T11:39:02Z</time></trkpt><trkpt lat="43.29648082643159" lon="11.368014772735144"><ele>234.5</ele><time>2026-03-28T11:39:03Z</time></trkpt><trkpt lat="43.29635671761595" lon="11.368033488837598"><ele>234.25</ele><time>2026-03-28T11:39:04Z</time></trkpt><trkpt lat="43.296217241452354" lon="11.368059803603419"><ele>234.0</ele><time>2026-03-28T11:39:05Z</time></trkpt><trkpt lat="43.29609375650314" lon="11.368092378829116"><ele>236.2</ele><time>2026-03-28T11:39:06Z</time></trkpt><trkpt lat="43.29598996356659" lon="11.36813266191748"><ele>238.39999999999998</ele><time>2026-03-28T11:39:07Z</time></trkpt><trkpt lat="43.29590359228754" lon="11.368193315659084"><ele>240.6</ele><time>2026-03-28T11:39:08Z</time></trkpt><trkpt lat="43.29583316296527" lon="11.368240208518193"><ele>242.8</ele><time>2026-03-28T11:39:09Z</time></trkpt><trkpt lat="43.295760287381185" lon="11.368282530925091"><ele>245.0</ele><time>2026-03-28T11:39:10Z</time></trkpt><trkpt lat="43.29563499656167" lon="11.368306083190138"><ele>243.6</ele><time>2026-03-28T11:39:12Z</time></trkpt><trkpt lat="43.29556444859007" lon="11.36831290090204"><ele>242.2</ele><time>2026-03-28T11:39:13Z</time></trkpt><trkpt lat="43.29546875055865" lon="11.368314418347696"><ele>240.8</ele><time>2026-03-28T11:39:14Z</time></trkpt><trkpt lat="43.29537194187997" lon="11.368321675737228"><ele>239.4</ele><time>2026-03-28T11:39:15Z</time></trkpt><trkpt lat="43.295276919807236" lon="11.368353103139228"><ele>238.0</ele><time>2026-03-28T11:39:16Z</time></trkpt><trkpt lat="43.295180918500535" lon="11.368411452198053"><ele>238.0</ele><time>2026-03-28T11:39:17Z</time></trkpt><trkpt lat="43.29508544183249" lon="11.368475391758764"><ele>238.0</ele><time>2026-03-28T11:39:18Z</time></trkpt><trkpt lat="43.29499474038595" lon="11.36856047558759"><ele>238.0</ele><time>2026-03-28T11:39:19Z</time></trkpt><trkpt lat="43.29491397489441" lon="11.368687220628233"><ele>238.0</ele><time>2026-03-28T11:39:20Z</time></trkpt><trkpt lat="43.29483764148719" lon="11.36885395665088"><ele>238.75</ele><time>2026-03-28T11:39:21Z</time></trkpt><trkpt lat="43.294764127048296" lon="11.369013735313054"><ele>239.5</ele><time>2026-03-28T11:39:22Z</time></trkpt><trkpt lat="43.294678286820876" lon="11.369141722654359"><ele>240.25</ele><time>2026-03-28T11:39:23Z</time></trkpt><trkpt lat="43.29454933703288" lon="11.369226350664496"><ele>241.0</ele><time>2026-03-28T11:39:24Z</time></trkpt><trkpt lat="43.29439951903412" lon="11.369329754420678"><ele>237.33333333333331</ele><time>2026-03-28T11:39:25Z</time></trkpt><trkpt lat="43.294223030670075" lon="11.369458070210305"><ele>233.66666666666669</ele><time>2026-03-28T11:39:26Z</time></trkpt><trkpt lat="43.294042998551596" lon="11.36956927676346"><ele>230.0</ele><time>2026-03-28T11:39:27Z</time></trkpt><trkpt lat="43.293886493978086" lon="11.369666558988325"><ele>228.33333333333334</ele><time>2026-03-28T11:39:28Z</time></trkpt><trkpt lat="43.29374477532481" lon="11.369757713139412"><ele>226.66666666666669</ele><time>2026-03-28T11:39:29Z</time></trkpt><trkpt lat="43.29360885806334" lon="11.369842054405467"><ele>225.0</ele><time>2026-03-28T11:39:30Z</time></trkpt><trkpt lat="43.29347240258503" lon="11.369912185761716"><ele>225.0</ele><time>2026-03-28T11:39:31.001Z</time></trkpt><trkpt lat="43.293336784562676" lon="11.369967324564664"><ele>225.0</ele><time>2026-03-28T11:39:32.001Z</time></trkpt><trkpt lat="43.29320649847584" lon="11.369998174893494"><ele>225.0</ele><time>2026-03-28T11:39:33.001Z</time></trkpt><trkpt lat="43.29307510720235" lon="11.37004362581946"><ele>225.0</ele><time>2026-03-28T11:39:34.001Z</time></trkpt><trkpt lat="43.29294600518448" lon="11.370055684136208"><ele>224.0</ele><time>2026-03-28T11:39:35.001Z</time></trkpt><trkpt lat="43.29280316110994" lon="11.370060572911314"><ele>223.0</ele><time>2026-03-28T11:39:36.001Z</time></trkpt><trkpt lat="43.292651311414026" lon="11.37005392314371"><ele>222.0</ele><time>2026-03-28T11:39:37.001Z</time></trkpt><trkpt lat="43.29249203804615" lon="11.370062867147661"><ele>222.0</ele><time>2026-03-28T11:39:38.001Z</time></trkpt><trkpt lat="43.292353756395414" lon="11.37004614384181"><ele>222.0</ele><time>2026-03-28T11:39:39.001Z</time></trkpt><trkpt lat="43.29222066012861" lon="11.370043078743027"><ele>222.0</ele><time>2026-03-28T11:39:40.001Z</time></trkpt><trkpt lat="43.29207509709251" lon="11.370047002757442"><ele>222.0</ele><time>2026-03-28T11:39:41.001Z</time></trkpt><trkpt lat="43.291912794383016" lon="11.370077017696484"><ele>222.33333333333331</ele><time>2026-03-28T11:39:42.001Z</time></trkpt><trkpt lat="43.291738567007755" lon="11.370121814430025"><ele>222.66666666666666</ele><time>2026-03-28T11:39:43.001Z</time></trkpt><trkpt lat="43.291570367483224" lon="11.37018422565251"><ele>223.0</ele><time>2026-03-28T11:39:44.001Z</time></trkpt><trkpt lat="43.29142625655967" lon="11.370261228103246"><ele>223.5</ele><time>2026-03-28T11:39:45.001Z</time></trkpt><trkpt lat="43.29129305362321" lon="11.370357888735114"><ele>224.0</ele><time>2026-03-28T11:39:46.001Z</time></trkpt><trkpt lat="43.29116966481993" lon="11.370455792330429"><ele>224.5</ele><time>2026-03-28T11:39:47.001Z</time></trkpt><trkpt lat="43.291044767436915" lon="11.370537391998742"><ele>225.0</ele><time>2026-03-28T11:39:48.001Z</time></trkpt><trkpt lat="43.29092414374533" lon="11.370587756181928"><ele>225.0</ele><time>2026-03-28T11:39:49.001Z</time></trkpt><trkpt lat="43.29080985700011" lon="11.370623551395433"><ele>225.0</ele><time>2026-03-28T11:39:50.001Z</time></trkpt><trkpt lat="43.290701067078146" lon="11.370669844898583"><ele>225.0</ele><time>2026-03-28T11:39:51.001Z</time></trkpt><trkpt lat="43.29060035655381" lon="11.370735829267273"><ele>225.0</ele><time>2026-03-28T11:39:52.001Z</time></trkpt><trkpt lat="43.29050906052998" lon="11.370822490599464"><ele>225.0</ele><time>2026-03-28T11:39:53.001Z</time></trkpt><trkpt lat="43.29043335875051" lon="11.370933082128134"><ele>225.0</ele><time>2026-03-28T11:39:54.001Z</time></trkpt><trkpt lat="43.290386183892586" lon="11.371057483554202"><ele>225.0</ele><time>2026-03-28T11:39:55.001Z</time></trkpt><trkpt lat="43.29033957298779" lon="11.371177749539301"><ele>225.0</ele><time>2026-03-28T11:39:56.001Z</time></trkpt><trkpt lat="43.29027389094676" lon="11.371291907460446"><ele>225.0</ele><time>2026-03-28T11:39:57.001Z</time></trkpt><trkpt lat="43.2901839591562" lon="11.371388396085724"><ele>225.0</ele><time>2026-03-28T11:39:58.001Z</time></trkpt><trkpt lat="43.29008932503594" lon="11.371466767498985"><ele>225.0</ele><time>2026-03-28T11:39:59.001Z</time></trkpt><trkpt lat="43.29000222544775" lon="11.371515818926365"><ele>225.0</ele><time>2026-03-28T11:40:00.001Z</time></trkpt><trkpt lat="43.289934083410664" lon="11.371570182478397"><ele>225.0</ele><time>2026-03-28T11:40:01.001Z</time></trkpt><trkpt lat="43.28989297165318" lon="11.371644500914503"><ele>225.0</ele><time>2026-03-28T11:40:02.001Z</time></trkpt><trkpt lat="43.289882111976375" lon="11.371733706646515"><ele>225.0</ele><time>2026-03-28T11:40:03.001Z</time></trkpt><trkpt lat="43.289888663194496" lon="11.371826827104993"><ele>225.0</ele><time>2026-03-28T11:40:04.001Z</time></trkpt><trkpt lat="43.28989680183647" lon="11.371913834964055"><ele>225.0</ele><time>2026-03-28T11:40:05.001Z</time></trkpt><trkpt lat="43.289849582480564" lon="11.372067468533269"><ele>225.0</ele><time>2026-03-28T11:40:07.001Z</time></trkpt><trkpt lat="43.28977649506134" lon="11.37212901305041"><ele>225.0</ele><time>2026-03-28T11:40:08.001Z</time></trkpt><trkpt lat="43.289706012467605" lon="11.372169704417423"><ele>225.0</ele><time>2026-03-28T11:40:09.001Z</time></trkpt><trkpt lat="43.28962377136438" lon="11.372218869448078"><ele>225.0</ele><time>2026-03-28T11:40:10.001Z</time></trkpt><trkpt lat="43.28954177937656" lon="11.372267479266933"><ele>223.66666666666666</ele><time>2026-03-28T11:40:11.001Z</time></trkpt><trkpt lat="43.28946066861017" lon="11.37231025062587"><ele>222.33333333333331</ele><time>2026-03-28T11:40:12.001Z</time></trkpt><trkpt lat="43.28938581872296" lon="11.372350860106556"><ele>221.0</ele><time>2026-03-28T11:40:13.001Z</time></trkpt><trkpt lat="43.289314754463895" lon="11.372387282230877"><ele>219.66666666666666</ele><time>2026-03-28T11:40:14.001Z</time></trkpt><trkpt lat="43.28924748629224" lon="11.37241182532338"><ele>218.33333333333331</ele><time>2026-03-28T11:40:15.001Z</time></trkpt><trkpt lat="43.28913611423023" lon="11.372495274640167"><ele>217.0</ele><time>2026-03-28T11:40:17.001Z</time></trkpt><trkpt lat="43.28910181728797" lon="11.372580114829882"><ele>216.99999999999997</ele><time>2026-03-28T11:40:18.001Z</time></trkpt><trkpt lat="43.28908341463405" lon="11.372675338546008"><ele>217.0</ele><time>2026-03-28T11:40:19.001Z</time></trkpt><trkpt lat="43.28907785200952" lon="11.372795973465461"><ele>217.0</ele><time>2026-03-28T11:40:20.001Z</time></trkpt><trkpt lat="43.289078603848196" lon="11.372932446390067"><ele>217.0</ele><time>2026-03-28T11:40:21.001Z</time></trkpt><trkpt lat="43.28907952934632" lon="11.373064984203063"><ele>216.99999999999997</ele><time>2026-03-28T11:40:22.001Z</time></trkpt><trkpt lat="43.28907537335047" lon="11.373185549624528"><ele>217.0</ele><time>2026-03-28T11:40:23.001Z</time></trkpt><trkpt lat="43.28906679785017" lon="11.37331587375316"><ele>215.83333333333331</ele><time>2026-03-28T11:40:24.001Z</time></trkpt><trkpt lat="43.289060449085916" lon="11.37344208880256"><ele>214.66666666666666</ele><time>2026-03-28T11:40:25.001Z</time></trkpt><trkpt lat="43.28905732651168" lon="11.373564421078164"><ele>213.5</ele><time>2026-03-28T11:40:26.001Z</time></trkpt><trkpt lat="43.28905459187312" lon="11.37368823197536"><ele>212.33333333333331</ele><time>2026-03-28T11:40:27.001Z</time></trkpt><trkpt lat="43.28905797019577" lon="11.373808320157357"><ele>211.16666666666666</ele><time>2026-03-28T11:40:28.001Z</time></trkpt><trkpt lat="43.28906199843213" lon="11.37393064760897"><ele>210.0</ele><time>2026-03-28T11:40:29.001Z</time></trkpt><trkpt lat="43.28906716554922" lon="11.374058275496674"><ele>208.0</ele><time>2026-03-28T11:40:30.001Z</time></trkpt><trkpt lat="43.289074290013325" lon="11.374198434680025"><ele>206.0</ele><time>2026-03-28T11:40:31.001Z</time></trkpt><trkpt lat="43.28908291694584" lon="11.374339041244678"><ele>204.0</ele><time>2026-03-28T11:40:32.001Z</time></trkpt><trkpt lat="43.28909127277507" lon="11.374505652010269"><ele>202.0</ele><time>2026-03-28T11:40:33.001Z</time></trkpt><trkpt lat="43.2891002283347" lon="11.37468088847348"><ele>200.0</ele><time>2026-03-28T11:40:34.001Z</time></trkpt><trkpt lat="43.28910862918332" lon="11.374853415982695"><ele>198.0</ele><time>2026-03-28T11:40:35.001Z</time></trkpt><trkpt lat="43.28911530647418" lon="11.375028610333894"><ele>196.0</ele><time>2026-03-28T11:40:36.001Z</time></trkpt><trkpt lat="43.28911908264999" lon="11.375207777611957"><ele>194.0</ele><time>2026-03-28T11:40:37.001Z</time></trkpt><trkpt lat="43.28911947771591" lon="11.3753926171228"><ele>192.0</ele><time>2026-03-28T11:40:38.001Z</time></trkpt><trkpt lat="43.28912531613328" lon="11.375574374710727"><ele>190.0</ele><time>2026-03-28T11:40:39.001Z</time></trkpt><trkpt lat="43.289129908306705" lon="11.375748545038673"><ele>188.0</ele><time>2026-03-28T11:40:40.001Z</time></trkpt><trkpt lat="43.289133673933925" lon="11.375922364306573"><ele>186.0</ele><time>2026-03-28T11:40:41.001Z</time></trkpt><trkpt lat="43.289137275444496" lon="11.376103928228494"><ele>186.0</ele><time>2026-03-28T11:40:42.001Z</time></trkpt><trkpt lat="43.289141779986764" lon="11.376282074576004"><ele>186.0</ele><time>2026-03-28T11:40:43Z</time></trkpt><trkpt lat="43.28915034811698" lon="11.376466009684528"><ele>186.0</ele><time>2026-03-28T11:40:44Z</time></trkpt><trkpt lat="43.28916357194508" lon="11.376658213010284"><ele>186.0</ele><time>2026-03-28T11:40:45Z</time></trkpt><trkpt lat="43.289180342121476" lon="11.376837793582006"><ele>185.8</ele><time>2026-03-28T11:40:46Z</time></trkpt><trkpt lat="43.28919291682018" lon="11.376991707127727"><ele>185.60000000000002</ele><time>2026-03-28T11:40:47Z</time></trkpt><trkpt lat="43.289208239590096" lon="11.377141275808142"><ele>185.4</ele><time>2026-03-28T11:40:48Z</time></trkpt><trkpt lat="43.2892218839048" lon="11.377295513432827"><ele>185.2</ele><time>2026-03-28T11:40:49Z</time></trkpt><trkpt lat="43.28923353797224" lon="11.377432275969763"><ele>185.0</ele><time>2026-03-28T11:40:50Z</time></trkpt><trkpt lat="43.28923994297677" lon="11.377572013178169"><ele>185.0</ele><time>2026-03-28T11:40:51Z</time></trkpt><trkpt lat="43.28923669390271" lon="11.377693801941248"><ele>185.0</ele><time>2026-03-28T11:40:52Z</time></trkpt><trkpt lat="43.289193942260596" lon="11.37778219335347"><ele>185.0</ele><time>2026-03-28T11:40:53Z</time></trkpt><trkpt lat="43.28914381665067" lon="11.377841365565528"><ele>185.0</ele><time>2026-03-28T11:40:54Z</time></trkpt><trkpt lat="43.28902503829333" lon="11.37790233613592"><ele>185.0</ele><time>2026-03-28T11:40:56Z</time></trkpt><trkpt lat="43.288948079768126" lon="11.377960825931693"><ele>185.0</ele><time>2026-03-28T11:40:57Z</time></trkpt><trkpt lat="43.28885309872206" lon="11.37800414864229"><ele>187.6</ele><time>2026-03-28T11:40:58Z</time></trkpt><trkpt lat="43.28874252150279" lon="11.378065342358175"><ele>190.2</ele><time>2026-03-28T11:40:59Z</time></trkpt><trkpt lat="43.28863930928993" lon="11.378154786815935"><ele>192.8</ele><time>2026-03-28T11:41:00Z</time></trkpt><trkpt lat="43.28853468223444" lon="11.37821196759446"><ele>195.4</ele><time>2026-03-28T11:41:01Z</time></trkpt><trkpt lat="43.28845338217356" lon="11.378257015680678"><ele>198.0</ele><time>2026-03-28T11:41:02Z</time></trkpt><trkpt lat="43.28837675754061" lon="11.37831422220316"><ele>198.0</ele><time>2026-03-28T11:41:03Z</time></trkpt><trkpt lat="43.28829898173072" lon="11.378399509489576"><ele>198.0</ele><time>2026-03-28T11:41:04Z</time></trkpt><trkpt lat="43.288240875729116" lon="11.37848729064283"><ele>198.0</ele><time>2026-03-28T11:41:05Z</time></trkpt><trkpt lat="43.28818868044745" lon="11.378562292107697"><ele>198.0</ele><time>2026-03-28T11:41:06Z</time></trkpt><trkpt lat="43.28813951281976" lon="11.378633103786909"><ele>198.0</ele><time>2026-03-28T11:41:07Z</time></trkpt><trkpt lat="43.28808816690643" lon="11.37870216285894"><ele>198.0</ele><time>2026-03-28T11:41:08Z</time></trkpt><trkpt lat="43.28803557796548" lon="11.378775962553501"><ele>198.33333333333334</ele><time>2026-03-28T11:41:09Z</time></trkpt><trkpt lat="43.28800092855856" lon="11.378851623214764"><ele>198.66666666666669</ele><time>2026-03-28T11:41:10Z</time></trkpt><trkpt lat="43.287979049880384" lon="11.378935821449643"><ele>199.0</ele><time>2026-03-28T11:41:11Z</time></trkpt><trkpt lat="43.287980075916124" lon="11.379026000588693"><ele>199.33333333333334</ele><time>2026-03-28T11:41:12Z</time></trkpt><trkpt lat="43.28799910716972" lon="11.37918313208606"><ele>199.66666666666669</ele><time>2026-03-28T11:41:14Z</time></trkpt><trkpt lat="43.288011034639894" lon="11.379290787027628"><ele>200.0</ele><time>2026-03-28T11:41:16Z</time></trkpt><trkpt lat="43.28800948816501" lon="11.379412604649522"><ele>200.0</ele><time>2026-03-28T11:41:18Z</time></trkpt><trkpt lat="43.28801729509439" lon="11.379506286395774"><ele>200.0</ele><time>2026-03-28T11:41:21Z</time></trkpt><trkpt lat="43.28790597610366" lon="11.379563830020333"><ele>200.0</ele><time>2026-03-28T11:41:22Z</time></trkpt><trkpt lat="43.287810584156766" lon="11.379609868098626"><ele>200.0</ele><time>2026-03-28T11:41:23Z</time></trkpt><trkpt lat="43.2876879121099" lon="11.37967387235302"><ele>200.0</ele><time>2026-03-28T11:41:24.001Z</time></trkpt><trkpt lat="43.2875742356327" lon="11.37972663016582"><ele>199.5</ele><time>2026-03-28T11:41:25.001Z</time></trkpt><trkpt lat="43.28744005721712" lon="11.379798103519292"><ele>199.0</ele><time>2026-03-28T11:41:26.001Z</time></trkpt><trkpt lat="43.28731420960259" lon="11.379851925542642"><ele>198.5</ele><time>2026-03-28T11:41:27.001Z</time></trkpt><trkpt lat="43.28717943382721" lon="11.379888579596065"><ele>198.0</ele><time>2026-03-28T11:41:28.001Z</time></trkpt><trkpt lat="43.28701256167338" lon="11.379885609368577"><ele>197.0</ele><time>2026-03-28T11:41:29.001Z</time></trkpt><trkpt lat="43.28681404886036" lon="11.379853347428169"><ele>196.0</ele><time>2026-03-28T11:41:30.001Z</time></trkpt><trkpt lat="43.28662139422648" lon="11.379809188932146"><ele>195.0</ele><time>2026-03-28T11:41:31.001Z</time></trkpt><trkpt lat="43.28644546954942" lon="11.379741629686228"><ele>195.66666666666669</ele><time>2026-03-28T11:41:32.001Z</time></trkpt><trkpt lat="43.28626075002682" lon="11.379645601920899"><ele>196.33333333333334</ele><time>2026-03-28T11:41:33.001Z</time></trkpt><trkpt lat="43.28609682923728" lon="11.379526022183462"><ele>197.0</ele><time>2026-03-28T11:41:34.001Z</time></trkpt><trkpt lat="43.285938265734735" lon="11.379408397982097"><ele>197.0</ele><time>2026-03-28T11:41:35.001Z</time></trkpt><trkpt lat="43.28578857913511" lon="11.379313429011466"><ele>197.0</ele><time>2026-03-28T11:41:36.001Z</time></trkpt><trkpt lat="43.285655875860705" lon="11.379208138516349"><ele>197.0</ele><time>2026-03-28T11:41:37.001Z</time></trkpt><trkpt lat="43.285504125263124" lon="11.379128954671907"><ele>196.0</ele><time>2026-03-28T11:41:38.001Z</time></trkpt><trkpt lat="43.285353114637864" lon="11.379038384483591"><ele>195.0</ele><time>2026-03-28T11:41:39.001Z</time></trkpt><trkpt lat="43.285178405231335" lon="11.379017103862758"><ele>194.0</ele><time>2026-03-28T11:41:40.001Z</time></trkpt><trkpt lat="43.28498416115857" lon="11.378996781134164"><ele>194.0</ele><time>2026-03-28T11:41:41.001Z</time></trkpt><trkpt lat="43.284808034236406" lon="11.37897971182511"><ele>194.0</ele><time>2026-03-28T11:41:42.001Z</time></trkpt><trkpt lat="43.28464361567222" lon="11.37896233411376"><ele>194.0</ele><time>2026-03-28T11:41:43.001Z</time></trkpt><trkpt lat="43.28449257348945" lon="11.378939861886758"><ele>193.75</ele><time>2026-03-28T11:41:44.001Z</time></trkpt><trkpt lat="43.28435407190997" lon="11.37890335087164"><ele>193.5</ele><time>2026-03-28T11:41:45.001Z</time></trkpt><trkpt lat="43.28422363165911" lon="11.378847603648413"><ele>193.25</ele><time>2026-03-28T11:41:46.001Z</time></trkpt><trkpt lat="43.28410362143547" lon="11.378754643137146"><ele>193.0</ele><time>2026-03-28T11:41:47.001Z</time></trkpt><trkpt lat="43.28401049388849" lon="11.378592415513598"><ele>191.5</ele><time>2026-03-28T11:41:48.001Z</time></trkpt><trkpt lat="43.28393919506285" lon="11.378424595755941"><ele>190.0</ele><time>2026-03-28T11:41:49.001Z</time></trkpt><trkpt lat="43.283862498749905" lon="11.378268407068598"><ele>188.5</ele><time>2026-03-28T11:41:50.001Z</time></trkpt><trkpt lat="43.283788930473285" lon="11.378115940796485"><ele>187.0</ele><time>2026-03-28T11:41:51.001Z</time></trkpt><trkpt lat="43.283690455626996" lon="11.377981551264828"><ele>185.0</ele><time>2026-03-28T11:41:52.001Z</time></trkpt><trkpt lat="43.283572308996156" lon="11.377877870700484"><ele>183.0</ele><time>2026-03-28T11:41:53.001Z</time></trkpt><trkpt lat="43.283442781916584" lon="11.377802799681259"><ele>181.0</ele><time>2026-03-28T11:41:54.001Z</time></trkpt><trkpt lat="43.2832929230981" lon="11.377766969587885"><ele>179.0</ele><time>2026-03-28T11:41:55.001Z</time></trkpt><trkpt lat="43.28313544879802" lon="11.377765751530147"><ele>178.66666666666666</ele><time>2026-03-28T11:41:56.001Z</time></trkpt><trkpt lat="43.28297130417025" lon="11.377807799729492"><ele>178.33333333333334</ele><time>2026-03-28T11:41:57.001Z</time></trkpt><trkpt lat="43.28282289374395" lon="11.377872395218025"><ele>178.0</ele><time>2026-03-28T11:41:58.001Z</time></trkpt><trkpt lat="43.28268633880159" lon="11.37792441516181"><ele>178.0</ele><time>2026-03-28T11:41:59.001Z</time></trkpt><trkpt lat="43.28255472004145" lon="11.377952522777267"><ele>178.0</ele><time>2026-03-28T11:42:00.001Z</time></trkpt><trkpt lat="43.28241786649337" lon="11.37794304218722"><ele>178.0</ele><time>2026-03-28T11:42:01.001Z</time></trkpt><trkpt lat="43.28228655193135" lon="11.377885339396691"><ele>178.0</ele><time>2026-03-28T11:42:02.001Z</time></trkpt><trkpt lat="43.28217293479614" lon="11.377778296341212"><ele>177.75</ele><time>2026-03-28T11:42:03.001Z</time></trkpt><trkpt lat="43.28207700051616" lon="11.377647394388019"><ele>177.5</ele><time>2026-03-28T11:42:04.001Z</time></trkpt><trkpt lat="43.28202293413175" lon="11.377478805851549"><ele>177.25</ele><time>2026-03-28T11:42:05.001Z</time></trkpt><trkpt lat="43.28198174760716" lon="11.377326235458982"><ele>177.0</ele><time>2026-03-28T11:42:06.001Z</time></trkpt><trkpt lat="43.281942047656976" lon="11.377162559186601"><ele>176.6</ele><time>2026-03-28T11:42:07.001Z</time></trkpt><trkpt lat="43.28190313492872" lon="11.377007456690938"><ele>176.2</ele><time>2026-03-28T11:42:08.001Z</time></trkpt><trkpt lat="43.28187087252918" lon="11.37687545140782"><ele>175.8</ele><time>2026-03-28T11:42:09.001Z</time></trkpt><trkpt lat="43.28184612609087" lon="11.37677369307094"><ele>175.4</ele><time>2026-03-28T11:42:10.001Z</time></trkpt><trkpt lat="43.28184626226442" lon="11.376660238229418"><ele>175.0</ele><time>2026-03-28T11:42:11.001Z</time></trkpt><trkpt lat="43.28190103962173" lon="11.376513071455907"><ele>175.0</ele><time>2026-03-28T11:42:12.001Z</time></trkpt><trkpt lat="43.281943704990326" lon="11.37637306400708"><ele>175.0</ele><time>2026-03-28T11:42:13.001Z</time></trkpt><trkpt lat="43.28194453458149" lon="11.376242018350633"><ele>175.0</ele><time>2026-03-28T11:42:14.001Z</time></trkpt><trkpt lat="43.28190444574707" lon="11.37612068740942"><ele>175.0</ele><time>2026-03-28T11:42:15.001Z</time></trkpt><trkpt lat="43.28182861630405" lon="11.37602878472131"><ele>175.0</ele><time>2026-03-28T11:42:16.001Z</time></trkpt><trkpt lat="43.2817322687014" lon="11.375965854411191"><ele>175.5</ele><time>2026-03-28T11:42:17.001Z</time></trkpt><trkpt lat="43.281644876166524" lon="11.37587274382799"><ele>176.0</ele><time>2026-03-28T11:42:18.001Z</time></trkpt><trkpt lat="43.28157238781976" lon="11.375751596342877"><ele>176.5</ele><time>2026-03-28T11:42:19.001Z</time></trkpt><trkpt lat="43.28155103122242" lon="11.37553318708941"><ele>177.0</ele><time>2026-03-28T11:42:20.001Z</time></trkpt><trkpt lat="43.28153109784899" lon="11.37529610536861"><ele>178.66666666666666</ele><time>2026-03-28T11:42:21.001Z</time></trkpt><trkpt lat="43.28152639923238" lon="11.37505004433398"><ele>180.33333333333331</ele><time>2026-03-28T11:42:22.001Z</time></trkpt><trkpt lat="43.28156025256436" lon="11.374809615172051"><ele>182.0</ele><time>2026-03-28T11:42:23.001Z</time></trkpt><trkpt lat="43.281623418247406" lon="11.37456863709218"><ele>184.33333333333331</ele><time>2026-03-28T11:42:24.001Z</time></trkpt><trkpt lat="43.28171255949943" lon="11.374319396177627"><ele>186.66666666666666</ele><time>2026-03-28T11:42:25.001Z</time></trkpt><trkpt lat="43.28182758105269" lon="11.374076630701335"><ele>189.0</ele><time>2026-03-28T11:42:26.001Z</time></trkpt><trkpt lat="43.281946640081955" lon="11.373848072867258"><ele>190.33333333333331</ele><time>2026-03-28T11:42:27.001Z</time></trkpt><trkpt lat="43.28206130988954" lon="11.373662068533337"><ele>191.66666666666666</ele><time>2026-03-28T11:42:28.001Z</time></trkpt><trkpt lat="43.28214211522894" lon="11.373473679158467"><ele>193.0</ele><time>2026-03-28T11:42:29.001Z</time></trkpt><trkpt lat="43.28219826617149" lon="11.37328511466748"><ele>193.0</ele><time>2026-03-28T11:42:30.001Z</time></trkpt><trkpt lat="43.28223061462344" lon="11.373115410755048"><ele>193.0</ele><time>2026-03-28T11:42:31.001Z</time></trkpt><trkpt lat="43.28225195209423" lon="11.372957111867697"><ele>193.0</ele><time>2026-03-28T11:42:32.001Z</time></trkpt><trkpt lat="43.28226409767918" lon="11.372815458608045"><ele>193.0</ele><time>2026-03-28T11:42:33.001Z</time></trkpt><trkpt lat="43.28227605917389" lon="11.372668729209844"><ele>193.5</ele><time>2026-03-28T11:42:34.001Z</time></trkpt><trkpt lat="43.28229065364718" lon="11.372489701626773"><ele>194.0</ele><time>2026-03-28T11:42:35.001Z</time></trkpt><trkpt lat="43.28229319594731" lon="11.372287703054067"><ele>194.5</ele><time>2026-03-28T11:42:36.001Z</time></trkpt><trkpt lat="43.282325782643866" lon="11.372058781171138"><ele>195.0</ele><time>2026-03-28T11:42:37.001Z</time></trkpt><trkpt lat="43.282347277464915" lon="11.371795108287387"><ele>196.33333333333331</ele><time>2026-03-28T11:42:38.001Z</time></trkpt><trkpt lat="43.28236893648958" lon="11.371536567462849"><ele>197.66666666666666</ele><time>2026-03-28T11:42:39.001Z</time></trkpt><trkpt lat="43.282391364339105" lon="11.37126958900245"><ele>199.0</ele><time>2026-03-28T11:42:40.001Z</time></trkpt><trkpt lat="43.28241540026439" lon="11.371000405376897"><ele>199.66666666666666</ele><time>2026-03-28T11:42:41.001Z</time></trkpt><trkpt lat="43.28244717629956" lon="11.370745192425096"><ele>200.33333333333331</ele><time>2026-03-28T11:42:42.001Z</time></trkpt><trkpt lat="43.28249073095452" lon="11.37051116421899"><ele>201.0</ele><time>2026-03-28T11:42:43.001Z</time></trkpt><trkpt lat="43.28255212638283" lon="11.37026886954012"><ele>202.0</ele><time>2026-03-28T11:42:44.001Z</time></trkpt><trkpt lat="43.28263278461942" lon="11.370018668208598"><ele>203.0</ele><time>2026-03-28T11:42:45.001Z</time></trkpt><trkpt lat="43.28273882458647" lon="11.36976497174616"><ele>204.0</ele><time>2026-03-28T11:42:46.001Z</time></trkpt><trkpt lat="43.28286193429788" lon="11.36951857187751"><ele>204.0</ele><time>2026-03-28T11:42:47.001Z</time></trkpt><trkpt lat="43.28296306332326" lon="11.369284460822144"><ele>204.0</ele><time>2026-03-28T11:42:48.001Z</time></trkpt><trkpt lat="43.28307130088104" lon="11.369077043509424"><ele>204.0</ele><time>2026-03-28T11:42:49Z</time></trkpt><trkpt lat="43.28317083240438" lon="11.368871626170703"><ele>205.33333333333331</ele><time>2026-03-28T11:42:50Z</time></trkpt><trkpt lat="43.283267455562495" lon="11.368663900710938"><ele>206.66666666666666</ele><time>2026-03-28T11:42:51Z</time></trkpt><trkpt lat="43.283349901710835" lon="11.368445118439462"><ele>208.0</ele><time>2026-03-28T11:42:52Z</time></trkpt><trkpt lat="43.283408230336796" lon="11.36822733551485"><ele>208.0</ele><time>2026-03-28T11:42:53Z</time></trkpt><trkpt lat="43.28345127788026" lon="11.367997842638573"><ele>208.0</ele><time>2026-03-28T11:42:54Z</time></trkpt><trkpt lat="43.283466402295154" lon="11.367759904538833"><ele>208.0</ele><time>2026-03-28T11:42:55Z</time></trkpt><trkpt lat="43.2834660027637" lon="11.367511448356309"><ele>208.0</ele><time>2026-03-28T11:42:56Z</time></trkpt><trkpt lat="43.283459690482836" lon="11.36726371888196"><ele>208.0</ele><time>2026-03-28T11:42:57Z</time></trkpt><trkpt lat="43.283393246262754" lon="11.367017838871348"><ele>208.0</ele><time>2026-03-28T11:42:58Z</time></trkpt><trkpt lat="43.28332538476986" lon="11.366775853900734"><ele>209.0</ele><time>2026-03-28T11:42:59Z</time></trkpt><trkpt lat="43.28323217813919" lon="11.366548460883353"><ele>210.0</ele><time>2026-03-28T11:43:00Z</time></trkpt><trkpt lat="43.28311873146373" lon="11.3663429280228"><ele>211.0</ele><time>2026-03-28T11:43:01Z</time></trkpt><trkpt lat="43.28297446229838" lon="11.366138655471918"><ele>212.33333333333331</ele><time>2026-03-28T11:43:02Z</time></trkpt><trkpt lat="43.28281728898377" lon="11.365960302414166"><ele>213.66666666666669</ele><time>2026-03-28T11:43:03Z</time></trkpt><trkpt lat="43.28266541113151" lon="11.365802484880737"><ele>215.0</ele><time>2026-03-28T11:43:04Z</time></trkpt><trkpt lat="43.28252509320817" lon="11.365658768163506"><ele>215.0</ele><time>2026-03-28T11:43:05Z</time></trkpt><trkpt lat="43.282400475733375" lon="11.365522276230756"><ele>215.0</ele><time>2026-03-28T11:43:06Z</time></trkpt><trkpt lat="43.282297687357385" lon="11.365377184460929"><ele>215.0</ele><time>2026-03-28T11:43:07Z</time></trkpt><trkpt lat="43.282236612996236" lon="11.36519353105043"><ele>215.0</ele><time>2026-03-28T11:43:08Z</time></trkpt><trkpt lat="43.28217937120462" lon="11.364994997785143"><ele>215.0</ele><time>2026-03-28T11:43:09Z</time></trkpt><trkpt lat="43.28216056502548" lon="11.364795214355112"><ele>215.0</ele><time>2026-03-28T11:43:10Z</time></trkpt><trkpt lat="43.28217048033803" lon="11.364565956223736"><ele>213.66666666666669</ele><time>2026-03-28T11:43:11Z</time></trkpt><trkpt lat="43.28220246600084" lon="11.364300245157134"><ele>212.33333333333331</ele><time>2026-03-28T11:43:12Z</time></trkpt><trkpt lat="43.28224429867598" lon="11.364051474931674"><ele>211.0</ele><time>2026-03-28T11:43:13Z</time></trkpt><trkpt lat="43.28230844583365" lon="11.363828477258929"><ele>211.33333333333331</ele><time>2026-03-28T11:43:14Z</time></trkpt><trkpt lat="43.28240212283856" lon="11.363582656608648"><ele>211.66666666666669</ele><time>2026-03-28T11:43:15Z</time></trkpt><trkpt lat="43.28250780356032" lon="11.36330809132407"><ele>212.0</ele><time>2026-03-28T11:43:16Z</time></trkpt><trkpt lat="43.28265225212045" lon="11.363019050226374"><ele>212.0</ele><time>2026-03-28T11:43:17Z</time></trkpt><trkpt lat="43.28280730674135" lon="11.362732863917861"><ele>212.0</ele><time>2026-03-28T11:43:18Z</time></trkpt><trkpt lat="43.282931820029624" lon="11.362478353532467"><ele>212.0</ele><time>2026-03-28T11:43:19Z</time></trkpt><trkpt lat="43.283054828123674" lon="11.362218757390623"><ele>212.0</ele><time>2026-03-28T11:43:20Z</time></trkpt><trkpt lat="43.283153349007065" lon="11.361960484053773"><ele>212.0</ele><time>2026-03-28T11:43:21Z</time></trkpt><trkpt lat="43.28324076713597" lon="11.361693647075086"><ele>217.5</ele><time>2026-03-28T11:43:22Z</time></trkpt><trkpt lat="43.283307586556745" lon="11.361382324336075"><ele>223.0</ele><time>2026-03-28T11:43:23Z</time></trkpt><trkpt lat="43.28336619805283" lon="11.361041647404996"><ele>223.0</ele><time>2026-03-28T11:43:24Z</time></trkpt><trkpt lat="43.28341688863521" lon="11.360704481600079"><ele>223.0</ele><time>2026-03-28T11:43:25Z</time></trkpt><trkpt lat="43.283520860360014" lon="11.36036416806263"><ele>220.0</ele><time>2026-03-28T11:43:26Z</time></trkpt><trkpt lat="43.283628743859865" lon="11.359990040768219"><ele>217.0</ele><time>2026-03-28T11:43:27Z</time></trkpt><trkpt lat="43.28372620496018" lon="11.35959811081554"><ele>216.0</ele><time>2026-03-28T11:43:28Z</time></trkpt><trkpt lat="43.28382907606942" lon="11.35924973241809"><ele>215.0</ele><time>2026-03-28T11:43:29Z</time></trkpt><trkpt lat="43.283931143060535" lon="11.358907321765457"><ele>222.0</ele><time>2026-03-28T11:43:30Z</time></trkpt><trkpt lat="43.284024703516934" lon="11.35857469458225"><ele>229.0</ele><time>2026-03-28T11:43:31Z</time></trkpt><trkpt lat="43.28411043542179" lon="11.358258863888521"><ele>228.5</ele><time>2026-03-28T11:43:32Z</time></trkpt><trkpt lat="43.28418111125581" lon="11.357949198895287"><ele>228.0</ele><time>2026-03-28T11:43:33Z</time></trkpt><trkpt lat="43.28424427630491" lon="11.357643354553995"><ele>228.0</ele><time>2026-03-28T11:43:34Z</time></trkpt><trkpt lat="43.284308930566844" lon="11.357335586558511"><ele>228.0</ele><time>2026-03-28T11:43:35Z</time></trkpt><trkpt lat="43.284379838709974" lon="11.35704418604589"><ele>227.66666666666669</ele><time>2026-03-28T11:43:36Z</time></trkpt><trkpt lat="43.284461466395435" lon="11.356756233643718"><ele>227.33333333333334</ele><time>2026-03-28T11:43:37Z</time></trkpt><trkpt lat="43.28453915568573" lon="11.356480398355359"><ele>227.0</ele><time>2026-03-28T11:43:38Z</time></trkpt><trkpt lat="43.284636459492965" lon="11.356229971138685"><ele>226.66666666666669</ele><time>2026-03-28T11:43:39Z</time></trkpt><trkpt lat="43.28472279894334" lon="11.35598711108501"><ele>226.33333333333331</ele><time>2026-03-28T11:43:40Z</time></trkpt><trkpt lat="43.28479827697006" lon="11.355737829526783"><ele>226.0</ele><time>2026-03-28T11:43:41Z</time></trkpt><trkpt lat="43.284883795602596" lon="11.355514992673157"><ele>229.33333333333331</ele><time>2026-03-28T11:43:42.001Z</time></trkpt><trkpt lat="43.28496455394942" lon="11.355309408282766"><ele>232.66666666666669</ele><time>2026-03-28T11:43:43.001Z</time></trkpt><trkpt lat="43.285026140650686" lon="11.355114727183702"><ele>236.0</ele><time>2026-03-28T11:43:44.001Z</time></trkpt><trkpt lat="43.28506986107599" lon="11.354922330006936"><ele>236.0</ele><time>2026-03-28T11:43:45.001Z</time></trkpt><trkpt lat="43.2850787442994" lon="11.354719899036075"><ele>236.0</ele><time>2026-03-28T11:43:46.001Z</time></trkpt><trkpt lat="43.285067421396576" lon="11.354519910098551"><ele>236.0</ele><time>2026-03-28T11:43:47.001Z</time></trkpt><trkpt lat="43.28500928594301" lon="11.354325212393702"><ele>236.0</ele><time>2026-03-28T11:43:48.001Z</time></trkpt><trkpt lat="43.28490514592605" lon="11.354163962255734"><ele>236.0</ele><time>2026-03-28T11:43:49.001Z</time></trkpt><trkpt lat="43.28479396427771" lon="11.354006208453884"><ele>236.0</ele><time>2026-03-28T11:43:50.001Z</time></trkpt><trkpt lat="43.28471088452557" lon="11.353844086881109"><ele>236.0</ele><time>2026-03-28T11:43:51.001Z</time></trkpt><trkpt lat="43.28463038964536" lon="11.353710664538669"><ele>236.0</ele><time>2026-03-28T11:43:52.001Z</time></trkpt><trkpt lat="43.28456054770277" lon="11.353580284483208"><ele>236.00000000000003</ele><time>2026-03-28T11:43:53.001Z</time></trkpt><trkpt lat="43.28450449984553" lon="11.35347899935164"><ele>236.0</ele><time>2026-03-28T11:43:54.001Z</time></trkpt><trkpt lat="43.284464582845686" lon="11.353406867657121"><ele>236.0</ele><time>2026-03-28T11:43:55.001Z</time></trkpt><trkpt lat="43.28442270878963" lon="11.353331201827183"><ele>236.0</ele><time>2026-03-28T11:43:58.001Z</time></trkpt><trkpt lat="43.28431459050518" lon="11.353304198050912"><ele>236.00000000000003</ele><time>2026-03-28T11:44:07.001Z</time></trkpt><trkpt lat="43.284233290448924" lon="11.353339230131871"><ele>236.0</ele><time>2026-03-28T11:44:08.001Z</time></trkpt><trkpt lat="43.28413319214783" lon="11.353421249948807"><ele>236.0</ele><time>2026-03-28T11:44:09.001Z</time></trkpt><trkpt lat="43.28404598828801" lon="11.353496582554936"><ele>236.0</ele><time>2026-03-28T11:44:10.001Z</time></trkpt><trkpt lat="43.28393285434846" lon="11.353566074691411"><ele>236.0</ele><time>2026-03-28T11:44:11.001Z</time></trkpt><trkpt lat="43.2838103759726" lon="11.35362348987985"><ele>236.0</ele><time>2026-03-28T11:44:12.001Z</time></trkpt><trkpt lat="43.283701624180495" lon="11.353662019951493"><ele>236.4</ele><time>2026-03-28T11:44:13.001Z</time></trkpt><trkpt lat="43.2835975194656" lon="11.353686815030514"><ele>236.8</ele><time>2026-03-28T11:44:14.001Z</time></trkpt><trkpt lat="43.283494752707696" lon="11.353702524467991"><ele>237.20000000000002</ele><time>2026-03-28T11:44:15.001Z</time></trkpt><trkpt lat="43.28339236794378" lon="11.353707173794058"><ele>237.60000000000002</ele><time>2026-03-28T11:44:16.001Z</time></trkpt><trkpt lat="43.2832800484822" lon="11.353696583382273"><ele>238.0</ele><time>2026-03-28T11:44:17.001Z</time></trkpt><trkpt lat="43.28316480876256" lon="11.353674920294138"><ele>238.0</ele><time>2026-03-28T11:44:18.001Z</time></trkpt><trkpt lat="43.283043435915154" lon="11.353653513865785"><ele>238.0</ele><time>2026-03-28T11:44:19.001Z</time></trkpt><trkpt lat="43.28292064465985" lon="11.353628751938551"><ele>238.0</ele><time>2026-03-28T11:44:20.001Z</time></trkpt><trkpt lat="43.28279775187899" lon="11.353599447520024"><ele>238.0</ele><time>2026-03-28T11:44:21.001Z</time></trkpt><trkpt lat="43.28267389486938" lon="11.353573192706124"><ele>238.0</ele><time>2026-03-28T11:44:22.001Z</time></trkpt><trkpt lat="43.282537354890714" lon="11.35354781693392"><ele>238.0</ele><time>2026-03-28T11:44:23.001Z</time></trkpt><trkpt lat="43.28239642277382" lon="11.35351632183243"><ele>238.0</ele><time>2026-03-28T11:44:24.001Z</time></trkpt><trkpt lat="43.28225965522313" lon="11.353485368205343"><ele>238.0</ele><time>2026-03-28T11:44:25.001Z</time></trkpt><trkpt lat="43.28211766545717" lon="11.353456415760096"><ele>238.0</ele><time>2026-03-28T11:44:26.001Z</time></trkpt><trkpt lat="43.28194695060546" lon="11.353399583480387"><ele>238.0</ele><time>2026-03-28T11:44:27.001Z</time></trkpt><trkpt lat="43.281747273047465" lon="11.35335353787682"><ele>238.0</ele><time>2026-03-28T11:44:28.001Z</time></trkpt><trkpt lat="43.28153575940451" lon="11.353319720746482"><ele>238.0</ele><time>2026-03-28T11:44:29.001Z</time></trkpt><trkpt lat="43.28134489212229" lon="11.353261015877075"><ele>238.0</ele><time>2026-03-28T11:44:30.001Z</time></trkpt><trkpt lat="43.281156012553375" lon="11.353200973485862"><ele>238.0</ele><time>2026-03-28T11:44:31.001Z</time></trkpt><trkpt lat="43.280973059524875" lon="11.353140581289816"><ele>238.0</ele><time>2026-03-28T11:44:32.001Z</time></trkpt><trkpt lat="43.28080422447718" lon="11.353078424454212"><ele>238.0</ele><time>2026-03-28T11:44:33.001Z</time></trkpt><trkpt lat="43.28063807571548" lon="11.353020871419925"><ele>238.0</ele><time>2026-03-28T11:44:34.001Z</time></trkpt><trkpt lat="43.28047495527021" lon="11.35296419260963"><ele>235.33333333333331</ele><time>2026-03-28T11:44:35.001Z</time></trkpt><trkpt lat="43.280311267821034" lon="11.352907976189982"><ele>232.66666666666669</ele><time>2026-03-28T11:44:36.001Z</time></trkpt><trkpt lat="43.280137360965476" lon="11.352849672857817"><ele>230.0</ele><time>2026-03-28T11:44:37.001Z</time></trkpt><trkpt lat="43.27996934916409" lon="11.35279924784893"><ele>230.0</ele><time>2026-03-28T11:44:38.001Z</time></trkpt><trkpt lat="43.27980969164335" lon="11.352728561527634"><ele>230.0</ele><time>2026-03-28T11:44:39.001Z</time></trkpt><trkpt lat="43.279641589038974" lon="11.35271070171951"><ele>230.0</ele><time>2026-03-28T11:44:40.001Z</time></trkpt><trkpt lat="43.27947704962173" lon="11.352678266253186"><ele>229.0</ele><time>2026-03-28T11:44:41.001Z</time></trkpt><trkpt lat="43.27931858499353" lon="11.352659835395547"><ele>228.0</ele><time>2026-03-28T11:44:42.001Z</time></trkpt><trkpt lat="43.27916325437968" lon="11.35264362874268"><ele>227.0</ele><time>2026-03-28T11:44:43.001Z</time></trkpt><trkpt lat="43.27900662312784" lon="11.352629758616832"><ele>227.0</ele><time>2026-03-28T11:44:44.001Z</time></trkpt><trkpt lat="43.27883849321291" lon="11.35264263311588"><ele>227.0</ele><time>2026-03-28T11:44:45.001Z</time></trkpt><trkpt lat="43.27865576951639" lon="11.352703600361064"><ele>227.0</ele><time>2026-03-28T11:44:46.001Z</time></trkpt><trkpt lat="43.27845229550501" lon="11.352837290851758"><ele>227.0</ele><time>2026-03-28T11:44:47.001Z</time></trkpt><trkpt lat="43.27824711834307" lon="11.35297119282406"><ele>227.0</ele><time>2026-03-28T11:44:48.001Z</time></trkpt><trkpt lat="43.27804762063984" lon="11.353081832852789"><ele>227.0</ele><time>2026-03-28T11:44:49.001Z</time></trkpt><trkpt lat="43.277861921977895" lon="11.353164775478815"><ele>228.33333333333334</ele><time>2026-03-28T11:44:50.001Z</time></trkpt><trkpt lat="43.277692733169495" lon="11.353257593695137"><ele>229.66666666666669</ele><time>2026-03-28T11:44:51.001Z</time></trkpt><trkpt lat="43.27753662679456" lon="11.353347194006028"><ele>231.0</ele><time>2026-03-28T11:44:52.001Z</time></trkpt><trkpt lat="43.27738573701572" lon="11.353429780456338"><ele>231.33333333333331</ele><time>2026-03-28T11:44:53.001Z</time></trkpt><trkpt lat="43.277224596679524" lon="11.3534845762022"><ele>231.66666666666666</ele><time>2026-03-28T11:44:54.001Z</time></trkpt><trkpt lat="43.27707873091271" lon="11.353578911412368"><ele>232.0</ele><time>2026-03-28T11:44:55Z</time></trkpt><trkpt lat="43.27692502780567" lon="11.353655433206614"><ele>232.0</ele><time>2026-03-28T11:44:56Z</time></trkpt><trkpt lat="43.276756141615316" lon="11.353688794675337"><ele>232.0</ele><time>2026-03-28T11:44:57Z</time></trkpt><trkpt lat="43.2765663050006" lon="11.353728123794466"><ele>232.0</ele><time>2026-03-28T11:44:58Z</time></trkpt><trkpt lat="43.27638199820815" lon="11.35377120911924"><ele>230.33333333333331</ele><time>2026-03-28T11:44:59Z</time></trkpt><trkpt lat="43.2761896804476" lon="11.353813067170522"><ele>228.66666666666669</ele><time>2026-03-28T11:45:00Z</time></trkpt><trkpt lat="43.27597155822533" lon="11.35387549695275"><ele>227.0</ele><time>2026-03-28T11:45:01Z</time></trkpt><trkpt lat="43.27572116150647" lon="11.353924764218007"><ele>224.5</ele><time>2026-03-28T11:45:02Z</time></trkpt><trkpt lat="43.27547130695789" lon="11.353943810535212"><ele>222.0</ele><time>2026-03-28T11:45:03Z</time></trkpt><trkpt lat="43.27524674578058" lon="11.353967537593519"><ele>222.0</ele><time>2026-03-28T11:45:04Z</time></trkpt><trkpt lat="43.27503103911739" lon="11.35401117405546"><ele>222.0</ele><time>2026-03-28T11:45:05Z</time></trkpt><trkpt lat="43.274827015654665" lon="11.354081563990137"><ele>222.0</ele><time>2026-03-28T11:45:06Z</time></trkpt><trkpt lat="43.27463333411215" lon="11.354187052676455"><ele>223.5</ele><time>2026-03-28T11:45:07Z</time></trkpt><trkpt lat="43.27445788219429" lon="11.354352711925582"><ele>225.0</ele><time>2026-03-28T11:45:08Z</time></trkpt><trkpt lat="43.274284938462" lon="11.35457949378335"><ele>223.5</ele><time>2026-03-28T11:45:09Z</time></trkpt><trkpt lat="43.2741153814827" lon="11.354835065207604"><ele>222.0</ele><time>2026-03-28T11:45:10Z</time></trkpt><trkpt lat="43.2739561209266" lon="11.355066514147223"><ele>219.5</ele><time>2026-03-28T11:45:11Z</time></trkpt><trkpt lat="43.27377848201778" lon="11.355279456500648"><ele>217.0</ele><time>2026-03-28T11:45:12Z</time></trkpt><trkpt lat="43.273585567067535" lon="11.355487022265173"><ele>220.0</ele><time>2026-03-28T11:45:13Z</time></trkpt><trkpt lat="43.27338329340155" lon="11.35571758706995"><ele>223.0</ele><time>2026-03-28T11:45:14Z</time></trkpt><trkpt lat="43.2731873490201" lon="11.355946037982871"><ele>220.5</ele><time>2026-03-28T11:45:15Z</time></trkpt><trkpt lat="43.27299803113002" lon="11.356152811071896"><ele>218.0</ele><time>2026-03-28T11:45:16Z</time></trkpt><trkpt lat="43.27281198098943" lon="11.356348684823384"><ele>221.0</ele><time>2026-03-28T11:45:17Z</time></trkpt><trkpt lat="43.27263708688682" lon="11.356541219779027"><ele>224.0</ele><time>2026-03-28T11:45:18Z</time></trkpt><trkpt lat="43.27246881606029" lon="11.35672329473351"><ele>227.0</ele><time>2026-03-28T11:45:19Z</time></trkpt><trkpt lat="43.272305169529524" lon="11.356904107376678"><ele>226.0</ele><time>2026-03-28T11:45:20Z</time></trkpt><trkpt lat="43.27217018014621" lon="11.357054376824253"><ele>225.0</ele><time>2026-03-28T11:45:21Z</time></trkpt><trkpt lat="43.27206445577797" lon="11.357172109816407"><ele>224.0</ele><time>2026-03-28T11:45:22Z</time></trkpt><trkpt lat="43.27197911578337" lon="11.357275916861772"><ele>223.0</ele><time>2026-03-28T11:45:23Z</time></trkpt><trkpt lat="43.271902116746865" lon="11.357366834576316"><ele>223.0</ele><time>2026-03-28T11:45:24Z</time></trkpt><trkpt lat="43.27184555621425" lon="11.357427258864552"><ele>223.0</ele><time>2026-03-28T11:45:25Z</time></trkpt><trkpt lat="43.27173110009732" lon="11.357442521308945"><ele>223.0</ele><time>2026-03-28T11:45:27Z</time></trkpt><trkpt lat="43.2717016484816" lon="11.357298058664734"><ele>223.0</ele><time>2026-03-28T11:45:28Z</time></trkpt><trkpt lat="43.27162550561873" lon="11.357216138263366"><ele>223.0</ele><time>2026-03-28T11:45:29Z</time></trkpt><trkpt lat="43.271559883268054" lon="11.357143450632005"><ele>223.0</ele><time>2026-03-28T11:45:30Z</time></trkpt><trkpt lat="43.27149904573557" lon="11.357075782506419"><ele>223.0</ele><time>2026-03-28T11:45:31Z</time></trkpt><trkpt lat="43.27144710633841" lon="11.357018011524696"><ele>223.0</ele><time>2026-03-28T11:45:32Z</time></trkpt><trkpt lat="43.27135741121707" lon="11.35691824581183"><ele>223.0</ele><time>2026-03-28T11:45:34Z</time></trkpt><trkpt lat="43.27125621286881" lon="11.356806916813989"><ele>223.0</ele><time>2026-03-28T11:45:36Z</time></trkpt><trkpt lat="43.27118166891434" lon="11.35672740832097"><ele>222.8</ele><time>2026-03-28T11:45:37Z</time></trkpt><trkpt lat="43.271079457847854" lon="11.356647303925559"><ele>222.60000000000002</ele><time>2026-03-28T11:45:38Z</time></trkpt><trkpt lat="43.27099037326124" lon="11.356553125576584"><ele>222.39999999999998</ele><time>2026-03-28T11:45:39Z</time></trkpt><trkpt lat="43.27090708719711" lon="11.356473705849758"><ele>222.2</ele><time>2026-03-28T11:45:40Z</time></trkpt><trkpt lat="43.27084265479721" lon="11.356380675502445"><ele>222.0</ele><time>2026-03-28T11:45:41Z</time></trkpt><trkpt lat="43.27077024116037" lon="11.35630528248994"><ele>220.33333333333334</ele><time>2026-03-28T11:45:42Z</time></trkpt><trkpt lat="43.27070364378768" lon="11.35623454384461"><ele>218.66666666666669</ele><time>2026-03-28T11:45:43Z</time></trkpt><trkpt lat="43.27061705029653" lon="11.35617271337659"><ele>217.0</ele><time>2026-03-28T11:45:44Z</time></trkpt><trkpt lat="43.27054339185856" lon="11.356094690628804"><ele>215.33333333333334</ele><time>2026-03-28T11:45:45Z</time></trkpt><trkpt lat="43.27048065334073" lon="11.356025970132446"><ele>213.66666666666669</ele><time>2026-03-28T11:45:46Z</time></trkpt><trkpt lat="43.27041242885733" lon="11.355966645548204"><ele>212.0</ele><time>2026-03-28T11:45:47Z</time></trkpt><trkpt lat="43.27033394030835" lon="11.355919836003702"><ele>211.6</ele><time>2026-03-28T11:45:48Z</time></trkpt><trkpt lat="43.27024812068988" lon="11.355895504778072"><ele>211.2</ele><time>2026-03-28T11:45:49Z</time></trkpt><trkpt lat="43.27015056810349" lon="11.35588927782697"><ele>210.8</ele><time>2026-03-28T11:45:50.001Z</time></trkpt><trkpt lat="43.270044147389825" lon="11.355897788716238"><ele>210.4</ele><time>2026-03-28T11:45:51.001Z</time></trkpt><trkpt lat="43.269933755374886" lon="11.355902091837768"><ele>210.0</ele><time>2026-03-28T11:45:52.001Z</time></trkpt><trkpt lat="43.269835263437955" lon="11.355919072787982"><ele>207.6</ele><time>2026-03-28T11:45:53.001Z</time></trkpt><trkpt lat="43.26973819428086" lon="11.355952291591624"><ele>205.2</ele><time>2026-03-28T11:45:54.001Z</time></trkpt><trkpt lat="43.26963989940323" lon="11.355999165362439"><ele>202.8</ele><time>2026-03-28T11:45:55.001Z</time></trkpt><trkpt lat="43.269544722071736" lon="11.35606339020796"><ele>200.4</ele><time>2026-03-28T11:45:56.001Z</time></trkpt><trkpt lat="43.26944489528491" lon="11.35613618004929"><ele>198.0</ele><time>2026-03-28T11:45:57.001Z</time></trkpt><trkpt lat="43.269359254322985" lon="11.356218914984785"><ele>198.0</ele><time>2026-03-28T11:45:58.001Z</time></trkpt><trkpt lat="43.26927405566973" lon="11.356321143257752"><ele>198.0</ele><time>2026-03-28T11:45:59.001Z</time></trkpt><trkpt lat="43.26919377957096" lon="11.35643480747275"><ele>198.0</ele><time>2026-03-28T11:46:00.001Z</time></trkpt><trkpt lat="43.2691245882005" lon="11.356554600317814"><ele>198.0</ele><time>2026-03-28T11:46:01.001Z</time></trkpt><trkpt lat="43.26906525420101" lon="11.356687450714901"><ele>199.0</ele><time>2026-03-28T11:46:02.001Z</time></trkpt><trkpt lat="43.26900922151283" lon="11.356837299986436"><ele>200.0</ele><time>2026-03-28T11:46:03.001Z</time></trkpt><trkpt lat="43.26896598385694" lon="11.356991885347588"><ele>201.0</ele><time>2026-03-28T11:46:04.001Z</time></trkpt><trkpt lat="43.26893689056106" lon="11.357139366483544"><ele>202.0</ele><time>2026-03-28T11:46:05.001Z</time></trkpt><trkpt lat="43.26892747166816" lon="11.35729284969674"><ele>199.39999999999998</ele><time>2026-03-28T11:46:06.001Z</time></trkpt><trkpt lat="43.26892604644263" lon="11.35745341061614"><ele>196.79999999999998</ele><time>2026-03-28T11:46:07.001Z</time></trkpt><trkpt lat="43.26892734252962" lon="11.357599306151677"><ele>194.2</ele><time>2026-03-28T11:46:08.001Z</time></trkpt><trkpt lat="43.268925822875026" lon="11.357747739745896"><ele>191.6</ele><time>2026-03-28T11:46:09.001Z</time></trkpt><trkpt lat="43.26892335212204" lon="11.35790759997711"><ele>189.0</ele><time>2026-03-28T11:46:10.001Z</time></trkpt><trkpt lat="43.26892280663008" lon="11.358062149610568"><ele>189.0</ele><time>2026-03-28T11:46:11.001Z</time></trkpt><trkpt lat="43.26892002540043" lon="11.358205179991472"><ele>189.0</ele><time>2026-03-28T11:46:12.001Z</time></trkpt><trkpt lat="43.268909662218924" lon="11.358341174751624"><ele>189.0</ele><time>2026-03-28T11:46:13.001Z</time></trkpt><trkpt lat="43.26888913454579" lon="11.358476567012127"><ele>189.0</ele><time>2026-03-28T11:46:14.001Z</time></trkpt><trkpt lat="43.26885834913493" lon="11.358612895210229"><ele>189.0</ele><time>2026-03-28T11:46:15.001Z</time></trkpt><trkpt lat="43.2688142663103" lon="11.358751147205394"><ele>189.0</ele><time>2026-03-28T11:46:16.001Z</time></trkpt><trkpt lat="43.268741208642695" lon="11.358867309726794"><ele>189.0</ele><time>2026-03-28T11:46:17.001Z</time></trkpt><trkpt lat="43.268679581183946" lon="11.359000003147468"><ele>189.0</ele><time>2026-03-28T11:46:18.001Z</time></trkpt><trkpt lat="43.268592665089514" lon="11.359104303718679"><ele>189.0</ele><time>2026-03-28T11:46:19.001Z</time></trkpt><trkpt lat="43.26849556882764" lon="11.359197127170905"><ele>189.25</ele><time>2026-03-28T11:46:20.001Z</time></trkpt><trkpt lat="43.26837885028299" lon="11.359285975978654"><ele>189.5</ele><time>2026-03-28T11:46:21.001Z</time></trkpt><trkpt lat="43.268250930357205" lon="11.359353866853942"><ele>189.75</ele><time>2026-03-28T11:46:22.001Z</time></trkpt><trkpt lat="43.26811158448155" lon="11.359400965400695"><ele>190.0</ele><time>2026-03-28T11:46:23.001Z</time></trkpt><trkpt lat="43.2679806740954" lon="11.359395472591345"><ele>189.0</ele><time>2026-03-28T11:46:24.001Z</time></trkpt><trkpt lat="43.26785507245815" lon="11.359367405093334"><ele>188.0</ele><time>2026-03-28T11:46:25.001Z</time></trkpt><trkpt lat="43.26772180767036" lon="11.359330583363368"><ele>187.0</ele><time>2026-03-28T11:46:26.001Z</time></trkpt><trkpt lat="43.267578926402564" lon="11.359278507755036"><ele>186.0</ele><time>2026-03-28T11:46:27.001Z</time></trkpt><trkpt lat="43.267418588511966" lon="11.359236985960347"><ele>185.66666666666666</ele><time>2026-03-28T11:46:28.001Z</time></trkpt><trkpt lat="43.26724840804033" lon="11.35915595068148"><ele>185.33333333333331</ele><time>2026-03-28T11:46:29.001Z</time></trkpt><trkpt lat="43.26708593005128" lon="11.359089271240315"><ele>185.0</ele><time>2026-03-28T11:46:30.001Z</time></trkpt><trkpt lat="43.26693817767605" lon="11.35902669874589"><ele>185.0</ele><time>2026-03-28T11:46:31.001Z</time></trkpt><trkpt lat="43.26680415676072" lon="11.358977006780062"><ele>185.0</ele><time>2026-03-28T11:46:32.001Z</time></trkpt><trkpt lat="43.266687257226174" lon="11.358918671125634"><ele>185.0</ele><time>2026-03-28T11:46:33.001Z</time></trkpt><trkpt lat="43.2665690878182" lon="11.358873423379931"><ele>185.0</ele><time>2026-03-28T11:46:34.001Z</time></trkpt><trkpt lat="43.26644454387022" lon="11.358811727933553"><ele>185.0</ele><time>2026-03-28T11:46:35.001Z</time></trkpt><trkpt lat="43.26630589107796" lon="11.358752377901363"><ele>185.0</ele><time>2026-03-28T11:46:36.001Z</time></trkpt><trkpt lat="43.26613895831505" lon="11.358688197655985"><ele>185.0</ele><time>2026-03-28T11:46:37.001Z</time></trkpt><trkpt lat="43.26596576062256" lon="11.358594391811454"><ele>185.0</ele><time>2026-03-28T11:46:38.001Z</time></trkpt><trkpt lat="43.26580801949446" lon="11.358525388270246"><ele>185.0</ele><time>2026-03-28T11:46:39.001Z</time></trkpt><trkpt lat="43.265656411293335" lon="11.358478073125394"><ele>185.0</ele><time>2026-03-28T11:46:40.001Z</time></trkpt><trkpt lat="43.26551392700562" lon="11.358416955494896"><ele>184.75</ele><time>2026-03-28T11:46:41.001Z</time></trkpt><trkpt lat="43.26537981373789" lon="11.358341945647288"><ele>184.5</ele><time>2026-03-28T11:46:42.001Z</time></trkpt><trkpt lat="43.26525240916438" lon="11.358305063243735"><ele>184.25</ele><time>2026-03-28T11:46:43.001Z</time></trkpt><trkpt lat="43.26512435087236" lon="11.358240568897962"><ele>184.0</ele><time>2026-03-28T11:46:44.001Z</time></trkpt><trkpt lat="43.26501328560525" lon="11.358201248702407"><ele>184.0</ele><time>2026-03-28T11:46:45.001Z</time></trkpt><trkpt lat="43.26491115928747" lon="11.358176067277943"><ele>184.0</ele><time>2026-03-28T11:46:46.001Z</time></trkpt><trkpt lat="43.26481254226142" lon="11.358185465359647"><ele>184.0</ele><time>2026-03-28T11:46:47.001Z</time></trkpt><trkpt lat="43.26471983332977" lon="11.35822259739138"><ele>184.0</ele><time>2026-03-28T11:46:48.001Z</time></trkpt><trkpt lat="43.264630168616215" lon="11.358302822708314"><ele>184.0</ele><time>2026-03-28T11:46:49.001Z</time></trkpt><trkpt lat="43.26454422878681" lon="11.358404201643648"><ele>184.0</ele><time>2026-03-28T11:46:50.001Z</time></trkpt><trkpt lat="43.264475741258046" lon="11.358523615811631"><ele>184.0</ele><time>2026-03-28T11:46:51.001Z</time></trkpt><trkpt lat="43.26441352852215" lon="11.35865825647622"><ele>184.0</ele><time>2026-03-28T11:46:52.001Z</time></trkpt><trkpt lat="43.26434872567107" lon="11.358808510013592"><ele>184.0</ele><time>2026-03-28T11:46:53.001Z</time></trkpt><trkpt lat="43.264275306000606" lon="11.3589397672574"><ele>184.0</ele><time>2026-03-28T11:46:54.001Z</time></trkpt><trkpt lat="43.2641815972548" lon="11.3590717953057"><ele>184.0</ele><time>2026-03-28T11:46:55.001Z</time></trkpt><trkpt lat="43.264072894318026" lon="11.35918657694963"><ele>184.0</ele><time>2026-03-28T11:46:56.001Z</time></trkpt><trkpt lat="43.26396884741403" lon="11.359294531649535"><ele>184.0</ele><time>2026-03-28T11:46:57.001Z</time></trkpt><trkpt lat="43.26383178849867" lon="11.359369698177447"><ele>183.66666666666669</ele><time>2026-03-28T11:46:58.001Z</time></trkpt><trkpt lat="43.26370091906448" lon="11.359479790191534"><ele>183.33333333333334</ele><time>2026-03-28T11:46:59.001Z</time></trkpt><trkpt lat="43.2635462148378" lon="11.359561388092155"><ele>183.0</ele><time>2026-03-28T11:47:00.001Z</time></trkpt><trkpt lat="43.263403961524126" lon="11.359705639857445"><ele>182.66666666666666</ele><time>2026-03-28T11:47:01Z</time></trkpt><trkpt lat="43.263252011794535" lon="11.359854375332995"><ele>182.33333333333331</ele><time>2026-03-28T11:47:02Z</time></trkpt><trkpt lat="43.26310149837804" lon="11.36001292995822"><ele>182.0</ele><time>2026-03-28T11:47:03Z</time></trkpt><trkpt lat="43.26296393132162" lon="11.36016223930919"><ele>182.33333333333331</ele><time>2026-03-28T11:47:04Z</time></trkpt><trkpt lat="43.26282771007564" lon="11.360309589837831"><ele>182.66666666666666</ele><time>2026-03-28T11:47:05Z</time></trkpt><trkpt lat="43.26268938062406" lon="11.360473370219887"><ele>183.0</ele><time>2026-03-28T11:47:06Z</time></trkpt><trkpt lat="43.2625520918168" lon="11.360639556031208"><ele>183.0</ele><time>2026-03-28T11:47:07Z</time></trkpt><trkpt lat="43.26242802429422" lon="11.360794594773857"><ele>183.0</ele><time>2026-03-28T11:47:08Z</time></trkpt><trkpt lat="43.2623119040999" lon="11.360939482633421"><ele>183.0</ele><time>2026-03-28T11:47:09Z</time></trkpt><trkpt lat="43.26220162189721" lon="11.361065337164598"><ele>182.75</ele><time>2026-03-28T11:47:10Z</time></trkpt><trkpt lat="43.26211989127068" lon="11.361191990518819"><ele>182.5</ele><time>2026-03-28T11:47:11Z</time></trkpt><trkpt lat="43.262008887767415" lon="11.361306781949379"><ele>182.25</ele><time>2026-03-28T11:47:12Z</time></trkpt><trkpt lat="43.26187758140063" lon="11.361428635152556"><ele>182.0</ele><time>2026-03-28T11:47:13Z</time></trkpt><trkpt lat="43.26173461138781" lon="11.361541179901964"><ele>182.0</ele><time>2026-03-28T11:47:14Z</time></trkpt><trkpt lat="43.26160503518086" lon="11.361637052571698"><ele>182.0</ele><time>2026-03-28T11:47:15Z</time></trkpt><trkpt lat="43.26147252485639" lon="11.361724018567882"><ele>182.0</ele><time>2026-03-28T11:47:16Z</time></trkpt><trkpt lat="43.26132656573362" lon="11.361777512857103"><ele>182.0</ele><time>2026-03-28T11:47:17Z</time></trkpt><trkpt lat="43.261192430786174" lon="11.361841457379077"><ele>182.0</ele><time>2026-03-28T11:47:18Z</time></trkpt><trkpt lat="43.26106031967948" lon="11.361892770802138"><ele>182.0</ele><time>2026-03-28T11:47:19Z</time></trkpt><trkpt lat="43.2609219004356" lon="11.361928543721925"><ele>182.0</ele><time>2026-03-28T11:47:20Z</time></trkpt><trkpt lat="43.260775330996424" lon="11.361943770983697"><ele>182.0</ele><time>2026-03-28T11:47:21Z</time></trkpt><trkpt lat="43.26062546866515" lon="11.361938319439078"><ele>183.0</ele><time>2026-03-28T11:47:22Z</time></trkpt><trkpt lat="43.26047368625602" lon="11.36191792829043"><ele>184.0</ele><time>2026-03-28T11:47:23Z</time></trkpt><trkpt lat="43.26030763133946" lon="11.361882181333392"><ele>185.0</ele><time>2026-03-28T11:47:24Z</time></trkpt><trkpt lat="43.260103329031786" lon="11.361824933910055"><ele>185.0</ele><time>2026-03-28T11:47:25Z</time></trkpt><trkpt lat="43.25988931217576" lon="11.361760646674211"><ele>185.0</ele><time>2026-03-28T11:47:26Z</time></trkpt><trkpt lat="43.25970046998257" lon="11.361689240053124"><ele>185.0</ele><time>2026-03-28T11:47:27Z</time></trkpt><trkpt lat="43.25951721112221" lon="11.361608816384715"><ele>185.0</ele><time>2026-03-28T11:47:28Z</time></trkpt><trkpt lat="43.25933979276043" lon="11.361518871621266"><ele>185.0</ele><time>2026-03-28T11:47:29Z</time></trkpt><trkpt lat="43.259187820916985" lon="11.361437842776027"><ele>185.0</ele><time>2026-03-28T11:47:30Z</time></trkpt><trkpt lat="43.259053118976965" lon="11.361363104520848"><ele>188.33333333333331</ele><time>2026-03-28T11:47:31Z</time></trkpt><trkpt lat="43.25891585207939" lon="11.361280289660282"><ele>191.66666666666666</ele><time>2026-03-28T11:47:32Z</time></trkpt><trkpt lat="43.25877962022104" lon="11.361183898053316"><ele>195.0</ele><time>2026-03-28T11:47:33Z</time></trkpt><trkpt lat="43.25864213701352" lon="11.36105552636403"><ele>195.0</ele><time>2026-03-28T11:47:34Z</time></trkpt><trkpt lat="43.25849074763666" lon="11.360915903884345"><ele>195.0</ele><time>2026-03-28T11:47:35Z</time></trkpt><trkpt lat="43.25834037317965" lon="11.360773882210978"><ele>195.0</ele><time>2026-03-28T11:47:36Z</time></trkpt><trkpt lat="43.258211725512126" lon="11.360648109935138"><ele>195.0</ele><time>2026-03-28T11:47:37Z</time></trkpt><trkpt lat="43.258088653008045" lon="11.360552994669796"><ele>195.0</ele><time>2026-03-28T11:47:38Z</time></trkpt><trkpt lat="43.25797792246659" lon="11.360454723727512"><ele>195.0</ele><time>2026-03-28T11:47:39Z</time></trkpt><trkpt lat="43.25785943916518" lon="11.360377263216792"><ele>195.0</ele><time>2026-03-28T11:47:40Z</time></trkpt><trkpt lat="43.257732700642116" lon="11.360315138003127"><ele>195.0</ele><time>2026-03-28T11:47:41Z</time></trkpt><trkpt lat="43.257595877301256" lon="11.360259637528404"><ele>195.0</ele><time>2026-03-28T11:47:42Z</time></trkpt><trkpt lat="43.25746406191045" lon="11.360204176118394"><ele>195.0</ele><time>2026-03-28T11:47:43Z</time></trkpt><trkpt lat="43.257353219298636" lon="11.360156851582527"><ele>195.0</ele><time>2026-03-28T11:47:44Z</time></trkpt><trkpt lat="43.257245664676596" lon="11.360115083986855"><ele>196.0</ele><time>2026-03-28T11:47:45Z</time></trkpt><trkpt lat="43.2571214983071" lon="11.360085936680257"><ele>197.0</ele><time>2026-03-28T11:47:46Z</time></trkpt><trkpt lat="43.25698313165145" lon="11.36006989498374"><ele>198.0</ele><time>2026-03-28T11:47:47Z</time></trkpt><trkpt lat="43.256846669985634" lon="11.360066941011166"><ele>199.0</ele><time>2026-03-28T11:47:48Z</time></trkpt><trkpt lat="43.25671453518391" lon="11.36007358456974"><ele>199.0</ele><time>2026-03-28T11:47:49Z</time></trkpt><trkpt lat="43.25657989510709" lon="11.360086851203603"><ele>199.0</ele><time>2026-03-28T11:47:50Z</time></trkpt><trkpt lat="43.25644456875217" lon="11.360116724469178"><ele>199.0</ele><time>2026-03-28T11:47:51.001Z</time></trkpt><trkpt lat="43.25630969432809" lon="11.360148476046914"><ele>199.0</ele><time>2026-03-28T11:47:52.001Z</time></trkpt><trkpt lat="43.25619268540622" lon="11.36018957211631"><ele>200.0</ele><time>2026-03-28T11:47:53.001Z</time></trkpt><trkpt lat="43.25607849704122" lon="11.360244154949854"><ele>201.0</ele><time>2026-03-28T11:47:54.001Z</time></trkpt><trkpt lat="43.25595908733215" lon="11.36032008252853"><ele>202.0</ele><time>2026-03-28T11:47:55.001Z</time></trkpt><trkpt lat="43.25582981105428" lon="11.360416730737668"><ele>203.0</ele><time>2026-03-28T11:47:56.001Z</time></trkpt><trkpt lat="43.25568223287658" lon="11.360524149906562"><ele>205.75</ele><time>2026-03-28T11:47:57.001Z</time></trkpt><trkpt lat="43.255540325206724" lon="11.360617480138146"><ele>208.5</ele><time>2026-03-28T11:47:58.001Z</time></trkpt><trkpt lat="43.2554153363883" lon="11.360698623737726"><ele>211.25</ele><time>2026-03-28T11:47:59.001Z</time></trkpt><trkpt lat="43.25530711425382" lon="11.360784610269105"><ele>214.0</ele><time>2026-03-28T11:48:00.001Z</time></trkpt><trkpt lat="43.25521097896125" lon="11.360887447391656"><ele>214.0</ele><time>2026-03-28T11:48:01.001Z</time></trkpt><trkpt lat="43.255123533637416" lon="11.361006350831264"><ele>214.0</ele><time>2026-03-28T11:48:02.001Z</time></trkpt><trkpt lat="43.25503560880852" lon="11.36114872208003"><ele>214.0</ele><time>2026-03-28T11:48:03.001Z</time></trkpt><trkpt lat="43.254945569737025" lon="11.361312559497925"><ele>214.0</ele><time>2026-03-28T11:48:04.001Z</time></trkpt><trkpt lat="43.25486347985383" lon="11.361479610537664"><ele>214.0</ele><time>2026-03-28T11:48:05.001Z</time></trkpt><trkpt lat="43.254790769836376" lon="11.361627935378175"><ele>214.0</ele><time>2026-03-28T11:48:06.001Z</time></trkpt><trkpt lat="43.25472112069041" lon="11.361765240506971"><ele>214.0</ele><time>2026-03-28T11:48:07.001Z</time></trkpt><trkpt lat="43.25464978858799" lon="11.361897035695474"><ele>214.0</ele><time>2026-03-28T11:48:08.001Z</time></trkpt><trkpt lat="43.25456406882931" lon="11.362019290912102"><ele>215.5</ele><time>2026-03-28T11:48:09.001Z</time></trkpt><trkpt lat="43.254466246239495" lon="11.362122345328709"><ele>217.0</ele><time>2026-03-28T11:48:10.001Z</time></trkpt><trkpt lat="43.25435414001905" lon="11.362210075435248"><ele>218.5</ele><time>2026-03-28T11:48:11.001Z</time></trkpt><trkpt lat="43.254236631300756" lon="11.362259213519481"><ele>220.0</ele><time>2026-03-28T11:48:12.001Z</time></trkpt><trkpt lat="43.254137629728" lon="11.362326726301482"><ele>220.0</ele><time>2026-03-28T11:48:13.001Z</time></trkpt><trkpt lat="43.254024660589494" lon="11.36236068882911"><ele>220.0</ele><time>2026-03-28T11:48:14.001Z</time></trkpt><trkpt lat="43.25389312031346" lon="11.362376058752757"><ele>220.0</ele><time>2026-03-28T11:48:15.001Z</time></trkpt><trkpt lat="43.253753150952974" lon="11.362388482456117"><ele>220.0</ele><time>2026-03-28T11:48:16.001Z</time></trkpt><trkpt lat="43.253585603100014" lon="11.362407759511461"><ele>221.66666666666666</ele><time>2026-03-28T11:48:17.001Z</time></trkpt><trkpt lat="43.25339474240957" lon="11.36245925414504"><ele>223.33333333333331</ele><time>2026-03-28T11:48:18.001Z</time></trkpt><trkpt lat="43.25323201343789" lon="11.362512418358303"><ele>225.0</ele><time>2026-03-28T11:48:19.001Z</time></trkpt><trkpt lat="43.253092283015825" lon="11.362568330539624"><ele>226.0</ele><time>2026-03-28T11:48:20.001Z</time></trkpt><trkpt lat="43.25295993037906" lon="11.362633934772564"><ele>227.0</ele><time>2026-03-28T11:48:21.001Z</time></trkpt><trkpt lat="43.252812632625655" lon="11.36272196061604"><ele>228.0</ele><time>2026-03-28T11:48:22.001Z</time></trkpt><trkpt lat="43.25265388200582" lon="11.362816116231627"><ele>228.0</ele><time>2026-03-28T11:48:23.001Z</time></trkpt><trkpt lat="43.25252661067911" lon="11.36289973709999"><ele>228.0</ele><time>2026-03-28T11:48:24.001Z</time></trkpt><trkpt lat="43.25242518872838" lon="11.362978112441622"><ele>228.0</ele><time>2026-03-28T11:48:25.001Z</time></trkpt><trkpt lat="43.25233768737614" lon="11.363062530398292"><ele>228.0</ele><time>2026-03-28T11:48:26.001Z</time></trkpt><trkpt lat="43.252249621990885" lon="11.363165293077158"><ele>229.0</ele><time>2026-03-28T11:48:27.001Z</time></trkpt><trkpt lat="43.25215648525033" lon="11.363274709011717"><ele>230.0</ele><time>2026-03-28T11:48:28.001Z</time></trkpt><trkpt lat="43.25206969292514" lon="11.363370875863016"><ele>231.0</ele><time>2026-03-28T11:48:29.001Z</time></trkpt><trkpt lat="43.25198576419311" lon="11.36345238933808"><ele>232.0</ele><time>2026-03-28T11:48:30.001Z</time></trkpt><trkpt lat="43.2518977012793" lon="11.363521091314334"><ele>233.0</ele><time>2026-03-28T11:48:31.001Z</time></trkpt><trkpt lat="43.251797184953276" lon="11.363577703555974"><ele>233.0</ele><time>2026-03-28T11:48:32.001Z</time></trkpt><trkpt lat="43.251690319709304" lon="11.363612561094282"><ele>233.0</ele><time>2026-03-28T11:48:33.001Z</time></trkpt><trkpt lat="43.25157704259663" lon="11.363600362760879"><ele>233.0</ele><time>2026-03-28T11:48:34.001Z</time></trkpt><trkpt lat="43.251455053529746" lon="11.363592879978384"><ele>233.0</ele><time>2026-03-28T11:48:35.001Z</time></trkpt><trkpt lat="43.25132822265266" lon="11.363566239597379"><ele>231.0</ele><time>2026-03-28T11:48:36.001Z</time></trkpt><trkpt lat="43.251202605345455" lon="11.363522288112854"><ele>229.0</ele><time>2026-03-28T11:48:37.001Z</time></trkpt><trkpt lat="43.25107945298351" lon="11.3634638115496"><ele>227.0</ele><time>2026-03-28T11:48:38.001Z</time></trkpt><trkpt lat="43.25095321337751" lon="11.363408065017234"><ele>225.0</ele><time>2026-03-28T11:48:39.001Z</time></trkpt><trkpt lat="43.25082475299756" lon="11.363357615716593"><ele>225.0</ele><time>2026-03-28T11:48:40.001Z</time></trkpt><trkpt lat="43.25068508426113" lon="11.363329384666747"><ele>225.0</ele><time>2026-03-28T11:48:41.001Z</time></trkpt><trkpt lat="43.25054805874762" lon="11.363288569594861"><ele>225.0</ele><time>2026-03-28T11:48:42.001Z</time></trkpt><trkpt lat="43.25041230864941" lon="11.363237314297706"><ele>225.0</ele><time>2026-03-28T11:48:43.001Z</time></trkpt><trkpt lat="43.25026857222867" lon="11.363216897179498"><ele>224.5</ele><time>2026-03-28T11:48:44.001Z</time></trkpt><trkpt lat="43.25013716101257" lon="11.36318791044904"><ele>224.0</ele><time>2026-03-28T11:48:45.001Z</time></trkpt><trkpt lat="43.25001879521651" lon="11.363146753535425"><ele>223.5</ele><time>2026-03-28T11:48:46.001Z</time></trkpt><trkpt lat="43.249903145162605" lon="11.363106482574763"><ele>223.0</ele><time>2026-03-28T11:48:47.001Z</time></trkpt><trkpt lat="43.249786326475096" lon="11.363069373199052"><ele>224.25</ele><time>2026-03-28T11:48:48.001Z</time></trkpt><trkpt lat="43.24966662745495" lon="11.363049900941567"><ele>225.5</ele><time>2026-03-28T11:48:49.001Z</time></trkpt><trkpt lat="43.24954271903617" lon="11.363056280042935"><ele>226.75</ele><time>2026-03-28T11:48:50.001Z</time></trkpt><trkpt lat="43.24941590597334" lon="11.363084343828776"><ele>228.0</ele><time>2026-03-28T11:48:51.001Z</time></trkpt><trkpt lat="43.24929292414917" lon="11.363140017944549"><ele>228.0</ele><time>2026-03-28T11:48:52.001Z</time></trkpt><trkpt lat="43.24917379522784" lon="11.363218387775785"><ele>228.0</ele><time>2026-03-28T11:48:53.001Z</time></trkpt><trkpt lat="43.249055126247555" lon="11.363313387838756"><ele>228.0</ele><time>2026-03-28T11:48:54.001Z</time></trkpt><trkpt lat="43.24896261260427" lon="11.363424715416102"><ele>228.0</ele><time>2026-03-28T11:48:55.001Z</time></trkpt><trkpt lat="43.24887311825878" lon="11.363545421812725"><ele>228.0</ele><time>2026-03-28T11:48:56.001Z</time></trkpt><trkpt lat="43.24878394278399" lon="11.363684709254116"><ele>228.0</ele><time>2026-03-28T11:48:57.001Z</time></trkpt><trkpt lat="43.248699516626665" lon="11.363821091583212"><ele>228.0</ele><time>2026-03-28T11:48:58.001Z</time></trkpt><trkpt lat="43.248606431607676" lon="11.36395350525824"><ele>228.0</ele><time>2026-03-28T11:48:59.001Z</time></trkpt><trkpt lat="43.24850655963051" lon="11.364087311650215"><ele>227.8</ele><time>2026-03-28T11:49:00.001Z</time></trkpt><trkpt lat="43.24841916254551" lon="11.364201977807669"><ele>227.60000000000002</ele><time>2026-03-28T11:49:01.001Z</time></trkpt><trkpt lat="43.24833922686866" lon="11.36430831468333"><ele>227.39999999999998</ele><time>2026-03-28T11:49:02.001Z</time></trkpt><trkpt lat="43.248288159308366" lon="11.364417267691996"><ele>227.2</ele><time>2026-03-28T11:49:03.001Z</time></trkpt><trkpt lat="43.24825210800491" lon="11.364540098468332"><ele>227.0</ele><time>2026-03-28T11:49:04.001Z</time></trkpt><trkpt lat="43.24823073195747" lon="11.364683493174187"><ele>226.5</ele><time>2026-03-28T11:49:05.001Z</time></trkpt><trkpt lat="43.24822407776806" lon="11.364840243855271"><ele>226.0</ele><time>2026-03-28T11:49:06.001Z</time></trkpt><trkpt lat="43.248225045016035" lon="11.365018656721128"><ele>225.5</ele><time>2026-03-28T11:49:07Z</time></trkpt><trkpt lat="43.248229038757245" lon="11.36517379964201"><ele>225.0</ele><time>2026-03-28T11:49:08Z</time></trkpt><trkpt lat="43.24821045075032" lon="11.365312713571658"><ele>225.0</ele><time>2026-03-28T11:49:09Z</time></trkpt><trkpt lat="43.24816562093923" lon="11.365430667220206"><ele>225.0</ele><time>2026-03-28T11:49:10Z</time></trkpt><trkpt lat="43.248108789383906" lon="11.365555783751336"><ele>225.0</ele><time>2026-03-28T11:49:11Z</time></trkpt><trkpt lat="43.24804059351278" lon="11.365675632732863"><ele>225.0</ele><time>2026-03-28T11:49:12Z</time></trkpt><trkpt lat="43.24795302825357" lon="11.365789802952024"><ele>225.0</ele><time>2026-03-28T11:49:13Z</time></trkpt><trkpt lat="43.24785129243886" lon="11.365902506150256"><ele>224.5</ele><time>2026-03-28T11:49:14Z</time></trkpt><trkpt lat="43.247742666668266" lon="11.365992230795092"><ele>224.0</ele><time>2026-03-28T11:49:15Z</time></trkpt><trkpt lat="43.24762089842496" lon="11.366021937706355"><ele>223.5</ele><time>2026-03-28T11:49:16Z</time></trkpt><trkpt lat="43.2474856408164" lon="11.366076483911314"><ele>223.0</ele><time>2026-03-28T11:49:17Z</time></trkpt><trkpt lat="43.24732652979279" lon="11.366101658731099"><ele>222.33333333333331</ele><time>2026-03-28T11:49:18Z</time></trkpt><trkpt lat="43.24715398738113" lon="11.366134082816124"><ele>221.66666666666669</ele><time>2026-03-28T11:49:19Z</time></trkpt><trkpt lat="43.246985337285146" lon="11.366180367227999"><ele>221.0</ele><time>2026-03-28T11:49:20Z</time></trkpt><trkpt lat="43.246821942472664" lon="11.3662324791403"><ele>221.0</ele><time>2026-03-28T11:49:21Z</time></trkpt><trkpt lat="43.2466590981738" lon="11.366308044727148"><ele>221.0</ele><time>2026-03-28T11:49:22Z</time></trkpt><trkpt lat="43.24651692619861" lon="11.36637580953829"><ele>221.0</ele><time>2026-03-28T11:49:23Z</time></trkpt><trkpt lat="43.24639604436811" lon="11.366446022216948"><ele>221.60000000000002</ele><time>2026-03-28T11:49:24Z</time></trkpt><trkpt lat="43.2462905417294" lon="11.36651511188633"><ele>222.20000000000002</ele><time>2026-03-28T11:49:25Z</time></trkpt><trkpt lat="43.24620188679268" lon="11.366580144767402"><ele>222.79999999999998</ele><time>2026-03-28T11:49:26Z</time></trkpt><trkpt lat="43.24611853703148" lon="11.36665894681149"><ele>223.39999999999998</ele><time>2026-03-28T11:49:27Z</time></trkpt><trkpt lat="43.246029993193766" lon="11.366756154895915"><ele>224.0</ele><time>2026-03-28T11:49:28Z</time></trkpt><trkpt lat="43.245930411437556" lon="11.36687890297245"><ele>224.0</ele><time>2026-03-28T11:49:29Z</time></trkpt><trkpt lat="43.24582272039238" lon="11.366998550862355"><ele>224.0</ele><time>2026-03-28T11:49:30Z</time></trkpt><trkpt lat="43.24570794636707" lon="11.36711145756363"><ele>224.0</ele><time>2026-03-28T11:49:31Z</time></trkpt><trkpt lat="43.24558554817608" lon="11.36721927253933"><ele>224.0</ele><time>2026-03-28T11:49:32Z</time></trkpt><trkpt lat="43.24544686334331" lon="11.367317594786842"><ele>222.66666666666669</ele><time>2026-03-28T11:49:33Z</time></trkpt><trkpt lat="43.245296063956104" lon="11.367396864145618"><ele>221.33333333333331</ele><time>2026-03-28T11:49:34Z</time></trkpt><trkpt lat="43.245134007454574" lon="11.367457480452567"><ele>220.0</ele><time>2026-03-28T11:49:35Z</time></trkpt><trkpt lat="43.24495491737122" lon="11.367516059208278"><ele>221.0</ele><time>2026-03-28T11:49:36Z</time></trkpt><trkpt lat="43.2447682316261" lon="11.367571521541036"><ele>222.0</ele><time>2026-03-28T11:49:37Z</time></trkpt><trkpt lat="43.24460572949305" lon="11.367612680671419"><ele>223.0</ele><time>2026-03-28T11:49:38Z</time></trkpt><trkpt lat="43.24445400526482" lon="11.3676524042459"><ele>223.0</ele><time>2026-03-28T11:49:39Z</time></trkpt><trkpt lat="43.244306076486" lon="11.367699161268273"><ele>223.0</ele><time>2026-03-28T11:49:40Z</time></trkpt><trkpt lat="43.244157820958435" lon="11.367752270382198"><ele>223.0</ele><time>2026-03-28T11:49:41Z</time></trkpt><trkpt lat="43.24400536350337" lon="11.367805613412187"><ele>223.75</ele><time>2026-03-28T11:49:42Z</time></trkpt><trkpt lat="43.243857106104635" lon="11.36785373543161"><ele>224.5</ele><time>2026-03-28T11:49:43Z</time></trkpt><trkpt lat="43.243734028545745" lon="11.367891274345364"><ele>225.25</ele><time>2026-03-28T11:49:44Z</time></trkpt><trkpt lat="43.243612584164566" lon="11.367924196302711"><ele>226.0</ele><time>2026-03-28T11:49:45Z</time></trkpt><trkpt lat="43.24347976220696" lon="11.367956786537096"><ele>226.0</ele><time>2026-03-28T11:49:46Z</time></trkpt><trkpt lat="43.2433531475063" lon="11.36798316244134"><ele>226.0</ele><time>2026-03-28T11:49:47Z</time></trkpt><trkpt lat="43.24323335567257" lon="11.36800111697649"><ele>226.0</ele><time>2026-03-28T11:49:48Z</time></trkpt><trkpt lat="43.24311616153557" lon="11.368023158728796"><ele>226.0</ele><time>2026-03-28T11:49:49Z</time></trkpt><trkpt lat="43.24300304649262" lon="11.368062738760951"><ele>225.0</ele><time>2026-03-28T11:49:50Z</time></trkpt><trkpt lat="43.24288771499515" lon="11.36811480758038"><ele>224.0</ele><time>2026-03-28T11:49:51Z</time></trkpt><trkpt lat="43.242773508614135" lon="11.368177549447326"><ele>223.0</ele><time>2026-03-28T11:49:52Z</time></trkpt><trkpt lat="43.24266178486981" lon="11.368253100698967"><ele>222.0</ele><time>2026-03-28T11:49:53Z</time></trkpt><trkpt lat="43.2425611920906" lon="11.368347255204844"><ele>222.0</ele><time>2026-03-28T11:49:54.001Z</time></trkpt><trkpt lat="43.242456916432346" lon="11.368463937111768"><ele>222.0</ele><time>2026-03-28T11:49:55.001Z</time></trkpt><trkpt lat="43.24234568047946" lon="11.36860553808705"><ele>222.0</ele><time>2026-03-28T11:49:56.001Z</time></trkpt><trkpt lat="43.242229960563684" lon="11.368764124591793"><ele>221.33333333333331</ele><time>2026-03-28T11:49:57.001Z</time></trkpt><trkpt lat="43.24211184457608" lon="11.36891907643985"><ele>220.66666666666666</ele><time>2026-03-28T11:49:58.001Z</time></trkpt><trkpt lat="43.242002468093304" lon="11.369065252864923"><ele>220.0</ele><time>2026-03-28T11:49:59.001Z</time></trkpt><trkpt lat="43.24190566452753" lon="11.369200233802651"><ele>220.0</ele><time>2026-03-28T11:50:00.001Z</time></trkpt><trkpt lat="43.2418085484064" lon="11.369325803799198"><ele>220.0</ele><time>2026-03-28T11:50:01.001Z</time></trkpt><trkpt lat="43.241709226983225" lon="11.36944930623845"><ele>220.0</ele><time>2026-03-28T11:50:02.001Z</time></trkpt><trkpt lat="43.241599034305864" lon="11.369577319146778"><ele>220.0</ele><time>2026-03-28T11:50:03.001Z</time></trkpt><trkpt lat="43.24148662118853" lon="11.369704084808939"><ele>218.33333333333331</ele><time>2026-03-28T11:50:04.001Z</time></trkpt><trkpt lat="43.241375845343995" lon="11.369824627218428"><ele>216.66666666666669</ele><time>2026-03-28T11:50:05.001Z</time></trkpt><trkpt lat="43.24125444910088" lon="11.36995259100843"><ele>215.0</ele><time>2026-03-28T11:50:06.001Z</time></trkpt><trkpt lat="43.24111888693924" lon="11.370083285724172"><ele>215.0</ele><time>2026-03-28T11:50:07.001Z</time></trkpt><trkpt lat="43.24098069222131" lon="11.37020992823632"><ele>215.0</ele><time>2026-03-28T11:50:08.001Z</time></trkpt><trkpt lat="43.240857051893784" lon="11.370318131747585"><ele>215.0</ele><time>2026-03-28T11:50:09.001Z</time></trkpt><trkpt lat="43.24074399943307" lon="11.37041721972941"><ele>215.0</ele><time>2026-03-28T11:50:10.001Z</time></trkpt><trkpt lat="43.24063851925944" lon="11.370518031042483"><ele>215.5</ele><time>2026-03-28T11:50:11.001Z</time></trkpt><trkpt lat="43.24054145514401" lon="11.370627834802843"><ele>216.0</ele><time>2026-03-28T11:50:12.001Z</time></trkpt><trkpt lat="43.2404518844801" lon="11.370751645236789"><ele>216.5</ele><time>2026-03-28T11:50:13.001Z</time></trkpt><trkpt lat="43.24036044786583" lon="11.370896459372249"><ele>217.0</ele><time>2026-03-28T11:50:14.001Z</time></trkpt><trkpt lat="43.24026049948188" lon="11.371067441102538"><ele>217.0</ele><time>2026-03-28T11:50:15.001Z</time></trkpt><trkpt lat="43.240151629330846" lon="11.371259917143876"><ele>217.0</ele><time>2026-03-28T11:50:16.001Z</time></trkpt><trkpt lat="43.240029013138816" lon="11.371487052073398"><ele>217.0</ele><time>2026-03-28T11:50:17.001Z</time></trkpt><trkpt lat="43.23992092453602" lon="11.371692551072274"><ele>216.25</ele><time>2026-03-28T11:50:18.001Z</time></trkpt><trkpt lat="43.239830037225396" lon="11.371875532753704"><ele>215.5</ele><time>2026-03-28T11:50:19.001Z</time></trkpt><trkpt lat="43.2397527687313" lon="11.372041756168121"><ele>214.75</ele><time>2026-03-28T11:50:20.001Z</time></trkpt><trkpt lat="43.23969215307197" lon="11.37218069652986"><ele>214.0</ele><time>2026-03-28T11:50:21.001Z</time></trkpt><trkpt lat="43.239644485245634" lon="11.372289391006065"><ele>213.79999999999998</ele><time>2026-03-28T11:50:22.001Z</time></trkpt><trkpt lat="43.23959492528384" lon="11.37238563955687"><ele>213.59999999999997</ele><time>2026-03-28T11:50:23.001Z</time></trkpt><trkpt lat="43.23954257555652" lon="11.37248050584216"><ele>213.4</ele><time>2026-03-28T11:50:24.001Z</time></trkpt><trkpt lat="43.23948407331747" lon="11.372568401998308"><ele>213.2</ele><time>2026-03-28T11:50:25.001Z</time></trkpt><trkpt lat="43.23940927679837" lon="11.372642592435117"><ele>213.0</ele><time>2026-03-28T11:50:26.001Z</time></trkpt><trkpt lat="43.23931428804476" lon="11.372681749762418"><ele>213.0</ele><time>2026-03-28T11:50:27.001Z</time></trkpt><trkpt lat="43.23919850382613" lon="11.372690444694252"><ele>213.0</ele><time>2026-03-28T11:50:28.001Z</time></trkpt><trkpt lat="43.23907291362504" lon="11.372686124216584"><ele>213.0</ele><time>2026-03-28T11:50:29.001Z</time></trkpt><trkpt lat="43.23895981549558" lon="11.372676391392778"><ele>213.0</ele><time>2026-03-28T11:50:30.001Z</time></trkpt><trkpt lat="43.2388515580028" lon="11.372677571124454"><ele>213.0</ele><time>2026-03-28T11:50:31.001Z</time></trkpt><trkpt lat="43.23873565789813" lon="11.372698995981752"><ele>213.0</ele><time>2026-03-28T11:50:32.001Z</time></trkpt><trkpt lat="43.23862190804745" lon="11.372745557833193"><ele>213.0</ele><time>2026-03-28T11:50:33.001Z</time></trkpt><trkpt lat="43.23851691562947" lon="11.372804564874592"><ele>213.0</ele><time>2026-03-28T11:50:34.001Z</time></trkpt><trkpt lat="43.23842182229691" lon="11.372867331789339"><ele>213.0</ele><time>2026-03-28T11:50:35.001Z</time></trkpt><trkpt lat="43.238333043065865" lon="11.372931007036517"><ele>213.0</ele><time>2026-03-28T11:50:36.001Z</time></trkpt><trkpt lat="43.238264899453156" lon="11.372999852137506"><ele>213.0</ele><time>2026-03-28T11:50:37.001Z</time></trkpt><trkpt lat="43.238216257344625" lon="11.37309099624462"><ele>213.0</ele><time>2026-03-28T11:50:38.001Z</time></trkpt><trkpt lat="43.23819054725649" lon="11.373209123679414"><ele>213.0</ele><time>2026-03-28T11:50:39.001Z</time></trkpt><trkpt lat="43.238182960097845" lon="11.373348903905178"><ele>211.0</ele><time>2026-03-28T11:50:40.001Z</time></trkpt><trkpt lat="43.238188070693674" lon="11.373514369832359"><ele>209.0</ele><time>2026-03-28T11:50:41.001Z</time></trkpt><trkpt lat="43.238205706095705" lon="11.373691738449892"><ele>207.0</ele><time>2026-03-28T11:50:42.001Z</time></trkpt><trkpt lat="43.23822525095337" lon="11.373864053074936"><ele>205.0</ele><time>2026-03-28T11:50:43.001Z</time></trkpt><trkpt lat="43.238239352696404" lon="11.374027179864708"><ele>204.75</ele><time>2026-03-28T11:50:44.001Z</time></trkpt><trkpt lat="43.238243552895966" lon="11.374180383932604"><ele>204.5</ele><time>2026-03-28T11:50:45.001Z</time></trkpt><trkpt lat="43.23825379820166" lon="11.374327642089952"><ele>204.25</ele><time>2026-03-28T11:50:46.001Z</time></trkpt><trkpt lat="43.23826631845887" lon="11.374485483338876"><ele>204.0</ele><time>2026-03-28T11:50:47.001Z</time></trkpt><trkpt lat="43.238274063518496" lon="11.374643141483961"><ele>204.0</ele><time>2026-03-28T11:50:48.001Z</time></trkpt><trkpt lat="43.23827208211778" lon="11.374782393932719"><ele>204.0</ele><time>2026-03-28T11:50:49.001Z</time></trkpt><trkpt lat="43.238253681734754" lon="11.374904198680042"><ele>204.0</ele><time>2026-03-28T11:50:50.001Z</time></trkpt><trkpt lat="43.238212134861314" lon="11.375015788891817"><ele>204.0</ele><time>2026-03-28T11:50:51.001Z</time></trkpt><trkpt lat="43.23814830301091" lon="11.375113276046772"><ele>204.0</ele><time>2026-03-28T11:50:52.001Z</time></trkpt><trkpt lat="43.2380689476025" lon="11.375194369182575"><ele>204.0</ele><time>2026-03-28T11:50:53.001Z</time></trkpt><trkpt lat="43.23797619886213" lon="11.375270125974565"><ele>204.0</ele><time>2026-03-28T11:50:54.001Z</time></trkpt><trkpt lat="43.237866226429475" lon="11.375355359952726"><ele>204.0</ele><time>2026-03-28T11:50:55.001Z</time></trkpt><trkpt lat="43.237743812910765" lon="11.37546435644936"><ele>204.0</ele><time>2026-03-28T11:50:56.001Z</time></trkpt><trkpt lat="43.2376317822192" lon="11.375565909270122"><ele>202.75</ele><time>2026-03-28T11:50:57.001Z</time></trkpt><trkpt lat="43.237534321356655" lon="11.37568029093155"><ele>201.5</ele><time>2026-03-28T11:50:58.001Z</time></trkpt><trkpt lat="43.23744229289391" lon="11.375790062924985"><ele>200.25</ele><time>2026-03-28T11:50:59.001Z</time></trkpt><trkpt lat="43.237357833810925" lon="11.375884219262602"><ele>199.0</ele><time>2026-03-28T11:51:00.001Z</time></trkpt><trkpt lat="43.23727974892307" lon="11.375963334529464"><ele>198.39999999999998</ele><time>2026-03-28T11:51:01.001Z</time></trkpt><trkpt lat="43.23720936376633" lon="11.376040276094423"><ele>197.8</ele><time>2026-03-28T11:51:02.001Z</time></trkpt><trkpt lat="43.23715147656012" lon="11.376106437033759"><ele>197.2</ele><time>2026-03-28T11:51:03.001Z</time></trkpt><trkpt lat="43.23704765850546" lon="11.376215809514145"><ele>196.60000000000002</ele><time>2026-03-28T11:51:05.001Z</time></trkpt><trkpt lat="43.23698355307029" lon="11.376279835543656"><ele>196.0</ele><time>2026-03-28T11:51:07.001Z</time></trkpt><trkpt lat="43.23690722642654" lon="11.37633691401122"><ele>195.99999999999997</ele><time>2026-03-28T11:51:09.001Z</time></trkpt><trkpt lat="43.23681684126863" lon="11.376363609696202"><ele>196.0</ele><time>2026-03-28T11:51:11.001Z</time></trkpt><trkpt lat="43.23670171286816" lon="11.376376492460258"><ele>196.0</ele><time>2026-03-28T11:51:13Z</time></trkpt><trkpt lat="43.23663524562543" lon="11.376378693579056"><ele>196.0</ele><time>2026-03-28T11:51:14Z</time></trkpt><trkpt lat="43.23656047445984" lon="11.376341953779798"><ele>195.99999999999997</ele><time>2026-03-28T11:51:15Z</time></trkpt><trkpt lat="43.23647400859987" lon="11.376310112734433"><ele>196.0</ele><time>2026-03-28T11:51:16Z</time></trkpt><trkpt lat="43.23639196680697" lon="11.376249037833755"><ele>194.0</ele><time>2026-03-28T11:51:17Z</time></trkpt><trkpt lat="43.23632706096354" lon="11.376152051172921"><ele>192.0</ele><time>2026-03-28T11:51:18Z</time></trkpt><trkpt lat="43.23627414156658" lon="11.376039242798116"><ele>190.0</ele><time>2026-03-28T11:51:19Z</time></trkpt><trkpt lat="43.23623616766697" lon="11.375918350744618"><ele>188.0</ele><time>2026-03-28T11:51:20Z</time></trkpt><trkpt lat="43.2362142602701" lon="11.375793209697665"><ele>186.0</ele><time>2026-03-28T11:51:21Z</time></trkpt><trkpt lat="43.2361992559875" lon="11.375665086200996"><ele>186.0</ele><time>2026-03-28T11:51:22Z</time></trkpt><trkpt lat="43.236187245476714" lon="11.375526819483602"><ele>186.0</ele><time>2026-03-28T11:51:23Z</time></trkpt><trkpt lat="43.23619425882058" lon="11.37539313231855"><ele>186.0</ele><time>2026-03-28T11:51:24Z</time></trkpt><trkpt lat="43.23622530597435" lon="11.375264840375108"><ele>186.0</ele><time>2026-03-28T11:51:25Z</time></trkpt><trkpt lat="43.23628223310497" lon="11.375146841852624"><ele>186.0</ele><time>2026-03-28T11:51:26Z</time></trkpt><trkpt lat="43.236340400469324" lon="11.375007450893866"><ele>185.0</ele><time>2026-03-28T11:51:27Z</time></trkpt><trkpt lat="43.23638450840424" lon="11.374861102387552"><ele>184.0</ele><time>2026-03-28T11:51:28Z</time></trkpt><trkpt lat="43.23643912557014" lon="11.374739194495218"><ele>183.0</ele><time>2026-03-28T11:51:29Z</time></trkpt><trkpt lat="43.23649742804765" lon="11.374601393903657"><ele>182.0</ele><time>2026-03-28T11:51:30Z</time></trkpt><trkpt lat="43.236535529469435" lon="11.374444075566569"><ele>183.0</ele><time>2026-03-28T11:51:31Z</time></trkpt><trkpt lat="43.23655943615889" lon="11.374306366229685"><ele>184.0</ele><time>2026-03-28T11:51:32Z</time></trkpt><trkpt lat="43.236574045078285" lon="11.3741888073521"><ele>185.0</ele><time>2026-03-28T11:51:33Z</time></trkpt><trkpt lat="43.23658583784789" lon="11.37407635772432"><ele>186.0</ele><time>2026-03-28T11:51:34Z</time></trkpt><trkpt lat="43.236591425509204" lon="11.37395997381744"><ele>187.0</ele><time>2026-03-28T11:51:35Z</time></trkpt><trkpt lat="43.23658296381723" lon="11.373829860435263"><ele>187.0</ele><time>2026-03-28T11:51:36Z</time></trkpt><trkpt lat="43.23655069489851" lon="11.373701203653514"><ele>187.0</ele><time>2026-03-28T11:51:37Z</time></trkpt><trkpt lat="43.236498873619574" lon="11.373582523982128"><ele>187.0</ele><time>2026-03-28T11:51:38Z</time></trkpt><trkpt lat="43.236426429630825" lon="11.373477754154061"><ele>187.0</ele><time>2026-03-28T11:51:39Z</time></trkpt><trkpt lat="43.23633170196017" lon="11.373406205785317"><ele>187.0</ele><time>2026-03-28T11:51:40Z</time></trkpt><trkpt lat="43.23622139788215" lon="11.37339104306065"><ele>185.75</ele><time>2026-03-28T11:51:41Z</time></trkpt><trkpt lat="43.23611997901789" lon="11.373382536233981"><ele>184.5</ele><time>2026-03-28T11:51:42Z</time></trkpt><trkpt lat="43.23600476949199" lon="11.373395561673846"><ele>183.25</ele><time>2026-03-28T11:51:43Z</time></trkpt><trkpt lat="43.23586700131355" lon="11.3733925873847"><ele>182.0</ele><time>2026-03-28T11:51:44Z</time></trkpt><trkpt lat="43.235678396067044" lon="11.373414334505924"><ele>179.5</ele><time>2026-03-28T11:51:45Z</time></trkpt><trkpt lat="43.235429354886044" lon="11.373444996192315"><ele>177.0</ele><time>2026-03-28T11:51:46Z</time></trkpt><trkpt lat="43.23517253291224" lon="11.373469069235544"><ele>177.0</ele><time>2026-03-28T11:51:47Z</time></trkpt><trkpt lat="43.234958531471435" lon="11.37350732770761"><ele>177.0</ele><time>2026-03-28T11:51:48Z</time></trkpt><trkpt lat="43.23476596987961" lon="11.37350717817605"><ele>177.0</ele><time>2026-03-28T11:51:49Z</time></trkpt><trkpt lat="43.23458316603936" lon="11.373522453873877"><ele>177.33333333333334</ele><time>2026-03-28T11:51:50Z</time></trkpt><trkpt lat="43.234414886491216" lon="11.373553603931258"><ele>177.66666666666669</ele><time>2026-03-28T11:51:51Z</time></trkpt><trkpt lat="43.23425585382858" lon="11.373568167128232"><ele>178.0</ele><time>2026-03-28T11:51:52Z</time></trkpt><trkpt lat="43.234116885461525" lon="11.37357647710581"><ele>178.0</ele><time>2026-03-28T11:51:53Z</time></trkpt><trkpt lat="43.233985655844066" lon="11.373584018133611"><ele>178.0</ele><time>2026-03-28T11:51:54Z</time></trkpt><trkpt lat="43.233864277542935" lon="11.373593302776257"><ele>178.0</ele><time>2026-03-28T11:51:55Z</time></trkpt><trkpt lat="43.23374164978388" lon="11.37361816429696"><ele>178.0</ele><time>2026-03-28T11:51:56Z</time></trkpt><trkpt lat="43.23360992307605" lon="11.373682662400297"><ele>178.33333333333334</ele><time>2026-03-28T11:51:57Z</time></trkpt><trkpt lat="43.23345394643793" lon="11.37378614422477"><ele>178.66666666666666</ele><time>2026-03-28T11:51:58Z</time></trkpt><trkpt lat="43.233256205413994" lon="11.37393029841745"><ele>179.0</ele><time>2026-03-28T11:51:59Z</time></trkpt><trkpt lat="43.233024909794565" lon="11.374098245166909"><ele>179.0</ele><time>2026-03-28T11:52:00Z</time></trkpt><trkpt lat="43.23279991316445" lon="11.374249561755468"><ele>179.0</ele><time>2026-03-28T11:52:01Z</time></trkpt><trkpt lat="43.23260065378786" lon="11.37439516084065"><ele>179.0</ele><time>2026-03-28T11:52:02.001Z</time></trkpt><trkpt lat="43.23240100891887" lon="11.374536029651061"><ele>179.0</ele><time>2026-03-28T11:52:03.001Z</time></trkpt><trkpt lat="43.23221318582601" lon="11.37466625189101"><ele>179.0</ele><time>2026-03-28T11:52:04.001Z</time></trkpt><trkpt lat="43.23203446063719" lon="11.374788232753804"><ele>179.0</ele><time>2026-03-28T11:52:05.001Z</time></trkpt><trkpt lat="43.231864755037186" lon="11.37490684865858"><ele>179.0</ele><time>2026-03-28T11:52:06.001Z</time></trkpt><trkpt lat="43.2317008710797" lon="11.375025145279224"><ele>179.0</ele><time>2026-03-28T11:52:07.001Z</time></trkpt><trkpt lat="43.23153807741037" lon="11.375140845043317"><ele>180.66666666666666</ele><time>2026-03-28T11:52:08.001Z</time></trkpt><trkpt lat="43.23137089855413" lon="11.375258250371447"><ele>182.33333333333334</ele><time>2026-03-28T11:52:09.001Z</time></trkpt><trkpt lat="43.231198214395185" lon="11.375380770891253"><ele>184.0</ele><time>2026-03-28T11:52:10.001Z</time></trkpt><trkpt lat="43.23102438715231" lon="11.375510054752711"><ele>184.0</ele><time>2026-03-28T11:52:11.001Z</time></trkpt><trkpt lat="43.23085261494111" lon="11.375631326568502"><ele>184.0</ele><time>2026-03-28T11:52:12.001Z</time></trkpt><trkpt lat="43.230690952030805" lon="11.375742291141718"><ele>184.0</ele><time>2026-03-28T11:52:13.001Z</time></trkpt><trkpt lat="43.23054126600927" lon="11.375847347281708"><ele>184.0</ele><time>2026-03-28T11:52:14.001Z</time></trkpt><trkpt lat="43.23039468190006" lon="11.375955968822122"><ele>184.0</ele><time>2026-03-28T11:52:15.001Z</time></trkpt><trkpt lat="43.230250024348514" lon="11.37606376484769"><ele>184.0</ele><time>2026-03-28T11:52:16.001Z</time></trkpt><trkpt lat="43.23011009779252" lon="11.376171947660676"><ele>184.0</ele><time>2026-03-28T11:52:17.001Z</time></trkpt><trkpt lat="43.229966524814664" lon="11.376277831567633"><ele>184.0</ele><time>2026-03-28T11:52:18.001Z</time></trkpt><trkpt lat="43.229824282721005" lon="11.376388451657393"><ele>184.0</ele><time>2026-03-28T11:52:19.001Z</time></trkpt><trkpt lat="43.22969286379095" lon="11.376492605385314"><ele>184.5</ele><time>2026-03-28T11:52:20.001Z</time></trkpt><trkpt lat="43.22956428030154" lon="11.376593444474524"><ele>185.0</ele><time>2026-03-28T11:52:21.001Z</time></trkpt><trkpt lat="43.229432241082094" lon="11.37670221443154"><ele>185.5</ele><time>2026-03-28T11:52:22.001Z</time></trkpt><trkpt lat="43.22930746417559" lon="11.376805896105873"><ele>186.0</ele><time>2026-03-28T11:52:23.001Z</time></trkpt><trkpt lat="43.22919107513015" lon="11.376901348743033"><ele>186.0</ele><time>2026-03-28T11:52:24.001Z</time></trkpt><trkpt lat="43.22907191291006" lon="11.376992602478465"><ele>186.0</ele><time>2026-03-28T11:52:25.001Z</time></trkpt><trkpt lat="43.22894141928125" lon="11.377079113006115"><ele>186.0</ele><time>2026-03-28T11:52:26.001Z</time></trkpt><trkpt lat="43.228829952362425" lon="11.377140943617997"><ele>186.0</ele><time>2026-03-28T11:52:27.001Z</time></trkpt><trkpt lat="43.22870468789383" lon="11.377196459876915"><ele>183.33333333333334</ele><time>2026-03-28T11:52:28.001Z</time></trkpt><trkpt lat="43.22856882147443" lon="11.377238486328425"><ele>180.66666666666669</ele><time>2026-03-28T11:52:29.001Z</time></trkpt><trkpt lat="43.22842036914817" lon="11.377238845724351"><ele>178.0</ele><time>2026-03-28T11:52:30.001Z</time></trkpt><trkpt lat="43.22825264170295" lon="11.37725679791687"><ele>178.0</ele><time>2026-03-28T11:52:31.001Z</time></trkpt><trkpt lat="43.22809464020994" lon="11.377283970221836"><ele>178.0</ele><time>2026-03-28T11:52:32.001Z</time></trkpt><trkpt lat="43.2279561394226" lon="11.377290646749874"><ele>178.0</ele><time>2026-03-28T11:52:33.001Z</time></trkpt><trkpt lat="43.227828832430085" lon="11.377303884119943"><ele>178.0</ele><time>2026-03-28T11:52:34.001Z</time></trkpt><trkpt lat="43.2276983198971" lon="11.377312557357302"><ele>178.0</ele><time>2026-03-28T11:52:35.001Z</time></trkpt><trkpt lat="43.227562405386266" lon="11.377310168512459"><ele>178.0</ele><time>2026-03-28T11:52:36.001Z</time></trkpt><trkpt lat="43.22741768044502" lon="11.377298138087788"><ele>178.0</ele><time>2026-03-28T11:52:37.001Z</time></trkpt><trkpt lat="43.2272728097327" lon="11.377274809037113"><ele>178.0</ele><time>2026-03-28T11:52:38.001Z</time></trkpt><trkpt lat="43.227142047118214" lon="11.377237291407607"><ele>179.0</ele><time>2026-03-28T11:52:39.001Z</time></trkpt><trkpt lat="43.22700282164332" lon="11.377163452348478"><ele>180.0</ele><time>2026-03-28T11:52:40.001Z</time></trkpt><trkpt lat="43.22685732188297" lon="11.377066870521212"><ele>181.0</ele><time>2026-03-28T11:52:41.001Z</time></trkpt><trkpt lat="43.226723630644365" lon="11.37693972143465"><ele>181.0</ele><time>2026-03-28T11:52:42.001Z</time></trkpt><trkpt lat="43.226596557389584" lon="11.376823912278844"><ele>181.0</ele><time>2026-03-28T11:52:43.001Z</time></trkpt><trkpt lat="43.22647520229375" lon="11.376694851569205"><ele>181.0</ele><time>2026-03-28T11:52:44.001Z</time></trkpt><trkpt lat="43.226372165133604" lon="11.37655775306277"><ele>180.5</ele><time>2026-03-28T11:52:45.001Z</time></trkpt><trkpt lat="43.22628650506485" lon="11.376410791153164"><ele>180.0</ele><time>2026-03-28T11:52:46.001Z</time></trkpt><trkpt lat="43.22621459329631" lon="11.376263540050939"><ele>179.5</ele><time>2026-03-28T11:52:47.001Z</time></trkpt><trkpt lat="43.22613587614963" lon="11.376109902134557"><ele>179.0</ele><time>2026-03-28T11:52:48.001Z</time></trkpt><trkpt lat="43.22607945135701" lon="11.37593100062629"><ele>179.0</ele><time>2026-03-28T11:52:49.001Z</time></trkpt><trkpt lat="43.22603172237307" lon="11.375737013418552"><ele>179.0</ele><time>2026-03-28T11:52:50.001Z</time></trkpt><trkpt lat="43.22602998702772" lon="11.375546471677023"><ele>179.0</ele><time>2026-03-28T11:52:51.001Z</time></trkpt><trkpt lat="43.22602455095971" lon="11.375366444727183"><ele>179.0</ele><time>2026-03-28T11:52:52.001Z</time></trkpt><trkpt lat="43.22603709178099" lon="11.375190710509312"><ele>178.66666666666666</ele><time>2026-03-28T11:52:53.001Z</time></trkpt><trkpt lat="43.226054862632544" lon="11.374984486048888"><ele>178.33333333333334</ele><time>2026-03-28T11:52:54.001Z</time></trkpt><trkpt lat="43.22607761982788" lon="11.374767355415448"><ele>178.0</ele><time>2026-03-28T11:52:55.001Z</time></trkpt><trkpt lat="43.22610068480572" lon="11.374567686142619"><ele>178.0</ele><time>2026-03-28T11:52:56.001Z</time></trkpt><trkpt lat="43.22612106530396" lon="11.374382019569094"><ele>178.0</ele><time>2026-03-28T11:52:57.001Z</time></trkpt><trkpt lat="43.22613507448343" lon="11.374203408188906"><ele>178.0</ele><time>2026-03-28T11:52:58.001Z</time></trkpt><trkpt lat="43.22614681221578" lon="11.374034889862944"><ele>178.0</ele><time>2026-03-28T11:52:59.001Z</time></trkpt><trkpt lat="43.22614891499842" lon="11.373852992103592"><ele>178.0</ele><time>2026-03-28T11:53:00.001Z</time></trkpt><trkpt lat="43.22612845490228" lon="11.373662783534934"><ele>178.0</ele><time>2026-03-28T11:53:01.001Z</time></trkpt><trkpt lat="43.22608965563229" lon="11.373478409927817"><ele>178.0</ele><time>2026-03-28T11:53:02.001Z</time></trkpt><trkpt lat="43.22603953308945" lon="11.373287095725399"><ele>178.0</ele><time>2026-03-28T11:53:03.001Z</time></trkpt><trkpt lat="43.22598342543577" lon="11.373095434413262"><ele>179.0</ele><time>2026-03-28T11:53:04.001Z</time></trkpt><trkpt lat="43.2259199491315" lon="11.372895421737812"><ele>180.0</ele><time>2026-03-28T11:53:05.001Z</time></trkpt><trkpt lat="43.2258624596978" lon="11.372714556539973"><ele>181.0</ele><time>2026-03-28T11:53:06.001Z</time></trkpt><trkpt lat="43.22581505300795" lon="11.372557621189454"><ele>182.0</ele><time>2026-03-28T11:53:07.001Z</time></trkpt><trkpt lat="43.225771680481714" lon="11.372420264259025"><ele>182.0</ele><time>2026-03-28T11:53:08.001Z</time></trkpt><trkpt lat="43.22571516868691" lon="11.3723303428038"><ele>182.0</ele><time>2026-03-28T11:53:09.001Z</time></trkpt><trkpt lat="43.22567191492121" lon="11.3722506790538"><ele>182.0</ele><time>2026-03-28T11:53:10.001Z</time></trkpt><trkpt lat="43.22561919175215" lon="11.372184739867485"><ele>182.0</ele><time>2026-03-28T11:53:11.001Z</time></trkpt><trkpt lat="43.22554863856552" lon="11.372145256746949"><ele>182.0</ele><time>2026-03-28T11:53:12.001Z</time></trkpt><trkpt lat="43.22546892058741" lon="11.372143716965791"><ele>182.0</ele><time>2026-03-28T11:53:13.001Z</time></trkpt><trkpt lat="43.22539054613387" lon="11.37217490641269"><ele>181.66666666666666</ele><time>2026-03-28T11:53:14.001Z</time></trkpt><trkpt lat="43.22532865601637" lon="11.372239342436465"><ele>181.33333333333331</ele><time>2026-03-28T11:53:15.001Z</time></trkpt><trkpt lat="43.22528180728905" lon="11.372326105070455"><ele>181.0</ele><time>2026-03-28T11:53:16.001Z</time></trkpt><trkpt lat="43.22524933400459" lon="11.372438992630665"><ele>180.66666666666666</ele><time>2026-03-28T11:53:17.001Z</time></trkpt><trkpt lat="43.22521287919182" lon="11.372547851492346"><ele>180.33333333333334</ele><time>2026-03-28T11:53:18.001Z</time></trkpt><trkpt lat="43.225174712513976" lon="11.372656110367728"><ele>180.0</ele><time>2026-03-28T11:53:19Z</time></trkpt><trkpt lat="43.22513695209065" lon="11.37275890710006"><ele>180.0</ele><time>2026-03-28T11:53:20Z</time></trkpt><trkpt lat="43.225098079357096" lon="11.372864125067956"><ele>180.0</ele><time>2026-03-28T11:53:21Z</time></trkpt><trkpt lat="43.22506009136933" lon="11.372965134730922"><ele>180.0</ele><time>2026-03-28T11:53:22Z</time></trkpt><trkpt lat="43.22501919277972" lon="11.37305523256558"><ele>180.0</ele><time>2026-03-28T11:53:23Z</time></trkpt><trkpt lat="43.22497745510557" lon="11.373137443745298"><ele>180.0</ele><time>2026-03-28T11:53:24Z</time></trkpt><trkpt lat="43.22491714326937" lon="11.37321358848386"><ele>180.0</ele><time>2026-03-28T11:53:25Z</time></trkpt><trkpt lat="43.224831011914254" lon="11.373346849743427"><ele>181.14285714285714</ele><time>2026-03-28T11:53:27Z</time></trkpt><trkpt lat="43.224770165257496" lon="11.373398348043322"><ele>182.2857142857143</ele><time>2026-03-28T11:53:28Z</time></trkpt><trkpt lat="43.22470620224617" lon="11.373441183537027"><ele>183.42857142857144</ele><time>2026-03-28T11:53:29Z</time></trkpt><trkpt lat="43.224637030312756" lon="11.373481187035045"><ele>184.57142857142856</ele><time>2026-03-28T11:53:30Z</time></trkpt><trkpt lat="43.22456366169741" lon="11.373510625209875"><ele>185.71428571428572</ele><time>2026-03-28T11:53:31Z</time></trkpt><trkpt lat="43.22449286759727" lon="11.373532876515013"><ele>186.85714285714286</ele><time>2026-03-28T11:53:32Z</time></trkpt><trkpt lat="43.2244139166288" lon="11.373545916526957"><ele>188.0</ele><time>2026-03-28T11:53:33Z</time></trkpt><trkpt lat="43.224338097951005" lon="11.373520723748266"><ele>188.0</ele><time>2026-03-28T11:53:34Z</time></trkpt><trkpt lat="43.22426528697013" lon="11.37350652528193"><ele>188.0</ele><time>2026-03-28T11:53:35Z</time></trkpt><trkpt lat="43.224190255963485" lon="11.373484551820582"><ele>188.0</ele><time>2026-03-28T11:53:36Z</time></trkpt><trkpt lat="43.22410064409" lon="11.373448123450277"><ele>188.0</ele><time>2026-03-28T11:53:37Z</time></trkpt><trkpt lat="43.2240052890939" lon="11.373393689120082"><ele>188.0</ele><time>2026-03-28T11:53:38Z</time></trkpt><trkpt lat="43.223930827543406" lon="11.373334000163187"><ele>188.0</ele><time>2026-03-28T11:53:39Z</time></trkpt><trkpt lat="43.2238556202562" lon="11.373265498200587"><ele>191.60000000000002</ele><time>2026-03-28T11:53:40Z</time></trkpt><trkpt lat="43.22378824286391" lon="11.373188039964113"><ele>195.20000000000002</ele><time>2026-03-28T11:53:41Z</time></trkpt><trkpt lat="43.22371802549165" lon="11.373102217279929"><ele>198.8</ele><time>2026-03-28T11:53:42Z</time></trkpt><trkpt lat="43.223654212336356" lon="11.372987362986198"><ele>202.4</ele><time>2026-03-28T11:53:43Z</time></trkpt><trkpt lat="43.22362788244768" lon="11.372857077154674"><ele>206.0</ele><time>2026-03-28T11:53:44Z</time></trkpt><trkpt lat="43.223603343557784" lon="11.372740149000126"><ele>206.0</ele><time>2026-03-28T11:53:45Z</time></trkpt><trkpt lat="43.22359600073223" lon="11.372616883371187"><ele>206.0</ele><time>2026-03-28T11:53:46Z</time></trkpt><trkpt lat="43.22359947208478" lon="11.37249916823793"><ele>206.0</ele><time>2026-03-28T11:53:47Z</time></trkpt><trkpt lat="43.22361624401968" lon="11.372369952176275"><ele>206.0</ele><time>2026-03-28T11:53:48Z</time></trkpt><trkpt lat="43.22362806889197" lon="11.372212500606478"><ele>206.0</ele><time>2026-03-28T11:53:49Z</time></trkpt><trkpt lat="43.22364827163535" lon="11.37206995775251"><ele>206.00000000000003</ele><time>2026-03-28T11:53:50Z</time></trkpt><trkpt lat="43.22365518816709" lon="11.371948390535142"><ele>206.0</ele><time>2026-03-28T11:53:51Z</time></trkpt><trkpt lat="43.22364644882695" lon="11.371842675150365"><ele>206.0</ele><time>2026-03-28T11:53:52Z</time></trkpt><trkpt lat="43.223622427465" lon="11.371739468839623"><ele>206.0</ele><time>2026-03-28T11:53:53Z</time></trkpt><trkpt lat="43.223613158252675" lon="11.371627042025192"><ele>206.00000000000003</ele><time>2026-03-28T11:53:54Z</time></trkpt><trkpt lat="43.22356276694528" lon="11.37151279070503"><ele>206.0</ele><time>2026-03-28T11:53:55Z</time></trkpt><trkpt lat="43.223496205170335" lon="11.371428517235216"><ele>205.33333333333334</ele><time>2026-03-28T11:53:56Z</time></trkpt><trkpt lat="43.22343751336684" lon="11.371337604943502"><ele>204.66666666666669</ele><time>2026-03-28T11:53:57Z</time></trkpt><trkpt lat="43.22337679290511" lon="11.37124377535849"><ele>204.0</ele><time>2026-03-28T11:53:58Z</time></trkpt><trkpt lat="43.22328523310367" lon="11.3711923177045"><ele>203.33333333333331</ele><time>2026-03-28T11:53:59Z</time></trkpt><trkpt lat="43.22322403317295" lon="11.371121129891442"><ele>202.66666666666666</ele><time>2026-03-28T11:54:00Z</time></trkpt><trkpt lat="43.223138790776126" lon="11.371153273804588"><ele>202.0</ele><time>2026-03-28T11:54:01Z</time></trkpt><trkpt lat="43.2230484528781" lon="11.37118321028209"><ele>201.8</ele><time>2026-03-28T11:54:02Z</time></trkpt><trkpt lat="43.22297065123899" lon="11.371240788772509"><ele>201.6</ele><time>2026-03-28T11:54:03Z</time></trkpt><trkpt lat="43.222905060449335" lon="11.371306758176267"><ele>201.4</ele><time>2026-03-28T11:54:04Z</time></trkpt><trkpt lat="43.222839396452144" lon="11.371396485554818"><ele>201.20000000000002</ele><time>2026-03-28T11:54:05Z</time></trkpt><trkpt lat="43.22277514879283" lon="11.371514443428657"><ele>201.0</ele><time>2026-03-28T11:54:06Z</time></trkpt><trkpt lat="43.222704254772076" lon="11.371653863620732"><ele>202.75</ele><time>2026-03-28T11:54:07Z</time></trkpt><trkpt lat="43.222619185662836" lon="11.371796780611565"><ele>204.5</ele><time>2026-03-28T11:54:08Z</time></trkpt><trkpt lat="43.22251962823451" lon="11.371967483204424"><ele>206.25</ele><time>2026-03-28T11:54:09Z</time></trkpt><trkpt lat="43.222423052906" lon="11.372102560225208"><ele>208.0</ele><time>2026-03-28T11:54:10Z</time></trkpt><trkpt lat="43.222319158273166" lon="11.372235299126677"><ele>211.25</ele><time>2026-03-28T11:54:11Z</time></trkpt><trkpt lat="43.22220944998917" lon="11.372365596304427"><ele>214.5</ele><time>2026-03-28T11:54:12Z</time></trkpt><trkpt lat="43.22210026866167" lon="11.372474754190618"><ele>217.75</ele><time>2026-03-28T11:54:13Z</time></trkpt><trkpt lat="43.221985894104705" lon="11.3725581319419"><ele>221.0</ele><time>2026-03-28T11:54:14Z</time></trkpt><trkpt lat="43.221864387696485" lon="11.37262167080962"><ele>221.0</ele><time>2026-03-28T11:54:15Z</time></trkpt><trkpt lat="43.22173104304094" lon="11.372660951734947"><ele>221.0</ele><time>2026-03-28T11:54:16Z</time></trkpt><trkpt lat="43.22158318982232" lon="11.372688615001938"><ele>221.0</ele><time>2026-03-28T11:54:17Z</time></trkpt><trkpt lat="43.22141947888444" lon="11.372720596197663"><ele>223.0</ele><time>2026-03-28T11:54:18Z</time></trkpt><trkpt lat="43.22125060644204" lon="11.372753079150762"><ele>225.0</ele><time>2026-03-28T11:54:19Z</time></trkpt><trkpt lat="43.221109516785575" lon="11.372787284686774"><ele>227.0</ele><time>2026-03-28T11:54:20Z</time></trkpt><trkpt lat="43.220972303571074" lon="11.372819356287385"><ele>227.0</ele><time>2026-03-28T11:54:21Z</time></trkpt><trkpt lat="43.220832767536926" lon="11.372845430881483"><ele>227.0</ele><time>2026-03-28T11:54:22.001Z</time></trkpt><trkpt lat="43.220679342278416" lon="11.37287900349258"><ele>227.0</ele><time>2026-03-28T11:54:23.001Z</time></trkpt><trkpt lat="43.220516465095265" lon="11.372918203809556"><ele>228.0</ele><time>2026-03-28T11:54:24.001Z</time></trkpt><trkpt lat="43.22035228373546" lon="11.372953781444414"><ele>229.0</ele><time>2026-03-28T11:54:25.001Z</time></trkpt><trkpt lat="43.220210974437535" lon="11.37298163644187"><ele>230.0</ele><time>2026-03-28T11:54:26.001Z</time></trkpt><trkpt lat="43.22008525379259" lon="11.37301370983846"><ele>231.0</ele><time>2026-03-28T11:54:27.001Z</time></trkpt><trkpt lat="43.21995772046143" lon="11.373042183389979"><ele>231.0</ele><time>2026-03-28T11:54:28.001Z</time></trkpt><trkpt lat="43.21981919297013" lon="11.373045555556255"><ele>231.0</ele><time>2026-03-28T11:54:29.001Z</time></trkpt><trkpt lat="43.21969561383322" lon="11.373061951374822"><ele>231.0</ele><time>2026-03-28T11:54:30.001Z</time></trkpt><trkpt lat="43.21958933800635" lon="11.373089149974602"><ele>231.0</ele><time>2026-03-28T11:54:31.001Z</time></trkpt><trkpt lat="43.219484536169894" lon="11.373090051127306"><ele>233.60000000000002</ele><time>2026-03-28T11:54:32.001Z</time></trkpt><trkpt lat="43.21937071039562" lon="11.373066450449345"><ele>236.20000000000002</ele><time>2026-03-28T11:54:33.001Z</time></trkpt><trkpt lat="43.21925116741943" lon="11.373040892244363"><ele>238.79999999999998</ele><time>2026-03-28T11:54:34.001Z</time></trkpt><trkpt lat="43.21915796244216" lon="11.373032618854905"><ele>241.39999999999998</ele><time>2026-03-28T11:54:35.001Z</time></trkpt><trkpt lat="43.21906949055809" lon="11.37302555445843"><ele>244.0</ele><time>2026-03-28T11:54:36.001Z</time></trkpt><trkpt lat="43.21897589104391" lon="11.373007341270712"><ele>245.6</ele><time>2026-03-28T11:54:37.001Z</time></trkpt><trkpt lat="43.21889978375582" lon="11.372951404023459"><ele>247.2</ele><time>2026-03-28T11:54:38.001Z</time></trkpt><trkpt lat="43.218816154472464" lon="11.372914244108944"><ele>248.79999999999998</ele><time>2026-03-28T11:54:39.001Z</time></trkpt><trkpt lat="43.21870139066738" lon="11.372882980376605"><ele>250.39999999999998</ele><time>2026-03-28T11:54:40.001Z</time></trkpt><trkpt lat="43.21858982833135" lon="11.372808536346692"><ele>252.0</ele><time>2026-03-28T11:54:41.001Z</time></trkpt><trkpt lat="43.2184586220342" lon="11.372766410355052"><ele>252.0</ele><time>2026-03-28T11:54:42.001Z</time></trkpt><trkpt lat="43.218333728741904" lon="11.372702255615527"><ele>252.0</ele><time>2026-03-28T11:54:43.001Z</time></trkpt><trkpt lat="43.21821992240846" lon="11.372640855349978"><ele>252.0</ele><time>2026-03-28T11:54:44.001Z</time></trkpt><trkpt lat="43.21811498151135" lon="11.37259118798379"><ele>252.0</ele><time>2026-03-28T11:54:45.001Z</time></trkpt><trkpt lat="43.21801836102202" lon="11.372539580822554"><ele>250.0</ele><time>2026-03-28T11:54:46.001Z</time></trkpt><trkpt lat="43.21792403402219" lon="11.372486045772932"><ele>248.0</ele><time>2026-03-28T11:54:47.001Z</time></trkpt><trkpt lat="43.21783343731496" lon="11.372438320008722"><ele>246.0</ele><time>2026-03-28T11:54:48.001Z</time></trkpt><trkpt lat="43.21774452394778" lon="11.372392193188801"><ele>244.0</ele><time>2026-03-28T11:54:49.001Z</time></trkpt><trkpt lat="43.21765895368554" lon="11.372348898350005"><ele>242.0</ele><time>2026-03-28T11:54:50.001Z</time></trkpt><trkpt lat="43.21758079822178" lon="11.372305430704207"><ele>242.00000000000003</ele><time>2026-03-28T11:54:51.001Z</time></trkpt><trkpt lat="43.21749844688731" lon="11.372264770148988"><ele>242.0</ele><time>2026-03-28T11:54:52.001Z</time></trkpt><trkpt lat="43.217423422972985" lon="11.372234778027064"><ele>242.0</ele><time>2026-03-28T11:54:53.001Z</time></trkpt><trkpt lat="43.21734530150024" lon="11.372188038198285"><ele>242.0</ele><time>2026-03-28T11:54:54.001Z</time></trkpt><trkpt lat="43.2172562198248" lon="11.372168306563092"><ele>242.00000000000003</ele><time>2026-03-28T11:54:55.001Z</time></trkpt><trkpt lat="43.21716303197611" lon="11.372107267207785"><ele>242.0</ele><time>2026-03-28T11:54:56.001Z</time></trkpt><trkpt lat="43.217037211075585" lon="11.372038105821776"><ele>240.66666666666669</ele><time>2026-03-28T11:54:57.001Z</time></trkpt><trkpt lat="43.216858525894544" lon="11.371940094937377"><ele>239.33333333333331</ele><time>2026-03-28T11:54:58.001Z</time></trkpt><trkpt lat="43.21667411985484" lon="11.371852279352462"><ele>238.0</ele><time>2026-03-28T11:54:59.001Z</time></trkpt><trkpt lat="43.21652184881146" lon="11.371774418390704"><ele>239.5</ele><time>2026-03-28T11:55:00.001Z</time></trkpt><trkpt lat="43.216385488762796" lon="11.371700878962324"><ele>241.0</ele><time>2026-03-28T11:55:01.001Z</time></trkpt><trkpt lat="43.2162590519625" lon="11.37162955159661"><ele>242.5</ele><time>2026-03-28T11:55:02.001Z</time></trkpt><trkpt lat="43.21614176108355" lon="11.371562052942002"><ele>244.0</ele><time>2026-03-28T11:55:03.001Z</time></trkpt><trkpt lat="43.216032081042144" lon="11.371521308822803"><ele>244.0</ele><time>2026-03-28T11:55:04.001Z</time></trkpt><trkpt lat="43.215933055594704" lon="11.371448674851926"><ele>243.99999999999997</ele><time>2026-03-28T11:55:05.001Z</time></trkpt><trkpt lat="43.215838825036165" lon="11.371371049738848"><ele>243.99999999999997</ele><time>2026-03-28T11:55:06.001Z</time></trkpt><trkpt lat="43.21576317152296" lon="11.371297225811348"><ele>244.0</ele><time>2026-03-28T11:55:07.001Z</time></trkpt><trkpt lat="43.21569775537574" lon="11.371209329297747"><ele>244.0</ele><time>2026-03-28T11:55:08.001Z</time></trkpt><trkpt lat="43.215624754947825" lon="11.371102399218696"><ele>243.0</ele><time>2026-03-28T11:55:09.001Z</time></trkpt><trkpt lat="43.21551468284871" lon="11.371031808838238"><ele>242.0</ele><time>2026-03-28T11:55:10.001Z</time></trkpt><trkpt lat="43.2154080035001" lon="11.370934410757842"><ele>241.0</ele><time>2026-03-28T11:55:11.001Z</time></trkpt><trkpt lat="43.21529765953332" lon="11.37085557743488"><ele>240.0</ele><time>2026-03-28T11:55:12.001Z</time></trkpt><trkpt lat="43.215188917773574" lon="11.370790462899503"><ele>240.0</ele><time>2026-03-28T11:55:13.001Z</time></trkpt><trkpt lat="43.21507501108123" lon="11.370737733138156"><ele>240.0</ele><time>2026-03-28T11:55:14.001Z</time></trkpt><trkpt lat="43.214955881533086" lon="11.370690015835889"><ele>240.0</ele><time>2026-03-28T11:55:15.001Z</time></trkpt><trkpt lat="43.214838548136946" lon="11.370670186980856"><ele>240.0</ele><time>2026-03-28T11:55:16.001Z</time></trkpt><trkpt lat="43.214729525482284" lon="11.370683604182876"><ele>237.0</ele><time>2026-03-28T11:55:17.001Z</time></trkpt><trkpt lat="43.21461436536709" lon="11.370730537813143"><ele>234.0</ele><time>2026-03-28T11:55:18.001Z</time></trkpt><trkpt lat="43.21449293138301" lon="11.370814843659732"><ele>231.0</ele><time>2026-03-28T11:55:19.001Z</time></trkpt><trkpt lat="43.21436478705691" lon="11.37087065798063"><ele>228.0</ele><time>2026-03-28T11:55:20.001Z</time></trkpt><trkpt lat="43.214250791224956" lon="11.370945943439839"><ele>228.0</ele><time>2026-03-28T11:55:21.001Z</time></trkpt><trkpt lat="43.21413238695826" lon="11.371024142119595"><ele>228.0</ele><time>2026-03-28T11:55:22.001Z</time></trkpt><trkpt lat="43.21401492655435" lon="11.371101715519826"><ele>228.0</ele><time>2026-03-28T11:55:23.001Z</time></trkpt><trkpt lat="43.213899805821356" lon="11.371175109317724"><ele>228.0</ele><time>2026-03-28T11:55:24.001Z</time></trkpt><trkpt lat="43.21378703823281" lon="11.37124323701896"><ele>226.8</ele><time>2026-03-28T11:55:25Z</time></trkpt><trkpt lat="43.21367994294789" lon="11.371305017165527"><ele>225.60000000000002</ele><time>2026-03-28T11:55:26Z</time></trkpt><trkpt lat="43.213578719221154" lon="11.371352407732283"><ele>224.39999999999998</ele><time>2026-03-28T11:55:27Z</time></trkpt><trkpt lat="43.21347784762989" lon="11.37140296363743"><ele>223.2</ele><time>2026-03-28T11:55:28Z</time></trkpt><trkpt lat="43.2133672862175" lon="11.371377511140135"><ele>222.0</ele><time>2026-03-28T11:55:29Z</time></trkpt><trkpt lat="43.213288227231864" lon="11.371267984576182"><ele>222.0</ele><time>2026-03-28T11:55:30Z</time></trkpt><trkpt lat="43.21321871853949" lon="11.371163995967834"><ele>222.0</ele><time>2026-03-28T11:55:31Z</time></trkpt><trkpt lat="43.21315057673557" lon="11.371040529592317"><ele>222.0</ele><time>2026-03-28T11:55:32Z</time></trkpt><trkpt lat="43.21308026534348" lon="11.37090783640609"><ele>222.0</ele><time>2026-03-28T11:55:33Z</time></trkpt><trkpt lat="43.212999610769536" lon="11.370776817920893"><ele>222.0</ele><time>2026-03-28T11:55:34Z</time></trkpt><trkpt lat="43.21291856902522" lon="11.370620551076373"><ele>222.0</ele><time>2026-03-28T11:55:35Z</time></trkpt><trkpt lat="43.21285622962318" lon="11.37045457969636"><ele>222.0</ele><time>2026-03-28T11:55:36Z</time></trkpt><trkpt lat="43.21278668632697" lon="11.37030692992513"><ele>222.0</ele><time>2026-03-28T11:55:37Z</time></trkpt><trkpt lat="43.21269891825626" lon="11.370162029487746"><ele>222.75</ele><time>2026-03-28T11:55:38Z</time></trkpt><trkpt lat="43.21262860289625" lon="11.370007216819724"><ele>223.5</ele><time>2026-03-28T11:55:39Z</time></trkpt><trkpt lat="43.21255310173917" lon="11.369866022508875"><ele>224.25</ele><time>2026-03-28T11:55:40Z</time></trkpt><trkpt lat="43.212468131701016" lon="11.369727779202728"><ele>225.0</ele><time>2026-03-28T11:55:41Z</time></trkpt><trkpt lat="43.212374223773516" lon="11.36958409934969"><ele>227.25</ele><time>2026-03-28T11:55:42Z</time></trkpt><trkpt lat="43.21228339964345" lon="11.369456211341772"><ele>229.5</ele><time>2026-03-28T11:55:43Z</time></trkpt><trkpt lat="43.21220609126136" lon="11.369338841854878"><ele>231.75</ele><time>2026-03-28T11:55:44Z</time></trkpt><trkpt lat="43.21213055148763" lon="11.369237355149545"><ele>234.0</ele><time>2026-03-28T11:55:45Z</time></trkpt><trkpt lat="43.21205108375148" lon="11.369142768972491"><ele>234.0</ele><time>2026-03-28T11:55:46Z</time></trkpt><trkpt lat="43.211961860507294" lon="11.3690614338377"><ele>234.0</ele><time>2026-03-28T11:55:47Z</time></trkpt><trkpt lat="43.21185294321458" lon="11.368980725522617"><ele>234.0</ele><time>2026-03-28T11:55:48Z</time></trkpt><trkpt lat="43.21172753118914" lon="11.368899261455995"><ele>234.0</ele><time>2026-03-28T11:55:49Z</time></trkpt><trkpt lat="43.211610036472386" lon="11.368811854845086"><ele>233.75</ele><time>2026-03-28T11:55:50Z</time></trkpt><trkpt lat="43.211487271300165" lon="11.368748134393352"><ele>233.5</ele><time>2026-03-28T11:55:51Z</time></trkpt><trkpt lat="43.21136322123736" lon="11.368696754503642"><ele>233.25</ele><time>2026-03-28T11:55:52Z</time></trkpt><trkpt lat="43.211235722357245" lon="11.368656008849465"><ele>233.0</ele><time>2026-03-28T11:55:53Z</time></trkpt><trkpt lat="43.21109476022537" lon="11.368618365852594"><ele>233.0</ele><time>2026-03-28T11:55:54Z</time></trkpt><trkpt lat="43.210948267264534" lon="11.368581993046474"><ele>233.0</ele><time>2026-03-28T11:55:55Z</time></trkpt><trkpt lat="43.21081054258093" lon="11.36853614985606"><ele>233.0</ele><time>2026-03-28T11:55:56Z</time></trkpt><trkpt lat="43.210686756892535" lon="11.36849470776443"><ele>233.0</ele><time>2026-03-28T11:55:57Z</time></trkpt><trkpt lat="43.21057029905119" lon="11.368457013796261"><ele>232.5</ele><time>2026-03-28T11:55:58Z</time></trkpt><trkpt lat="43.21045692108178" lon="11.368410511731367"><ele>232.0</ele><time>2026-03-28T11:55:59Z</time></trkpt><trkpt lat="43.21034118231363" lon="11.368371379818349"><ele>231.5</ele><time>2026-03-28T11:56:00Z</time></trkpt><trkpt lat="43.21022792870539" lon="11.368329532449577"><ele>231.0</ele><time>2026-03-28T11:56:01Z</time></trkpt><trkpt lat="43.210117334453386" lon="11.368289906259069"><ele>231.0</ele><time>2026-03-28T11:56:02Z</time></trkpt><trkpt lat="43.210020116810696" lon="11.368252207522959"><ele>231.0</ele><time>2026-03-28T11:56:03Z</time></trkpt><trkpt lat="43.20993879363231" lon="11.368221116211515"><ele>231.0</ele><time>2026-03-28T11:56:04Z</time></trkpt><trkpt lat="43.20986987439778" lon="11.368197838455163"><ele>231.0</ele><time>2026-03-28T11:56:05Z</time></trkpt><trkpt lat="43.20980081803911" lon="11.368189882203307"><ele>231.0</ele><time>2026-03-28T11:56:06Z</time></trkpt><trkpt lat="43.20972908390563" lon="11.368199978318367"><ele>231.0</ele><time>2026-03-28T11:56:07Z</time></trkpt><trkpt lat="43.20965452128496" lon="11.368231138914094"><ele>233.8</ele><time>2026-03-28T11:56:08Z</time></trkpt><trkpt lat="43.20957999875171" lon="11.368288138043656"><ele>236.60000000000002</ele><time>2026-03-28T11:56:09Z</time></trkpt><trkpt lat="43.20951164785656" lon="11.3683726048809"><ele>239.4</ele><time>2026-03-28T11:56:10Z</time></trkpt><trkpt lat="43.209442857408995" lon="11.368485098400472"><ele>242.2</ele><time>2026-03-28T11:56:11Z</time></trkpt><trkpt lat="43.20935447783644" lon="11.368635433209475"><ele>245.0</ele><time>2026-03-28T11:56:12Z</time></trkpt><trkpt lat="43.209235191985435" lon="11.368814166012658"><ele>243.0</ele><time>2026-03-28T11:56:13Z</time></trkpt><trkpt lat="43.2090953855346" lon="11.369001691162026"><ele>241.0</ele><time>2026-03-28T11:56:14Z</time></trkpt><trkpt lat="43.20896220332623" lon="11.36919303935037"><ele>239.0</ele><time>2026-03-28T11:56:15Z</time></trkpt><trkpt lat="43.20883216029055" lon="11.369374545096269"><ele>243.66666666666669</ele><time>2026-03-28T11:56:16Z</time></trkpt><trkpt lat="43.208704760348745" lon="11.36954847929375"><ele>248.33333333333331</ele><time>2026-03-28T11:56:17Z</time></trkpt><trkpt lat="43.20857282070409" lon="11.369725894585503"><ele>253.0</ele><time>2026-03-28T11:56:18Z</time></trkpt><trkpt lat="43.20845164597174" lon="11.369888834712595"><ele>253.0</ele><time>2026-03-28T11:56:19Z</time></trkpt><trkpt lat="43.20833394425895" lon="11.370048594728146"><ele>253.0</ele><time>2026-03-28T11:56:20Z</time></trkpt><trkpt lat="43.20821229213848" lon="11.370216334788882"><ele>253.0</ele><time>2026-03-28T11:56:21Z</time></trkpt><trkpt lat="43.20808578751702" lon="11.370392835331703"><ele>258.66666666666663</ele><time>2026-03-28T11:56:22Z</time></trkpt><trkpt lat="43.20796030556968" lon="11.370568734140523"><ele>264.3333333333333</ele><time>2026-03-28T11:56:23Z</time></trkpt><trkpt lat="43.20784304540433" lon="11.370732449577535"><ele>270.0</ele><time>2026-03-28T11:56:24Z</time></trkpt><trkpt lat="43.20773089721161" lon="11.370888578312845"><ele>270.0</ele><time>2026-03-28T11:56:25Z</time></trkpt><trkpt lat="43.20762021553772" lon="11.371041917159012"><ele>270.0</ele><time>2026-03-28T11:56:26Z</time></trkpt><trkpt lat="43.20750875414403" lon="11.37119315519986"><ele>270.0</ele><time>2026-03-28T11:56:27Z</time></trkpt><trkpt lat="43.20740132035673" lon="11.371343458105088"><ele>274.25</ele><time>2026-03-28T11:56:28Z</time></trkpt><trkpt lat="43.20731923784464" lon="11.371500143516577"><ele>278.5</ele><time>2026-03-28T11:56:29Z</time></trkpt><trkpt lat="43.2072219918214" lon="11.371635637855258"><ele>282.75</ele><time>2026-03-28T11:56:30Z</time></trkpt><trkpt lat="43.20713151671733" lon="11.371768137345816"><ele>287.0</ele><time>2026-03-28T11:56:31Z</time></trkpt><trkpt lat="43.207040826283574" lon="11.371917733904612"><ele>287.0</ele><time>2026-03-28T11:56:32Z</time></trkpt><trkpt lat="43.20696355559496" lon="11.372091823426034"><ele>287.0</ele><time>2026-03-28T11:56:33Z</time></trkpt><trkpt lat="43.2068858421352" lon="11.372248634619273"><ele>287.0</ele><time>2026-03-28T11:56:34.001Z</time></trkpt><trkpt lat="43.20679051765827" lon="11.372383072092786"><ele>287.0</ele><time>2026-03-28T11:56:35.001Z</time></trkpt><trkpt lat="43.20670685148025" lon="11.372520022146755"><ele>287.5</ele><time>2026-03-28T11:56:36.001Z</time></trkpt><trkpt lat="43.20663922875275" lon="11.37265173845714"><ele>288.0</ele><time>2026-03-28T11:56:37.001Z</time></trkpt><trkpt lat="43.20654738070929" lon="11.372764900443366"><ele>288.5</ele><time>2026-03-28T11:56:38.001Z</time></trkpt><trkpt lat="43.20643378000093" lon="11.372871117721404"><ele>289.0</ele><time>2026-03-28T11:56:39.001Z</time></trkpt><trkpt lat="43.20630380842288" lon="11.37296406537687"><ele>283.5</ele><time>2026-03-28T11:56:40.001Z</time></trkpt><trkpt lat="43.206168249110455" lon="11.373053759980294"><ele>278.0</ele><time>2026-03-28T11:56:41.001Z</time></trkpt><trkpt lat="43.20604645541918" lon="11.373129331559566"><ele>272.5</ele><time>2026-03-28T11:56:42.001Z</time></trkpt><trkpt lat="43.205941933211584" lon="11.37320862272326"><ele>267.0</ele><time>2026-03-28T11:56:43.001Z</time></trkpt><trkpt lat="43.20583360629326" lon="11.373288020466823"><ele>267.0</ele><time>2026-03-28T11:56:44.001Z</time></trkpt><trkpt lat="43.20572808304591" lon="11.3733738425052"><ele>267.0</ele><time>2026-03-28T11:56:45.001Z</time></trkpt><trkpt lat="43.205631249191796" lon="11.373465898487797"><ele>267.0</ele><time>2026-03-28T11:56:46.001Z</time></trkpt><trkpt lat="43.20555754867971" lon="11.373559493069088"><ele>267.0</ele><time>2026-03-28T11:56:47.001Z</time></trkpt><trkpt lat="43.20548065402602" lon="11.373616856194923"><ele>267.0</ele><time>2026-03-28T11:56:48.001Z</time></trkpt><trkpt lat="43.20541052904351" lon="11.37366987227489"><ele>267.2</ele><time>2026-03-28T11:56:49.001Z</time></trkpt><trkpt lat="43.20533614753192" lon="11.373710983805744"><ele>267.4</ele><time>2026-03-28T11:56:50.001Z</time></trkpt><trkpt lat="43.205247106649686" lon="11.373732112146948"><ele>267.6</ele><time>2026-03-28T11:56:51.001Z</time></trkpt><trkpt lat="43.205148977862606" lon="11.373737180769496"><ele>267.8</ele><time>2026-03-28T11:56:52.001Z</time></trkpt><trkpt lat="43.20502301038892" lon="11.373736217176587"><ele>268.0</ele><time>2026-03-28T11:56:53.001Z</time></trkpt><trkpt lat="43.2048944221739" lon="11.373757538110539"><ele>267.75</ele><time>2026-03-28T11:56:54.001Z</time></trkpt><trkpt lat="43.20477249581205" lon="11.373747364093584"><ele>267.5</ele><time>2026-03-28T11:56:55.001Z</time></trkpt><trkpt lat="43.20465348354746" lon="11.373768404116205"><ele>267.25</ele><time>2026-03-28T11:56:56.001Z</time></trkpt><trkpt lat="43.204530785112645" lon="11.373809222082082"><ele>267.0</ele><time>2026-03-28T11:56:57.001Z</time></trkpt><trkpt lat="43.20438155815055" lon="11.373848972971436"><ele>264.75</ele><time>2026-03-28T11:56:58.001Z</time></trkpt><trkpt lat="43.20426830297486" lon="11.37388702901146"><ele>262.5</ele><time>2026-03-28T11:56:59.001Z</time></trkpt><trkpt lat="43.2041457518129" lon="11.373927562393874"><ele>260.25</ele><time>2026-03-28T11:57:00.001Z</time></trkpt><trkpt lat="43.20401455113617" lon="11.373970454686203"><ele>258.0</ele><time>2026-03-28T11:57:01.001Z</time></trkpt><trkpt lat="43.20388202954521" lon="11.37401591240524"><ele>258.0</ele><time>2026-03-28T11:57:02.001Z</time></trkpt><trkpt lat="43.203771233498074" lon="11.374079409167232"><ele>258.0</ele><time>2026-03-28T11:57:03.001Z</time></trkpt><trkpt lat="43.203647688694794" lon="11.374140439971827"><ele>258.0</ele><time>2026-03-28T11:57:04.001Z</time></trkpt><trkpt lat="43.20353869249992" lon="11.374256028485277"><ele>258.0</ele><time>2026-03-28T11:57:05.001Z</time></trkpt><trkpt lat="43.20342773957409" lon="11.374336673782201"><ele>258.0</ele><time>2026-03-28T11:57:06.001Z</time></trkpt><trkpt lat="43.20332767821828" lon="11.374414589097254"><ele>258.0</ele><time>2026-03-28T11:57:07.001Z</time></trkpt><trkpt lat="43.203218848926824" lon="11.3744797048406"><ele>258.0</ele><time>2026-03-28T11:57:08.001Z</time></trkpt><trkpt lat="43.203091668241086" lon="11.374524475859504"><ele>258.0</ele><time>2026-03-28T11:57:09.001Z</time></trkpt><trkpt lat="43.2029397619493" lon="11.374561037633807"><ele>260.3333333333333</ele><time>2026-03-28T11:57:10.001Z</time></trkpt><trkpt lat="43.202770197082906" lon="11.374602562268203"><ele>262.66666666666663</ele><time>2026-03-28T11:57:11.001Z</time></trkpt><trkpt lat="43.202612370959706" lon="11.374643250441643"><ele>265.0</ele><time>2026-03-28T11:57:12.001Z</time></trkpt><trkpt lat="43.20245320201842" lon="11.374683969577543"><ele>265.25</ele><time>2026-03-28T11:57:13.001Z</time></trkpt><trkpt lat="43.202295058525294" lon="11.374722157646753"><ele>265.5</ele><time>2026-03-28T11:57:14.001Z</time></trkpt><trkpt lat="43.2021519152945" lon="11.374759143363383"><ele>265.75</ele><time>2026-03-28T11:57:15.001Z</time></trkpt><trkpt lat="43.20202920404626" lon="11.374796798722002"><ele>266.0</ele><time>2026-03-28T11:57:16.001Z</time></trkpt><trkpt lat="43.201908747281536" lon="11.374839140952572"><ele>266.0</ele><time>2026-03-28T11:57:17.001Z</time></trkpt><trkpt lat="43.201793344453655" lon="11.374889318025796"><ele>266.0</ele><time>2026-03-28T11:57:18.001Z</time></trkpt><trkpt lat="43.201668703399015" lon="11.374984381172046"><ele>266.0</ele><time>2026-03-28T11:57:19.001Z</time></trkpt><trkpt lat="43.20153309270872" lon="11.375080633843087"><ele>266.0</ele><time>2026-03-28T11:57:20.001Z</time></trkpt><trkpt lat="43.2014082356727" lon="11.37517162363924"><ele>267.0</ele><time>2026-03-28T11:57:21.001Z</time></trkpt><trkpt lat="43.20130716008268" lon="11.375244394624643"><ele>268.0</ele><time>2026-03-28T11:57:22.001Z</time></trkpt><trkpt lat="43.20121500493822" lon="11.37530768613007"><ele>269.0</ele><time>2026-03-28T11:57:23.001Z</time></trkpt><trkpt lat="43.20113917947813" lon="11.37535729991283"><ele>270.0</ele><time>2026-03-28T11:57:24.001Z</time></trkpt><trkpt lat="43.201066208824194" lon="11.375377002122603"><ele>271.0</ele><time>2026-03-28T11:57:25.001Z</time></trkpt><trkpt lat="43.200952140535065" lon="11.375382921552566"><ele>271.0</ele><time>2026-03-28T11:57:27.001Z</time></trkpt><trkpt lat="43.20084828442005" lon="11.375335358990084"><ele>271.0</ele><time>2026-03-28T11:57:29.001Z</time></trkpt><trkpt lat="43.200789573777655" lon="11.37530319902744"><ele>271.0</ele><time>2026-03-28T11:57:30.001Z</time></trkpt><trkpt lat="43.200717939095476" lon="11.375260942919073"><ele>271.0</ele><time>2026-03-28T11:57:31Z</time></trkpt><trkpt lat="43.20064034248084" lon="11.375214782740207"><ele>271.0</ele><time>2026-03-28T11:57:32Z</time></trkpt><trkpt lat="43.20056932880107" lon="11.375172538478544"><ele>271.0</ele><time>2026-03-28T11:57:33Z</time></trkpt><trkpt lat="43.20050369551042" lon="11.375133494895865"><ele>268.5</ele><time>2026-03-28T11:57:34Z</time></trkpt><trkpt lat="43.20043464446245" lon="11.375098992601542"><ele>266.0</ele><time>2026-03-28T11:57:35Z</time></trkpt><trkpt lat="43.200371603815604" lon="11.375061811713975"><ele>263.5</ele><time>2026-03-28T11:57:36Z</time></trkpt><trkpt lat="43.200310708203595" lon="11.375024213565908"><ele>261.0</ele><time>2026-03-28T11:57:37Z</time></trkpt><trkpt lat="43.200248587678644" lon="11.374989593284647"><ele>258.5</ele><time>2026-03-28T11:57:38Z</time></trkpt><trkpt lat="43.200139352173025" lon="11.374951284197977"><ele>256.0</ele><time>2026-03-28T11:57:40Z</time></trkpt><trkpt lat="43.20002130093022" lon="11.375016161282597"><ele>256.0</ele><time>2026-03-28T11:57:42Z</time></trkpt><trkpt lat="43.19996583889649" lon="11.375090100549825"><ele>256.0</ele><time>2026-03-28T11:57:43Z</time></trkpt><trkpt lat="43.199917777904986" lon="11.375184150600917"><ele>256.0</ele><time>2026-03-28T11:57:44Z</time></trkpt><trkpt lat="43.19987642131421" lon="11.375298429364422"><ele>256.0</ele><time>2026-03-28T11:57:45Z</time></trkpt><trkpt lat="43.199826669521606" lon="11.375421262706817"><ele>256.0</ele><time>2026-03-28T11:57:46Z</time></trkpt><trkpt lat="43.19976012998273" lon="11.375540937409532"><ele>253.60000000000002</ele><time>2026-03-28T11:57:47Z</time></trkpt><trkpt lat="43.199675440000775" lon="11.37564746146662"><ele>251.20000000000002</ele><time>2026-03-28T11:57:48Z</time></trkpt><trkpt lat="43.1995923884098" lon="11.375743185673434"><ele>248.79999999999998</ele><time>2026-03-28T11:57:49Z</time></trkpt><trkpt lat="43.199514182994285" lon="11.37583459642691"><ele>246.39999999999998</ele><time>2026-03-28T11:57:50Z</time></trkpt><trkpt lat="43.199436158777964" lon="11.375930440714688"><ele>244.0</ele><time>2026-03-28T11:57:51Z</time></trkpt><trkpt lat="43.199350400691955" lon="11.37602724225146"><ele>244.0</ele><time>2026-03-28T11:57:52Z</time></trkpt><trkpt lat="43.19924962291586" lon="11.376115778380719"><ele>244.0</ele><time>2026-03-28T11:57:53Z</time></trkpt><trkpt lat="43.199140956703644" lon="11.37618260531384"><ele>244.0</ele><time>2026-03-28T11:57:54Z</time></trkpt><trkpt lat="43.19901725343737" lon="11.376197252213863"><ele>244.0</ele><time>2026-03-28T11:57:55Z</time></trkpt><trkpt lat="43.198886780770124" lon="11.376244173164325"><ele>243.0</ele><time>2026-03-28T11:57:56Z</time></trkpt><trkpt lat="43.19875192319421" lon="11.376269952699737"><ele>242.0</ele><time>2026-03-28T11:57:57Z</time></trkpt><trkpt lat="43.198628780206626" lon="11.376295266325021"><ele>241.0</ele><time>2026-03-28T11:57:58Z</time></trkpt><trkpt lat="43.19851383784168" lon="11.37632706251482"><ele>240.0</ele><time>2026-03-28T11:57:59Z</time></trkpt><trkpt lat="43.198406842528954" lon="11.376373650767697"><ele>240.0</ele><time>2026-03-28T11:58:00Z</time></trkpt><trkpt lat="43.19830755246472" lon="11.376442766841041"><ele>240.0</ele><time>2026-03-28T11:58:01Z</time></trkpt><trkpt lat="43.19821307211236" lon="11.376533565461466"><ele>240.0</ele><time>2026-03-28T11:58:02Z</time></trkpt><trkpt lat="43.19811538471563" lon="11.37664422568202"><ele>240.0</ele><time>2026-03-28T11:58:03Z</time></trkpt><trkpt lat="43.198008337557056" lon="11.376781915340947"><ele>239.0</ele><time>2026-03-28T11:58:04Z</time></trkpt><trkpt lat="43.19788657413355" lon="11.37690911042558"><ele>238.0</ele><time>2026-03-28T11:58:05Z</time></trkpt><trkpt lat="43.197768021958865" lon="11.377010708918077"><ele>237.0</ele><time>2026-03-28T11:58:06Z</time></trkpt><trkpt lat="43.19765980525599" lon="11.377094940930904"><ele>236.0</ele><time>2026-03-28T11:58:07Z</time></trkpt><trkpt lat="43.19757490322844" lon="11.377164749884757"><ele>236.57142857142856</ele><time>2026-03-28T11:58:08Z</time></trkpt><trkpt lat="43.19750402837304" lon="11.377210734067631"><ele>237.14285714285717</ele><time>2026-03-28T11:58:09Z</time></trkpt><trkpt lat="43.19744173392075" lon="11.377245311630146"><ele>237.71428571428572</ele><time>2026-03-28T11:58:10Z</time></trkpt><trkpt lat="43.19737915345152" lon="11.377286784684314"><ele>238.28571428571428</ele><time>2026-03-28T11:58:11Z</time></trkpt><trkpt lat="43.1973165122441" lon="11.37732860941739"><ele>238.85714285714283</ele><time>2026-03-28T11:58:12Z</time></trkpt><trkpt lat="43.197257605810435" lon="11.37737254758391"><ele>239.42857142857144</ele><time>2026-03-28T11:58:13Z</time></trkpt><trkpt lat="43.197199708674866" lon="11.377412373397757"><ele>240.0</ele><time>2026-03-28T11:58:14Z</time></trkpt><trkpt lat="43.19713744765417" lon="11.37744911127095"><ele>238.0</ele><time>2026-03-28T11:58:15Z</time></trkpt><trkpt lat="43.19706691469952" lon="11.37749247817096"><ele>236.0</ele><time>2026-03-28T11:58:16Z</time></trkpt><trkpt lat="43.19698363773673" lon="11.377551794499572"><ele>234.0</ele><time>2026-03-28T11:58:17Z</time></trkpt><trkpt lat="43.1968680769084" lon="11.377634016641714"><ele>232.0</ele><time>2026-03-28T11:58:18Z</time></trkpt><trkpt lat="43.196693260815145" lon="11.377762941164317"><ele>231.0</ele><time>2026-03-28T11:58:19Z</time></trkpt><trkpt lat="43.19647977086547" lon="11.37790503883605"><ele>230.0</ele><time>2026-03-28T11:58:20Z</time></trkpt><trkpt lat="43.196281693768384" lon="11.378042253799947"><ele>231.33333333333334</ele><time>2026-03-28T11:58:21Z</time></trkpt><trkpt lat="43.19609770551866" lon="11.378163543542179"><ele>232.66666666666669</ele><time>2026-03-28T11:58:22Z</time></trkpt><trkpt lat="43.195928502102035" lon="11.378265836013203"><ele>234.0</ele><time>2026-03-28T11:58:23Z</time></trkpt><trkpt lat="43.19576358782495" lon="11.378348874941581"><ele>233.0</ele><time>2026-03-28T11:58:24Z</time></trkpt><trkpt lat="43.19560950605421" lon="11.378411019380641"><ele>232.0</ele><time>2026-03-28T11:58:25Z</time></trkpt><trkpt lat="43.19547060578246" lon="11.378468542244962"><ele>231.0</ele><time>2026-03-28T11:58:26Z</time></trkpt><trkpt lat="43.19536321715013" lon="11.378521767469245"><ele>230.0</ele><time>2026-03-28T11:58:27Z</time></trkpt><trkpt lat="43.19526520220371" lon="11.378581652452192"><ele>230.0</ele><time>2026-03-28T11:58:28Z</time></trkpt><trkpt lat="43.1951796219976" lon="11.378660610262488"><ele>230.0</ele><time>2026-03-28T11:58:29Z</time></trkpt><trkpt lat="43.195088598964624" lon="11.378760066720098"><ele>230.0</ele><time>2026-03-28T11:58:30Z</time></trkpt><trkpt lat="43.194993664737275" lon="11.378882880844374"><ele>230.0</ele><time>2026-03-28T11:58:31Z</time></trkpt><trkpt lat="43.19490080505209" lon="11.37901751307957"><ele>229.25</ele><time>2026-03-28T11:58:32Z</time></trkpt><trkpt lat="43.19481628194884" lon="11.37915047474235"><ele>228.5</ele><time>2026-03-28T11:58:33Z</time></trkpt><trkpt lat="43.19474129128913" lon="11.379283663414851"><ele>227.75</ele><time>2026-03-28T11:58:34Z</time></trkpt><trkpt lat="43.19467948755263" lon="11.379420758573486"><ele>227.0</ele><time>2026-03-28T11:58:35Z</time></trkpt><trkpt lat="43.19462991186131" lon="11.379557061928708"><ele>227.0</ele><time>2026-03-28T11:58:36Z</time></trkpt><trkpt lat="43.1945929583371" lon="11.379701885429377"><ele>227.0</ele><time>2026-03-28T11:58:37Z</time></trkpt><trkpt lat="43.194562028662425" lon="11.379860035583436"><ele>227.0</ele><time>2026-03-28T11:58:38Z</time></trkpt><trkpt lat="43.19453979678826" lon="11.380034446818163"><ele>227.0</ele><time>2026-03-28T11:58:39Z</time></trkpt><trkpt lat="43.194525477431156" lon="11.380219869852985"><ele>227.0</ele><time>2026-03-28T11:58:40Z</time></trkpt><trkpt lat="43.194514667262936" lon="11.380404923043242"><ele>227.0</ele><time>2026-03-28T11:58:41Z</time></trkpt><trkpt lat="43.194509491745215" lon="11.380582015491603"><ele>227.0</ele><time>2026-03-28T11:58:42Z</time></trkpt><trkpt lat="43.19448705793327" lon="11.380747822026658"><ele>227.0</ele><time>2026-03-28T11:58:43Z</time></trkpt><trkpt lat="43.19446437329361" lon="11.38091244183928"><ele>227.25</ele><time>2026-03-28T11:58:44.001Z</time></trkpt><trkpt lat="43.19441874021689" lon="11.381075681091257"><ele>227.5</ele><time>2026-03-28T11:58:45.001Z</time></trkpt><trkpt lat="43.194368299740376" lon="11.381233565962981"><ele>227.75</ele><time>2026-03-28T11:58:46.001Z</time></trkpt><trkpt lat="43.19430733286375" lon="11.381412702928637"><ele>228.0</ele><time>2026-03-28T11:58:47.001Z</time></trkpt><trkpt lat="43.19423006280252" lon="11.381629511093095"><ele>228.0</ele><time>2026-03-28T11:58:48.001Z</time></trkpt><trkpt lat="43.194145913497266" lon="11.381853368587596"><ele>228.0</ele><time>2026-03-28T11:58:49.001Z</time></trkpt><trkpt lat="43.19407302875106" lon="11.382052176464144"><ele>228.0</ele><time>2026-03-28T11:58:50.001Z</time></trkpt><trkpt lat="43.194002413649024" lon="11.382249982820555"><ele>226.25</ele><time>2026-03-28T11:58:51.001Z</time></trkpt><trkpt lat="43.1939338510461" lon="11.382451261017026"><ele>224.5</ele><time>2026-03-28T11:58:52.001Z</time></trkpt><trkpt lat="43.19387083184282" lon="11.382637264242792"><ele>222.75</ele><time>2026-03-28T11:58:53.001Z</time></trkpt><trkpt lat="43.19381157000136" lon="11.382802632459915"><ele>221.0</ele><time>2026-03-28T11:58:54.001Z</time></trkpt><trkpt lat="43.193752362444634" lon="11.382954788622081"><ele>222.0</ele><time>2026-03-28T11:58:55.001Z</time></trkpt><trkpt lat="43.19369331832762" lon="11.383106957650353"><ele>223.00000000000003</ele><time>2026-03-28T11:58:56.001Z</time></trkpt><trkpt lat="43.193629116856854" lon="11.383238859808896"><ele>224.00000000000003</ele><time>2026-03-28T11:58:57.001Z</time></trkpt><trkpt lat="43.19356455047953" lon="11.383350674403149"><ele>225.0</ele><time>2026-03-28T11:58:58.001Z</time></trkpt><trkpt lat="43.193488474067195" lon="11.383433408605928"><ele>226.0</ele><time>2026-03-28T11:58:59.001Z</time></trkpt><trkpt lat="43.193388731441864" lon="11.383468687204948"><ele>226.0</ele><time>2026-03-28T11:59:00.001Z</time></trkpt><trkpt lat="43.19328702818021" lon="11.383546495060708"><ele>226.0</ele><time>2026-03-28T11:59:01.001Z</time></trkpt><trkpt lat="43.193155477034736" lon="11.383590961921609"><ele>226.0</ele><time>2026-03-28T11:59:02.001Z</time></trkpt><trkpt lat="43.19300503746349" lon="11.383652502242631"><ele>226.0</ele><time>2026-03-28T11:59:03.001Z</time></trkpt><trkpt lat="43.192892124647784" lon="11.383696155701196"><ele>225.5</ele><time>2026-03-28T11:59:04.001Z</time></trkpt><trkpt lat="43.1927739080908" lon="11.383775881961306"><ele>225.0</ele><time>2026-03-28T11:59:05.001Z</time></trkpt><trkpt lat="43.192663254030826" lon="11.38383499672762"><ele>224.5</ele><time>2026-03-28T11:59:06.001Z</time></trkpt><trkpt lat="43.192542534378816" lon="11.383887695672291"><ele>224.0</ele><time>2026-03-28T11:59:07.001Z</time></trkpt><trkpt lat="43.19241533630733" lon="11.383936397922389"><ele>224.25</ele><time>2026-03-28T11:59:08.001Z</time></trkpt><trkpt lat="43.19229420759153" lon="11.383961056923203"><ele>224.5</ele><time>2026-03-28T11:59:09.001Z</time></trkpt><trkpt lat="43.192184304465805" lon="11.383957984212223"><ele>224.75</ele><time>2026-03-28T11:59:10.001Z</time></trkpt><trkpt lat="43.19207541859226" lon="11.383942359161871"><ele>225.0</ele><time>2026-03-28T11:59:11.001Z</time></trkpt><trkpt lat="43.1919590738929" lon="11.383930729358172"><ele>225.0</ele><time>2026-03-28T11:59:12.001Z</time></trkpt><trkpt lat="43.19184534270173" lon="11.383940369613269"><ele>225.0</ele><time>2026-03-28T11:59:13.001Z</time></trkpt><trkpt lat="43.191734589350126" lon="11.383995722277588"><ele>225.0</ele><time>2026-03-28T11:59:14.001Z</time></trkpt><trkpt lat="43.19163274843856" lon="11.384089294075629"><ele>225.0</ele><time>2026-03-28T11:59:15.001Z</time></trkpt><trkpt lat="43.19154404905186" lon="11.384208433795667"><ele>226.0</ele><time>2026-03-28T11:59:16.001Z</time></trkpt><trkpt lat="43.19144444614377" lon="11.384361170671719"><ele>227.0</ele><time>2026-03-28T11:59:17.001Z</time></trkpt><trkpt lat="43.19133592306709" lon="11.384530638895324"><ele>228.0</ele><time>2026-03-28T11:59:18.001Z</time></trkpt><trkpt lat="43.19123717499748" lon="11.38468064869018"><ele>228.0</ele><time>2026-03-28T11:59:19.001Z</time></trkpt><trkpt lat="43.19113398067349" lon="11.384819021729632"><ele>228.0</ele><time>2026-03-28T11:59:20.001Z</time></trkpt><trkpt lat="43.191018022488784" lon="11.384960583590674"><ele>228.0</ele><time>2026-03-28T11:59:21.001Z</time></trkpt><trkpt lat="43.19089496946162" lon="11.385057370035303"><ele>228.0</ele><time>2026-03-28T11:59:22.001Z</time></trkpt><trkpt lat="43.190772192156764" lon="11.385171528822655"><ele>229.0</ele><time>2026-03-28T11:59:23.001Z</time></trkpt><trkpt lat="43.19066143497129" lon="11.385285525230943"><ele>230.0</ele><time>2026-03-28T11:59:24.001Z</time></trkpt><trkpt lat="43.19053037413492" lon="11.38537576952535"><ele>231.0</ele><time>2026-03-28T11:59:25.001Z</time></trkpt><trkpt lat="43.19040618109215" lon="11.385445880916922"><ele>232.0</ele><time>2026-03-28T11:59:26.001Z</time></trkpt><trkpt lat="43.19027666761034" lon="11.385505388122938"><ele>229.5</ele><time>2026-03-28T11:59:27.001Z</time></trkpt><trkpt lat="43.19015266018011" lon="11.3855630872"><ele>227.0</ele><time>2026-03-28T11:59:28.001Z</time></trkpt><trkpt lat="43.19001470004652" lon="11.385604989186339"><ele>224.5</ele><time>2026-03-28T11:59:29.001Z</time></trkpt><trkpt lat="43.18986314514734" lon="11.3856395871495"><ele>222.0</ele><time>2026-03-28T11:59:30.001Z</time></trkpt><trkpt lat="43.18967838609356" lon="11.38567511883645"><ele>221.0</ele><time>2026-03-28T11:59:31.001Z</time></trkpt><trkpt lat="43.18949826041444" lon="11.385730113545312"><ele>220.0</ele><time>2026-03-28T11:59:32.001Z</time></trkpt><trkpt lat="43.189331272529486" lon="11.385774161713163"><ele>219.0</ele><time>2026-03-28T11:59:33.001Z</time></trkpt><trkpt lat="43.18916840422601" lon="11.38579907565141"><ele>219.0</ele><time>2026-03-28T11:59:34.001Z</time></trkpt><trkpt lat="43.18901163123097" lon="11.385850816675491"><ele>219.0</ele><time>2026-03-28T11:59:35.001Z</time></trkpt><trkpt lat="43.18887545919661" lon="11.385893933085448"><ele>219.0</ele><time>2026-03-28T11:59:36.001Z</time></trkpt><trkpt lat="43.18876615418007" lon="11.385922618120928"><ele>219.0</ele><time>2026-03-28T11:59:37Z</time></trkpt><trkpt lat="43.18865498352895" lon="11.385938424299209"><ele>220.75</ele><time>2026-03-28T11:59:38Z</time></trkpt><trkpt lat="43.18854035869565" lon="11.385920953874795"><ele>222.5</ele><time>2026-03-28T11:59:39Z</time></trkpt><trkpt lat="43.18843562573364" lon="11.38586009005441"><ele>224.25</ele><time>2026-03-28T11:59:40Z</time></trkpt><trkpt lat="43.18833442643797" lon="11.385780569469093"><ele>226.0</ele><time>2026-03-28T11:59:41Z</time></trkpt><trkpt lat="43.18822657529578" lon="11.38570882649735"><ele>229.5</ele><time>2026-03-28T11:59:42Z</time></trkpt><trkpt lat="43.18812054881861" lon="11.385597356510193"><ele>233.0</ele><time>2026-03-28T11:59:43Z</time></trkpt><trkpt lat="43.188004885023936" lon="11.385482461730794"><ele>236.5</ele><time>2026-03-28T11:59:44Z</time></trkpt><trkpt lat="43.18787938198322" lon="11.3854071506914"><ele>240.0</ele><time>2026-03-28T11:59:45Z</time></trkpt><trkpt lat="43.18775235754974" lon="11.385346184875637"><ele>240.0</ele><time>2026-03-28T11:59:46Z</time></trkpt><trkpt lat="43.18763033564066" lon="11.385318134998624"><ele>240.0</ele><time>2026-03-28T11:59:47Z</time></trkpt><trkpt lat="43.18753426867974" lon="11.385277315802895"><ele>240.0</ele><time>2026-03-28T11:59:48Z</time></trkpt><trkpt lat="43.187442894358924" lon="11.3852545377221"><ele>240.0</ele><time>2026-03-28T11:59:49Z</time></trkpt><trkpt lat="43.18736088167313" lon="11.38523862711423"><ele>240.0</ele><time>2026-03-28T11:59:50Z</time></trkpt><trkpt lat="43.187267801923035" lon="11.385235700131366"><ele>241.6</ele><time>2026-03-28T11:59:51Z</time></trkpt><trkpt lat="43.18717237313905" lon="11.385246564660083"><ele>243.2</ele><time>2026-03-28T11:59:52Z</time></trkpt><trkpt lat="43.18707922060864" lon="11.385253680922098"><ele>244.8</ele><time>2026-03-28T11:59:53Z</time></trkpt><trkpt lat="43.1869830789383" lon="11.385276795961218"><ele>246.4</ele><time>2026-03-28T11:59:54Z</time></trkpt><trkpt lat="43.186883326714955" lon="11.385294228309165"><ele>248.0</ele><time>2026-03-28T11:59:55Z</time></trkpt><trkpt lat="43.18678063901474" lon="11.385316747302634"><ele>248.0</ele><time>2026-03-28T11:59:56Z</time></trkpt><trkpt lat="43.18667778650889" lon="11.38534714467873"><ele>248.0</ele><time>2026-03-28T11:59:57Z</time></trkpt><trkpt lat="43.18656663620123" lon="11.3853655193407"><ele>248.0</ele><time>2026-03-28T11:59:58Z</time></trkpt><trkpt lat="43.18644970275805" lon="11.385368800229255"><ele>248.0</ele><time>2026-03-28T11:59:59Z</time></trkpt><trkpt lat="43.186343411337646" lon="11.385402018510431"><ele>248.0</ele><time>2026-03-28T12:00:00Z</time></trkpt><trkpt lat="43.18623579323561" lon="11.38541142412917"><ele>250.0</ele><time>2026-03-28T12:00:01Z</time></trkpt><trkpt lat="43.18612211382666" lon="11.385418983876903"><ele>252.0</ele><time>2026-03-28T12:00:02Z</time></trkpt><trkpt lat="43.186008819864014" lon="11.3854199590785"><ele>254.0</ele><time>2026-03-28T12:00:03Z</time></trkpt><trkpt lat="43.185890860121546" lon="11.385417333194939"><ele>256.0</ele><time>2026-03-28T12:00:04Z</time></trkpt><trkpt lat="43.18577073717002" lon="11.38542027571924"><ele>257.8333333333333</ele><time>2026-03-28T12:00:05Z</time></trkpt><trkpt lat="43.18566995224863" lon="11.38541979328639"><ele>259.66666666666663</ele><time>2026-03-28T12:00:06Z</time></trkpt><trkpt lat="43.185583934418275" lon="11.38539736165556"><ele>261.5</ele><time>2026-03-28T12:00:07Z</time></trkpt><trkpt lat="43.18549890758587" lon="11.385377411521413"><ele>263.3333333333333</ele><time>2026-03-28T12:00:08Z</time></trkpt><trkpt lat="43.1854172091301" lon="11.385337741577834"><ele>265.1666666666667</ele><time>2026-03-28T12:00:09Z</time></trkpt><trkpt lat="43.18534512832684" lon="11.38527768807237"><ele>267.0</ele><time>2026-03-28T12:00:10Z</time></trkpt><trkpt lat="43.18527887026675" lon="11.38520125747116"><ele>267.0</ele><time>2026-03-28T12:00:11Z</time></trkpt><trkpt lat="43.18521873197597" lon="11.385126084212486"><ele>267.0</ele><time>2026-03-28T12:00:12Z</time></trkpt><trkpt lat="43.185149211528525" lon="11.38503153311127"><ele>267.0</ele><time>2026-03-28T12:00:13Z</time></trkpt><trkpt lat="43.18507253465418" lon="11.38491836347057"><ele>267.0</ele><time>2026-03-28T12:00:14Z</time></trkpt><trkpt lat="43.18499655122462" lon="11.384803021103417"><ele>267.0</ele><time>2026-03-28T12:00:15Z</time></trkpt><trkpt lat="43.184916862330944" lon="11.384712111287659"><ele>267.6</ele><time>2026-03-28T12:00:16Z</time></trkpt><trkpt lat="43.18485650526212" lon="11.384614565028444"><ele>268.2</ele><time>2026-03-28T12:00:17Z</time></trkpt><trkpt lat="43.18478949636124" lon="11.38451367050392"><ele>268.8</ele><time>2026-03-28T12:00:18Z</time></trkpt><trkpt lat="43.184706089840276" lon="11.384416629684518"><ele>269.4</ele><time>2026-03-28T12:00:19Z</time></trkpt><trkpt lat="43.18461157169632" lon="11.384315427466717"><ele>270.0</ele><time>2026-03-28T12:00:20Z</time></trkpt><trkpt lat="43.184520711697026" lon="11.384210285859034"><ele>271.0</ele><time>2026-03-28T12:00:21Z</time></trkpt><trkpt lat="43.184426135742456" lon="11.384126244969487"><ele>272.0</ele><time>2026-03-28T12:00:22Z</time></trkpt><trkpt lat="43.1843396405073" lon="11.384048167847089"><ele>273.0</ele><time>2026-03-28T12:00:23Z</time></trkpt><trkpt lat="43.1842518094799" lon="11.383981779203163"><ele>274.0</ele><time>2026-03-28T12:00:24Z</time></trkpt><trkpt lat="43.18415431987439" lon="11.383924424234856"><ele>275.0</ele><time>2026-03-28T12:00:25Z</time></trkpt><trkpt lat="43.184048107538615" lon="11.383873335108284"><ele>274.6666666666667</ele><time>2026-03-28T12:00:26Z</time></trkpt><trkpt lat="43.183923793481775" lon="11.383822996045236"><ele>274.3333333333333</ele><time>2026-03-28T12:00:27Z</time></trkpt><trkpt lat="43.18363739079065" lon="11.383720046160759"><ele>274.0</ele><time>2026-03-28T12:00:29Z</time></trkpt><trkpt lat="43.183522994310245" lon="11.3836767459583"><ele>274.0</ele><time>2026-03-28T12:00:30Z</time></trkpt><trkpt lat="43.18341395863912" lon="11.383634642154544"><ele>274.0</ele><time>2026-03-28T12:00:31Z</time></trkpt><trkpt lat="43.183304516301426" lon="11.38359081924409"><ele>274.0</ele><time>2026-03-28T12:00:32Z</time></trkpt><trkpt lat="43.18318967654572" lon="11.38354491487227"><ele>274.0</ele><time>2026-03-28T12:00:33Z</time></trkpt><trkpt lat="43.183075203452276" lon="11.38349061318795"><ele>273.25</ele><time>2026-03-28T12:00:34Z</time></trkpt><trkpt lat="43.182964423112736" lon="11.383416127059213"><ele>272.5</ele><time>2026-03-28T12:00:35Z</time></trkpt><trkpt lat="43.18284342186416" lon="11.38336335788204"><ele>271.75</ele><time>2026-03-28T12:00:36Z</time></trkpt><trkpt lat="43.18271295770689" lon="11.383329750015019"><ele>271.0</ele><time>2026-03-28T12:00:37Z</time></trkpt><trkpt lat="43.182583284215816" lon="11.383265092312978"><ele>271.0</ele><time>2026-03-28T12:00:38Z</time></trkpt><trkpt lat="43.182453988051805" lon="11.383206991060092"><ele>271.0</ele><time>2026-03-28T12:00:39Z</time></trkpt><trkpt lat="43.18231718623244" lon="11.383160475778697"><ele>271.0</ele><time>2026-03-28T12:00:40Z</time></trkpt><trkpt lat="43.18218300955755" lon="11.383123380962118"><ele>271.0</ele><time>2026-03-28T12:00:41Z</time></trkpt><trkpt lat="43.182061547924604" lon="11.38308981652416"><ele>270.5</ele><time>2026-03-28T12:00:42Z</time></trkpt><trkpt lat="43.18194616712458" lon="11.383056628825923"><ele>270.0</ele><time>2026-03-28T12:00:43Z</time></trkpt><trkpt lat="43.181832886338086" lon="11.383034126030426"><ele>269.5</ele><time>2026-03-28T12:00:44Z</time></trkpt><trkpt lat="43.1817184409848" lon="11.383005362106044"><ele>269.0</ele><time>2026-03-28T12:00:45Z</time></trkpt><trkpt lat="43.181599156158136" lon="11.382976055001315"><ele>268.5</ele><time>2026-03-28T12:00:46Z</time></trkpt><trkpt lat="43.18149628013196" lon="11.382952744092908"><ele>268.0</ele><time>2026-03-28T12:00:47Z</time></trkpt><trkpt lat="43.18141359792462" lon="11.382937991443372"><ele>267.5</ele><time>2026-03-28T12:00:48Z</time></trkpt><trkpt lat="43.18134455937125" lon="11.38291857752527"><ele>267.0</ele><time>2026-03-28T12:00:49Z</time></trkpt><trkpt lat="43.181279987199915" lon="11.382898346973121"><ele>266.5</ele><time>2026-03-28T12:00:50.001Z</time></trkpt><trkpt lat="43.18121394151726" lon="11.382876156930358"><ele>266.0</ele><time>2026-03-28T12:00:51.001Z</time></trkpt><trkpt lat="43.1811436509683" lon="11.382846031245416"><ele>266.0</ele><time>2026-03-28T12:00:52.001Z</time></trkpt><trkpt lat="43.18107492836334" lon="11.382806707191193"><ele>266.0</ele><time>2026-03-28T12:00:53.001Z</time></trkpt><trkpt lat="43.18101359873696" lon="11.382768351133898"><ele>266.0</ele><time>2026-03-28T12:00:54.001Z</time></trkpt><trkpt lat="43.18092321462348" lon="11.382710870681834"><ele>266.0</ele><time>2026-03-28T12:00:56.001Z</time></trkpt><trkpt lat="43.18084851775183" lon="11.38266478287737"><ele>266.0</ele><time>2026-03-28T12:00:59.001Z</time></trkpt><trkpt lat="43.18071500328899" lon="11.382739277507252"><ele>266.0</ele><time>2026-03-28T12:01:01.001Z</time></trkpt><trkpt lat="43.18060846473293" lon="11.38285399019323"><ele>266.0</ele><time>2026-03-28T12:01:02.001Z</time></trkpt><trkpt lat="43.18047750322512" lon="11.382991613926945"><ele>266.0</ele><time>2026-03-28T12:01:03.001Z</time></trkpt><trkpt lat="43.18031123746356" lon="11.383157679924382"><ele>266.0</ele><time>2026-03-28T12:01:04.001Z</time></trkpt><trkpt lat="43.18013186561305" lon="11.383313737756762"><ele>266.0</ele><time>2026-03-28T12:01:05.001Z</time></trkpt><trkpt lat="43.17989591301709" lon="11.383463979895735"><ele>264.5</ele><time>2026-03-28T12:01:06.001Z</time></trkpt><trkpt lat="43.17965888995198" lon="11.383594468895241"><ele>263.0</ele><time>2026-03-28T12:01:07.001Z</time></trkpt><trkpt lat="43.17944578838855" lon="11.38370232053403"><ele>263.0</ele><time>2026-03-28T12:01:08.001Z</time></trkpt><trkpt lat="43.179241587410125" lon="11.3838105236363"><ele>263.0</ele><time>2026-03-28T12:01:09.001Z</time></trkpt><trkpt lat="43.17905754235018" lon="11.383918085914011"><ele>263.0</ele><time>2026-03-28T12:01:10.001Z</time></trkpt><trkpt lat="43.17888890454761" lon="11.384026444567729"><ele>265.0</ele><time>2026-03-28T12:01:11.001Z</time></trkpt><trkpt lat="43.178733735666476" lon="11.384150987231301"><ele>267.0</ele><time>2026-03-28T12:01:12.001Z</time></trkpt><trkpt lat="43.178571912283466" lon="11.384277382003496"><ele>269.0</ele><time>2026-03-28T12:01:13.001Z</time></trkpt><trkpt lat="43.17843570857451" lon="11.384458291654548"><ele>269.0</ele><time>2026-03-28T12:01:14.001Z</time></trkpt><trkpt lat="43.17830497267111" lon="11.384644689738316"><ele>269.0</ele><time>2026-03-28T12:01:15.001Z</time></trkpt><trkpt lat="43.17817747463434" lon="11.384812305404338"><ele>269.0</ele><time>2026-03-28T12:01:16.001Z</time></trkpt><trkpt lat="43.17804154939509" lon="11.384954868200877"><ele>269.0</ele><time>2026-03-28T12:01:17.001Z</time></trkpt><trkpt lat="43.17788385564604" lon="11.38507899064303"><ele>269.0</ele><time>2026-03-28T12:01:18.001Z</time></trkpt><trkpt lat="43.17772913052695" lon="11.38520006579116"><ele>269.0</ele><time>2026-03-28T12:01:19.001Z</time></trkpt><trkpt lat="43.1775907423602" lon="11.385315773756433"><ele>269.0</ele><time>2026-03-28T12:01:20.001Z</time></trkpt><trkpt lat="43.177456224609834" lon="11.38542872540763"><ele>269.0</ele><time>2026-03-28T12:01:21.001Z</time></trkpt><trkpt lat="43.17732816282337" lon="11.385559537635938"><ele>269.0</ele><time>2026-03-28T12:01:22.001Z</time></trkpt><trkpt lat="43.177218678109845" lon="11.385732053011395"><ele>270.0</ele><time>2026-03-28T12:01:23.001Z</time></trkpt><trkpt lat="43.17712162230645" lon="11.385949274954198"><ele>271.0</ele><time>2026-03-28T12:01:24.001Z</time></trkpt><trkpt lat="43.17703185429283" lon="11.386189548488952"><ele>272.0</ele><time>2026-03-28T12:01:25.001Z</time></trkpt><trkpt lat="43.17694280117052" lon="11.386433714183896"><ele>272.0</ele><time>2026-03-28T12:01:26.001Z</time></trkpt><trkpt lat="43.176855418116745" lon="11.386657434527896"><ele>272.0</ele><time>2026-03-28T12:01:27.001Z</time></trkpt><trkpt lat="43.176771635759586" lon="11.386867901985056"><ele>272.0</ele><time>2026-03-28T12:01:28.001Z</time></trkpt><trkpt lat="43.17669155333188" lon="11.387058457522489"><ele>271.33333333333337</ele><time>2026-03-28T12:01:29.001Z</time></trkpt><trkpt lat="43.17662152418157" lon="11.387244606487279"><ele>270.6666666666667</ele><time>2026-03-28T12:01:30.001Z</time></trkpt><trkpt lat="43.17654453494685" lon="11.387438932225436"><ele>270.0</ele><time>2026-03-28T12:01:31.001Z</time></trkpt><trkpt lat="43.17646398239217" lon="11.387635124220601"><ele>271.3333333333333</ele><time>2026-03-28T12:01:32.001Z</time></trkpt><trkpt lat="43.17638439089269" lon="11.387811991264897"><ele>272.66666666666663</ele><time>2026-03-28T12:01:33.001Z</time></trkpt><trkpt lat="43.176274752920165" lon="11.387941995792893"><ele>274.0</ele><time>2026-03-28T12:01:34.001Z</time></trkpt><trkpt lat="43.17615178660008" lon="11.388083746658724"><ele>274.0</ele><time>2026-03-28T12:01:35.001Z</time></trkpt><trkpt lat="43.17601272698477" lon="11.388222756408599"><ele>274.0</ele><time>2026-03-28T12:01:36.001Z</time></trkpt><trkpt lat="43.175865958430585" lon="11.388335728315115"><ele>274.0</ele><time>2026-03-28T12:01:37.001Z</time></trkpt><trkpt lat="43.175687991806306" lon="11.388407429741228"><ele>273.5</ele><time>2026-03-28T12:01:38.001Z</time></trkpt><trkpt lat="43.175471401109355" lon="11.388498284609014"><ele>273.0</ele><time>2026-03-28T12:01:39.001Z</time></trkpt><trkpt lat="43.175217591946335" lon="11.38861169858323"><ele>273.0</ele><time>2026-03-28T12:01:40.001Z</time></trkpt><trkpt lat="43.17495914574712" lon="11.388717999557528"><ele>273.0</ele><time>2026-03-28T12:01:41.001Z</time></trkpt><trkpt lat="43.17473609886161" lon="11.388811754800484"><ele>275.0</ele><time>2026-03-28T12:01:42.001Z</time></trkpt><trkpt lat="43.1745340646375" lon="11.388906989716695"><ele>277.0</ele><time>2026-03-28T12:01:43Z</time></trkpt><trkpt lat="43.174353041252985" lon="11.38898812892529"><ele>279.0</ele><time>2026-03-28T12:01:44Z</time></trkpt><trkpt lat="43.174183033637746" lon="11.389058039731031"><ele>279.0</ele><time>2026-03-28T12:01:45Z</time></trkpt><trkpt lat="43.174024311758785" lon="11.389148419864037"><ele>279.0</ele><time>2026-03-28T12:01:46Z</time></trkpt><trkpt lat="43.17387932866688" lon="11.389279785980962"><ele>279.0</ele><time>2026-03-28T12:01:47Z</time></trkpt><trkpt lat="43.173740774945216" lon="11.389438451059174"><ele>281.3333333333333</ele><time>2026-03-28T12:01:48Z</time></trkpt><trkpt lat="43.173624536221304" lon="11.389617471356729"><ele>283.66666666666663</ele><time>2026-03-28T12:01:49Z</time></trkpt><trkpt lat="43.17354477298035" lon="11.38981913940806"><ele>286.0</ele><time>2026-03-28T12:01:50Z</time></trkpt><trkpt lat="43.17349484625668" lon="11.390022811807448"><ele>286.0</ele><time>2026-03-28T12:01:51Z</time></trkpt><trkpt lat="43.17346841350163" lon="11.39023685577886"><ele>286.0</ele><time>2026-03-28T12:01:52Z</time></trkpt><trkpt lat="43.173463968867175" lon="11.390479190931414"><ele>286.0</ele><time>2026-03-28T12:01:53Z</time></trkpt><trkpt lat="43.173460493280615" lon="11.390723873619736"><ele>284.66666666666663</ele><time>2026-03-28T12:01:54Z</time></trkpt><trkpt lat="43.173446831256705" lon="11.39096134998881"><ele>283.3333333333333</ele><time>2026-03-28T12:01:55Z</time></trkpt><trkpt lat="43.17342787992248" lon="11.39119870726058"><ele>282.0</ele><time>2026-03-28T12:01:56Z</time></trkpt><trkpt lat="43.17341871138577" lon="11.391423092901341"><ele>281.6666666666667</ele><time>2026-03-28T12:01:57Z</time></trkpt><trkpt lat="43.17343734361083" lon="11.391647194818926"><ele>281.33333333333337</ele><time>2026-03-28T12:01:58Z</time></trkpt><trkpt lat="43.173487745806575" lon="11.391878987003418"><ele>281.0</ele><time>2026-03-28T12:01:59Z</time></trkpt><trkpt lat="43.173550296560805" lon="11.392117660830941"><ele>281.0</ele><time>2026-03-28T12:02:00Z</time></trkpt><trkpt lat="43.173610452793234" lon="11.392360870804342"><ele>281.0</ele><time>2026-03-28T12:02:01Z</time></trkpt><trkpt lat="43.17366330480979" lon="11.392601326764915"><ele>281.0</ele><time>2026-03-28T12:02:02Z</time></trkpt><trkpt lat="43.17371217662921" lon="11.392822916675318"><ele>281.0</ele><time>2026-03-28T12:02:03Z</time></trkpt><trkpt lat="43.1737607094978" lon="11.393037906199892"><ele>281.0</ele><time>2026-03-28T12:02:04Z</time></trkpt><trkpt lat="43.173797519218574" lon="11.393241121283518"><ele>281.0</ele><time>2026-03-28T12:02:05Z</time></trkpt><trkpt lat="43.173821152176515" lon="11.39343009329754"><ele>281.0</ele><time>2026-03-28T12:02:06Z</time></trkpt><trkpt lat="43.17384225937176" lon="11.393614545374394"><ele>281.0</ele><time>2026-03-28T12:02:07Z</time></trkpt><trkpt lat="43.173862093230596" lon="11.393796447462634"><ele>281.0</ele><time>2026-03-28T12:02:08Z</time></trkpt><trkpt lat="43.17387872293688" lon="11.393981241948337"><ele>281.0</ele><time>2026-03-28T12:02:09Z</time></trkpt><trkpt lat="43.17389420138932" lon="11.394177771208174"><ele>280.2</ele><time>2026-03-28T12:02:10Z</time></trkpt><trkpt lat="43.17389626810988" lon="11.394345663429585"><ele>279.40000000000003</ele><time>2026-03-28T12:02:11Z</time></trkpt><trkpt lat="43.173886527738084" lon="11.394484793303725"><ele>278.6</ele><time>2026-03-28T12:02:12Z</time></trkpt><trkpt lat="43.173861984057126" lon="11.394603298437893"><ele>277.8</ele><time>2026-03-28T12:02:13Z</time></trkpt><trkpt lat="43.173822933246974" lon="11.39469188288056"><ele>277.0</ele><time>2026-03-28T12:02:14Z</time></trkpt><trkpt lat="43.17369418390564" lon="11.3947180858216"><ele>277.0</ele><time>2026-03-28T12:02:17Z</time></trkpt><trkpt lat="43.17358912859499" lon="11.39460206139065"><ele>277.0</ele><time>2026-03-28T12:02:19Z</time></trkpt><trkpt lat="43.17351276406078" lon="11.394544889131222"><ele>277.0</ele><time>2026-03-28T12:02:20Z</time></trkpt><trkpt lat="43.17341715259291" lon="11.394492916850371"><ele>277.0</ele><time>2026-03-28T12:02:21Z</time></trkpt><trkpt lat="43.17329909578197" lon="11.394494617792365"><ele>277.0</ele><time>2026-03-28T12:02:22Z</time></trkpt><trkpt lat="43.173182107106406" lon="11.39454296346661"><ele>280.0</ele><time>2026-03-28T12:02:23Z</time></trkpt><trkpt lat="43.17308994377248" lon="11.394638335012154"><ele>283.0</ele><time>2026-03-28T12:02:24Z</time></trkpt><trkpt lat="43.173016980273346" lon="11.394777413592394"><ele>286.0</ele><time>2026-03-28T12:02:25Z</time></trkpt><trkpt lat="43.17296513288219" lon="11.39496222186564"><ele>289.0</ele><time>2026-03-28T12:02:26Z</time></trkpt><trkpt lat="43.17292246266237" lon="11.395167490399134"><ele>289.0</ele><time>2026-03-28T12:02:27Z</time></trkpt><trkpt lat="43.17287368644002" lon="11.39536335596229"><ele>289.0</ele><time>2026-03-28T12:02:28Z</time></trkpt><trkpt lat="43.172822366239025" lon="11.395533153585221"><ele>289.0</ele><time>2026-03-28T12:02:29Z</time></trkpt><trkpt lat="43.172778887281495" lon="11.395674639045685"><ele>289.0</ele><time>2026-03-28T12:02:30Z</time></trkpt><trkpt lat="43.17273855668393" lon="11.39581342211619"><ele>288.0</ele><time>2026-03-28T12:02:31Z</time></trkpt><trkpt lat="43.17269526097142" lon="11.39594694314679"><ele>287.0</ele><time>2026-03-28T12:02:32Z</time></trkpt><trkpt lat="43.17264418116774" lon="11.396052915570266"><ele>286.0</ele><time>2026-03-28T12:02:33Z</time></trkpt><trkpt lat="43.17257500028523" lon="11.396144507428971"><ele>285.0</ele><time>2026-03-28T12:02:34Z</time></trkpt><trkpt lat="43.17249131690531" lon="11.396219863466383"><ele>284.0</ele><time>2026-03-28T12:02:35Z</time></trkpt><trkpt lat="43.172375250497275" lon="11.396274175489822"><ele>284.75</ele><time>2026-03-28T12:02:36Z</time></trkpt><trkpt lat="43.172243539116124" lon="11.396297675968475"><ele>285.5</ele><time>2026-03-28T12:02:37Z</time></trkpt><trkpt lat="43.17212615897147" lon="11.396274934349835"><ele>286.25</ele><time>2026-03-28T12:02:38Z</time></trkpt><trkpt lat="43.172024012209555" lon="11.396203024769097"><ele>287.0</ele><time>2026-03-28T12:02:39Z</time></trkpt><trkpt lat="43.17192938327955" lon="11.396094111771571"><ele>287.0</ele><time>2026-03-28T12:02:40Z</time></trkpt><trkpt lat="43.17184922367355" lon="11.395965244995644"><ele>287.0</ele><time>2026-03-28T12:02:41Z</time></trkpt><trkpt lat="43.1717993911739" lon="11.395811968617686"><ele>287.0</ele><time>2026-03-28T12:02:42Z</time></trkpt><trkpt lat="43.171769576175095" lon="11.395645675459372"><ele>287.0</ele><time>2026-03-28T12:02:43Z</time></trkpt><trkpt lat="43.1717398365113" lon="11.395458234174518"><ele>288.5</ele><time>2026-03-28T12:02:44Z</time></trkpt><trkpt lat="43.17170155178936" lon="11.395245266001739"><ele>290.0</ele><time>2026-03-28T12:02:45Z</time></trkpt><trkpt lat="43.17166087011023" lon="11.39505387427412"><ele>291.5</ele><time>2026-03-28T12:02:46Z</time></trkpt><trkpt lat="43.17162700015732" lon="11.394870952970928"><ele>293.0</ele><time>2026-03-28T12:02:47Z</time></trkpt><trkpt lat="43.17159191974755" lon="11.394671585176408"><ele>293.6666666666667</ele><time>2026-03-28T12:02:48Z</time></trkpt><trkpt lat="43.17154825060315" lon="11.394443931395987"><ele>294.3333333333333</ele><time>2026-03-28T12:02:49Z</time></trkpt><trkpt lat="43.17150325189047" lon="11.394216250123048"><ele>295.0</ele><time>2026-03-28T12:02:50Z</time></trkpt><trkpt lat="43.17146179585372" lon="11.394015703333189"><ele>293.5</ele><time>2026-03-28T12:02:51Z</time></trkpt><trkpt lat="43.17143068233748" lon="11.393837423142545"><ele>292.0</ele><time>2026-03-28T12:02:52Z</time></trkpt><trkpt lat="43.1713993865252" lon="11.393670998723529"><ele>290.5</ele><time>2026-03-28T12:02:53Z</time></trkpt><trkpt lat="43.17136696542018" lon="11.393497681186467"><ele>289.0</ele><time>2026-03-28T12:02:54Z</time></trkpt><trkpt lat="43.17133417467058" lon="11.393321738430966"><ele>289.0</ele><time>2026-03-28T12:02:55Z</time></trkpt><trkpt lat="43.171295869089896" lon="11.393158552873057"><ele>289.0</ele><time>2026-03-28T12:02:56Z</time></trkpt><trkpt lat="43.17126071542182" lon="11.393000354501995"><ele>289.0</ele><time>2026-03-28T12:02:57Z</time></trkpt><trkpt lat="43.171213671484175" lon="11.392838130969443"><ele>289.0</ele><time>2026-03-28T12:02:58Z</time></trkpt><trkpt lat="43.171154677965276" lon="11.392683109869656"><ele>290.25</ele><time>2026-03-28T12:02:59Z</time></trkpt><trkpt lat="43.17108372474987" lon="11.392541566930758"><ele>291.5</ele><time>2026-03-28T12:03:00Z</time></trkpt><trkpt lat="43.171003370997894" lon="11.39241151054771"><ele>292.75</ele><time>2026-03-28T12:03:01Z</time></trkpt><trkpt lat="43.170915605420824" lon="11.392294553923378"><ele>294.0</ele><time>2026-03-28T12:03:02Z</time></trkpt><trkpt lat="43.17082166648189" lon="11.392194600491399"><ele>294.59999999999997</ele><time>2026-03-28T12:03:03Z</time></trkpt><trkpt lat="43.17073185962626" lon="11.392118615096354"><ele>295.2</ele><time>2026-03-28T12:03:04Z</time></trkpt><trkpt lat="43.17063285224431" lon="11.392078177511756"><ele>295.79999999999995</ele><time>2026-03-28T12:03:05Z</time></trkpt><trkpt lat="43.17053215297472" lon="11.392073871847709"><ele>296.4</ele><time>2026-03-28T12:03:06Z</time></trkpt><trkpt lat="43.170454619765074" lon="11.392079819028268"><ele>297.0</ele><time>2026-03-28T12:03:07Z</time></trkpt><trkpt lat="43.17036801222531" lon="11.392048910528672"><ele>297.0</ele><time>2026-03-28T12:03:09.001Z</time></trkpt><trkpt lat="43.17040938811792" lon="11.391884625034503"><ele>297.0</ele><time>2026-03-28T12:03:11.001Z</time></trkpt><trkpt lat="43.170426365022564" lon="11.391781431700268"><ele>297.0</ele><time>2026-03-28T12:03:12.001Z</time></trkpt><trkpt lat="43.17046665192612" lon="11.391675026275648"><ele>297.0</ele><time>2026-03-28T12:03:13.001Z</time></trkpt><trkpt lat="43.17050202473544" lon="11.39158290351417"><ele>297.0</ele><time>2026-03-28T12:03:14.001Z</time></trkpt><trkpt lat="43.17058137700929" lon="11.39148445869985"><ele>297.0</ele><time>2026-03-28T12:03:16.001Z</time></trkpt><trkpt lat="43.17065591391901" lon="11.39150858609016"><ele>297.0</ele><time>2026-03-28T12:03:17.001Z</time></trkpt><trkpt lat="43.170739874432236" lon="11.39147412500943"><ele>297.0</ele><time>2026-03-28T12:03:18.001Z</time></trkpt><trkpt lat="43.17083596533311" lon="11.391454473503945"><ele>297.0</ele><time>2026-03-28T12:03:19.001Z</time></trkpt><trkpt lat="43.170925204678" lon="11.391429818210595"><ele>297.0</ele><time>2026-03-28T12:03:20.001Z</time></trkpt><trkpt lat="43.170989262643104" lon="11.391401763049169"><ele>297.0</ele><time>2026-03-28T12:03:21.001Z</time></trkpt><trkpt lat="43.1710471228271" lon="11.39132254789862"><ele>298.25</ele><time>2026-03-28T12:03:23.001Z</time></trkpt><trkpt lat="43.17098112606393" lon="11.391160810970208"><ele>299.5</ele><time>2026-03-28T12:03:27.001Z</time></trkpt><trkpt lat="43.17088611749548" lon="11.391120413581561"><ele>300.75</ele><time>2026-03-28T12:03:28.001Z</time></trkpt><trkpt lat="43.17077515079215" lon="11.3910614616281"><ele>302.0</ele><time>2026-03-28T12:03:29.001Z</time></trkpt><trkpt lat="43.17066303855879" lon="11.390999093880412"><ele>302.0</ele><time>2026-03-28T12:03:30.001Z</time></trkpt><trkpt lat="43.17055684785284" lon="11.390944889367496"><ele>302.0</ele><time>2026-03-28T12:03:31.001Z</time></trkpt><trkpt lat="43.1704453929226" lon="11.390879657671052"><ele>302.0</ele><time>2026-03-28T12:03:32.001Z</time></trkpt><trkpt lat="43.1703369431853" lon="11.390802976981144"><ele>302.0</ele><time>2026-03-28T12:03:33.001Z</time></trkpt><trkpt lat="43.17021801942978" lon="11.390708107775135"><ele>302.0</ele><time>2026-03-28T12:03:34.001Z</time></trkpt><trkpt lat="43.170080341292284" lon="11.390587527860694"><ele>302.0</ele><time>2026-03-28T12:03:35.001Z</time></trkpt><trkpt lat="43.16994200310846" lon="11.39047381387488"><ele>302.0</ele><time>2026-03-28T12:03:36.001Z</time></trkpt><trkpt lat="43.16981433562334" lon="11.390366866805648"><ele>298.0</ele><time>2026-03-28T12:03:37.001Z</time></trkpt><trkpt lat="43.169687448834125" lon="11.390267934068493"><ele>294.0</ele><time>2026-03-28T12:03:38.001Z</time></trkpt><trkpt lat="43.169554110201666" lon="11.390179071166074"><ele>290.0</ele><time>2026-03-28T12:03:39.001Z</time></trkpt><trkpt lat="43.16939785239518" lon="11.39009886668598"><ele>290.0</ele><time>2026-03-28T12:03:40.001Z</time></trkpt><trkpt lat="43.16922953709864" lon="11.3900343182245"><ele>290.0</ele><time>2026-03-28T12:03:41.001Z</time></trkpt><trkpt lat="43.16905812566557" lon="11.38999467443064"><ele>290.0</ele><time>2026-03-28T12:03:42.001Z</time></trkpt><trkpt lat="43.168893366062214" lon="11.389975604908148"><ele>286.33333333333337</ele><time>2026-03-28T12:03:43.001Z</time></trkpt><trkpt lat="43.16873478976332" lon="11.389969468100524"><ele>282.6666666666667</ele><time>2026-03-28T12:03:44.001Z</time></trkpt><trkpt lat="43.16856847011304" lon="11.389958153673573"><ele>279.0</ele><time>2026-03-28T12:03:45.001Z</time></trkpt><trkpt lat="43.16837832477199" lon="11.389944779384823"><ele>277.0</ele><time>2026-03-28T12:03:46.001Z</time></trkpt><trkpt lat="43.168175065850974" lon="11.389924666064989"><ele>275.0</ele><time>2026-03-28T12:03:47.001Z</time></trkpt><trkpt lat="43.16797627452099" lon="11.389907920028913"><ele>273.0</ele><time>2026-03-28T12:03:48.001Z</time></trkpt><trkpt lat="43.167790301546226" lon="11.389888924041358"><ele>273.0</ele><time>2026-03-28T12:03:48.999Z</time></trkpt><trkpt lat="43.16761109958505" lon="11.389879320797933"><ele>273.0</ele><time>2026-03-28T12:03:49.999Z</time></trkpt><trkpt lat="43.167439929184766" lon="11.389862536425253"><ele>273.0</ele><time>2026-03-28T12:03:50.999Z</time></trkpt><trkpt lat="43.167274904013375" lon="11.38984473675695"><ele>273.3333333333333</ele><time>2026-03-28T12:03:51.999Z</time></trkpt><trkpt lat="43.167114346079906" lon="11.389848176179065"><ele>273.66666666666663</ele><time>2026-03-28T12:03:52.999Z</time></trkpt><trkpt lat="43.166954330350066" lon="11.389874497127185"><ele>274.0</ele><time>2026-03-28T12:03:53.999Z</time></trkpt><trkpt lat="43.166798821218734" lon="11.389918376660175"><ele>274.0</ele><time>2026-03-28T12:03:54.999Z</time></trkpt><trkpt lat="43.16665986026536" lon="11.389994678746133"><ele>274.0</ele><time>2026-03-28T12:03:55.999Z</time></trkpt><trkpt lat="43.16653633520142" lon="11.390100607374364"><ele>274.0</ele><time>2026-03-28T12:03:56.999Z</time></trkpt><trkpt lat="43.166433063865895" lon="11.390224418671382"><ele>274.0</ele><time>2026-03-28T12:03:57.999Z</time></trkpt><trkpt lat="43.166356186370514" lon="11.390348339546149"><ele>274.59999999999997</ele><time>2026-03-28T12:03:58.999Z</time></trkpt><trkpt lat="43.166298311105805" lon="11.390454981741797"><ele>275.2</ele><time>2026-03-28T12:04:00Z</time></trkpt><trkpt lat="43.16623023125059" lon="11.39053908586821"><ele>275.79999999999995</ele><time>2026-03-28T12:04:01Z</time></trkpt><trkpt lat="43.16614243259313" lon="11.390624187193833"><ele>276.4</ele><time>2026-03-28T12:04:02Z</time></trkpt><trkpt lat="43.16605349001419" lon="11.390679590446917"><ele>277.0</ele><time>2026-03-28T12:04:03Z</time></trkpt><trkpt lat="43.16594948588409" lon="11.390751456233644"><ele>276.0</ele><time>2026-03-28T12:04:04Z</time></trkpt><trkpt lat="43.16581938734624" lon="11.390790878835492"><ele>275.0</ele><time>2026-03-28T12:04:05Z</time></trkpt><trkpt lat="43.16566686029002" lon="11.390863925957694"><ele>274.0</ele><time>2026-03-28T12:04:06Z</time></trkpt><trkpt lat="43.1654737806051" lon="11.390919773380192"><ele>274.0</ele><time>2026-03-28T12:04:07Z</time></trkpt><trkpt lat="43.16525055761495" lon="11.390984759911273"><ele>274.0</ele><time>2026-03-28T12:04:08Z</time></trkpt><trkpt lat="43.16501075504557" lon="11.391045769751342"><ele>274.3333333333333</ele><time>2026-03-28T12:04:09Z</time></trkpt><trkpt lat="43.16479667857954" lon="11.39110065279371"><ele>274.6666666666667</ele><time>2026-03-28T12:04:10Z</time></trkpt><trkpt lat="43.16459879903257" lon="11.391148176453985"><ele>275.0</ele><time>2026-03-28T12:04:11Z</time></trkpt><trkpt lat="43.16439625286123" lon="11.39119044729683"><ele>275.0</ele><time>2026-03-28T12:04:12Z</time></trkpt><trkpt lat="43.16419075169643" lon="11.391239251334303"><ele>275.0</ele><time>2026-03-28T12:04:13Z</time></trkpt><trkpt lat="43.16399972786792" lon="11.391280759535572"><ele>275.0</ele><time>2026-03-28T12:04:14Z</time></trkpt><trkpt lat="43.163832204242404" lon="11.391319734916983"><ele>275.5</ele><time>2026-03-28T12:04:15Z</time></trkpt><trkpt lat="43.163668536012594" lon="11.391359244905452"><ele>276.0</ele><time>2026-03-28T12:04:16Z</time></trkpt><trkpt lat="43.16352369145734" lon="11.391402894691137"><ele>276.5</ele><time>2026-03-28T12:04:17Z</time></trkpt><trkpt lat="43.163395055808856" lon="11.39144038586382"><ele>277.0</ele><time>2026-03-28T12:04:18Z</time></trkpt><trkpt lat="43.163281845218386" lon="11.3914653202752"><ele>278.0</ele><time>2026-03-28T12:04:19Z</time></trkpt><trkpt lat="43.16318842148767" lon="11.391484936985895"><ele>279.0</ele><time>2026-03-28T12:04:20Z</time></trkpt><trkpt lat="43.16310213288465" lon="11.391504673411164"><ele>280.0</ele><time>2026-03-28T12:04:21Z</time></trkpt><trkpt lat="43.163013832279724" lon="11.39142972710518"><ele>281.0</ele><time>2026-03-28T12:04:23Z</time></trkpt><trkpt lat="43.163108333562135" lon="11.391311957202454"><ele>282.0</ele><time>2026-03-28T12:04:25Z</time></trkpt><trkpt lat="43.163138985180275" lon="11.391174663613345"><ele>282.25</ele><time>2026-03-28T12:04:27Z</time></trkpt><trkpt lat="43.16311999408775" lon="11.391048054912385"><ele>282.5</ele><time>2026-03-28T12:04:29Z</time></trkpt><trkpt lat="43.16294969632493" lon="11.390987772871501"><ele>282.75</ele><time>2026-03-28T12:04:31Z</time></trkpt><trkpt lat="43.16285538929994" lon="11.39092545036208"><ele>283.0</ele><time>2026-03-28T12:04:32Z</time></trkpt><trkpt lat="43.1627655254041" lon="11.390868523490498"><ele>283.0</ele><time>2026-03-28T12:04:33Z</time></trkpt><trkpt lat="43.16269345465716" lon="11.390808576666716"><ele>283.0</ele><time>2026-03-28T12:04:34Z</time></trkpt><trkpt lat="43.16262293614571" lon="11.390742590574447"><ele>283.0</ele><time>2026-03-28T12:04:35Z</time></trkpt><trkpt lat="43.16255194251653" lon="11.390673393301052"><ele>283.0</ele><time>2026-03-28T12:04:36Z</time></trkpt><trkpt lat="43.1624653842505" lon="11.39058668274352"><ele>283.0</ele><time>2026-03-28T12:04:37Z</time></trkpt><trkpt lat="43.162371422274845" lon="11.390488778227017"><ele>283.25</ele><time>2026-03-28T12:04:38Z</time></trkpt><trkpt lat="43.16227643255503" lon="11.390383010709558"><ele>283.5</ele><time>2026-03-28T12:04:39Z</time></trkpt><trkpt lat="43.16219239665152" lon="11.390263709989856"><ele>283.75</ele><time>2026-03-28T12:04:40Z</time></trkpt><trkpt lat="43.162113794173415" lon="11.39014450404425"><ele>284.0</ele><time>2026-03-28T12:04:41Z</time></trkpt><trkpt lat="43.162043332351075" lon="11.390035128058466"><ele>284.0</ele><time>2026-03-28T12:04:42Z</time></trkpt><trkpt lat="43.16197294770491" lon="11.389935664674208"><ele>284.0</ele><time>2026-03-28T12:04:43Z</time></trkpt><trkpt lat="43.16189178132128" lon="11.389837951712693"><ele>284.0</ele><time>2026-03-28T12:04:44Z</time></trkpt><trkpt lat="43.16180078390967" lon="11.389775282291493"><ele>284.0</ele><time>2026-03-28T12:04:45Z</time></trkpt><trkpt lat="43.161727626255185" lon="11.389705120432163"><ele>284.0</ele><time>2026-03-28T12:04:46Z</time></trkpt><trkpt lat="43.16168551653829" lon="11.389608039043388"><ele>284.33333333333337</ele><time>2026-03-28T12:04:47Z</time></trkpt><trkpt lat="43.161647484061056" lon="11.389521163203357"><ele>284.6666666666667</ele><time>2026-03-28T12:04:48Z</time></trkpt><trkpt lat="43.16163258611743" lon="11.389426678028162"><ele>285.0</ele><time>2026-03-28T12:04:49Z</time></trkpt><trkpt lat="43.161642744010464" lon="11.389331172509255"><ele>285.3333333333333</ele><time>2026-03-28T12:04:50Z</time></trkpt><trkpt lat="43.16165589380425" lon="11.389212437032846"><ele>285.66666666666663</ele><time>2026-03-28T12:04:51Z</time></trkpt><trkpt lat="43.161686266797176" lon="11.389081287317737"><ele>286.0</ele><time>2026-03-28T12:04:52Z</time></trkpt><trkpt lat="43.1616967647494" lon="11.38895617456172"><ele>286.0</ele><time>2026-03-28T12:04:53Z</time></trkpt><trkpt lat="43.161702543496716" lon="11.388858819648362"><ele>286.0</ele><time>2026-03-28T12:04:54Z</time></trkpt><trkpt lat="43.16167054935451" lon="11.388779545255458"><ele>286.0</ele><time>2026-03-28T12:04:55Z</time></trkpt><trkpt lat="43.16166482679091" lon="11.388689941429638"><ele>286.0</ele><time>2026-03-28T12:04:56Z</time></trkpt><trkpt lat="43.161642509811415" lon="11.388584586802937"><ele>286.0</ele><time>2026-03-28T12:04:57Z</time></trkpt><trkpt lat="43.16161799894129" lon="11.388455165018847"><ele>286.0</ele><time>2026-03-28T12:04:58Z</time></trkpt><trkpt lat="43.161594798638426" lon="11.388328242285905"><ele>287.0</ele><time>2026-03-28T12:04:59Z</time></trkpt><trkpt lat="43.161575832836164" lon="11.388224485339618"><ele>288.0</ele><time>2026-03-28T12:05:00Z</time></trkpt><trkpt lat="43.16155345549227" lon="11.38810206472732"><ele>289.0</ele><time>2026-03-28T12:05:01Z</time></trkpt><trkpt lat="43.16151476427993" lon="11.387979412478405"><ele>290.0</ele><time>2026-03-28T12:05:02Z</time></trkpt><trkpt lat="43.16150321041829" lon="11.387857900039918"><ele>291.0</ele><time>2026-03-28T12:05:03Z</time></trkpt><trkpt lat="43.161494357723264" lon="11.38775257191932"><ele>292.0</ele><time>2026-03-28T12:05:04Z</time></trkpt><trkpt lat="43.16146203283647" lon="11.387660805927636"><ele>295.6</ele><time>2026-03-28T12:05:05Z</time></trkpt><trkpt lat="43.16144177086958" lon="11.387570518855094"><ele>299.2</ele><time>2026-03-28T12:05:06Z</time></trkpt><trkpt lat="43.16139277025845" lon="11.387432633345375"><ele>302.8</ele><time>2026-03-28T12:05:08Z</time></trkpt><trkpt lat="43.1613317687339" lon="11.387343603353338"><ele>306.4</ele><time>2026-03-28T12:05:10Z</time></trkpt><trkpt lat="43.161233498315276" lon="11.38729949020151"><ele>310.0</ele><time>2026-03-28T12:05:12Z</time></trkpt><trkpt lat="43.1611136223687" lon="11.387281846639645"><ele>310.0</ele><time>2026-03-28T12:05:14Z</time></trkpt><trkpt lat="43.161047088104695" lon="11.38728666835611"><ele>310.0</ele><time>2026-03-28T12:05:15Z</time></trkpt><trkpt lat="43.160967454772646" lon="11.387304518319947"><ele>310.0</ele><time>2026-03-28T12:05:16Z</time></trkpt><trkpt lat="43.16088399600792" lon="11.387326360508961"><ele>310.0</ele><time>2026-03-28T12:05:17Z</time></trkpt><trkpt lat="43.160801003453706" lon="11.387326429079375"><ele>310.0</ele><time>2026-03-28T12:05:18Z</time></trkpt><trkpt lat="43.16073747579534" lon="11.38736845951196"><ele>310.0</ele><time>2026-03-28T12:05:19Z</time></trkpt><trkpt lat="43.16064502264434" lon="11.387376096389358"><ele>308.5</ele><time>2026-03-28T12:05:21Z</time></trkpt><trkpt lat="43.16057562663048" lon="11.387409134918846"><ele>307.0</ele><time>2026-03-28T12:05:24.001Z</time></trkpt><trkpt lat="43.16049429174313" lon="11.38743826621225"><ele>305.5</ele><time>2026-03-28T12:05:26.001Z</time></trkpt><trkpt lat="43.160424951728125" lon="11.387466734074833"><ele>304.0</ele><time>2026-03-28T12:05:27.001Z</time></trkpt><trkpt lat="43.16035182696683" lon="11.387517238042186"><ele>302.5</ele><time>2026-03-28T12:05:28.001Z</time></trkpt><trkpt lat="43.16027394442595" lon="11.387579055208866"><ele>301.0</ele><time>2026-03-28T12:05:29.001Z</time></trkpt><trkpt lat="43.16019347418362" lon="11.387652547514191"><ele>301.0</ele><time>2026-03-28T12:05:30.001Z</time></trkpt><trkpt lat="43.16012168767314" lon="11.387745624205404"><ele>301.0</ele><time>2026-03-28T12:05:31.001Z</time></trkpt><trkpt lat="43.160055660889746" lon="11.38783852290066"><ele>301.0</ele><time>2026-03-28T12:05:32.001Z</time></trkpt><trkpt lat="43.15999290689287" lon="11.387924718251883"><ele>301.0</ele><time>2026-03-28T12:05:33.001Z</time></trkpt><trkpt lat="43.15995344083076" lon="11.387996472141303"><ele>301.0</ele><time>2026-03-28T12:05:34.001Z</time></trkpt><trkpt lat="43.15990972790232" lon="11.388066552181314"><ele>301.0</ele><time>2026-03-28T12:05:35.001Z</time></trkpt><trkpt lat="43.15989018880749" lon="11.388161901263528"><ele>300.2</ele><time>2026-03-28T12:05:36.001Z</time></trkpt><trkpt lat="43.159831567421904" lon="11.38825631361279"><ele>299.40000000000003</ele><time>2026-03-28T12:05:37.001Z</time></trkpt><trkpt lat="43.15979669207448" lon="11.388380106857662"><ele>298.6</ele><time>2026-03-28T12:05:38.001Z</time></trkpt><trkpt lat="43.15975781833475" lon="11.388518029190033"><ele>297.8</ele><time>2026-03-28T12:05:39.001Z</time></trkpt><trkpt lat="43.15972389551784" lon="11.388653629423546"><ele>297.0</ele><time>2026-03-28T12:05:40.001Z</time></trkpt><trkpt lat="43.1596918118739" lon="11.38878565521811"><ele>295.8</ele><time>2026-03-28T12:05:41.001Z</time></trkpt><trkpt lat="43.15966521064774" lon="11.388916269402229"><ele>294.6</ele><time>2026-03-28T12:05:42.001Z</time></trkpt><trkpt lat="43.159651119681776" lon="11.389043892120746"><ele>293.40000000000003</ele><time>2026-03-28T12:05:43.001Z</time></trkpt><trkpt lat="43.15966319918179" lon="11.389176725945937"><ele>292.2</ele><time>2026-03-28T12:05:44.001Z</time></trkpt><trkpt lat="43.1597221674003" lon="11.3893121717589"><ele>291.0</ele><time>2026-03-28T12:05:45.001Z</time></trkpt><trkpt lat="43.159810215739135" lon="11.389421821698402"><ele>291.0</ele><time>2026-03-28T12:05:46.001Z</time></trkpt><trkpt lat="43.15992652052587" lon="11.389517776244258"><ele>291.0</ele><time>2026-03-28T12:05:47.001Z</time></trkpt><trkpt lat="43.16005381623325" lon="11.389625732950726"><ele>291.0</ele><time>2026-03-28T12:05:48.001Z</time></trkpt><trkpt lat="43.16019125562158" lon="11.389751034968322"><ele>289.0</ele><time>2026-03-28T12:05:49.001Z</time></trkpt><trkpt lat="43.16032429756098" lon="11.38988951854141"><ele>287.0</ele><time>2026-03-28T12:05:50.001Z</time></trkpt><trkpt lat="43.16045660438725" lon="11.389987708510118"><ele>285.0</ele><time>2026-03-28T12:05:51.001Z</time></trkpt><trkpt lat="43.16057910802168" lon="11.390084478145681"><ele>285.0</ele><time>2026-03-28T12:05:52.001Z</time></trkpt><trkpt lat="43.16069813643709" lon="11.39017686359344"><ele>285.0</ele><time>2026-03-28T12:05:53.001Z</time></trkpt><trkpt lat="43.16081641233463" lon="11.390276095969876"><ele>285.0</ele><time>2026-03-28T12:05:54.001Z</time></trkpt><trkpt lat="43.1609230045031" lon="11.390377366196995"><ele>285.0</ele><time>2026-03-28T12:05:54.999Z</time></trkpt><trkpt lat="43.16103197529555" lon="11.39049164337222"><ele>284.75</ele><time>2026-03-28T12:05:55.999Z</time></trkpt><trkpt lat="43.16114980802146" lon="11.390619127225609"><ele>284.5</ele><time>2026-03-28T12:05:56.999Z</time></trkpt><trkpt lat="43.16125887308974" lon="11.390755316412568"><ele>284.25</ele><time>2026-03-28T12:05:57.999Z</time></trkpt><trkpt lat="43.16135145026353" lon="11.39088140972764"><ele>284.0</ele><time>2026-03-28T12:05:58.999Z</time></trkpt><trkpt lat="43.161428207362476" lon="11.390996752072702"><ele>284.0</ele><time>2026-03-28T12:05:59.999Z</time></trkpt><trkpt lat="43.16150254618674" lon="11.391114804392888"><ele>284.0</ele><time>2026-03-28T12:06:00.999Z</time></trkpt><trkpt lat="43.16156800946644" lon="11.391232288867881"><ele>284.0</ele><time>2026-03-28T12:06:01.999Z</time></trkpt><trkpt lat="43.161623708384106" lon="11.391335862957963"><ele>284.0</ele><time>2026-03-28T12:06:02.999Z</time></trkpt><trkpt lat="43.16167261622999" lon="11.391427638981366"><ele>284.0</ele><time>2026-03-28T12:06:03.999Z</time></trkpt><trkpt lat="43.16171978451007" lon="11.391521358912263"><ele>284.4</ele><time>2026-03-28T12:06:04.999Z</time></trkpt><trkpt lat="43.16175472876835" lon="11.39160809491995"><ele>284.79999999999995</ele><time>2026-03-28T12:06:05.999Z</time></trkpt><trkpt lat="43.16178634244323" lon="11.391743220376146"><ele>285.20000000000005</ele><time>2026-03-28T12:06:07.999Z</time></trkpt><trkpt lat="43.16174322359035" lon="11.391908936055756"><ele>285.6</ele><time>2026-03-28T12:06:10.999Z</time></trkpt><trkpt lat="43.161701294354486" lon="11.39206382263082"><ele>286.0</ele><time>2026-03-28T12:06:12.999Z</time></trkpt><trkpt lat="43.161653666696026" lon="11.39221056809669"><ele>284.66666666666663</ele><time>2026-03-28T12:06:13.999Z</time></trkpt><trkpt lat="43.161590873560364" lon="11.392418406683165"><ele>283.3333333333333</ele><time>2026-03-28T12:06:15Z</time></trkpt><trkpt lat="43.16152358169045" lon="11.392647410469705"><ele>282.0</ele><time>2026-03-28T12:06:16Z</time></trkpt><trkpt lat="43.16144450250192" lon="11.392828525463967"><ele>281.0</ele><time>2026-03-28T12:06:17Z</time></trkpt><trkpt lat="43.16134425122287" lon="11.392966169681923"><ele>280.0</ele><time>2026-03-28T12:06:18Z</time></trkpt><trkpt lat="43.16121237501155" lon="11.393067824422504"><ele>279.0</ele><time>2026-03-28T12:06:19Z</time></trkpt><trkpt lat="43.16104449177157" lon="11.393154382403647"><ele>279.0</ele><time>2026-03-28T12:06:20Z</time></trkpt><trkpt lat="43.16084543059617" lon="11.39324090315219"><ele>279.0</ele><time>2026-03-28T12:06:21Z</time></trkpt><trkpt lat="43.16063765896611" lon="11.393320523186667"><ele>279.0</ele><time>2026-03-28T12:06:22Z</time></trkpt><trkpt lat="43.1604561956471" lon="11.393386417406244"><ele>278.3333333333333</ele><time>2026-03-28T12:06:23Z</time></trkpt><trkpt lat="43.16029331290486" lon="11.393454402926212"><ele>277.66666666666663</ele><time>2026-03-28T12:06:24Z</time></trkpt><trkpt lat="43.16013651906019" lon="11.39352281125536"><ele>277.0</ele><time>2026-03-28T12:06:25Z</time></trkpt><trkpt lat="43.159977131285856" lon="11.393596272804567"><ele>276.66666666666663</ele><time>2026-03-28T12:06:26Z</time></trkpt><trkpt lat="43.15982144164223" lon="11.393675406951113"><ele>276.3333333333333</ele><time>2026-03-28T12:06:27Z</time></trkpt><trkpt lat="43.15968001323794" lon="11.393763372213758"><ele>276.0</ele><time>2026-03-28T12:06:28Z</time></trkpt><trkpt lat="43.15954896400951" lon="11.393862466417897"><ele>276.0</ele><time>2026-03-28T12:06:29Z</time></trkpt><trkpt lat="43.15941824575953" lon="11.393979421316379"><ele>276.0</ele><time>2026-03-28T12:06:30Z</time></trkpt><trkpt lat="43.15928760734144" lon="11.394123689623083"><ele>276.0</ele><time>2026-03-28T12:06:31Z</time></trkpt><trkpt lat="43.15915262186544" lon="11.394286127723564"><ele>277.0</ele><time>2026-03-28T12:06:32Z</time></trkpt><trkpt lat="43.15902376824431" lon="11.39446745879816"><ele>278.0</ele><time>2026-03-28T12:06:33Z</time></trkpt><trkpt lat="43.158913769003405" lon="11.39465305557702"><ele>279.0</ele><time>2026-03-28T12:06:34Z</time></trkpt><trkpt lat="43.15882944658929" lon="11.394836376754661"><ele>279.0</ele><time>2026-03-28T12:06:35Z</time></trkpt><trkpt lat="43.158762755969875" lon="11.395034165797938"><ele>279.0</ele><time>2026-03-28T12:06:36Z</time></trkpt><trkpt lat="43.15871734373095" lon="11.395265763272075"><ele>279.0</ele><time>2026-03-28T12:06:37Z</time></trkpt><trkpt lat="43.15868649567646" lon="11.39552644380434"><ele>279.0</ele><time>2026-03-28T12:06:38Z</time></trkpt><trkpt lat="43.1586759576364" lon="11.395812878464827"><ele>279.0</ele><time>2026-03-28T12:06:39Z</time></trkpt><trkpt lat="43.15867218570268" lon="11.396136337593788"><ele>279.0</ele><time>2026-03-28T12:06:40Z</time></trkpt><trkpt lat="43.15867043702557" lon="11.396468841415265"><ele>279.3333333333333</ele><time>2026-03-28T12:06:41Z</time></trkpt><trkpt lat="43.15866499885187" lon="11.396778227534487"><ele>279.66666666666663</ele><time>2026-03-28T12:06:42Z</time></trkpt><trkpt lat="43.158657363890946" lon="11.397081485837642"><ele>280.0</ele><time>2026-03-28T12:06:43Z</time></trkpt><trkpt lat="43.15865559382222" lon="11.397364476157103"><ele>280.0</ele><time>2026-03-28T12:06:44Z</time></trkpt><trkpt lat="43.158665273568566" lon="11.397630571712401"><ele>280.0</ele><time>2026-03-28T12:06:45Z</time></trkpt><trkpt lat="43.158692086728585" lon="11.397896938836283"><ele>280.0</ele><time>2026-03-28T12:06:46Z</time></trkpt><trkpt lat="43.15873876148864" lon="11.398159974016814"><ele>280.66666666666663</ele><time>2026-03-28T12:06:47Z</time></trkpt><trkpt lat="43.15879783858818" lon="11.398409405007042"><ele>281.3333333333333</ele><time>2026-03-28T12:06:48Z</time></trkpt><trkpt lat="43.15885511825379" lon="11.398637965400713"><ele>282.0</ele><time>2026-03-28T12:06:49Z</time></trkpt><trkpt lat="43.15890344839614" lon="11.398848482341899"><ele>282.5</ele><time>2026-03-28T12:06:50Z</time></trkpt><trkpt lat="43.15891209302718" lon="11.399053339801387"><ele>283.0</ele><time>2026-03-28T12:06:51Z</time></trkpt><trkpt lat="43.15891304845764" lon="11.3992518896342"><ele>283.5</ele><time>2026-03-28T12:06:52Z</time></trkpt><trkpt lat="43.158886618863434" lon="11.399426091423084"><ele>284.0</ele><time>2026-03-28T12:06:53Z</time></trkpt><trkpt lat="43.158808216464244" lon="11.399548981194485"><ele>284.0</ele><time>2026-03-28T12:06:54Z</time></trkpt><trkpt lat="43.158702565656014" lon="11.399622885734212"><ele>284.0</ele><time>2026-03-28T12:06:55Z</time></trkpt><trkpt lat="43.1585734510418" lon="11.399658931998257"><ele>284.0</ele><time>2026-03-28T12:06:56Z</time></trkpt><trkpt lat="43.158443008281445" lon="11.399639118436147"><ele>284.0</ele><time>2026-03-28T12:06:57Z</time></trkpt><trkpt lat="43.15832068557123" lon="11.399613188669166"><ele>285.5</ele><time>2026-03-28T12:06:58Z</time></trkpt><trkpt lat="43.158186145305464" lon="11.39959449437839"><ele>287.0</ele><time>2026-03-28T12:06:59Z</time></trkpt><trkpt lat="43.158046228322895" lon="11.399643164195778"><ele>288.5</ele><time>2026-03-28T12:07:00Z</time></trkpt><trkpt lat="43.15788873882141" lon="11.39970071994422"><ele>290.0</ele><time>2026-03-28T12:07:01Z</time></trkpt><trkpt lat="43.157733381983526" lon="11.399818774009919"><ele>290.0</ele><time>2026-03-28T12:07:02Z</time></trkpt><trkpt lat="43.157596846130524" lon="11.399961313475803"><ele>290.0</ele><time>2026-03-28T12:07:03Z</time></trkpt><trkpt lat="43.15745495221464" lon="11.400091411594483"><ele>290.0</ele><time>2026-03-28T12:07:04Z</time></trkpt><trkpt lat="43.15730941291873" lon="11.400182243912424"><ele>291.33333333333337</ele><time>2026-03-28T12:07:05Z</time></trkpt><trkpt lat="43.157156079654904" lon="11.40018575080792"><ele>292.6666666666667</ele><time>2026-03-28T12:07:06Z</time></trkpt><trkpt lat="43.15700827832016" lon="11.400136983402255"><ele>294.0</ele><time>2026-03-28T12:07:07Z</time></trkpt><trkpt lat="43.15685338597531" lon="11.400079231593258"><ele>294.0</ele><time>2026-03-28T12:07:08Z</time></trkpt><trkpt lat="43.156698874389086" lon="11.400018056089639"><ele>294.0</ele><time>2026-03-28T12:07:09Z</time></trkpt><trkpt lat="43.15656359926264" lon="11.3999900291295"><ele>294.0</ele><time>2026-03-28T12:07:10Z</time></trkpt><trkpt lat="43.15645137778564" lon="11.399961684585834"><ele>294.0</ele><time>2026-03-28T12:07:11Z</time></trkpt><trkpt lat="43.15635361130338" lon="11.399992067705542"><ele>297.25</ele><time>2026-03-28T12:07:12Z</time></trkpt><trkpt lat="43.156276702870066" lon="11.400076823931002"><ele>300.5</ele><time>2026-03-28T12:07:13Z</time></trkpt><trkpt lat="43.156229812033644" lon="11.400207634186172"><ele>303.75</ele><time>2026-03-28T12:07:14Z</time></trkpt><trkpt lat="43.156219933006824" lon="11.400375768632932"><ele>307.0</ele><time>2026-03-28T12:07:15Z</time></trkpt><trkpt lat="43.15626044227167" lon="11.400548580622697"><ele>307.3333333333333</ele><time>2026-03-28T12:07:16Z</time></trkpt><trkpt lat="43.15634076029197" lon="11.400731152605582"><ele>307.6666666666667</ele><time>2026-03-28T12:07:17Z</time></trkpt><trkpt lat="43.15645749628468" lon="11.400945162497468"><ele>308.0</ele><time>2026-03-28T12:07:18Z</time></trkpt><trkpt lat="43.15656306205176" lon="11.401181969527835"><ele>302.25</ele><time>2026-03-28T12:07:19Z</time></trkpt><trkpt lat="43.15664341842619" lon="11.401386353288549"><ele>296.5</ele><time>2026-03-28T12:07:20.001Z</time></trkpt><trkpt lat="43.15669514226253" lon="11.40156273439461"><ele>290.75</ele><time>2026-03-28T12:07:21.001Z</time></trkpt><trkpt lat="43.15669292158113" lon="11.401741377863267"><ele>285.0</ele><time>2026-03-28T12:07:22.001Z</time></trkpt><trkpt lat="43.156661323681746" lon="11.40196700883398"><ele>284.0</ele><time>2026-03-28T12:07:23.001Z</time></trkpt><trkpt lat="43.15661116129694" lon="11.402257559375954"><ele>283.0</ele><time>2026-03-28T12:07:24.001Z</time></trkpt><trkpt lat="43.15655185509419" lon="11.402600546980306"><ele>290.5</ele><time>2026-03-28T12:07:25.001Z</time></trkpt><trkpt lat="43.15650622897223" lon="11.40296547889213"><ele>298.0</ele><time>2026-03-28T12:07:26.001Z</time></trkpt><trkpt lat="43.15645275192176" lon="11.403271750450758"><ele>298.0</ele><time>2026-03-28T12:07:27.001Z</time></trkpt><trkpt lat="43.156443670729615" lon="11.403568508347902"><ele>298.0</ele><time>2026-03-28T12:07:28.001Z</time></trkpt><trkpt lat="43.15642228835723" lon="11.403837054738167"><ele>298.0</ele><time>2026-03-28T12:07:29.001Z</time></trkpt><trkpt lat="43.1564050416628" lon="11.404079664898731"><ele>296.0</ele><time>2026-03-28T12:07:30.001Z</time></trkpt><trkpt lat="43.1563683466739" lon="11.404292038169547"><ele>294.0</ele><time>2026-03-28T12:07:31.001Z</time></trkpt><trkpt lat="43.15629345206796" lon="11.404470956560543"><ele>292.0</ele><time>2026-03-28T12:07:32.001Z</time></trkpt><trkpt lat="43.156183554807676" lon="11.404627846106127"><ele>286.3333333333333</ele><time>2026-03-28T12:07:33.001Z</time></trkpt><trkpt lat="43.156010413056826" lon="11.404680147848111"><ele>280.6666666666667</ele><time>2026-03-28T12:07:34.001Z</time></trkpt><trkpt lat="43.15586887724334" lon="11.404788221324845"><ele>275.0</ele><time>2026-03-28T12:07:35.001Z</time></trkpt><trkpt lat="43.155730111141665" lon="11.404863706981935"><ele>278.33333333333337</ele><time>2026-03-28T12:07:36.001Z</time></trkpt><trkpt lat="43.155566586673785" lon="11.404884337837661"><ele>281.6666666666667</ele><time>2026-03-28T12:07:37.001Z</time></trkpt><trkpt lat="43.15536053616248" lon="11.40490334751953"><ele>285.0</ele><time>2026-03-28T12:07:38.001Z</time></trkpt><trkpt lat="43.15513441166135" lon="11.404974313326466"><ele>285.0</ele><time>2026-03-28T12:07:39.001Z</time></trkpt><trkpt lat="43.15491758846824" lon="11.405085685626904"><ele>285.0</ele><time>2026-03-28T12:07:40.001Z</time></trkpt><trkpt lat="43.15468180662257" lon="11.405179525677081"><ele>283.0</ele><time>2026-03-28T12:07:41.001Z</time></trkpt><trkpt lat="43.15448547262765" lon="11.405293756073728"><ele>281.0</ele><time>2026-03-28T12:07:42.001Z</time></trkpt><trkpt lat="43.15429184427473" lon="11.405377565257446"><ele>279.0</ele><time>2026-03-28T12:07:43.001Z</time></trkpt><trkpt lat="43.15413925678732" lon="11.405510896053942"><ele>281.3333333333333</ele><time>2026-03-28T12:07:44.001Z</time></trkpt><trkpt lat="43.15398407712661" lon="11.405618739991397"><ele>283.66666666666663</ele><time>2026-03-28T12:07:45.001Z</time></trkpt><trkpt lat="43.153804670427704" lon="11.40567313491301"><ele>286.0</ele><time>2026-03-28T12:07:46.001Z</time></trkpt><trkpt lat="43.15361393623635" lon="11.405683275183117"><ele>286.0</ele><time>2026-03-28T12:07:47.001Z</time></trkpt><trkpt lat="43.15343910111605" lon="11.405686843061826"><ele>286.0</ele><time>2026-03-28T12:07:48.001Z</time></trkpt><trkpt lat="43.15328168123551" lon="11.405743246525361"><ele>286.0</ele><time>2026-03-28T12:07:49.001Z</time></trkpt><trkpt lat="43.15312932930323" lon="11.405860660838945"><ele>285.0</ele><time>2026-03-28T12:07:50.001Z</time></trkpt><trkpt lat="43.15297165747355" lon="11.40602863872877"><ele>284.0</ele><time>2026-03-28T12:07:51.001Z</time></trkpt><trkpt lat="43.15281694828957" lon="11.406225528938355"><ele>283.0</ele><time>2026-03-28T12:07:52.001Z</time></trkpt><trkpt lat="43.15266023490985" lon="11.40634505103545"><ele>283.0</ele><time>2026-03-28T12:07:53.001Z</time></trkpt><trkpt lat="43.15249183184542" lon="11.406455789585292"><ele>283.0</ele><time>2026-03-28T12:07:54.001Z</time></trkpt><trkpt lat="43.15232009405591" lon="11.406537693002615"><ele>283.0</ele><time>2026-03-28T12:07:55.001Z</time></trkpt><trkpt lat="43.15214353605211" lon="11.406587107800362"><ele>283.0</ele><time>2026-03-28T12:07:56.001Z</time></trkpt><trkpt lat="43.15195537329483" lon="11.406610531111586"><ele>283.0</ele><time>2026-03-28T12:07:57.001Z</time></trkpt><trkpt lat="43.15174356981225" lon="11.406613851384266"><ele>283.0</ele><time>2026-03-28T12:07:58.001Z</time></trkpt><trkpt lat="43.151540939140695" lon="11.406629947050083"><ele>284.0</ele><time>2026-03-28T12:07:59.001Z</time></trkpt><trkpt lat="43.15135463395796" lon="11.406666726030965"><ele>285.0</ele><time>2026-03-28T12:08:00.001Z</time></trkpt><trkpt lat="43.15117842573622" lon="11.406731593669976"><ele>286.0</ele><time>2026-03-28T12:08:01Z</time></trkpt><trkpt lat="43.15099765498408" lon="11.406786931254606"><ele>286.0</ele><time>2026-03-28T12:08:01.999Z</time></trkpt><trkpt lat="43.150811811130446" lon="11.406810356177237"><ele>286.0</ele><time>2026-03-28T12:08:03Z</time></trkpt><trkpt lat="43.15062488888126" lon="11.40680309145036"><ele>286.0</ele><time>2026-03-28T12:08:04Z</time></trkpt><trkpt lat="43.15044745477744" lon="11.406761581759536"><ele>284.3333333333333</ele><time>2026-03-28T12:08:05Z</time></trkpt><trkpt lat="43.15028917750427" lon="11.406701527256761"><ele>282.6666666666667</ele><time>2026-03-28T12:08:06Z</time></trkpt><trkpt lat="43.15015284590453" lon="11.406606320934555"><ele>281.0</ele><time>2026-03-28T12:08:07Z</time></trkpt><trkpt lat="43.15005060393484" lon="11.406477377274534"><ele>281.0</ele><time>2026-03-28T12:08:08Z</time></trkpt><trkpt lat="43.14995164620069" lon="11.406348318265179"><ele>281.0</ele><time>2026-03-28T12:08:09Z</time></trkpt><trkpt lat="43.14986478676092" lon="11.40622157645495"><ele>281.0</ele><time>2026-03-28T12:08:10Z</time></trkpt><trkpt lat="43.149750080486406" lon="11.406156505520165"><ele>281.0</ele><time>2026-03-28T12:08:11Z</time></trkpt><trkpt lat="43.1496242274534" lon="11.406142787369928"><ele>282.33333333333337</ele><time>2026-03-28T12:08:12Z</time></trkpt><trkpt lat="43.149494174537224" lon="11.406218878723722"><ele>283.6666666666667</ele><time>2026-03-28T12:08:13Z</time></trkpt><trkpt lat="43.14937447629727" lon="11.406344124237638"><ele>285.0</ele><time>2026-03-28T12:08:14Z</time></trkpt><trkpt lat="43.14926687806012" lon="11.406510953553946"><ele>285.0</ele><time>2026-03-28T12:08:15Z</time></trkpt><trkpt lat="43.14916409441313" lon="11.406657511937366"><ele>285.0</ele><time>2026-03-28T12:08:16Z</time></trkpt><trkpt lat="43.14904710950518" lon="11.406732902811244"><ele>285.0</ele><time>2026-03-28T12:08:17Z</time></trkpt><trkpt lat="43.148899769231924" lon="11.406732840641135"><ele>285.0</ele><time>2026-03-28T12:08:18Z</time></trkpt><trkpt lat="43.148742437951974" lon="11.40675763763893"><ele>286.0</ele><time>2026-03-28T12:08:19Z</time></trkpt><trkpt lat="43.14859326154494" lon="11.40678867171577"><ele>287.0</ele><time>2026-03-28T12:08:20Z</time></trkpt><trkpt lat="43.148464434387684" lon="11.406870994212568"><ele>288.0</ele><time>2026-03-28T12:08:21Z</time></trkpt><trkpt lat="43.148349986610945" lon="11.407008425376292"><ele>289.0</ele><time>2026-03-28T12:08:22Z</time></trkpt><trkpt lat="43.14824596763599" lon="11.407223730841887"><ele>290.0</ele><time>2026-03-28T12:08:23Z</time></trkpt><trkpt lat="43.14814672316262" lon="11.407476765356774"><ele>291.0</ele><time>2026-03-28T12:08:24Z</time></trkpt><trkpt lat="43.148055621722925" lon="11.407695646641514"><ele>292.0</ele><time>2026-03-28T12:08:25Z</time></trkpt><trkpt lat="43.1479710160215" lon="11.407888066523338"><ele>290.0</ele><time>2026-03-28T12:08:26Z</time></trkpt><trkpt lat="43.14791065751985" lon="11.408079039864596"><ele>288.0</ele><time>2026-03-28T12:08:27Z</time></trkpt><trkpt lat="43.147873903615555" lon="11.40832224481111"><ele>286.0</ele><time>2026-03-28T12:08:28Z</time></trkpt><trkpt lat="43.14785357809806" lon="11.408626765235198"><ele>284.0</ele><time>2026-03-28T12:08:29Z</time></trkpt><trkpt lat="43.14782218285884" lon="11.408939139651944"><ele>282.0</ele><time>2026-03-28T12:08:30Z</time></trkpt><trkpt lat="43.14779057097672" lon="11.409220777148894"><ele>280.0</ele><time>2026-03-28T12:08:31Z</time></trkpt><trkpt lat="43.147754967468664" lon="11.409479528374314"><ele>277.66666666666663</ele><time>2026-03-28T12:08:32Z</time></trkpt><trkpt lat="43.14771390638295" lon="11.40972036352508"><ele>275.3333333333333</ele><time>2026-03-28T12:08:33Z</time></trkpt><trkpt lat="43.14767343897681" lon="11.409931697016324"><ele>273.0</ele><time>2026-03-28T12:08:34Z</time></trkpt><trkpt lat="43.147632169314036" lon="11.410119231683959"><ele>273.0</ele><time>2026-03-28T12:08:35Z</time></trkpt><trkpt lat="43.14755083036892" lon="11.410275135111032"><ele>273.0</ele><time>2026-03-28T12:08:36Z</time></trkpt><trkpt lat="43.14746932185167" lon="11.410436961750612"><ele>273.0</ele><time>2026-03-28T12:08:37Z</time></trkpt><trkpt lat="43.147346384801324" lon="11.410562285999982"><ele>273.0</ele><time>2026-03-28T12:08:38Z</time></trkpt><trkpt lat="43.14719358872144" lon="11.410642108647052"><ele>270.6666666666667</ele><time>2026-03-28T12:08:39Z</time></trkpt><trkpt lat="43.1470205170024" lon="11.410755551887993"><ele>268.33333333333337</ele><time>2026-03-28T12:08:40Z</time></trkpt><trkpt lat="43.14686228101771" lon="11.41085624708138"><ele>266.0</ele><time>2026-03-28T12:08:41Z</time></trkpt><trkpt lat="43.14672497665564" lon="11.410985642953568"><ele>266.0</ele><time>2026-03-28T12:08:42Z</time></trkpt><trkpt lat="43.14659317813606" lon="11.41116980833005"><ele>266.0</ele><time>2026-03-28T12:08:43Z</time></trkpt><trkpt lat="43.146455504252" lon="11.411398797309253"><ele>266.0</ele><time>2026-03-28T12:08:44Z</time></trkpt><trkpt lat="43.14632761641383" lon="11.411620750191014"><ele>264.33333333333337</ele><time>2026-03-28T12:08:45Z</time></trkpt><trkpt lat="43.14620860153266" lon="11.411817207961436"><ele>262.6666666666667</ele><time>2026-03-28T12:08:46Z</time></trkpt><trkpt lat="43.14609979124521" lon="11.412004639974722"><ele>261.0</ele><time>2026-03-28T12:08:47Z</time></trkpt><trkpt lat="43.146007414411216" lon="11.412207899571849"><ele>258.3333333333333</ele><time>2026-03-28T12:08:48Z</time></trkpt><trkpt lat="43.14593008337728" lon="11.412447483066048"><ele>255.66666666666666</ele><time>2026-03-28T12:08:49Z</time></trkpt><trkpt lat="43.14587552660036" lon="11.412692143652148"><ele>253.0</ele><time>2026-03-28T12:08:50Z</time></trkpt><trkpt lat="43.145834776226884" lon="11.41292036536192"><ele>252.66666666666666</ele><time>2026-03-28T12:08:51Z</time></trkpt><trkpt lat="43.14579064937819" lon="11.413133711867541"><ele>252.33333333333331</ele><time>2026-03-28T12:08:52Z</time></trkpt><trkpt lat="43.14571607763981" lon="11.413334034568049"><ele>252.0</ele><time>2026-03-28T12:08:53Z</time></trkpt><trkpt lat="43.14561010798429" lon="11.413539513434547"><ele>250.0</ele><time>2026-03-28T12:08:54Z</time></trkpt><trkpt lat="43.145476278042665" lon="11.41371736596773"><ele>248.0</ele><time>2026-03-28T12:08:55Z</time></trkpt><trkpt lat="43.14535190804569" lon="11.413865798072626"><ele>246.0</ele><time>2026-03-28T12:08:56Z</time></trkpt><trkpt lat="43.14526330990934" lon="11.414004906052062"><ele>245.0</ele><time>2026-03-28T12:08:57Z</time></trkpt><trkpt lat="43.145211158645395" lon="11.414169848593879"><ele>244.0</ele><time>2026-03-28T12:08:58Z</time></trkpt><trkpt lat="43.14518771462705" lon="11.414364692606489"><ele>243.0</ele><time>2026-03-28T12:08:59Z</time></trkpt><trkpt lat="43.14519584820725" lon="11.414563122044312"><ele>242.0</ele><time>2026-03-28T12:09:00Z</time></trkpt><trkpt lat="43.1452438975468" lon="11.414748351548713"><ele>240.0</ele><time>2026-03-28T12:09:01Z</time></trkpt><trkpt lat="43.14533421634521" lon="11.414914889091524"><ele>238.0</ele><time>2026-03-28T12:09:02Z</time></trkpt><trkpt lat="43.14545550214834" lon="11.41506830304127"><ele>236.0</ele><time>2026-03-28T12:09:03Z</time></trkpt><trkpt lat="43.14557815042614" lon="11.415218534896152"><ele>236.0</ele><time>2026-03-28T12:09:04Z</time></trkpt><trkpt lat="43.14566879670569" lon="11.415380847506476"><ele>236.0</ele><time>2026-03-28T12:09:05Z</time></trkpt><trkpt lat="43.14573493668254" lon="11.41556372461389"><ele>236.0</ele><time>2026-03-28T12:09:06.001Z</time></trkpt><trkpt lat="43.14577498107065" lon="11.415765890502616"><ele>236.0</ele><time>2026-03-28T12:09:07.001Z</time></trkpt><trkpt lat="43.14577591419979" lon="11.415986771569468"><ele>236.0</ele><time>2026-03-28T12:09:08.001Z</time></trkpt><trkpt lat="43.14575775911601" lon="11.416227047062808"><ele>236.0</ele><time>2026-03-28T12:09:09.001Z</time></trkpt><trkpt lat="43.14574110554564" lon="11.416503807490429"><ele>231.33333333333334</ele><time>2026-03-28T12:09:10.001Z</time></trkpt><trkpt lat="43.14570334829046" lon="11.416766591878822"><ele>226.66666666666669</ele><time>2026-03-28T12:09:11.001Z</time></trkpt><trkpt lat="43.14567038216685" lon="11.417006636624606"><ele>222.0</ele><time>2026-03-28T12:09:12.001Z</time></trkpt><trkpt lat="43.145633512975635" lon="11.417247831441047"><ele>220.33333333333331</ele><time>2026-03-28T12:09:13.001Z</time></trkpt><trkpt lat="43.14556792317479" lon="11.41749470763938"><ele>218.66666666666666</ele><time>2026-03-28T12:09:14.001Z</time></trkpt><trkpt lat="43.14548293493228" lon="11.417716649048092"><ele>217.0</ele><time>2026-03-28T12:09:15.001Z</time></trkpt><trkpt lat="43.145408915011" lon="11.417935952488964"><ele>216.0</ele><time>2026-03-28T12:09:16.001Z</time></trkpt><trkpt lat="43.145356967763675" lon="11.41816280611498"><ele>215.0</ele><time>2026-03-28T12:09:17.001Z</time></trkpt><trkpt lat="43.145334616541206" lon="11.418404506102425"><ele>214.0</ele><time>2026-03-28T12:09:18.001Z</time></trkpt><trkpt lat="43.14533276020363" lon="11.418650737392209"><ele>213.66666666666666</ele><time>2026-03-28T12:09:19.001Z</time></trkpt><trkpt lat="43.14533983514395" lon="11.418879568338445"><ele>213.33333333333331</ele><time>2026-03-28T12:09:20.001Z</time></trkpt><trkpt lat="43.14533014749539" lon="11.419097827994332"><ele>213.0</ele><time>2026-03-28T12:09:21.001Z</time></trkpt><trkpt lat="43.14530663128719" lon="11.419323166569642"><ele>213.0</ele><time>2026-03-28T12:09:22.001Z</time></trkpt><trkpt lat="43.14526095211416" lon="11.419560591740515"><ele>213.0</ele><time>2026-03-28T12:09:23.001Z</time></trkpt><trkpt lat="43.14519771123721" lon="11.419774361701347"><ele>213.0</ele><time>2026-03-28T12:09:24.001Z</time></trkpt><trkpt lat="43.145151994491194" lon="11.41997959808253"><ele>212.25</ele><time>2026-03-28T12:09:25.001Z</time></trkpt><trkpt lat="43.145130492278014" lon="11.420183156393527"><ele>211.5</ele><time>2026-03-28T12:09:26.001Z</time></trkpt><trkpt lat="43.145126408984396" lon="11.420375297156095"><ele>210.75</ele><time>2026-03-28T12:09:27.001Z</time></trkpt><trkpt lat="43.145138835583396" lon="11.420560290669947"><ele>210.0</ele><time>2026-03-28T12:09:28.001Z</time></trkpt><trkpt lat="43.14515000182545" lon="11.420725538034706"><ele>209.4</ele><time>2026-03-28T12:09:29.001Z</time></trkpt><trkpt lat="43.145151585825246" lon="11.420871179243022"><ele>208.8</ele><time>2026-03-28T12:09:30.001Z</time></trkpt><trkpt lat="43.14514843508751" lon="11.42100359774371"><ele>208.2</ele><time>2026-03-28T12:09:31.001Z</time></trkpt><trkpt lat="43.1451214972637" lon="11.421121135570168"><ele>207.6</ele><time>2026-03-28T12:09:32.001Z</time></trkpt><trkpt lat="43.14509625434592" lon="11.421208882139043"><ele>207.0</ele><time>2026-03-28T12:09:33.001Z</time></trkpt><trkpt lat="43.145205541933905" lon="11.421346827467794"><ele>206.83333333333334</ele><time>2026-03-28T12:09:34.001Z</time></trkpt><trkpt lat="43.14523608816737" lon="11.421435026810315"><ele>206.66666666666669</ele><time>2026-03-28T12:09:35.001Z</time></trkpt><trkpt lat="43.145264917449055" lon="11.421526649378789"><ele>206.5</ele><time>2026-03-28T12:09:36.001Z</time></trkpt><trkpt lat="43.14529034688673" lon="11.421610400983575"><ele>206.33333333333334</ele><time>2026-03-28T12:09:37.001Z</time></trkpt><trkpt lat="43.14533654954627" lon="11.421762559985916"><ele>206.16666666666669</ele><time>2026-03-28T12:09:39.001Z</time></trkpt><trkpt lat="43.14535942943405" lon="11.42184295334408"><ele>206.0</ele><time>2026-03-28T12:09:40.001Z</time></trkpt><trkpt lat="43.14539384262259" lon="11.421939031256587"><ele>206.0</ele><time>2026-03-28T12:09:41.001Z</time></trkpt><trkpt lat="43.14543374238294" lon="11.422057378201742"><ele>206.0</ele><time>2026-03-28T12:09:42.001Z</time></trkpt><trkpt lat="43.145480473181124" lon="11.42219524200844"><ele>206.0</ele><time>2026-03-28T12:09:43.001Z</time></trkpt><trkpt lat="43.14553396128531" lon="11.422352996533329"><ele>206.0</ele><time>2026-03-28T12:09:44.001Z</time></trkpt><trkpt lat="43.14558839896403" lon="11.422528952708051"><ele>206.25</ele><time>2026-03-28T12:09:45.001Z</time></trkpt><trkpt lat="43.14565134246846" lon="11.422711858686132"><ele>206.5</ele><time>2026-03-28T12:09:46.001Z</time></trkpt><trkpt lat="43.14571409292726" lon="11.42287523658581"><ele>206.75</ele><time>2026-03-28T12:09:47.001Z</time></trkpt><trkpt lat="43.14576868463796" lon="11.423018298176173"><ele>207.0</ele><time>2026-03-28T12:09:48.001Z</time></trkpt><trkpt lat="43.145819350136065" lon="11.42316088587619"><ele>207.0</ele><time>2026-03-28T12:09:49.001Z</time></trkpt><trkpt lat="43.14586853213609" lon="11.423308459874576"><ele>207.0</ele><time>2026-03-28T12:09:50.001Z</time></trkpt><trkpt lat="43.14590900004074" lon="11.423450146016524"><ele>207.0</ele><time>2026-03-28T12:09:51.001Z</time></trkpt><trkpt lat="43.145948799509924" lon="11.423599435754218"><ele>207.0</ele><time>2026-03-28T12:09:52.001Z</time></trkpt><trkpt lat="43.14596123785801" lon="11.423747371656168"><ele>206.8</ele><time>2026-03-28T12:09:53.001Z</time></trkpt><trkpt lat="43.145962889864144" lon="11.423878622904358"><ele>206.6</ele><time>2026-03-28T12:09:54.001Z</time></trkpt><trkpt lat="43.14595099725004" lon="11.424003349835225"><ele>206.4</ele><time>2026-03-28T12:09:55.001Z</time></trkpt><trkpt lat="43.14592600059931" lon="11.424132397373706"><ele>206.20000000000002</ele><time>2026-03-28T12:09:56.001Z</time></trkpt><trkpt lat="43.14586668747318" lon="11.424247011915783"><ele>206.0</ele><time>2026-03-28T12:09:57.001Z</time></trkpt><trkpt lat="43.14581136518835" lon="11.424380737253461"><ele>206.00000000000003</ele><time>2026-03-28T12:09:58.001Z</time></trkpt><trkpt lat="43.14575833196049" lon="11.424519282808815"><ele>206.0</ele><time>2026-03-28T12:09:59.001Z</time></trkpt><trkpt lat="43.145699968519075" lon="11.42462717859092"><ele>206.0</ele><time>2026-03-28T12:10:00.001Z</time></trkpt><trkpt lat="43.14564629021229" lon="11.424718180096399"><ele>206.0</ele><time>2026-03-28T12:10:01.001Z</time></trkpt><trkpt lat="43.14559705808267" lon="11.424793739596405"><ele>206.00000000000003</ele><time>2026-03-28T12:10:02.001Z</time></trkpt><trkpt lat="43.145558572243324" lon="11.42486306277938"><ele>206.0</ele><time>2026-03-28T12:10:03.001Z</time></trkpt><trkpt lat="43.14554023360815" lon="11.42496218756802"><ele>206.00000000000003</ele><time>2026-03-28T12:10:04.001Z</time></trkpt><trkpt lat="43.14552944906946" lon="11.425066171401612"><ele>206.0</ele><time>2026-03-28T12:10:05.001Z</time></trkpt><trkpt lat="43.14556927633194" lon="11.42516642831581"><ele>206.0</ele><time>2026-03-28T12:10:06.001Z</time></trkpt><trkpt lat="43.14561499469963" lon="11.425246393797021"><ele>206.0</ele><time>2026-03-28T12:10:07Z</time></trkpt><trkpt lat="43.145686580947014" lon="11.425304800616475"><ele>206.00000000000003</ele><time>2026-03-28T12:10:08Z</time></trkpt><trkpt lat="43.14577399917502" lon="11.425354205871376"><ele>206.0</ele><time>2026-03-28T12:10:09Z</time></trkpt><trkpt lat="43.145871278892464" lon="11.425406114421932"><ele>206.0</ele><time>2026-03-28T12:10:10Z</time></trkpt><trkpt lat="43.1459759557585" lon="11.425468048380075"><ele>206.0</ele><time>2026-03-28T12:10:11Z</time></trkpt><trkpt lat="43.146074893438026" lon="11.425553250155794"><ele>206.0</ele><time>2026-03-28T12:10:12Z</time></trkpt><trkpt lat="43.14618047997899" lon="11.425672361319371"><ele>206.0</ele><time>2026-03-28T12:10:13Z</time></trkpt><trkpt lat="43.146289893118315" lon="11.425805935187237"><ele>204.33333333333334</ele><time>2026-03-28T12:10:14Z</time></trkpt><trkpt lat="43.14641980753139" lon="11.425963008439489"><ele>202.66666666666669</ele><time>2026-03-28T12:10:15Z</time></trkpt><trkpt lat="43.14653903164123" lon="11.426077650882922"><ele>201.0</ele><time>2026-03-28T12:10:16Z</time></trkpt><trkpt lat="43.14665615588183" lon="11.426185211239503"><ele>201.0</ele><time>2026-03-28T12:10:17Z</time></trkpt><trkpt lat="43.14676942297873" lon="11.426284934856316"><ele>201.0</ele><time>2026-03-28T12:10:18Z</time></trkpt><trkpt lat="43.14687824462165" lon="11.426367268230859"><ele>201.0</ele><time>2026-03-28T12:10:19Z</time></trkpt><trkpt lat="43.14698018506163" lon="11.426460894155403"><ele>201.0</ele><time>2026-03-28T12:10:20Z</time></trkpt><trkpt lat="43.14708743621671" lon="11.426546902487908"><ele>201.0</ele><time>2026-03-28T12:10:21Z</time></trkpt><trkpt lat="43.147187798214375" lon="11.426652841735292"><ele>201.0</ele><time>2026-03-28T12:10:22Z</time></trkpt><trkpt lat="43.14728079523021" lon="11.426776003044997"><ele>201.0</ele><time>2026-03-28T12:10:23Z</time></trkpt><trkpt lat="43.14738462408934" lon="11.426875559541626"><ele>201.0</ele><time>2026-03-28T12:10:24Z</time></trkpt><trkpt lat="43.14746597794937" lon="11.426984401270998"><ele>201.0</ele><time>2026-03-28T12:10:25Z</time></trkpt><trkpt lat="43.14754028157459" lon="11.427071221910056"><ele>201.0</ele><time>2026-03-28T12:10:26Z</time></trkpt><trkpt lat="43.14762791486834" lon="11.427137871941046"><ele>201.0</ele><time>2026-03-28T12:10:27Z</time></trkpt><trkpt lat="43.14772926304083" lon="11.42718556223387"><ele>201.0</ele><time>2026-03-28T12:10:28Z</time></trkpt><trkpt lat="43.14784836201955" lon="11.427221341165163"><ele>201.0</ele><time>2026-03-28T12:10:29Z</time></trkpt><trkpt lat="43.14796160338834" lon="11.427245776417967"><ele>202.0</ele><time>2026-03-28T12:10:30Z</time></trkpt><trkpt lat="43.14806977212418" lon="11.427270442815184"><ele>203.0</ele><time>2026-03-28T12:10:31Z</time></trkpt><trkpt lat="43.14817032438364" lon="11.427306208347607"><ele>204.0</ele><time>2026-03-28T12:10:32Z</time></trkpt><trkpt lat="43.148280200830314" lon="11.427358079997509"><ele>205.0</ele><time>2026-03-28T12:10:33Z</time></trkpt><trkpt lat="43.14840449095939" lon="11.42742370690371"><ele>205.0</ele><time>2026-03-28T12:10:34Z</time></trkpt><trkpt lat="43.148543916941605" lon="11.427500007286133"><ele>205.0</ele><time>2026-03-28T12:10:35Z</time></trkpt><trkpt lat="43.14868187689526" lon="11.427568338230904"><ele>205.0</ele><time>2026-03-28T12:10:36Z</time></trkpt><trkpt lat="43.14880560590249" lon="11.427631971848788"><ele>205.0</ele><time>2026-03-28T12:10:37Z</time></trkpt><trkpt lat="43.14892283290184" lon="11.427699360272474"><ele>205.0</ele><time>2026-03-28T12:10:38Z</time></trkpt><trkpt lat="43.149041283191096" lon="11.427767365788185"><ele>205.0</ele><time>2026-03-28T12:10:39Z</time></trkpt><trkpt lat="43.14916172069414" lon="11.427838903672006"><ele>205.0</ele><time>2026-03-28T12:10:40Z</time></trkpt><trkpt lat="43.149282053213255" lon="11.427932474264964"><ele>205.0</ele><time>2026-03-28T12:10:41Z</time></trkpt><trkpt lat="43.149401804446185" lon="11.428051245497809"><ele>202.25</ele><time>2026-03-28T12:10:42Z</time></trkpt><trkpt lat="43.14952375305182" lon="11.428191527498088"><ele>199.5</ele><time>2026-03-28T12:10:43Z</time></trkpt><trkpt lat="43.149631110021744" lon="11.428318235748321"><ele>196.75</ele><time>2026-03-28T12:10:44Z</time></trkpt><trkpt lat="43.14973935899868" lon="11.42842899531792"><ele>194.0</ele><time>2026-03-28T12:10:45Z</time></trkpt><trkpt lat="43.14984442659168" lon="11.428533293117065"><ele>195.0</ele><time>2026-03-28T12:10:46Z</time></trkpt><trkpt lat="43.14993983109108" lon="11.428630552890143"><ele>196.0</ele><time>2026-03-28T12:10:47Z</time></trkpt><trkpt lat="43.15003002031586" lon="11.428748755742252"><ele>197.0</ele><time>2026-03-28T12:10:48Z</time></trkpt><trkpt lat="43.15012063565202" lon="11.428895421189557"><ele>198.0</ele><time>2026-03-28T12:10:49Z</time></trkpt><trkpt lat="43.15020526101587" lon="11.429055900827095"><ele>195.75</ele><time>2026-03-28T12:10:50Z</time></trkpt><trkpt lat="43.15029238613014" lon="11.429224014453592"><ele>193.5</ele><time>2026-03-28T12:10:51Z</time></trkpt><trkpt lat="43.150386662419415" lon="11.429365744212674"><ele>191.25</ele><time>2026-03-28T12:10:52Z</time></trkpt><trkpt lat="43.15047794268184" lon="11.429495822101213"><ele>189.0</ele><time>2026-03-28T12:10:53Z</time></trkpt><trkpt lat="43.1505642935244" lon="11.429610310498154"><ele>189.2</ele><time>2026-03-28T12:10:54.001Z</time></trkpt><trkpt lat="43.15065186888161" lon="11.429715062226299"><ele>189.39999999999998</ele><time>2026-03-28T12:10:55.001Z</time></trkpt><trkpt lat="43.15074271123188" lon="11.429805778280185"><ele>189.6</ele><time>2026-03-28T12:10:56.001Z</time></trkpt><trkpt lat="43.150832870528234" lon="11.429880783217818"><ele>189.8</ele><time>2026-03-28T12:10:57.001Z</time></trkpt><trkpt lat="43.15091354419632" lon="11.429943942037637"><ele>190.0</ele><time>2026-03-28T12:10:58.001Z</time></trkpt><trkpt lat="43.150989745289294" lon="11.430032288152463"><ele>190.0</ele><time>2026-03-28T12:10:59.001Z</time></trkpt><trkpt lat="43.151062685411944" lon="11.43014356707099"><ele>190.0</ele><time>2026-03-28T12:11:00.001Z</time></trkpt><trkpt lat="43.15111510974699" lon="11.430283051542702"><ele>190.0</ele><time>2026-03-28T12:11:01.001Z</time></trkpt><trkpt lat="43.151143499203044" lon="11.430434389155693"><ele>190.0</ele><time>2026-03-28T12:11:02.001Z</time></trkpt><trkpt lat="43.15114266655409" lon="11.43058367831468"><ele>190.0</ele><time>2026-03-28T12:11:03.001Z</time></trkpt><trkpt lat="43.15112851994521" lon="11.430735772641025"><ele>188.25</ele><time>2026-03-28T12:11:04.001Z</time></trkpt><trkpt lat="43.1511051119555" lon="11.43090444352523"><ele>186.5</ele><time>2026-03-28T12:11:05.001Z</time></trkpt><trkpt lat="43.15108350846909" lon="11.431098116867547"><ele>184.75</ele><time>2026-03-28T12:11:06.001Z</time></trkpt><trkpt lat="43.151072437584155" lon="11.431272684869944"><ele>183.0</ele><time>2026-03-28T12:11:07.001Z</time></trkpt><trkpt lat="43.151066913555645" lon="11.431438492048093"><ele>181.8</ele><time>2026-03-28T12:11:08.001Z</time></trkpt><trkpt lat="43.15107665423245" lon="11.431602064377556"><ele>180.60000000000002</ele><time>2026-03-28T12:11:09.001Z</time></trkpt><trkpt lat="43.151095209692976" lon="11.431750773552046"><ele>179.39999999999998</ele><time>2026-03-28T12:11:10.001Z</time></trkpt><trkpt lat="43.15111672422548" lon="11.431892869297036"><ele>178.2</ele><time>2026-03-28T12:11:11.001Z</time></trkpt><trkpt lat="43.151132286987554" lon="11.432031899361665"><ele>177.0</ele><time>2026-03-28T12:11:12.001Z</time></trkpt><trkpt lat="43.15112944599434" lon="11.432171655091665"><ele>176.5</ele><time>2026-03-28T12:11:13.001Z</time></trkpt><trkpt lat="43.15111371521454" lon="11.432311172803965"><ele>176.0</ele><time>2026-03-28T12:11:14.001Z</time></trkpt><trkpt lat="43.15109470411286" lon="11.432424521534239"><ele>175.5</ele><time>2026-03-28T12:11:15.001Z</time></trkpt><trkpt lat="43.15108831287052" lon="11.43253561506468"><ele>175.0</ele><time>2026-03-28T12:11:16.001Z</time></trkpt><trkpt lat="43.151103085817056" lon="11.43264775414374"><ele>174.5</ele><time>2026-03-28T12:11:17.001Z</time></trkpt><trkpt lat="43.15113473557012" lon="11.432760606124793"><ele>174.0</ele><time>2026-03-28T12:11:18.001Z</time></trkpt><trkpt lat="43.15118354471552" lon="11.432873568853294"><ele>173.2</ele><time>2026-03-28T12:11:19.001Z</time></trkpt><trkpt lat="43.15124168114847" lon="11.432985240699274"><ele>172.39999999999998</ele><time>2026-03-28T12:11:20.001Z</time></trkpt><trkpt lat="43.15131879594345" lon="11.433090363783782"><ele>171.6</ele><time>2026-03-28T12:11:21.001Z</time></trkpt><trkpt lat="43.15140233495181" lon="11.43319198910351"><ele>170.8</ele><time>2026-03-28T12:11:22.001Z</time></trkpt><trkpt lat="43.151488575323924" lon="11.433289188705661"><ele>170.0</ele><time>2026-03-28T12:11:23.001Z</time></trkpt><trkpt lat="43.15156879338391" lon="11.433368110550468"><ele>171.33333333333331</ele><time>2026-03-28T12:11:24.001Z</time></trkpt><trkpt lat="43.15164508014886" lon="11.433433330261012"><ele>172.66666666666666</ele><time>2026-03-28T12:11:25.001Z</time></trkpt><trkpt lat="43.151716114590116" lon="11.433484031120303"><ele>174.0</ele><time>2026-03-28T12:11:26.001Z</time></trkpt><trkpt lat="43.15179095357813" lon="11.43352171352741"><ele>175.33333333333334</ele><time>2026-03-28T12:11:27.001Z</time></trkpt><trkpt lat="43.15187082525301" lon="11.43353514110345"><ele>176.66666666666669</ele><time>2026-03-28T12:11:28.001Z</time></trkpt><trkpt lat="43.15195108181828" lon="11.433536830104092"><ele>178.0</ele><time>2026-03-28T12:11:29.001Z</time></trkpt><trkpt lat="43.15203328597555" lon="11.433510784853777"><ele>178.0</ele><time>2026-03-28T12:11:30.001Z</time></trkpt><trkpt lat="43.15211191561977" lon="11.433459647131555"><ele>178.0</ele><time>2026-03-28T12:11:31.001Z</time></trkpt><trkpt lat="43.15219524508929" lon="11.433373182839857"><ele>178.0</ele><time>2026-03-28T12:11:32.001Z</time></trkpt><trkpt lat="43.152284539437886" lon="11.433270736379875"><ele>178.0</ele><time>2026-03-28T12:11:33.001Z</time></trkpt><trkpt lat="43.152373157606604" lon="11.4331840487675"><ele>178.0</ele><time>2026-03-28T12:11:34.001Z</time></trkpt><trkpt lat="43.15244204485738" lon="11.433112428494626"><ele>178.33333333333334</ele><time>2026-03-28T12:11:35.001Z</time></trkpt><trkpt lat="43.15248919859459" lon="11.433045038303439"><ele>178.66666666666669</ele><time>2026-03-28T12:11:36.001Z</time></trkpt><trkpt lat="43.15258853899013" lon="11.432968083850911"><ele>179.0</ele><time>2026-03-28T12:11:38.001Z</time></trkpt><trkpt lat="43.152706286799074" lon="11.43300292942646"><ele>179.33333333333334</ele><time>2026-03-28T12:11:40.001Z</time></trkpt><trkpt lat="43.152755161348445" lon="11.433070367885222"><ele>179.66666666666666</ele><time>2026-03-28T12:11:41.001Z</time></trkpt><trkpt lat="43.1527831782596" lon="11.433158371862"><ele>180.0</ele><time>2026-03-28T12:11:42.001Z</time></trkpt><trkpt lat="43.15277678595852" lon="11.433245837321769"><ele>177.75</ele><time>2026-03-28T12:11:43.001Z</time></trkpt><trkpt lat="43.15270942962511" lon="11.433394871920495"><ele>175.5</ele><time>2026-03-28T12:11:45.001Z</time></trkpt><trkpt lat="43.152635159970224" lon="11.433480444956626"><ele>173.25</ele><time>2026-03-28T12:11:46.001Z</time></trkpt><trkpt lat="43.15252601151921" lon="11.433602615555996"><ele>171.0</ele><time>2026-03-28T12:11:47.001Z</time></trkpt><trkpt lat="43.15242098174648" lon="11.433735430150373"><ele>170.0</ele><time>2026-03-28T12:11:48.001Z</time></trkpt><trkpt lat="43.15228448750375" lon="11.433901583228637"><ele>169.0</ele><time>2026-03-28T12:11:49.001Z</time></trkpt><trkpt lat="43.15216994826065" lon="11.434049241366836"><ele>168.0</ele><time>2026-03-28T12:11:50.001Z</time></trkpt><trkpt lat="43.152044795257794" lon="11.434183100593428"><ele>168.0</ele><time>2026-03-28T12:11:51.001Z</time></trkpt><trkpt lat="43.151955045361404" lon="11.434300503081946"><ele>168.0</ele><time>2026-03-28T12:11:52.001Z</time></trkpt><trkpt lat="43.15185099560401" lon="11.434413494264872"><ele>168.0</ele><time>2026-03-28T12:11:53.001Z</time></trkpt><trkpt lat="43.15175271848149" lon="11.434521736938146"><ele>168.0</ele><time>2026-03-28T12:11:54.001Z</time></trkpt><trkpt lat="43.15166957346118" lon="11.434624443436185"><ele>166.4</ele><time>2026-03-28T12:11:55.001Z</time></trkpt><trkpt lat="43.15159798308285" lon="11.434723481890998"><ele>164.8</ele><time>2026-03-28T12:11:56.001Z</time></trkpt><trkpt lat="43.15154482458986" lon="11.434835956414942"><ele>163.2</ele><time>2026-03-28T12:11:57.001Z</time></trkpt><trkpt lat="43.151521583925124" lon="11.434969837291707"><ele>161.6</ele><time>2026-03-28T12:11:58.001Z</time></trkpt><trkpt lat="43.151510241962825" lon="11.43511993977942"><ele>160.0</ele><time>2026-03-28T12:11:59.001Z</time></trkpt><trkpt lat="43.15154097864552" lon="11.435271317807919"><ele>159.66666666666669</ele><time>2026-03-28T12:12:00.001Z</time></trkpt><trkpt lat="43.1515485093632" lon="11.435442416859386"><ele>159.33333333333334</ele><time>2026-03-28T12:12:01.001Z</time></trkpt><trkpt lat="43.15159133190428" lon="11.435637333317173"><ele>159.0</ele><time>2026-03-28T12:12:02.001Z</time></trkpt><trkpt lat="43.1516335727412" lon="11.435879879157001"><ele>158.0</ele><time>2026-03-28T12:12:03.001Z</time></trkpt><trkpt lat="43.1516807853451" lon="11.436169075787241"><ele>157.0</ele><time>2026-03-28T12:12:04.001Z</time></trkpt><trkpt lat="43.15173026306994" lon="11.436486499685335"><ele>156.66666666666669</ele><time>2026-03-28T12:12:05.001Z</time></trkpt><trkpt lat="43.15177908514741" lon="11.436784613451024"><ele>156.33333333333334</ele><time>2026-03-28T12:12:06.001Z</time></trkpt><trkpt lat="43.15182144977374" lon="11.43703568423397"><ele>156.0</ele><time>2026-03-28T12:12:07.001Z</time></trkpt><trkpt lat="43.15185714809201" lon="11.437261457664231"><ele>156.0</ele><time>2026-03-28T12:12:08.001Z</time></trkpt><trkpt lat="43.151887704948074" lon="11.437467207930549"><ele>156.0</ele><time>2026-03-28T12:12:09.001Z</time></trkpt><trkpt lat="43.15191776407532" lon="11.437651942323413"><ele>156.0</ele><time>2026-03-28T12:12:10.001Z</time></trkpt><trkpt lat="43.15194493962195" lon="11.43783288556823"><ele>156.0</ele><time>2026-03-28T12:12:11.001Z</time></trkpt><trkpt lat="43.15197576549038" lon="11.438015295533397"><ele>157.0</ele><time>2026-03-28T12:12:12.001Z</time></trkpt><trkpt lat="43.15200098199835" lon="11.43816913354067"><ele>158.0</ele><time>2026-03-28T12:12:13Z</time></trkpt><trkpt lat="43.15201232465942" lon="11.43829563439985"><ele>159.0</ele><time>2026-03-28T12:12:14Z</time></trkpt><trkpt lat="43.152004560659975" lon="11.438447576970669"><ele>160.0</ele><time>2026-03-28T12:12:15Z</time></trkpt><trkpt lat="43.151976549244154" lon="11.43859483730705"><ele>161.0</ele><time>2026-03-28T12:12:16Z</time></trkpt><trkpt lat="43.151924612445356" lon="11.438742845137863"><ele>161.75</ele><time>2026-03-28T12:12:17Z</time></trkpt><trkpt lat="43.15183435507425" lon="11.438850204055466"><ele>162.5</ele><time>2026-03-28T12:12:18Z</time></trkpt><trkpt lat="43.15176169481538" lon="11.439004400278483"><ele>163.25</ele><time>2026-03-28T12:12:19Z</time></trkpt><trkpt lat="43.151658452928984" lon="11.439174797630116"><ele>164.0</ele><time>2026-03-28T12:12:20Z</time></trkpt><trkpt lat="43.15156149254579" lon="11.43932273436572"><ele>163.33333333333331</ele><time>2026-03-28T12:12:21Z</time></trkpt><trkpt lat="43.15146677612716" lon="11.439475651512016"><ele>162.66666666666666</ele><time>2026-03-28T12:12:22Z</time></trkpt><trkpt lat="43.15136639888772" lon="11.43964747783485"><ele>162.0</ele><time>2026-03-28T12:12:23Z</time></trkpt><trkpt lat="43.15127867040029" lon="11.439809581998029"><ele>162.0</ele><time>2026-03-28T12:12:24Z</time></trkpt><trkpt lat="43.15120409115371" lon="11.439974262591708"><ele>162.0</ele><time>2026-03-28T12:12:25Z</time></trkpt><trkpt lat="43.151127159158825" lon="11.440174022063458"><ele>162.0</ele><time>2026-03-28T12:12:26Z</time></trkpt><trkpt lat="43.15105671882528" lon="11.440359070947004"><ele>162.25</ele><time>2026-03-28T12:12:27Z</time></trkpt><trkpt lat="43.15099022345274" lon="11.44051468275488"><ele>162.5</ele><time>2026-03-28T12:12:28Z</time></trkpt><trkpt lat="43.15091441946992" lon="11.44065766311521"><ele>162.75</ele><time>2026-03-28T12:12:29Z</time></trkpt><trkpt lat="43.15081641825682" lon="11.440791497482039"><ele>163.0</ele><time>2026-03-28T12:12:30Z</time></trkpt><trkpt lat="43.15068006867311" lon="11.440878786199708"><ele>163.0</ele><time>2026-03-28T12:12:31Z</time></trkpt><trkpt lat="43.150533236729494" lon="11.4409891584026"><ele>163.0</ele><time>2026-03-28T12:12:32Z</time></trkpt><trkpt lat="43.15036762758278" lon="11.441125306280227"><ele>163.0</ele><time>2026-03-28T12:12:33Z</time></trkpt><trkpt lat="43.15018256752738" lon="11.441299353687825"><ele>163.0</ele><time>2026-03-28T12:12:34Z</time></trkpt><trkpt lat="43.15001636667053" lon="11.441429524700533"><ele>163.0</ele><time>2026-03-28T12:12:35Z</time></trkpt><trkpt lat="43.149875270154084" lon="11.44154487330757"><ele>163.0</ele><time>2026-03-28T12:12:36Z</time></trkpt><trkpt lat="43.14972809478186" lon="11.441662430822014"><ele>163.0</ele><time>2026-03-28T12:12:37Z</time></trkpt><trkpt lat="43.14957598522529" lon="11.441786390838695"><ele>163.0</ele><time>2026-03-28T12:12:38Z</time></trkpt><trkpt lat="43.14944184030354" lon="11.441891103586592"><ele>163.0</ele><time>2026-03-28T12:12:39Z</time></trkpt><trkpt lat="43.149317927318016" lon="11.441990617223002"><ele>163.0</ele><time>2026-03-28T12:12:40Z</time></trkpt><trkpt lat="43.14918962915107" lon="11.442097071779932"><ele>163.0</ele><time>2026-03-28T12:12:41Z</time></trkpt><trkpt lat="43.149066698656455" lon="11.44219849858145"><ele>163.0</ele><time>2026-03-28T12:12:42Z</time></trkpt><trkpt lat="43.14895639620768" lon="11.44229332984387"><ele>163.0</ele><time>2026-03-28T12:12:43Z</time></trkpt><trkpt lat="43.14885061542733" lon="11.442378044991116"><ele>163.25</ele><time>2026-03-28T12:12:44Z</time></trkpt><trkpt lat="43.148747534473486" lon="11.442480842468463"><ele>163.5</ele><time>2026-03-28T12:12:45Z</time></trkpt><trkpt lat="43.14864317790282" lon="11.44262004339555"><ele>163.75</ele><time>2026-03-28T12:12:46Z</time></trkpt><trkpt lat="43.148533085691675" lon="11.442796238927002"><ele>164.0</ele><time>2026-03-28T12:12:47Z</time></trkpt><trkpt lat="43.148411723124916" lon="11.442956203657376"><ele>163.75</ele><time>2026-03-28T12:12:48Z</time></trkpt><trkpt lat="43.148325108895726" lon="11.443121460878857"><ele>163.5</ele><time>2026-03-28T12:12:49Z</time></trkpt><trkpt lat="43.148230486583174" lon="11.443258371263996"><ele>163.25</ele><time>2026-03-28T12:12:50Z</time></trkpt><trkpt lat="43.1481469920967" lon="11.44338543759677"><ele>163.0</ele><time>2026-03-28T12:12:51Z</time></trkpt><trkpt lat="43.14808041612353" lon="11.44351427534959"><ele>163.0</ele><time>2026-03-28T12:12:52Z</time></trkpt><trkpt lat="43.1480398079465" lon="11.443629883629193"><ele>163.0</ele><time>2026-03-28T12:12:53Z</time></trkpt><trkpt lat="43.148027502273024" lon="11.44375235002444"><ele>163.0</ele><time>2026-03-28T12:12:54Z</time></trkpt><trkpt lat="43.14804386273511" lon="11.443875115887833"><ele>163.0</ele><time>2026-03-28T12:12:55Z</time></trkpt><trkpt lat="43.14808208915339" lon="11.443994945129386"><ele>163.0</ele><time>2026-03-28T12:12:56Z</time></trkpt><trkpt lat="43.14813162836978" lon="11.44410579951689"><ele>163.2</ele><time>2026-03-28T12:12:57Z</time></trkpt><trkpt lat="43.14817963215519" lon="11.444218900228478"><ele>163.4</ele><time>2026-03-28T12:12:58Z</time></trkpt><trkpt lat="43.148202015658114" lon="11.444361475088648"><ele>163.6</ele><time>2026-03-28T12:12:59Z</time></trkpt><trkpt lat="43.14820682223151" lon="11.4444976280302"><ele>163.79999999999998</ele><time>2026-03-28T12:13:00Z</time></trkpt><trkpt lat="43.14818466592469" lon="11.444614476737"><ele>164.0</ele><time>2026-03-28T12:13:01Z</time></trkpt><trkpt lat="43.14813721639536" lon="11.444710326452606"><ele>165.16666666666666</ele><time>2026-03-28T12:13:02Z</time></trkpt><trkpt lat="43.148077714048796" lon="11.444775797463402"><ele>166.33333333333331</ele><time>2026-03-28T12:13:03Z</time></trkpt><trkpt lat="43.148005637072345" lon="11.444799599545027"><ele>167.5</ele><time>2026-03-28T12:13:04.001Z</time></trkpt><trkpt lat="43.14792002998222" lon="11.444815781426845"><ele>168.66666666666666</ele><time>2026-03-28T12:13:05.001Z</time></trkpt><trkpt lat="43.147833574827374" lon="11.444770990998585"><ele>169.83333333333334</ele><time>2026-03-28T12:13:06.001Z</time></trkpt><trkpt lat="43.14774530290869" lon="11.444728190296166"><ele>171.0</ele><time>2026-03-28T12:13:07.001Z</time></trkpt><trkpt lat="43.14762112043027" lon="11.44466472955689"><ele>171.0</ele><time>2026-03-28T12:13:08.001Z</time></trkpt><trkpt lat="43.14747867859358" lon="11.444630226058688"><ele>171.0</ele><time>2026-03-28T12:13:09.001Z</time></trkpt><trkpt lat="43.14734330185325" lon="11.444573775567434"><ele>171.0</ele><time>2026-03-28T12:13:10.001Z</time></trkpt><trkpt lat="43.14720542502834" lon="11.44453923506741"><ele>171.0</ele><time>2026-03-28T12:13:11.001Z</time></trkpt><trkpt lat="43.14708165801283" lon="11.444521564433174"><ele>168.75</ele><time>2026-03-28T12:13:12.001Z</time></trkpt><trkpt lat="43.14694633351661" lon="11.444514784556219"><ele>166.5</ele><time>2026-03-28T12:13:13.001Z</time></trkpt><trkpt lat="43.14680768865004" lon="11.444515904334446"><ele>164.25</ele><time>2026-03-28T12:13:14.001Z</time></trkpt><trkpt lat="43.146680969297385" lon="11.444526970274186"><ele>162.0</ele><time>2026-03-28T12:13:15.001Z</time></trkpt><trkpt lat="43.146572659685404" lon="11.444548440413774"><ele>162.0</ele><time>2026-03-28T12:13:16.001Z</time></trkpt><trkpt lat="43.14647719293247" lon="11.444577206394822"><ele>162.0</ele><time>2026-03-28T12:13:17.001Z</time></trkpt><trkpt lat="43.146386209175176" lon="11.444618089498112"><ele>162.0</ele><time>2026-03-28T12:13:18.001Z</time></trkpt><trkpt lat="43.1463090772907" lon="11.444674517210153"><ele>162.0</ele><time>2026-03-28T12:13:19.001Z</time></trkpt><trkpt lat="43.14624653729489" lon="11.444750704856373"><ele>162.0</ele><time>2026-03-28T12:13:20.001Z</time></trkpt><trkpt lat="43.146198250222675" lon="11.444855097012422"><ele>162.0</ele><time>2026-03-28T12:13:21.001Z</time></trkpt><trkpt lat="43.14613716526692" lon="11.444980555710277"><ele>162.0</ele><time>2026-03-28T12:13:22.001Z</time></trkpt><trkpt lat="43.14611516306918" lon="11.445133383317007"><ele>162.0</ele><time>2026-03-28T12:13:23.001Z</time></trkpt><trkpt lat="43.14609677261515" lon="11.445264194643691"><ele>162.0</ele><time>2026-03-28T12:13:24.001Z</time></trkpt><trkpt lat="43.14610358960036" lon="11.445379035767118"><ele>162.0</ele><time>2026-03-28T12:13:25.001Z</time></trkpt><trkpt lat="43.14612742432051" lon="11.445503689727722"><ele>161.75</ele><time>2026-03-28T12:13:26.001Z</time></trkpt><trkpt lat="43.14616463210225" lon="11.44564528981445"><ele>161.5</ele><time>2026-03-28T12:13:27.001Z</time></trkpt><trkpt lat="43.14621279854721" lon="11.445817586684857"><ele>161.25</ele><time>2026-03-28T12:13:28.001Z</time></trkpt><trkpt lat="43.146258933890365" lon="11.445999424873472"><ele>161.0</ele><time>2026-03-28T12:13:29.001Z</time></trkpt><trkpt lat="43.14629086689063" lon="11.446158417728137"><ele>161.0</ele><time>2026-03-28T12:13:30.001Z</time></trkpt><trkpt lat="43.14632694288944" lon="11.446291879832316"><ele>161.0</ele><time>2026-03-28T12:13:31.001Z</time></trkpt><trkpt lat="43.146366157196674" lon="11.446417222817542"><ele>161.0</ele><time>2026-03-28T12:13:32.001Z</time></trkpt><trkpt lat="43.14640112327518" lon="11.446534394349605"><ele>161.0</ele><time>2026-03-28T12:13:33.001Z</time></trkpt><trkpt lat="43.14641079053324" lon="11.44664824431411"><ele>161.0</ele><time>2026-03-28T12:13:34.001Z</time></trkpt><trkpt lat="43.14643488912155" lon="11.446742119543181"><ele>161.83333333333331</ele><time>2026-03-28T12:13:35.001Z</time></trkpt><trkpt lat="43.14640704247853" lon="11.446848739151061"><ele>162.66666666666666</ele><time>2026-03-28T12:13:36.001Z</time></trkpt><trkpt lat="43.146347591569786" lon="11.446932067731174"><ele>163.5</ele><time>2026-03-28T12:13:37.001Z</time></trkpt><trkpt lat="43.14627805023315" lon="11.446954670238824"><ele>164.33333333333334</ele><time>2026-03-28T12:13:38.001Z</time></trkpt><trkpt lat="43.14620418720644" lon="11.446894753645525"><ele>165.16666666666669</ele><time>2026-03-28T12:13:39.001Z</time></trkpt><trkpt lat="43.14611495765898" lon="11.446871787322152"><ele>166.0</ele><time>2026-03-28T12:13:40.001Z</time></trkpt><trkpt lat="43.14600315261986" lon="11.44687380378048"><ele>166.0</ele><time>2026-03-28T12:13:41.001Z</time></trkpt><trkpt lat="43.14588246084545" lon="11.446850245501912"><ele>166.0</ele><time>2026-03-28T12:13:42.001Z</time></trkpt><trkpt lat="43.14576410679044" lon="11.446847099063357"><ele>166.0</ele><time>2026-03-28T12:13:43.001Z</time></trkpt><trkpt lat="43.145651257727515" lon="11.446862807033385"><ele>166.0</ele><time>2026-03-28T12:13:44.001Z</time></trkpt><trkpt lat="43.145543651727515" lon="11.446887316845189"><ele>166.5</ele><time>2026-03-28T12:13:45.001Z</time></trkpt><trkpt lat="43.145441610016384" lon="11.446930126764506"><ele>167.0</ele><time>2026-03-28T12:13:46.001Z</time></trkpt><trkpt lat="43.14535214579556" lon="11.447000231034949"><ele>167.5</ele><time>2026-03-28T12:13:47.001Z</time></trkpt><trkpt lat="43.145252627058426" lon="11.44710938620986"><ele>168.0</ele><time>2026-03-28T12:13:48.001Z</time></trkpt><trkpt lat="43.14514773112398" lon="11.447237510618558"><ele>168.0</ele><time>2026-03-28T12:13:49.001Z</time></trkpt><trkpt lat="43.14506047206349" lon="11.44733994979733"><ele>168.0</ele><time>2026-03-28T12:13:50.001Z</time></trkpt><trkpt lat="43.14498851853641" lon="11.447421996925922"><ele>168.0</ele><time>2026-03-28T12:13:51.001Z</time></trkpt><trkpt lat="43.144931675560144" lon="11.447504938971235"><ele>168.0</ele><time>2026-03-28T12:13:52.001Z</time></trkpt><trkpt lat="43.144891134702824" lon="11.44760856106153"><ele>168.0</ele><time>2026-03-28T12:13:53.001Z</time></trkpt><trkpt lat="43.144878305610725" lon="11.447721856118559"><ele>167.8</ele><time>2026-03-28T12:13:54.001Z</time></trkpt><trkpt lat="43.144863768630024" lon="11.447908630615794"><ele>167.60000000000002</ele><time>2026-03-28T12:13:56.001Z</time></trkpt><trkpt lat="43.14486445842536" lon="11.448048314135182"><ele>167.39999999999998</ele><time>2026-03-28T12:13:57.001Z</time></trkpt><trkpt lat="43.144882145653675" lon="11.44817756622809"><ele>167.2</ele><time>2026-03-28T12:13:58.001Z</time></trkpt><trkpt lat="43.14487542873671" lon="11.448282080761306"><ele>167.0</ele><time>2026-03-28T12:13:59.001Z</time></trkpt><trkpt lat="43.14483447538421" lon="11.448382788587772"><ele>167.0</ele><time>2026-03-28T12:14:00.001Z</time></trkpt><trkpt lat="43.14478270404177" lon="11.44847201465716"><ele>167.0</ele><time>2026-03-28T12:14:01.001Z</time></trkpt><trkpt lat="43.144706476677435" lon="11.448519086006163"><ele>167.0</ele><time>2026-03-28T12:14:02.001Z</time></trkpt><trkpt lat="43.14461971411678" lon="11.448554016658399"><ele>167.0</ele><time>2026-03-28T12:14:03.001Z</time></trkpt><trkpt lat="43.14452749089226" lon="11.44856204181303"><ele>167.0</ele><time>2026-03-28T12:14:04.001Z</time></trkpt><trkpt lat="43.144429273653046" lon="11.448552320728956"><ele>167.0</ele><time>2026-03-28T12:14:05.001Z</time></trkpt><trkpt lat="43.14431660412468" lon="11.448534541236487"><ele>167.0</ele><time>2026-03-28T12:14:06.001Z</time></trkpt><trkpt lat="43.144179275305824" lon="11.448495754851042"><ele>167.0</ele><time>2026-03-28T12:14:07.001Z</time></trkpt><trkpt lat="43.14402648009454" lon="11.448425813405072"><ele>167.0</ele><time>2026-03-28T12:14:08.001Z</time></trkpt><trkpt lat="43.143865152972765" lon="11.448336460845526"><ele>168.66666666666666</ele><time>2026-03-28T12:14:09.001Z</time></trkpt><trkpt lat="43.14370871251663" lon="11.448241479408635"><ele>170.33333333333334</ele><time>2026-03-28T12:14:10.001Z</time></trkpt><trkpt lat="43.14355252605354" lon="11.448151227382013"><ele>172.0</ele><time>2026-03-28T12:14:11.001Z</time></trkpt><trkpt lat="43.1434176709228" lon="11.448057387425303"><ele>172.0</ele><time>2026-03-28T12:14:12.001Z</time></trkpt><trkpt lat="43.14330312337837" lon="11.447972050408264"><ele>172.0</ele><time>2026-03-28T12:14:13.001Z</time></trkpt><trkpt lat="43.143201943039166" lon="11.447884193895364"><ele>172.0</ele><time>2026-03-28T12:14:14.001Z</time></trkpt><trkpt lat="43.14310672324764" lon="11.447809343772775"><ele>172.0</ele><time>2026-03-28T12:14:15.001Z</time></trkpt><trkpt lat="43.14300503883555" lon="11.447749509679086"><ele>169.75</ele><time>2026-03-28T12:14:16.001Z</time></trkpt><trkpt lat="43.14289651577674" lon="11.447707000768593"><ele>167.5</ele><time>2026-03-28T12:14:17.001Z</time></trkpt><trkpt lat="43.14277906357077" lon="11.447677095421744"><ele>165.25</ele><time>2026-03-28T12:14:18.001Z</time></trkpt><trkpt lat="43.14265992160403" lon="11.447669696679224"><ele>163.0</ele><time>2026-03-28T12:14:19Z</time></trkpt><trkpt lat="43.14253068419944" lon="11.44768027516769"><ele>163.0</ele><time>2026-03-28T12:14:20Z</time></trkpt><trkpt lat="43.142392836353785" lon="11.447713079400813"><ele>163.0</ele><time>2026-03-28T12:14:21Z</time></trkpt><trkpt lat="43.142235324361586" lon="11.447765215207689"><ele>163.0</ele><time>2026-03-28T12:14:22Z</time></trkpt><trkpt lat="43.142051679957" lon="11.447833354366258"><ele>162.66666666666669</ele><time>2026-03-28T12:14:23Z</time></trkpt><trkpt lat="43.14185185636537" lon="11.447909504154863"><ele>162.33333333333334</ele><time>2026-03-28T12:14:24Z</time></trkpt><trkpt lat="43.14167104025841" lon="11.447949166453643"><ele>162.0</ele><time>2026-03-28T12:14:25Z</time></trkpt><trkpt lat="43.14150028227237" lon="11.4480046104049"><ele>165.0</ele><time>2026-03-28T12:14:26Z</time></trkpt><trkpt lat="43.14131850935842" lon="11.448070972980888"><ele>168.0</ele><time>2026-03-28T12:14:27Z</time></trkpt><trkpt lat="43.141130190557966" lon="11.448107114849515"><ele>171.0</ele><time>2026-03-28T12:14:28Z</time></trkpt><trkpt lat="43.14096282027471" lon="11.448116743390084"><ele>171.0</ele><time>2026-03-28T12:14:29Z</time></trkpt><trkpt lat="43.1408231678888" lon="11.448161221788762"><ele>171.0</ele><time>2026-03-28T12:14:30Z</time></trkpt><trkpt lat="43.14070032367406" lon="11.448171301324502"><ele>171.0</ele><time>2026-03-28T12:14:31Z</time></trkpt><trkpt lat="43.140592510067854" lon="11.448172289510671"><ele>171.0</ele><time>2026-03-28T12:14:32Z</time></trkpt><trkpt lat="43.14048696761449" lon="11.448165191760255"><ele>170.25</ele><time>2026-03-28T12:14:33Z</time></trkpt><trkpt lat="43.140371556668086" lon="11.448139767744548"><ele>169.5</ele><time>2026-03-28T12:14:34Z</time></trkpt><trkpt lat="43.14025378263661" lon="11.448075774182858"><ele>168.75</ele><time>2026-03-28T12:14:35Z</time></trkpt><trkpt lat="43.140136293245085" lon="11.448040899724033"><ele>168.0</ele><time>2026-03-28T12:14:36Z</time></trkpt><trkpt lat="43.14004163900751" lon="11.447986874561982"><ele>167.66666666666666</ele><time>2026-03-28T12:14:37Z</time></trkpt><trkpt lat="43.13995813341142" lon="11.447928034298066"><ele>167.33333333333334</ele><time>2026-03-28T12:14:38Z</time></trkpt><trkpt lat="43.13988547723153" lon="11.447864620399379"><ele>167.0</ele><time>2026-03-28T12:14:39Z</time></trkpt><trkpt lat="43.13981763077096" lon="11.447808425614173"><ele>166.66666666666669</ele><time>2026-03-28T12:14:40Z</time></trkpt><trkpt lat="43.13974710024968" lon="11.447779879863667"><ele>166.33333333333334</ele><time>2026-03-28T12:14:41Z</time></trkpt><trkpt lat="43.13966760938818" lon="11.44777768967242"><ele>166.0</ele><time>2026-03-28T12:14:42Z</time></trkpt><trkpt lat="43.13958753321524" lon="11.447793547704078"><ele>164.8</ele><time>2026-03-28T12:14:43Z</time></trkpt><trkpt lat="43.13949787562094" lon="11.447841784030407"><ele>163.60000000000002</ele><time>2026-03-28T12:14:44Z</time></trkpt><trkpt lat="43.13942224529112" lon="11.447926689988169"><ele>162.4</ele><time>2026-03-28T12:14:45Z</time></trkpt><trkpt lat="43.13937096655226" lon="11.448016979384366"><ele>161.2</ele><time>2026-03-28T12:14:46Z</time></trkpt><trkpt lat="43.13933369835247" lon="11.448125459209253"><ele>160.0</ele><time>2026-03-28T12:14:47Z</time></trkpt><trkpt lat="43.13931092107247" lon="11.448264523136535"><ele>160.0</ele><time>2026-03-28T12:14:48Z</time></trkpt><trkpt lat="43.139293218015" lon="11.448436940304664"><ele>160.0</ele><time>2026-03-28T12:14:49Z</time></trkpt><trkpt lat="43.139279293149166" lon="11.448653043292978"><ele>160.0</ele><time>2026-03-28T12:14:50Z</time></trkpt><trkpt lat="43.13927009386904" lon="11.448906724965532"><ele>160.0</ele><time>2026-03-28T12:14:51Z</time></trkpt><trkpt lat="43.13926344799026" lon="11.449145930558686"><ele>160.0</ele><time>2026-03-28T12:14:52Z</time></trkpt><trkpt lat="43.1392619776341" lon="11.44935918030487"><ele>160.0</ele><time>2026-03-28T12:14:53Z</time></trkpt><trkpt lat="43.13925974577772" lon="11.44956342591735"><ele>160.0</ele><time>2026-03-28T12:14:54Z</time></trkpt><trkpt lat="43.13926022688184" lon="11.449769944690571"><ele>160.0</ele><time>2026-03-28T12:14:55Z</time></trkpt><trkpt lat="43.139266904638134" lon="11.449963482111476"><ele>160.0</ele><time>2026-03-28T12:14:56Z</time></trkpt><trkpt lat="43.13925767344127" lon="11.450140652618751"><ele>160.0</ele><time>2026-03-28T12:14:57Z</time></trkpt><trkpt lat="43.13927205836851" lon="11.450317327236073"><ele>160.5</ele><time>2026-03-28T12:14:58Z</time></trkpt><trkpt lat="43.13927634809217" lon="11.450496632529829"><ele>161.0</ele><time>2026-03-28T12:14:59Z</time></trkpt><trkpt lat="43.139268812495175" lon="11.45067045888752"><ele>161.5</ele><time>2026-03-28T12:15:00Z</time></trkpt><trkpt lat="43.13923986448486" lon="11.450825030260068"><ele>162.0</ele><time>2026-03-28T12:15:01Z</time></trkpt><trkpt lat="43.13918646815132" lon="11.45095918489745"><ele>162.0</ele><time>2026-03-28T12:15:02Z</time></trkpt><trkpt lat="43.13912716797958" lon="11.45108077098327"><ele>162.0</ele><time>2026-03-28T12:15:03Z</time></trkpt><trkpt lat="43.139052579044325" lon="11.451228358984997"><ele>162.0</ele><time>2026-03-28T12:15:04Z</time></trkpt><trkpt lat="43.138964616343024" lon="11.451404690456304"><ele>162.0</ele><time>2026-03-28T12:15:05Z</time></trkpt><trkpt lat="43.138872783808765" lon="11.45158779996234"><ele>161.25</ele><time>2026-03-28T12:15:06Z</time></trkpt><trkpt lat="43.138792025395496" lon="11.451744722717692"><ele>160.5</ele><time>2026-03-28T12:15:07Z</time></trkpt><trkpt lat="43.13870499516615" lon="11.451903963992214"><ele>159.75</ele><time>2026-03-28T12:15:08Z</time></trkpt><trkpt lat="43.13861736571298" lon="11.452045922300075"><ele>159.0</ele><time>2026-03-28T12:15:09Z</time></trkpt><trkpt lat="43.1385425125527" lon="11.452186817853706"><ele>159.0</ele><time>2026-03-28T12:15:10Z</time></trkpt><trkpt lat="43.13844480116927" lon="11.452284796116922"><ele>159.0</ele><time>2026-03-28T12:15:11Z</time></trkpt><trkpt lat="43.138365052412" lon="11.452412188803049"><ele>159.0</ele><time>2026-03-28T12:15:12Z</time></trkpt><trkpt lat="43.13825717029933" lon="11.452507380374241"><ele>159.0</ele><time>2026-03-28T12:15:13Z</time></trkpt><trkpt lat="43.13814532607486" lon="11.45260103278587"><ele>157.0</ele><time>2026-03-28T12:15:14.001Z</time></trkpt><trkpt lat="43.13801105203209" lon="11.452698971345463"><ele>155.0</ele><time>2026-03-28T12:15:15.001Z</time></trkpt><trkpt lat="43.13784620984416" lon="11.452809015006428"><ele>153.0</ele><time>2026-03-28T12:15:16.001Z</time></trkpt><trkpt lat="43.1377025144612" lon="11.452899549184602"><ele>153.0</ele><time>2026-03-28T12:15:17.001Z</time></trkpt><trkpt lat="43.137572462600275" lon="11.45298148742353"><ele>153.0</ele><time>2026-03-28T12:15:18.001Z</time></trkpt><trkpt lat="43.13745980655288" lon="11.453075398417418"><ele>153.0</ele><time>2026-03-28T12:15:19.001Z</time></trkpt><trkpt lat="43.13735399657395" lon="11.453140090678353"><ele>153.0</ele><time>2026-03-28T12:15:20.001Z</time></trkpt><trkpt lat="43.13724413479633" lon="11.453230796823815"><ele>153.0</ele><time>2026-03-28T12:15:21.001Z</time></trkpt><trkpt lat="43.13713111991374" lon="11.453355523388893"><ele>153.0</ele><time>2026-03-28T12:15:22.001Z</time></trkpt><trkpt lat="43.13701354755646" lon="11.45346870456374"><ele>153.0</ele><time>2026-03-28T12:15:23.001Z</time></trkpt><trkpt lat="43.136903463262115" lon="11.453572362268382"><ele>153.0</ele><time>2026-03-28T12:15:24.001Z</time></trkpt><trkpt lat="43.136801713654236" lon="11.45368046099157"><ele>152.5</ele><time>2026-03-28T12:15:25.001Z</time></trkpt><trkpt lat="43.1367041347422" lon="11.453795969896381"><ele>152.0</ele><time>2026-03-28T12:15:26.001Z</time></trkpt><trkpt lat="43.13660450407088" lon="11.453927980790596"><ele>151.5</ele><time>2026-03-28T12:15:27.001Z</time></trkpt><trkpt lat="43.13650535370391" lon="11.454054639259661"><ele>151.0</ele><time>2026-03-28T12:15:28.001Z</time></trkpt><trkpt lat="43.13640430092029" lon="11.454192987053757"><ele>151.0</ele><time>2026-03-28T12:15:29.001Z</time></trkpt><trkpt lat="43.136306225164624" lon="11.454361608740927"><ele>151.0</ele><time>2026-03-28T12:15:30.001Z</time></trkpt><trkpt lat="43.136220987529526" lon="11.454528099614718"><ele>151.0</ele><time>2026-03-28T12:15:31.001Z</time></trkpt><trkpt lat="43.13614049273639" lon="11.45469421495072"><ele>152.66666666666669</ele><time>2026-03-28T12:15:32.001Z</time></trkpt><trkpt lat="43.13605943636128" lon="11.454887773361639"><ele>154.33333333333334</ele><time>2026-03-28T12:15:33.001Z</time></trkpt><trkpt lat="43.135980738581374" lon="11.455071790853728"><ele>156.0</ele><time>2026-03-28T12:15:34.001Z</time></trkpt><trkpt lat="43.13589984743575" lon="11.455241218672214"><ele>156.0</ele><time>2026-03-28T12:15:35.001Z</time></trkpt><trkpt lat="43.13581671609116" lon="11.455407635954645"><ele>156.0</ele><time>2026-03-28T12:15:36.001Z</time></trkpt><trkpt lat="43.13571150797088" lon="11.455544738831119"><ele>156.0</ele><time>2026-03-28T12:15:37.001Z</time></trkpt><trkpt lat="43.13560730353521" lon="11.45566591173609"><ele>156.0</ele><time>2026-03-28T12:15:38.001Z</time></trkpt><trkpt lat="43.135481144579245" lon="11.455793649730879"><ele>154.66666666666666</ele><time>2026-03-28T12:15:39.001Z</time></trkpt><trkpt lat="43.13534092376497" lon="11.45596135563191"><ele>153.33333333333331</ele><time>2026-03-28T12:15:40.001Z</time></trkpt><trkpt lat="43.13515616927221" lon="11.4561209429903"><ele>152.0</ele><time>2026-03-28T12:15:41.001Z</time></trkpt><trkpt lat="43.134979777223165" lon="11.456300986779814"><ele>152.0</ele><time>2026-03-28T12:15:42.001Z</time></trkpt><trkpt lat="43.13483650886947" lon="11.456472065446718"><ele>152.0</ele><time>2026-03-28T12:15:43.001Z</time></trkpt><trkpt lat="43.13469219977531" lon="11.45661447178228"><ele>152.0</ele><time>2026-03-28T12:15:44.001Z</time></trkpt><trkpt lat="43.13454517881511" lon="11.456762293254632"><ele>152.0</ele><time>2026-03-28T12:15:45.001Z</time></trkpt><trkpt lat="43.13438939526302" lon="11.456918956576931"><ele>152.0</ele><time>2026-03-28T12:15:46.001Z</time></trkpt><trkpt lat="43.134233639835365" lon="11.457075266034309"><ele>152.0</ele><time>2026-03-28T12:15:47.001Z</time></trkpt><trkpt lat="43.13409118246736" lon="11.457215834835235"><ele>151.33333333333331</ele><time>2026-03-28T12:15:48.001Z</time></trkpt><trkpt lat="43.13396148076525" lon="11.457347865590211"><ele>150.66666666666666</ele><time>2026-03-28T12:15:49.001Z</time></trkpt><trkpt lat="43.13382801154775" lon="11.457479298818567"><ele>150.0</ele><time>2026-03-28T12:15:50.001Z</time></trkpt><trkpt lat="43.133691266708674" lon="11.457609789918433"><ele>150.0</ele><time>2026-03-28T12:15:51.001Z</time></trkpt><trkpt lat="43.1335618658627" lon="11.457731877392467"><ele>150.0</ele><time>2026-03-28T12:15:52.001Z</time></trkpt><trkpt lat="43.13344231146678" lon="11.457835189265815"><ele>150.0</ele><time>2026-03-28T12:15:53.001Z</time></trkpt><trkpt lat="43.133327084860284" lon="11.45792779502908"><ele>150.0</ele><time>2026-03-28T12:15:54.001Z</time></trkpt><trkpt lat="43.133217912658644" lon="11.45802952756708"><ele>149.25</ele><time>2026-03-28T12:15:55.001Z</time></trkpt><trkpt lat="43.13310460982166" lon="11.458155264908882"><ele>148.5</ele><time>2026-03-28T12:15:56.001Z</time></trkpt><trkpt lat="43.13299705441422" lon="11.458286779564057"><ele>147.75</ele><time>2026-03-28T12:15:57.001Z</time></trkpt><trkpt lat="43.13290603128716" lon="11.458402319529853"><ele>147.0</ele><time>2026-03-28T12:15:58.001Z</time></trkpt><trkpt lat="43.132818690208126" lon="11.458506651621583"><ele>147.0</ele><time>2026-03-28T12:15:59.001Z</time></trkpt><trkpt lat="43.132741438691376" lon="11.458607409445953"><ele>147.0</ele><time>2026-03-28T12:16:00.001Z</time></trkpt><trkpt lat="43.13267641505119" lon="11.458713957684953"><ele>147.0</ele><time>2026-03-28T12:16:01.001Z</time></trkpt><trkpt lat="43.132605262193465" lon="11.458839440431088"><ele>147.0</ele><time>2026-03-28T12:16:02.001Z</time></trkpt><trkpt lat="43.13254161677483" lon="11.45899576701153"><ele>148.66666666666666</ele><time>2026-03-28T12:16:03.001Z</time></trkpt><trkpt lat="43.132482861337294" lon="11.459172030554841"><ele>150.33333333333331</ele><time>2026-03-28T12:16:04.001Z</time></trkpt><trkpt lat="43.132433711319436" lon="11.459373634427042"><ele>152.0</ele><time>2026-03-28T12:16:05.001Z</time></trkpt><trkpt lat="43.132389770955875" lon="11.459593483378308"><ele>150.25</ele><time>2026-03-28T12:16:06.001Z</time></trkpt><trkpt lat="43.13234642724341" lon="11.45978591783901"><ele>148.5</ele><time>2026-03-28T12:16:07.001Z</time></trkpt><trkpt lat="43.13230195223296" lon="11.459961290722573"><ele>146.75</ele><time>2026-03-28T12:16:08.001Z</time></trkpt><trkpt lat="43.132260635439444" lon="11.460134904038735"><ele>145.0</ele><time>2026-03-28T12:16:09.001Z</time></trkpt><trkpt lat="43.13222075662128" lon="11.460302512952335"><ele>145.2</ele><time>2026-03-28T12:16:10.001Z</time></trkpt><trkpt lat="43.13218012120439" lon="11.460467408855324"><ele>145.4</ele><time>2026-03-28T12:16:11.001Z</time></trkpt><trkpt lat="43.132137366760276" lon="11.460619198410082"><ele>145.6</ele><time>2026-03-28T12:16:12.001Z</time></trkpt><trkpt lat="43.13210429473155" lon="11.46075298102325"><ele>145.8</ele><time>2026-03-28T12:16:13.001Z</time></trkpt><trkpt lat="43.13208678855436" lon="11.460875251176157"><ele>146.0</ele><time>2026-03-28T12:16:14.001Z</time></trkpt><trkpt lat="43.13209060819521" lon="11.460997024403285"><ele>146.0</ele><time>2026-03-28T12:16:15.001Z</time></trkpt><trkpt lat="43.13210321599133" lon="11.461110687879538"><ele>146.0</ele><time>2026-03-28T12:16:16.001Z</time></trkpt><trkpt lat="43.13211559558498" lon="11.46121560656794"><ele>146.0</ele><time>2026-03-28T12:16:17.001Z</time></trkpt><trkpt lat="43.132122546961526" lon="11.461331405226062"><ele>146.0</ele><time>2026-03-28T12:16:18.001Z</time></trkpt><trkpt lat="43.13214302425149" lon="11.461455401755785"><ele>146.0</ele><time>2026-03-28T12:16:19.001Z</time></trkpt><trkpt lat="43.13215712081029" lon="11.461579081289013"><ele>146.0</ele><time>2026-03-28T12:16:20.001Z</time></trkpt><trkpt lat="43.13216479846461" lon="11.461678438469155"><ele>146.0</ele><time>2026-03-28T12:16:21.001Z</time></trkpt><trkpt lat="43.13214739622972" lon="11.461852190126079"><ele>146.0</ele><time>2026-03-28T12:16:24.001Z</time></trkpt><trkpt lat="43.13209242814695" lon="11.461911605926039"><ele>146.0</ele><time>2026-03-28T12:16:28Z</time></trkpt><trkpt lat="43.13202320435727" lon="11.461797916426429"><ele>146.0</ele><time>2026-03-28T12:16:30Z</time></trkpt><trkpt lat="43.1319659604769" lon="11.461700454293677"><ele>146.0</ele><time>2026-03-28T12:16:31Z</time></trkpt><trkpt lat="43.13191613526298" lon="11.461626893034948"><ele>146.0</ele><time>2026-03-28T12:16:32Z</time></trkpt><trkpt lat="43.131857907117684" lon="11.461504168874274"><ele>146.0</ele><time>2026-03-28T12:16:34Z</time></trkpt><trkpt lat="43.13178581947613" lon="11.461418489539575"><ele>146.0</ele><time>2026-03-28T12:16:36Z</time></trkpt><trkpt lat="43.1317367329538" lon="11.461360777219985"><ele>146.0</ele><time>2026-03-28T12:16:37Z</time></trkpt><trkpt lat="43.13146385048629" lon="11.461521739674351"><ele>145.4</ele><time>2026-03-28T12:16:38Z</time></trkpt><trkpt lat="43.131367113544" lon="11.461465776417684"><ele>144.8</ele><time>2026-03-28T12:16:39Z</time></trkpt><trkpt lat="43.131291488514414" lon="11.461383183672922"><ele>144.20000000000002</ele><time>2026-03-28T12:16:40Z</time></trkpt><trkpt lat="43.13122672409871" lon="11.461273636080879"><ele>143.6</ele><time>2026-03-28T12:16:41Z</time></trkpt><trkpt lat="43.13116416193637" lon="11.461137640900665"><ele>143.0</ele><time>2026-03-28T12:16:42Z</time></trkpt><trkpt lat="43.1311098304554" lon="11.461024730607283"><ele>143.0</ele><time>2026-03-28T12:16:43Z</time></trkpt><trkpt lat="43.131056675318426" lon="11.460933555679864"><ele>143.0</ele><time>2026-03-28T12:16:44Z</time></trkpt><trkpt lat="43.1309929622756" lon="11.460870444945382"><ele>143.0</ele><time>2026-03-28T12:16:45Z</time></trkpt><trkpt lat="43.130908086791955" lon="11.46082804475569"><ele>143.0</ele><time>2026-03-28T12:16:46Z</time></trkpt><trkpt lat="43.13081024881304" lon="11.460811964400639"><ele>143.0</ele><time>2026-03-28T12:16:47Z</time></trkpt><trkpt lat="43.130724885726174" lon="11.460805260475356"><ele>143.0</ele><time>2026-03-28T12:16:48Z</time></trkpt><trkpt lat="43.1306486824348" lon="11.460783566619178"><ele>142.83333333333331</ele><time>2026-03-28T12:16:49Z</time></trkpt><trkpt lat="43.13057867146034" lon="11.460742959852919"><ele>142.66666666666666</ele><time>2026-03-28T12:16:50Z</time></trkpt><trkpt lat="43.13051443237488" lon="11.460679637416929"><ele>142.5</ele><time>2026-03-28T12:16:51Z</time></trkpt><trkpt lat="43.13047007718243" lon="11.460596111083538"><ele>142.33333333333334</ele><time>2026-03-28T12:16:52Z</time></trkpt><trkpt lat="43.130431562130525" lon="11.46048631769441"><ele>142.16666666666669</ele><time>2026-03-28T12:16:53Z</time></trkpt><trkpt lat="43.13039956335828" lon="11.46033614398421"><ele>142.0</ele><time>2026-03-28T12:16:54Z</time></trkpt><trkpt lat="43.130359439707924" lon="11.460133669291386"><ele>142.66666666666669</ele><time>2026-03-28T12:16:55Z</time></trkpt><trkpt lat="43.13030135068103" lon="11.459861889715821"><ele>143.33333333333334</ele><time>2026-03-28T12:16:56Z</time></trkpt><trkpt lat="43.13024586248053" lon="11.459603466328621"><ele>144.0</ele><time>2026-03-28T12:16:57Z</time></trkpt><trkpt lat="43.13018776250064" lon="11.459333421121798"><ele>144.33333333333334</ele><time>2026-03-28T12:16:58Z</time></trkpt><trkpt lat="43.13013761158552" lon="11.459105453621877"><ele>144.66666666666669</ele><time>2026-03-28T12:16:59Z</time></trkpt><trkpt lat="43.13009390147834" lon="11.45890289640292"><ele>145.0</ele><time>2026-03-28T12:17:00Z</time></trkpt><trkpt lat="43.130054054112605" lon="11.458722378845044"><ele>146.2</ele><time>2026-03-28T12:17:01Z</time></trkpt><trkpt lat="43.13001451395522" lon="11.458566279862351"><ele>147.4</ele><time>2026-03-28T12:17:02Z</time></trkpt><trkpt lat="43.12999442070774" lon="11.458448223588531"><ele>148.6</ele><time>2026-03-28T12:17:03Z</time></trkpt><trkpt lat="43.130003856127395" lon="11.458310886491631"><ele>149.8</ele><time>2026-03-28T12:17:05Z</time></trkpt><trkpt lat="43.13000846870139" lon="11.458194526059613"><ele>151.0</ele><time>2026-03-28T12:17:07Z</time></trkpt><trkpt lat="43.12995915658245" lon="11.458108440006193"><ele>153.0</ele><time>2026-03-28T12:17:08Z</time></trkpt><trkpt lat="43.12986905140339" lon="11.457979044743604"><ele>155.0</ele><time>2026-03-28T12:17:09Z</time></trkpt><trkpt lat="43.12975354977457" lon="11.457760454436869"><ele>157.0</ele><time>2026-03-28T12:17:10Z</time></trkpt><trkpt lat="43.129583595501" lon="11.457500698324953"><ele>159.0</ele><time>2026-03-28T12:17:11Z</time></trkpt><trkpt lat="43.129420458185905" lon="11.457205219925136"><ele>161.0</ele><time>2026-03-28T12:17:12Z</time></trkpt><trkpt lat="43.129248225514836" lon="11.45688618960808"><ele>162.0</ele><time>2026-03-28T12:17:13Z</time></trkpt><trkpt lat="43.12910311594084" lon="11.45662087130615"><ele>163.0</ele><time>2026-03-28T12:17:14Z</time></trkpt><trkpt lat="43.12897477439046" lon="11.456397085263843"><ele>167.0</ele><time>2026-03-28T12:17:15Z</time></trkpt><trkpt lat="43.12886280571166" lon="11.456198004239102"><ele>171.0</ele><time>2026-03-28T12:17:16Z</time></trkpt><trkpt lat="43.12876397811007" lon="11.456018631294304"><ele>175.0</ele><time>2026-03-28T12:17:17Z</time></trkpt><trkpt lat="43.12867049997899" lon="11.45585216084414"><ele>175.0</ele><time>2026-03-28T12:17:18Z</time></trkpt><trkpt lat="43.12857775544702" lon="11.455702736811547"><ele>175.0</ele><time>2026-03-28T12:17:19Z</time></trkpt><trkpt lat="43.12848756241262" lon="11.455581985331078"><ele>175.0</ele><time>2026-03-28T12:17:20Z</time></trkpt><trkpt lat="43.12838141838617" lon="11.45546930091216"><ele>175.0</ele><time>2026-03-28T12:17:21Z</time></trkpt><trkpt lat="43.128241207692064" lon="11.455378085230985"><ele>181.0</ele><time>2026-03-28T12:17:22Z</time></trkpt><trkpt lat="43.12806878218676" lon="11.455307367554996"><ele>187.0</ele><time>2026-03-28T12:17:23Z</time></trkpt><trkpt lat="43.12788998972334" lon="11.455236461429239"><ele>193.0</ele><time>2026-03-28T12:17:24Z</time></trkpt><trkpt lat="43.127724105156055" lon="11.455166110160667"><ele>193.0</ele><time>2026-03-28T12:17:25Z</time></trkpt><trkpt lat="43.1275830623054" lon="11.455096543195877"><ele>193.0</ele><time>2026-03-28T12:17:26Z</time></trkpt><trkpt lat="43.12744611858637" lon="11.455028042693607"><ele>193.0</ele><time>2026-03-28T12:17:27Z</time></trkpt><trkpt lat="43.12731410215804" lon="11.454961519341083"><ele>193.0</ele><time>2026-03-28T12:17:28Z</time></trkpt><trkpt lat="43.12720811851466" lon="11.454887124109243"><ele>195.75</ele><time>2026-03-28T12:17:29Z</time></trkpt><trkpt lat="43.12710316105369" lon="11.454777876403732"><ele>198.5</ele><time>2026-03-28T12:17:30Z</time></trkpt><trkpt lat="43.12700826185549" lon="11.454625836656449"><ele>201.25</ele><time>2026-03-28T12:17:31Z</time></trkpt><trkpt lat="43.12692239630168" lon="11.454441876903216"><ele>204.0</ele><time>2026-03-28T12:17:32Z</time></trkpt><trkpt lat="43.12685881009338" lon="11.454256759617822"><ele>207.0</ele><time>2026-03-28T12:17:33.001Z</time></trkpt><trkpt lat="43.12681163682557" lon="11.45407762591639"><ele>210.0</ele><time>2026-03-28T12:17:34.001Z</time></trkpt><trkpt lat="43.12678903650493" lon="11.453855233745523"><ele>213.0</ele><time>2026-03-28T12:17:35.001Z</time></trkpt><trkpt lat="43.1267796749964" lon="11.453592298979613"><ele>214.5</ele><time>2026-03-28T12:17:36.001Z</time></trkpt><trkpt lat="43.12676461951307" lon="11.453349758097227"><ele>216.0</ele><time>2026-03-28T12:17:37.001Z</time></trkpt><trkpt lat="43.126760283852775" lon="11.45315430158934"><ele>217.5</ele><time>2026-03-28T12:17:38.001Z</time></trkpt><trkpt lat="43.12675663486183" lon="11.452986865214342"><ele>219.0</ele><time>2026-03-28T12:17:39.001Z</time></trkpt><trkpt lat="43.12675838253607" lon="11.452815774130071"><ele>219.75</ele><time>2026-03-28T12:17:40.001Z</time></trkpt><trkpt lat="43.12676314769379" lon="11.452638989455535"><ele>220.5</ele><time>2026-03-28T12:17:41.001Z</time></trkpt><trkpt lat="43.12676782257989" lon="11.452455006705419"><ele>221.25</ele><time>2026-03-28T12:17:42.001Z</time></trkpt><trkpt lat="43.1267691872714" lon="11.45225450997666"><ele>222.0</ele><time>2026-03-28T12:17:43.001Z</time></trkpt><trkpt lat="43.12675756854359" lon="11.452035697111485"><ele>223.0</ele><time>2026-03-28T12:17:44.001Z</time></trkpt><trkpt lat="43.126729584297365" lon="11.45178524276421"><ele>224.0</ele><time>2026-03-28T12:17:45.001Z</time></trkpt><trkpt lat="43.12669422670234" lon="11.451497517938403"><ele>225.0</ele><time>2026-03-28T12:17:46.001Z</time></trkpt><trkpt lat="43.12664431597575" lon="11.451200820812732"><ele>225.0</ele><time>2026-03-28T12:17:47.001Z</time></trkpt><trkpt lat="43.12657097141443" lon="11.450957035887749"><ele>225.0</ele><time>2026-03-28T12:17:48.001Z</time></trkpt><trkpt lat="43.12649663062504" lon="11.450745229916189"><ele>225.0</ele><time>2026-03-28T12:17:49.001Z</time></trkpt><trkpt lat="43.126423394629946" lon="11.450528651999907"><ele>227.0</ele><time>2026-03-28T12:17:50.001Z</time></trkpt><trkpt lat="43.12635357904992" lon="11.450302476714025"><ele>229.0</ele><time>2026-03-28T12:17:51.001Z</time></trkpt><trkpt lat="43.12629478021936" lon="11.450085896313709"><ele>231.0</ele><time>2026-03-28T12:17:52.001Z</time></trkpt><trkpt lat="43.12623871620698" lon="11.449904191564062"><ele>231.0</ele><time>2026-03-28T12:17:53.001Z</time></trkpt><trkpt lat="43.126183855468746" lon="11.449733317419657"><ele>231.0</ele><time>2026-03-28T12:17:54.001Z</time></trkpt><trkpt lat="43.12613085946057" lon="11.44957260894511"><ele>231.0</ele><time>2026-03-28T12:17:55.001Z</time></trkpt><trkpt lat="43.126056432445615" lon="11.449437530203623"><ele>231.0</ele><time>2026-03-28T12:17:56.001Z</time></trkpt><trkpt lat="43.125967685277786" lon="11.449308092190726"><ele>233.0</ele><time>2026-03-28T12:17:57.001Z</time></trkpt><trkpt lat="43.12584040573757" lon="11.449212369562881"><ele>235.0</ele><time>2026-03-28T12:17:58.001Z</time></trkpt><trkpt lat="43.12571364321398" lon="11.44914624581667"><ele>237.0</ele><time>2026-03-28T12:17:59.001Z</time></trkpt><trkpt lat="43.12561306755872" lon="11.449103822595456"><ele>239.0</ele><time>2026-03-28T12:18:00.001Z</time></trkpt><trkpt lat="43.12549162021795" lon="11.449059775608989"><ele>239.0</ele><time>2026-03-28T12:18:01.001Z</time></trkpt><trkpt lat="43.125364085127856" lon="11.449017633509655"><ele>238.99999999999997</ele><time>2026-03-28T12:18:02.001Z</time></trkpt><trkpt lat="43.12524709253672" lon="11.448995594899023"><ele>238.99999999999997</ele><time>2026-03-28T12:18:03.001Z</time></trkpt><trkpt lat="43.12515306485162" lon="11.448954648276196"><ele>239.0</ele><time>2026-03-28T12:18:04.001Z</time></trkpt><trkpt lat="43.12506159038205" lon="11.448908839492471"><ele>239.0</ele><time>2026-03-28T12:18:05.001Z</time></trkpt><trkpt lat="43.12497624026714" lon="11.448859639115168"><ele>239.0</ele><time>2026-03-28T12:18:06.001Z</time></trkpt><trkpt lat="43.12490445605703" lon="11.448800593690974"><ele>238.99999999999997</ele><time>2026-03-28T12:18:07.001Z</time></trkpt><trkpt lat="43.124844552076446" lon="11.448754236548435"><ele>238.99999999999997</ele><time>2026-03-28T12:18:08.001Z</time></trkpt><trkpt lat="43.12477611686341" lon="11.448712493668168"><ele>239.0</ele><time>2026-03-28T12:18:09.001Z</time></trkpt><trkpt lat="43.124701623640036" lon="11.448699671341116"><ele>239.0</ele><time>2026-03-28T12:18:10.001Z</time></trkpt><trkpt lat="43.124555769245845" lon="11.448794651863404"><ele>238.66666666666669</ele><time>2026-03-28T12:18:12.001Z</time></trkpt><trkpt lat="43.12449539703572" lon="11.44888154687546"><ele>238.33333333333334</ele><time>2026-03-28T12:18:13.001Z</time></trkpt><trkpt lat="43.124438817858916" lon="11.448979745108533"><ele>238.0</ele><time>2026-03-28T12:18:14.001Z</time></trkpt><trkpt lat="43.12438443701321" lon="11.449063478560474"><ele>237.66666666666669</ele><time>2026-03-28T12:18:15.001Z</time></trkpt><trkpt lat="43.124325102041254" lon="11.449134950748592"><ele>237.33333333333334</ele><time>2026-03-28T12:18:16.001Z</time></trkpt><trkpt lat="43.12425556176466" lon="11.449192452330815"><ele>237.0</ele><time>2026-03-28T12:18:17.001Z</time></trkpt><trkpt lat="43.124171539049364" lon="11.449235132936012"><ele>237.0</ele><time>2026-03-28T12:18:18.001Z</time></trkpt><trkpt lat="43.124073195394146" lon="11.44925319233077"><ele>237.0</ele><time>2026-03-28T12:18:19.001Z</time></trkpt><trkpt lat="43.123963919830786" lon="11.44923136447681"><ele>237.0</ele><time>2026-03-28T12:18:20.001Z</time></trkpt><trkpt lat="43.12382409018809" lon="11.449182120748446"><ele>237.0</ele><time>2026-03-28T12:18:21.001Z</time></trkpt><trkpt lat="43.123662608572864" lon="11.449120361210054"><ele>236.0</ele><time>2026-03-28T12:18:22.001Z</time></trkpt><trkpt lat="43.12350168200721" lon="11.449065055916424"><ele>235.0</ele><time>2026-03-28T12:18:23.001Z</time></trkpt><trkpt lat="43.12336417048933" lon="11.449017813321312"><ele>234.0</ele><time>2026-03-28T12:18:24.001Z</time></trkpt><trkpt lat="43.12322464577348" lon="11.448977879174608"><ele>233.25</ele><time>2026-03-28T12:18:25.001Z</time></trkpt><trkpt lat="43.12309526116042" lon="11.448932088814436"><ele>232.5</ele><time>2026-03-28T12:18:26.001Z</time></trkpt><trkpt lat="43.122972338977995" lon="11.448883363767392"><ele>231.75</ele><time>2026-03-28T12:18:27.001Z</time></trkpt><trkpt lat="43.12283753247942" lon="11.448845296437428"><ele>231.0</ele><time>2026-03-28T12:18:28.001Z</time></trkpt><trkpt lat="43.12270031423411" lon="11.448798118501763"><ele>230.66666666666669</ele><time>2026-03-28T12:18:29.001Z</time></trkpt><trkpt lat="43.12255526202896" lon="11.448739629204354"><ele>230.33333333333334</ele><time>2026-03-28T12:18:30.001Z</time></trkpt><trkpt lat="43.12238279844528" lon="11.448679618513342"><ele>230.0</ele><time>2026-03-28T12:18:31Z</time></trkpt><trkpt lat="43.122197247286714" lon="11.448613942534712"><ele>228.0</ele><time>2026-03-28T12:18:32Z</time></trkpt><trkpt lat="43.12203047402175" lon="11.448552341063182"><ele>226.0</ele><time>2026-03-28T12:18:33Z</time></trkpt><trkpt lat="43.12186569534903" lon="11.448499302844501"><ele>224.0</ele><time>2026-03-28T12:18:34Z</time></trkpt><trkpt lat="43.121709837621914" lon="11.448441992122408"><ele>224.0</ele><time>2026-03-28T12:18:35Z</time></trkpt><trkpt lat="43.121580446090476" lon="11.448376417715611"><ele>224.0</ele><time>2026-03-28T12:18:36Z</time></trkpt><trkpt lat="43.12146292703586" lon="11.448284876288598"><ele>224.0</ele><time>2026-03-28T12:18:37Z</time></trkpt><trkpt lat="43.12136772166713" lon="11.44814927468458"><ele>224.0</ele><time>2026-03-28T12:18:38Z</time></trkpt><trkpt lat="43.121287961943096" lon="11.447967187808842"><ele>221.66666666666669</ele><time>2026-03-28T12:18:39Z</time></trkpt><trkpt lat="43.12121055918451" lon="11.447755293123931"><ele>219.33333333333331</ele><time>2026-03-28T12:18:40Z</time></trkpt><trkpt lat="43.12113827340255" lon="11.447541213204866"><ele>217.0</ele><time>2026-03-28T12:18:41Z</time></trkpt><trkpt lat="43.121073689094715" lon="11.447344590960482"><ele>217.0</ele><time>2026-03-28T12:18:42Z</time></trkpt><trkpt lat="43.12101536860531" lon="11.447149407701431"><ele>217.0</ele><time>2026-03-28T12:18:43Z</time></trkpt><trkpt lat="43.12095782930646" lon="11.446950694682618"><ele>217.0</ele><time>2026-03-28T12:18:44Z</time></trkpt><trkpt lat="43.12089410631822" lon="11.446760307757017"><ele>216.0</ele><time>2026-03-28T12:18:45Z</time></trkpt><trkpt lat="43.12083756361021" lon="11.446579234123126"><ele>215.0</ele><time>2026-03-28T12:18:46Z</time></trkpt><trkpt lat="43.12078067076316" lon="11.44640275638681"><ele>214.0</ele><time>2026-03-28T12:18:47Z</time></trkpt><trkpt lat="43.12074207898318" lon="11.446243101747129"><ele>213.0</ele><time>2026-03-28T12:18:48Z</time></trkpt><trkpt lat="43.120699699629924" lon="11.446088213578058"><ele>212.5</ele><time>2026-03-28T12:18:49Z</time></trkpt><trkpt lat="43.1206857914068" lon="11.445942119629066"><ele>212.0</ele><time>2026-03-28T12:18:50Z</time></trkpt><trkpt lat="43.12070244977142" lon="11.445804998178815"><ele>211.5</ele><time>2026-03-28T12:18:51Z</time></trkpt><trkpt lat="43.12075247767194" lon="11.445643512799421"><ele>211.0</ele><time>2026-03-28T12:18:52Z</time></trkpt><trkpt lat="43.12081288726697" lon="11.445464024359135"><ele>211.0</ele><time>2026-03-28T12:18:53Z</time></trkpt><trkpt lat="43.120861479067834" lon="11.445288749470087"><ele>211.0</ele><time>2026-03-28T12:18:54Z</time></trkpt><trkpt lat="43.12089608472201" lon="11.445122575997946"><ele>211.0</ele><time>2026-03-28T12:18:55Z</time></trkpt><trkpt lat="43.12091135238937" lon="11.444968768013585"><ele>211.0</ele><time>2026-03-28T12:18:56Z</time></trkpt><trkpt lat="43.120900298333545" lon="11.444810867869325"><ele>211.0</ele><time>2026-03-28T12:18:57Z</time></trkpt><trkpt lat="43.12085538573879" lon="11.444663246444712"><ele>211.0</ele><time>2026-03-28T12:18:58Z</time></trkpt><trkpt lat="43.120770813789804" lon="11.444543088763046"><ele>211.0</ele><time>2026-03-28T12:18:59Z</time></trkpt><trkpt lat="43.12064311905217" lon="11.444442978553901"><ele>211.0</ele><time>2026-03-28T12:19:00Z</time></trkpt><trkpt lat="43.12048601288557" lon="11.44435352529061"><ele>208.66666666666666</ele><time>2026-03-28T12:19:01Z</time></trkpt><trkpt lat="43.120322242880626" lon="11.444256213228401"><ele>206.33333333333331</ele><time>2026-03-28T12:19:02Z</time></trkpt><trkpt lat="43.12016869528532" lon="11.44415669218413"><ele>204.0</ele><time>2026-03-28T12:19:03Z</time></trkpt><trkpt lat="43.12002979565638" lon="11.44406766530394"><ele>201.33333333333331</ele><time>2026-03-28T12:19:04Z</time></trkpt><trkpt lat="43.119891530391456" lon="11.443972883897153"><ele>198.66666666666666</ele><time>2026-03-28T12:19:05Z</time></trkpt><trkpt lat="43.11975241621513" lon="11.443877163231763"><ele>196.0</ele><time>2026-03-28T12:19:06Z</time></trkpt><trkpt lat="43.11961591792435" lon="11.443797300496515"><ele>194.75</ele><time>2026-03-28T12:19:07Z</time></trkpt><trkpt lat="43.11948297379765" lon="11.443718709341068"><ele>193.5</ele><time>2026-03-28T12:19:08Z</time></trkpt><trkpt lat="43.11935546862451" lon="11.443623357306718"><ele>192.25</ele><time>2026-03-28T12:19:09Z</time></trkpt><trkpt lat="43.11922676123621" lon="11.443530359689882"><ele>191.0</ele><time>2026-03-28T12:19:10Z</time></trkpt><trkpt lat="43.11911191253308" lon="11.443428093057367"><ele>190.0</ele><time>2026-03-28T12:19:11Z</time></trkpt><trkpt lat="43.11899343459875" lon="11.443333502038207"><ele>189.0</ele><time>2026-03-28T12:19:12Z</time></trkpt><trkpt lat="43.118886873019434" lon="11.443221494850174"><ele>188.0</ele><time>2026-03-28T12:19:13Z</time></trkpt><trkpt lat="43.11880755143919" lon="11.443082632895981"><ele>187.0</ele><time>2026-03-28T12:19:14Z</time></trkpt><trkpt lat="43.118704941962825" lon="11.44296991005183"><ele>184.25</ele><time>2026-03-28T12:19:15Z</time></trkpt><trkpt lat="43.118601239371365" lon="11.44284485632428"><ele>181.5</ele><time>2026-03-28T12:19:16Z</time></trkpt><trkpt lat="43.11851150536906" lon="11.442730910420327"><ele>178.75</ele><time>2026-03-28T12:19:17Z</time></trkpt><trkpt lat="43.11841140261129" lon="11.442636426469665"><ele>176.0</ele><time>2026-03-28T12:19:18Z</time></trkpt><trkpt lat="43.11831568814929" lon="11.442552927719685"><ele>176.0</ele><time>2026-03-28T12:19:19Z</time></trkpt><trkpt lat="43.11821762896625" lon="11.442475058874262"><ele>176.0</ele><time>2026-03-28T12:19:20Z</time></trkpt><trkpt lat="43.11812319912396" lon="11.442390540602007"><ele>176.0</ele><time>2026-03-28T12:19:21Z</time></trkpt><trkpt lat="43.11803111521208" lon="11.442317608209112"><ele>176.0</ele><time>2026-03-28T12:19:22Z</time></trkpt><trkpt lat="43.11794902768787" lon="11.442246337040048"><ele>176.0</ele><time>2026-03-28T12:19:23Z</time></trkpt><trkpt lat="43.1178683297676" lon="11.442189683133439"><ele>174.16666666666666</ele><time>2026-03-28T12:19:24Z</time></trkpt><trkpt lat="43.11779454245493" lon="11.442119628076886"><ele>172.33333333333331</ele><time>2026-03-28T12:19:25Z</time></trkpt><trkpt lat="43.11771941762317" lon="11.442059214008149"><ele>170.5</ele><time>2026-03-28T12:19:26Z</time></trkpt><trkpt lat="43.11765142815432" lon="11.442004504180158"><ele>168.66666666666666</ele><time>2026-03-28T12:19:27Z</time></trkpt><trkpt lat="43.11757883063136" lon="11.441972795174218"><ele>166.83333333333334</ele><time>2026-03-28T12:19:28Z</time></trkpt><trkpt lat="43.11750385108999" lon="11.44194196473694"><ele>165.0</ele><time>2026-03-28T12:19:29Z</time></trkpt><trkpt lat="43.11741589878277" lon="11.441939166530487"><ele>165.6</ele><time>2026-03-28T12:19:30Z</time></trkpt><trkpt lat="43.11731505372059" lon="11.441967316250725"><ele>166.2</ele><time>2026-03-28T12:19:31Z</time></trkpt><trkpt lat="43.11721536166348" lon="11.44201405304733"><ele>166.8</ele><time>2026-03-28T12:19:32Z</time></trkpt><trkpt lat="43.11712429762557" lon="11.442075006367652"><ele>167.4</ele><time>2026-03-28T12:19:33Z</time></trkpt><trkpt lat="43.117039819430794" lon="11.44211591502891"><ele>168.0</ele><time>2026-03-28T12:19:34Z</time></trkpt><trkpt lat="43.11696281718497" lon="11.44216009552866"><ele>168.0</ele><time>2026-03-28T12:19:35Z</time></trkpt><trkpt lat="43.116879672834955" lon="11.44220458251807"><ele>168.0</ele><time>2026-03-28T12:19:36Z</time></trkpt><trkpt lat="43.116799723404235" lon="11.442242955144605"><ele>168.0</ele><time>2026-03-28T12:19:37Z</time></trkpt><trkpt lat="43.11671749981424" lon="11.442258829581194"><ele>168.0</ele><time>2026-03-28T12:19:38Z</time></trkpt><trkpt lat="43.11663432740763" lon="11.4422496967068"><ele>168.0</ele><time>2026-03-28T12:19:39Z</time></trkpt><trkpt lat="43.11654049236155" lon="11.442242440928696"><ele>168.0</ele><time>2026-03-28T12:19:40.001Z</time></trkpt><trkpt lat="43.11646546100436" lon="11.44217486317802"><ele>165.75</ele><time>2026-03-28T12:19:41.001Z</time></trkpt><trkpt lat="43.11640258489985" lon="11.442067019155068"><ele>163.5</ele><time>2026-03-28T12:19:42.001Z</time></trkpt><trkpt lat="43.11631702310875" lon="11.441951795524986"><ele>161.25</ele><time>2026-03-28T12:19:43.001Z</time></trkpt><trkpt lat="43.11622628915888" lon="11.441832112021375"><ele>159.0</ele><time>2026-03-28T12:19:44.001Z</time></trkpt><trkpt lat="43.11613561073817" lon="11.441728173134772"><ele>159.0</ele><time>2026-03-28T12:19:45.001Z</time></trkpt><trkpt lat="43.11604636697904" lon="11.441643406885985"><ele>159.0</ele><time>2026-03-28T12:19:46.001Z</time></trkpt><trkpt lat="43.115969507263124" lon="11.44155807812216"><ele>159.0</ele><time>2026-03-28T12:19:47.001Z</time></trkpt><trkpt lat="43.115902180283065" lon="11.441472870727372"><ele>159.0</ele><time>2026-03-28T12:19:48.001Z</time></trkpt><trkpt lat="43.11583798514437" lon="11.441389674850013"><ele>159.0</ele><time>2026-03-28T12:19:49.001Z</time></trkpt><trkpt lat="43.11576548860071" lon="11.441321203108794"><ele>156.6</ele><time>2026-03-28T12:19:50.001Z</time></trkpt><trkpt lat="43.11569342319877" lon="11.441261614372285"><ele>154.2</ele><time>2026-03-28T12:19:51.001Z</time></trkpt><trkpt lat="43.11561021145212" lon="11.441217847238658"><ele>151.79999999999998</ele><time>2026-03-28T12:19:52.001Z</time></trkpt><trkpt lat="43.11551173905842" lon="11.441212316412102"><ele>149.4</ele><time>2026-03-28T12:19:53.001Z</time></trkpt><trkpt lat="43.11540139330788" lon="11.441233461999328"><ele>147.0</ele><time>2026-03-28T12:19:54.001Z</time></trkpt><trkpt lat="43.115271480619555" lon="11.441235570593065"><ele>147.0</ele><time>2026-03-28T12:19:55.001Z</time></trkpt><trkpt lat="43.11513621394803" lon="11.441265030061805"><ele>147.0</ele><time>2026-03-28T12:19:56.001Z</time></trkpt><trkpt lat="43.11500226252464" lon="11.441306679130468"><ele>147.0</ele><time>2026-03-28T12:19:57.001Z</time></trkpt><trkpt lat="43.114884480451416" lon="11.441317386782085"><ele>147.0</ele><time>2026-03-28T12:19:58.001Z</time></trkpt><trkpt lat="43.114775555117966" lon="11.44132369247627"><ele>145.79999999999998</ele><time>2026-03-28T12:19:59.001Z</time></trkpt><trkpt lat="43.11466466799288" lon="11.44133846589461"><ele>144.6</ele><time>2026-03-28T12:20:00.001Z</time></trkpt><trkpt lat="43.11456362929063" lon="11.441336512756203"><ele>143.39999999999998</ele><time>2026-03-28T12:20:01.001Z</time></trkpt><trkpt lat="43.11447146022234" lon="11.441348208430517"><ele>142.2</ele><time>2026-03-28T12:20:02.001Z</time></trkpt><trkpt lat="43.114370298679255" lon="11.44134390984252"><ele>141.0</ele><time>2026-03-28T12:20:03.001Z</time></trkpt><trkpt lat="43.11425738908337" lon="11.441351154043508"><ele>141.0</ele><time>2026-03-28T12:20:04.001Z</time></trkpt><trkpt lat="43.11413240782957" lon="11.441382833087046"><ele>141.0</ele><time>2026-03-28T12:20:05.001Z</time></trkpt><trkpt lat="43.11400039225565" lon="11.441386281692834"><ele>141.0</ele><time>2026-03-28T12:20:06.001Z</time></trkpt><trkpt lat="43.113857548975915" lon="11.441403162777677"><ele>141.0</ele><time>2026-03-28T12:20:07.001Z</time></trkpt><trkpt lat="43.11370357513714" lon="11.441411291740808"><ele>140.0</ele><time>2026-03-28T12:20:08.001Z</time></trkpt><trkpt lat="43.11354419722251" lon="11.441426555855683"><ele>139.0</ele><time>2026-03-28T12:20:09.001Z</time></trkpt><trkpt lat="43.113379738954976" lon="11.441442016094253"><ele>138.0</ele><time>2026-03-28T12:20:10.001Z</time></trkpt><trkpt lat="43.11322791560936" lon="11.441455163057372"><ele>137.66666666666666</ele><time>2026-03-28T12:20:11.001Z</time></trkpt><trkpt lat="43.113076862500435" lon="11.441470191359624"><ele>137.33333333333331</ele><time>2026-03-28T12:20:12.001Z</time></trkpt><trkpt lat="43.112931375956855" lon="11.441482030196187"><ele>137.0</ele><time>2026-03-28T12:20:13.001Z</time></trkpt><trkpt lat="43.11277920801622" lon="11.44149199115227"><ele>137.0</ele><time>2026-03-28T12:20:14.001Z</time></trkpt><trkpt lat="43.11262317630247" lon="11.441504410284933"><ele>137.0</ele><time>2026-03-28T12:20:15.001Z</time></trkpt><trkpt lat="43.112480013424666" lon="11.44151831607216"><ele>137.0</ele><time>2026-03-28T12:20:16.001Z</time></trkpt><trkpt lat="43.11235238533594" lon="11.441536624163275"><ele>137.0</ele><time>2026-03-28T12:20:17.001Z</time></trkpt><trkpt lat="43.112226311429446" lon="11.441544278000283"><ele>136.79999999999998</ele><time>2026-03-28T12:20:18.001Z</time></trkpt><trkpt lat="43.11210810703931" lon="11.441549662691939"><ele>136.6</ele><time>2026-03-28T12:20:19.001Z</time></trkpt><trkpt lat="43.112001652055234" lon="11.441559752951138"><ele>136.39999999999998</ele><time>2026-03-28T12:20:20.001Z</time></trkpt><trkpt lat="43.11191161694112" lon="11.441564992819584"><ele>136.2</ele><time>2026-03-28T12:20:21.001Z</time></trkpt><trkpt lat="43.11183298757092" lon="11.441575359000701"><ele>136.0</ele><time>2026-03-28T12:20:22.001Z</time></trkpt><trkpt lat="43.1117648276686" lon="11.441577139199488"><ele>136.0</ele><time>2026-03-28T12:20:23.001Z</time></trkpt><trkpt lat="43.111662307954695" lon="11.44157668493829"><ele>136.0</ele><time>2026-03-28T12:20:25.001Z</time></trkpt><trkpt lat="43.11158359015981" lon="11.44156608390508"><ele>136.0</ele><time>2026-03-28T12:20:28.001Z</time></trkpt><trkpt lat="43.11152681607628" lon="11.44161266102025"><ele>136.0</ele><time>2026-03-28T12:26:02Z</time></trkpt><trkpt lat="43.11145610430853" lon="11.441626891904008"><ele>136.0</ele><time>2026-03-28T12:26:04Z</time></trkpt><trkpt lat="43.111378192563954" lon="11.441640470511723"><ele>136.0</ele><time>2026-03-28T12:26:06Z</time></trkpt><trkpt lat="43.111276280965626" lon="11.441655359348427"><ele>135.75</ele><time>2026-03-28T12:26:08Z</time></trkpt><trkpt lat="43.111141768335585" lon="11.441676970515383"><ele>135.5</ele><time>2026-03-28T12:26:10Z</time></trkpt><trkpt lat="43.11104034357795" lon="11.441696421119683"><ele>135.25</ele><time>2026-03-28T12:26:11Z</time></trkpt><trkpt lat="43.1109117089446" lon="11.441716174357104"><ele>135.0</ele><time>2026-03-28T12:26:12Z</time></trkpt><trkpt lat="43.110758711843545" lon="11.441724917004153"><ele>134.5</ele><time>2026-03-28T12:26:13Z</time></trkpt><trkpt lat="43.1106225647907" lon="11.441721546682318"><ele>134.0</ele><time>2026-03-28T12:26:14Z</time></trkpt><trkpt lat="43.11049511464022" lon="11.441723556882117"><ele>133.5</ele><time>2026-03-28T12:26:15Z</time></trkpt><trkpt lat="43.11036177581163" lon="11.441724889104464"><ele>133.0</ele><time>2026-03-28T12:26:16.001Z</time></trkpt><trkpt lat="43.11022953751462" lon="11.441747886496946"><ele>133.0</ele><time>2026-03-28T12:26:17.001Z</time></trkpt><trkpt lat="43.110085651943436" lon="11.441783252726932"><ele>133.0</ele><time>2026-03-28T12:26:18.001Z</time></trkpt><trkpt lat="43.109927978180195" lon="11.441817389313016"><ele>133.0</ele><time>2026-03-28T12:26:19.001Z</time></trkpt><trkpt lat="43.10977129411616" lon="11.441912642610067"><ele>133.0</ele><time>2026-03-28T12:26:20.001Z</time></trkpt><trkpt lat="43.10959501664355" lon="11.441992375362055"><ele>133.0</ele><time>2026-03-28T12:26:21.001Z</time></trkpt><trkpt lat="43.109411372310355" lon="11.442064944419522"><ele>133.0</ele><time>2026-03-28T12:26:22.001Z</time></trkpt><trkpt lat="43.10923797781176" lon="11.442117624030347"><ele>133.0</ele><time>2026-03-28T12:26:23.001Z</time></trkpt><trkpt lat="43.10907168606869" lon="11.442164194736407"><ele>133.0</ele><time>2026-03-28T12:26:24.001Z</time></trkpt><trkpt lat="43.108913852007866" lon="11.44220550604819"><ele>133.0</ele><time>2026-03-28T12:26:25.001Z</time></trkpt><trkpt lat="43.108751162728225" lon="11.442246094041383"><ele>133.0</ele><time>2026-03-28T12:26:26.001Z</time></trkpt><trkpt lat="43.10858906816888" lon="11.44227874749899"><ele>133.0</ele><time>2026-03-28T12:26:27.001Z</time></trkpt><trkpt lat="43.10843729186642" lon="11.442310772696421"><ele>133.0</ele><time>2026-03-28T12:26:28.001Z</time></trkpt><trkpt lat="43.10829741957443" lon="11.4423323409095"><ele>133.25</ele><time>2026-03-28T12:26:29.001Z</time></trkpt><trkpt lat="43.10816067761366" lon="11.442354691967681"><ele>133.5</ele><time>2026-03-28T12:26:30.001Z</time></trkpt><trkpt lat="43.10803962673486" lon="11.44238413052412"><ele>133.75</ele><time>2026-03-28T12:26:31.001Z</time></trkpt><trkpt lat="43.107924917547" lon="11.442408389154755"><ele>134.0</ele><time>2026-03-28T12:26:32.001Z</time></trkpt><trkpt lat="43.10782273535526" lon="11.442435043472644"><ele>134.0</ele><time>2026-03-28T12:26:33.001Z</time></trkpt><trkpt lat="43.10771801501831" lon="11.442452408492157"><ele>134.0</ele><time>2026-03-28T12:26:34.001Z</time></trkpt><trkpt lat="43.10761409181852" lon="11.44245576208093"><ele>134.0</ele><time>2026-03-28T12:26:35.001Z</time></trkpt><trkpt lat="43.10751624769938" lon="11.442434280489506"><ele>134.0</ele><time>2026-03-28T12:26:36.001Z</time></trkpt><trkpt lat="43.10741881614957" lon="11.442383903165345"><ele>134.0</ele><time>2026-03-28T12:26:37.001Z</time></trkpt><trkpt lat="43.10733803339422" lon="11.44227668343654"><ele>133.25</ele><time>2026-03-28T12:26:38.001Z</time></trkpt><trkpt lat="43.10725308275695" lon="11.44214440778414"><ele>132.5</ele><time>2026-03-28T12:26:39.001Z</time></trkpt><trkpt lat="43.10714529569328" lon="11.441985023419267"><ele>131.75</ele><time>2026-03-28T12:26:40.001Z</time></trkpt><trkpt lat="43.10703773271669" lon="11.441827747076559"><ele>131.0</ele><time>2026-03-28T12:26:41.001Z</time></trkpt><trkpt lat="43.10691314001537" lon="11.441655611177467"><ele>131.0</ele><time>2026-03-28T12:26:42.001Z</time></trkpt><trkpt lat="43.10678255949843" lon="11.441476069021977"><ele>131.0</ele><time>2026-03-28T12:26:43.001Z</time></trkpt><trkpt lat="43.10666691120346" lon="11.441310255235678"><ele>131.0</ele><time>2026-03-28T12:26:44.001Z</time></trkpt><trkpt lat="43.106549491341084" lon="11.44114012231169"><ele>131.0</ele><time>2026-03-28T12:26:45.001Z</time></trkpt><trkpt lat="43.10642948064786" lon="11.44096976965834"><ele>131.0</ele><time>2026-03-28T12:26:46.001Z</time></trkpt><trkpt lat="43.106309548249286" lon="11.440800625651752"><ele>131.0</ele><time>2026-03-28T12:26:47.001Z</time></trkpt><trkpt lat="43.10618743925941" lon="11.440628411387744"><ele>131.0</ele><time>2026-03-28T12:26:48.001Z</time></trkpt><trkpt lat="43.106069347702025" lon="11.440461863442701"><ele>131.0</ele><time>2026-03-28T12:26:49.001Z</time></trkpt><trkpt lat="43.105953420356805" lon="11.440298367480695"><ele>131.0</ele><time>2026-03-28T12:26:50.001Z</time></trkpt><trkpt lat="43.10583465624722" lon="11.440135696448829"><ele>130.66666666666666</ele><time>2026-03-28T12:26:51.001Z</time></trkpt><trkpt lat="43.105717044625464" lon="11.439985086082043"><ele>130.33333333333334</ele><time>2026-03-28T12:26:52.001Z</time></trkpt><trkpt lat="43.105606848577196" lon="11.439850870979116"><ele>130.0</ele><time>2026-03-28T12:26:53.001Z</time></trkpt><trkpt lat="43.10550014151801" lon="11.439719497455128"><ele>129.75</ele><time>2026-03-28T12:26:54.001Z</time></trkpt><trkpt lat="43.105400423556745" lon="11.439588645605488"><ele>129.5</ele><time>2026-03-28T12:26:54.999Z</time></trkpt><trkpt lat="43.10530484108016" lon="11.439451728576952"><ele>129.25</ele><time>2026-03-28T12:26:55.999Z</time></trkpt><trkpt lat="43.10521856264505" lon="11.439316419550224"><ele>129.0</ele><time>2026-03-28T12:26:56.999Z</time></trkpt><trkpt lat="43.105136233574996" lon="11.439160248182498"><ele>129.0</ele><time>2026-03-28T12:26:57.999Z</time></trkpt><trkpt lat="43.10503892027245" lon="11.438996047551644"><ele>129.0</ele><time>2026-03-28T12:26:58.999Z</time></trkpt><trkpt lat="43.10493554965945" lon="11.438833701331307"><ele>129.0</ele><time>2026-03-28T12:26:59.999Z</time></trkpt><trkpt lat="43.10483090962711" lon="11.438673787365284"><ele>129.66666666666666</ele><time>2026-03-28T12:27:00.999Z</time></trkpt><trkpt lat="43.10472337309877" lon="11.438519819916547"><ele>130.33333333333331</ele><time>2026-03-28T12:27:01.999Z</time></trkpt><trkpt lat="43.10461161571966" lon="11.43836532910967"><ele>131.0</ele><time>2026-03-28T12:27:02.999Z</time></trkpt><trkpt lat="43.10448448723964" lon="11.43822305602987"><ele>131.0</ele><time>2026-03-28T12:27:03.999Z</time></trkpt><trkpt lat="43.10436643668151" lon="11.43805504652643"><ele>131.0</ele><time>2026-03-28T12:27:04.999Z</time></trkpt><trkpt lat="43.104242961019196" lon="11.437878137473222"><ele>131.0</ele><time>2026-03-28T12:27:05.999Z</time></trkpt><trkpt lat="43.1041147046492" lon="11.437696074041686"><ele>131.33333333333331</ele><time>2026-03-28T12:27:06.999Z</time></trkpt><trkpt lat="43.10397641346547" lon="11.437500526510199"><ele>131.66666666666666</ele><time>2026-03-28T12:27:07.999Z</time></trkpt><trkpt lat="43.10384426624232" lon="11.437319829403398"><ele>132.0</ele><time>2026-03-28T12:27:08.999Z</time></trkpt><trkpt lat="43.10373589949907" lon="11.437141466072294"><ele>132.66666666666666</ele><time>2026-03-28T12:27:09.999Z</time></trkpt><trkpt lat="43.103622873668236" lon="11.436980909436162"><ele>133.33333333333331</ele><time>2026-03-28T12:27:10.999Z</time></trkpt><trkpt lat="43.10351308001559" lon="11.43682573315452"><ele>134.0</ele><time>2026-03-28T12:27:12Z</time></trkpt><trkpt lat="43.10341577434454" lon="11.436687847380073"><ele>134.0</ele><time>2026-03-28T12:27:13Z</time></trkpt><trkpt lat="43.10331731202009" lon="11.436547900165746"><ele>134.0</ele><time>2026-03-28T12:27:14Z</time></trkpt><trkpt lat="43.10321297177477" lon="11.43640100197709"><ele>134.0</ele><time>2026-03-28T12:27:15Z</time></trkpt><trkpt lat="43.10308638292599" lon="11.436260864562712"><ele>134.66666666666666</ele><time>2026-03-28T12:27:16Z</time></trkpt><trkpt lat="43.102981119897215" lon="11.436091116882213"><ele>135.33333333333334</ele><time>2026-03-28T12:27:17Z</time></trkpt><trkpt lat="43.102855529946204" lon="11.435948954893513"><ele>136.0</ele><time>2026-03-28T12:27:18Z</time></trkpt><trkpt lat="43.10275081230044" lon="11.435800452428513"><ele>136.0</ele><time>2026-03-28T12:27:19Z</time></trkpt><trkpt lat="43.102655538296275" lon="11.435662808246668"><ele>136.0</ele><time>2026-03-28T12:27:20Z</time></trkpt><trkpt lat="43.102557048960584" lon="11.435523118605776"><ele>136.0</ele><time>2026-03-28T12:27:21Z</time></trkpt><trkpt lat="43.10246062889624" lon="11.435378806558319"><ele>136.0</ele><time>2026-03-28T12:27:22Z</time></trkpt><trkpt lat="43.10236670581831" lon="11.435234377444383"><ele>136.75</ele><time>2026-03-28T12:27:23Z</time></trkpt><trkpt lat="43.10228675889602" lon="11.435095204688057"><ele>137.5</ele><time>2026-03-28T12:27:24Z</time></trkpt><trkpt lat="43.10222360006619" lon="11.434963756906619"><ele>138.25</ele><time>2026-03-28T12:27:25Z</time></trkpt><trkpt lat="43.10221073534075" lon="11.434810599104734"><ele>139.0</ele><time>2026-03-28T12:27:26Z</time></trkpt><trkpt lat="43.10220054860806" lon="11.4346688539404"><ele>140.5</ele><time>2026-03-28T12:27:27Z</time></trkpt><trkpt lat="43.102210580522346" lon="11.434527681495112"><ele>142.0</ele><time>2026-03-28T12:27:28Z</time></trkpt><trkpt lat="43.10223843566261" lon="11.434369183800372"><ele>143.5</ele><time>2026-03-28T12:27:29Z</time></trkpt><trkpt lat="43.10227527673211" lon="11.434164017026632"><ele>145.0</ele><time>2026-03-28T12:27:30Z</time></trkpt><trkpt lat="43.10230901855761" lon="11.43396768869413"><ele>146.25</ele><time>2026-03-28T12:27:31Z</time></trkpt><trkpt lat="43.10233546184606" lon="11.433791467802495"><ele>147.5</ele><time>2026-03-28T12:27:32Z</time></trkpt><trkpt lat="43.10233263826756" lon="11.433636517999407"><ele>148.75</ele><time>2026-03-28T12:27:33Z</time></trkpt><trkpt lat="43.10233597075967" lon="11.433488360980078"><ele>150.0</ele><time>2026-03-28T12:27:34Z</time></trkpt><trkpt lat="43.10234958682665" lon="11.433337767373114"><ele>150.0</ele><time>2026-03-28T12:27:35Z</time></trkpt><trkpt lat="43.102333334898724" lon="11.433182884363186"><ele>150.0</ele><time>2026-03-28T12:27:36Z</time></trkpt><trkpt lat="43.10230153792853" lon="11.43302990135994"><ele>150.0</ele><time>2026-03-28T12:27:37Z</time></trkpt><trkpt lat="43.10226160402153" lon="11.432887216289172"><ele>150.0</ele><time>2026-03-28T12:27:38Z</time></trkpt><trkpt lat="43.10221269066973" lon="11.432760459483363"><ele>150.0</ele><time>2026-03-28T12:27:39Z</time></trkpt><trkpt lat="43.10213274329683" lon="11.432660515533096"><ele>149.0</ele><time>2026-03-28T12:27:40Z</time></trkpt><trkpt lat="43.10204709435104" lon="11.43256005475997"><ele>148.0</ele><time>2026-03-28T12:27:41Z</time></trkpt><trkpt lat="43.10195492127684" lon="11.432489210725068"><ele>147.0</ele><time>2026-03-28T12:27:42Z</time></trkpt><trkpt lat="43.10184965052075" lon="11.432449762406165"><ele>146.0</ele><time>2026-03-28T12:27:43Z</time></trkpt><trkpt lat="43.10172139065954" lon="11.432433117489875"><ele>148.0</ele><time>2026-03-28T12:27:44Z</time></trkpt><trkpt lat="43.10155680523377" lon="11.4324315879294"><ele>150.0</ele><time>2026-03-28T12:27:45Z</time></trkpt><trkpt lat="43.1013677401361" lon="11.432411143563183"><ele>152.0</ele><time>2026-03-28T12:27:46Z</time></trkpt><trkpt lat="43.10113492055178" lon="11.432387189078689"><ele>152.0</ele><time>2026-03-28T12:27:47Z</time></trkpt><trkpt lat="43.100886075091275" lon="11.432367549989628"><ele>152.0</ele><time>2026-03-28T12:27:48Z</time></trkpt><trkpt lat="43.10065830848266" lon="11.432353868195605"><ele>154.0</ele><time>2026-03-28T12:27:49Z</time></trkpt><trkpt lat="43.10044319381813" lon="11.432335355126142"><ele>156.0</ele><time>2026-03-28T12:27:50Z</time></trkpt><trkpt lat="43.10023238020445" lon="11.43232355553902"><ele>158.0</ele><time>2026-03-28T12:27:51Z</time></trkpt><trkpt lat="43.10003909265721" lon="11.432282332976145"><ele>159.0</ele><time>2026-03-28T12:27:52Z</time></trkpt><trkpt lat="43.099854848601176" lon="11.432263910876925"><ele>160.0</ele><time>2026-03-28T12:27:53Z</time></trkpt><trkpt lat="43.099681002346706" lon="11.43226926387572"><ele>161.0</ele><time>2026-03-28T12:27:54Z</time></trkpt><trkpt lat="43.09951739960658" lon="11.432246167494801"><ele>161.0</ele><time>2026-03-28T12:27:55Z</time></trkpt><trkpt lat="43.0993686259295" lon="11.432230237505197"><ele>161.0</ele><time>2026-03-28T12:27:56Z</time></trkpt><trkpt lat="43.09922886771226" lon="11.432217235766023"><ele>161.0</ele><time>2026-03-28T12:27:57Z</time></trkpt><trkpt lat="43.09909441004628" lon="11.432206531872517"><ele>161.0</ele><time>2026-03-28T12:27:58Z</time></trkpt><trkpt lat="43.098951300094306" lon="11.432175437078355"><ele>160.0</ele><time>2026-03-28T12:27:59Z</time></trkpt><trkpt lat="43.098812293720805" lon="11.432154109044678"><ele>159.0</ele><time>2026-03-28T12:28:00Z</time></trkpt><trkpt lat="43.098667064255665" lon="11.43211723620834"><ele>158.0</ele><time>2026-03-28T12:28:01Z</time></trkpt><trkpt lat="43.098533582514605" lon="11.432042106430606"><ele>157.0</ele><time>2026-03-28T12:28:02.001Z</time></trkpt><trkpt lat="43.09841013933465" lon="11.431946533317204"><ele>159.0</ele><time>2026-03-28T12:28:03.001Z</time></trkpt><trkpt lat="43.09828118565251" lon="11.431837203576366"><ele>161.0</ele><time>2026-03-28T12:28:04.001Z</time></trkpt><trkpt lat="43.09814191905796" lon="11.431716165589798"><ele>163.0</ele><time>2026-03-28T12:28:05.001Z</time></trkpt><trkpt lat="43.09799171852536" lon="11.431590465368439"><ele>163.0</ele><time>2026-03-28T12:28:06.001Z</time></trkpt><trkpt lat="43.09784504216981" lon="11.43147397696862"><ele>163.0</ele><time>2026-03-28T12:28:07.001Z</time></trkpt><trkpt lat="43.0976998686164" lon="11.431355526398116"><ele>163.0</ele><time>2026-03-28T12:28:08.001Z</time></trkpt><trkpt lat="43.09756737088655" lon="11.431241612813796"><ele>164.33333333333334</ele><time>2026-03-28T12:28:09.001Z</time></trkpt><trkpt lat="43.09743957193341" lon="11.43112840540223"><ele>165.66666666666666</ele><time>2026-03-28T12:28:10.001Z</time></trkpt><trkpt lat="43.09729526881716" lon="11.431007752407746"><ele>167.0</ele><time>2026-03-28T12:28:11.001Z</time></trkpt><trkpt lat="43.0971507966956" lon="11.430894525445678"><ele>167.0</ele><time>2026-03-28T12:28:12.001Z</time></trkpt><trkpt lat="43.097012690251624" lon="11.43080837238061"><ele>167.0</ele><time>2026-03-28T12:28:13.001Z</time></trkpt><trkpt lat="43.096891778227615" lon="11.430710014692396"><ele>167.0</ele><time>2026-03-28T12:28:14.001Z</time></trkpt><trkpt lat="43.09678273731695" lon="11.43058237072947"><ele>167.0</ele><time>2026-03-28T12:28:15.001Z</time></trkpt><trkpt lat="43.096650654727334" lon="11.430465243983171"><ele>168.33333333333331</ele><time>2026-03-28T12:28:16.001Z</time></trkpt><trkpt lat="43.096527866997796" lon="11.430308344122453"><ele>169.66666666666666</ele><time>2026-03-28T12:28:17.001Z</time></trkpt><trkpt lat="43.096404721217525" lon="11.430145993332486"><ele>171.0</ele><time>2026-03-28T12:28:18.001Z</time></trkpt><trkpt lat="43.09628909030106" lon="11.429991695184015"><ele>171.0</ele><time>2026-03-28T12:28:19.001Z</time></trkpt><trkpt lat="43.096178883926086" lon="11.42985575982452"><ele>171.0</ele><time>2026-03-28T12:28:20.001Z</time></trkpt><trkpt lat="43.09606859368974" lon="11.429725257472473"><ele>171.0</ele><time>2026-03-28T12:28:21.001Z</time></trkpt><trkpt lat="43.09594267956265" lon="11.429607296812849"><ele>171.0</ele><time>2026-03-28T12:28:22.001Z</time></trkpt><trkpt lat="43.09580086923085" lon="11.429494318983275"><ele>173.66666666666666</ele><time>2026-03-28T12:28:23.001Z</time></trkpt><trkpt lat="43.09563461845785" lon="11.4293835698006"><ele>176.33333333333331</ele><time>2026-03-28T12:28:24.001Z</time></trkpt><trkpt lat="43.0954646572079" lon="11.429261491397149"><ele>179.0</ele><time>2026-03-28T12:28:25.001Z</time></trkpt><trkpt lat="43.0952929729995" lon="11.429111277007094"><ele>179.0</ele><time>2026-03-28T12:28:26.001Z</time></trkpt><trkpt lat="43.0951027636074" lon="11.428973412167942"><ele>179.0</ele><time>2026-03-28T12:28:27.001Z</time></trkpt><trkpt lat="43.09490352970713" lon="11.428845017925202"><ele>179.0</ele><time>2026-03-28T12:28:28.001Z</time></trkpt><trkpt lat="43.09471792739167" lon="11.428708328239376"><ele>181.33333333333331</ele><time>2026-03-28T12:28:29.001Z</time></trkpt><trkpt lat="43.094535994854745" lon="11.428575031435535"><ele>183.66666666666666</ele><time>2026-03-28T12:28:30.001Z</time></trkpt><trkpt lat="43.094344789964985" lon="11.428432663137333"><ele>186.0</ele><time>2026-03-28T12:28:31.001Z</time></trkpt><trkpt lat="43.09414407862602" lon="11.428287344315931"><ele>187.0</ele><time>2026-03-28T12:28:32.001Z</time></trkpt><trkpt lat="43.093943355359094" lon="11.428137170705758"><ele>188.0</ele><time>2026-03-28T12:28:33.001Z</time></trkpt><trkpt lat="43.09373631646288" lon="11.427980859226555"><ele>189.0</ele><time>2026-03-28T12:28:34.001Z</time></trkpt><trkpt lat="43.09353095669602" lon="11.427838866634058"><ele>190.0</ele><time>2026-03-28T12:28:35.001Z</time></trkpt><trkpt lat="43.09335696973431" lon="11.427713767620418"><ele>191.0</ele><time>2026-03-28T12:28:36.001Z</time></trkpt><trkpt lat="43.093190746028945" lon="11.427598580152896"><ele>192.0</ele><time>2026-03-28T12:28:37.001Z</time></trkpt><trkpt lat="43.09302159724283" lon="11.427475371984906"><ele>193.0</ele><time>2026-03-28T12:28:38.001Z</time></trkpt><trkpt lat="43.09283797849366" lon="11.427346300183896"><ele>194.0</ele><time>2026-03-28T12:28:39.001Z</time></trkpt><trkpt lat="43.092650847095186" lon="11.427211358683357"><ele>195.0</ele><time>2026-03-28T12:28:40.001Z</time></trkpt><trkpt lat="43.09246166750478" lon="11.42707068913895"><ele>196.0</ele><time>2026-03-28T12:28:41.001Z</time></trkpt><trkpt lat="43.09228581897562" lon="11.426943154825267"><ele>197.0</ele><time>2026-03-28T12:28:42.001Z</time></trkpt><trkpt lat="43.09211872825632" lon="11.42682940245515"><ele>198.0</ele><time>2026-03-28T12:28:43.001Z</time></trkpt><trkpt lat="43.09195363977785" lon="11.426698761652492"><ele>199.0</ele><time>2026-03-28T12:28:44.001Z</time></trkpt><trkpt lat="43.09178549734829" lon="11.426581697071363"><ele>200.0</ele><time>2026-03-28T12:28:45.001Z</time></trkpt><trkpt lat="43.09163887221403" lon="11.426448512867658"><ele>199.75</ele><time>2026-03-28T12:28:46.001Z</time></trkpt><trkpt lat="43.091501889216914" lon="11.42634126534449"><ele>199.5</ele><time>2026-03-28T12:28:47.001Z</time></trkpt><trkpt lat="43.0913791802315" lon="11.426243129003227"><ele>199.25</ele><time>2026-03-28T12:28:48.001Z</time></trkpt><trkpt lat="43.09126683356901" lon="11.426154831716552"><ele>199.0</ele><time>2026-03-28T12:28:49.001Z</time></trkpt><trkpt lat="43.09114786810685" lon="11.426071882987118"><ele>200.33333333333331</ele><time>2026-03-28T12:28:50.001Z</time></trkpt><trkpt lat="43.091012884339875" lon="11.426009099732907"><ele>201.66666666666669</ele><time>2026-03-28T12:28:51.001Z</time></trkpt><trkpt lat="43.09086926171443" lon="11.425936438695935"><ele>203.0</ele><time>2026-03-28T12:28:52.001Z</time></trkpt><trkpt lat="43.09069381261812" lon="11.42589336561053"><ele>205.0</ele><time>2026-03-28T12:28:53.001Z</time></trkpt><trkpt lat="43.09050114368828" lon="11.42586068705614"><ele>207.0</ele><time>2026-03-28T12:28:54.001Z</time></trkpt><trkpt lat="43.09028145973152" lon="11.425775004628454"><ele>209.0</ele><time>2026-03-28T12:28:55.001Z</time></trkpt><trkpt lat="43.09007913522235" lon="11.425742669054001"><ele>210.66666666666669</ele><time>2026-03-28T12:28:56.001Z</time></trkpt><trkpt lat="43.08990152367019" lon="11.425693643351812"><ele>212.33333333333331</ele><time>2026-03-28T12:28:57.001Z</time></trkpt><trkpt lat="43.089736906785866" lon="11.425646783061948"><ele>214.0</ele><time>2026-03-28T12:28:58.001Z</time></trkpt><trkpt lat="43.089597247844004" lon="11.425590529146245"><ele>214.0</ele><time>2026-03-28T12:28:59.001Z</time></trkpt><trkpt lat="43.08945374969901" lon="11.425570774803004"><ele>214.0</ele><time>2026-03-28T12:29:00.001Z</time></trkpt><trkpt lat="43.08932722647502" lon="11.425530206943225"><ele>214.0</ele><time>2026-03-28T12:29:01Z</time></trkpt><trkpt lat="43.08921726061338" lon="11.425497951317041"><ele>214.0</ele><time>2026-03-28T12:29:02Z</time></trkpt><trkpt lat="43.08912343402139" lon="11.425462448940642"><ele>219.2</ele><time>2026-03-28T12:29:03Z</time></trkpt><trkpt lat="43.089045470919686" lon="11.425386305900902"><ele>224.39999999999998</ele><time>2026-03-28T12:29:04Z</time></trkpt><trkpt lat="43.08898171314845" lon="11.425300404140172"><ele>229.6</ele><time>2026-03-28T12:29:05Z</time></trkpt><trkpt lat="43.08894673157118" lon="11.425196722336338"><ele>234.8</ele><time>2026-03-28T12:29:06Z</time></trkpt><trkpt lat="43.08894612586284" lon="11.425067719700728"><ele>240.0</ele><time>2026-03-28T12:29:07Z</time></trkpt><trkpt lat="43.08895572725352" lon="11.424905930684686"><ele>240.0</ele><time>2026-03-28T12:29:08Z</time></trkpt><trkpt lat="43.08897615162593" lon="11.424744410872606"><ele>240.0</ele><time>2026-03-28T12:29:09Z</time></trkpt><trkpt lat="43.088994806751955" lon="11.424584685418807"><ele>240.0</ele><time>2026-03-28T12:29:10Z</time></trkpt><trkpt lat="43.0890249679774" lon="11.424427575535075"><ele>240.0</ele><time>2026-03-28T12:29:11Z</time></trkpt><trkpt lat="43.08905445707816" lon="11.424268258889294"><ele>239.6</ele><time>2026-03-28T12:29:12Z</time></trkpt><trkpt lat="43.089083483460016" lon="11.424109211886048"><ele>239.2</ele><time>2026-03-28T12:29:13Z</time></trkpt><trkpt lat="43.08911157031565" lon="11.423958988439967"><ele>238.8</ele><time>2026-03-28T12:29:14Z</time></trkpt><trkpt lat="43.08914024319439" lon="11.42382362468282"><ele>238.4</ele><time>2026-03-28T12:29:15Z</time></trkpt><trkpt lat="43.08916169421059" lon="11.42367741560592"><ele>238.0</ele><time>2026-03-28T12:29:16Z</time></trkpt><trkpt lat="43.089174641017586" lon="11.423540662248728"><ele>238.0</ele><time>2026-03-28T12:29:17Z</time></trkpt><trkpt lat="43.08917532988605" lon="11.42341993709102"><ele>238.0</ele><time>2026-03-28T12:29:18Z</time></trkpt><trkpt lat="43.089166442164895" lon="11.42330150344477"><ele>238.0</ele><time>2026-03-28T12:29:19Z</time></trkpt><trkpt lat="43.089141355864705" lon="11.423177546040536"><ele>238.0</ele><time>2026-03-28T12:29:20Z</time></trkpt><trkpt lat="43.08909830827403" lon="11.423050108226077"><ele>238.0</ele><time>2026-03-28T12:29:21Z</time></trkpt><trkpt lat="43.0890494938865" lon="11.422919482175102"><ele>244.25</ele><time>2026-03-28T12:29:22Z</time></trkpt><trkpt lat="43.088990665262756" lon="11.422794551566689"><ele>250.5</ele><time>2026-03-28T12:29:23Z</time></trkpt><trkpt lat="43.088936788584626" lon="11.422650878752293"><ele>256.75</ele><time>2026-03-28T12:29:24Z</time></trkpt><trkpt lat="43.088891090449316" lon="11.422484289679241"><ele>263.0</ele><time>2026-03-28T12:29:25Z</time></trkpt><trkpt lat="43.08884148853432" lon="11.422352890963742"><ele>263.0</ele><time>2026-03-28T12:29:26Z</time></trkpt><trkpt lat="43.08879452210265" lon="11.422231844576277"><ele>263.0</ele><time>2026-03-28T12:29:27Z</time></trkpt><trkpt lat="43.08875090336626" lon="11.42212695876248"><ele>263.0</ele><time>2026-03-28T12:29:28Z</time></trkpt><trkpt lat="43.08870469977926" lon="11.422039766603735"><ele>263.0</ele><time>2026-03-28T12:29:29Z</time></trkpt><trkpt lat="43.088672791740464" lon="11.421945891588257"><ele>263.0</ele><time>2026-03-28T12:29:30Z</time></trkpt><trkpt lat="43.08863946233126" lon="11.421861467232603"><ele>263.0</ele><time>2026-03-28T12:29:31Z</time></trkpt><trkpt lat="43.08859452511331" lon="11.42179038143065"><ele>262.0</ele><time>2026-03-28T12:29:32Z</time></trkpt><trkpt lat="43.088539232544825" lon="11.421739793929975"><ele>261.0</ele><time>2026-03-28T12:29:33Z</time></trkpt><trkpt lat="43.08847485149743" lon="11.421708676030697"><ele>260.0</ele><time>2026-03-28T12:29:34Z</time></trkpt><trkpt lat="43.08840837646196" lon="11.421665223369438"><ele>259.0</ele><time>2026-03-28T12:29:35Z</time></trkpt><trkpt lat="43.088325781850116" lon="11.421687369534043"><ele>258.0</ele><time>2026-03-28T12:29:36Z</time></trkpt><trkpt lat="43.08822271825656" lon="11.4217272003851"><ele>257.0</ele><time>2026-03-28T12:29:38Z</time></trkpt><trkpt lat="43.08817457528629" lon="11.421791878011005"><ele>260.1428571428571</ele><time>2026-03-28T12:29:39Z</time></trkpt><trkpt lat="43.08814511081603" lon="11.421868720249094"><ele>263.2857142857143</ele><time>2026-03-28T12:29:40Z</time></trkpt><trkpt lat="43.08811314660517" lon="11.421963621692727"><ele>266.42857142857144</ele><time>2026-03-28T12:29:41Z</time></trkpt><trkpt lat="43.08809356707784" lon="11.422057199872265"><ele>269.57142857142856</ele><time>2026-03-28T12:29:42Z</time></trkpt><trkpt lat="43.088079945501356" lon="11.42215818611527"><ele>272.7142857142857</ele><time>2026-03-28T12:29:43Z</time></trkpt><trkpt lat="43.088058664040744" lon="11.422260262913657"><ele>275.85714285714283</ele><time>2026-03-28T12:29:44Z</time></trkpt><trkpt lat="43.088037607826365" lon="11.422373671607245"><ele>279.0</ele><time>2026-03-28T12:29:45Z</time></trkpt><trkpt lat="43.08800617382694" lon="11.422505222274989"><ele>279.5</ele><time>2026-03-28T12:29:46Z</time></trkpt><trkpt lat="43.08797621180687" lon="11.4226305084087"><ele>280.0</ele><time>2026-03-28T12:29:47Z</time></trkpt><trkpt lat="43.08794588074411" lon="11.422745769089069"><ele>280.5</ele><time>2026-03-28T12:29:48.001Z</time></trkpt><trkpt lat="43.08792173444361" lon="11.422845502428233"><ele>281.0</ele><time>2026-03-28T12:29:49.001Z</time></trkpt><trkpt lat="43.087895473311825" lon="11.422939726939406"><ele>281.5</ele><time>2026-03-28T12:29:50.001Z</time></trkpt><trkpt lat="43.08786882961361" lon="11.423056375271772"><ele>282.0</ele><time>2026-03-28T12:29:51.001Z</time></trkpt><trkpt lat="43.08783040053945" lon="11.42317321875507"><ele>282.1666666666667</ele><time>2026-03-28T12:29:52.001Z</time></trkpt><trkpt lat="43.08778858848143" lon="11.423279236232029"><ele>282.3333333333333</ele><time>2026-03-28T12:29:53.001Z</time></trkpt><trkpt lat="43.08774658103141" lon="11.423364223296195"><ele>282.5</ele><time>2026-03-28T12:29:54.001Z</time></trkpt><trkpt lat="43.08770636230363" lon="11.423432598841616"><ele>282.66666666666663</ele><time>2026-03-28T12:29:55.001Z</time></trkpt><trkpt lat="43.08763583341344" lon="11.42351318603638"><ele>282.8333333333333</ele><time>2026-03-28T12:29:57.001Z</time></trkpt><trkpt lat="43.087548881196525" lon="11.423471098360677"><ele>283.0</ele><time>2026-03-28T12:29:59.001Z</time></trkpt><trkpt lat="43.08748715919686" lon="11.423355157407537"><ele>283.0</ele><time>2026-03-28T12:30:01.001Z</time></trkpt><trkpt lat="43.087453216940176" lon="11.423191149544179"><ele>283.0</ele><time>2026-03-28T12:30:03.001Z</time></trkpt><trkpt lat="43.087438864815695" lon="11.423100742651313"><ele>283.0</ele><time>2026-03-28T12:30:04.001Z</time></trkpt><trkpt lat="43.08740781126949" lon="11.422944684211705"><ele>283.0</ele><time>2026-03-28T12:30:06.001Z</time></trkpt><trkpt lat="43.08738262194303" lon="11.422781458858244"><ele>283.0</ele><time>2026-03-28T12:30:08.001Z</time></trkpt><trkpt lat="43.08733860657203" lon="11.422652848347148"><ele>288.4</ele><time>2026-03-28T12:30:10.001Z</time></trkpt><trkpt lat="43.087260461004064" lon="11.422584539887199"><ele>293.8</ele><time>2026-03-28T12:30:12.001Z</time></trkpt><trkpt lat="43.08716768581389" lon="11.422620838427273"><ele>299.2</ele><time>2026-03-28T12:30:14.001Z</time></trkpt><trkpt lat="43.08712751023742" lon="11.422744197244036"><ele>304.6</ele><time>2026-03-28T12:30:16.001Z</time></trkpt><trkpt lat="43.08710297297709" lon="11.42290362876837"><ele>310.0</ele><time>2026-03-28T12:30:18.001Z</time></trkpt><trkpt lat="43.08710340922866" lon="11.423014054675754"><ele>310.0</ele><time>2026-03-28T12:30:19.001Z</time></trkpt><trkpt lat="43.087082792063" lon="11.423126634381926"><ele>310.0</ele><time>2026-03-28T12:30:20.001Z</time></trkpt><trkpt lat="43.08705324202768" lon="11.423276461465301"><ele>310.0</ele><time>2026-03-28T12:30:21.001Z</time></trkpt><trkpt lat="43.08702483708431" lon="11.4234284878951"><ele>310.0</ele><time>2026-03-28T12:30:22.001Z</time></trkpt><trkpt lat="43.086987976008494" lon="11.423519480767261"><ele>310.0</ele><time>2026-03-28T12:30:23.001Z</time></trkpt><trkpt lat="43.08696547081251" lon="11.42360375015323"><ele>310.0</ele><time>2026-03-28T12:30:24.001Z</time></trkpt><trkpt lat="43.08692386948401" lon="11.423746350906669"><ele>310.0</ele><time>2026-03-28T12:30:26.001Z</time></trkpt><trkpt lat="43.08681961456935" lon="11.423847398779893"><ele>310.0</ele><time>2026-03-28T12:30:28.001Z</time></trkpt><trkpt lat="43.08675460665604" lon="11.423871282983642"><ele>310.0</ele><time>2026-03-28T12:30:29.001Z</time></trkpt><trkpt lat="43.086628153589444" lon="11.423845127879291"><ele>310.0</ele><time>2026-03-28T12:30:31.001Z</time></trkpt><trkpt lat="43.08656590014929" lon="11.423824895203833"><ele>313.8</ele><time>2026-03-28T12:30:32.001Z</time></trkpt><trkpt lat="43.086481733251915" lon="11.42374389787076"><ele>317.6</ele><time>2026-03-28T12:30:34.001Z</time></trkpt><trkpt lat="43.08640302985364" lon="11.42362013915171"><ele>321.4</ele><time>2026-03-28T12:30:36.001Z</time></trkpt><trkpt lat="43.08639212060072" lon="11.42347761079519"><ele>325.2</ele><time>2026-03-28T12:30:38.001Z</time></trkpt><trkpt lat="43.08642542980221" lon="11.423391806711566"><ele>329.0</ele><time>2026-03-28T12:30:39.001Z</time></trkpt><trkpt lat="43.08646702084777" lon="11.423283558647624"><ele>329.0</ele><time>2026-03-28T12:30:40.001Z</time></trkpt><trkpt lat="43.08650240359908" lon="11.423178245018043"><ele>329.0</ele><time>2026-03-28T12:30:41.001Z</time></trkpt><trkpt lat="43.08652673247223" lon="11.423087052238746"><ele>329.0</ele><time>2026-03-28T12:30:42.001Z</time></trkpt><trkpt lat="43.08653461180821" lon="11.422997467335298"><ele>329.0</ele><time>2026-03-28T12:30:43.001Z</time></trkpt><trkpt lat="43.08654136071435" lon="11.42289905394194"><ele>329.0</ele><time>2026-03-28T12:30:44.001Z</time></trkpt><trkpt lat="43.08653298821231" lon="11.422799648126778"><ele>329.0</ele><time>2026-03-28T12:30:45.002Z</time></trkpt><trkpt lat="43.086509079453116" lon="11.422714392590594"><ele>329.0</ele><time>2026-03-28T12:30:46.002Z</time></trkpt><trkpt lat="43.08642362660657" lon="11.422597326280352"><ele>328.83333333333337</ele><time>2026-03-28T12:30:48.002Z</time></trkpt><trkpt lat="43.08630053034532" lon="11.422575943072758"><ele>328.6666666666667</ele><time>2026-03-28T12:30:50.002Z</time></trkpt><trkpt lat="43.08624136706578" lon="11.422612172581154"><ele>328.5</ele><time>2026-03-28T12:30:51.002Z</time></trkpt><trkpt lat="43.086189024036244" lon="11.42267636502895"><ele>328.3333333333333</ele><time>2026-03-28T12:30:52.002Z</time></trkpt><trkpt lat="43.08614648423632" lon="11.422763358405199"><ele>328.16666666666663</ele><time>2026-03-28T12:30:53.002Z</time></trkpt><trkpt lat="43.08610718001285" lon="11.42285272060521"><ele>328.0</ele><time>2026-03-28T12:30:54.002Z</time></trkpt><trkpt lat="43.08607058733175" lon="11.42293256240382"><ele>328.16666666666663</ele><time>2026-03-28T12:30:55.002Z</time></trkpt><trkpt lat="43.08600103563379" lon="11.423072096320551"><ele>328.3333333333333</ele><time>2026-03-28T12:30:57.002Z</time></trkpt><trkpt lat="43.08595754660225" lon="11.42314866810006"><ele>328.5</ele><time>2026-03-28T12:30:58.002Z</time></trkpt><trkpt lat="43.085899085323064" lon="11.423227372332208"><ele>328.6666666666667</ele><time>2026-03-28T12:30:59.002Z</time></trkpt><trkpt lat="43.08583266553103" lon="11.423278396311481"><ele>328.83333333333337</ele><time>2026-03-28T12:31:00.002Z</time></trkpt><trkpt lat="43.08575429112062" lon="11.423282882060128"><ele>329.0</ele><time>2026-03-28T12:31:01.002Z</time></trkpt><trkpt lat="43.08567326069491" lon="11.423237919991701"><ele>333.0</ele><time>2026-03-28T12:31:02.002Z</time></trkpt><trkpt lat="43.085603064782944" lon="11.423133634784707"><ele>337.0</ele><time>2026-03-28T12:31:03.002Z</time></trkpt><trkpt lat="43.0855520467865" lon="11.42297458944132"><ele>341.0</ele><time>2026-03-28T12:31:04.002Z</time></trkpt><trkpt lat="43.08551839686757" lon="11.422838093609311"><ele>345.0</ele><time>2026-03-28T12:31:05.002Z</time></trkpt><trkpt lat="43.08547768966857" lon="11.422680449335653"><ele>346.0</ele><time>2026-03-28T12:31:06.002Z</time></trkpt><trkpt lat="43.08543711675847" lon="11.422497157296613"><ele>347.0</ele><time>2026-03-28T12:31:07.001Z</time></trkpt><trkpt lat="43.08539172265556" lon="11.422333161074732"><ele>348.0</ele><time>2026-03-28T12:31:08.001Z</time></trkpt><trkpt lat="43.085365788871" lon="11.422188326178825"><ele>349.0</ele><time>2026-03-28T12:31:09.001Z</time></trkpt><trkpt lat="43.0853040408817" lon="11.422077281252536"><ele>345.75</ele><time>2026-03-28T12:31:10.001Z</time></trkpt><trkpt lat="43.08523791834788" lon="11.421968578473289"><ele>342.5</ele><time>2026-03-28T12:31:11.001Z</time></trkpt><trkpt lat="43.08515718431874" lon="11.4218594782663"><ele>339.25</ele><time>2026-03-28T12:31:12.001Z</time></trkpt><trkpt lat="43.085060168403864" lon="11.421769721990382"><ele>336.0</ele><time>2026-03-28T12:31:13.001Z</time></trkpt><trkpt lat="43.08494961785979" lon="11.421709810308789"><ele>338.25</ele><time>2026-03-28T12:31:14.001Z</time></trkpt><trkpt lat="43.084815846532315" lon="11.421658215383435"><ele>340.5</ele><time>2026-03-28T12:31:15.001Z</time></trkpt><trkpt lat="43.08465693476835" lon="11.421609921082773"><ele>342.75</ele><time>2026-03-28T12:31:16.001Z</time></trkpt><trkpt lat="43.084529422707135" lon="11.42153565761978"><ele>345.0</ele><time>2026-03-28T12:31:17.001Z</time></trkpt><trkpt lat="43.084394826830355" lon="11.42149325930083"><ele>345.0</ele><time>2026-03-28T12:31:18.001Z</time></trkpt><trkpt lat="43.08426752732594" lon="11.421401754609859"><ele>345.0</ele><time>2026-03-28T12:31:19.001Z</time></trkpt><trkpt lat="43.084134315331625" lon="11.421296655999424"><ele>345.0</ele><time>2026-03-28T12:31:20.001Z</time></trkpt><trkpt lat="43.08400994866252" lon="11.421196598260526"><ele>345.0</ele><time>2026-03-28T12:31:21.001Z</time></trkpt><trkpt lat="43.08390489618488" lon="11.42111436627489"><ele>345.5</ele><time>2026-03-28T12:31:22.001Z</time></trkpt><trkpt lat="43.08379286148588" lon="11.421038358480386"><ele>346.0</ele><time>2026-03-28T12:31:23.001Z</time></trkpt><trkpt lat="43.08366989624523" lon="11.420962079625145"><ele>346.5</ele><time>2026-03-28T12:31:24.001Z</time></trkpt><trkpt lat="43.083546130183464" lon="11.420913439627133"><ele>347.0</ele><time>2026-03-28T12:31:25.001Z</time></trkpt><trkpt lat="43.08342682947741" lon="11.420882114033946"><ele>347.0</ele><time>2026-03-28T12:31:26.001Z</time></trkpt><trkpt lat="43.083317762399176" lon="11.420841262576252"><ele>347.0</ele><time>2026-03-28T12:31:27.001Z</time></trkpt><trkpt lat="43.0832141361124" lon="11.420803297632224"><ele>347.0</ele><time>2026-03-28T12:31:28.001Z</time></trkpt><trkpt lat="43.08310635946078" lon="11.420770355381956"><ele>347.0</ele><time>2026-03-28T12:31:29.001Z</time></trkpt><trkpt lat="43.08299738795949" lon="11.420736307465097"><ele>347.0</ele><time>2026-03-28T12:31:30.001Z</time></trkpt><trkpt lat="43.082888218203784" lon="11.420695254699424"><ele>348.40000000000003</ele><time>2026-03-28T12:31:31.001Z</time></trkpt><trkpt lat="43.08278180129329" lon="11.420652133313768"><ele>349.8</ele><time>2026-03-28T12:31:32.001Z</time></trkpt><trkpt lat="43.082674143819574" lon="11.420616597002622"><ele>351.2</ele><time>2026-03-28T12:31:33.001Z</time></trkpt><trkpt lat="43.08257225894792" lon="11.420591282263022"><ele>352.6</ele><time>2026-03-28T12:31:34.001Z</time></trkpt><trkpt lat="43.082470357657016" lon="11.420564148677489"><ele>354.0</ele><time>2026-03-28T12:31:35.001Z</time></trkpt><trkpt lat="43.08237713567506" lon="11.42054744458696"><ele>354.0</ele><time>2026-03-28T12:31:36.001Z</time></trkpt><trkpt lat="43.082252903052506" lon="11.4205347042532"><ele>354.0</ele><time>2026-03-28T12:31:37.001Z</time></trkpt><trkpt lat="43.08211917131914" lon="11.42053405883275"><ele>354.0</ele><time>2026-03-28T12:31:38.001Z</time></trkpt><trkpt lat="43.0819882817432" lon="11.420530204726257"><ele>354.0</ele><time>2026-03-28T12:31:39.001Z</time></trkpt><trkpt lat="43.08186567366262" lon="11.42052715363215"><ele>355.25</ele><time>2026-03-28T12:31:40.001Z</time></trkpt><trkpt lat="43.08175595191231" lon="11.42046535314861"><ele>356.5</ele><time>2026-03-28T12:31:41.001Z</time></trkpt><trkpt lat="43.081668841421184" lon="11.420383246516849"><ele>357.75</ele><time>2026-03-28T12:31:42.001Z</time></trkpt><trkpt lat="43.08157871601938" lon="11.420294462002927"><ele>359.0</ele><time>2026-03-28T12:31:43.001Z</time></trkpt><trkpt lat="43.081490285709364" lon="11.420182990004493"><ele>361.75</ele><time>2026-03-28T12:31:44.001Z</time></trkpt><trkpt lat="43.08141001637559" lon="11.42006700358067"><ele>364.5</ele><time>2026-03-28T12:31:45.001Z</time></trkpt><trkpt lat="43.08133586243399" lon="11.419954294168882"><ele>367.25</ele><time>2026-03-28T12:31:46.001Z</time></trkpt><trkpt lat="43.08127168944477" lon="11.419823420743917"><ele>370.0</ele><time>2026-03-28T12:31:47.001Z</time></trkpt><trkpt lat="43.08119398190315" lon="11.41969800181185"><ele>369.0</ele><time>2026-03-28T12:31:48.001Z</time></trkpt><trkpt lat="43.08110824287586" lon="11.419594172884509"><ele>368.0</ele><time>2026-03-28T12:31:49.001Z</time></trkpt><trkpt lat="43.08100338162472" lon="11.419498785206354"><ele>367.0</ele><time>2026-03-28T12:31:50.001Z</time></trkpt><trkpt lat="43.08085843064519" lon="11.419418884353718"><ele>366.0</ele><time>2026-03-28T12:31:51.001Z</time></trkpt><trkpt lat="43.08071374587992" lon="11.41936424238758"><ele>369.8</ele><time>2026-03-28T12:31:52.001Z</time></trkpt><trkpt lat="43.08060215793603" lon="11.419341052257948"><ele>373.6</ele><time>2026-03-28T12:31:53.001Z</time></trkpt><trkpt lat="43.08049453216811" lon="11.419333358998378"><ele>377.4</ele><time>2026-03-28T12:31:54.001Z</time></trkpt><trkpt lat="43.08040184183164" lon="11.419304742637488"><ele>381.2</ele><time>2026-03-28T12:31:55.001Z</time></trkpt><trkpt lat="43.0803296498646" lon="11.419265629844839"><ele>385.0</ele><time>2026-03-28T12:31:56.001Z</time></trkpt><trkpt lat="43.080269597044584" lon="11.419196316513636"><ele>385.0</ele><time>2026-03-28T12:31:57.001Z</time></trkpt><trkpt lat="43.080157639958436" lon="11.418980137041778"><ele>385.0</ele><time>2026-03-28T12:31:59.001Z</time></trkpt><trkpt lat="43.08015176907257" lon="11.41885422355247"><ele>385.0</ele><time>2026-03-28T12:32:00.001Z</time></trkpt><trkpt lat="43.08008226165035" lon="11.418720525269745"><ele>385.0</ele><time>2026-03-28T12:32:01.001Z</time></trkpt><trkpt lat="43.080017572715846" lon="11.418747364283979"><ele>383.2</ele><time>2026-03-28T12:32:02.001Z</time></trkpt><trkpt lat="43.079939100331565" lon="11.418668997592693"><ele>381.4</ele><time>2026-03-28T12:32:03.001Z</time></trkpt><trkpt lat="43.079851328627974" lon="11.41859832932553"><ele>379.6</ele><time>2026-03-28T12:32:04.001Z</time></trkpt><trkpt lat="43.079748895046635" lon="11.41855534635606"><ele>377.8</ele><time>2026-03-28T12:32:05.001Z</time></trkpt><trkpt lat="43.079639622857094" lon="11.418505849620258"><ele>376.0</ele><time>2026-03-28T12:32:06.001Z</time></trkpt><trkpt lat="43.0795239636572" lon="11.418461672851887"><ele>380.20000000000005</ele><time>2026-03-28T12:32:07.001Z</time></trkpt><trkpt lat="43.07941694133268" lon="11.418415459943017"><ele>384.40000000000003</ele><time>2026-03-28T12:32:08.001Z</time></trkpt><trkpt lat="43.07932344919635" lon="11.41837755629907"><ele>388.6</ele><time>2026-03-28T12:32:09.001Z</time></trkpt><trkpt lat="43.07924032512371" lon="11.418304233862996"><ele>392.8</ele><time>2026-03-28T12:32:10.001Z</time></trkpt><trkpt lat="43.0791594065812" lon="11.418237022568894"><ele>397.0</ele><time>2026-03-28T12:32:11.001Z</time></trkpt><trkpt lat="43.079087841069885" lon="11.418156701978651"><ele>396.6</ele><time>2026-03-28T12:32:12.001Z</time></trkpt><trkpt lat="43.079015240579736" lon="11.41808063713694"><ele>396.20000000000005</ele><time>2026-03-28T12:32:13.001Z</time></trkpt><trkpt lat="43.07894080856199" lon="11.418029097143197"><ele>395.8</ele><time>2026-03-28T12:32:14.001Z</time></trkpt><trkpt lat="43.07886217644876" lon="11.417981389618838"><ele>395.4</ele><time>2026-03-28T12:32:15.001Z</time></trkpt><trkpt lat="43.078759326883024" lon="11.417946705824782"><ele>395.0</ele><time>2026-03-28T12:32:16.001Z</time></trkpt><trkpt lat="43.07864283145062" lon="11.417923432984134"><ele>395.0</ele><time>2026-03-28T12:32:17.001Z</time></trkpt><trkpt lat="43.07851121299462" lon="11.417913600695604"><ele>395.0</ele><time>2026-03-28T12:32:18.001Z</time></trkpt><trkpt lat="43.078393075764275" lon="11.417914185986975"><ele>395.0</ele><time>2026-03-28T12:32:19.001Z</time></trkpt><trkpt lat="43.07829355983342" lon="11.417911333158662"><ele>395.0</ele><time>2026-03-28T12:32:20.001Z</time></trkpt><trkpt lat="43.07818528757838" lon="11.417904776358743"><ele>397.8</ele><time>2026-03-28T12:32:21.001Z</time></trkpt><trkpt lat="43.07807968510282" lon="11.417893315675022"><ele>400.6</ele><time>2026-03-28T12:32:22.001Z</time></trkpt><trkpt lat="43.07797599060112" lon="11.417886719917623"><ele>403.4</ele><time>2026-03-28T12:32:23.001Z</time></trkpt><trkpt lat="43.07788153011777" lon="11.417887863828394"><ele>406.2</ele><time>2026-03-28T12:32:24.001Z</time></trkpt><trkpt lat="43.077798045390956" lon="11.417887025318436"><ele>409.0</ele><time>2026-03-28T12:32:25.001Z</time></trkpt><trkpt lat="43.07771422300832" lon="11.417905779582659"><ele>409.0</ele><time>2026-03-28T12:32:26.001Z</time></trkpt><trkpt lat="43.077625981320324" lon="11.417890804713878"><ele>409.0</ele><time>2026-03-28T12:32:27.001Z</time></trkpt><trkpt lat="43.07752982965882" lon="11.417880439386657"><ele>409.0</ele><time>2026-03-28T12:32:28.001Z</time></trkpt><trkpt lat="43.07742378922893" lon="11.417867304646814"><ele>409.0</ele><time>2026-03-28T12:32:29.001Z</time></trkpt><trkpt lat="43.0773279907684" lon="11.417799472539148"><ele>409.0</ele><time>2026-03-28T12:32:30.001Z</time></trkpt><trkpt lat="43.077218850882716" lon="11.417704868920895"><ele>412.6</ele><time>2026-03-28T12:32:31.001Z</time></trkpt><trkpt lat="43.07711814872612" lon="11.417619350493121"><ele>416.2</ele><time>2026-03-28T12:32:32.001Z</time></trkpt><trkpt lat="43.077025291769175" lon="11.417555829706801"><ele>419.80000000000007</ele><time>2026-03-28T12:32:33.001Z</time></trkpt><trkpt lat="43.07695269449111" lon="11.417468906608185"><ele>423.40000000000003</ele><time>2026-03-28T12:32:34.001Z</time></trkpt><trkpt lat="43.07689269615069" lon="11.417374074816061"><ele>427.0</ele><time>2026-03-28T12:32:35.002Z</time></trkpt><trkpt lat="43.07687155512179" lon="11.41723502988775"><ele>427.50000000000006</ele><time>2026-03-28T12:32:36.002Z</time></trkpt><trkpt lat="43.07681841222831" lon="11.417120154906877"><ele>428.0</ele><time>2026-03-28T12:32:37.002Z</time></trkpt><trkpt lat="43.07680558734161" lon="11.417019758489971"><ele>428.5</ele><time>2026-03-28T12:32:38.002Z</time></trkpt><trkpt lat="43.07676172839344" lon="11.416947511199483"><ele>429.0</ele><time>2026-03-28T12:32:39.002Z</time></trkpt><trkpt lat="43.07671072681403" lon="11.416887410774237"><ele>429.50000000000006</ele><time>2026-03-28T12:32:40.002Z</time></trkpt><trkpt lat="43.07663261123199" lon="11.416858228603155"><ele>430.0</ele><time>2026-03-28T12:32:41.002Z</time></trkpt><trkpt lat="43.07654224884427" lon="11.416822100425486"><ele>430.0</ele><time>2026-03-28T12:32:42.002Z</time></trkpt><trkpt lat="43.07642404891642" lon="11.416785835337299"><ele>430.0</ele><time>2026-03-28T12:32:43.002Z</time></trkpt><trkpt lat="43.07631739917652" lon="11.416755581099316"><ele>430.0</ele><time>2026-03-28T12:32:44.002Z</time></trkpt><trkpt lat="43.07621927438145" lon="11.41674192824296"><ele>430.0</ele><time>2026-03-28T12:32:45.002Z</time></trkpt><trkpt lat="43.07612335368334" lon="11.416709702737933"><ele>430.0</ele><time>2026-03-28T12:32:46.002Z</time></trkpt><trkpt lat="43.07602113613787" lon="11.416656157368633"><ele>430.0</ele><time>2026-03-28T12:32:47.002Z</time></trkpt><trkpt lat="43.075922080101805" lon="11.416579219898543"><ele>430.0</ele><time>2026-03-28T12:32:48.002Z</time></trkpt><trkpt lat="43.07582328576566" lon="11.416505065446033"><ele>430.0</ele><time>2026-03-28T12:32:49.002Z</time></trkpt><trkpt lat="43.075714796847635" lon="11.416422272851417"><ele>430.0</ele><time>2026-03-28T12:32:50.002Z</time></trkpt><trkpt lat="43.07560657517709" lon="11.416326362104243"><ele>431.25</ele><time>2026-03-28T12:32:51.002Z</time></trkpt><trkpt lat="43.07550418664436" lon="11.416249711682008"><ele>432.5</ele><time>2026-03-28T12:32:52.002Z</time></trkpt><trkpt lat="43.07539568537834" lon="11.416168876957094"><ele>433.75</ele><time>2026-03-28T12:32:53.002Z</time></trkpt><trkpt lat="43.07528060741374" lon="11.416083582177038"><ele>435.0</ele><time>2026-03-28T12:32:54.002Z</time></trkpt><trkpt lat="43.07517193187087" lon="11.416007796806385"><ele>435.0</ele><time>2026-03-28T12:32:55.002Z</time></trkpt><trkpt lat="43.07506229781634" lon="11.415932579325503"><ele>435.0</ele><time>2026-03-28T12:32:56.002Z</time></trkpt><trkpt lat="43.07495339769513" lon="11.415873954060574"><ele>435.0</ele><time>2026-03-28T12:32:57.002Z</time></trkpt><trkpt lat="43.07484508712753" lon="11.415823928689289"><ele>435.0</ele><time>2026-03-28T12:32:58.002Z</time></trkpt><trkpt lat="43.074734715480844" lon="11.415784932454137"><ele>436.0</ele><time>2026-03-28T12:32:59.002Z</time></trkpt><trkpt lat="43.07464038165702" lon="11.415768834412985"><ele>437.0</ele><time>2026-03-28T12:33:00.002Z</time></trkpt><trkpt lat="43.074559255324516" lon="11.415761958368563"><ele>438.0</ele><time>2026-03-28T12:33:01.002Z</time></trkpt><trkpt lat="43.074492111295065" lon="11.415714632010967"><ele>439.0</ele><time>2026-03-28T12:33:02.002Z</time></trkpt><trkpt lat="43.07439397406749" lon="11.415617391801959"><ele>440.0</ele><time>2026-03-28T12:33:04.002Z</time></trkpt><trkpt lat="43.074351343943185" lon="11.415523707521729"><ele>442.0</ele><time>2026-03-28T12:33:05.002Z</time></trkpt><trkpt lat="43.07434363801285" lon="11.415407203187913"><ele>444.0</ele><time>2026-03-28T12:33:06.002Z</time></trkpt><trkpt lat="43.07434766308708" lon="11.415279081032468"><ele>446.0</ele><time>2026-03-28T12:33:07.002Z</time></trkpt><trkpt lat="43.07434977845936" lon="11.41514198265564"><ele>448.0</ele><time>2026-03-28T12:33:08.002Z</time></trkpt><trkpt lat="43.07433932863182" lon="11.415004340255937"><ele>450.0</ele><time>2026-03-28T12:33:09.002Z</time></trkpt><trkpt lat="43.07431568255445" lon="11.41488199114667"><ele>450.0</ele><time>2026-03-28T12:33:10.002Z</time></trkpt><trkpt lat="43.07427514910587" lon="11.414762685870437"><ele>450.0</ele><time>2026-03-28T12:33:11.002Z</time></trkpt><trkpt lat="43.07424317422702" lon="11.414653858168052"><ele>450.0</ele><time>2026-03-28T12:33:12.002Z</time></trkpt><trkpt lat="43.0742169148367" lon="11.414565704528787"><ele>450.0</ele><time>2026-03-28T12:33:13.001Z</time></trkpt><trkpt lat="43.074133372265045" lon="11.414440733641987"><ele>450.0</ele><time>2026-03-28T12:33:15.001Z</time></trkpt><trkpt lat="43.07406923819284" lon="11.414394426990032"><ele>450.0</ele><time>2026-03-28T12:33:16.001Z</time></trkpt><trkpt lat="43.07399121846145" lon="11.414368144581548"><ele>453.6</ele><time>2026-03-28T12:33:17.001Z</time></trkpt><trkpt lat="43.073904319841596" lon="11.414353536790317"><ele>457.2</ele><time>2026-03-28T12:33:18.001Z</time></trkpt><trkpt lat="43.07380068314446" lon="11.414346067748856"><ele>460.79999999999995</ele><time>2026-03-28T12:33:19.001Z</time></trkpt><trkpt lat="43.07368708091895" lon="11.414342665588448"><ele>464.4</ele><time>2026-03-28T12:33:20.001Z</time></trkpt><trkpt lat="43.07357825047099" lon="11.41433758339264"><ele>468.0</ele><time>2026-03-28T12:33:21.001Z</time></trkpt><trkpt lat="43.07348981096883" lon="11.414315536102638"><ele>468.0</ele><time>2026-03-28T12:33:22.001Z</time></trkpt><trkpt lat="43.07340898446558" lon="11.414292173547413"><ele>467.99999999999994</ele><time>2026-03-28T12:33:23.001Z</time></trkpt><trkpt lat="43.07330758179967" lon="11.414267684466342"><ele>467.99999999999994</ele><time>2026-03-28T12:33:24.001Z</time></trkpt><trkpt lat="43.07320060224758" lon="11.414249335626772"><ele>468.0</ele><time>2026-03-28T12:33:25.001Z</time></trkpt><trkpt lat="43.073091289953595" lon="11.414234977110564"><ele>468.0</ele><time>2026-03-28T12:33:26.001Z</time></trkpt><trkpt lat="43.072974147204874" lon="11.414242204582285"><ele>469.79999999999995</ele><time>2026-03-28T12:33:27.001Z</time></trkpt><trkpt lat="43.07286619922906" lon="11.414263965905795"><ele>471.59999999999997</ele><time>2026-03-28T12:33:28.001Z</time></trkpt><trkpt lat="43.07276827700133" lon="11.414275694401777"><ele>473.40000000000003</ele><time>2026-03-28T12:33:29.001Z</time></trkpt><trkpt lat="43.0726700032286" lon="11.414245755702126"><ele>475.20000000000005</ele><time>2026-03-28T12:33:30.001Z</time></trkpt><trkpt lat="43.07257366307261" lon="11.414216262136202"><ele>477.0</ele><time>2026-03-28T12:33:31.001Z</time></trkpt><trkpt lat="43.07246726260128" lon="11.414184269627036"><ele>476.6</ele><time>2026-03-28T12:33:32.001Z</time></trkpt><trkpt lat="43.07236934514241" lon="11.41412448983359"><ele>476.20000000000005</ele><time>2026-03-28T12:33:33.001Z</time></trkpt><trkpt lat="43.072276285679465" lon="11.414059194444752"><ele>475.8</ele><time>2026-03-28T12:33:34.001Z</time></trkpt><trkpt lat="43.07219723427812" lon="11.414001478700484"><ele>475.4</ele><time>2026-03-28T12:33:35.001Z</time></trkpt><trkpt lat="43.072129863156746" lon="11.413928904275465"><ele>475.0</ele><time>2026-03-28T12:33:36.001Z</time></trkpt><trkpt lat="43.072035461618675" lon="11.413881484223948"><ele>475.0</ele><time>2026-03-28T12:33:37.001Z</time></trkpt><trkpt lat="43.071932537160606" lon="11.413881386975678"><ele>475.0</ele><time>2026-03-28T12:33:38.001Z</time></trkpt><trkpt lat="43.071846663438556" lon="11.41384783092941"><ele>475.0</ele><time>2026-03-28T12:33:39.001Z</time></trkpt><trkpt lat="43.07175483780185" lon="11.413764365228433"><ele>475.0</ele><time>2026-03-28T12:33:40.001Z</time></trkpt><trkpt lat="43.071657387477075" lon="11.413715950221329"><ele>475.0</ele><time>2026-03-28T12:33:41.001Z</time></trkpt><trkpt lat="43.071572218126896" lon="11.413635612859617"><ele>477.2</ele><time>2026-03-28T12:33:42.001Z</time></trkpt><trkpt lat="43.07148773645986" lon="11.413573722197961"><ele>479.4</ele><time>2026-03-28T12:33:43.001Z</time></trkpt><trkpt lat="43.07140683445596" lon="11.41350625048187"><ele>481.6</ele><time>2026-03-28T12:33:44.001Z</time></trkpt><trkpt lat="43.0713102843357" lon="11.413534670189433"><ele>483.8</ele><time>2026-03-28T12:33:45.001Z</time></trkpt><trkpt lat="43.07120876867799" lon="11.413565667718792"><ele>486.0</ele><time>2026-03-28T12:33:46.001Z</time></trkpt><trkpt lat="43.07110812734592" lon="11.413600857223026"><ele>486.0</ele><time>2026-03-28T12:33:47.001Z</time></trkpt><trkpt lat="43.07102424884508" lon="11.413606293886376"><ele>486.0</ele><time>2026-03-28T12:33:48.001Z</time></trkpt><trkpt lat="43.07094783877161" lon="11.413572496137686"><ele>486.0</ele><time>2026-03-28T12:33:49.001Z</time></trkpt><trkpt lat="43.070866718156815" lon="11.413509434144496"><ele>486.0</ele><time>2026-03-28T12:33:50.001Z</time></trkpt><trkpt lat="43.07080745329671" lon="11.41339277934449"><ele>486.0</ele><time>2026-03-28T12:33:51.001Z</time></trkpt><trkpt lat="43.07073115595202" lon="11.41329355264181"><ele>487.8</ele><time>2026-03-28T12:33:52.001Z</time></trkpt><trkpt lat="43.07064279122423" lon="11.41318212479974"><ele>489.6</ele><time>2026-03-28T12:33:53.001Z</time></trkpt><trkpt lat="43.07055414640924" lon="11.413070672034795"><ele>491.4</ele><time>2026-03-28T12:33:54.001Z</time></trkpt><trkpt lat="43.07047354165332" lon="11.41300202676132"><ele>493.2</ele><time>2026-03-28T12:33:55.001Z</time></trkpt><trkpt lat="43.07042286103222" lon="11.412925399562578"><ele>495.0</ele><time>2026-03-28T12:33:56.001Z</time></trkpt><trkpt lat="43.07035555135198" lon="11.412896533235392"><ele>495.0</ele><time>2026-03-28T12:33:57.001Z</time></trkpt><trkpt lat="43.070237200385826" lon="11.412857575997734"><ele>495.0</ele><time>2026-03-28T12:33:59.001Z</time></trkpt><trkpt lat="43.070161437038834" lon="11.412911125858203"><ele>495.0</ele><time>2026-03-28T12:34:00.001Z</time></trkpt><trkpt lat="43.07012467167803" lon="11.413019814670653"><ele>495.0</ele><time>2026-03-28T12:34:01.001Z</time></trkpt><trkpt lat="43.07008338082255" lon="11.413128869523677"><ele>495.0</ele><time>2026-03-28T12:34:02.001Z</time></trkpt><trkpt lat="43.07004277676241" lon="11.413252243818969"><ele>495.0</ele><time>2026-03-28T12:34:03.001Z</time></trkpt><trkpt lat="43.07000046668804" lon="11.413383493870649"><ele>495.0</ele><time>2026-03-28T12:34:04.001Z</time></trkpt><trkpt lat="43.06997000259898" lon="11.41350318017499"><ele>495.0</ele><time>2026-03-28T12:34:05.001Z</time></trkpt><trkpt lat="43.06996401956303" lon="11.413622979090652"><ele>495.0</ele><time>2026-03-28T12:34:06.001Z</time></trkpt><trkpt lat="43.069975439863896" lon="11.413768788388172"><ele>495.0</ele><time>2026-03-28T12:34:07.001Z</time></trkpt><trkpt lat="43.0699931069861" lon="11.413938518060746"><ele>494.8</ele><time>2026-03-28T12:34:08.001Z</time></trkpt><trkpt lat="43.070000458808664" lon="11.414074694484674"><ele>494.6</ele><time>2026-03-28T12:34:09.001Z</time></trkpt><trkpt lat="43.070017166486025" lon="11.414241655942142"><ele>494.4</ele><time>2026-03-28T12:34:10.001Z</time></trkpt><trkpt lat="43.070015510761294" lon="11.414380045438762"><ele>494.2</ele><time>2026-03-28T12:34:11.001Z</time></trkpt><trkpt lat="43.06999202846222" lon="11.414513250850689"><ele>494.0</ele><time>2026-03-28T12:34:12.001Z</time></trkpt><trkpt lat="43.06994672142784" lon="11.414626126458785"><ele>495.0</ele><time>2026-03-28T12:34:13.001Z</time></trkpt><trkpt lat="43.0698845168299" lon="11.41473764016614"><ele>496.0</ele><time>2026-03-28T12:34:14.001Z</time></trkpt><trkpt lat="43.06983530447599" lon="11.414848073800743"><ele>497.0</ele><time>2026-03-28T12:34:15.001Z</time></trkpt><trkpt lat="43.06976219196431" lon="11.414940093217652"><ele>498.0</ele><time>2026-03-28T12:34:16.001Z</time></trkpt><trkpt lat="43.06966607908709" lon="11.415018967735563"><ele>499.0</ele><time>2026-03-28T12:34:17.001Z</time></trkpt><trkpt lat="43.069558929760646" lon="11.415090621555539"><ele>499.0</ele><time>2026-03-28T12:34:18.001Z</time></trkpt><trkpt lat="43.06944712526452" lon="11.415180832712819"><ele>499.0</ele><time>2026-03-28T12:34:19.001Z</time></trkpt><trkpt lat="43.06934265179894" lon="11.415272134200196"><ele>499.0</ele><time>2026-03-28T12:34:20.001Z</time></trkpt><trkpt lat="43.06925759580889" lon="11.41536548407915"><ele>499.0</ele><time>2026-03-28T12:34:21.001Z</time></trkpt><trkpt lat="43.06917031106113" lon="11.415436463279827"><ele>496.79999999999995</ele><time>2026-03-28T12:34:22.001Z</time></trkpt><trkpt lat="43.069083657345686" lon="11.415498334305806"><ele>494.59999999999997</ele><time>2026-03-28T12:34:23.001Z</time></trkpt><trkpt lat="43.06898280090868" lon="11.41553452594663"><ele>492.4</ele><time>2026-03-28T12:34:24.001Z</time></trkpt><trkpt lat="43.068871678526975" lon="11.41555296988994"><ele>490.2</ele><time>2026-03-28T12:34:25.001Z</time></trkpt><trkpt lat="43.068765009949246" lon="11.415571638936264"><ele>488.0</ele><time>2026-03-28T12:34:26.001Z</time></trkpt><trkpt lat="43.06866198960983" lon="11.415611836855843"><ele>488.0</ele><time>2026-03-28T12:34:27.001Z</time></trkpt><trkpt lat="43.0685700718471" lon="11.415678961833095"><ele>488.0</ele><time>2026-03-28T12:34:28.001Z</time></trkpt><trkpt lat="43.0684784268392" lon="11.415774961130339"><ele>488.0</ele><time>2026-03-28T12:34:29.001Z</time></trkpt><trkpt lat="43.06838568532185" lon="11.415887346938879"><ele>488.0</ele><time>2026-03-28T12:34:30.001Z</time></trkpt><trkpt lat="43.068286708733254" lon="11.416018297920127"><ele>487.75</ele><time>2026-03-28T12:34:31.001Z</time></trkpt><trkpt lat="43.068177128048724" lon="11.416135601708207"><ele>487.5</ele><time>2026-03-28T12:34:32.001Z</time></trkpt><trkpt lat="43.068064441133814" lon="11.416230889690649"><ele>487.25</ele><time>2026-03-28T12:34:33.001Z</time></trkpt><trkpt lat="43.067958228565324" lon="11.416302898661247"><ele>487.0</ele><time>2026-03-28T12:34:34.001Z</time></trkpt><trkpt lat="43.067859394468876" lon="11.416367822850871"><ele>489.0</ele><time>2026-03-28T12:34:35.001Z</time></trkpt><trkpt lat="43.06777625360585" lon="11.416445051210365"><ele>491.00000000000006</ele><time>2026-03-28T12:34:36.001Z</time></trkpt><trkpt lat="43.06772335948126" lon="11.416547106285488"><ele>493.00000000000006</ele><time>2026-03-28T12:34:37.001Z</time></trkpt><trkpt lat="43.067689347411395" lon="11.416670820018208"><ele>495.0</ele><time>2026-03-28T12:34:38.001Z</time></trkpt><trkpt lat="43.06766304562808" lon="11.416815258768235"><ele>497.0</ele><time>2026-03-28T12:34:39.001Z</time></trkpt><trkpt lat="43.06762518546454" lon="11.416946036200416"><ele>497.0</ele><time>2026-03-28T12:34:40.001Z</time></trkpt><trkpt lat="43.06756044169386" lon="11.41707918426065"><ele>497.00000000000006</ele><time>2026-03-28T12:34:41.001Z</time></trkpt><trkpt lat="43.06748960823443" lon="11.417210298931996"><ele>497.00000000000006</ele><time>2026-03-28T12:34:42.001Z</time></trkpt><trkpt lat="43.06741978446265" lon="11.417316944925647"><ele>497.0</ele><time>2026-03-28T12:34:43.001Z</time></trkpt><trkpt lat="43.067345543049825" lon="11.417421626921376"><ele>497.0</ele><time>2026-03-28T12:34:44.001Z</time></trkpt><trkpt lat="43.067254449345754" lon="11.41751193706881"><ele>498.40000000000003</ele><time>2026-03-28T12:34:45.001Z</time></trkpt><trkpt lat="43.067154657392905" lon="11.417543554166267"><ele>499.80000000000007</ele><time>2026-03-28T12:34:46.001Z</time></trkpt><trkpt lat="43.06705840831279" lon="11.417583064699025"><ele>501.2</ele><time>2026-03-28T12:34:47.001Z</time></trkpt><trkpt lat="43.06695345670975" lon="11.417609501856482"><ele>502.6</ele><time>2026-03-28T12:34:48.001Z</time></trkpt><trkpt lat="43.066870886118025" lon="11.41764744870906"><ele>504.0</ele><time>2026-03-28T12:34:49.002Z</time></trkpt><trkpt lat="43.066808024001205" lon="11.417733202901383"><ele>504.0</ele><time>2026-03-28T12:34:50.002Z</time></trkpt><trkpt lat="43.06673437114692" lon="11.417803664656667"><ele>504.0</ele><time>2026-03-28T12:34:51.002Z</time></trkpt><trkpt lat="43.06670080298972" lon="11.417941470847277"><ele>504.0</ele><time>2026-03-28T12:34:52.002Z</time></trkpt><trkpt lat="43.066664094016" lon="11.418080463097542"><ele>504.0</ele><time>2026-03-28T12:34:53.002Z</time></trkpt><trkpt lat="43.06662045323389" lon="11.418230692234802"><ele>504.0</ele><time>2026-03-28T12:34:54.002Z</time></trkpt><trkpt lat="43.06658551932069" lon="11.418383744758058"><ele>500.79999999999995</ele><time>2026-03-28T12:34:55.002Z</time></trkpt><trkpt lat="43.066560463766706" lon="11.418540616433736"><ele>497.59999999999997</ele><time>2026-03-28T12:34:56.002Z</time></trkpt><trkpt lat="43.06654784741562" lon="11.418690386917847"><ele>494.4</ele><time>2026-03-28T12:34:57.002Z</time></trkpt><trkpt lat="43.066539223811375" lon="11.41883277493009"><ele>491.2</ele><time>2026-03-28T12:34:58.002Z</time></trkpt><trkpt lat="43.066537539567825" lon="11.418984700041777"><ele>488.0</ele><time>2026-03-28T12:34:59.002Z</time></trkpt><trkpt lat="43.06654314681447" lon="11.419137857950716"><ele>487.4</ele><time>2026-03-28T12:35:00.002Z</time></trkpt><trkpt lat="43.0665523116381" lon="11.419290589929625"><ele>486.79999999999995</ele><time>2026-03-28T12:35:01.002Z</time></trkpt><trkpt lat="43.06656075733773" lon="11.419440314468929"><ele>486.2</ele><time>2026-03-28T12:35:02.002Z</time></trkpt><trkpt lat="43.066560162815584" lon="11.419575160879862"><ele>485.6</ele><time>2026-03-28T12:35:03.002Z</time></trkpt><trkpt lat="43.066565012308" lon="11.419698216755714"><ele>485.0</ele><time>2026-03-28T12:35:04.002Z</time></trkpt><trkpt lat="43.066560803266796" lon="11.419817343243375"><ele>485.0</ele><time>2026-03-28T12:35:05.002Z</time></trkpt><trkpt lat="43.066542562224186" lon="11.419949954579488"><ele>485.0</ele><time>2026-03-28T12:35:06.002Z</time></trkpt><trkpt lat="43.06648057624151" lon="11.420073439761468"><ele>485.0</ele><time>2026-03-28T12:35:07.002Z</time></trkpt><trkpt lat="43.06640321976413" lon="11.42019897077547"><ele>485.0</ele><time>2026-03-28T12:35:08.002Z</time></trkpt><trkpt lat="43.06632239309136" lon="11.420351638357223"><ele>486.75</ele><time>2026-03-28T12:35:09.002Z</time></trkpt><trkpt lat="43.0662665147605" lon="11.420515088792376"><ele>488.5</ele><time>2026-03-28T12:35:10.002Z</time></trkpt><trkpt lat="43.06619327205783" lon="11.42065523491512"><ele>490.25</ele><time>2026-03-28T12:35:11.002Z</time></trkpt><trkpt lat="43.06612409583526" lon="11.420788901176717"><ele>492.0</ele><time>2026-03-28T12:35:12.002Z</time></trkpt><trkpt lat="43.06605892194375" lon="11.420942200777128"><ele>492.0</ele><time>2026-03-28T12:35:13.002Z</time></trkpt><trkpt lat="43.06596439031323" lon="11.42108804954261"><ele>492.0</ele><time>2026-03-28T12:35:14.002Z</time></trkpt><trkpt lat="43.06587545012279" lon="11.4212216611753"><ele>492.0</ele><time>2026-03-28T12:35:15.002Z</time></trkpt><trkpt lat="43.0658052697825" lon="11.4213655020103"><ele>492.0</ele><time>2026-03-28T12:35:16.002Z</time></trkpt><trkpt lat="43.06574614543815" lon="11.421506703426356"><ele>490.8</ele><time>2026-03-28T12:35:17.002Z</time></trkpt><trkpt lat="43.06568718109185" lon="11.421637934376857"><ele>489.6</ele><time>2026-03-28T12:35:18.002Z</time></trkpt><trkpt lat="43.065611413288615" lon="11.421743252234185"><ele>488.40000000000003</ele><time>2026-03-28T12:35:19.001Z</time></trkpt><trkpt lat="43.06553273677551" lon="11.421833828196878"><ele>487.20000000000005</ele><time>2026-03-28T12:35:20.001Z</time></trkpt><trkpt lat="43.06543911486495" lon="11.421913232880833"><ele>486.0</ele><time>2026-03-28T12:35:21.001Z</time></trkpt><trkpt lat="43.06534553724385" lon="11.422017078019978"><ele>486.0</ele><time>2026-03-28T12:35:22.001Z</time></trkpt><trkpt lat="43.065252992767775" lon="11.4221020310559"><ele>486.0</ele><time>2026-03-28T12:35:23.001Z</time></trkpt><trkpt lat="43.065163771565835" lon="11.422174171656263"><ele>486.0</ele><time>2026-03-28T12:35:24.001Z</time></trkpt><trkpt lat="43.06506911072254" lon="11.422211730626895"><ele>486.0</ele><time>2026-03-28T12:35:25.001Z</time></trkpt><trkpt lat="43.06496228451203" lon="11.422222576196061"><ele>486.0</ele><time>2026-03-28T12:35:26.001Z</time></trkpt><trkpt lat="43.06485209222506" lon="11.422224480188524"><ele>486.0</ele><time>2026-03-28T12:35:27.001Z</time></trkpt><trkpt lat="43.064745229264034" lon="11.422204321729259"><ele>486.0</ele><time>2026-03-28T12:35:28.001Z</time></trkpt><trkpt lat="43.06464361521595" lon="11.422196371940098"><ele>486.0</ele><time>2026-03-28T12:35:29.001Z</time></trkpt><trkpt lat="43.0645387899557" lon="11.42217226548155"><ele>486.0</ele><time>2026-03-28T12:35:30.001Z</time></trkpt><trkpt lat="43.0644248663192" lon="11.422132654396675"><ele>486.0</ele><time>2026-03-28T12:35:31.001Z</time></trkpt><trkpt lat="43.064317335137694" lon="11.422087804365598"><ele>484.8333333333333</ele><time>2026-03-28T12:35:32.001Z</time></trkpt><trkpt lat="43.064214983262566" lon="11.422038827009425"><ele>483.66666666666663</ele><time>2026-03-28T12:35:33.001Z</time></trkpt><trkpt lat="43.06412462316626" lon="11.421994543134359"><ele>482.5</ele><time>2026-03-28T12:35:34.001Z</time></trkpt><trkpt lat="43.06404067664041" lon="11.421969030596799"><ele>481.3333333333333</ele><time>2026-03-28T12:35:35.001Z</time></trkpt><trkpt lat="43.063969408706434" lon="11.421937116215547"><ele>480.16666666666663</ele><time>2026-03-28T12:35:36.001Z</time></trkpt><trkpt lat="43.06388648377894" lon="11.421940163101809"><ele>479.0</ele><time>2026-03-28T12:35:37.001Z</time></trkpt><trkpt lat="43.06379656735355" lon="11.421968369272985"><ele>477.6</ele><time>2026-03-28T12:35:38.001Z</time></trkpt><trkpt lat="43.06371154709565" lon="11.421965477663148"><ele>476.2</ele><time>2026-03-28T12:35:39.001Z</time></trkpt><trkpt lat="43.06364024964736" lon="11.421979137660031"><ele>474.80000000000007</ele><time>2026-03-28T12:35:40.001Z</time></trkpt><trkpt lat="43.063529086030606" lon="11.422021144635247"><ele>473.40000000000003</ele><time>2026-03-28T12:35:42.001Z</time></trkpt><trkpt lat="43.06346997249551" lon="11.422153397516615"><ele>472.0</ele><time>2026-03-28T12:35:44.001Z</time></trkpt><trkpt lat="43.06346519295562" lon="11.422244645918182"><ele>472.00000000000006</ele><time>2026-03-28T12:35:45.001Z</time></trkpt><trkpt lat="43.06347553815491" lon="11.422356317838307"><ele>472.0</ele><time>2026-03-28T12:35:46.001Z</time></trkpt><trkpt lat="43.06350072776349" lon="11.422478270712306"><ele>472.0</ele><time>2026-03-28T12:35:47.001Z</time></trkpt><trkpt lat="43.06353527219394" lon="11.422591006164494"><ele>472.0</ele><time>2026-03-28T12:35:48.001Z</time></trkpt><trkpt lat="43.063552112528775" lon="11.422705819907527"><ele>472.00000000000006</ele><time>2026-03-28T12:35:49.001Z</time></trkpt><trkpt lat="43.06353906888307" lon="11.422825933280501"><ele>472.0</ele><time>2026-03-28T12:35:50.001Z</time></trkpt><trkpt lat="43.063503357692575" lon="11.4229511986776"><ele>471.50000000000006</ele><time>2026-03-28T12:35:51.001Z</time></trkpt><trkpt lat="43.063452088378405" lon="11.423066020650726"><ele>471.0</ele><time>2026-03-28T12:35:52.001Z</time></trkpt><trkpt lat="43.06339921116764" lon="11.423175361603665"><ele>470.5</ele><time>2026-03-28T12:35:53.001Z</time></trkpt><trkpt lat="43.0633576535301" lon="11.423279559380974"><ele>470.0</ele><time>2026-03-28T12:35:54.001Z</time></trkpt><trkpt lat="43.06332719474883" lon="11.423384615370106"><ele>469.50000000000006</ele><time>2026-03-28T12:35:55.001Z</time></trkpt><trkpt lat="43.06331326536886" lon="11.42349246301888"><ele>469.0</ele><time>2026-03-28T12:35:56.001Z</time></trkpt><trkpt lat="43.06332338054082" lon="11.4236019057864"><ele>469.00000000000006</ele><time>2026-03-28T12:35:57.001Z</time></trkpt><trkpt lat="43.06335221008242" lon="11.42371394787172"><ele>469.0</ele><time>2026-03-28T12:35:58.001Z</time></trkpt><trkpt lat="43.06337854034723" lon="11.423822618174762"><ele>469.0</ele><time>2026-03-28T12:35:59.001Z</time></trkpt><trkpt lat="43.063397077089135" lon="11.423933365715884"><ele>469.0</ele><time>2026-03-28T12:36:00.001Z</time></trkpt><trkpt lat="43.06340464723434" lon="11.424038168829028"><ele>469.00000000000006</ele><time>2026-03-28T12:36:01.001Z</time></trkpt><trkpt lat="43.06337616202907" lon="11.424142075989295"><ele>469.0</ele><time>2026-03-28T12:36:02.001Z</time></trkpt><trkpt lat="43.06333619869969" lon="11.424260205754566"><ele>468.2</ele><time>2026-03-28T12:36:03.001Z</time></trkpt><trkpt lat="43.06328588054998" lon="11.42438629783075"><ele>467.4</ele><time>2026-03-28T12:36:04.001Z</time></trkpt><trkpt lat="43.0632647813122" lon="11.42453521312094"><ele>466.6</ele><time>2026-03-28T12:36:05.001Z</time></trkpt><trkpt lat="43.06324833634395" lon="11.424681313444406"><ele>465.8</ele><time>2026-03-28T12:36:06.001Z</time></trkpt><trkpt lat="43.063238885263836" lon="11.424818221856002"><ele>465.0</ele><time>2026-03-28T12:36:07.001Z</time></trkpt><trkpt lat="43.06320216829801" lon="11.424934408234757"><ele>465.2</ele><time>2026-03-28T12:36:08.001Z</time></trkpt><trkpt lat="43.063183997572544" lon="11.425069930957385"><ele>465.4</ele><time>2026-03-28T12:36:09.001Z</time></trkpt><trkpt lat="43.06311010369389" lon="11.425187634528985"><ele>465.6</ele><time>2026-03-28T12:36:10.001Z</time></trkpt><trkpt lat="43.06303389464151" lon="11.42531618223079"><ele>465.8</ele><time>2026-03-28T12:36:11.001Z</time></trkpt><trkpt lat="43.062955466808894" lon="11.42542865052935"><ele>466.0</ele><time>2026-03-28T12:36:12.001Z</time></trkpt><trkpt lat="43.06289297100748" lon="11.425544755119358"><ele>466.0</ele><time>2026-03-28T12:36:13.001Z</time></trkpt><trkpt lat="43.06286119373523" lon="11.425681623446426"><ele>466.0</ele><time>2026-03-28T12:36:14.001Z</time></trkpt><trkpt lat="43.062833437204674" lon="11.425825786246588"><ele>466.0</ele><time>2026-03-28T12:36:15.001Z</time></trkpt><trkpt lat="43.062824271181626" lon="11.425991863767983"><ele>466.0</ele><time>2026-03-28T12:36:16.001Z</time></trkpt><trkpt lat="43.06283020832635" lon="11.426154330632817"><ele>466.0</ele><time>2026-03-28T12:36:17.001Z</time></trkpt><trkpt lat="43.06283475148774" lon="11.426291367090101"><ele>466.0</ele><time>2026-03-28T12:36:18.001Z</time></trkpt><trkpt lat="43.06284733675319" lon="11.426440242365373"><ele>466.0</ele><time>2026-03-28T12:36:19.001Z</time></trkpt><trkpt lat="43.062859764824125" lon="11.426603219197045"><ele>466.0</ele><time>2026-03-28T12:36:20.001Z</time></trkpt><trkpt lat="43.062886128104964" lon="11.426734534329688"><ele>466.0</ele><time>2026-03-28T12:36:21.001Z</time></trkpt><trkpt lat="43.0629038683701" lon="11.426848440241974"><ele>466.0</ele><time>2026-03-28T12:36:22.001Z</time></trkpt><trkpt lat="43.06291333273545" lon="11.426964484678107"><ele>466.0</ele><time>2026-03-28T12:36:23.001Z</time></trkpt><trkpt lat="43.062896141854345" lon="11.427083886908934"><ele>466.0</ele><time>2026-03-28T12:36:24.001Z</time></trkpt><trkpt lat="43.06284688475811" lon="11.427193839460175"><ele>466.0</ele><time>2026-03-28T12:36:25.001Z</time></trkpt><trkpt lat="43.06277653541348" lon="11.427297873485383"><ele>466.0</ele><time>2026-03-28T12:36:26.001Z</time></trkpt><trkpt lat="43.06268833237423" lon="11.427370365137595"><ele>466.0</ele><time>2026-03-28T12:36:27.001Z</time></trkpt><trkpt lat="43.06260047035278" lon="11.427414956415658"><ele>466.0</ele><time>2026-03-28T12:36:28.001Z</time></trkpt><trkpt lat="43.06250766128678" lon="11.427454629692066"><ele>466.0</ele><time>2026-03-28T12:36:29.001Z</time></trkpt><trkpt lat="43.06241183402783" lon="11.427495741689336"><ele>466.0</ele><time>2026-03-28T12:36:30.001Z</time></trkpt><trkpt lat="43.06226757937541" lon="11.427552110295164"><ele>466.0</ele><time>2026-03-28T12:36:31.001Z</time></trkpt><trkpt lat="43.062159246653934" lon="11.427597854301538"><ele>466.8</ele><time>2026-03-28T12:36:32.001Z</time></trkpt><trkpt lat="43.062057929499346" lon="11.42761915373999"><ele>467.6</ele><time>2026-03-28T12:36:33.001Z</time></trkpt><trkpt lat="43.061963939137215" lon="11.42759833867231"><ele>468.4</ele><time>2026-03-28T12:36:34.001Z</time></trkpt><trkpt lat="43.06186791086953" lon="11.427602658931697"><ele>469.2</ele><time>2026-03-28T12:36:35.001Z</time></trkpt><trkpt lat="43.061761792922795" lon="11.427555644729166"><ele>470.0</ele><time>2026-03-28T12:36:36.001Z</time></trkpt><trkpt lat="43.0616712365087" lon="11.427487931712404"><ele>470.2</ele><time>2026-03-28T12:36:37.001Z</time></trkpt><trkpt lat="43.061599233875576" lon="11.427419546142136"><ele>470.4</ele><time>2026-03-28T12:36:38.001Z</time></trkpt><trkpt lat="43.06153414254036" lon="11.427363017725439"><ele>470.6</ele><time>2026-03-28T12:36:39.001Z</time></trkpt><trkpt lat="43.061449610556046" lon="11.42734732102544"><ele>470.8</ele><time>2026-03-28T12:36:40.001Z</time></trkpt><trkpt lat="43.06134684548626" lon="11.42736152512348"><ele>471.0</ele><time>2026-03-28T12:36:41.001Z</time></trkpt><trkpt lat="43.06122366221123" lon="11.427398570911082"><ele>471.0</ele><time>2026-03-28T12:36:42.001Z</time></trkpt><trkpt lat="43.06110065758634" lon="11.427414440347617"><ele>471.0</ele><time>2026-03-28T12:36:43.001Z</time></trkpt><trkpt lat="43.061002527964995" lon="11.427455504479457"><ele>471.0</ele><time>2026-03-28T12:36:44.001Z</time></trkpt><trkpt lat="43.060926455446854" lon="11.427477042130347"><ele>471.0</ele><time>2026-03-28T12:36:45.001Z</time></trkpt><trkpt lat="43.06084908990579" lon="11.427497700898906"><ele>471.0</ele><time>2026-03-28T12:36:46.001Z</time></trkpt><trkpt lat="43.06075803722458" lon="11.427429218561132"><ele>472.6</ele><time>2026-03-28T12:36:47.001Z</time></trkpt><trkpt lat="43.06066201314365" lon="11.427338260575167"><ele>474.20000000000005</ele><time>2026-03-28T12:36:48.001Z</time></trkpt><trkpt lat="43.06056139062383" lon="11.427258088870207"><ele>475.79999999999995</ele><time>2026-03-28T12:36:49.001Z</time></trkpt><trkpt lat="43.06048012713321" lon="11.42720977031842"><ele>477.4</ele><time>2026-03-28T12:36:50.001Z</time></trkpt><trkpt lat="43.060374868592454" lon="11.427190758372578"><ele>479.0</ele><time>2026-03-28T12:36:52.001Z</time></trkpt><trkpt lat="43.06027876233014" lon="11.427331425269484"><ele>478.99999999999994</ele><time>2026-03-28T12:36:54.001Z</time></trkpt><trkpt lat="43.06028066957596" lon="11.427472655418372"><ele>479.0</ele><time>2026-03-28T12:36:55.001Z</time></trkpt><trkpt lat="43.06026902034676" lon="11.427581160838226"><ele>479.0</ele><time>2026-03-28T12:36:56.001Z</time></trkpt><trkpt lat="43.060243923429994" lon="11.427687667526275"><ele>479.0</ele><time>2026-03-28T12:36:57.001Z</time></trkpt><trkpt lat="43.06018247451729" lon="11.427757562787344"><ele>478.99999999999994</ele><time>2026-03-28T12:36:58.001Z</time></trkpt><trkpt lat="43.060092849645265" lon="11.427814234951368"><ele>479.0</ele><time>2026-03-28T12:36:59.001Z</time></trkpt><trkpt lat="43.06001146523476" lon="11.427862189798406"><ele>479.8333333333333</ele><time>2026-03-28T12:37:00.001Z</time></trkpt><trkpt lat="43.05993022353981" lon="11.42787499724797"><ele>480.66666666666663</ele><time>2026-03-28T12:37:01.001Z</time></trkpt><trkpt lat="43.059870493297495" lon="11.427910032356873"><ele>481.5</ele><time>2026-03-28T12:37:02.001Z</time></trkpt><trkpt lat="43.05979917992568" lon="11.427886461066542"><ele>482.33333333333337</ele><time>2026-03-28T12:37:03.001Z</time></trkpt><trkpt lat="43.05974324843712" lon="11.427806636122835"><ele>483.1666666666667</ele><time>2026-03-28T12:37:04.001Z</time></trkpt><trkpt lat="43.05969742571963" lon="11.427736539296896"><ele>484.0</ele><time>2026-03-28T12:37:05.001Z</time></trkpt><trkpt lat="43.05963336509843" lon="11.427643285087504"><ele>484.00000000000006</ele><time>2026-03-28T12:37:06.001Z</time></trkpt><trkpt lat="43.05955675338361" lon="11.427541533337191"><ele>484.0</ele><time>2026-03-28T12:37:07.001Z</time></trkpt><trkpt lat="43.05949693438823" lon="11.427447127217466"><ele>484.0</ele><time>2026-03-28T12:37:08.001Z</time></trkpt><trkpt lat="43.059439449572764" lon="11.427361857521374"><ele>484.0</ele><time>2026-03-28T12:37:09.001Z</time></trkpt><trkpt lat="43.0593938525877" lon="11.42728791318683"><ele>484.00000000000006</ele><time>2026-03-28T12:37:10.001Z</time></trkpt><trkpt lat="43.05932903428147" lon="11.427234169575662"><ele>484.0</ele><time>2026-03-28T12:37:11.001Z</time></trkpt><trkpt lat="43.05925044135686" lon="11.427201458080779"><ele>484.00000000000006</ele><time>2026-03-28T12:37:12.001Z</time></trkpt><trkpt lat="43.059157075961" lon="11.427228568563663"><ele>484.0</ele><time>2026-03-28T12:37:13.001Z</time></trkpt><trkpt lat="43.059081883788224" lon="11.427257133480257"><ele>484.0</ele><time>2026-03-28T12:37:14.001Z</time></trkpt><trkpt lat="43.059033022774685" lon="11.427333224955367"><ele>484.0</ele><time>2026-03-28T12:37:15.001Z</time></trkpt><trkpt lat="43.058999414709525" lon="11.42741837821252"><ele>484.00000000000006</ele><time>2026-03-28T12:37:16.001Z</time></trkpt><trkpt lat="43.058995721879164" lon="11.427517847368001"><ele>484.0</ele><time>2026-03-28T12:37:17.001Z</time></trkpt><trkpt lat="43.059019316054105" lon="11.427615348834433"><ele>483.0</ele><time>2026-03-28T12:37:18.001Z</time></trkpt><trkpt lat="43.059056543501995" lon="11.427723984111395"><ele>482.0</ele><time>2026-03-28T12:37:19.001Z</time></trkpt><trkpt lat="43.05911262759422" lon="11.42785163121182"><ele>481.0</ele><time>2026-03-28T12:37:20.001Z</time></trkpt><trkpt lat="43.05915664868231" lon="11.427999487519884"><ele>480.0</ele><time>2026-03-28T12:37:21.001Z</time></trkpt><trkpt lat="43.05918074681226" lon="11.428120578453596"><ele>479.0</ele><time>2026-03-28T12:37:22.001Z</time></trkpt><trkpt lat="43.05919009739463" lon="11.428231995584062"><ele>479.0</ele><time>2026-03-28T12:37:23.001Z</time></trkpt><trkpt lat="43.0591577513144" lon="11.428352554546843"><ele>479.0</ele><time>2026-03-28T12:37:25.001Z</time></trkpt><trkpt lat="43.05902978836121" lon="11.428352060440009"><ele>479.0</ele><time>2026-03-28T12:37:27.001Z</time></trkpt><trkpt lat="43.058946657843826" lon="11.428393245129456"><ele>479.0</ele><time>2026-03-28T12:37:28.001Z</time></trkpt><trkpt lat="43.05887332298388" lon="11.428419671879235"><ele>479.0</ele><time>2026-03-28T12:37:29.001Z</time></trkpt><trkpt lat="43.058807368124306" lon="11.428494775927794"><ele>480.4</ele><time>2026-03-28T12:37:30.001Z</time></trkpt><trkpt lat="43.058729196043565" lon="11.428600130548881"><ele>481.79999999999995</ele><time>2026-03-28T12:37:31.001Z</time></trkpt><trkpt lat="43.05865708258669" lon="11.428700656037204"><ele>483.20000000000005</ele><time>2026-03-28T12:37:32.001Z</time></trkpt><trkpt lat="43.05860264130299" lon="11.428817595724212"><ele>484.6</ele><time>2026-03-28T12:37:33.001Z</time></trkpt><trkpt lat="43.05854700541047" lon="11.428979262118785"><ele>486.0</ele><time>2026-03-28T12:37:34.001Z</time></trkpt><trkpt lat="43.05849381425828" lon="11.429153499839355"><ele>486.0</ele><time>2026-03-28T12:37:35.001Z</time></trkpt><trkpt lat="43.058444712374765" lon="11.429299794397295"><ele>486.0</ele><time>2026-03-28T12:37:36.001Z</time></trkpt><trkpt lat="43.05840320172227" lon="11.429436126047639"><ele>486.0</ele><time>2026-03-28T12:37:37.001Z</time></trkpt><trkpt lat="43.05836964346682" lon="11.429588255179144"><ele>486.0</ele><time>2026-03-28T12:37:38.001Z</time></trkpt><trkpt lat="43.05831776583838" lon="11.429768743120094"><ele>486.0</ele><time>2026-03-28T12:37:39.001Z</time></trkpt><trkpt lat="43.0582969591002" lon="11.429954363994137"><ele>486.0</ele><time>2026-03-28T12:37:40.001Z</time></trkpt><trkpt lat="43.05828341354824" lon="11.430097109660274"><ele>486.0</ele><time>2026-03-28T12:37:41.001Z</time></trkpt><trkpt lat="43.058274622353856" lon="11.430223901431097"><ele>486.0</ele><time>2026-03-28T12:37:42.001Z</time></trkpt><trkpt lat="43.058281537366405" lon="11.430350385813778"><ele>486.0</ele><time>2026-03-28T12:37:43.001Z</time></trkpt><trkpt lat="43.05829516791941" lon="11.430470950893936"><ele>485.8</ele><time>2026-03-28T12:37:44.001Z</time></trkpt><trkpt lat="43.058304499111145" lon="11.430596385740117"><ele>485.6</ele><time>2026-03-28T12:37:45.001Z</time></trkpt><trkpt lat="43.05829627259719" lon="11.43071165506468"><ele>485.4</ele><time>2026-03-28T12:37:46.001Z</time></trkpt><trkpt lat="43.05826690644688" lon="11.430826140439148"><ele>485.2</ele><time>2026-03-28T12:37:47.001Z</time></trkpt><trkpt lat="43.058211030691055" lon="11.430928611059223"><ele>485.0</ele><time>2026-03-28T12:37:48.001Z</time></trkpt><trkpt lat="43.058124693064826" lon="11.430979139633626"><ele>483.75</ele><time>2026-03-28T12:37:49.001Z</time></trkpt><trkpt lat="43.05804266712801" lon="11.431054851832297"><ele>482.5</ele><time>2026-03-28T12:37:50.001Z</time></trkpt><trkpt lat="43.057939847923215" lon="11.431114398039838"><ele>481.25</ele><time>2026-03-28T12:37:51.001Z</time></trkpt><trkpt lat="43.0578239237198" lon="11.431185795860186"><ele>480.0</ele><time>2026-03-28T12:37:52.001Z</time></trkpt><trkpt lat="43.05771441097336" lon="11.431232615631822"><ele>480.0</ele><time>2026-03-28T12:37:53.001Z</time></trkpt><trkpt lat="43.057617146141" lon="11.431293575210885"><ele>480.0</ele><time>2026-03-28T12:37:54.001Z</time></trkpt><trkpt lat="43.057535890039325" lon="11.431392683536398"><ele>480.0</ele><time>2026-03-28T12:37:55.001Z</time></trkpt><trkpt lat="43.057444733122445" lon="11.431495596022975"><ele>480.0</ele><time>2026-03-28T12:37:56.001Z</time></trkpt><trkpt lat="43.05735235894774" lon="11.431626786570401"><ele>481.8</ele><time>2026-03-28T12:37:57.001Z</time></trkpt><trkpt lat="43.05725756653019" lon="11.431724820762799"><ele>483.6</ele><time>2026-03-28T12:37:58.001Z</time></trkpt><trkpt lat="43.057189038259594" lon="11.431830633022148"><ele>485.4</ele><time>2026-03-28T12:37:59.001Z</time></trkpt><trkpt lat="43.05714948471416" lon="11.431935464180905"><ele>487.2</ele><time>2026-03-28T12:38:00.001Z</time></trkpt><trkpt lat="43.057096010379574" lon="11.432016132066373"><ele>489.0</ele><time>2026-03-28T12:38:01.001Z</time></trkpt><trkpt lat="43.05706251700161" lon="11.432093394522406"><ele>489.6</ele><time>2026-03-28T12:38:02.001Z</time></trkpt><trkpt lat="43.05699053440294" lon="11.432194915077407"><ele>490.2</ele><time>2026-03-28T12:38:04.001Z</time></trkpt><trkpt lat="43.05688181940157" lon="11.43223644326541"><ele>490.80000000000007</ele><time>2026-03-28T12:38:06.001Z</time></trkpt><trkpt lat="43.05682228937347" lon="11.432266972729368"><ele>491.40000000000003</ele><time>2026-03-28T12:38:07.001Z</time></trkpt><trkpt lat="43.05670640708415" lon="11.432280395030617"><ele>492.0</ele><time>2026-03-28T12:38:09.001Z</time></trkpt><trkpt lat="43.05664690601135" lon="11.432236900490645"><ele>491.6666666666667</ele><time>2026-03-28T12:38:10.001Z</time></trkpt><trkpt lat="43.05658018797885" lon="11.4321770199788"><ele>491.33333333333337</ele><time>2026-03-28T12:38:11.001Z</time></trkpt><trkpt lat="43.05651217157149" lon="11.43211350271933"><ele>491.0</ele><time>2026-03-28T12:38:12.001Z</time></trkpt><trkpt lat="43.056444132776846" lon="11.43206049178829"><ele>490.6666666666667</ele><time>2026-03-28T12:38:13.001Z</time></trkpt><trkpt lat="43.05637404482093" lon="11.43201663136094"><ele>490.33333333333337</ele><time>2026-03-28T12:38:14.001Z</time></trkpt><trkpt lat="43.05630584925162" lon="11.431982716233989"><ele>490.0</ele><time>2026-03-28T12:38:15.001Z</time></trkpt><trkpt lat="43.0562340297717" lon="11.431949984310132"><ele>488.83333333333337</ele><time>2026-03-28T12:38:16.001Z</time></trkpt><trkpt lat="43.05616824002696" lon="11.431902108866266"><ele>487.6666666666667</ele><time>2026-03-28T12:38:17.001Z</time></trkpt><trkpt lat="43.05609528729542" lon="11.43186932596013"><ele>486.5</ele><time>2026-03-28T12:38:18.001Z</time></trkpt><trkpt lat="43.056014992375275" lon="11.431835064136115"><ele>485.33333333333337</ele><time>2026-03-28T12:38:19.001Z</time></trkpt><trkpt lat="43.05593194880615" lon="11.431805792505871"><ele>484.1666666666667</ele><time>2026-03-28T12:38:20.001Z</time></trkpt><trkpt lat="43.05581978723282" lon="11.431787329163223"><ele>483.0</ele><time>2026-03-28T12:38:21.001Z</time></trkpt><trkpt lat="43.05572886840154" lon="11.431787007321908"><ele>482.1666666666667</ele><time>2026-03-28T12:38:22.001Z</time></trkpt><trkpt lat="43.055648526541475" lon="11.43176490942071"><ele>481.33333333333337</ele><time>2026-03-28T12:38:23.001Z</time></trkpt><trkpt lat="43.055562442223454" lon="11.4317588585212"><ele>480.5</ele><time>2026-03-28T12:38:24.001Z</time></trkpt><trkpt lat="43.055483865274596" lon="11.431713136921786"><ele>479.6666666666667</ele><time>2026-03-28T12:38:25.001Z</time></trkpt><trkpt lat="43.05541585113197" lon="11.431667066692512"><ele>478.83333333333337</ele><time>2026-03-28T12:38:26.001Z</time></trkpt><trkpt lat="43.055361408246895" lon="11.43160856035308"><ele>478.0</ele><time>2026-03-28T12:38:27.001Z</time></trkpt><trkpt lat="43.055312639222784" lon="11.43155066691989"><ele>478.00000000000006</ele><time>2026-03-28T12:38:28.001Z</time></trkpt><trkpt lat="43.05525567905584" lon="11.431478640884084"><ele>478.0</ele><time>2026-03-28T12:38:29.001Z</time></trkpt><trkpt lat="43.055178332043845" lon="11.431403511520957"><ele>478.0</ele><time>2026-03-28T12:38:30.001Z</time></trkpt><trkpt lat="43.05512083138997" lon="11.431310040657484"><ele>478.0</ele><time>2026-03-28T12:38:31.001Z</time></trkpt><trkpt lat="43.055055462730536" lon="11.431234626817936"><ele>478.00000000000006</ele><time>2026-03-28T12:38:32.001Z</time></trkpt><trkpt lat="43.055002351131634" lon="11.431169131008662"><ele>478.0</ele><time>2026-03-28T12:38:33.001Z</time></trkpt><trkpt lat="43.05493370333833" lon="11.43111304104289"><ele>475.59999999999997</ele><time>2026-03-28T12:38:34.001Z</time></trkpt><trkpt lat="43.054872489798214" lon="11.431027758164236"><ele>473.19999999999993</ele><time>2026-03-28T12:38:35.001Z</time></trkpt><trkpt lat="43.05481068295805" lon="11.430951258981958"><ele>470.8</ele><time>2026-03-28T12:38:36.001Z</time></trkpt><trkpt lat="43.05473099652186" lon="11.43089585625009"><ele>468.4</ele><time>2026-03-28T12:38:37.001Z</time></trkpt><trkpt lat="43.05463960490468" lon="11.430859595445826"><ele>466.0</ele><time>2026-03-28T12:38:38.001Z</time></trkpt><trkpt lat="43.05453673570314" lon="11.430857645593454"><ele>466.0</ele><time>2026-03-28T12:38:39.001Z</time></trkpt><trkpt lat="43.05444626232712" lon="11.430841736316896"><ele>466.0</ele><time>2026-03-28T12:38:40.001Z</time></trkpt><trkpt lat="43.05434965898938" lon="11.430840728859286"><ele>466.0</ele><time>2026-03-28T12:38:41.001Z</time></trkpt><trkpt lat="43.05424272574974" lon="11.430821071075554"><ele>466.0</ele><time>2026-03-28T12:38:42.001Z</time></trkpt><trkpt lat="43.05412769171915" lon="11.430805079490955"><ele>466.0</ele><time>2026-03-28T12:38:43.001Z</time></trkpt><trkpt lat="43.054027875491414" lon="11.430789821715251"><ele>464.4</ele><time>2026-03-28T12:38:44.001Z</time></trkpt><trkpt lat="43.05392858540708" lon="11.430795979804465"><ele>462.8</ele><time>2026-03-28T12:38:45.001Z</time></trkpt><trkpt lat="43.0538327271406" lon="11.430792438424369"><ele>461.19999999999993</ele><time>2026-03-28T12:38:46.001Z</time></trkpt><trkpt lat="43.05374521340479" lon="11.430790172476081"><ele>459.59999999999997</ele><time>2026-03-28T12:38:47.001Z</time></trkpt><trkpt lat="43.053661889483905" lon="11.430760652984626"><ele>458.0</ele><time>2026-03-28T12:38:48.001Z</time></trkpt><trkpt lat="43.05357554423319" lon="11.430741671723254"><ele>457.99999999999994</ele><time>2026-03-28T12:38:49.001Z</time></trkpt><trkpt lat="43.05348310126207" lon="11.430732724345697"><ele>458.0</ele><time>2026-03-28T12:38:50.001Z</time></trkpt><trkpt lat="43.05338984641972" lon="11.430689470973224"><ele>458.0</ele><time>2026-03-28T12:38:51.001Z</time></trkpt><trkpt lat="43.05330681682339" lon="11.430649192802798"><ele>458.0</ele><time>2026-03-28T12:38:52.001Z</time></trkpt><trkpt lat="43.05323807390566" lon="11.430587229685637"><ele>457.99999999999994</ele><time>2026-03-28T12:38:53.001Z</time></trkpt><trkpt lat="43.053169020763065" lon="11.430546142987412"><ele>458.0</ele><time>2026-03-28T12:38:54.001Z</time></trkpt><trkpt lat="43.0530931529927" lon="11.430500356891235"><ele>455.99999999999994</ele><time>2026-03-28T12:38:55.001Z</time></trkpt><trkpt lat="43.05302000689865" lon="11.430456213323927"><ele>454.0</ele><time>2026-03-28T12:38:56.001Z</time></trkpt><trkpt lat="43.05294473245508" lon="11.430406700476228"><ele>452.0</ele><time>2026-03-28T12:38:57.001Z</time></trkpt><trkpt lat="43.05287376693564" lon="11.430348575868955"><ele>450.0</ele><time>2026-03-28T12:38:58.001Z</time></trkpt><trkpt lat="43.05278176331882" lon="11.430290562918545"><ele>447.99999999999994</ele><time>2026-03-28T12:38:59.001Z</time></trkpt><trkpt lat="43.052690445204156" lon="11.430245671547773"><ele>446.0</ele><time>2026-03-28T12:39:00.001Z</time></trkpt><trkpt lat="43.052593588950195" lon="11.430188761164226"><ele>446.0</ele><time>2026-03-28T12:39:01.001Z</time></trkpt><trkpt lat="43.05250634307676" lon="11.430133135132525"><ele>446.0</ele><time>2026-03-28T12:39:02.001Z</time></trkpt><trkpt lat="43.05241821273218" lon="11.430089897089266"><ele>446.0</ele><time>2026-03-28T12:39:03.001Z</time></trkpt><trkpt lat="43.05233080110624" lon="11.430035142413061"><ele>446.0</ele><time>2026-03-28T12:39:04.001Z</time></trkpt><trkpt lat="43.05222250163759" lon="11.429991919625051"><ele>446.0</ele><time>2026-03-28T12:39:05.001Z</time></trkpt><trkpt lat="43.052113292695616" lon="11.429937517843591"><ele>442.5</ele><time>2026-03-28T12:39:06.001Z</time></trkpt><trkpt lat="43.052001051247544" lon="11.429894082287971"><ele>439.0</ele><time>2026-03-28T12:39:07.001Z</time></trkpt><trkpt lat="43.0518860432128" lon="11.429849905663296"><ele>435.5</ele><time>2026-03-28T12:39:08.001Z</time></trkpt><trkpt lat="43.05177567033107" lon="11.429783617688981"><ele>432.0</ele><time>2026-03-28T12:39:09.001Z</time></trkpt><trkpt lat="43.05166670830679" lon="11.429735527025086"><ele>432.0</ele><time>2026-03-28T12:39:10.001Z</time></trkpt><trkpt lat="43.05156355895161" lon="11.429690001798209"><ele>432.0</ele><time>2026-03-28T12:39:11.001Z</time></trkpt><trkpt lat="43.05145840126076" lon="11.429638095806583"><ele>432.0</ele><time>2026-03-28T12:39:12.001Z</time></trkpt><trkpt lat="43.05135165414717" lon="11.429560761608698"><ele>432.0</ele><time>2026-03-28T12:39:13.001Z</time></trkpt><trkpt lat="43.05124966065921" lon="11.429463264257459"><ele>433.0</ele><time>2026-03-28T12:39:14.001Z</time></trkpt><trkpt lat="43.05115368911764" lon="11.429365407133997"><ele>434.0</ele><time>2026-03-28T12:39:15.001Z</time></trkpt><trkpt lat="43.051040714316514" lon="11.429279084107213"><ele>435.0</ele><time>2026-03-28T12:39:16.001Z</time></trkpt><trkpt lat="43.05093033354763" lon="11.429183364412602"><ele>436.0</ele><time>2026-03-28T12:39:17.001Z</time></trkpt><trkpt lat="43.050864671440074" lon="11.429042134351167"><ele>436.20000000000005</ele><time>2026-03-28T12:39:18.001Z</time></trkpt><trkpt lat="43.05078185667808" lon="11.42894812856037"><ele>436.40000000000003</ele><time>2026-03-28T12:39:19.001Z</time></trkpt><trkpt lat="43.050691183374546" lon="11.428867576938632"><ele>436.6</ele><time>2026-03-28T12:39:20.001Z</time></trkpt><trkpt lat="43.0506093383093" lon="11.42878803255649"><ele>436.8</ele><time>2026-03-28T12:39:21.001Z</time></trkpt><trkpt lat="43.0505222653302" lon="11.428702583829432"><ele>437.0</ele><time>2026-03-28T12:39:22.001Z</time></trkpt><trkpt lat="43.05041867225451" lon="11.428600923174288"><ele>437.0</ele><time>2026-03-28T12:39:23.001Z</time></trkpt><trkpt lat="43.05030883198769" lon="11.428521295134535"><ele>437.00000000000006</ele><time>2026-03-28T12:39:24.001Z</time></trkpt><trkpt lat="43.05022541067637" lon="11.428430671428165"><ele>437.00000000000006</ele><time>2026-03-28T12:39:25.001Z</time></trkpt><trkpt lat="43.05013621375844" lon="11.428360199227217"><ele>437.0</ele><time>2026-03-28T12:39:26.001Z</time></trkpt><trkpt lat="43.05003693245549" lon="11.428324276652214"><ele>437.0</ele><time>2026-03-28T12:39:27.001Z</time></trkpt><trkpt lat="43.049941545969276" lon="11.428275822288622"><ele>438.0</ele><time>2026-03-28T12:39:28.001Z</time></trkpt><trkpt lat="43.04984089250895" lon="11.4282602815691"><ele>439.00000000000006</ele><time>2026-03-28T12:39:29.001Z</time></trkpt><trkpt lat="43.04974799283306" lon="11.428236946091028"><ele>440.00000000000006</ele><time>2026-03-28T12:39:30.001Z</time></trkpt><trkpt lat="43.04965162322257" lon="11.428142037081617"><ele>441.0</ele><time>2026-03-28T12:39:31Z</time></trkpt><trkpt lat="43.04957949727518" lon="11.428004044314884"><ele>442.0</ele><time>2026-03-28T12:39:32Z</time></trkpt><trkpt lat="43.0495054123667" lon="11.427897251023412"><ele>439.20000000000005</ele><time>2026-03-28T12:39:33Z</time></trkpt><trkpt lat="43.049416359116115" lon="11.427820865009004"><ele>436.40000000000003</ele><time>2026-03-28T12:39:34Z</time></trkpt><trkpt lat="43.04932930348587" lon="11.427727074375312"><ele>433.59999999999997</ele><time>2026-03-28T12:39:35Z</time></trkpt><trkpt lat="43.04922896433077" lon="11.427665278905552"><ele>430.79999999999995</ele><time>2026-03-28T12:39:36Z</time></trkpt><trkpt lat="43.04913899523557" lon="11.427605605351669"><ele>428.0</ele><time>2026-03-28T12:39:37Z</time></trkpt><trkpt lat="43.04905380790579" lon="11.427537017103452"><ele>427.79999999999995</ele><time>2026-03-28T12:39:38Z</time></trkpt><trkpt lat="43.04896658814734" lon="11.42748097568458"><ele>427.59999999999997</ele><time>2026-03-28T12:39:39Z</time></trkpt><trkpt lat="43.04888447030387" lon="11.427428365414293"><ele>427.40000000000003</ele><time>2026-03-28T12:39:40Z</time></trkpt><trkpt lat="43.04881958777735" lon="11.427329844423728"><ele>427.20000000000005</ele><time>2026-03-28T12:39:41Z</time></trkpt><trkpt lat="43.04875703595134" lon="11.42724321393939"><ele>427.0</ele><time>2026-03-28T12:39:42Z</time></trkpt><trkpt lat="43.04872813838466" lon="11.427134045896397"><ele>425.20000000000005</ele><time>2026-03-28T12:39:43Z</time></trkpt><trkpt lat="43.048680663818736" lon="11.427023938417939"><ele>423.40000000000003</ele><time>2026-03-28T12:39:44Z</time></trkpt><trkpt lat="43.0486025946647" lon="11.426926857748688"><ele>421.6</ele><time>2026-03-28T12:39:45Z</time></trkpt><trkpt lat="43.04852604919354" lon="11.426833194759253"><ele>419.79999999999995</ele><time>2026-03-28T12:39:46Z</time></trkpt><trkpt lat="43.04845281891781" lon="11.426746851952961"><ele>418.0</ele><time>2026-03-28T12:39:47Z</time></trkpt><trkpt lat="43.0483812889403" lon="11.426640679725754"><ele>418.0</ele><time>2026-03-28T12:39:48Z</time></trkpt><trkpt lat="43.04831883833047" lon="11.426522433035775"><ele>418.0</ele><time>2026-03-28T12:39:49Z</time></trkpt><trkpt lat="43.048268698540454" lon="11.426400464995446"><ele>418.0</ele><time>2026-03-28T12:39:50Z</time></trkpt><trkpt lat="43.048225627222756" lon="11.426266378390393"><ele>418.0</ele><time>2026-03-28T12:39:51Z</time></trkpt><trkpt lat="43.04817349910859" lon="11.42615377414979"><ele>418.0</ele><time>2026-03-28T12:39:52Z</time></trkpt><trkpt lat="43.048128737852345" lon="11.42605181422463"><ele>415.79999999999995</ele><time>2026-03-28T12:39:53Z</time></trkpt><trkpt lat="43.048078701350434" lon="11.42594911183756"><ele>413.6</ele><time>2026-03-28T12:39:54Z</time></trkpt><trkpt lat="43.048037375003624" lon="11.425829948210056"><ele>411.4</ele><time>2026-03-28T12:39:55Z</time></trkpt><trkpt lat="43.04797907937266" lon="11.425716112929008"><ele>409.20000000000005</ele><time>2026-03-28T12:39:56Z</time></trkpt><trkpt lat="43.04790976779402" lon="11.425617327782122"><ele>407.0</ele><time>2026-03-28T12:39:57Z</time></trkpt><trkpt lat="43.047856798558136" lon="11.425498110742913"><ele>405.0</ele><time>2026-03-28T12:39:58Z</time></trkpt><trkpt lat="43.04778282468034" lon="11.425404501497649"><ele>403.0</ele><time>2026-03-28T12:39:59Z</time></trkpt><trkpt lat="43.04771334112584" lon="11.42528948864584"><ele>401.0</ele><time>2026-03-28T12:40:00Z</time></trkpt><trkpt lat="43.04764057437133" lon="11.425180118773545"><ele>399.0</ele><time>2026-03-28T12:40:01Z</time></trkpt><trkpt lat="43.04757184520566" lon="11.425074090906651"><ele>397.0</ele><time>2026-03-28T12:40:02Z</time></trkpt><trkpt lat="43.04750321750025" lon="11.424972654936434"><ele>396.50000000000006</ele><time>2026-03-28T12:40:03Z</time></trkpt><trkpt lat="43.04743967893137" lon="11.42487501321985"><ele>396.0</ele><time>2026-03-28T12:40:04Z</time></trkpt><trkpt lat="43.04738409904222" lon="11.42479039174224"><ele>395.5</ele><time>2026-03-28T12:40:05Z</time></trkpt><trkpt lat="43.04732577312707" lon="11.424712815977125"><ele>395.0</ele><time>2026-03-28T12:40:06Z</time></trkpt><trkpt lat="43.04724948608337" lon="11.424662044671503"><ele>394.50000000000006</ele><time>2026-03-28T12:40:07Z</time></trkpt><trkpt lat="43.04717396677204" lon="11.424624080481276"><ele>394.0</ele><time>2026-03-28T12:40:08Z</time></trkpt><trkpt lat="43.04711155814009" lon="11.424565031246997"><ele>393.1666666666667</ele><time>2026-03-28T12:40:09Z</time></trkpt><trkpt lat="43.04705234958607" lon="11.42451303421663"><ele>392.33333333333337</ele><time>2026-03-28T12:40:10Z</time></trkpt><trkpt lat="43.04699079995155" lon="11.424435382897478"><ele>391.5</ele><time>2026-03-28T12:40:11Z</time></trkpt><trkpt lat="43.04693877075967" lon="11.42432951223092"><ele>390.66666666666663</ele><time>2026-03-28T12:40:12Z</time></trkpt><trkpt lat="43.046901924993676" lon="11.424208165597804"><ele>389.8333333333333</ele><time>2026-03-28T12:40:13Z</time></trkpt><trkpt lat="43.04685890012534" lon="11.424077951917516"><ele>389.0</ele><time>2026-03-28T12:40:14Z</time></trkpt><trkpt lat="43.046802175690864" lon="11.423945768215523"><ele>388.66666666666663</ele><time>2026-03-28T12:40:15Z</time></trkpt><trkpt lat="43.046744267593695" lon="11.423780123542693"><ele>388.33333333333337</ele><time>2026-03-28T12:40:16Z</time></trkpt><trkpt lat="43.046672744807246" lon="11.423583118940295"><ele>388.0</ele><time>2026-03-28T12:40:17Z</time></trkpt><trkpt lat="43.04660278600024" lon="11.423360740521218"><ele>387.75</ele><time>2026-03-28T12:40:18Z</time></trkpt><trkpt lat="43.046515216409574" lon="11.423184207298274"><ele>387.5</ele><time>2026-03-28T12:40:19Z</time></trkpt><trkpt lat="43.046462774291" lon="11.423035414827016"><ele>387.25</ele><time>2026-03-28T12:40:20Z</time></trkpt><trkpt lat="43.04641862929918" lon="11.422890213423738"><ele>387.0</ele><time>2026-03-28T12:40:21Z</time></trkpt><trkpt lat="43.04636324725826" lon="11.422774239208353"><ele>389.6</ele><time>2026-03-28T12:40:22Z</time></trkpt><trkpt lat="43.04631377570871" lon="11.422648838210318"><ele>392.20000000000005</ele><time>2026-03-28T12:40:23Z</time></trkpt><trkpt lat="43.04626612650991" lon="11.42252553541769"><ele>394.8</ele><time>2026-03-28T12:40:24Z</time></trkpt><trkpt lat="43.04621637645795" lon="11.42239729679316"><ele>397.4</ele><time>2026-03-28T12:40:25Z</time></trkpt><trkpt lat="43.046171168574006" lon="11.422277455440248"><ele>400.0</ele><time>2026-03-28T12:40:26Z</time></trkpt><trkpt lat="43.04613134048932" lon="11.422192262947846"><ele>401.1666666666667</ele><time>2026-03-28T12:40:27Z</time></trkpt><trkpt lat="43.046120275498744" lon="11.422068088434123"><ele>402.33333333333337</ele><time>2026-03-28T12:40:29Z</time></trkpt><trkpt lat="43.046147100285125" lon="11.42198555616638"><ele>403.5</ele><time>2026-03-28T12:40:31Z</time></trkpt><trkpt lat="43.04614524645383" lon="11.421871427992729"><ele>404.66666666666663</ele><time>2026-03-28T12:40:33Z</time></trkpt><trkpt lat="43.04616871215457" lon="11.421759764546447"><ele>405.8333333333333</ele><time>2026-03-28T12:40:35Z</time></trkpt><trkpt lat="43.04620561802625" lon="11.42162983234779"><ele>407.0</ele><time>2026-03-28T12:40:37Z</time></trkpt><trkpt lat="43.046237394090745" lon="11.421555165819283"><ele>406.99999999999994</ele><time>2026-03-28T12:40:38Z</time></trkpt><trkpt lat="43.04626910174692" lon="11.421476581234517"><ele>407.0</ele><time>2026-03-28T12:40:39Z</time></trkpt><trkpt lat="43.04630015402965" lon="11.421398713013742"><ele>407.0</ele><time>2026-03-28T12:40:40Z</time></trkpt><trkpt lat="43.04634721070851" lon="11.421235024127474"><ele>407.0</ele><time>2026-03-28T12:40:42Z</time></trkpt><trkpt lat="43.046385666191256" lon="11.421146989681871"><ele>406.99999999999994</ele><time>2026-03-28T12:40:43Z</time></trkpt><trkpt lat="43.04642299692305" lon="11.421066081610714"><ele>407.0</ele><time>2026-03-28T12:40:44Z</time></trkpt><trkpt lat="43.04644655402099" lon="11.420968700551109"><ele>405.6</ele><time>2026-03-28T12:40:45Z</time></trkpt><trkpt lat="43.0464706275482" lon="11.420881189695013"><ele>404.20000000000005</ele><time>2026-03-28T12:40:46.001Z</time></trkpt><trkpt lat="43.0464868449093" lon="11.420790387562109"><ele>402.8</ele><time>2026-03-28T12:40:47.001Z</time></trkpt><trkpt lat="43.04647791007213" lon="11.420621704229955"><ele>401.4</ele><time>2026-03-28T12:40:49.001Z</time></trkpt><trkpt lat="43.04641930243003" lon="11.42044670790408"><ele>400.0</ele><time>2026-03-28T12:40:51.001Z</time></trkpt><trkpt lat="43.04635715495032" lon="11.42033295884676"><ele>397.75</ele><time>2026-03-28T12:40:52.001Z</time></trkpt><trkpt lat="43.04627887387573" lon="11.420195904988157"><ele>395.5</ele><time>2026-03-28T12:40:53.001Z</time></trkpt><trkpt lat="43.04618920926811" lon="11.420078929199526"><ele>393.25</ele><time>2026-03-28T12:40:54.001Z</time></trkpt><trkpt lat="43.046117289359216" lon="11.419939054732172"><ele>391.0</ele><time>2026-03-28T12:40:55.001Z</time></trkpt><trkpt lat="43.04605061811214" lon="11.419810074901939"><ele>391.0</ele><time>2026-03-28T12:40:56.001Z</time></trkpt><trkpt lat="43.04598722993493" lon="11.419679375400829"><ele>391.0</ele><time>2026-03-28T12:40:57.001Z</time></trkpt><trkpt lat="43.04592982205022" lon="11.419560957252495"><ele>391.0</ele><time>2026-03-28T12:40:58.001Z</time></trkpt><trkpt lat="43.04588154039664" lon="11.41945255793148"><ele>391.0</ele><time>2026-03-28T12:40:59.001Z</time></trkpt><trkpt lat="43.04583043139724" lon="11.419342543551323"><ele>391.0</ele><time>2026-03-28T12:41:00.001Z</time></trkpt><trkpt lat="43.045769696648314" lon="11.41924283292895"><ele>389.20000000000005</ele><time>2026-03-28T12:41:01.001Z</time></trkpt><trkpt lat="43.04570194342574" lon="11.419155386885173"><ele>387.40000000000003</ele><time>2026-03-28T12:41:02.001Z</time></trkpt><trkpt lat="43.04561222037403" lon="11.419067273934955"><ele>385.6</ele><time>2026-03-28T12:41:03.001Z</time></trkpt><trkpt lat="43.04550967614887" lon="11.418986102710283"><ele>383.8</ele><time>2026-03-28T12:41:04.001Z</time></trkpt><trkpt lat="43.04541902345552" lon="11.418910931572539"><ele>382.0</ele><time>2026-03-28T12:41:05.001Z</time></trkpt><trkpt lat="43.045341195852664" lon="11.418842723965145"><ele>381.66666666666663</ele><time>2026-03-28T12:41:06.001Z</time></trkpt><trkpt lat="43.045270408651014" lon="11.418781393658803"><ele>381.3333333333333</ele><time>2026-03-28T12:41:07.001Z</time></trkpt><trkpt lat="43.045205319342124" lon="11.41871673929216"><ele>381.0</ele><time>2026-03-28T12:41:08.001Z</time></trkpt><trkpt lat="43.0451418601073" lon="11.418655177966984"><ele>380.6666666666667</ele><time>2026-03-28T12:41:09.001Z</time></trkpt><trkpt lat="43.04508919322887" lon="11.418594131690433"><ele>380.33333333333337</ele><time>2026-03-28T12:41:10.001Z</time></trkpt><trkpt lat="43.04500512232463" lon="11.418490370580338"><ele>380.0</ele><time>2026-03-28T12:41:12.001Z</time></trkpt><trkpt lat="43.04492684342197" lon="11.418405709125842"><ele>378.6</ele><time>2026-03-28T12:41:14.001Z</time></trkpt><trkpt lat="43.044831445296566" lon="11.418287257825511"><ele>377.2</ele><time>2026-03-28T12:41:16.001Z</time></trkpt><trkpt lat="43.04476096500284" lon="11.418208206379429"><ele>375.79999999999995</ele><time>2026-03-28T12:41:17.001Z</time></trkpt><trkpt lat="43.04467219615977" lon="11.418112722662482"><ele>374.4</ele><time>2026-03-28T12:41:18.001Z</time></trkpt><trkpt lat="43.044588117210175" lon="11.418020336418"><ele>373.0</ele><time>2026-03-28T12:41:19.001Z</time></trkpt><trkpt lat="43.0445057596434" lon="11.41793445941997"><ele>373.0</ele><time>2026-03-28T12:41:20.001Z</time></trkpt><trkpt lat="43.04442456796291" lon="11.417837559033874"><ele>373.0</ele><time>2026-03-28T12:41:21.001Z</time></trkpt><trkpt lat="43.04432805967295" lon="11.417732593113197"><ele>373.0</ele><time>2026-03-28T12:41:22.001Z</time></trkpt><trkpt lat="43.04424356841789" lon="11.417628503056628"><ele>373.0</ele><time>2026-03-28T12:41:23.001Z</time></trkpt><trkpt lat="43.04415410025111" lon="11.417532400789078"><ele>372.0</ele><time>2026-03-28T12:41:24.001Z</time></trkpt><trkpt lat="43.04406872816624" lon="11.417431153234148"><ele>371.0</ele><time>2026-03-28T12:41:25.001Z</time></trkpt><trkpt lat="43.04398945688215" lon="11.417343082167955"><ele>370.0</ele><time>2026-03-28T12:41:26.001Z</time></trkpt><trkpt lat="43.043911905896536" lon="11.417239539607865"><ele>369.0</ele><time>2026-03-28T12:41:27.001Z</time></trkpt><trkpt lat="43.043835323101256" lon="11.417113700858511"><ele>368.0</ele><time>2026-03-28T12:41:28.001Z</time></trkpt><trkpt lat="43.043747330900175" lon="11.416964244041163"><ele>368.0</ele><time>2026-03-28T12:41:29.001Z</time></trkpt><trkpt lat="43.04365872127791" lon="11.416819379320597"><ele>368.0</ele><time>2026-03-28T12:41:30.001Z</time></trkpt><trkpt lat="43.043575773383694" lon="11.416686645620285"><ele>368.0</ele><time>2026-03-28T12:41:31.001Z</time></trkpt><trkpt lat="43.043494609723616" lon="11.416545717212658"><ele>368.0</ele><time>2026-03-28T12:41:32.001Z</time></trkpt><trkpt lat="43.043421323565184" lon="11.416412523171362"><ele>367.5</ele><time>2026-03-28T12:41:33.001Z</time></trkpt><trkpt lat="43.04335194387936" lon="11.416286346093523"><ele>367.0</ele><time>2026-03-28T12:41:34.001Z</time></trkpt><trkpt lat="43.04328215241765" lon="11.416164312137253"><ele>366.5</ele><time>2026-03-28T12:41:35.001Z</time></trkpt><trkpt lat="43.043203587879276" lon="11.416032501653742"><ele>366.0</ele><time>2026-03-28T12:41:36.001Z</time></trkpt><trkpt lat="43.04312562999883" lon="11.415904842768885"><ele>365.0</ele><time>2026-03-28T12:41:37Z</time></trkpt><trkpt lat="43.04305641204912" lon="11.415775255330406"><ele>364.0</ele><time>2026-03-28T12:41:38Z</time></trkpt><trkpt lat="43.04299350486654" lon="11.41564457439006"><ele>363.0</ele><time>2026-03-28T12:41:39Z</time></trkpt><trkpt lat="43.04293602190542" lon="11.415512533717752"><ele>362.0</ele><time>2026-03-28T12:41:40Z</time></trkpt><trkpt lat="43.04288553238332" lon="11.415387580981795"><ele>361.0</ele><time>2026-03-28T12:41:41Z</time></trkpt><trkpt lat="43.04282757128037" lon="11.415262133162443"><ele>360.8</ele><time>2026-03-28T12:41:42Z</time></trkpt><trkpt lat="43.04276605615084" lon="11.415145172058075"><ele>360.6</ele><time>2026-03-28T12:41:43Z</time></trkpt><trkpt lat="43.04270272445589" lon="11.415039350056235"><ele>360.4</ele><time>2026-03-28T12:41:44Z</time></trkpt><trkpt lat="43.04263457459682" lon="11.41494485883738"><ele>360.2</ele><time>2026-03-28T12:41:45Z</time></trkpt><trkpt lat="43.04256201441428" lon="11.414855953689896"><ele>360.0</ele><time>2026-03-28T12:41:46Z</time></trkpt><trkpt lat="43.04249243217374" lon="11.414775587454862"><ele>358.8333333333333</ele><time>2026-03-28T12:41:47Z</time></trkpt><trkpt lat="43.04242960239426" lon="11.414697271801295"><ele>357.6666666666667</ele><time>2026-03-28T12:41:48Z</time></trkpt><trkpt lat="43.04236603502519" lon="11.414615921642069"><ele>356.5</ele><time>2026-03-28T12:41:49Z</time></trkpt><trkpt lat="43.04229466726711" lon="11.414519410352428"><ele>355.33333333333337</ele><time>2026-03-28T12:41:50Z</time></trkpt><trkpt lat="43.042222490660244" lon="11.414437695044624"><ele>354.1666666666667</ele><time>2026-03-28T12:41:51Z</time></trkpt><trkpt lat="43.0421650758405" lon="11.414365033071755"><ele>353.0</ele><time>2026-03-28T12:41:52Z</time></trkpt><trkpt lat="43.04211090002781" lon="11.414285335792403"><ele>352.59999999999997</ele><time>2026-03-28T12:41:53Z</time></trkpt><trkpt lat="43.042057682146925" lon="11.414196120473806"><ele>352.2</ele><time>2026-03-28T12:41:54Z</time></trkpt><trkpt lat="43.04202837872531" lon="11.414070564515617"><ele>351.8</ele><time>2026-03-28T12:41:55Z</time></trkpt><trkpt lat="43.04197010664516" lon="11.413937959213989"><ele>351.4</ele><time>2026-03-28T12:41:56Z</time></trkpt><trkpt lat="43.041923071369965" lon="11.41379494445646"><ele>351.0</ele><time>2026-03-28T12:41:57Z</time></trkpt><trkpt lat="43.041880953904446" lon="11.413662511137165"><ele>349.8</ele><time>2026-03-28T12:41:58Z</time></trkpt><trkpt lat="43.04184122198873" lon="11.413530394317744"><ele>348.6</ele><time>2026-03-28T12:41:59Z</time></trkpt><trkpt lat="43.04179616507192" lon="11.413382290418044"><ele>347.4</ele><time>2026-03-28T12:42:00Z</time></trkpt><trkpt lat="43.04174784477223" lon="11.413235643039533"><ele>346.2</ele><time>2026-03-28T12:42:01Z</time></trkpt><trkpt lat="43.04170205195122" lon="11.413102279523885"><ele>345.0</ele><time>2026-03-28T12:42:02Z</time></trkpt><trkpt lat="43.04165818147449" lon="11.41297022716751"><ele>342.2</ele><time>2026-03-28T12:42:03Z</time></trkpt><trkpt lat="43.04161980617596" lon="11.412842384002449"><ele>339.4</ele><time>2026-03-28T12:42:04Z</time></trkpt><trkpt lat="43.041585992492045" lon="11.412710166913046"><ele>336.6</ele><time>2026-03-28T12:42:05Z</time></trkpt><trkpt lat="43.041556319352026" lon="11.412569399882335"><ele>333.8</ele><time>2026-03-28T12:42:06Z</time></trkpt><trkpt lat="43.04153566158636" lon="11.412419263203974"><ele>331.0</ele><time>2026-03-28T12:42:07Z</time></trkpt><trkpt lat="43.041527729711206" lon="11.412239228027623"><ele>329.25</ele><time>2026-03-28T12:42:08Z</time></trkpt><trkpt lat="43.04152466654152" lon="11.412027408553056"><ele>327.5</ele><time>2026-03-28T12:42:09Z</time></trkpt><trkpt lat="43.04152656448" lon="11.411834286326688"><ele>325.75</ele><time>2026-03-28T12:42:10Z</time></trkpt><trkpt lat="43.041532007417054" lon="11.411636687695474"><ele>324.0</ele><time>2026-03-28T12:42:11Z</time></trkpt><trkpt lat="43.041534382382466" lon="11.411443818971094"><ele>323.5</ele><time>2026-03-28T12:42:12Z</time></trkpt><trkpt lat="43.04153941887878" lon="11.411273018409922"><ele>323.0</ele><time>2026-03-28T12:42:13Z</time></trkpt><trkpt lat="43.041552617426746" lon="11.411108255121441"><ele>322.5</ele><time>2026-03-28T12:42:14Z</time></trkpt><trkpt lat="43.04157220436988" lon="11.410938538661942"><ele>322.0</ele><time>2026-03-28T12:42:15Z</time></trkpt><trkpt lat="43.041590035572675" lon="11.410772690806517"><ele>322.0</ele><time>2026-03-28T12:42:16Z</time></trkpt><trkpt lat="43.041608698877454" lon="11.410614628343703"><ele>322.0</ele><time>2026-03-28T12:42:17Z</time></trkpt><trkpt lat="43.041626879710805" lon="11.41046048587299"><ele>322.0</ele><time>2026-03-28T12:42:18Z</time></trkpt><trkpt lat="43.0416431527862" lon="11.410305596355832"><ele>322.0</ele><time>2026-03-28T12:42:19Z</time></trkpt><trkpt lat="43.041661510667566" lon="11.410150459058192"><ele>321.8</ele><time>2026-03-28T12:42:20Z</time></trkpt><trkpt lat="43.04168145503834" lon="11.409998994527761"><ele>321.6</ele><time>2026-03-28T12:42:21Z</time></trkpt><trkpt lat="43.04169833813419" lon="11.409849082746755"><ele>321.40000000000003</ele><time>2026-03-28T12:42:22Z</time></trkpt><trkpt lat="43.04171852511993" lon="11.409704678369662"><ele>321.20000000000005</ele><time>2026-03-28T12:42:23Z</time></trkpt><trkpt lat="43.041724201859815" lon="11.409553892306556"><ele>321.0</ele><time>2026-03-28T12:42:24Z</time></trkpt><trkpt lat="43.04173215397209" lon="11.409405187107476"><ele>319.40000000000003</ele><time>2026-03-28T12:42:25Z</time></trkpt><trkpt lat="43.04174061567719" lon="11.409253763875563"><ele>317.8</ele><time>2026-03-28T12:42:26Z</time></trkpt><trkpt lat="43.04174401467759" lon="11.409106432376946"><ele>316.20000000000005</ele><time>2026-03-28T12:42:27Z</time></trkpt><trkpt lat="43.041746961225435" lon="11.408963451740489"><ele>314.6</ele><time>2026-03-28T12:42:28Z</time></trkpt><trkpt lat="43.0417523349816" lon="11.408833507672275"><ele>313.0</ele><time>2026-03-28T12:42:29Z</time></trkpt><trkpt lat="43.041758090877885" lon="11.408715968829934"><ele>311.66666666666663</ele><time>2026-03-28T12:42:30Z</time></trkpt><trkpt lat="43.041764810274024" lon="11.408595180466378"><ele>310.3333333333333</ele><time>2026-03-28T12:42:31Z</time></trkpt><trkpt lat="43.04176697372153" lon="11.408473041761505"><ele>309.0</ele><time>2026-03-28T12:42:32Z</time></trkpt><trkpt lat="43.041768627836966" lon="11.40835820963101"><ele>307.6666666666667</ele><time>2026-03-28T12:42:33Z</time></trkpt><trkpt lat="43.041772716592405" lon="11.408257132422168"><ele>306.33333333333337</ele><time>2026-03-28T12:42:34Z</time></trkpt><trkpt lat="43.041778697843135" lon="11.40816334712201"><ele>305.0</ele><time>2026-03-28T12:42:35Z</time></trkpt><trkpt lat="43.04178695543758" lon="11.408009257440645"><ele>303.2</ele><time>2026-03-28T12:42:37Z</time></trkpt><trkpt lat="43.04176538668903" lon="11.407875732311362"><ele>301.4</ele><time>2026-03-28T12:42:39Z</time></trkpt><trkpt lat="43.041686474469266" lon="11.40774191599141"><ele>299.6</ele><time>2026-03-28T12:42:41Z</time></trkpt><trkpt lat="43.041631743459384" lon="11.407678779666973"><ele>297.8</ele><time>2026-03-28T12:42:42Z</time></trkpt><trkpt lat="43.04155003358709" lon="11.407676893051644"><ele>296.0</ele><time>2026-03-28T12:42:43Z</time></trkpt><trkpt lat="43.041465778915864" lon="11.407674273652725"><ele>296.0</ele><time>2026-03-28T12:42:44Z</time></trkpt><trkpt lat="43.041359836089065" lon="11.407674298137104"><ele>296.0</ele><time>2026-03-28T12:42:45Z</time></trkpt><trkpt lat="43.04125627282261" lon="11.407641792740892"><ele>296.0</ele><time>2026-03-28T12:42:46Z</time></trkpt><trkpt lat="43.04115376429749" lon="11.40761324938296"><ele>296.0</ele><time>2026-03-28T12:42:47Z</time></trkpt><trkpt lat="43.04104559698038" lon="11.407584438472476"><ele>296.0</ele><time>2026-03-28T12:42:48Z</time></trkpt><trkpt lat="43.04094466776013" lon="11.407569639447939"><ele>296.0</ele><time>2026-03-28T12:42:49Z</time></trkpt><trkpt lat="43.040841399365995" lon="11.407545737737374"><ele>296.0</ele><time>2026-03-28T12:42:50Z</time></trkpt><trkpt lat="43.040742755102684" lon="11.407536417155555"><ele>296.0</ele><time>2026-03-28T12:42:51Z</time></trkpt><trkpt lat="43.040658271080744" lon="11.407539731475499"><ele>296.0</ele><time>2026-03-28T12:42:52Z</time></trkpt><trkpt lat="43.04057372232585" lon="11.407526202709468"><ele>296.0</ele><time>2026-03-28T12:42:53Z</time></trkpt><trkpt lat="43.04049813867129" lon="11.407541811718868"><ele>295.0</ele><time>2026-03-28T12:42:54Z</time></trkpt><trkpt lat="43.0404179115324" lon="11.407574078690958"><ele>294.0</ele><time>2026-03-28T12:42:55Z</time></trkpt><trkpt lat="43.040333805197214" lon="11.407621946211455"><ele>293.0</ele><time>2026-03-28T12:42:56Z</time></trkpt><trkpt lat="43.040262729033394" lon="11.407726203503772"><ele>292.0</ele><time>2026-03-28T12:42:57Z</time></trkpt><trkpt lat="43.040182400173435" lon="11.407796975579222"><ele>291.0</ele><time>2026-03-28T12:42:58Z</time></trkpt><trkpt lat="43.04008690107208" lon="11.407836246144184"><ele>291.0</ele><time>2026-03-28T12:42:59Z</time></trkpt><trkpt lat="43.039984897253674" lon="11.407895558476334"><ele>291.0</ele><time>2026-03-28T12:43:00Z</time></trkpt><trkpt lat="43.03989367454592" lon="11.407942377638213"><ele>291.0</ele><time>2026-03-28T12:43:01Z</time></trkpt><trkpt lat="43.039812355114236" lon="11.407977503054065"><ele>291.0</ele><time>2026-03-28T12:43:02Z</time></trkpt><trkpt lat="43.03973606154935" lon="11.408003006177955"><ele>291.0</ele><time>2026-03-28T12:43:03Z</time></trkpt><trkpt lat="43.039656067811855" lon="11.408025044322212"><ele>290.6</ele><time>2026-03-28T12:43:04Z</time></trkpt><trkpt lat="43.03956777482121" lon="11.408047224759091"><ele>290.20000000000005</ele><time>2026-03-28T12:43:05Z</time></trkpt><trkpt lat="43.03947009304727" lon="11.408080423901854"><ele>289.79999999999995</ele><time>2026-03-28T12:43:06Z</time></trkpt><trkpt lat="43.03936310792584" lon="11.408110359848303"><ele>289.4</ele><time>2026-03-28T12:43:07Z</time></trkpt><trkpt lat="43.03924545527159" lon="11.408153524081035"><ele>289.0</ele><time>2026-03-28T12:43:08Z</time></trkpt><trkpt lat="43.03912794959058" lon="11.408189937558731"><ele>287.0</ele><time>2026-03-28T12:43:09Z</time></trkpt><trkpt lat="43.03901395948149" lon="11.408222748632927"><ele>285.0</ele><time>2026-03-28T12:43:10Z</time></trkpt><trkpt lat="43.03889840296261" lon="11.40827659924254"><ele>283.0</ele><time>2026-03-28T12:43:11Z</time></trkpt><trkpt lat="43.03876517209434" lon="11.408341544526783"><ele>281.0</ele><time>2026-03-28T12:43:12Z</time></trkpt><trkpt lat="43.03864098136231" lon="11.408390770771598"><ele>281.0</ele><time>2026-03-28T12:43:13Z</time></trkpt><trkpt lat="43.03852997006846" lon="11.40846887995085"><ele>281.0</ele><time>2026-03-28T12:43:14Z</time></trkpt><trkpt lat="43.03842648387288" lon="11.408536982643685"><ele>281.0</ele><time>2026-03-28T12:43:15Z</time></trkpt><trkpt lat="43.038318064436446" lon="11.408570860955924"><ele>281.0</ele><time>2026-03-28T12:43:16Z</time></trkpt><trkpt lat="43.03822786921404" lon="11.408652059424687"><ele>280.0</ele><time>2026-03-28T12:43:17Z</time></trkpt><trkpt lat="43.03816150670774" lon="11.40875990330736"><ele>279.0</ele><time>2026-03-28T12:43:18Z</time></trkpt><trkpt lat="43.03808458859164" lon="11.408869044123104"><ele>278.0</ele><time>2026-03-28T12:43:19Z</time></trkpt><trkpt lat="43.037998968169255" lon="11.408996433993108"><ele>277.0</ele><time>2026-03-28T12:43:20Z</time></trkpt><trkpt lat="43.037902020583644" lon="11.409137811732961"><ele>277.0</ele><time>2026-03-28T12:43:21Z</time></trkpt><trkpt lat="43.03781120286846" lon="11.409253861792603"><ele>277.0</ele><time>2026-03-28T12:43:22Z</time></trkpt><trkpt lat="43.037739050802045" lon="11.409353219094903"><ele>277.0</ele><time>2026-03-28T12:43:23.001Z</time></trkpt><trkpt lat="43.0376861920987" lon="11.409424546162349"><ele>277.0</ele><time>2026-03-28T12:43:24.001Z</time></trkpt><trkpt lat="43.03763284642977" lon="11.409473083273516"><ele>277.0</ele><time>2026-03-28T12:43:25.001Z</time></trkpt><trkpt lat="43.03756456139252" lon="11.409493869191646"><ele>277.0</ele><time>2026-03-28T12:43:26.001Z</time></trkpt><trkpt lat="43.0374883544649" lon="11.409472898675824"><ele>276.6</ele><time>2026-03-28T12:43:27.001Z</time></trkpt><trkpt lat="43.03741407445596" lon="11.40941183589068"><ele>276.2</ele><time>2026-03-28T12:43:28.001Z</time></trkpt><trkpt lat="43.03736950964503" lon="11.409282665418873"><ele>275.8</ele><time>2026-03-28T12:43:29.001Z</time></trkpt><trkpt lat="43.037298666948814" lon="11.40917044509802"><ele>275.4</ele><time>2026-03-28T12:43:30.001Z</time></trkpt><trkpt lat="43.0372105268583" lon="11.409029565858507"><ele>275.0</ele><time>2026-03-28T12:43:31.001Z</time></trkpt><trkpt lat="43.03711984838214" lon="11.408884249130695"><ele>273.75</ele><time>2026-03-28T12:43:32.001Z</time></trkpt><trkpt lat="43.03703300807121" lon="11.40874508320447"><ele>272.5</ele><time>2026-03-28T12:43:33.001Z</time></trkpt><trkpt lat="43.03694692800001" lon="11.408608411866311"><ele>271.25</ele><time>2026-03-28T12:43:34.001Z</time></trkpt><trkpt lat="43.03686451264219" lon="11.408478175922667"><ele>270.0</ele><time>2026-03-28T12:43:35.001Z</time></trkpt><trkpt lat="43.03679133553748" lon="11.408374423050798"><ele>270.0</ele><time>2026-03-28T12:43:36.001Z</time></trkpt><trkpt lat="43.03673517206718" lon="11.408280353662573"><ele>270.0</ele><time>2026-03-28T12:43:37.001Z</time></trkpt><trkpt lat="43.03668372677821" lon="11.408214428978853"><ele>270.0</ele><time>2026-03-28T12:43:38.001Z</time></trkpt><trkpt lat="43.036612578677286" lon="11.408172674846137"><ele>270.0</ele><time>2026-03-28T12:43:40.001Z</time></trkpt><trkpt lat="43.03652936286923" lon="11.408219030180959"><ele>270.0</ele><time>2026-03-28T12:43:43Z</time></trkpt><trkpt lat="43.03642810228206" lon="11.408348208105322"><ele>270.5</ele><time>2026-03-28T12:43:45Z</time></trkpt><trkpt lat="43.03635866937517" lon="11.408445911372516"><ele>271.0</ele><time>2026-03-28T12:43:46Z</time></trkpt><trkpt lat="43.0362691920645" lon="11.408574702928087"><ele>271.5</ele><time>2026-03-28T12:43:47Z</time></trkpt><trkpt lat="43.036157744224546" lon="11.40873388247157"><ele>272.0</ele><time>2026-03-28T12:43:48Z</time></trkpt><trkpt lat="43.03602819045966" lon="11.408907617337169"><ele>272.0</ele><time>2026-03-28T12:43:49Z</time></trkpt><trkpt lat="43.03592764862962" lon="11.409051328927854"><ele>272.0</ele><time>2026-03-28T12:43:50Z</time></trkpt><trkpt lat="43.035846125916535" lon="11.409170436132639"><ele>272.0</ele><time>2026-03-28T12:43:51Z</time></trkpt><trkpt lat="43.03576396088556" lon="11.409278448884532"><ele>272.0</ele><time>2026-03-28T12:43:52Z</time></trkpt><trkpt lat="43.03568110277199" lon="11.40937984309979"><ele>271.6</ele><time>2026-03-28T12:43:53Z</time></trkpt><trkpt lat="43.035606946626636" lon="11.40946698215001"><ele>271.2</ele><time>2026-03-28T12:43:54Z</time></trkpt><trkpt lat="43.03552996425424" lon="11.409553631372473"><ele>270.8</ele><time>2026-03-28T12:43:55Z</time></trkpt><trkpt lat="43.03544215300639" lon="11.409641754111133"><ele>270.4</ele><time>2026-03-28T12:43:56Z</time></trkpt><trkpt lat="43.03533757697615" lon="11.409730919562987"><ele>270.0</ele><time>2026-03-28T12:43:57Z</time></trkpt><trkpt lat="43.03522512172152" lon="11.40981933584164"><ele>271.0</ele><time>2026-03-28T12:43:58Z</time></trkpt><trkpt lat="43.03512160434786" lon="11.409905255319927"><ele>272.0</ele><time>2026-03-28T12:43:59Z</time></trkpt><trkpt lat="43.03501560820591" lon="11.409984660711508"><ele>273.0</ele><time>2026-03-28T12:44:00Z</time></trkpt><trkpt lat="43.034900965004084" lon="11.410069120791244"><ele>274.0</ele><time>2026-03-28T12:44:01Z</time></trkpt><trkpt lat="43.03480744999853" lon="11.410138586639228"><ele>274.0</ele><time>2026-03-28T12:44:02Z</time></trkpt><trkpt lat="43.03472283116878" lon="11.410204445790615"><ele>274.0</ele><time>2026-03-28T12:44:03Z</time></trkpt><trkpt lat="43.034627397041405" lon="11.410268165304053"><ele>274.0</ele><time>2026-03-28T12:44:04Z</time></trkpt><trkpt lat="43.034530483253164" lon="11.41031004604595"><ele>274.0</ele><time>2026-03-28T12:44:05Z</time></trkpt><trkpt lat="43.03443568810037" lon="11.410339370742319"><ele>274.0</ele><time>2026-03-28T12:44:06Z</time></trkpt><trkpt lat="43.03433856960152" lon="11.410368275359412"><ele>274.0</ele><time>2026-03-28T12:44:07Z</time></trkpt><trkpt lat="43.034237744657105" lon="11.410396567158944"><ele>274.0</ele><time>2026-03-28T12:44:08Z</time></trkpt><trkpt lat="43.03412857305" lon="11.410423010381958"><ele>274.0</ele><time>2026-03-28T12:44:09Z</time></trkpt><trkpt lat="43.03401598966027" lon="11.410440635683635"><ele>274.0</ele><time>2026-03-28T12:44:10Z</time></trkpt><trkpt lat="43.03390816358604" lon="11.410448881530659"><ele>274.0</ele><time>2026-03-28T12:44:11Z</time></trkpt><trkpt lat="43.033799335846076" lon="11.410443834228493"><ele>273.8</ele><time>2026-03-28T12:44:12Z</time></trkpt><trkpt lat="43.03369294304705" lon="11.410449625298096"><ele>273.59999999999997</ele><time>2026-03-28T12:44:13Z</time></trkpt><trkpt lat="43.03357519879635" lon="11.410486723063832"><ele>273.4</ele><time>2026-03-28T12:44:14Z</time></trkpt><trkpt lat="43.03346862687459" lon="11.410511150447345"><ele>273.2</ele><time>2026-03-28T12:44:15Z</time></trkpt><trkpt lat="43.03336343253808" lon="11.410529743436966"><ele>273.0</ele><time>2026-03-28T12:44:16Z</time></trkpt><trkpt lat="43.03326558333696" lon="11.41055534367261"><ele>271.0</ele><time>2026-03-28T12:44:17Z</time></trkpt><trkpt lat="43.03316031883949" lon="11.410576126864205"><ele>269.0</ele><time>2026-03-28T12:44:18Z</time></trkpt><trkpt lat="43.03304486504691" lon="11.410589676000031"><ele>267.0</ele><time>2026-03-28T12:44:19Z</time></trkpt><trkpt lat="43.032931534130505" lon="11.410606878409142"><ele>265.0</ele><time>2026-03-28T12:44:20Z</time></trkpt><trkpt lat="43.03282152404563" lon="11.410628421712868"><ele>263.0</ele><time>2026-03-28T12:44:21Z</time></trkpt><trkpt lat="43.032710407549445" lon="11.41064870734862"><ele>263.0</ele><time>2026-03-28T12:44:22Z</time></trkpt><trkpt lat="43.03260416226927" lon="11.410672496682553"><ele>263.0</ele><time>2026-03-28T12:44:23Z</time></trkpt><trkpt lat="43.032502906930745" lon="11.410697780425012"><ele>263.0</ele><time>2026-03-28T12:44:24Z</time></trkpt><trkpt lat="43.03240036215657" lon="11.410729057542916"><ele>263.0</ele><time>2026-03-28T12:44:25Z</time></trkpt><trkpt lat="43.03230538197989" lon="11.410769244870242"><ele>263.0</ele><time>2026-03-28T12:44:26Z</time></trkpt><trkpt lat="43.03222063442977" lon="11.410806728984154"><ele>260.8</ele><time>2026-03-28T12:44:27Z</time></trkpt><trkpt lat="43.032122046286936" lon="11.410841935828344"><ele>258.6</ele><time>2026-03-28T12:44:28Z</time></trkpt><trkpt lat="43.03202648618539" lon="11.410892609210805"><ele>256.4</ele><time>2026-03-28T12:44:29Z</time></trkpt><trkpt lat="43.031931165164046" lon="11.410938053573448"><ele>254.2</ele><time>2026-03-28T12:44:30Z</time></trkpt><trkpt lat="43.031832788881275" lon="11.410977063256434"><ele>252.0</ele><time>2026-03-28T12:44:31Z</time></trkpt><trkpt lat="43.03172994285237" lon="11.411024860624234"><ele>250.2</ele><time>2026-03-28T12:44:32Z</time></trkpt><trkpt lat="43.0316212773162" lon="11.411054685146627"><ele>248.39999999999998</ele><time>2026-03-28T12:44:33Z</time></trkpt><trkpt lat="43.031529480444405" lon="11.411118324191568"><ele>246.60000000000002</ele><time>2026-03-28T12:44:34Z</time></trkpt><trkpt lat="43.031424408335596" lon="11.411157072432186"><ele>244.8</ele><time>2026-03-28T12:44:35Z</time></trkpt><trkpt lat="43.03131563363432" lon="11.411204141039777"><ele>243.0</ele><time>2026-03-28T12:44:36Z</time></trkpt><trkpt lat="43.03121099296289" lon="11.41124441928"><ele>243.0</ele><time>2026-03-28T12:44:37Z</time></trkpt><trkpt lat="43.03111178772055" lon="11.411279118097905"><ele>243.0</ele><time>2026-03-28T12:44:38Z</time></trkpt><trkpt lat="43.03101622739013" lon="11.411316943874146"><ele>243.0</ele><time>2026-03-28T12:44:39Z</time></trkpt><trkpt lat="43.03092391660798" lon="11.411346089110651"><ele>243.0</ele><time>2026-03-28T12:44:40Z</time></trkpt><trkpt lat="43.03083255391751" lon="11.411372700750954"><ele>243.0</ele><time>2026-03-28T12:44:41Z</time></trkpt><trkpt lat="43.03074698841787" lon="11.411410568867769"><ele>242.33333333333334</ele><time>2026-03-28T12:44:42Z</time></trkpt><trkpt lat="43.030671705147164" lon="11.411456609664839"><ele>241.66666666666669</ele><time>2026-03-28T12:44:43Z</time></trkpt><trkpt lat="43.030602491437705" lon="11.411516327688547"><ele>241.0</ele><time>2026-03-28T12:44:44Z</time></trkpt><trkpt lat="43.03053828700187" lon="11.411585786558708"><ele>240.33333333333334</ele><time>2026-03-28T12:44:45Z</time></trkpt><trkpt lat="43.030469000880046" lon="11.411650896949208"><ele>239.66666666666669</ele><time>2026-03-28T12:44:46Z</time></trkpt><trkpt lat="43.03040587994391" lon="11.411730592993866"><ele>239.0</ele><time>2026-03-28T12:44:47Z</time></trkpt><trkpt lat="43.03033912676535" lon="11.41180940337141"><ele>239.00000000000003</ele><time>2026-03-28T12:44:48Z</time></trkpt><trkpt lat="43.03027580425942" lon="11.411885243998789"><ele>239.0</ele><time>2026-03-28T12:44:49Z</time></trkpt><trkpt lat="43.0302114485661" lon="11.411951977482385"><ele>239.0</ele><time>2026-03-28T12:44:50Z</time></trkpt><trkpt lat="43.03014960175683" lon="11.412030173844286"><ele>239.0</ele><time>2026-03-28T12:44:51Z</time></trkpt><trkpt lat="43.030089342104866" lon="11.412124203933853"><ele>239.00000000000003</ele><time>2026-03-28T12:44:52Z</time></trkpt><trkpt lat="43.03003133357731" lon="11.412227036853938"><ele>239.0</ele><time>2026-03-28T12:44:53Z</time></trkpt><trkpt lat="43.02995380200767" lon="11.41231634192432"><ele>237.25</ele><time>2026-03-28T12:44:54Z</time></trkpt><trkpt lat="43.0298996235022" lon="11.41243890361784"><ele>235.5</ele><time>2026-03-28T12:44:55Z</time></trkpt><trkpt lat="43.02985172531744" lon="11.412588680293062"><ele>233.75</ele><time>2026-03-28T12:44:56Z</time></trkpt><trkpt lat="43.02977026169046" lon="11.412746063439084"><ele>232.0</ele><time>2026-03-28T12:44:57Z</time></trkpt><trkpt lat="43.0296760554307" lon="11.412925616729934"><ele>234.66666666666666</ele><time>2026-03-28T12:44:58Z</time></trkpt><trkpt lat="43.02956346646417" lon="11.413121610742076"><ele>237.33333333333331</ele><time>2026-03-28T12:44:59Z</time></trkpt><trkpt lat="43.029457247755246" lon="11.413305701778908"><ele>240.0</ele><time>2026-03-28T12:45:00Z</time></trkpt><trkpt lat="43.029364355763974" lon="11.413453823511125"><ele>240.0</ele><time>2026-03-28T12:45:01Z</time></trkpt><trkpt lat="43.02928191063563" lon="11.413585962994828"><ele>240.0</ele><time>2026-03-28T12:45:02Z</time></trkpt><trkpt lat="43.02918916825497" lon="11.413735622426765"><ele>240.0</ele><time>2026-03-28T12:45:03Z</time></trkpt><trkpt lat="43.02909337206011" lon="11.413890957961646"><ele>240.0</ele><time>2026-03-28T12:45:04Z</time></trkpt><trkpt lat="43.0289949916941" lon="11.414063906769469"><ele>239.0</ele><time>2026-03-28T12:45:05Z</time></trkpt><trkpt lat="43.02889354127121" lon="11.414233712714243"><ele>238.0</ele><time>2026-03-28T12:45:06Z</time></trkpt><trkpt lat="43.02878979639679" lon="11.414398237130637"><ele>237.0</ele><time>2026-03-28T12:45:07Z</time></trkpt><trkpt lat="43.02867614044969" lon="11.41456984059193"><ele>239.33333333333331</ele><time>2026-03-28T12:45:08Z</time></trkpt><trkpt lat="43.02856820263886" lon="11.414748291926053"><ele>241.66666666666666</ele><time>2026-03-28T12:45:09Z</time></trkpt><trkpt lat="43.028472639136545" lon="11.414905097477918"><ele>244.0</ele><time>2026-03-28T12:45:10Z</time></trkpt><trkpt lat="43.02837715021466" lon="11.415030914897422"><ele>244.25</ele><time>2026-03-28T12:45:11Z</time></trkpt><trkpt lat="43.02830477158092" lon="11.415181734796073"><ele>244.5</ele><time>2026-03-28T12:45:12Z</time></trkpt><trkpt lat="43.02821366557378" lon="11.415321640915252"><ele>244.75</ele><time>2026-03-28T12:45:13Z</time></trkpt><trkpt lat="43.02811694017425" lon="11.41547584057879"><ele>245.0</ele><time>2026-03-28T12:45:14Z</time></trkpt><trkpt lat="43.028019131120374" lon="11.415636345344218"><ele>245.0</ele><time>2026-03-28T12:45:15Z</time></trkpt><trkpt lat="43.027933360355554" lon="11.415775100654276"><ele>245.0</ele><time>2026-03-28T12:45:16Z</time></trkpt><trkpt lat="43.02785018729552" lon="11.415913586480492"><ele>245.0</ele><time>2026-03-28T12:45:17Z</time></trkpt><trkpt lat="43.027765412822994" lon="11.416062224894853"><ele>245.0</ele><time>2026-03-28T12:45:18Z</time></trkpt><trkpt lat="43.02767393733697" lon="11.416226393882948"><ele>246.66666666666669</ele><time>2026-03-28T12:45:19Z</time></trkpt><trkpt lat="43.027571606000194" lon="11.41641203705441"><ele>248.33333333333331</ele><time>2026-03-28T12:45:20Z</time></trkpt><trkpt lat="43.0274714859871" lon="11.416592246653416"><ele>250.0</ele><time>2026-03-28T12:45:21Z</time></trkpt><trkpt lat="43.027374307216405" lon="11.41675798620293"><ele>248.33333333333331</ele><time>2026-03-28T12:45:22Z</time></trkpt><trkpt lat="43.027276962768376" lon="11.416920018114226"><ele>246.66666666666669</ele><time>2026-03-28T12:45:23Z</time></trkpt><trkpt lat="43.027180829192176" lon="11.417089489537519"><ele>245.0</ele><time>2026-03-28T12:45:24Z</time></trkpt><trkpt lat="43.02708532675298" lon="11.41725220197359"><ele>245.0</ele><time>2026-03-28T12:45:25Z</time></trkpt><trkpt lat="43.02699084207073" lon="11.41739597159312"><ele>245.0</ele><time>2026-03-28T12:45:26Z</time></trkpt><trkpt lat="43.02689747276349" lon="11.417533917577337"><ele>245.0</ele><time>2026-03-28T12:45:27Z</time></trkpt><trkpt lat="43.026797440116376" lon="11.417676048656071"><ele>245.0</ele><time>2026-03-28T12:45:28Z</time></trkpt><trkpt lat="43.02669389108698" lon="11.417819299075722"><ele>245.25</ele><time>2026-03-28T12:45:29Z</time></trkpt><trkpt lat="43.02659859001789" lon="11.417948057283098"><ele>245.5</ele><time>2026-03-28T12:45:30Z</time></trkpt><trkpt lat="43.026509555787555" lon="11.418061052468019"><ele>245.75</ele><time>2026-03-28T12:45:31Z</time></trkpt><trkpt lat="43.026425306598426" lon="11.418165944112678"><ele>246.0</ele><time>2026-03-28T12:45:32Z</time></trkpt><trkpt lat="43.026350612929924" lon="11.418263860953612"><ele>246.0</ele><time>2026-03-28T12:45:33Z</time></trkpt><trkpt lat="43.026274492142726" lon="11.418351717267832"><ele>246.00000000000003</ele><time>2026-03-28T12:45:34Z</time></trkpt><trkpt lat="43.026201627746396" lon="11.418431985351589"><ele>246.00000000000003</ele><time>2026-03-28T12:45:35Z</time></trkpt><trkpt lat="43.026125883046646" lon="11.418522917767215"><ele>246.0</ele><time>2026-03-28T12:45:36Z</time></trkpt><trkpt lat="43.02604460074741" lon="11.418635607665319"><ele>246.0</ele><time>2026-03-28T12:45:37Z</time></trkpt><trkpt lat="43.02596292626021" lon="11.418756119059275"><ele>246.25</ele><time>2026-03-28T12:45:38Z</time></trkpt><trkpt lat="43.02587625969594" lon="11.418866666276392"><ele>246.5</ele><time>2026-03-28T12:45:39Z</time></trkpt><trkpt lat="43.02578655291256" lon="11.41897760178343"><ele>246.75</ele><time>2026-03-28T12:45:40Z</time></trkpt><trkpt lat="43.025696963184565" lon="11.419088977799088"><ele>247.0</ele><time>2026-03-28T12:45:41Z</time></trkpt><trkpt lat="43.02561185534738" lon="11.419203790148527"><ele>243.75</ele><time>2026-03-28T12:45:42Z</time></trkpt><trkpt lat="43.02552455411055" lon="11.419311897978675"><ele>240.5</ele><time>2026-03-28T12:45:43Z</time></trkpt><trkpt lat="43.025434658273596" lon="11.419416176175435"><ele>237.25</ele><time>2026-03-28T12:45:44Z</time></trkpt><trkpt lat="43.02533952893534" lon="11.419533330640832"><ele>234.0</ele><time>2026-03-28T12:45:45Z</time></trkpt><trkpt lat="43.025251223602574" lon="11.419644509046"><ele>233.39999999999998</ele><time>2026-03-28T12:45:46Z</time></trkpt><trkpt lat="43.02516880435072" lon="11.419746321348246"><ele>232.79999999999998</ele><time>2026-03-28T12:45:47Z</time></trkpt><trkpt lat="43.02508202871227" lon="11.419836714304278"><ele>232.20000000000002</ele><time>2026-03-28T12:45:48Z</time></trkpt><trkpt lat="43.02499223066233" lon="11.419911020065555"><ele>231.60000000000002</ele><time>2026-03-28T12:45:49Z</time></trkpt><trkpt lat="43.024900165310285" lon="11.419977209791156"><ele>231.0</ele><time>2026-03-28T12:45:50Z</time></trkpt><trkpt lat="43.02479708574428" lon="11.4200201912036"><ele>231.0</ele><time>2026-03-28T12:45:51Z</time></trkpt><trkpt lat="43.02468218017213" lon="11.420069200246965"><ele>231.0</ele><time>2026-03-28T12:45:52Z</time></trkpt><trkpt lat="43.02453849185977" lon="11.420078082639542"><ele>231.0</ele><time>2026-03-28T12:45:53Z</time></trkpt><trkpt lat="43.02437995187601" lon="11.420083064252418"><ele>231.0</ele><time>2026-03-28T12:45:54Z</time></trkpt><trkpt lat="43.02423706015348" lon="11.420087906247291"><ele>229.75</ele><time>2026-03-28T12:45:55Z</time></trkpt><trkpt lat="43.024098168802446" lon="11.420092428619784"><ele>228.5</ele><time>2026-03-28T12:45:56Z</time></trkpt><trkpt lat="43.02396468789616" lon="11.420102350253146"><ele>227.25</ele><time>2026-03-28T12:45:57Z</time></trkpt><trkpt lat="43.02383186593823" lon="11.420103798385277"><ele>226.0</ele><time>2026-03-28T12:45:58Z</time></trkpt><trkpt lat="43.02370023310825" lon="11.420097636265597"><ele>226.0</ele><time>2026-03-28T12:45:59Z</time></trkpt><trkpt lat="43.02357009413075" lon="11.420082196752018"><ele>226.0</ele><time>2026-03-28T12:46:00Z</time></trkpt><trkpt lat="43.02344004329088" lon="11.420053743327912"><ele>226.0</ele><time>2026-03-28T12:46:01Z</time></trkpt><trkpt lat="43.02332119784607" lon="11.41999292774356"><ele>226.0</ele><time>2026-03-28T12:46:02Z</time></trkpt><trkpt lat="43.02319456733724" lon="11.41991652646823"><ele>226.33333333333331</ele><time>2026-03-28T12:46:03Z</time></trkpt><trkpt lat="43.0230629335259" lon="11.41982009351484"><ele>226.66666666666669</ele><time>2026-03-28T12:46:04Z</time></trkpt><trkpt lat="43.02292225585568" lon="11.419710924905276"><ele>227.0</ele><time>2026-03-28T12:46:05Z</time></trkpt><trkpt lat="43.02276757447454" lon="11.419589369894883"><ele>226.0</ele><time>2026-03-28T12:46:06Z</time></trkpt><trkpt lat="43.02261991950292" lon="11.419447553904137"><ele>225.0</ele><time>2026-03-28T12:46:07Z</time></trkpt><trkpt lat="43.02247935607659" lon="11.419334646753903"><ele>224.0</ele><time>2026-03-28T12:46:08Z</time></trkpt><trkpt lat="43.02235136349807" lon="11.41923381930194"><ele>224.0</ele><time>2026-03-28T12:46:09Z</time></trkpt><trkpt lat="43.022218007388936" lon="11.41915292241859"><ele>224.0</ele><time>2026-03-28T12:46:10Z</time></trkpt><trkpt lat="43.0220982919512" lon="11.419060424561927"><ele>224.0</ele><time>2026-03-28T12:46:11Z</time></trkpt><trkpt lat="43.021993788603986" lon="11.418981730399237"><ele>224.0</ele><time>2026-03-28T12:46:12Z</time></trkpt><trkpt lat="43.0219005033109" lon="11.418920412769765"><ele>224.0</ele><time>2026-03-28T12:46:13Z</time></trkpt><trkpt lat="43.021819076198454" lon="11.418846768123707"><ele>223.99999999999997</ele><time>2026-03-28T12:46:14Z</time></trkpt><trkpt lat="43.02172678575161" lon="11.418798157565902"><ele>223.99999999999997</ele><time>2026-03-28T12:46:15Z</time></trkpt><trkpt lat="43.021628541588576" lon="11.418775539364391"><ele>224.0</ele><time>2026-03-28T12:46:16Z</time></trkpt><trkpt lat="43.02153932995768" lon="11.418736722793016"><ele>224.0</ele><time>2026-03-28T12:46:17Z</time></trkpt><trkpt lat="43.0214508375151" lon="11.418704241394982"><ele>224.50000000000003</ele><time>2026-03-28T12:46:18Z</time></trkpt><trkpt lat="43.02137505373376" lon="11.418677816989266"><ele>225.0</ele><time>2026-03-28T12:46:19Z</time></trkpt><trkpt lat="43.02130394418613" lon="11.41866251110852"><ele>225.5</ele><time>2026-03-28T12:46:20Z</time></trkpt><trkpt lat="43.02119737850428" lon="11.418646035417146"><ele>226.0</ele><time>2026-03-28T12:46:22Z</time></trkpt><trkpt lat="43.0211139315728" lon="11.418629809325042"><ele>226.50000000000003</ele><time>2026-03-28T12:46:25Z</time></trkpt><trkpt lat="43.02105364278954" lon="11.418671167050917"><ele>227.0</ele><time>2026-03-28T12:46:28Z</time></trkpt><trkpt lat="43.02114446996141" lon="11.418892348049177"><ele>227.0</ele><time>2026-03-28T12:46:29Z</time></trkpt><trkpt lat="43.02121477223902" lon="11.418997866964595"><ele>227.0</ele><time>2026-03-28T12:46:30Z</time></trkpt><trkpt lat="43.02130433504156" lon="11.419140215262653"><ele>227.0</ele><time>2026-03-28T12:46:31Z</time></trkpt><trkpt lat="43.02137832443589" lon="11.41927073388982"><ele>227.0</ele><time>2026-03-28T12:46:32Z</time></trkpt><trkpt lat="43.02147670010477" lon="11.41945147984318"><ele>228.66666666666669</ele><time>2026-03-28T12:46:33Z</time></trkpt><trkpt lat="43.02159322586637" lon="11.41965561156139"><ele>230.33333333333331</ele><time>2026-03-28T12:46:34Z</time></trkpt><trkpt lat="43.02169259271598" lon="11.419824584214531"><ele>232.0</ele><time>2026-03-28T12:46:35Z</time></trkpt><trkpt lat="43.021793721029944" lon="11.419998317645986"><ele>232.0</ele><time>2026-03-28T12:46:36Z</time></trkpt><trkpt lat="43.021888071053304" lon="11.420157338282788"><ele>232.0</ele><time>2026-03-28T12:46:37Z</time></trkpt><trkpt lat="43.02197584915339" lon="11.420310454701278"><ele>232.0</ele><time>2026-03-28T12:46:38Z</time></trkpt><trkpt lat="43.02205576773507" lon="11.420447878172528"><ele>232.0</ele><time>2026-03-28T12:46:39Z</time></trkpt><trkpt lat="43.022130067029444" lon="11.420577514741836"><ele>232.0</ele><time>2026-03-28T12:46:40Z</time></trkpt><trkpt lat="43.02219663922429" lon="11.420705142052604"><ele>232.0</ele><time>2026-03-28T12:46:41Z</time></trkpt><trkpt lat="43.02225547369747" lon="11.420831171437248"><ele>232.0</ele><time>2026-03-28T12:46:42Z</time></trkpt><trkpt lat="43.022304343251214" lon="11.420973376432574"><ele>232.0</ele><time>2026-03-28T12:46:43Z</time></trkpt><trkpt lat="43.02232441107386" lon="11.421133363636832"><ele>232.0</ele><time>2026-03-28T12:46:44Z</time></trkpt><trkpt lat="43.022306725487006" lon="11.421298469538351"><ele>232.0</ele><time>2026-03-28T12:46:45Z</time></trkpt><trkpt lat="43.02226618902136" lon="11.421463755631299"><ele>232.0</ele><time>2026-03-28T12:46:46Z</time></trkpt><trkpt lat="43.02219253122949" lon="11.421645463669659"><ele>232.0</ele><time>2026-03-28T12:46:47Z</time></trkpt><trkpt lat="43.022098859764455" lon="11.421853454756887"><ele>228.66666666666666</ele><time>2026-03-28T12:46:48Z</time></trkpt><trkpt lat="43.02199683984584" lon="11.42207008557755"><ele>225.33333333333331</ele><time>2026-03-28T12:46:49Z</time></trkpt><trkpt lat="43.021890435672425" lon="11.422291480973898"><ele>222.0</ele><time>2026-03-28T12:46:50Z</time></trkpt><trkpt lat="43.021785194438074" lon="11.422535900116978"><ele>220.0</ele><time>2026-03-28T12:46:51Z</time></trkpt><trkpt lat="43.021688884652384" lon="11.422777966814918"><ele>218.0</ele><time>2026-03-28T12:46:52Z</time></trkpt><trkpt lat="43.02160419931243" lon="11.422999646065573"><ele>216.0</ele><time>2026-03-28T12:46:53Z</time></trkpt><trkpt lat="43.02151622094552" lon="11.423219433949091"><ele>216.66666666666669</ele><time>2026-03-28T12:46:54Z</time></trkpt><trkpt lat="43.0214209971331" lon="11.423433614520171"><ele>217.33333333333334</ele><time>2026-03-28T12:46:55Z</time></trkpt><trkpt lat="43.02131804179896" lon="11.42364688946743"><ele>218.0</ele><time>2026-03-28T12:46:56Z</time></trkpt><trkpt lat="43.02119678742598" lon="11.423846971688903"><ele>218.0</ele><time>2026-03-28T12:46:57Z</time></trkpt><trkpt lat="43.02104862875783" lon="11.424041940490334"><ele>218.0</ele><time>2026-03-28T12:46:58Z</time></trkpt><trkpt lat="43.02087775503776" lon="11.424200194624198"><ele>218.0</ele><time>2026-03-28T12:46:59Z</time></trkpt><trkpt lat="43.02074106198509" lon="11.424351127067986"><ele>218.25</ele><time>2026-03-28T12:47:00Z</time></trkpt><trkpt lat="43.0206219357414" lon="11.424485802467483"><ele>218.5</ele><time>2026-03-28T12:47:01Z</time></trkpt><trkpt lat="43.02051229384007" lon="11.424615535351432"><ele>218.75</ele><time>2026-03-28T12:47:02Z</time></trkpt><trkpt lat="43.02041424232074" lon="11.424743304526212"><ele>219.0</ele><time>2026-03-28T12:47:03Z</time></trkpt><trkpt lat="43.020309724242175" lon="11.424888288506509"><ele>221.66666666666669</ele><time>2026-03-28T12:47:04Z</time></trkpt><trkpt lat="43.02020657900102" lon="11.42506719806533"><ele>224.33333333333334</ele><time>2026-03-28T12:47:05Z</time></trkpt><trkpt lat="43.020100389725165" lon="11.42527676612347"><ele>227.0</ele><time>2026-03-28T12:47:06Z</time></trkpt><trkpt lat="43.01999446144251" lon="11.425509066652799"><ele>231.33333333333334</ele><time>2026-03-28T12:47:07Z</time></trkpt><trkpt lat="43.01987508787508" lon="11.425770682639612"><ele>235.66666666666669</ele><time>2026-03-28T12:47:08Z</time></trkpt><trkpt lat="43.01976313092699" lon="11.42601540696466"><ele>240.0</ele><time>2026-03-28T12:47:09Z</time></trkpt><trkpt lat="43.019657533064645" lon="11.426248536918942"><ele>241.33333333333331</ele><time>2026-03-28T12:47:10Z</time></trkpt><trkpt lat="43.01956799834747" lon="11.42648524447827"><ele>242.66666666666666</ele><time>2026-03-28T12:47:11Z</time></trkpt><trkpt lat="43.0194664907337" lon="11.4267066096894"><ele>244.0</ele><time>2026-03-28T12:47:12Z</time></trkpt><trkpt lat="43.01936599149488" lon="11.426944405650625"><ele>246.0</ele><time>2026-03-28T12:47:13Z</time></trkpt><trkpt lat="43.019266777987724" lon="11.427173433951618"><ele>248.0</ele><time>2026-03-28T12:47:14Z</time></trkpt><trkpt lat="43.019179413492935" lon="11.427378994073502"><ele>250.0</ele><time>2026-03-28T12:47:15Z</time></trkpt><trkpt lat="43.01908188171831" lon="11.427568710872285"><ele>250.66666666666666</ele><time>2026-03-28T12:47:16Z</time></trkpt><trkpt lat="43.01899930228555" lon="11.427777703499373"><ele>251.33333333333331</ele><time>2026-03-28T12:47:17Z</time></trkpt><trkpt lat="43.018923702520965" lon="11.427981337139363"><ele>252.0</ele><time>2026-03-28T12:47:18Z</time></trkpt><trkpt lat="43.01886167368009" lon="11.428169417976024"><ele>252.0</ele><time>2026-03-28T12:47:19Z</time></trkpt><trkpt lat="43.01880863596406" lon="11.42833821999614"><ele>252.0</ele><time>2026-03-28T12:47:20Z</time></trkpt><trkpt lat="43.0187722354355" lon="11.42851600762773"><ele>252.0</ele><time>2026-03-28T12:47:21Z</time></trkpt><trkpt lat="43.01871077110684" lon="11.428698271076684"><ele>252.0</ele><time>2026-03-28T12:47:22Z</time></trkpt><trkpt lat="43.01865201418709" lon="11.428897507048553"><ele>251.33333333333331</ele><time>2026-03-28T12:47:23Z</time></trkpt><trkpt lat="43.01859218029471" lon="11.429108411747048"><ele>250.66666666666666</ele><time>2026-03-28T12:47:24Z</time></trkpt><trkpt lat="43.01853288297201" lon="11.429336580472967"><ele>250.0</ele><time>2026-03-28T12:47:25Z</time></trkpt><trkpt lat="43.01844432155307" lon="11.429577439331524"><ele>249.33333333333331</ele><time>2026-03-28T12:47:26Z</time></trkpt><trkpt lat="43.01836405191581" lon="11.42984755096533"><ele>248.66666666666669</ele><time>2026-03-28T12:47:27Z</time></trkpt><trkpt lat="43.0182951839936" lon="11.430138780525738"><ele>248.0</ele><time>2026-03-28T12:47:28Z</time></trkpt><trkpt lat="43.018208655069046" lon="11.430398921754293"><ele>246.0</ele><time>2026-03-28T12:47:29Z</time></trkpt><trkpt lat="43.01812183031825" lon="11.430673580213126"><ele>244.0</ele><time>2026-03-28T12:47:30Z</time></trkpt><trkpt lat="43.018021155654694" lon="11.430947586010197"><ele>242.0</ele><time>2026-03-28T12:47:31Z</time></trkpt><trkpt lat="43.017947966541044" lon="11.431266611531715"><ele>240.5</ele><time>2026-03-28T12:47:32Z</time></trkpt><trkpt lat="43.01786715085318" lon="11.431580033061827"><ele>239.0</ele><time>2026-03-28T12:47:33Z</time></trkpt><trkpt lat="43.01777081572088" lon="11.431863345756424"><ele>239.0</ele><time>2026-03-28T12:47:34Z</time></trkpt><trkpt lat="43.01768289430891" lon="11.43216209957679"><ele>239.0</ele><time>2026-03-28T12:47:35Z</time></trkpt><trkpt lat="43.01759159726567" lon="11.43247160811206"><ele>239.0</ele><time>2026-03-28T12:47:36Z</time></trkpt><trkpt lat="43.01750421438606" lon="11.432767604932975"><ele>239.0</ele><time>2026-03-28T12:47:37Z</time></trkpt><trkpt lat="43.017434682985346" lon="11.433057476983638"><ele>240.33333333333334</ele><time>2026-03-28T12:47:38Z</time></trkpt><trkpt lat="43.017351401582644" lon="11.433335871128127"><ele>241.66666666666669</ele><time>2026-03-28T12:47:39Z</time></trkpt><trkpt lat="43.017268427547194" lon="11.433627565219615"><ele>243.0</ele><time>2026-03-28T12:47:40Z</time></trkpt><trkpt lat="43.01718225518566" lon="11.433917909016072"><ele>245.0</ele><time>2026-03-28T12:47:41Z</time></trkpt><trkpt lat="43.01709544191804" lon="11.434205720333441"><ele>247.0</ele><time>2026-03-28T12:47:42Z</time></trkpt><trkpt lat="43.017016401721435" lon="11.434471270326766"><ele>249.0</ele><time>2026-03-28T12:47:43Z</time></trkpt><trkpt lat="43.016941999381444" lon="11.43470798641605"><ele>249.66666666666669</ele><time>2026-03-28T12:47:44Z</time></trkpt><trkpt lat="43.01686523312391" lon="11.43494913172062"><ele>250.33333333333334</ele><time>2026-03-28T12:47:45Z</time></trkpt><trkpt lat="43.01679165059685" lon="11.435203103571304"><ele>251.0</ele><time>2026-03-28T12:47:46Z</time></trkpt><trkpt lat="43.01670492291531" lon="11.435461292341241"><ele>252.66666666666669</ele><time>2026-03-28T12:47:47Z</time></trkpt><trkpt lat="43.01662386814601" lon="11.43573338280378"><ele>254.33333333333331</ele><time>2026-03-28T12:47:48Z</time></trkpt><trkpt lat="43.016541615106014" lon="11.436014228086622"><ele>256.0</ele><time>2026-03-28T12:47:49Z</time></trkpt><trkpt lat="43.01646193271148" lon="11.436286296610662"><ele>257.0</ele><time>2026-03-28T12:47:50Z</time></trkpt><trkpt lat="43.01637965761739" lon="11.436567217169635"><ele>258.0</ele><time>2026-03-28T12:47:51Z</time></trkpt><trkpt lat="43.01629823726204" lon="11.436844149603804"><ele>259.0</ele><time>2026-03-28T12:47:52Z</time></trkpt><trkpt lat="43.016238253885824" lon="11.437068184047089"><ele>261.0</ele><time>2026-03-28T12:47:53Z</time></trkpt><trkpt lat="43.01617261889218" lon="11.437295145976496"><ele>263.0</ele><time>2026-03-28T12:47:54Z</time></trkpt><trkpt lat="43.01610724686324" lon="11.43752151475131"><ele>265.0</ele><time>2026-03-28T12:47:54.999Z</time></trkpt><trkpt lat="43.01603783583928" lon="11.437762839442504"><ele>266.66666666666663</ele><time>2026-03-28T12:47:55.999Z</time></trkpt><trkpt lat="43.015975013732074" lon="11.437980801640682"><ele>268.3333333333333</ele><time>2026-03-28T12:47:56.999Z</time></trkpt><trkpt lat="43.01591837250564" lon="11.438173204392173"><ele>270.0</ele><time>2026-03-28T12:47:57.999Z</time></trkpt><trkpt lat="43.01586779219322" lon="11.438342582128138"><ele>270.0</ele><time>2026-03-28T12:47:58.999Z</time></trkpt><trkpt lat="43.01582432461736" lon="11.43848192143505"><ele>270.0</ele><time>2026-03-28T12:47:59.999Z</time></trkpt><trkpt lat="43.015789163985154" lon="11.43860542762508"><ele>270.0</ele><time>2026-03-28T12:48:00.999Z</time></trkpt><trkpt lat="43.01575064817352" lon="11.438703032726837"><ele>270.0</ele><time>2026-03-28T12:48:01.999Z</time></trkpt><trkpt lat="43.015662948523904" lon="11.43881141951664"><ele>270.0</ele><time>2026-03-28T12:48:03.999Z</time></trkpt><trkpt lat="43.01552246207068" lon="11.438717753409387"><ele>270.8</ele><time>2026-03-28T12:48:06.999Z</time></trkpt><trkpt lat="43.01548285760926" lon="11.43862858421176"><ele>271.6</ele><time>2026-03-28T12:48:07.999Z</time></trkpt><trkpt lat="43.01544558028512" lon="11.438530294573615"><ele>272.4</ele><time>2026-03-28T12:48:09Z</time></trkpt><trkpt lat="43.01540693562118" lon="11.43841472987768"><ele>273.2</ele><time>2026-03-28T12:48:10Z</time></trkpt><trkpt lat="43.015360821001046" lon="11.438300051984628"><ele>274.0</ele><time>2026-03-28T12:48:11Z</time></trkpt><trkpt lat="43.01530655255628" lon="11.438169195269628"><ele>274.0</ele><time>2026-03-28T12:48:12Z</time></trkpt><trkpt lat="43.015241572496215" lon="11.438030700536133"><ele>274.0</ele><time>2026-03-28T12:48:13Z</time></trkpt><trkpt lat="43.01518060868859" lon="11.43789464467874"><ele>274.0</ele><time>2026-03-28T12:48:14Z</time></trkpt><trkpt lat="43.01511572745946" lon="11.437729870211736"><ele>274.0</ele><time>2026-03-28T12:48:15Z</time></trkpt><trkpt lat="43.0150583468953" lon="11.437555647623938"><ele>272.5</ele><time>2026-03-28T12:48:16Z</time></trkpt><trkpt lat="43.01500660344844" lon="11.43739136592172"><ele>271.0</ele><time>2026-03-28T12:48:17Z</time></trkpt><trkpt lat="43.01496518684649" lon="11.437223934929753"><ele>269.5</ele><time>2026-03-28T12:48:18Z</time></trkpt><trkpt lat="43.01493516955305" lon="11.437049370004033"><ele>268.0</ele><time>2026-03-28T12:48:19Z</time></trkpt><trkpt lat="43.01491453062676" lon="11.436858518846227"><ele>265.0</ele><time>2026-03-28T12:48:20Z</time></trkpt><trkpt lat="43.01490140447832" lon="11.436651714101044"><ele>262.0</ele><time>2026-03-28T12:48:21Z</time></trkpt><trkpt lat="43.01488728996362" lon="11.436431036355227"><ele>259.0</ele><time>2026-03-28T12:48:22Z</time></trkpt><trkpt lat="43.01489357850686" lon="11.436224693777085"><ele>258.5</ele><time>2026-03-28T12:48:23Z</time></trkpt><trkpt lat="43.014885868907925" lon="11.436044721888774"><ele>258.0</ele><time>2026-03-28T12:48:24Z</time></trkpt><trkpt lat="43.014863260261215" lon="11.435872421371538"><ele>257.5</ele><time>2026-03-28T12:48:25Z</time></trkpt><trkpt lat="43.01486563527849" lon="11.435698875724768"><ele>257.0</ele><time>2026-03-28T12:48:26Z</time></trkpt><trkpt lat="43.014855735734436" lon="11.435536876248829"><ele>256.75</ele><time>2026-03-28T12:48:27Z</time></trkpt><trkpt lat="43.01484514169574" lon="11.435377060293378"><ele>256.5</ele><time>2026-03-28T12:48:28Z</time></trkpt><trkpt lat="43.01483346236636" lon="11.435221392628979"><ele>256.25</ele><time>2026-03-28T12:48:29Z</time></trkpt><trkpt lat="43.01481604738901" lon="11.43506567776967"><ele>256.0</ele><time>2026-03-28T12:48:30Z</time></trkpt><trkpt lat="43.01479723089588" lon="11.434896314621847"><ele>256.0</ele><time>2026-03-28T12:48:31Z</time></trkpt><trkpt lat="43.014775562225104" lon="11.434732328926914"><ele>256.0</ele><time>2026-03-28T12:48:32Z</time></trkpt><trkpt lat="43.01475796097684" lon="11.434571720553457"><ele>256.0</ele><time>2026-03-28T12:48:33Z</time></trkpt><trkpt lat="43.01473506395818" lon="11.43442027736979"><ele>256.0</ele><time>2026-03-28T12:48:34Z</time></trkpt><trkpt lat="43.01471581502241" lon="11.434284230952247"><ele>255.8</ele><time>2026-03-28T12:48:35Z</time></trkpt><trkpt lat="43.01470455910756" lon="11.434152121696249"><ele>255.60000000000002</ele><time>2026-03-28T12:48:36Z</time></trkpt><trkpt lat="43.01469516233165" lon="11.434013265095276"><ele>255.4</ele><time>2026-03-28T12:48:37Z</time></trkpt><trkpt lat="43.01470189182692" lon="11.433883570842818"><ele>255.2</ele><time>2026-03-28T12:48:38Z</time></trkpt><trkpt lat="43.01473075518012" lon="11.433745736819937"><ele>255.0</ele><time>2026-03-28T12:48:39Z</time></trkpt><trkpt lat="43.014773693527644" lon="11.433613173946009"><ele>254.2</ele><time>2026-03-28T12:48:40Z</time></trkpt><trkpt lat="43.014824809781516" lon="11.433488518270575"><ele>253.4</ele><time>2026-03-28T12:48:41Z</time></trkpt><trkpt lat="43.01487308964366" lon="11.433373234454214"><ele>252.60000000000002</ele><time>2026-03-28T12:48:42Z</time></trkpt><trkpt lat="43.01491611204954" lon="11.43326620215902"><ele>251.8</ele><time>2026-03-28T12:48:43Z</time></trkpt><trkpt lat="43.01495306834116" lon="11.433158235847275"><ele>251.0</ele><time>2026-03-28T12:48:44Z</time></trkpt><trkpt lat="43.01498128007776" lon="11.43303229022456"><ele>250.4</ele><time>2026-03-28T12:48:45Z</time></trkpt><trkpt lat="43.01499718972886" lon="11.432893590482184"><ele>249.8</ele><time>2026-03-28T12:48:46Z</time></trkpt><trkpt lat="43.01499768470112" lon="11.43274508085398"><ele>249.20000000000002</ele><time>2026-03-28T12:48:47Z</time></trkpt><trkpt lat="43.014987624167766" lon="11.432599104320403"><ele>248.60000000000002</ele><time>2026-03-28T12:48:48Z</time></trkpt><trkpt lat="43.01496257534764" lon="11.432449114217624"><ele>248.0</ele><time>2026-03-28T12:48:49Z</time></trkpt><trkpt lat="43.01493701667157" lon="11.432293236688835"><ele>247.25</ele><time>2026-03-28T12:48:50Z</time></trkpt><trkpt lat="43.01490408092807" lon="11.432110113245418"><ele>246.5</ele><time>2026-03-28T12:48:51Z</time></trkpt><trkpt lat="43.01486905819986" lon="11.43191794928852"><ele>245.75</ele><time>2026-03-28T12:48:52Z</time></trkpt><trkpt lat="43.01483695943668" lon="11.431733675222178"><ele>245.0</ele><time>2026-03-28T12:48:53Z</time></trkpt><trkpt lat="43.01481066311291" lon="11.43155965656924"><ele>245.0</ele><time>2026-03-28T12:48:54Z</time></trkpt><trkpt lat="43.01478635704715" lon="11.431384939149485"><ele>245.0</ele><time>2026-03-28T12:48:55Z</time></trkpt><trkpt lat="43.01476108786043" lon="11.431221339522995"><ele>245.0</ele><time>2026-03-28T12:48:56Z</time></trkpt><trkpt lat="43.01472727742196" lon="11.431070184399518"><ele>245.0</ele><time>2026-03-28T12:48:57Z</time></trkpt><trkpt lat="43.014688918319756" lon="11.430935576387174"><ele>244.0</ele><time>2026-03-28T12:48:58Z</time></trkpt><trkpt lat="43.01464121778862" lon="11.430820544920659"><ele>243.0</ele><time>2026-03-28T12:48:59Z</time></trkpt><trkpt lat="43.014583470210745" lon="11.430716696215967"><ele>242.0</ele><time>2026-03-28T12:49:00Z</time></trkpt><trkpt lat="43.014506739412404" lon="11.430625910203549"><ele>241.0</ele><time>2026-03-28T12:49:01Z</time></trkpt><trkpt lat="43.01440724403088" lon="11.430562761122275"><ele>240.0</ele><time>2026-03-28T12:49:02Z</time></trkpt><trkpt lat="43.01430231904332" lon="11.430510808657303"><ele>239.2</ele><time>2026-03-28T12:49:03Z</time></trkpt><trkpt lat="43.01420606717479" lon="11.4304450517856"><ele>238.4</ele><time>2026-03-28T12:49:04Z</time></trkpt><trkpt lat="43.0141331474975" lon="11.430358597599573"><ele>237.60000000000002</ele><time>2026-03-28T12:49:05Z</time></trkpt><trkpt lat="43.01405877800775" lon="11.430245622175821"><ele>236.8</ele><time>2026-03-28T12:49:06Z</time></trkpt><trkpt lat="43.014013476283694" lon="11.430100253282518"><ele>236.0</ele><time>2026-03-28T12:49:07Z</time></trkpt><trkpt lat="43.01396186010387" lon="11.429938754574978"><ele>236.0</ele><time>2026-03-28T12:49:08Z</time></trkpt><trkpt lat="43.0139098144876" lon="11.429783325837736"><ele>236.00000000000003</ele><time>2026-03-28T12:49:09Z</time></trkpt><trkpt lat="43.01388275240832" lon="11.429637622451889"><ele>236.00000000000003</ele><time>2026-03-28T12:49:10Z</time></trkpt><trkpt lat="43.01385551743351" lon="11.429504021502643"><ele>236.0</ele><time>2026-03-28T12:49:11Z</time></trkpt><trkpt lat="43.01381166504382" lon="11.429376151907224"><ele>236.0</ele><time>2026-03-28T12:49:12Z</time></trkpt><trkpt lat="43.0137510630327" lon="11.42926701777098"><ele>234.5</ele><time>2026-03-28T12:49:13Z</time></trkpt><trkpt lat="43.013668353304524" lon="11.4291712998991"><ele>233.0</ele><time>2026-03-28T12:49:14Z</time></trkpt><trkpt lat="43.01357838508567" lon="11.429083636215644"><ele>231.5</ele><time>2026-03-28T12:49:15Z</time></trkpt><trkpt lat="43.01344658511703" lon="11.428992429141145"><ele>230.0</ele><time>2026-03-28T12:49:16Z</time></trkpt><trkpt lat="43.01327695991016" lon="11.428907591151452"><ele>230.0</ele><time>2026-03-28T12:49:17Z</time></trkpt><trkpt lat="43.013069340825645" lon="11.428824691499747"><ele>230.0</ele><time>2026-03-28T12:49:18Z</time></trkpt><trkpt lat="43.01286128630354" lon="11.428748069342852"><ele>230.0</ele><time>2026-03-28T12:49:19Z</time></trkpt><trkpt lat="43.01268011911166" lon="11.428676915288094"><ele>229.5</ele><time>2026-03-28T12:49:20Z</time></trkpt><trkpt lat="43.012524436793655" lon="11.428617632463851"><ele>229.0</ele><time>2026-03-28T12:49:21Z</time></trkpt><trkpt lat="43.01239002538409" lon="11.428548943982564"><ele>228.5</ele><time>2026-03-28T12:49:22Z</time></trkpt><trkpt lat="43.01227321242299" lon="11.428453013472964"><ele>228.0</ele><time>2026-03-28T12:49:23Z</time></trkpt><trkpt lat="43.012136231537916" lon="11.42833014276312"><ele>228.0</ele><time>2026-03-28T12:49:24Z</time></trkpt><trkpt lat="43.0119785461005" lon="11.42817491429296"><ele>228.0</ele><time>2026-03-28T12:49:25Z</time></trkpt><trkpt lat="43.01182175229678" lon="11.42801326523193"><ele>228.0</ele><time>2026-03-28T12:49:26Z</time></trkpt><trkpt lat="43.01168849815223" lon="11.42787640008773"><ele>227.33333333333331</ele><time>2026-03-28T12:49:27Z</time></trkpt><trkpt lat="43.01156811589202" lon="11.42775689865892"><ele>226.66666666666666</ele><time>2026-03-28T12:49:28Z</time></trkpt><trkpt lat="43.01145196817101" lon="11.427636583113228"><ele>226.0</ele><time>2026-03-28T12:49:29Z</time></trkpt><trkpt lat="43.01134061231503" lon="11.427488335980616"><ele>226.0</ele><time>2026-03-28T12:49:30Z</time></trkpt><trkpt lat="43.01123544928093" lon="11.427291897806407"><ele>226.0</ele><time>2026-03-28T12:49:31Z</time></trkpt><trkpt lat="43.011126552322516" lon="11.427059999358939"><ele>226.0</ele><time>2026-03-28T12:49:32Z</time></trkpt><trkpt lat="43.01101330369351" lon="11.426814297297696"><ele>226.33333333333331</ele><time>2026-03-28T12:49:33Z</time></trkpt><trkpt lat="43.01091353708874" lon="11.426599117656208"><ele>226.66666666666669</ele><time>2026-03-28T12:49:34Z</time></trkpt><trkpt lat="43.010813226513264" lon="11.4264120543115"><ele>227.0</ele><time>2026-03-28T12:49:35Z</time></trkpt><trkpt lat="43.01071144613983" lon="11.426233876439657"><ele>227.0</ele><time>2026-03-28T12:49:36Z</time></trkpt><trkpt lat="43.01061767938227" lon="11.42606690308"><ele>227.0</ele><time>2026-03-28T12:49:37Z</time></trkpt><trkpt lat="43.010532285511005" lon="11.425905012859946"><ele>227.0</ele><time>2026-03-28T12:49:38Z</time></trkpt><trkpt lat="43.01045326536112" lon="11.42575483787951"><ele>227.0</ele><time>2026-03-28T12:49:39Z</time></trkpt><trkpt lat="43.01038272059132" lon="11.425596811796323"><ele>226.0</ele><time>2026-03-28T12:49:40Z</time></trkpt><trkpt lat="43.010327109932156" lon="11.425412864751733"><ele>225.0</ele><time>2026-03-28T12:49:41Z</time></trkpt><trkpt lat="43.010286008814" lon="11.425198015690343"><ele>224.0</ele><time>2026-03-28T12:49:42Z</time></trkpt><trkpt lat="43.01024522546175" lon="11.424947533113572"><ele>224.0</ele><time>2026-03-28T12:49:43Z</time></trkpt><trkpt lat="43.010199818442395" lon="11.424680357352532"><ele>224.0</ele><time>2026-03-28T12:49:44Z</time></trkpt><trkpt lat="43.01014934319232" lon="11.42441503334745"><ele>224.0</ele><time>2026-03-28T12:49:45Z</time></trkpt><trkpt lat="43.01010044888337" lon="11.424178313860393"><ele>223.0</ele><time>2026-03-28T12:49:46Z</time></trkpt><trkpt lat="43.010056393490125" lon="11.423950919978608"><ele>222.0</ele><time>2026-03-28T12:49:47Z</time></trkpt><trkpt lat="43.01000359320172" lon="11.423729507476105"><ele>221.0</ele><time>2026-03-28T12:49:48Z</time></trkpt><trkpt lat="43.00995174572295" lon="11.423502123314346"><ele>219.0</ele><time>2026-03-28T12:49:49Z</time></trkpt><trkpt lat="43.00989939262413" lon="11.423277388799196"><ele>217.0</ele><time>2026-03-28T12:49:50Z</time></trkpt><trkpt lat="43.00983818307087" lon="11.423062677391524"><ele>215.0</ele><time>2026-03-28T12:49:51Z</time></trkpt><trkpt lat="43.0097683930229" lon="11.422864195006618"><ele>215.0</ele><time>2026-03-28T12:49:52Z</time></trkpt><trkpt lat="43.009692412591264" lon="11.422660613910605"><ele>215.0</ele><time>2026-03-28T12:49:53Z</time></trkpt><trkpt lat="43.00961471157272" lon="11.422438342413082"><ele>215.0</ele><time>2026-03-28T12:49:54Z</time></trkpt><trkpt lat="43.009541935584174" lon="11.42220977554702"><ele>216.0</ele><time>2026-03-28T12:49:55Z</time></trkpt><trkpt lat="43.009474602438054" lon="11.422002402683283"><ele>217.0</ele><time>2026-03-28T12:49:56Z</time></trkpt><trkpt lat="43.00941593108228" lon="11.421823835717051"><ele>218.0</ele><time>2026-03-28T12:49:57Z</time></trkpt><trkpt lat="43.00936674036942" lon="11.421675226780726"><ele>219.0</ele><time>2026-03-28T12:49:58Z</time></trkpt><trkpt lat="43.00931127704616" lon="11.421536114627381"><ele>219.0</ele><time>2026-03-28T12:49:59Z</time></trkpt><trkpt lat="43.009231011831965" lon="11.421399450494283"><ele>219.0</ele><time>2026-03-28T12:50:00Z</time></trkpt><trkpt lat="43.00912154687787" lon="11.421288077133251"><ele>219.0</ele><time>2026-03-28T12:50:01Z</time></trkpt><trkpt lat="43.0089899173588" lon="11.421188388892308"><ele>219.0</ele><time>2026-03-28T12:50:02Z</time></trkpt><trkpt lat="43.00884664312069" lon="11.421101511885555"><ele>220.75</ele><time>2026-03-28T12:50:03Z</time></trkpt><trkpt lat="43.00871862078602" lon="11.421018634436384"><ele>222.5</ele><time>2026-03-28T12:50:04Z</time></trkpt><trkpt lat="43.008601931125256" lon="11.420936584348274"><ele>224.25</ele><time>2026-03-28T12:50:05Z</time></trkpt><trkpt lat="43.00848076290814" lon="11.420834984276386"><ele>226.0</ele><time>2026-03-28T12:50:06Z</time></trkpt><trkpt lat="43.00835576278965" lon="11.420729652857645"><ele>228.0</ele><time>2026-03-28T12:50:07Z</time></trkpt><trkpt lat="43.00822272339947" lon="11.420621782129022"><ele>230.0</ele><time>2026-03-28T12:50:08Z</time></trkpt><trkpt lat="43.00808279151196" lon="11.420504942271325"><ele>232.0</ele><time>2026-03-28T12:50:09Z</time></trkpt><trkpt lat="43.00793829764002" lon="11.420384625771598"><ele>232.66666666666666</ele><time>2026-03-28T12:50:10Z</time></trkpt><trkpt lat="43.00780107537891" lon="11.420268569706064"><ele>233.33333333333331</ele><time>2026-03-28T12:50:11Z</time></trkpt><trkpt lat="43.00766039672756" lon="11.42015329216252"><ele>234.0</ele><time>2026-03-28T12:50:12Z</time></trkpt><trkpt lat="43.00753732512442" lon="11.420051453767313"><ele>233.79999999999998</ele><time>2026-03-28T12:50:13Z</time></trkpt><trkpt lat="43.00743144434888" lon="11.419953970033223"><ele>233.59999999999997</ele><time>2026-03-28T12:50:14Z</time></trkpt><trkpt lat="43.007337793737456" lon="11.419865081582161"><ele>233.4</ele><time>2026-03-28T12:50:15Z</time></trkpt><trkpt lat="43.00725152942475" lon="11.419793081307327"><ele>233.2</ele><time>2026-03-28T12:50:16Z</time></trkpt><trkpt lat="43.007165341948216" lon="11.419723239361971"><ele>233.0</ele><time>2026-03-28T12:50:17Z</time></trkpt><trkpt lat="43.00707324417408" lon="11.41964991776883"><ele>232.5</ele><time>2026-03-28T12:50:18Z</time></trkpt><trkpt lat="43.00697771956637" lon="11.419569983077873"><ele>232.0</ele><time>2026-03-28T12:50:19Z</time></trkpt><trkpt lat="43.006883075731324" lon="11.419478443508126"><ele>231.5</ele><time>2026-03-28T12:50:20Z</time></trkpt><trkpt lat="43.006782637117894" lon="11.419357044435005"><ele>231.0</ele><time>2026-03-28T12:50:21Z</time></trkpt><trkpt lat="43.00667056636562" lon="11.41921504340479"><ele>231.66666666666669</ele><time>2026-03-28T12:50:22Z</time></trkpt><trkpt lat="43.00654362686823" lon="11.419045661456842"><ele>232.33333333333334</ele><time>2026-03-28T12:50:23Z</time></trkpt><trkpt lat="43.006427004031565" lon="11.41885993607244"><ele>233.0</ele><time>2026-03-28T12:50:24Z</time></trkpt><trkpt lat="43.006310831608715" lon="11.418644566822719"><ele>231.66666666666669</ele><time>2026-03-28T12:50:25Z</time></trkpt><trkpt lat="43.006200082345565" lon="11.41842552421306"><ele>230.33333333333331</ele><time>2026-03-28T12:50:26Z</time></trkpt><trkpt lat="43.0061040671713" lon="11.418221905036564"><ele>229.0</ele><time>2026-03-28T12:50:27Z</time></trkpt><trkpt lat="43.00600962041317" lon="11.418032743554523"><ele>228.0</ele><time>2026-03-28T12:50:28Z</time></trkpt><trkpt lat="43.00591207784495" lon="11.417842836763782"><ele>227.0</ele><time>2026-03-28T12:50:29Z</time></trkpt><trkpt lat="43.0058153252524" lon="11.417660280031857"><ele>226.0</ele><time>2026-03-28T12:50:30Z</time></trkpt><trkpt lat="43.005724237759104" lon="11.417479665026171"><ele>226.0</ele><time>2026-03-28T12:50:31Z</time></trkpt><trkpt lat="43.00563603752745" lon="11.417298174776146"><ele>226.0</ele><time>2026-03-28T12:50:32Z</time></trkpt><trkpt lat="43.00554892039937" lon="11.417115659851781"><ele>226.0</ele><time>2026-03-28T12:50:33Z</time></trkpt><trkpt lat="43.00545778942671" lon="11.416936128913566"><ele>225.66666666666666</ele><time>2026-03-28T12:50:34Z</time></trkpt><trkpt lat="43.0053617078454" lon="11.416736160172391"><ele>225.33333333333331</ele><time>2026-03-28T12:50:35Z</time></trkpt><trkpt lat="43.00525516614656" lon="11.416508226618783"><ele>225.0</ele><time>2026-03-28T12:50:36Z</time></trkpt><trkpt lat="43.005150245354486" lon="11.416281721935889"><ele>225.0</ele><time>2026-03-28T12:50:37Z</time></trkpt><trkpt lat="43.0050568033072" lon="11.416077295960674"><ele>225.0</ele><time>2026-03-28T12:50:38Z</time></trkpt><trkpt lat="43.00497341120392" lon="11.41587761897325"><ele>225.0</ele><time>2026-03-28T12:50:39Z</time></trkpt><trkpt lat="43.004896448813525" lon="11.41569603619138"><ele>224.66666666666669</ele><time>2026-03-28T12:50:40Z</time></trkpt><trkpt lat="43.00481964984693" lon="11.415521505939257"><ele>224.33333333333334</ele><time>2026-03-28T12:50:41Z</time></trkpt><trkpt lat="43.00473051169743" lon="11.415341698163608"><ele>224.0</ele><time>2026-03-28T12:50:42Z</time></trkpt><trkpt lat="43.004639219102195" lon="11.415145969895754"><ele>226.0</ele><time>2026-03-28T12:50:43Z</time></trkpt><trkpt lat="43.00452993270228" lon="11.414940867745468"><ele>228.0</ele><time>2026-03-28T12:50:44Z</time></trkpt><trkpt lat="43.004419021241375" lon="11.414722288695842"><ele>230.0</ele><time>2026-03-28T12:50:45Z</time></trkpt><trkpt lat="43.00428793277305" lon="11.414486758416007"><ele>231.0</ele><time>2026-03-28T12:50:46Z</time></trkpt><trkpt lat="43.00415973347461" lon="11.414262105330856"><ele>232.0</ele><time>2026-03-28T12:50:47Z</time></trkpt><trkpt lat="43.00404480755555" lon="11.414052048092865"><ele>233.0</ele><time>2026-03-28T12:50:48Z</time></trkpt><trkpt lat="43.003935954318365" lon="11.413851844540433"><ele>232.66666666666669</ele><time>2026-03-28T12:50:49Z</time></trkpt><trkpt lat="43.00381945379952" lon="11.41364909713565"><ele>232.33333333333331</ele><time>2026-03-28T12:50:50Z</time></trkpt><trkpt lat="43.00370897921469" lon="11.413450678780256"><ele>232.0</ele><time>2026-03-28T12:50:51Z</time></trkpt><trkpt lat="43.00359794278652" lon="11.413254175543894"><ele>232.0</ele><time>2026-03-28T12:50:52Z</time></trkpt><trkpt lat="43.00348124884266" lon="11.413048548400164"><ele>232.0</ele><time>2026-03-28T12:50:53Z</time></trkpt><trkpt lat="43.00336689189316" lon="11.412849799018348"><ele>232.0</ele><time>2026-03-28T12:50:54Z</time></trkpt><trkpt lat="43.00325957115076" lon="11.4126574503449"><ele>232.0</ele><time>2026-03-28T12:50:55Z</time></trkpt><trkpt lat="43.00315965347869" lon="11.412476945036193"><ele>232.0</ele><time>2026-03-28T12:50:56Z</time></trkpt><trkpt lat="43.00306502358357" lon="11.412313215551299"><ele>232.0</ele><time>2026-03-28T12:50:57Z</time></trkpt><trkpt lat="43.00297522278807" lon="11.412151169790514"><ele>233.5</ele><time>2026-03-28T12:50:58Z</time></trkpt><trkpt lat="43.002890639087596" lon="11.41200505522381"><ele>235.0</ele><time>2026-03-28T12:50:59Z</time></trkpt><trkpt lat="43.00281096900658" lon="11.4118661016549"><ele>236.5</ele><time>2026-03-28T12:51:00Z</time></trkpt><trkpt lat="43.00274269439604" lon="11.411743863925423"><ele>238.0</ele><time>2026-03-28T12:51:01Z</time></trkpt><trkpt lat="43.002683113452335" lon="11.411630511786443"><ele>238.0</ele><time>2026-03-28T12:51:02Z</time></trkpt><trkpt lat="43.00262524896305" lon="11.411524893652425"><ele>238.0</ele><time>2026-03-28T12:51:03Z</time></trkpt><trkpt lat="43.0025616618107" lon="11.411410218197942"><ele>238.0</ele><time>2026-03-28T12:51:04Z</time></trkpt><trkpt lat="43.00249533771009" lon="11.411291151636869"><ele>238.0</ele><time>2026-03-28T12:51:05Z</time></trkpt><trkpt lat="43.002424577978964" lon="11.411176482778078"><ele>238.0</ele><time>2026-03-28T12:51:06Z</time></trkpt><trkpt lat="43.00235981432391" lon="11.411049179084994"><ele>238.25</ele><time>2026-03-28T12:51:07Z</time></trkpt><trkpt lat="43.00228158453573" lon="11.410930902939539"><ele>238.5</ele><time>2026-03-28T12:51:08Z</time></trkpt><trkpt lat="43.00219474643178" lon="11.410824437348985"><ele>238.75</ele><time>2026-03-28T12:51:09Z</time></trkpt><trkpt lat="43.00210214990717" lon="11.41073696320675"><ele>239.0</ele><time>2026-03-28T12:51:10Z</time></trkpt><trkpt lat="43.00200133846406" lon="11.41067463381003"><ele>239.0</ele><time>2026-03-28T12:51:11Z</time></trkpt><trkpt lat="43.00188334389253" lon="11.410647569984745"><ele>239.0</ele><time>2026-03-28T12:51:12Z</time></trkpt><trkpt lat="43.00175498751372" lon="11.410643046938466"><ele>239.0</ele><time>2026-03-28T12:51:13Z</time></trkpt><trkpt lat="43.00160532311332" lon="11.410683742695838"><ele>239.0</ele><time>2026-03-28T12:51:14Z</time></trkpt><trkpt lat="43.0014232534804" lon="11.410705562639038"><ele>238.5</ele><time>2026-03-28T12:51:15Z</time></trkpt><trkpt lat="43.00121002064915" lon="11.410749465317767"><ele>238.0</ele><time>2026-03-28T12:51:16Z</time></trkpt><trkpt lat="43.000956898069525" lon="11.410801578808496"><ele>240.0</ele><time>2026-03-28T12:51:17Z</time></trkpt><trkpt lat="43.00068012260698" lon="11.41085784676449"><ele>242.0</ele><time>2026-03-28T12:51:18Z</time></trkpt><trkpt lat="43.00039489873979" lon="11.410915671844718"><ele>242.0</ele><time>2026-03-28T12:51:19Z</time></trkpt><trkpt lat="43.00014023154939" lon="11.410968141079776"><ele>242.0</ele><time>2026-03-28T12:51:20Z</time></trkpt><trkpt lat="42.99990833841581" lon="11.411038540050587"><ele>242.0</ele><time>2026-03-28T12:51:21Z</time></trkpt><trkpt lat="42.999680584321425" lon="11.411087709014145"><ele>242.0</ele><time>2026-03-28T12:51:22Z</time></trkpt><trkpt lat="42.99946279512866" lon="11.411112522765471"><ele>242.0</ele><time>2026-03-28T12:51:23Z</time></trkpt><trkpt lat="42.99926239475031" lon="11.411174552026953"><ele>242.66666666666669</ele><time>2026-03-28T12:51:24Z</time></trkpt><trkpt lat="42.99907656166936" lon="11.411206603981235"><ele>243.33333333333331</ele><time>2026-03-28T12:51:25Z</time></trkpt><trkpt lat="42.99890785396725" lon="11.411239443736834"><ele>244.0</ele><time>2026-03-28T12:51:26Z</time></trkpt><trkpt lat="42.9987336368675" lon="11.411275134066369"><ele>244.0</ele><time>2026-03-28T12:51:27Z</time></trkpt><trkpt lat="42.99854836992685" lon="11.411308511354154"><ele>244.0</ele><time>2026-03-28T12:51:28Z</time></trkpt><trkpt lat="42.998354836369586" lon="11.411346918705004"><ele>244.0</ele><time>2026-03-28T12:51:29Z</time></trkpt><trkpt lat="42.99816087801958" lon="11.41138717519429"><ele>246.66666666666666</ele><time>2026-03-28T12:51:30Z</time></trkpt><trkpt lat="42.99797244886937" lon="11.411425123819186"><ele>249.33333333333331</ele><time>2026-03-28T12:51:31Z</time></trkpt><trkpt lat="42.99777176877901" lon="11.411468977541025"><ele>252.0</ele><time>2026-03-28T12:51:32Z</time></trkpt><trkpt lat="42.99756957481116" lon="11.4115150302699"><ele>252.0</ele><time>2026-03-28T12:51:33Z</time></trkpt><trkpt lat="42.99737473925557" lon="11.411547938630365"><ele>252.0</ele><time>2026-03-28T12:51:34Z</time></trkpt><trkpt lat="42.99719724496205" lon="11.411576046081265"><ele>252.0</ele><time>2026-03-28T12:51:35Z</time></trkpt><trkpt lat="42.99702167219309" lon="11.411596029457838"><ele>252.0</ele><time>2026-03-28T12:51:36Z</time></trkpt><trkpt lat="42.99684984236594" lon="11.411622219013045"><ele>252.0</ele><time>2026-03-28T12:51:37Z</time></trkpt><trkpt lat="42.99670523478249" lon="11.411646874034288"><ele>252.0</ele><time>2026-03-28T12:51:38Z</time></trkpt><trkpt lat="42.99656413749648" lon="11.411684606439179"><ele>253.0</ele><time>2026-03-28T12:51:39Z</time></trkpt><trkpt lat="42.996409380666876" lon="11.411715054511685"><ele>254.0</ele><time>2026-03-28T12:51:40Z</time></trkpt><trkpt lat="42.99623821274381" lon="11.411792022847"><ele>255.0</ele><time>2026-03-28T12:51:41Z</time></trkpt><trkpt lat="42.99605987771793" lon="11.411864492238355"><ele>255.0</ele><time>2026-03-28T12:51:42Z</time></trkpt><trkpt lat="42.99587542952609" lon="11.411926089812862"><ele>255.0</ele><time>2026-03-28T12:51:43Z</time></trkpt><trkpt lat="42.995695006605985" lon="11.41198634827086"><ele>255.0</ele><time>2026-03-28T12:51:44Z</time></trkpt><trkpt lat="42.995514192577154" lon="11.412035792812823"><ele>254.33333333333331</ele><time>2026-03-28T12:51:45Z</time></trkpt><trkpt lat="42.99532982905831" lon="11.41207442723037"><ele>253.66666666666666</ele><time>2026-03-28T12:51:46Z</time></trkpt><trkpt lat="42.99516045029272" lon="11.412104188728511"><ele>253.0</ele><time>2026-03-28T12:51:47Z</time></trkpt><trkpt lat="42.994990911932305" lon="11.412108825478938"><ele>252.33333333333331</ele><time>2026-03-28T12:51:48Z</time></trkpt><trkpt lat="42.99481916375477" lon="11.412068592764967"><ele>251.66666666666669</ele><time>2026-03-28T12:51:49Z</time></trkpt><trkpt lat="42.994647675329304" lon="11.411986308870352"><ele>251.0</ele><time>2026-03-28T12:51:50Z</time></trkpt><trkpt lat="42.9944740694142" lon="11.411854652775553"><ele>251.0</ele><time>2026-03-28T12:51:51Z</time></trkpt><trkpt lat="42.994283268869694" lon="11.411701989843264"><ele>251.0</ele><time>2026-03-28T12:51:52Z</time></trkpt><trkpt lat="42.994085088889015" lon="11.411547667475315"><ele>251.0</ele><time>2026-03-28T12:51:53Z</time></trkpt><trkpt lat="42.99390111051435" lon="11.411403576067318"><ele>249.33333333333334</ele><time>2026-03-28T12:51:54Z</time></trkpt><trkpt lat="42.9937322972389" lon="11.411257317891112"><ele>247.66666666666669</ele><time>2026-03-28T12:51:55Z</time></trkpt><trkpt lat="42.99357605578863" lon="11.411097222848042"><ele>246.0</ele><time>2026-03-28T12:51:56Z</time></trkpt><trkpt lat="42.99343929770167" lon="11.410921460976049"><ele>246.0</ele><time>2026-03-28T12:51:57Z</time></trkpt><trkpt lat="42.99328517397583" lon="11.41077407177398"><ele>246.0</ele><time>2026-03-28T12:51:58Z</time></trkpt><trkpt lat="42.99315020248208" lon="11.410633214061553"><ele>246.0</ele><time>2026-03-28T12:51:59Z</time></trkpt><trkpt lat="42.993016110697795" lon="11.41051681822096"><ele>245.33333333333331</ele><time>2026-03-28T12:52:00Z</time></trkpt><trkpt lat="42.992872795275865" lon="11.410440455913493"><ele>244.66666666666666</ele><time>2026-03-28T12:52:01Z</time></trkpt><trkpt lat="42.99271634569061" lon="11.410401394198614"><ele>244.0</ele><time>2026-03-28T12:52:02Z</time></trkpt><trkpt lat="42.99254181156509" lon="11.410371145749597"><ele>244.0</ele><time>2026-03-28T12:52:03.001Z</time></trkpt><trkpt lat="42.992354335906754" lon="11.410343635480226"><ele>244.0</ele><time>2026-03-28T12:52:04.001Z</time></trkpt><trkpt lat="42.99218146633305" lon="11.410328615167403"><ele>244.0</ele><time>2026-03-28T12:52:05.001Z</time></trkpt><trkpt lat="42.992025605551824" lon="11.410319963454503"><ele>244.0</ele><time>2026-03-28T12:52:06.001Z</time></trkpt><trkpt lat="42.99187031388813" lon="11.410314929987663"><ele>244.0</ele><time>2026-03-28T12:52:07Z</time></trkpt><trkpt lat="42.991708666356786" lon="11.410324060155355"><ele>244.0</ele><time>2026-03-28T12:52:08Z</time></trkpt><trkpt lat="42.99154583326908" lon="11.410349472676973"><ele>244.33333333333331</ele><time>2026-03-28T12:52:09Z</time></trkpt><trkpt lat="42.991368021273445" lon="11.410364094772653"><ele>244.66666666666669</ele><time>2026-03-28T12:52:10Z</time></trkpt><trkpt lat="42.99117285767799" lon="11.410347154686876"><ele>245.0</ele><time>2026-03-28T12:52:11Z</time></trkpt><trkpt lat="42.990961081168116" lon="11.410306304258553"><ele>244.66666666666669</ele><time>2026-03-28T12:52:12Z</time></trkpt><trkpt lat="42.990772271451036" lon="11.41026788624339"><ele>244.33333333333331</ele><time>2026-03-28T12:52:13Z</time></trkpt><trkpt lat="42.9905892717854" lon="11.410241918055508"><ele>244.0</ele><time>2026-03-28T12:52:14Z</time></trkpt><trkpt lat="42.99041009341587" lon="11.410225653028817"><ele>244.0</ele><time>2026-03-28T12:52:15Z</time></trkpt><trkpt lat="42.99023875137284" lon="11.410217171026234"><ele>244.0</ele><time>2026-03-28T12:52:16Z</time></trkpt><trkpt lat="42.99007353086308" lon="11.410235454749575"><ele>244.0</ele><time>2026-03-28T12:52:17Z</time></trkpt><trkpt lat="42.98992624858358" lon="11.410310078777648"><ele>244.0</ele><time>2026-03-28T12:52:18Z</time></trkpt><trkpt lat="42.98978223684864" lon="11.410378426141902"><ele>244.0</ele><time>2026-03-28T12:52:19Z</time></trkpt><trkpt lat="42.98964613640486" lon="11.410436119586766"><ele>244.0</ele><time>2026-03-28T12:52:20Z</time></trkpt><trkpt lat="42.989497649252506" lon="11.410463405229432"><ele>244.0</ele><time>2026-03-28T12:52:21Z</time></trkpt><trkpt lat="42.9893262610531" lon="11.410466532868313"><ele>242.0</ele><time>2026-03-28T12:52:22Z</time></trkpt><trkpt lat="42.9891406216158" lon="11.410466131901956"><ele>240.0</ele><time>2026-03-28T12:52:23Z</time></trkpt><trkpt lat="42.98894017399369" lon="11.410469995767844"><ele>238.0</ele><time>2026-03-28T12:52:24Z</time></trkpt><trkpt lat="42.988720811116934" lon="11.410452675436899"><ele>238.0</ele><time>2026-03-28T12:52:25Z</time></trkpt><trkpt lat="42.98850461640274" lon="11.410413979356436"><ele>238.0</ele><time>2026-03-28T12:52:26Z</time></trkpt><trkpt lat="42.98829892634734" lon="11.41036764000471"><ele>238.0</ele><time>2026-03-28T12:52:27Z</time></trkpt><trkpt lat="42.98809182568736" lon="11.410324040785731"><ele>237.33333333333331</ele><time>2026-03-28T12:52:28Z</time></trkpt><trkpt lat="42.98787454204" lon="11.410290556967267"><ele>236.66666666666669</ele><time>2026-03-28T12:52:29Z</time></trkpt><trkpt lat="42.98766839191393" lon="11.41025830891354"><ele>236.0</ele><time>2026-03-28T12:52:30Z</time></trkpt><trkpt lat="42.98748325566122" lon="11.410222022444682"><ele>236.0</ele><time>2026-03-28T12:52:31Z</time></trkpt><trkpt lat="42.987297486550474" lon="11.410182271499345"><ele>236.0</ele><time>2026-03-28T12:52:32Z</time></trkpt><trkpt lat="42.987111269020836" lon="11.41013972857613"><ele>236.0</ele><time>2026-03-28T12:52:33Z</time></trkpt><trkpt lat="42.98692256711874" lon="11.410093661218454"><ele>236.0</ele><time>2026-03-28T12:52:34Z</time></trkpt><trkpt lat="42.986734134284234" lon="11.410047425975044"><ele>236.0</ele><time>2026-03-28T12:52:35Z</time></trkpt><trkpt lat="42.98655078772306" lon="11.410001712723137"><ele>236.0</ele><time>2026-03-28T12:52:36Z</time></trkpt><trkpt lat="42.98637330944073" lon="11.409959970205469"><ele>234.66666666666669</ele><time>2026-03-28T12:52:37Z</time></trkpt><trkpt lat="42.98621127982249" lon="11.409914508093857"><ele>233.33333333333331</ele><time>2026-03-28T12:52:38Z</time></trkpt><trkpt lat="42.98605191042298" lon="11.40985982093319"><ele>232.0</ele><time>2026-03-28T12:52:39Z</time></trkpt><trkpt lat="42.98588719646712" lon="11.409776019416125"><ele>231.66666666666666</ele><time>2026-03-28T12:52:40Z</time></trkpt><trkpt lat="42.98572597551923" lon="11.409671389809231"><ele>231.33333333333331</ele><time>2026-03-28T12:52:41Z</time></trkpt><trkpt lat="42.985583065292445" lon="11.409575000887223"><ele>231.0</ele><time>2026-03-28T12:52:42Z</time></trkpt><trkpt lat="42.98545301170053" lon="11.409504430157947"><ele>228.33333333333331</ele><time>2026-03-28T12:52:43Z</time></trkpt><trkpt lat="42.98531052606088" lon="11.409453069666377"><ele>225.66666666666666</ele><time>2026-03-28T12:52:44Z</time></trkpt><trkpt lat="42.98515014510843" lon="11.409408756749471"><ele>223.0</ele><time>2026-03-28T12:52:45Z</time></trkpt><trkpt lat="42.984973767193544" lon="11.409346884905286"><ele>222.33333333333331</ele><time>2026-03-28T12:52:46Z</time></trkpt><trkpt lat="42.98479289089783" lon="11.40927665941203"><ele>221.66666666666669</ele><time>2026-03-28T12:52:47Z</time></trkpt><trkpt lat="42.98460962747309" lon="11.409184555900554"><ele>221.0</ele><time>2026-03-28T12:52:48Z</time></trkpt><trkpt lat="42.9844311069461" lon="11.409056917856512"><ele>221.0</ele><time>2026-03-28T12:52:49Z</time></trkpt><trkpt lat="42.984240530327845" lon="11.408900895014822"><ele>221.0</ele><time>2026-03-28T12:52:50Z</time></trkpt><trkpt lat="42.984041720952035" lon="11.408733598466275"><ele>217.0</ele><time>2026-03-28T12:52:51Z</time></trkpt><trkpt lat="42.98386363343436" lon="11.408580461246752"><ele>213.0</ele><time>2026-03-28T12:52:52Z</time></trkpt><trkpt lat="42.98369489794338" lon="11.408447646791434"><ele>209.0</ele><time>2026-03-28T12:52:53Z</time></trkpt><trkpt lat="42.983535037378616" lon="11.408321345161353"><ele>209.0</ele><time>2026-03-28T12:52:54Z</time></trkpt><trkpt lat="42.983379079569474" lon="11.40819320746989"><ele>209.0</ele><time>2026-03-28T12:52:55Z</time></trkpt><trkpt lat="42.98323303540183" lon="11.408072863796646"><ele>209.0</ele><time>2026-03-28T12:52:56Z</time></trkpt><trkpt lat="42.98308917674977" lon="11.40795346453167"><ele>208.0</ele><time>2026-03-28T12:52:57Z</time></trkpt><trkpt lat="42.98295131958898" lon="11.407841249532352"><ele>207.0</ele><time>2026-03-28T12:52:58Z</time></trkpt><trkpt lat="42.98282839148874" lon="11.407735579476723"><ele>206.0</ele><time>2026-03-28T12:52:59Z</time></trkpt><trkpt lat="42.98271747010857" lon="11.407640849201348"><ele>205.0</ele><time>2026-03-28T12:53:00Z</time></trkpt><trkpt lat="42.982620038650076" lon="11.407567327697134"><ele>205.0</ele><time>2026-03-28T12:53:01Z</time></trkpt><trkpt lat="42.982537132279546" lon="11.407509731741925"><ele>205.0</ele><time>2026-03-28T12:53:02Z</time></trkpt><trkpt lat="42.98247337559546" lon="11.407483409712167"><ele>205.0</ele><time>2026-03-28T12:53:03Z</time></trkpt><trkpt lat="42.982365936579725" lon="11.407578566378977"><ele>205.0</ele><time>2026-03-28T12:53:05Z</time></trkpt><trkpt lat="42.982322838042066" lon="11.407686301715465"><ele>205.0</ele><time>2026-03-28T12:53:06Z</time></trkpt><trkpt lat="42.982282465929785" lon="11.407831295446789"><ele>206.66666666666666</ele><time>2026-03-28T12:53:07Z</time></trkpt><trkpt lat="42.98222151722816" lon="11.408008015389152"><ele>208.33333333333331</ele><time>2026-03-28T12:53:08Z</time></trkpt><trkpt lat="42.982147779323505" lon="11.408213646709685"><ele>210.0</ele><time>2026-03-28T12:53:09Z</time></trkpt><trkpt lat="42.98207554642498" lon="11.408415779644022"><ele>210.0</ele><time>2026-03-28T12:53:10Z</time></trkpt><trkpt lat="42.98199713591432" lon="11.40857230374052"><ele>210.0</ele><time>2026-03-28T12:53:11Z</time></trkpt><trkpt lat="42.9818995424905" lon="11.408712155972704"><ele>210.0</ele><time>2026-03-28T12:53:12Z</time></trkpt><trkpt lat="42.981774732132266" lon="11.408830330264058"><ele>210.0</ele><time>2026-03-28T12:53:13Z</time></trkpt><trkpt lat="42.98163315597159" lon="11.408930415273424"><ele>211.66666666666669</ele><time>2026-03-28T12:53:14Z</time></trkpt><trkpt lat="42.981486206664" lon="11.409006192881371"><ele>213.33333333333334</ele><time>2026-03-28T12:53:15Z</time></trkpt><trkpt lat="42.98132822170353" lon="11.409037347731477"><ele>215.0</ele><time>2026-03-28T12:53:16Z</time></trkpt><trkpt lat="42.98116008186342" lon="11.409046689942917"><ele>215.0</ele><time>2026-03-28T12:53:17Z</time></trkpt><trkpt lat="42.98101010456753" lon="11.409060904457245"><ele>215.0</ele><time>2026-03-28T12:53:18Z</time></trkpt><trkpt lat="42.980867634317484" lon="11.409093292404043"><ele>215.0</ele><time>2026-03-28T12:53:19Z</time></trkpt><trkpt lat="42.980717775674556" lon="11.409131299314117"><ele>215.0</ele><time>2026-03-28T12:53:20Z</time></trkpt><trkpt lat="42.980575278996454" lon="11.409172189555909"><ele>215.5</ele><time>2026-03-28T12:53:21Z</time></trkpt><trkpt lat="42.98044248612623" lon="11.409210238161963"><ele>216.0</ele><time>2026-03-28T12:53:22Z</time></trkpt><trkpt lat="42.9803225268448" lon="11.409251558875603"><ele>216.5</ele><time>2026-03-28T12:53:23Z</time></trkpt><trkpt lat="42.98020074690969" lon="11.409301349181533"><ele>217.0</ele><time>2026-03-28T12:53:24Z</time></trkpt><trkpt lat="42.98007736821242" lon="11.409336445299099"><ele>215.25</ele><time>2026-03-28T12:53:25Z</time></trkpt><trkpt lat="42.97994045950149" lon="11.409323426147797"><ele>213.5</ele><time>2026-03-28T12:53:26Z</time></trkpt><trkpt lat="42.97979340630145" lon="11.409298335138534"><ele>211.75</ele><time>2026-03-28T12:53:27Z</time></trkpt><trkpt lat="42.979652104917776" lon="11.409283549189162"><ele>210.0</ele><time>2026-03-28T12:53:28Z</time></trkpt><trkpt lat="42.979521088986985" lon="11.40926715997445"><ele>210.0</ele><time>2026-03-28T12:53:29Z</time></trkpt><trkpt lat="42.97940407138994" lon="11.409250688672213"><ele>210.0</ele><time>2026-03-28T12:53:30Z</time></trkpt><trkpt lat="42.9792843341663" lon="11.409251815799546"><ele>210.0</ele><time>2026-03-28T12:53:31Z</time></trkpt><trkpt lat="42.979164648210364" lon="11.409279468344122"><ele>210.0</ele><time>2026-03-28T12:53:32Z</time></trkpt><trkpt lat="42.979030807149556" lon="11.409333437711924"><ele>208.0</ele><time>2026-03-28T12:53:33Z</time></trkpt><trkpt lat="42.9789001122803" lon="11.409398481271305"><ele>206.0</ele><time>2026-03-28T12:53:34Z</time></trkpt><trkpt lat="42.9787930572839" lon="11.409445427674669"><ele>204.0</ele><time>2026-03-28T12:53:35Z</time></trkpt><trkpt lat="42.97869666684381" lon="11.40947630622299"><ele>202.0</ele><time>2026-03-28T12:53:36Z</time></trkpt><trkpt lat="42.97860332957956" lon="11.409458517324122"><ele>200.0</ele><time>2026-03-28T12:53:37Z</time></trkpt><trkpt lat="42.978475018549254" lon="11.40943980690037"><ele>197.0</ele><time>2026-03-28T12:53:38Z</time></trkpt><trkpt lat="42.97833001109529" lon="11.409380444053104"><ele>194.0</ele><time>2026-03-28T12:53:39Z</time></trkpt><trkpt lat="42.97817598766057" lon="11.409291432147763"><ele>191.0</ele><time>2026-03-28T12:53:40Z</time></trkpt><trkpt lat="42.978016264141814" lon="11.409216638835943"><ele>191.0</ele><time>2026-03-28T12:53:41Z</time></trkpt><trkpt lat="42.97784001476201" lon="11.409139012363832"><ele>191.0</ele><time>2026-03-28T12:53:42Z</time></trkpt><trkpt lat="42.97767256962177" lon="11.409061844753849"><ele>191.0</ele><time>2026-03-28T12:53:43Z</time></trkpt><trkpt lat="42.97751101130805" lon="11.409003767505212"><ele>188.66666666666666</ele><time>2026-03-28T12:53:44Z</time></trkpt><trkpt lat="42.97736857923906" lon="11.40889654768028"><ele>186.33333333333334</ele><time>2026-03-28T12:53:45Z</time></trkpt><trkpt lat="42.977226049131986" lon="11.408808257220093"><ele>184.0</ele><time>2026-03-28T12:53:46Z</time></trkpt><trkpt lat="42.97708908693849" lon="11.408719087801149"><ele>182.25</ele><time>2026-03-28T12:53:47.001Z</time></trkpt><trkpt lat="42.9769533886219" lon="11.408634237676681"><ele>180.5</ele><time>2026-03-28T12:53:48.001Z</time></trkpt><trkpt lat="42.97682331414412" lon="11.408594876487735"><ele>178.75</ele><time>2026-03-28T12:53:49.001Z</time></trkpt><trkpt lat="42.97671635427585" lon="11.408558311300524"><ele>177.0</ele><time>2026-03-28T12:53:50.001Z</time></trkpt><trkpt lat="42.97662442390167" lon="11.408531894639896"><ele>176.6</ele><time>2026-03-28T12:53:51.001Z</time></trkpt><trkpt lat="42.97652918657439" lon="11.408523129275196"><ele>176.2</ele><time>2026-03-28T12:53:52.001Z</time></trkpt><trkpt lat="42.9764436290431" lon="11.408561782805286"><ele>175.8</ele><time>2026-03-28T12:53:53.001Z</time></trkpt><trkpt lat="42.97637606275508" lon="11.408651870397351"><ele>175.4</ele><time>2026-03-28T12:53:54.001Z</time></trkpt><trkpt lat="42.97633686828228" lon="11.408768638441536"><ele>175.0</ele><time>2026-03-28T12:53:55.001Z</time></trkpt><trkpt lat="42.97633029770382" lon="11.40891358764664"><ele>175.0</ele><time>2026-03-28T12:53:56.001Z</time></trkpt><trkpt lat="42.97632792282072" lon="11.40907924163006"><ele>175.0</ele><time>2026-03-28T12:53:57.001Z</time></trkpt><trkpt lat="42.97629532479474" lon="11.409256419280057"><ele>175.0</ele><time>2026-03-28T12:53:58.001Z</time></trkpt><trkpt lat="42.976245607872755" lon="11.409420426108943"><ele>175.0</ele><time>2026-03-28T12:53:59.001Z</time></trkpt><trkpt lat="42.9761841821517" lon="11.40956188579673"><ele>176.0</ele><time>2026-03-28T12:54:00.001Z</time></trkpt><trkpt lat="42.976117749616115" lon="11.409695560837392"><ele>177.0</ele><time>2026-03-28T12:54:01.001Z</time></trkpt><trkpt lat="42.97604045040117" lon="11.409824178061276"><ele>178.0</ele><time>2026-03-28T12:54:02.001Z</time></trkpt><trkpt lat="42.975936880818544" lon="11.409899817025355"><ele>179.0</ele><time>2026-03-28T12:54:03.001Z</time></trkpt><trkpt lat="42.97582502321973" lon="11.409948673193703"><ele>175.25</ele><time>2026-03-28T12:54:04.001Z</time></trkpt><trkpt lat="42.97569635605463" lon="11.410037760711994"><ele>171.5</ele><time>2026-03-28T12:54:05.001Z</time></trkpt><trkpt lat="42.97556027581529" lon="11.410099420376987"><ele>167.75</ele><time>2026-03-28T12:54:06.001Z</time></trkpt><trkpt lat="42.975442686628256" lon="11.410170685727952"><ele>164.0</ele><time>2026-03-28T12:54:07.001Z</time></trkpt><trkpt lat="42.975337116699606" lon="11.410254794221705"><ele>164.0</ele><time>2026-03-28T12:54:08.001Z</time></trkpt><trkpt lat="42.97525074831787" lon="11.410368162239646"><ele>164.0</ele><time>2026-03-28T12:54:09.001Z</time></trkpt><trkpt lat="42.975187128408535" lon="11.410531058083912"><ele>164.0</ele><time>2026-03-28T12:54:10.001Z</time></trkpt><trkpt lat="42.9751347393781" lon="11.41072969667295"><ele>164.0</ele><time>2026-03-28T12:54:11.001Z</time></trkpt><trkpt lat="42.97508959030368" lon="11.410922534067232"><ele>164.75</ele><time>2026-03-28T12:54:12.001Z</time></trkpt><trkpt lat="42.97502309355933" lon="11.411087509315477"><ele>165.5</ele><time>2026-03-28T12:54:13Z</time></trkpt><trkpt lat="42.97491514550654" lon="11.411197044888494"><ele>166.25</ele><time>2026-03-28T12:54:14Z</time></trkpt><trkpt lat="42.97481903755428" lon="11.411329404834571"><ele>167.0</ele><time>2026-03-28T12:54:15Z</time></trkpt><trkpt lat="42.97470852736539" lon="11.41146087256015"><ele>163.33333333333331</ele><time>2026-03-28T12:54:16Z</time></trkpt><trkpt lat="42.974580109597504" lon="11.411616107895524"><ele>159.66666666666666</ele><time>2026-03-28T12:54:17Z</time></trkpt><trkpt lat="42.97442706239028" lon="11.411796936288809"><ele>156.0</ele><time>2026-03-28T12:54:18Z</time></trkpt><trkpt lat="42.97427279512241" lon="11.411989518246044"><ele>152.66666666666666</ele><time>2026-03-28T12:54:19Z</time></trkpt><trkpt lat="42.97412845022522" lon="11.412159763228976"><ele>149.33333333333331</ele><time>2026-03-28T12:54:20Z</time></trkpt><trkpt lat="42.973993323993035" lon="11.412320301577966"><ele>146.0</ele><time>2026-03-28T12:54:21Z</time></trkpt><trkpt lat="42.973863067839844" lon="11.4124817823144"><ele>146.0</ele><time>2026-03-28T12:54:22Z</time></trkpt><trkpt lat="42.97372829853508" lon="11.412652432905283"><ele>146.0</ele><time>2026-03-28T12:54:23Z</time></trkpt><trkpt lat="42.973584350172125" lon="11.412835573521068"><ele>146.0</ele><time>2026-03-28T12:54:24Z</time></trkpt><trkpt lat="42.97342314032991" lon="11.413033199592427"><ele>143.0</ele><time>2026-03-28T12:54:25Z</time></trkpt><trkpt lat="42.97326791313805" lon="11.413221422611619"><ele>140.0</ele><time>2026-03-28T12:54:26Z</time></trkpt><trkpt lat="42.97312671278533" lon="11.413397668921169"><ele>137.0</ele><time>2026-03-28T12:54:27Z</time></trkpt><trkpt lat="42.97299598931837" lon="11.413565396655926"><ele>137.0</ele><time>2026-03-28T12:54:28Z</time></trkpt><trkpt lat="42.97286929378701" lon="11.413732445660338"><ele>137.0</ele><time>2026-03-28T12:54:29Z</time></trkpt><trkpt lat="42.9727462505046" lon="11.413891264658744"><ele>137.0</ele><time>2026-03-28T12:54:30Z</time></trkpt><trkpt lat="42.97262560068284" lon="11.414044645146753"><ele>134.33333333333331</ele><time>2026-03-28T12:54:31Z</time></trkpt><trkpt lat="42.97250880742759" lon="11.414189888106595"><ele>131.66666666666666</ele><time>2026-03-28T12:54:32Z</time></trkpt><trkpt lat="42.97239802717316" lon="11.414330147657306"><ele>129.0</ele><time>2026-03-28T12:54:33Z</time></trkpt><trkpt lat="42.97228936172584" lon="11.414480516866442"><ele>129.0</ele><time>2026-03-28T12:54:34Z</time></trkpt><trkpt lat="42.97216596277131" lon="11.414638019630818"><ele>129.0</ele><time>2026-03-28T12:54:35Z</time></trkpt><trkpt lat="42.97202062402048" lon="11.41478992052878"><ele>129.0</ele><time>2026-03-28T12:54:36Z</time></trkpt><trkpt lat="42.97183791704466" lon="11.414901847347151"><ele>126.33333333333334</ele><time>2026-03-28T12:54:37Z</time></trkpt><trkpt lat="42.97165030620704" lon="11.415032453055476"><ele>123.66666666666667</ele><time>2026-03-28T12:54:38Z</time></trkpt><trkpt lat="42.97144970257817" lon="11.415178404203767"><ele>121.0</ele><time>2026-03-28T12:54:39Z</time></trkpt><trkpt lat="42.9712208511824" lon="11.415304908778802"><ele>121.0</ele><time>2026-03-28T12:54:40Z</time></trkpt><trkpt lat="42.970975072115735" lon="11.415444251922198"><ele>121.0</ele><time>2026-03-28T12:54:41Z</time></trkpt><trkpt lat="42.970723037283626" lon="11.41560026833818"><ele>118.0</ele><time>2026-03-28T12:54:42Z</time></trkpt><trkpt lat="42.97050932046321" lon="11.415713910725227"><ele>115.0</ele><time>2026-03-28T12:54:43Z</time></trkpt><trkpt lat="42.97029083727499" lon="11.415848776165905"><ele>115.0</ele><time>2026-03-28T12:54:44Z</time></trkpt><trkpt lat="42.97008390658587" lon="11.415969517284768"><ele>115.0</ele><time>2026-03-28T12:54:45Z</time></trkpt><trkpt lat="42.969885136579634" lon="11.416077465828748"><ele>115.0</ele><time>2026-03-28T12:54:46Z</time></trkpt><trkpt lat="42.969692438385756" lon="11.416178550637921"><ele>114.33333333333334</ele><time>2026-03-28T12:54:47Z</time></trkpt><trkpt lat="42.969510641748464" lon="11.416276985656152"><ele>113.66666666666666</ele><time>2026-03-28T12:54:48Z</time></trkpt><trkpt lat="42.96933883023609" lon="11.416366822670698"><ele>113.0</ele><time>2026-03-28T12:54:49Z</time></trkpt><trkpt lat="42.96917916949562" lon="11.416456995899633"><ele>112.5</ele><time>2026-03-28T12:54:50Z</time></trkpt><trkpt lat="42.96902782424749" lon="11.41651176966794"><ele>112.0</ele><time>2026-03-28T12:54:51Z</time></trkpt><trkpt lat="42.968880923125845" lon="11.416562369486158"><ele>111.5</ele><time>2026-03-28T12:54:52Z</time></trkpt><trkpt lat="42.968765811497775" lon="11.416664790333275"><ele>111.0</ele><time>2026-03-28T12:54:53Z</time></trkpt><trkpt lat="42.96868595374701" lon="11.416753296329958"><ele>111.0</ele><time>2026-03-28T12:54:54Z</time></trkpt><trkpt lat="42.96869848076827" lon="11.416974462299729"><ele>111.0</ele><time>2026-03-28T12:54:55Z</time></trkpt><trkpt lat="42.968676275418325" lon="11.417133794988374"><ele>111.0</ele><time>2026-03-28T12:54:56Z</time></trkpt><trkpt lat="42.96869574966617" lon="11.417301497231945"><ele>111.0</ele><time>2026-03-28T12:54:57Z</time></trkpt><trkpt lat="42.96875355392033" lon="11.41747333638454"><ele>111.5</ele><time>2026-03-28T12:54:58Z</time></trkpt><trkpt lat="42.96883404824843" lon="11.417655730024316"><ele>112.0</ele><time>2026-03-28T12:54:59Z</time></trkpt><trkpt lat="42.96889641908737" lon="11.417850638343062"><ele>112.5</ele><time>2026-03-28T12:55:00Z</time></trkpt><trkpt lat="42.968930033588165" lon="11.418008908069616"><ele>113.0</ele><time>2026-03-28T12:55:01Z</time></trkpt><trkpt lat="42.96891362525847" lon="11.418148406420915"><ele>116.5</ele><time>2026-03-28T12:55:02Z</time></trkpt><trkpt lat="42.96886776697371" lon="11.418266375348646"><ele>120.0</ele><time>2026-03-28T12:55:03Z</time></trkpt><trkpt lat="42.96878737620817" lon="11.418351984188222"><ele>123.5</ele><time>2026-03-28T12:55:04Z</time></trkpt><trkpt lat="42.968677121526056" lon="11.418475282081936"><ele>127.0</ele><time>2026-03-28T12:55:05Z</time></trkpt><trkpt lat="42.96856050659944" lon="11.418623466142842"><ele>127.0</ele><time>2026-03-28T12:55:06Z</time></trkpt><trkpt lat="42.96846773077697" lon="11.418734753157922"><ele>127.0</ele><time>2026-03-28T12:55:07Z</time></trkpt><trkpt lat="42.96839675106495" lon="11.41886448949273"><ele>127.0</ele><time>2026-03-28T12:55:08Z</time></trkpt><trkpt lat="42.96834857963424" lon="11.419023741068992"><ele>127.0</ele><time>2026-03-28T12:55:09Z</time></trkpt><trkpt lat="42.9683223171997" lon="11.41919775788735"><ele>128.75</ele><time>2026-03-28T12:55:10Z</time></trkpt><trkpt lat="42.96831499010392" lon="11.419373240208746"><ele>130.5</ele><time>2026-03-28T12:55:11Z</time></trkpt><trkpt lat="42.96830675495161" lon="11.419547116882521"><ele>132.25</ele><time>2026-03-28T12:55:12Z</time></trkpt><trkpt lat="42.96829411794147" lon="11.419705373347066"><ele>134.0</ele><time>2026-03-28T12:55:13Z</time></trkpt><trkpt lat="42.968292879976275" lon="11.41985147154466"><ele>134.0</ele><time>2026-03-28T12:55:14Z</time></trkpt><trkpt lat="42.968313813603245" lon="11.420016993815443"><ele>134.0</ele><time>2026-03-28T12:55:15Z</time></trkpt><trkpt lat="42.96835295381201" lon="11.420220676357534"><ele>134.0</ele><time>2026-03-28T12:55:16Z</time></trkpt><trkpt lat="42.96840652864506" lon="11.420475240351681"><ele>135.33333333333331</ele><time>2026-03-28T12:55:17Z</time></trkpt><trkpt lat="42.968478200468866" lon="11.42077747314457"><ele>136.66666666666666</ele><time>2026-03-28T12:55:18Z</time></trkpt><trkpt lat="42.968543329848465" lon="11.42104578264991"><ele>138.0</ele><time>2026-03-28T12:55:19Z</time></trkpt><trkpt lat="42.96860181552614" lon="11.42130758628561"><ele>138.66666666666666</ele><time>2026-03-28T12:55:20Z</time></trkpt><trkpt lat="42.96866328392768" lon="11.421577948992988"><ele>139.33333333333331</ele><time>2026-03-28T12:55:21Z</time></trkpt><trkpt lat="42.96871523026673" lon="11.421822761754019"><ele>140.0</ele><time>2026-03-28T12:55:22Z</time></trkpt><trkpt lat="42.968764381033225" lon="11.422057256454469"><ele>140.0</ele><time>2026-03-28T12:55:23Z</time></trkpt><trkpt lat="42.96881233187592" lon="11.422283409391596"><ele>140.0</ele><time>2026-03-28T12:55:24Z</time></trkpt><trkpt lat="42.9688400955802" lon="11.422509456261267"><ele>140.0</ele><time>2026-03-28T12:55:25Z</time></trkpt><trkpt lat="42.96883576211939" lon="11.422749840045809"><ele>140.66666666666666</ele><time>2026-03-28T12:55:26Z</time></trkpt><trkpt lat="42.96881905347009" lon="11.42300557738591"><ele>141.33333333333334</ele><time>2026-03-28T12:55:27Z</time></trkpt><trkpt lat="42.968784101450325" lon="11.42326773783682"><ele>142.0</ele><time>2026-03-28T12:55:28Z</time></trkpt><trkpt lat="42.968751781106725" lon="11.423507797471856"><ele>142.0</ele><time>2026-03-28T12:55:29Z</time></trkpt><trkpt lat="42.9687222028001" lon="11.4237405920643"><ele>142.0</ele><time>2026-03-28T12:55:30Z</time></trkpt><trkpt lat="42.96867902026112" lon="11.423975367550385"><ele>142.0</ele><time>2026-03-28T12:55:31Z</time></trkpt><trkpt lat="42.96861531973757" lon="11.424205676923544"><ele>142.0</ele><time>2026-03-28T12:55:32Z</time></trkpt><trkpt lat="42.96854696764203" lon="11.424408093284526"><ele>142.0</ele><time>2026-03-28T12:55:33Z</time></trkpt><trkpt lat="42.96847893862593" lon="11.424593343206723"><ele>142.0</ele><time>2026-03-28T12:55:34Z</time></trkpt><trkpt lat="42.968410578293586" lon="11.424770251535572"><ele>138.75</ele><time>2026-03-28T12:55:35Z</time></trkpt><trkpt lat="42.968347070130626" lon="11.424947757386356"><ele>135.5</ele><time>2026-03-28T12:55:36Z</time></trkpt><trkpt lat="42.96828464417921" lon="11.42512696801013"><ele>132.25</ele><time>2026-03-28T12:55:37Z</time></trkpt><trkpt lat="42.968220477329325" lon="11.425310840674056"><ele>129.0</ele><time>2026-03-28T12:55:38Z</time></trkpt><trkpt lat="42.96815497522352" lon="11.425493680790607"><ele>128.5</ele><time>2026-03-28T12:55:39Z</time></trkpt><trkpt lat="42.968094302733014" lon="11.425660877726878"><ele>128.0</ele><time>2026-03-28T12:55:40.001Z</time></trkpt><trkpt lat="42.968038903138535" lon="11.425829413959265"><ele>127.5</ele><time>2026-03-28T12:55:41Z</time></trkpt><trkpt lat="42.9679964749713" lon="11.425997137189814"><ele>127.0</ele><time>2026-03-28T12:55:42.001Z</time></trkpt><trkpt lat="42.96794796203473" lon="11.426156012709832"><ele>127.0</ele><time>2026-03-28T12:55:43.001Z</time></trkpt><trkpt lat="42.96788824946159" lon="11.426309815289875"><ele>127.0</ele><time>2026-03-28T12:55:44.001Z</time></trkpt><trkpt lat="42.96781492352339" lon="11.426437117174862"><ele>127.0</ele><time>2026-03-28T12:55:45.001Z</time></trkpt><trkpt lat="42.96773356001026" lon="11.426538614101196"><ele>127.0</ele><time>2026-03-28T12:55:46.001Z</time></trkpt><trkpt lat="42.967659779494966" lon="11.426629876562812"><ele>128.6</ele><time>2026-03-28T12:55:47.001Z</time></trkpt><trkpt lat="42.96759543262978" lon="11.426711401557755"><ele>130.2</ele><time>2026-03-28T12:55:48.001Z</time></trkpt><trkpt lat="42.967541869333495" lon="11.426783752163526"><ele>131.8</ele><time>2026-03-28T12:55:49.001Z</time></trkpt><trkpt lat="42.96747201972763" lon="11.42686669111242"><ele>133.4</ele><time>2026-03-28T12:55:51.001Z</time></trkpt><trkpt lat="42.96740669681578" lon="11.426941321395278"><ele>135.0</ele><time>2026-03-28T12:55:54.001Z</time></trkpt><trkpt lat="42.96733314745973" lon="11.427089921386978"><ele>132.6</ele><time>2026-03-28T12:55:56.001Z</time></trkpt><trkpt lat="42.96726961216952" lon="11.427195296812165"><ele>130.2</ele><time>2026-03-28T12:55:57.001Z</time></trkpt><trkpt lat="42.96720036052249" lon="11.427295693697742"><ele>127.80000000000001</ele><time>2026-03-28T12:55:58.001Z</time></trkpt><trkpt lat="42.96713559073829" lon="11.427395944370636"><ele>125.4</ele><time>2026-03-28T12:55:59.001Z</time></trkpt><trkpt lat="42.96707428758517" lon="11.42750440688336"><ele>123.0</ele><time>2026-03-28T12:56:00.001Z</time></trkpt><trkpt lat="42.96701229279664" lon="11.427618959614394"><ele>123.0</ele><time>2026-03-28T12:56:01.001Z</time></trkpt><trkpt lat="42.96695475658425" lon="11.427726548601981"><ele>123.00000000000001</ele><time>2026-03-28T12:56:02.001Z</time></trkpt><trkpt lat="42.96689715346341" lon="11.4278256312041"><ele>123.00000000000001</ele><time>2026-03-28T12:56:03.001Z</time></trkpt><trkpt lat="42.966837883407834" lon="11.42793376676166"><ele>123.0</ele><time>2026-03-28T12:56:04.001Z</time></trkpt><trkpt lat="42.96677191803061" lon="11.428044217604889"><ele>123.0</ele><time>2026-03-28T12:56:05.001Z</time></trkpt><trkpt lat="42.966711912463865" lon="11.428137041110752"><ele>121.4</ele><time>2026-03-28T12:56:06.001Z</time></trkpt><trkpt lat="42.966662150027126" lon="11.428204760671303"><ele>119.80000000000001</ele><time>2026-03-28T12:56:07.001Z</time></trkpt><trkpt lat="42.96657382973261" lon="11.428294776976095"><ele>118.2</ele><time>2026-03-28T12:56:09.001Z</time></trkpt><trkpt lat="42.966521137892286" lon="11.42847364591654"><ele>116.6</ele><time>2026-03-28T12:56:11.001Z</time></trkpt><trkpt lat="42.966492486551374" lon="11.428561584181859"><ele>115.0</ele><time>2026-03-28T12:56:12.001Z</time></trkpt><trkpt lat="42.966464658647176" lon="11.428662633517632"><ele>115.0</ele><time>2026-03-28T12:56:13.001Z</time></trkpt><trkpt lat="42.9664178846656" lon="11.428761284164494"><ele>115.0</ele><time>2026-03-28T12:56:14.001Z</time></trkpt><trkpt lat="42.966426851622714" lon="11.42891051034165"><ele>115.0</ele><time>2026-03-28T12:56:15.001Z</time></trkpt><trkpt lat="42.96640583466342" lon="11.429059595352875"><ele>115.0</ele><time>2026-03-28T12:56:16.001Z</time></trkpt><trkpt lat="42.96638614848606" lon="11.429201983938775"><ele>115.0</ele><time>2026-03-28T12:56:17.001Z</time></trkpt><trkpt lat="42.966355701878264" lon="11.429326712789814"><ele>115.0</ele><time>2026-03-28T12:56:18.001Z</time></trkpt><trkpt lat="42.96634023701746" lon="11.429457396331578"><ele>115.0</ele><time>2026-03-28T12:56:19Z</time></trkpt><trkpt lat="42.96632764878091" lon="11.429586251841709"><ele>115.0</ele><time>2026-03-28T12:56:20Z</time></trkpt><trkpt lat="42.966326569516504" lon="11.429721098899206"><ele>115.0</ele><time>2026-03-28T12:56:21Z</time></trkpt><trkpt lat="42.966349729507264" lon="11.429858016526202"><ele>115.0</ele><time>2026-03-28T12:56:22Z</time></trkpt><trkpt lat="42.9663486359424" lon="11.42998525159252"><ele>114.83333333333334</ele><time>2026-03-28T12:56:23Z</time></trkpt><trkpt lat="42.9663597852611" lon="11.430093176573871"><ele>114.66666666666667</ele><time>2026-03-28T12:56:24Z</time></trkpt><trkpt lat="42.96637187253784" lon="11.430196418800458"><ele>114.5</ele><time>2026-03-28T12:56:25Z</time></trkpt><trkpt lat="42.96638604305847" lon="11.430317454914023"><ele>114.33333333333334</ele><time>2026-03-28T12:56:26Z</time></trkpt><trkpt lat="42.96640346411819" lon="11.430444369056247"><ele>114.16666666666667</ele><time>2026-03-28T12:56:27Z</time></trkpt><trkpt lat="42.966418966390165" lon="11.430555400859038"><ele>114.0</ele><time>2026-03-28T12:56:28Z</time></trkpt><trkpt lat="42.96643331804207" lon="11.430649761340002"><ele>114.0</ele><time>2026-03-28T12:56:29Z</time></trkpt><trkpt lat="42.96646668218503" lon="11.430751610071704"><ele>114.0</ele><time>2026-03-28T12:56:30Z</time></trkpt><trkpt lat="42.96647974986123" lon="11.430876685952493"><ele>114.0</ele><time>2026-03-28T12:56:31Z</time></trkpt><trkpt lat="42.966504546391015" lon="11.431011613617478"><ele>114.0</ele><time>2026-03-28T12:56:32Z</time></trkpt><trkpt lat="42.96652580303702" lon="11.431146700539852"><ele>114.0</ele><time>2026-03-28T12:56:33Z</time></trkpt><trkpt lat="42.966548277934095" lon="11.431294955207424"><ele>113.5</ele><time>2026-03-28T12:56:34Z</time></trkpt><trkpt lat="42.96657322771787" lon="11.431450359838479"><ele>113.0</ele><time>2026-03-28T12:56:35Z</time></trkpt><trkpt lat="42.96658984990822" lon="11.431617631990184"><ele>112.5</ele><time>2026-03-28T12:56:36Z</time></trkpt><trkpt lat="42.96657438324989" lon="11.43180518668603"><ele>112.0</ele><time>2026-03-28T12:56:37Z</time></trkpt><trkpt lat="42.9665549130504" lon="11.432013197595145"><ele>112.0</ele><time>2026-03-28T12:56:38Z</time></trkpt><trkpt lat="42.966544054581824" lon="11.432250100603971"><ele>112.0</ele><time>2026-03-28T12:56:39Z</time></trkpt><trkpt lat="42.96651043836158" lon="11.432503984107926"><ele>112.0</ele><time>2026-03-28T12:56:40Z</time></trkpt><trkpt lat="42.96648720291902" lon="11.432727319696639"><ele>112.0</ele><time>2026-03-28T12:56:41Z</time></trkpt><trkpt lat="42.966465731461746" lon="11.432930084653714"><ele>112.0</ele><time>2026-03-28T12:56:42Z</time></trkpt><trkpt lat="42.966446877986805" lon="11.433131820890786"><ele>112.0</ele><time>2026-03-28T12:56:43Z</time></trkpt><trkpt lat="42.966430721234765" lon="11.433327474710934"><ele>112.0</ele><time>2026-03-28T12:56:44Z</time></trkpt><trkpt lat="42.966416736467714" lon="11.433508234725679"><ele>112.19999999999999</ele><time>2026-03-28T12:56:45Z</time></trkpt><trkpt lat="42.96638388435551" lon="11.433656869994879"><ele>112.39999999999999</ele><time>2026-03-28T12:56:46Z</time></trkpt><trkpt lat="42.966384512629766" lon="11.433803400400897"><ele>112.60000000000001</ele><time>2026-03-28T12:56:47Z</time></trkpt><trkpt lat="42.96637366750631" lon="11.43395482210234"><ele>112.80000000000001</ele><time>2026-03-28T12:56:48Z</time></trkpt><trkpt lat="42.966375709211626" lon="11.434111276103117"><ele>113.0</ele><time>2026-03-28T12:56:49Z</time></trkpt><trkpt lat="42.96639193631784" lon="11.434266349937358"><ele>113.60000000000001</ele><time>2026-03-28T12:56:50Z</time></trkpt><trkpt lat="42.9664241216198" lon="11.434403787816917"><ele>114.20000000000002</ele><time>2026-03-28T12:56:51Z</time></trkpt><trkpt lat="42.96646445025382" lon="11.434536404342932"><ele>114.8</ele><time>2026-03-28T12:56:52Z</time></trkpt><trkpt lat="42.96652144198652" lon="11.434650507223893"><ele>115.4</ele><time>2026-03-28T12:56:53Z</time></trkpt><trkpt lat="42.966595436795096" lon="11.434743541886553"><ele>116.0</ele><time>2026-03-28T12:56:54Z</time></trkpt><trkpt lat="42.96668104931656" lon="11.434825811834918"><ele>117.6</ele><time>2026-03-28T12:56:55Z</time></trkpt><trkpt lat="42.96677572907368" lon="11.434914416078307"><ele>119.19999999999999</ele><time>2026-03-28T12:56:56Z</time></trkpt><trkpt lat="42.9668654795021" lon="11.435004638580786"><ele>120.80000000000001</ele><time>2026-03-28T12:56:57Z</time></trkpt><trkpt lat="42.96692776548362" lon="11.435114642829001"><ele>122.4</ele><time>2026-03-28T12:56:58Z</time></trkpt><trkpt lat="42.96699286310046" lon="11.43521713392855"><ele>124.0</ele><time>2026-03-28T12:56:59Z</time></trkpt><trkpt lat="42.9670382180173" lon="11.43536439425062"><ele>123.0</ele><time>2026-03-28T12:57:00Z</time></trkpt><trkpt lat="42.967077147315656" lon="11.435500311182254"><ele>122.0</ele><time>2026-03-28T12:57:01Z</time></trkpt><trkpt lat="42.96711614779519" lon="11.43563210342754"><ele>121.0</ele><time>2026-03-28T12:57:02Z</time></trkpt><trkpt lat="42.96718709929429" lon="11.435760018330761"><ele>120.0</ele><time>2026-03-28T12:57:03Z</time></trkpt><trkpt lat="42.96728420898953" lon="11.435889379812158"><ele>120.0</ele><time>2026-03-28T12:57:04Z</time></trkpt><trkpt lat="42.9673680254187" lon="11.436014751333506"><ele>120.0</ele><time>2026-03-28T12:57:05Z</time></trkpt><trkpt lat="42.96742378258999" lon="11.436148354603645"><ele>120.0</ele><time>2026-03-28T12:57:06Z</time></trkpt><trkpt lat="42.9674205806992" lon="11.4363209947791"><ele>120.0</ele><time>2026-03-28T12:57:07Z</time></trkpt><trkpt lat="42.96743368736497" lon="11.436500377320472"><ele>119.5</ele><time>2026-03-28T12:57:08Z</time></trkpt><trkpt lat="42.96746443343663" lon="11.436699382731616"><ele>119.0</ele><time>2026-03-28T12:57:09Z</time></trkpt><trkpt lat="42.967502180503104" lon="11.436885125111079"><ele>118.5</ele><time>2026-03-28T12:57:10Z</time></trkpt><trkpt lat="42.96754294732374" lon="11.437047338307538"><ele>118.0</ele><time>2026-03-28T12:57:11Z</time></trkpt><trkpt lat="42.96757034037101" lon="11.437190068700431"><ele>118.0</ele><time>2026-03-28T12:57:12Z</time></trkpt><trkpt lat="42.96757591074959" lon="11.437341196747091"><ele>118.0</ele><time>2026-03-28T12:57:13Z</time></trkpt><trkpt lat="42.96753872563226" lon="11.437513677432227"><ele>118.0</ele><time>2026-03-28T12:57:14Z</time></trkpt><trkpt lat="42.96752701078732" lon="11.437719992512122"><ele>118.0</ele><time>2026-03-28T12:57:15Z</time></trkpt><trkpt lat="42.967498213448806" lon="11.437935964751334"><ele>118.0</ele><time>2026-03-28T12:57:16Z</time></trkpt><trkpt lat="42.96747776191346" lon="11.438147349819134"><ele>118.0</ele><time>2026-03-28T12:57:17Z</time></trkpt><trkpt lat="42.96747526368848" lon="11.438368823889766"><ele>118.0</ele><time>2026-03-28T12:57:18Z</time></trkpt><trkpt lat="42.96747656940549" lon="11.438568855257047"><ele>118.0</ele><time>2026-03-28T12:57:19Z</time></trkpt><trkpt lat="42.96747775557846" lon="11.438756911057684"><ele>118.0</ele><time>2026-03-28T12:57:20Z</time></trkpt><trkpt lat="42.967483074230095" lon="11.438938137261617"><ele>118.0</ele><time>2026-03-28T12:57:21Z</time></trkpt><trkpt lat="42.96749442434836" lon="11.439112356965891"><ele>118.0</ele><time>2026-03-28T12:57:22Z</time></trkpt><trkpt lat="42.96748433909048" lon="11.439302792887574"><ele>118.0</ele><time>2026-03-28T12:57:23Z</time></trkpt><trkpt lat="42.96747040193163" lon="11.439507004182664"><ele>118.0</ele><time>2026-03-28T12:57:24Z</time></trkpt><trkpt lat="42.96744889918716" lon="11.43970703283977"><ele>118.0</ele><time>2026-03-28T12:57:25Z</time></trkpt><trkpt lat="42.96743114128951" lon="11.439886259097209"><ele>118.0</ele><time>2026-03-28T12:57:26Z</time></trkpt><trkpt lat="42.96741322694076" lon="11.440067606396324"><ele>118.0</ele><time>2026-03-28T12:57:27Z</time></trkpt><trkpt lat="42.96739864215588" lon="11.440223625092802"><ele>118.00000000000001</ele><time>2026-03-28T12:57:28Z</time></trkpt><trkpt lat="42.9673919164138" lon="11.440361309851333"><ele>118.00000000000001</ele><time>2026-03-28T12:57:29Z</time></trkpt><trkpt lat="42.967394551419055" lon="11.440474701675921"><ele>118.0</ele><time>2026-03-28T12:57:30Z</time></trkpt><trkpt lat="42.967399447497826" lon="11.440576114036014"><ele>118.0</ele><time>2026-03-28T12:57:31Z</time></trkpt><trkpt lat="42.96741180026755" lon="11.440689904654615"><ele>117.80000000000001</ele><time>2026-03-28T12:57:32Z</time></trkpt><trkpt lat="42.96743333703436" lon="11.440815153742577"><ele>117.60000000000001</ele><time>2026-03-28T12:57:33Z</time></trkpt><trkpt lat="42.9674525190506" lon="11.440954847100638"><ele>117.39999999999999</ele><time>2026-03-28T12:57:34Z</time></trkpt><trkpt lat="42.96745868695294" lon="11.441093580207014"><ele>117.19999999999999</ele><time>2026-03-28T12:57:35Z</time></trkpt><trkpt lat="42.96742305575759" lon="11.441222897607737"><ele>117.0</ele><time>2026-03-28T12:57:36Z</time></trkpt><trkpt lat="42.96737493643156" lon="11.44135379316595"><ele>118.0</ele><time>2026-03-28T12:57:37Z</time></trkpt><trkpt lat="42.967312736496886" lon="11.441500905133955"><ele>119.0</ele><time>2026-03-28T12:57:38Z</time></trkpt><trkpt lat="42.96726367312918" lon="11.441643817748126"><ele>120.0</ele><time>2026-03-28T12:57:39Z</time></trkpt><trkpt lat="42.96723309429793" lon="11.441789740113684"><ele>121.0</ele><time>2026-03-28T12:57:40Z</time></trkpt><trkpt lat="42.967190392291705" lon="11.441937924160062"><ele>121.0</ele><time>2026-03-28T12:57:41Z</time></trkpt><trkpt lat="42.9671680110466" lon="11.44208699577652"><ele>121.0</ele><time>2026-03-28T12:57:42Z</time></trkpt><trkpt lat="42.967164927236915" lon="11.442234637126766"><ele>121.0</ele><time>2026-03-28T12:57:43Z</time></trkpt><trkpt lat="42.96714264422931" lon="11.442378950779082"><ele>121.0</ele><time>2026-03-28T12:57:44Z</time></trkpt><trkpt lat="42.9671279375753" lon="11.44252159433687"><ele>121.0</ele><time>2026-03-28T12:57:45Z</time></trkpt><trkpt lat="42.96711019152536" lon="11.44267571572039"><ele>122.25</ele><time>2026-03-28T12:57:46Z</time></trkpt><trkpt lat="42.96709119629211" lon="11.442838458805973"><ele>123.5</ele><time>2026-03-28T12:57:47.001Z</time></trkpt><trkpt lat="42.967071247662204" lon="11.443018846667808"><ele>124.75</ele><time>2026-03-28T12:57:48.001Z</time></trkpt><trkpt lat="42.9670485027969" lon="11.443235459828353"><ele>126.0</ele><time>2026-03-28T12:57:49.001Z</time></trkpt><trkpt lat="42.96702306577387" lon="11.443428517863849"><ele>126.5</ele><time>2026-03-28T12:57:50.001Z</time></trkpt><trkpt lat="42.96700275272155" lon="11.44360457996844"><ele>127.0</ele><time>2026-03-28T12:57:51.001Z</time></trkpt><trkpt lat="42.96698758399835" lon="11.443778685736511"><ele>127.5</ele><time>2026-03-28T12:57:52.001Z</time></trkpt><trkpt lat="42.96697228226142" lon="11.443945624271386"><ele>128.0</ele><time>2026-03-28T12:57:53.001Z</time></trkpt><trkpt lat="42.96695725307833" lon="11.444085267545416"><ele>127.49999999999999</ele><time>2026-03-28T12:57:54.001Z</time></trkpt><trkpt lat="42.96694282706815" lon="11.444196768489434"><ele>127.0</ele><time>2026-03-28T12:57:55.001Z</time></trkpt><trkpt lat="42.96693139744942" lon="11.444298543345614"><ele>126.5</ele><time>2026-03-28T12:57:56.001Z</time></trkpt><trkpt lat="42.966918910523184" lon="11.444398505527714"><ele>126.0</ele><time>2026-03-28T12:57:57.001Z</time></trkpt><trkpt lat="42.96690708327368" lon="11.444493835662188"><ele>125.49999999999999</ele><time>2026-03-28T12:57:58.001Z</time></trkpt><trkpt lat="42.966900011991235" lon="11.444579876266957"><ele>125.0</ele><time>2026-03-28T12:57:59.001Z</time></trkpt><trkpt lat="42.96692859367018" lon="11.44473874287708"><ele>124.99999999999999</ele><time>2026-03-28T12:58:01.001Z</time></trkpt><trkpt lat="42.966956251978615" lon="11.444892057993153"><ele>125.0</ele><time>2026-03-28T12:58:03.001Z</time></trkpt><trkpt lat="42.96703850816356" lon="11.444937519390416"><ele>125.0</ele><time>2026-03-28T12:58:04.001Z</time></trkpt><trkpt lat="42.96708796599322" lon="11.444996869132527"><ele>125.0</ele><time>2026-03-28T12:58:05.001Z</time></trkpt><trkpt lat="42.967154896490655" lon="11.445032813368597"><ele>124.99999999999999</ele><time>2026-03-28T12:58:06.001Z</time></trkpt><trkpt lat="42.96722918897116" lon="11.445046801115918"><ele>125.0</ele><time>2026-03-28T12:58:07.001Z</time></trkpt><trkpt lat="42.96730667582541" lon="11.445037770894025"><ele>124.99999999999999</ele><time>2026-03-28T12:58:08.001Z</time></trkpt><trkpt lat="42.96740278293058" lon="11.445050607747199"><ele>125.0</ele><time>2026-03-28T12:58:09.001Z</time></trkpt><trkpt lat="42.96749751750514" lon="11.445027567689296"><ele>125.0</ele><time>2026-03-28T12:58:10.001Z</time></trkpt><trkpt lat="42.967583449441065" lon="11.444994375964598"><ele>125.0</ele><time>2026-03-28T12:58:11.001Z</time></trkpt><trkpt lat="42.96765696365622" lon="11.444975861747468"><ele>124.99999999999999</ele><time>2026-03-28T12:58:12.001Z</time></trkpt><trkpt lat="42.96772847661975" lon="11.444969189468567"><ele>125.0</ele><time>2026-03-28T12:58:13.001Z</time></trkpt><trkpt lat="42.96778976598793" lon="11.445016400155836"><ele>125.0</ele><time>2026-03-28T12:58:14.001Z</time></trkpt><trkpt lat="42.96783629262366" lon="11.445075423313986"><ele>125.0</ele><time>2026-03-28T12:58:15.001Z</time></trkpt><trkpt lat="42.96787747952724" lon="11.445146385317486"><ele>125.0</ele><time>2026-03-28T12:58:16.001Z</time></trkpt><trkpt lat="42.96789144415378" lon="11.445243882005956"><ele>125.0</ele><time>2026-03-28T12:58:17.001Z</time></trkpt><trkpt lat="42.967921974748684" lon="11.445336543934273"><ele>125.0</ele><time>2026-03-28T12:58:18.001Z</time></trkpt><trkpt lat="42.96797300597918" lon="11.44540735645555"><ele>125.0</ele><time>2026-03-28T12:58:19.001Z</time></trkpt><trkpt lat="42.968025275544" lon="11.445476065565238"><ele>125.0</ele><time>2026-03-28T12:58:20.001Z</time></trkpt><trkpt lat="42.96809477891497" lon="11.445519486944988"><ele>126.2</ele><time>2026-03-28T12:58:21.001Z</time></trkpt><trkpt lat="42.96816348777632" lon="11.445570747832091"><ele>127.4</ele><time>2026-03-28T12:58:22.001Z</time></trkpt><trkpt lat="42.96825228181409" lon="11.445554912617986"><ele>128.6</ele><time>2026-03-28T12:58:23.001Z</time></trkpt><trkpt lat="42.968351368661914" lon="11.445540675985823"><ele>129.8</ele><time>2026-03-28T12:58:24.001Z</time></trkpt><trkpt lat="42.96843492636586" lon="11.445525426212026"><ele>131.0</ele><time>2026-03-28T12:58:25Z</time></trkpt><trkpt lat="42.968552464658266" lon="11.445545707371949"><ele>131.0</ele><time>2026-03-28T12:58:27Z</time></trkpt><trkpt lat="42.96860279784872" lon="11.445614322528442"><ele>131.0</ele><time>2026-03-28T12:58:28Z</time></trkpt><trkpt lat="42.9686576558231" lon="11.44577131325209"><ele>131.0</ele><time>2026-03-28T12:58:30Z</time></trkpt><trkpt lat="42.96869131395074" lon="11.445851555348021"><ele>131.0</ele><time>2026-03-28T12:58:31Z</time></trkpt><trkpt lat="42.968725107058816" lon="11.445932718330077"><ele>131.0</ele><time>2026-03-28T12:58:32Z</time></trkpt><trkpt lat="42.968757589961506" lon="11.446021393735716"><ele>131.0</ele><time>2026-03-28T12:58:33Z</time></trkpt><trkpt lat="42.968786583604206" lon="11.446116674462557"><ele>131.0</ele><time>2026-03-28T12:58:34Z</time></trkpt><trkpt lat="42.96880622336356" lon="11.446216892554663"><ele>131.0</ele><time>2026-03-28T12:58:35Z</time></trkpt><trkpt lat="42.968817383082616" lon="11.446318259308757"><ele>131.0</ele><time>2026-03-28T12:58:36Z</time></trkpt><trkpt lat="42.968855480883825" lon="11.446394901663206"><ele>131.0</ele><time>2026-03-28T12:58:37Z</time></trkpt><trkpt lat="42.96887972174066" lon="11.44648052513461"><ele>131.0</ele><time>2026-03-28T12:58:38Z</time></trkpt><trkpt lat="42.96893691198608" lon="11.446564024821223"><ele>131.0</ele><time>2026-03-28T12:58:39Z</time></trkpt><trkpt lat="42.969000614555036" lon="11.446615970552866"><ele>131.0</ele><time>2026-03-28T12:58:40Z</time></trkpt><trkpt lat="42.96907095784225" lon="11.446660234269087"><ele>132.2</ele><time>2026-03-28T12:58:41Z</time></trkpt><trkpt lat="42.969156904734206" lon="11.446731513310075"><ele>133.39999999999998</ele><time>2026-03-28T12:58:42Z</time></trkpt><trkpt lat="42.96924073846757" lon="11.446782236479322"><ele>134.6</ele><time>2026-03-28T12:58:43Z</time></trkpt><trkpt lat="42.9693002206702" lon="11.446818225991894"><ele>135.79999999999998</ele><time>2026-03-28T12:58:44Z</time></trkpt><trkpt lat="42.96941823937755" lon="11.446885972143667"><ele>137.0</ele><time>2026-03-28T12:58:46Z</time></trkpt><trkpt lat="42.96946372898777" lon="11.446951932863849"><ele>137.0</ele><time>2026-03-28T12:58:47Z</time></trkpt><trkpt lat="42.96949461607301" lon="11.447044244212824"><ele>137.0</ele><time>2026-03-28T12:58:48Z</time></trkpt><trkpt lat="42.969503721948776" lon="11.4471560566896"><ele>137.0</ele><time>2026-03-28T12:58:49Z</time></trkpt><trkpt lat="42.969503460808866" lon="11.447281438151775"><ele>137.0</ele><time>2026-03-28T12:58:50Z</time></trkpt><trkpt lat="42.96950406574099" lon="11.44740693308204"><ele>137.0</ele><time>2026-03-28T12:58:51Z</time></trkpt><trkpt lat="42.96951108112523" lon="11.447530998369338"><ele>137.0</ele><time>2026-03-28T12:58:52Z</time></trkpt><trkpt lat="42.96952321246011" lon="11.447645690858364"><ele>139.79999999999998</ele><time>2026-03-28T12:58:53Z</time></trkpt><trkpt lat="42.96955103370658" lon="11.447752454535728"><ele>142.6</ele><time>2026-03-28T12:58:54Z</time></trkpt><trkpt lat="42.96960115684379" lon="11.44784960397208"><ele>145.39999999999998</ele><time>2026-03-28T12:58:55Z</time></trkpt><trkpt lat="42.96967225350498" lon="11.447937406472558"><ele>148.2</ele><time>2026-03-28T12:58:56Z</time></trkpt><trkpt lat="42.96976285022662" lon="11.448028433360747"><ele>151.0</ele><time>2026-03-28T12:58:57Z</time></trkpt><trkpt lat="42.969861277548276" lon="11.448121543023353"><ele>151.75</ele><time>2026-03-28T12:58:58Z</time></trkpt><trkpt lat="42.969981185613655" lon="11.4482358380707"><ele>152.5</ele><time>2026-03-28T12:58:59Z</time></trkpt><trkpt lat="42.97010536333252" lon="11.448358627002818"><ele>153.25</ele><time>2026-03-28T12:59:00Z</time></trkpt><trkpt lat="42.970236337424346" lon="11.448455103069419"><ele>154.0</ele><time>2026-03-28T12:59:01Z</time></trkpt><trkpt lat="42.970382296384564" lon="11.448574704706376"><ele>155.25</ele><time>2026-03-28T12:59:02Z</time></trkpt><trkpt lat="42.970526461701475" lon="11.448694496477449"><ele>156.5</ele><time>2026-03-28T12:59:03Z</time></trkpt><trkpt lat="42.97063994872919" lon="11.448809909022932"><ele>157.75</ele><time>2026-03-28T12:59:04Z</time></trkpt><trkpt lat="42.970744766094164" lon="11.448895685462231"><ele>159.0</ele><time>2026-03-28T12:59:05Z</time></trkpt><trkpt lat="42.97083053563775" lon="11.448998277397775"><ele>160.4</ele><time>2026-03-28T12:59:06Z</time></trkpt><trkpt lat="42.97092857301236" lon="11.449078515811676"><ele>161.8</ele><time>2026-03-28T12:59:07Z</time></trkpt><trkpt lat="42.97102000431084" lon="11.449168777021123"><ele>163.20000000000002</ele><time>2026-03-28T12:59:08Z</time></trkpt><trkpt lat="42.97109949573842" lon="11.449251678263419"><ele>164.60000000000002</ele><time>2026-03-28T12:59:09Z</time></trkpt><trkpt lat="42.97118935137218" lon="11.449319997819302"><ele>166.0</ele><time>2026-03-28T12:59:10Z</time></trkpt><trkpt lat="42.971288932108344" lon="11.449384025786976"><ele>166.0</ele><time>2026-03-28T12:59:11Z</time></trkpt><trkpt lat="42.97140459227499" lon="11.449452160499032"><ele>166.0</ele><time>2026-03-28T12:59:12Z</time></trkpt><trkpt lat="42.97152733091265" lon="11.449527645433253"><ele>166.0</ele><time>2026-03-28T12:59:13Z</time></trkpt><trkpt lat="42.97165909681526" lon="11.44961557587594"><ele>166.0</ele><time>2026-03-28T12:59:14Z</time></trkpt><trkpt lat="42.97180251919217" lon="11.449712489722245"><ele>167.75</ele><time>2026-03-28T12:59:15Z</time></trkpt><trkpt lat="42.97193461451367" lon="11.449807527921589"><ele>169.5</ele><time>2026-03-28T12:59:16Z</time></trkpt><trkpt lat="42.97205551767167" lon="11.449895633976961"><ele>171.25</ele><time>2026-03-28T12:59:17Z</time></trkpt><trkpt lat="42.97217336709122" lon="11.449978586631167"><ele>173.0</ele><time>2026-03-28T12:59:18Z</time></trkpt><trkpt lat="42.972289872487146" lon="11.450056658219712"><ele>173.0</ele><time>2026-03-28T12:59:19Z</time></trkpt><trkpt lat="42.97239389855898" lon="11.450128000234145"><ele>173.0</ele><time>2026-03-28T12:59:20Z</time></trkpt><trkpt lat="42.972491734510896" lon="11.450177121009647"><ele>173.0</ele><time>2026-03-28T12:59:21Z</time></trkpt><trkpt lat="42.972579065695186" lon="11.450206931419906"><ele>173.0</ele><time>2026-03-28T12:59:22Z</time></trkpt><trkpt lat="42.972674790916926" lon="11.450224700621435"><ele>173.0</ele><time>2026-03-28T12:59:24Z</time></trkpt><trkpt lat="42.97276482897262" lon="11.450214875519881"><ele>175.2</ele><time>2026-03-28T12:59:57Z</time></trkpt><trkpt lat="42.97288149927583" lon="11.45018829335593"><ele>177.4</ele><time>2026-03-28T12:59:59Z</time></trkpt><trkpt lat="42.972994252581834" lon="11.450237260733259"><ele>179.6</ele><time>2026-03-28T13:00:01Z</time></trkpt><trkpt lat="42.973046462755505" lon="11.450300203162271"><ele>181.79999999999998</ele><time>2026-03-28T13:00:02Z</time></trkpt><trkpt lat="42.973078045722914" lon="11.450464624571131"><ele>184.0</ele><time>2026-03-28T13:00:04Z</time></trkpt><trkpt lat="42.97308223558522" lon="11.450565546430457"><ele>184.5</ele><time>2026-03-28T13:00:05Z</time></trkpt><trkpt lat="42.973077636172874" lon="11.450695911749643"><ele>185.0</ele><time>2026-03-28T13:00:06Z</time></trkpt><trkpt lat="42.973073272782706" lon="11.45082681602453"><ele>185.5</ele><time>2026-03-28T13:00:07Z</time></trkpt><trkpt lat="42.973072331710064" lon="11.450948332029993"><ele>186.0</ele><time>2026-03-28T13:00:08Z</time></trkpt><trkpt lat="42.97307636404239" lon="11.451055248475967"><ele>186.5</ele><time>2026-03-28T13:00:09Z</time></trkpt><trkpt lat="42.97308759145826" lon="11.451147177056201"><ele>187.0</ele><time>2026-03-28T13:00:10Z</time></trkpt><trkpt lat="42.97314475120639" lon="11.451295190857927"><ele>187.0</ele><time>2026-03-28T13:00:12Z</time></trkpt><trkpt lat="42.973196800787896" lon="11.451347146794625"><ele>187.0</ele><time>2026-03-28T13:00:13Z</time></trkpt><trkpt lat="42.97325991562741" lon="11.451383214492784"><ele>187.0</ele><time>2026-03-28T13:00:14Z</time></trkpt><trkpt lat="42.97332450509101" lon="11.45139536535848"><ele>187.0</ele><time>2026-03-28T13:00:15Z</time></trkpt><trkpt lat="42.97339117674602" lon="11.451384255624989"><ele>187.0</ele><time>2026-03-28T13:00:16Z</time></trkpt><trkpt lat="42.97345366970022" lon="11.451340023609024"><ele>187.0</ele><time>2026-03-28T13:00:17Z</time></trkpt><trkpt lat="42.973513024063735" lon="11.451285037454825"><ele>187.0</ele><time>2026-03-28T13:00:18Z</time></trkpt><trkpt lat="42.973554680612544" lon="11.451183648180754"><ele>189.8</ele><time>2026-03-28T13:00:19Z</time></trkpt><trkpt lat="42.973569492422" lon="11.451054710903238"><ele>192.6</ele><time>2026-03-28T13:00:20Z</time></trkpt><trkpt lat="42.97361477540813" lon="11.450938614028937"><ele>195.4</ele><time>2026-03-28T13:00:21Z</time></trkpt><trkpt lat="42.97365592587184" lon="11.450814593020379"><ele>198.20000000000002</ele><time>2026-03-28T13:00:22.001Z</time></trkpt><trkpt lat="42.97371049399537" lon="11.450706205542497"><ele>201.0</ele><time>2026-03-28T13:00:23.001Z</time></trkpt><trkpt lat="42.97377469378704" lon="11.450602415493965"><ele>201.0</ele><time>2026-03-28T13:00:24.001Z</time></trkpt><trkpt lat="42.97384570919259" lon="11.450518755615544"><ele>201.0</ele><time>2026-03-28T13:00:25.001Z</time></trkpt><trkpt lat="42.973908235171685" lon="11.450434453123478"><ele>201.0</ele><time>2026-03-28T13:00:26.001Z</time></trkpt><trkpt lat="42.97398234008936" lon="11.450386506530771"><ele>201.0</ele><time>2026-03-28T13:00:27.001Z</time></trkpt><trkpt lat="42.974057366413376" lon="11.450366789529637"><ele>201.0</ele><time>2026-03-28T13:00:28.001Z</time></trkpt><trkpt lat="42.974126110879396" lon="11.450398296373487"><ele>201.0</ele><time>2026-03-28T13:00:29.001Z</time></trkpt><trkpt lat="42.974236258146256" lon="11.450473470413788"><ele>202.16666666666666</ele><time>2026-03-28T13:00:31Z</time></trkpt><trkpt lat="42.97429377503419" lon="11.450540922119448"><ele>203.33333333333331</ele><time>2026-03-28T13:00:32Z</time></trkpt><trkpt lat="42.97435793626367" lon="11.450594977393832"><ele>204.5</ele><time>2026-03-28T13:00:33Z</time></trkpt><trkpt lat="42.97443575197451" lon="11.450611254618954"><ele>205.66666666666666</ele><time>2026-03-28T13:00:34Z</time></trkpt><trkpt lat="42.97452949254568" lon="11.450608953029544"><ele>206.83333333333331</ele><time>2026-03-28T13:00:35Z</time></trkpt><trkpt lat="42.974635836800424" lon="11.45060013821876"><ele>208.0</ele><time>2026-03-28T13:00:36Z</time></trkpt><trkpt lat="42.97473804550427" lon="11.450596643419193"><ele>208.0</ele><time>2026-03-28T13:00:37Z</time></trkpt><trkpt lat="42.97483356366659" lon="11.45060061869284"><ele>208.0</ele><time>2026-03-28T13:00:38Z</time></trkpt><trkpt lat="42.97493078586813" lon="11.450622126266941"><ele>208.0</ele><time>2026-03-28T13:00:39Z</time></trkpt><trkpt lat="42.97503753821948" lon="11.450654066204791"><ele>208.0</ele><time>2026-03-28T13:00:40Z</time></trkpt><trkpt lat="42.97514900996839" lon="11.450693047557353"><ele>208.0</ele><time>2026-03-28T13:00:41Z</time></trkpt><trkpt lat="42.975259926740755" lon="11.45073219776553"><ele>208.25</ele><time>2026-03-28T13:00:42Z</time></trkpt><trkpt lat="42.9753746900221" lon="11.450772993968222"><ele>208.5</ele><time>2026-03-28T13:00:43Z</time></trkpt><trkpt lat="42.975503542559686" lon="11.450819952477042"><ele>208.75</ele><time>2026-03-28T13:00:44Z</time></trkpt><trkpt lat="42.97562789058254" lon="11.45086857017213"><ele>209.0</ele><time>2026-03-28T13:00:45Z</time></trkpt><trkpt lat="42.9757541986464" lon="11.450922013767135"><ele>210.0</ele><time>2026-03-28T13:00:46Z</time></trkpt><trkpt lat="42.97590052448888" lon="11.450986595917497"><ele>211.0</ele><time>2026-03-28T13:00:47Z</time></trkpt><trkpt lat="42.97605194536952" lon="11.451057960212866"><ele>212.0</ele><time>2026-03-28T13:00:48Z</time></trkpt><trkpt lat="42.97620757668763" lon="11.451134965801268"><ele>212.0</ele><time>2026-03-28T13:00:49Z</time></trkpt><trkpt lat="42.976356116307684" lon="11.4512012170069"><ele>212.0</ele><time>2026-03-28T13:00:50Z</time></trkpt><trkpt lat="42.97649770799703" lon="11.451264804573231"><ele>212.0</ele><time>2026-03-28T13:00:51Z</time></trkpt><trkpt lat="42.976645171103605" lon="11.451336909067601"><ele>213.0</ele><time>2026-03-28T13:00:52Z</time></trkpt><trkpt lat="42.976785396166626" lon="11.451413082876227"><ele>214.0</ele><time>2026-03-28T13:00:53Z</time></trkpt><trkpt lat="42.97691840549424" lon="11.451483622711937"><ele>215.0</ele><time>2026-03-28T13:00:54Z</time></trkpt><trkpt lat="42.97704721596398" lon="11.451562883635413"><ele>216.0</ele><time>2026-03-28T13:00:55Z</time></trkpt><trkpt lat="42.97718318771628" lon="11.451637438309431"><ele>216.0</ele><time>2026-03-28T13:00:56Z</time></trkpt><trkpt lat="42.97732200110607" lon="11.451714819460333"><ele>216.0</ele><time>2026-03-28T13:00:57Z</time></trkpt><trkpt lat="42.977453457662904" lon="11.451792619660456"><ele>216.0</ele><time>2026-03-28T13:00:58Z</time></trkpt><trkpt lat="42.97758371677858" lon="11.451871548209782"><ele>216.0</ele><time>2026-03-28T13:00:59Z</time></trkpt><trkpt lat="42.97771645885884" lon="11.451953857254107"><ele>216.5</ele><time>2026-03-28T13:01:00Z</time></trkpt><trkpt lat="42.977844065149036" lon="11.452030062221029"><ele>217.0</ele><time>2026-03-28T13:01:01Z</time></trkpt><trkpt lat="42.97796016602044" lon="11.45210284818793"><ele>217.5</ele><time>2026-03-28T13:01:02Z</time></trkpt><trkpt lat="42.978084769912336" lon="11.452174215795813"><ele>218.0</ele><time>2026-03-28T13:01:03Z</time></trkpt><trkpt lat="42.978211092049555" lon="11.452247574875349"><ele>218.0</ele><time>2026-03-28T13:01:04Z</time></trkpt><trkpt lat="42.978334629744545" lon="11.452317116516664"><ele>218.0</ele><time>2026-03-28T13:01:05Z</time></trkpt><trkpt lat="42.9784500528728" lon="11.45238640244943"><ele>218.0</ele><time>2026-03-28T13:01:06Z</time></trkpt><trkpt lat="42.978554630018046" lon="11.452445717176309"><ele>218.0</ele><time>2026-03-28T13:01:07Z</time></trkpt><trkpt lat="42.97865035759605" lon="11.452503208489455"><ele>218.4</ele><time>2026-03-28T13:01:08Z</time></trkpt><trkpt lat="42.97875208378941" lon="11.452570464703768"><ele>218.8</ele><time>2026-03-28T13:01:09Z</time></trkpt><trkpt lat="42.97884965677134" lon="11.452643673964864"><ele>219.2</ele><time>2026-03-28T13:01:10Z</time></trkpt><trkpt lat="42.978942901549274" lon="11.452722045677369"><ele>219.6</ele><time>2026-03-28T13:01:11Z</time></trkpt><trkpt lat="42.979029253831754" lon="11.452801591175342"><ele>220.0</ele><time>2026-03-28T13:01:12Z</time></trkpt><trkpt lat="42.979103209091825" lon="11.452872141801398"><ele>219.99999999999997</ele><time>2026-03-28T13:01:13Z</time></trkpt><trkpt lat="42.97916705400544" lon="11.45293685026446"><ele>220.0</ele><time>2026-03-28T13:01:14Z</time></trkpt><trkpt lat="42.97922964062025" lon="11.453000644379545"><ele>220.0</ele><time>2026-03-28T13:01:15Z</time></trkpt><trkpt lat="42.97928805769353" lon="11.453072962899256"><ele>220.0</ele><time>2026-03-28T13:01:16Z</time></trkpt><trkpt lat="42.979348757020155" lon="11.453149376556267"><ele>219.99999999999997</ele><time>2026-03-28T13:01:17Z</time></trkpt><trkpt lat="42.97940905539711" lon="11.453239901350619"><ele>220.0</ele><time>2026-03-28T13:01:18Z</time></trkpt><trkpt lat="42.97946964265559" lon="11.453339503728886"><ele>219.25</ele><time>2026-03-28T13:01:19Z</time></trkpt><trkpt lat="42.979531095421166" lon="11.453453315261315"><ele>218.5</ele><time>2026-03-28T13:01:20Z</time></trkpt><trkpt lat="42.97959872169178" lon="11.453573345990733"><ele>217.75</ele><time>2026-03-28T13:01:21Z</time></trkpt><trkpt lat="42.979668088299" lon="11.453697388616385"><ele>217.0</ele><time>2026-03-28T13:01:22Z</time></trkpt><trkpt lat="42.97974356146118" lon="11.453829669682294"><ele>217.0</ele><time>2026-03-28T13:01:23Z</time></trkpt><trkpt lat="42.97981843925098" lon="11.453977955167408"><ele>217.0</ele><time>2026-03-28T13:01:24Z</time></trkpt><trkpt lat="42.97988752466134" lon="11.454125827358114"><ele>217.0</ele><time>2026-03-28T13:01:25Z</time></trkpt><trkpt lat="42.979962716858715" lon="11.454278125449408"><ele>217.0</ele><time>2026-03-28T13:01:26Z</time></trkpt><trkpt lat="42.9800334240572" lon="11.454437527486926"><ele>216.25</ele><time>2026-03-28T13:01:27Z</time></trkpt><trkpt lat="42.98009489547899" lon="11.454592763855247"><ele>215.5</ele><time>2026-03-28T13:01:28Z</time></trkpt><trkpt lat="42.98015807309105" lon="11.454751754673405"><ele>214.75</ele><time>2026-03-28T13:01:29Z</time></trkpt><trkpt lat="42.98022267256648" lon="11.45490352738491"><ele>214.0</ele><time>2026-03-28T13:01:30Z</time></trkpt><trkpt lat="42.980289713683966" lon="11.455051869842368"><ele>214.0</ele><time>2026-03-28T13:01:31Z</time></trkpt><trkpt lat="42.98036525207367" lon="11.455204484130858"><ele>214.0</ele><time>2026-03-28T13:01:32Z</time></trkpt><trkpt lat="42.9804501090549" lon="11.455358593937838"><ele>214.0</ele><time>2026-03-28T13:01:33Z</time></trkpt><trkpt lat="42.9805390507202" lon="11.455508458119677"><ele>214.0</ele><time>2026-03-28T13:01:34Z</time></trkpt><trkpt lat="42.980616164566015" lon="11.45563946530504"><ele>213.39999999999998</ele><time>2026-03-28T13:01:35Z</time></trkpt><trkpt lat="42.98068431270849" lon="11.455755955297017"><ele>212.79999999999998</ele><time>2026-03-28T13:01:36Z</time></trkpt><trkpt lat="42.98074882926369" lon="11.455865185609618"><ele>212.2</ele><time>2026-03-28T13:01:37Z</time></trkpt><trkpt lat="42.98081574586847" lon="11.455968436739358"><ele>211.60000000000002</ele><time>2026-03-28T13:01:38Z</time></trkpt><trkpt lat="42.98089689598769" lon="11.456075154697881"><ele>211.0</ele><time>2026-03-28T13:01:39Z</time></trkpt><trkpt lat="42.980989528657545" lon="11.456183482429545"><ele>213.66666666666666</ele><time>2026-03-28T13:01:40Z</time></trkpt><trkpt lat="42.98109119379732" lon="11.456304733428558"><ele>216.33333333333331</ele><time>2026-03-28T13:01:41Z</time></trkpt><trkpt lat="42.9811986147006" lon="11.456441969873914"><ele>219.0</ele><time>2026-03-28T13:01:42Z</time></trkpt><trkpt lat="42.981323211930615" lon="11.456607520275606"><ele>219.0</ele><time>2026-03-28T13:01:43Z</time></trkpt><trkpt lat="42.981459013998595" lon="11.456790154634891"><ele>219.0</ele><time>2026-03-28T13:01:44Z</time></trkpt><trkpt lat="42.98157198877142" lon="11.456947356539244"><ele>219.0</ele><time>2026-03-28T13:01:45Z</time></trkpt><trkpt lat="42.981672898197" lon="11.457082593830908"><ele>220.2</ele><time>2026-03-28T13:01:46Z</time></trkpt><trkpt lat="42.981765439888555" lon="11.457201713269537"><ele>221.39999999999998</ele><time>2026-03-28T13:01:47Z</time></trkpt><trkpt lat="42.98184997818938" lon="11.457309839355599"><ele>222.6</ele><time>2026-03-28T13:01:48Z</time></trkpt><trkpt lat="42.98192262349785" lon="11.457411001434867"><ele>223.8</ele><time>2026-03-28T13:01:49Z</time></trkpt><trkpt lat="42.98198955655535" lon="11.457494566394523"><ele>225.0</ele><time>2026-03-28T13:01:50Z</time></trkpt><trkpt lat="42.982062520059976" lon="11.457564098697997"><ele>225.0</ele><time>2026-03-28T13:01:51Z</time></trkpt><trkpt lat="42.98213974919968" lon="11.45762884419833"><ele>225.0</ele><time>2026-03-28T13:01:52Z</time></trkpt><trkpt lat="42.98221639769563" lon="11.457710628739937"><ele>225.0</ele><time>2026-03-28T13:01:53Z</time></trkpt><trkpt lat="42.98231009223034" lon="11.457757122658364"><ele>225.0</ele><time>2026-03-28T13:01:54Z</time></trkpt><trkpt lat="42.98240640628312" lon="11.457761253703293"><ele>225.0</ele><time>2026-03-28T13:01:55Z</time></trkpt><trkpt lat="42.982511972872594" lon="11.457801691150907"><ele>225.5</ele><time>2026-03-28T13:01:56Z</time></trkpt><trkpt lat="42.982618502334475" lon="11.457840866396738"><ele>226.0</ele><time>2026-03-28T13:01:57Z</time></trkpt><trkpt lat="42.98273094163166" lon="11.45790799159042"><ele>226.5</ele><time>2026-03-28T13:01:58Z</time></trkpt><trkpt lat="42.98286063359094" lon="11.457924051814503"><ele>227.0</ele><time>2026-03-28T13:01:59Z</time></trkpt><trkpt lat="42.98300524267523" lon="11.457949984719706"><ele>230.33333333333334</ele><time>2026-03-28T13:02:00Z</time></trkpt><trkpt lat="42.98317418025828" lon="11.457962399305858"><ele>233.66666666666669</ele><time>2026-03-28T13:02:01Z</time></trkpt><trkpt lat="42.98334485257789" lon="11.45798875043896"><ele>237.0</ele><time>2026-03-28T13:02:02Z</time></trkpt><trkpt lat="42.98351499362156" lon="11.458029135354083"><ele>239.0</ele><time>2026-03-28T13:02:03Z</time></trkpt><trkpt lat="42.9836667118775" lon="11.458066810356843"><ele>241.0</ele><time>2026-03-28T13:02:04Z</time></trkpt><trkpt lat="42.98381246942568" lon="11.45810057260102"><ele>243.0</ele><time>2026-03-28T13:02:05Z</time></trkpt><trkpt lat="42.98396406975221" lon="11.458129492003868"><ele>243.0</ele><time>2026-03-28T13:02:06Z</time></trkpt><trkpt lat="42.984113857038075" lon="11.458170574576783"><ele>243.0</ele><time>2026-03-28T13:02:07Z</time></trkpt><trkpt lat="42.984271995834874" lon="11.458204744221707"><ele>243.0</ele><time>2026-03-28T13:02:08Z</time></trkpt><trkpt lat="42.984440687321126" lon="11.458241755678372"><ele>245.25</ele><time>2026-03-28T13:02:09Z</time></trkpt><trkpt lat="42.984593953862664" lon="11.458281986223561"><ele>247.5</ele><time>2026-03-28T13:02:10Z</time></trkpt><trkpt lat="42.98472495092667" lon="11.45831788112592"><ele>249.75</ele><time>2026-03-28T13:02:11Z</time></trkpt><trkpt lat="42.98484893782641" lon="11.458347945131832"><ele>252.0</ele><time>2026-03-28T13:02:12Z</time></trkpt><trkpt lat="42.98497730455665" lon="11.458366220725694"><ele>255.25</ele><time>2026-03-28T13:02:13Z</time></trkpt><trkpt lat="42.985103884367376" lon="11.458398685339752"><ele>258.5</ele><time>2026-03-28T13:02:14Z</time></trkpt><trkpt lat="42.985222320240574" lon="11.458415886172865"><ele>261.75</ele><time>2026-03-28T13:02:15.001Z</time></trkpt><trkpt lat="42.98533367890441" lon="11.458410356289708"><ele>265.0</ele><time>2026-03-28T13:02:16.001Z</time></trkpt><trkpt lat="42.98544268247977" lon="11.458427886833558"><ele>265.0</ele><time>2026-03-28T13:02:17.001Z</time></trkpt><trkpt lat="42.98554181951941" lon="11.458434571073662"><ele>265.0</ele><time>2026-03-28T13:02:18.001Z</time></trkpt><trkpt lat="42.98562654585384" lon="11.458402749239752"><ele>265.0</ele><time>2026-03-28T13:02:19.001Z</time></trkpt><trkpt lat="42.98571641613668" lon="11.458361215836954"><ele>265.0</ele><time>2026-03-28T13:02:20.001Z</time></trkpt><trkpt lat="42.985816120861095" lon="11.458321003185343"><ele>265.0</ele><time>2026-03-28T13:02:21.001Z</time></trkpt><trkpt lat="42.98592893822161" lon="11.458297850295205"><ele>268.0</ele><time>2026-03-28T13:02:22.001Z</time></trkpt><trkpt lat="42.98604654570667" lon="11.458284072099865"><ele>271.0</ele><time>2026-03-28T13:02:23.001Z</time></trkpt><trkpt lat="42.98614955245195" lon="11.45827704084525"><ele>274.0</ele><time>2026-03-28T13:02:24.001Z</time></trkpt><trkpt lat="42.98625489759171" lon="11.458277668927087"><ele>277.0</ele><time>2026-03-28T13:02:25.001Z</time></trkpt><trkpt lat="42.98635919444242" lon="11.458283964490937"><ele>280.0</ele><time>2026-03-28T13:02:26.001Z</time></trkpt><trkpt lat="42.98646812756682" lon="11.458284932276731"><ele>280.0</ele><time>2026-03-28T13:02:27.001Z</time></trkpt><trkpt lat="42.98657319503971" lon="11.45828324717127"><ele>280.0</ele><time>2026-03-28T13:02:28.001Z</time></trkpt><trkpt lat="42.98667231474671" lon="11.458282418592477"><ele>280.0</ele><time>2026-03-28T13:02:29.001Z</time></trkpt><trkpt lat="42.986771136353745" lon="11.458281186643786"><ele>280.0</ele><time>2026-03-28T13:02:30.001Z</time></trkpt><trkpt lat="42.986871350699246" lon="11.45828303644495"><ele>280.0</ele><time>2026-03-28T13:02:31.001Z</time></trkpt><trkpt lat="42.986978870439515" lon="11.458291611396723"><ele>280.4</ele><time>2026-03-28T13:02:32.001Z</time></trkpt><trkpt lat="42.98707972872024" lon="11.458300319706764"><ele>280.8</ele><time>2026-03-28T13:02:33.001Z</time></trkpt><trkpt lat="42.98717627544705" lon="11.458332298191968"><ele>281.2</ele><time>2026-03-28T13:02:34.001Z</time></trkpt><trkpt lat="42.98726131747717" lon="11.45836381422078"><ele>281.6</ele><time>2026-03-28T13:02:35.001Z</time></trkpt><trkpt lat="42.98732383977391" lon="11.458410181248828"><ele>282.0</ele><time>2026-03-28T13:02:36.001Z</time></trkpt><trkpt lat="42.987414171768854" lon="11.458548491039748"><ele>282.0</ele><time>2026-03-28T13:02:38Z</time></trkpt><trkpt lat="42.98745007065288" lon="11.458641808025035"><ele>282.0</ele><time>2026-03-28T13:02:39Z</time></trkpt><trkpt lat="42.987478916282456" lon="11.458732414796025"><ele>282.0</ele><time>2026-03-28T13:02:40Z</time></trkpt><trkpt lat="42.98752184526431" lon="11.458803383240367"><ele>282.0</ele><time>2026-03-28T13:02:41Z</time></trkpt><trkpt lat="42.98757861944439" lon="11.45884784214413"><ele>282.0</ele><time>2026-03-28T13:02:42Z</time></trkpt><trkpt lat="42.987648806027956" lon="11.458873305016818"><ele>282.0</ele><time>2026-03-28T13:02:43Z</time></trkpt><trkpt lat="42.9877288774581" lon="11.458887324999868"><ele>282.0</ele><time>2026-03-28T13:02:44Z</time></trkpt><trkpt lat="42.98781397657455" lon="11.458894181805034"><ele>287.0</ele><time>2026-03-28T13:02:45Z</time></trkpt><trkpt lat="42.98789669915746" lon="11.458907524449936"><ele>292.0</ele><time>2026-03-28T13:02:46Z</time></trkpt><trkpt lat="42.98799705354991" lon="11.458944465809065"><ele>297.0</ele><time>2026-03-28T13:02:48Z</time></trkpt><trkpt lat="42.988052025656884" lon="11.459031356645275"><ele>302.0</ele><time>2026-03-28T13:02:51Z</time></trkpt><trkpt lat="42.98800986197987" lon="11.459127270122115"><ele>307.0</ele><time>2026-03-28T13:02:54Z</time></trkpt><trkpt lat="42.98790286522262" lon="11.459092273604128"><ele>307.0</ele><time>2026-03-28T13:02:56Z</time></trkpt><trkpt lat="42.98778237392806" lon="11.45913164166579"><ele>307.0</ele><time>2026-03-28T13:02:58Z</time></trkpt><trkpt lat="42.987710912331224" lon="11.459172643418686"><ele>307.0</ele><time>2026-03-28T13:02:59Z</time></trkpt><trkpt lat="42.98763250177304" lon="11.459228715763599"><ele>307.0</ele><time>2026-03-28T13:03:00Z</time></trkpt><trkpt lat="42.98756221487649" lon="11.459281922507568"><ele>307.0</ele><time>2026-03-28T13:03:01Z</time></trkpt><trkpt lat="42.98749613488688" lon="11.459336162016548"><ele>307.0</ele><time>2026-03-28T13:03:02Z</time></trkpt><trkpt lat="42.98742671468412" lon="11.459396895555084"><ele>306.5</ele><time>2026-03-28T13:03:03Z</time></trkpt><trkpt lat="42.98736182732769" lon="11.459456918936239"><ele>306.0</ele><time>2026-03-28T13:03:04Z</time></trkpt><trkpt lat="42.98730070583995" lon="11.459533480060337"><ele>305.5</ele><time>2026-03-28T13:03:05Z</time></trkpt><trkpt lat="42.98723568677823" lon="11.45961959308992"><ele>305.0</ele><time>2026-03-28T13:03:06Z</time></trkpt><trkpt lat="42.98718011223011" lon="11.45969727012508"><ele>304.5</ele><time>2026-03-28T13:03:07Z</time></trkpt><trkpt lat="42.98713333084323" lon="11.459770845412603"><ele>304.0</ele><time>2026-03-28T13:03:08Z</time></trkpt><trkpt lat="42.98709203999952" lon="11.459856061932445"><ele>306.0</ele><time>2026-03-28T13:03:09Z</time></trkpt><trkpt lat="42.987072200672245" lon="11.459954966640751"><ele>308.0</ele><time>2026-03-28T13:03:10Z</time></trkpt><trkpt lat="42.987044558213896" lon="11.460047551228262"><ele>310.0</ele><time>2026-03-28T13:03:11Z</time></trkpt><trkpt lat="42.987002956988775" lon="11.460135429993526"><ele>312.0</ele><time>2026-03-28T13:03:12Z</time></trkpt><trkpt lat="42.986977209510314" lon="11.460229937470913"><ele>314.0</ele><time>2026-03-28T13:03:13Z</time></trkpt><trkpt lat="42.9869632891416" lon="11.460366840335041"><ele>316.0</ele><time>2026-03-28T13:03:15Z</time></trkpt><trkpt lat="42.98705055859755" lon="11.460408330332587"><ele>316.00000000000006</ele><time>2026-03-28T13:03:18Z</time></trkpt><trkpt lat="42.987114406582755" lon="11.460364184008487"><ele>316.0</ele><time>2026-03-28T13:03:20Z</time></trkpt><trkpt lat="42.987156285709744" lon="11.4602986938599"><ele>316.0</ele><time>2026-03-28T13:03:21Z</time></trkpt><trkpt lat="42.98721095252689" lon="11.460227768518696"><ele>316.0</ele><time>2026-03-28T13:03:22Z</time></trkpt><trkpt lat="42.987269605203295" lon="11.460171742912207"><ele>316.0</ele><time>2026-03-28T13:03:23Z</time></trkpt><trkpt lat="42.98733281864123" lon="11.460123890992667"><ele>316.00000000000006</ele><time>2026-03-28T13:03:24Z</time></trkpt><trkpt lat="42.98739600232314" lon="11.460082113038801"><ele>316.0</ele><time>2026-03-28T13:03:25Z</time></trkpt><trkpt lat="42.98746445881227" lon="11.46004948786691"><ele>317.3333333333333</ele><time>2026-03-28T13:03:26Z</time></trkpt><trkpt lat="42.987534857300126" lon="11.460029969429431"><ele>318.66666666666663</ele><time>2026-03-28T13:03:27Z</time></trkpt><trkpt lat="42.987611456583856" lon="11.460019409301953"><ele>320.0</ele><time>2026-03-28T13:03:28Z</time></trkpt><trkpt lat="42.98769260645521" lon="11.460025154948665"><ele>321.3333333333333</ele><time>2026-03-28T13:03:29Z</time></trkpt><trkpt lat="42.987767801470056" lon="11.460053770338657"><ele>322.6666666666667</ele><time>2026-03-28T13:03:30Z</time></trkpt><trkpt lat="42.98784011547905" lon="11.46008279676983"><ele>324.0</ele><time>2026-03-28T13:03:31Z</time></trkpt><trkpt lat="42.987930759889295" lon="11.460114505908278"><ele>324.0</ele><time>2026-03-28T13:03:32Z</time></trkpt><trkpt lat="42.988051371429336" lon="11.460154719625772"><ele>324.0</ele><time>2026-03-28T13:03:33Z</time></trkpt><trkpt lat="42.98818309417881" lon="11.460199231894672"><ele>324.0</ele><time>2026-03-28T13:03:34Z</time></trkpt><trkpt lat="42.98829724883733" lon="11.460237859252643"><ele>324.0</ele><time>2026-03-28T13:03:35Z</time></trkpt><trkpt lat="42.988414992300925" lon="11.460278830526951"><ele>325.0</ele><time>2026-03-28T13:03:36Z</time></trkpt><trkpt lat="42.98852258349548" lon="11.460324835929455"><ele>326.0</ele><time>2026-03-28T13:03:37Z</time></trkpt><trkpt lat="42.98861960540456" lon="11.460377972734864"><ele>327.0</ele><time>2026-03-28T13:03:38Z</time></trkpt><trkpt lat="42.988712414894316" lon="11.460443893252148"><ele>328.0</ele><time>2026-03-28T13:03:39Z</time></trkpt><trkpt lat="42.9888114341097" lon="11.460527424151817"><ele>329.0</ele><time>2026-03-28T13:03:40Z</time></trkpt><trkpt lat="42.98890641002462" lon="11.46062541617843"><ele>330.4</ele><time>2026-03-28T13:03:41Z</time></trkpt><trkpt lat="42.9889856353224" lon="11.460718087570987"><ele>331.79999999999995</ele><time>2026-03-28T13:03:42Z</time></trkpt><trkpt lat="42.98905994682222" lon="11.460801294894521"><ele>333.20000000000005</ele><time>2026-03-28T13:03:43Z</time></trkpt><trkpt lat="42.989135884555466" lon="11.460871713389137"><ele>334.6</ele><time>2026-03-28T13:03:44Z</time></trkpt><trkpt lat="42.98921827007311" lon="11.460929668201889"><ele>336.0</ele><time>2026-03-28T13:03:45Z</time></trkpt><trkpt lat="42.9893096859829" lon="11.46096478181717"><ele>337.25</ele><time>2026-03-28T13:03:46Z</time></trkpt><trkpt lat="42.98940777638229" lon="11.460964775796935"><ele>338.5</ele><time>2026-03-28T13:03:47Z</time></trkpt><trkpt lat="42.989512897198416" lon="11.46096069778418"><ele>339.75</ele><time>2026-03-28T13:03:48Z</time></trkpt><trkpt lat="42.98963417282621" lon="11.46095919530782"><ele>341.0</ele><time>2026-03-28T13:03:49Z</time></trkpt><trkpt lat="42.989768698822594" lon="11.460959176449697"><ele>341.0</ele><time>2026-03-28T13:03:50Z</time></trkpt><trkpt lat="42.98988947960941" lon="11.460955927590824"><ele>341.0</ele><time>2026-03-28T13:03:51Z</time></trkpt><trkpt lat="42.99000536976314" lon="11.460963474415083"><ele>341.0</ele><time>2026-03-28T13:03:52Z</time></trkpt><trkpt lat="42.99011143835283" lon="11.46097762258499"><ele>341.0</ele><time>2026-03-28T13:03:53Z</time></trkpt><trkpt lat="42.99020428897081" lon="11.461015406489564"><ele>341.0</ele><time>2026-03-28T13:03:54Z</time></trkpt><trkpt lat="42.99027660990223" lon="11.461067702321206"><ele>342.6</ele><time>2026-03-28T13:03:55Z</time></trkpt><trkpt lat="42.990348060253645" lon="11.461126133598675"><ele>344.20000000000005</ele><time>2026-03-28T13:03:56Z</time></trkpt><trkpt lat="42.9904277653825" lon="11.461198231342365"><ele>345.79999999999995</ele><time>2026-03-28T13:03:57Z</time></trkpt><trkpt lat="42.990514717098435" lon="11.461283225557846"><ele>347.4</ele><time>2026-03-28T13:03:58.001Z</time></trkpt><trkpt lat="42.990585024419325" lon="11.461344024799596"><ele>349.0</ele><time>2026-03-28T13:03:59.001Z</time></trkpt><trkpt lat="42.99070084355529" lon="11.461403465651628"><ele>348.99999999999994</ele><time>2026-03-28T13:04:01.001Z</time></trkpt><trkpt lat="42.99081645357102" lon="11.46137671500892"><ele>349.0</ele><time>2026-03-28T13:04:03.001Z</time></trkpt><trkpt lat="42.99087118295466" lon="11.461328646755517"><ele>349.0</ele><time>2026-03-28T13:04:04.001Z</time></trkpt><trkpt lat="42.99092143948025" lon="11.461262199749202"><ele>349.0</ele><time>2026-03-28T13:04:05.001Z</time></trkpt><trkpt lat="42.99095716441125" lon="11.461187282686835"><ele>349.0</ele><time>2026-03-28T13:04:06.001Z</time></trkpt><trkpt lat="42.9909732111309" lon="11.461102128833893"><ele>348.99999999999994</ele><time>2026-03-28T13:04:07.001Z</time></trkpt><trkpt lat="42.990977799541575" lon="11.461011213535391"><ele>349.0</ele><time>2026-03-28T13:04:08.001Z</time></trkpt><trkpt lat="42.99102726347511" lon="11.460858482295807"><ele>352.66666666666663</ele><time>2026-03-28T13:04:10.001Z</time></trkpt><trkpt lat="42.991138268062734" lon="11.460771659199857"><ele>356.3333333333333</ele><time>2026-03-28T13:04:12.001Z</time></trkpt><trkpt lat="42.991207463510506" lon="11.460760560877311"><ele>360.0</ele><time>2026-03-28T13:04:13.001Z</time></trkpt><trkpt lat="42.991271467245305" lon="11.460717051802861"><ele>363.6666666666667</ele><time>2026-03-28T13:04:14.001Z</time></trkpt><trkpt lat="42.99133834196685" lon="11.460705658425937"><ele>367.33333333333337</ele><time>2026-03-28T13:04:15.001Z</time></trkpt><trkpt lat="42.9914330286595" lon="11.46073459679954"><ele>371.0</ele><time>2026-03-28T13:04:17.001Z</time></trkpt><trkpt lat="42.99154898251536" lon="11.460780019818065"><ele>371.0</ele><time>2026-03-28T13:04:19.001Z</time></trkpt><trkpt lat="42.991650288548136" lon="11.460779205187231"><ele>371.0</ele><time>2026-03-28T13:04:21.001Z</time></trkpt><trkpt lat="42.99174000510179" lon="11.460692574350658"><ele>371.0</ele><time>2026-03-28T13:04:23.001Z</time></trkpt><trkpt lat="42.99176792629528" lon="11.460551568082693"><ele>371.0</ele><time>2026-03-28T13:04:25.001Z</time></trkpt><trkpt lat="42.99176091451987" lon="11.460465287375612"><ele>371.0</ele><time>2026-03-28T13:04:26.001Z</time></trkpt><trkpt lat="42.99178773470963" lon="11.460316085751657"><ele>375.1666666666667</ele><time>2026-03-28T13:04:28.001Z</time></trkpt><trkpt lat="42.9918089035201" lon="11.460159388729412"><ele>379.33333333333337</ele><time>2026-03-28T13:04:30.001Z</time></trkpt><trkpt lat="42.991838126031" lon="11.460081541712595"><ele>383.5</ele><time>2026-03-28T13:04:31.001Z</time></trkpt><trkpt lat="42.99186793863478" lon="11.460001636802327"><ele>387.6666666666667</ele><time>2026-03-28T13:04:32.001Z</time></trkpt><trkpt lat="42.991898902728465" lon="11.45992255097118"><ele>391.8333333333333</ele><time>2026-03-28T13:04:33.001Z</time></trkpt><trkpt lat="42.991934141614806" lon="11.459842780902935"><ele>396.0</ele><time>2026-03-28T13:04:34.001Z</time></trkpt><trkpt lat="42.99199078992285" lon="11.459783247992874"><ele>396.0</ele><time>2026-03-28T13:04:35.001Z</time></trkpt><trkpt lat="42.99204356640792" lon="11.45971491064635"><ele>396.0</ele><time>2026-03-28T13:04:36.001Z</time></trkpt><trkpt lat="42.99210816333859" lon="11.459640389446745"><ele>396.0</ele><time>2026-03-28T13:04:37.001Z</time></trkpt><trkpt lat="42.9921813637479" lon="11.459545770270562"><ele>396.0</ele><time>2026-03-28T13:04:38.001Z</time></trkpt><trkpt lat="42.9922622532767" lon="11.459500541781923"><ele>396.0</ele><time>2026-03-28T13:04:39.001Z</time></trkpt><trkpt lat="42.99233916412262" lon="11.459444407981339"><ele>396.0</ele><time>2026-03-28T13:04:40.001Z</time></trkpt><trkpt lat="42.992416574341576" lon="11.459396135306987"><ele>396.5</ele><time>2026-03-28T13:04:41.001Z</time></trkpt><trkpt lat="42.9924829218354" lon="11.459357912571349"><ele>397.0</ele><time>2026-03-28T13:04:42.001Z</time></trkpt><trkpt lat="42.9925803753467" lon="11.459307531482906"><ele>397.5</ele><time>2026-03-28T13:04:44Z</time></trkpt><trkpt lat="42.992641071903606" lon="11.459268629784507"><ele>398.0</ele><time>2026-03-28T13:04:47Z</time></trkpt><trkpt lat="42.992567646894656" lon="11.459313255735498"><ele>398.5</ele><time>2026-03-28T13:05:31Z</time></trkpt><trkpt lat="42.99246445875158" lon="11.459345495656464"><ele>399.0</ele><time>2026-03-28T13:05:34Z</time></trkpt><trkpt lat="42.9923638347148" lon="11.459409525774964"><ele>398.4</ele><time>2026-03-28T13:05:36Z</time></trkpt><trkpt lat="42.99224986498711" lon="11.459485749630119"><ele>397.79999999999995</ele><time>2026-03-28T13:05:38Z</time></trkpt><trkpt lat="42.992187085229546" lon="11.459538299377758"><ele>397.20000000000005</ele><time>2026-03-28T13:05:39Z</time></trkpt><trkpt lat="42.99209235792422" lon="11.459657984160744"><ele>396.6</ele><time>2026-03-28T13:05:41Z</time></trkpt><trkpt lat="42.99200527929804" lon="11.459763453248527"><ele>396.0</ele><time>2026-03-28T13:05:43Z</time></trkpt><trkpt lat="42.9919195257735" lon="11.459874207838574"><ele>396.0</ele><time>2026-03-28T13:05:45Z</time></trkpt><trkpt lat="42.991875711066946" lon="11.460025054662282"><ele>396.0</ele><time>2026-03-28T13:05:47Z</time></trkpt><trkpt lat="42.991829841309695" lon="11.460147513793935"><ele>396.0</ele><time>2026-03-28T13:05:49Z</time></trkpt><trkpt lat="42.991784036694284" lon="11.460264934533273"><ele>396.0</ele><time>2026-03-28T13:05:51Z</time></trkpt><trkpt lat="42.991790703374356" lon="11.460478833359828"><ele>396.20000000000005</ele><time>2026-03-28T13:05:53Z</time></trkpt><trkpt lat="42.99179446902896" lon="11.460575044914322"><ele>396.40000000000003</ele><time>2026-03-28T13:05:54Z</time></trkpt><trkpt lat="42.99174571468152" lon="11.460654191909374"><ele>396.6</ele><time>2026-03-28T13:05:56Z</time></trkpt><trkpt lat="42.99168299124456" lon="11.460739512160526"><ele>396.8</ele><time>2026-03-28T13:05:58Z</time></trkpt><trkpt lat="42.9915784886036" lon="11.460756999063287"><ele>397.0</ele><time>2026-03-28T13:06:00Z</time></trkpt><trkpt lat="42.991471486914726" lon="11.460720895455026"><ele>390.5</ele><time>2026-03-28T13:06:02Z</time></trkpt><trkpt lat="42.99137008266547" lon="11.460681985907799"><ele>384.0</ele><time>2026-03-28T13:06:04Z</time></trkpt><trkpt lat="42.99124205757101" lon="11.460697713890028"><ele>377.5</ele><time>2026-03-28T13:06:06Z</time></trkpt><trkpt lat="42.99113205664094" lon="11.46075567687075"><ele>371.0</ele><time>2026-03-28T13:06:08Z</time></trkpt><trkpt lat="42.99103455899852" lon="11.46083401222073"><ele>371.0</ele><time>2026-03-28T13:06:10Z</time></trkpt><trkpt lat="42.9909705331489" lon="11.46096462717451"><ele>371.0</ele><time>2026-03-28T13:06:12.001Z</time></trkpt><trkpt lat="42.990944535080196" lon="11.46111103430468"><ele>371.0</ele><time>2026-03-28T13:06:14.001Z</time></trkpt><trkpt lat="42.990906482137405" lon="11.46124307467749"><ele>371.0</ele><time>2026-03-28T13:06:16.001Z</time></trkpt><trkpt lat="42.990859398533374" lon="11.46130137273882"><ele>371.0</ele><time>2026-03-28T13:06:17.001Z</time></trkpt><trkpt lat="42.99080166682706" lon="11.461350015075666"><ele>368.5</ele><time>2026-03-28T13:06:18.001Z</time></trkpt><trkpt lat="42.99073604611502" lon="11.461375384993461"><ele>366.0</ele><time>2026-03-28T13:06:19.001Z</time></trkpt><trkpt lat="42.99061396287977" lon="11.461340099347963"><ele>363.5</ele><time>2026-03-28T13:06:21.001Z</time></trkpt><trkpt lat="42.990549896267076" lon="11.46128277011447"><ele>361.0</ele><time>2026-03-28T13:06:22.001Z</time></trkpt><trkpt lat="42.99048450619246" lon="11.461212394240379"><ele>358.5</ele><time>2026-03-28T13:06:23.001Z</time></trkpt><trkpt lat="42.99042094179077" lon="11.461145529833392"><ele>356.0</ele><time>2026-03-28T13:06:24.001Z</time></trkpt><trkpt lat="42.9903600414429" lon="11.46108620236901"><ele>356.0</ele><time>2026-03-28T13:06:25.001Z</time></trkpt><trkpt lat="42.990294257678826" lon="11.461029580756696"><ele>356.0</ele><time>2026-03-28T13:06:26.001Z</time></trkpt><trkpt lat="42.99022593789876" lon="11.460961333652923"><ele>356.0</ele><time>2026-03-28T13:06:27.001Z</time></trkpt><trkpt lat="42.99013763307209" lon="11.460932714505281"><ele>356.0</ele><time>2026-03-28T13:06:28.001Z</time></trkpt><trkpt lat="42.99004379366963" lon="11.460949368163332"><ele>356.0</ele><time>2026-03-28T13:06:29.001Z</time></trkpt><trkpt lat="42.98995396888597" lon="11.460945039362128"><ele>356.0</ele><time>2026-03-28T13:06:30.001Z</time></trkpt><trkpt lat="42.9898660703104" lon="11.460945142827724"><ele>353.0</ele><time>2026-03-28T13:06:31.001Z</time></trkpt><trkpt lat="42.98976918305961" lon="11.460942397325509"><ele>350.0</ele><time>2026-03-28T13:06:32.001Z</time></trkpt><trkpt lat="42.98966278488388" lon="11.460938741074333"><ele>347.0</ele><time>2026-03-28T13:06:33.001Z</time></trkpt><trkpt lat="42.98956282668541" lon="11.46094121268486"><ele>344.0</ele><time>2026-03-28T13:06:34.001Z</time></trkpt><trkpt lat="42.98947387802587" lon="11.46093884451116"><ele>341.0</ele><time>2026-03-28T13:06:35.001Z</time></trkpt><trkpt lat="42.98939166787125" lon="11.46093386305794"><ele>341.0</ele><time>2026-03-28T13:06:36.001Z</time></trkpt><trkpt lat="42.98930567768054" lon="11.460924517905651"><ele>341.0</ele><time>2026-03-28T13:06:37.001Z</time></trkpt><trkpt lat="42.98921437197512" lon="11.460904497629276"><ele>341.0</ele><time>2026-03-28T13:06:38.001Z</time></trkpt><trkpt lat="42.989131451299485" lon="11.460829908104472"><ele>341.0</ele><time>2026-03-28T13:06:39.001Z</time></trkpt><trkpt lat="42.98905282038122" lon="11.46075374554027"><ele>341.0</ele><time>2026-03-28T13:06:40.001Z</time></trkpt><trkpt lat="42.988976648667034" lon="11.460668328713014"><ele>340.1666666666667</ele><time>2026-03-28T13:06:41.001Z</time></trkpt><trkpt lat="42.98889580621587" lon="11.46059885451446"><ele>339.33333333333337</ele><time>2026-03-28T13:06:42.001Z</time></trkpt><trkpt lat="42.988833200867546" lon="11.460522000954786"><ele>338.5</ele><time>2026-03-28T13:06:43.001Z</time></trkpt><trkpt lat="42.98876593796008" lon="11.460462553342778"><ele>337.6666666666667</ele><time>2026-03-28T13:06:44.001Z</time></trkpt><trkpt lat="42.98868597211565" lon="11.460407221200185"><ele>336.8333333333333</ele><time>2026-03-28T13:06:45.001Z</time></trkpt><trkpt lat="42.9886007583554" lon="11.460352996511334"><ele>336.0</ele><time>2026-03-28T13:06:46.001Z</time></trkpt><trkpt lat="42.98851460769942" lon="11.460305331416105"><ele>334.8333333333333</ele><time>2026-03-28T13:06:47.001Z</time></trkpt><trkpt lat="42.988433673257326" lon="11.460269743719426"><ele>333.6666666666667</ele><time>2026-03-28T13:06:48.001Z</time></trkpt><trkpt lat="42.988351386933886" lon="11.460236799630497"><ele>332.5</ele><time>2026-03-28T13:06:49Z</time></trkpt><trkpt lat="42.98826540254718" lon="11.460210272493187"><ele>331.33333333333337</ele><time>2026-03-28T13:06:50Z</time></trkpt><trkpt lat="42.988177178521426" lon="11.460181513439831"><ele>330.1666666666667</ele><time>2026-03-28T13:06:51Z</time></trkpt><trkpt lat="42.98809533436053" lon="11.460151298546949"><ele>329.0</ele><time>2026-03-28T13:06:52Z</time></trkpt><trkpt lat="42.98801568040138" lon="11.460118774369061"><ele>328.2857142857143</ele><time>2026-03-28T13:06:53Z</time></trkpt><trkpt lat="42.98793227136349" lon="11.460097934324782"><ele>327.57142857142856</ele><time>2026-03-28T13:06:54Z</time></trkpt><trkpt lat="42.98785650918706" lon="11.46006758472601"><ele>326.8571428571429</ele><time>2026-03-28T13:06:55Z</time></trkpt><trkpt lat="42.98778819652144" lon="11.46004444555664"><ele>326.1428571428571</ele><time>2026-03-28T13:06:56Z</time></trkpt><trkpt lat="42.98772217989377" lon="11.460010417370587"><ele>325.42857142857144</ele><time>2026-03-28T13:06:57Z</time></trkpt><trkpt lat="42.98765380944935" lon="11.459989557534362"><ele>324.7142857142857</ele><time>2026-03-28T13:06:58Z</time></trkpt><trkpt lat="42.987583844937035" lon="11.459997838957669"><ele>324.0</ele><time>2026-03-28T13:06:59Z</time></trkpt><trkpt lat="42.98751110524524" lon="11.460010434241376"><ele>322.6666666666667</ele><time>2026-03-28T13:07:00Z</time></trkpt><trkpt lat="42.987436540894436" lon="11.460035156775401"><ele>321.3333333333333</ele><time>2026-03-28T13:07:01Z</time></trkpt><trkpt lat="42.98736241713356" lon="11.46007108660264"><ele>320.0</ele><time>2026-03-28T13:07:02Z</time></trkpt><trkpt lat="42.98729852281628" lon="11.460111523292793"><ele>318.66666666666663</ele><time>2026-03-28T13:07:03Z</time></trkpt><trkpt lat="42.987241771432025" lon="11.460156258538584"><ele>317.3333333333333</ele><time>2026-03-28T13:07:04Z</time></trkpt><trkpt lat="42.98716292178196" lon="11.460250251463306"><ele>316.0</ele><time>2026-03-28T13:07:06Z</time></trkpt><trkpt lat="42.98710171014907" lon="11.460308407301984"><ele>316.0</ele><time>2026-03-28T13:07:08Z</time></trkpt><trkpt lat="42.987041188901244" lon="11.46035194953526"><ele>316.0</ele><time>2026-03-28T13:07:12Z</time></trkpt><trkpt lat="42.9870100556799" lon="11.460221484079335"><ele>316.0</ele><time>2026-03-28T13:07:15Z</time></trkpt><trkpt lat="42.98705561201587" lon="11.460068860985876"><ele>316.0</ele><time>2026-03-28T13:07:17Z</time></trkpt><trkpt lat="42.98707530044127" lon="11.45998601727103"><ele>316.0</ele><time>2026-03-28T13:07:18Z</time></trkpt><trkpt lat="42.987100611900985" lon="11.459904144913041"><ele>316.0</ele><time>2026-03-28T13:07:19Z</time></trkpt><trkpt lat="42.98713529722482" lon="11.459816424656793"><ele>316.0</ele><time>2026-03-28T13:07:20Z</time></trkpt><trkpt lat="42.987181981295336" lon="11.45973022988963"><ele>316.0</ele><time>2026-03-28T13:07:21Z</time></trkpt><trkpt lat="42.9872383185043" lon="11.45964911861645"><ele>316.0</ele><time>2026-03-28T13:07:22Z</time></trkpt><trkpt lat="42.987291952126945" lon="11.459580480421993"><ele>316.0</ele><time>2026-03-28T13:07:23Z</time></trkpt><trkpt lat="42.98734274703918" lon="11.459529348494447"><ele>316.0</ele><time>2026-03-28T13:07:24Z</time></trkpt><trkpt lat="42.98743223655492" lon="11.459430028729386"><ele>316.0</ele><time>2026-03-28T13:07:26Z</time></trkpt><trkpt lat="42.98753716620943" lon="11.45934208543457"><ele>314.7142857142857</ele><time>2026-03-28T13:07:28Z</time></trkpt><trkpt lat="42.987600673142374" lon="11.459299631100395"><ele>313.42857142857144</ele><time>2026-03-28T13:07:29Z</time></trkpt><trkpt lat="42.987666171348245" lon="11.459254221007255"><ele>312.1428571428571</ele><time>2026-03-28T13:07:30Z</time></trkpt><trkpt lat="42.98772833194704" lon="11.459201611282426"><ele>310.8571428571429</ele><time>2026-03-28T13:07:31Z</time></trkpt><trkpt lat="42.987787959588694" lon="11.459158163804325"><ele>309.57142857142856</ele><time>2026-03-28T13:07:32Z</time></trkpt><trkpt lat="42.9878534508926" lon="11.459150189693263"><ele>308.2857142857143</ele><time>2026-03-28T13:07:33Z</time></trkpt><trkpt lat="42.9879494547859" lon="11.459124315935874"><ele>307.0</ele><time>2026-03-28T13:07:35Z</time></trkpt><trkpt lat="42.98802462130333" lon="11.459128158627538"><ele>307.0</ele><time>2026-03-28T13:07:37Z</time></trkpt><trkpt lat="42.988065449115226" lon="11.45905258995812"><ele>307.0</ele><time>2026-03-28T13:07:39Z</time></trkpt><trkpt lat="42.988033884022705" lon="11.458949819498763"><ele>307.0</ele><time>2026-03-28T13:07:41Z</time></trkpt><trkpt lat="42.98795104937559" lon="11.458905856072382"><ele>307.0</ele><time>2026-03-28T13:07:43Z</time></trkpt><trkpt lat="42.98785046835233" lon="11.45889045553496"><ele>307.0</ele><time>2026-03-28T13:07:45Z</time></trkpt><trkpt lat="42.98774554922743" lon="11.45886351520368"><ele>307.0</ele><time>2026-03-28T13:07:47Z</time></trkpt><trkpt lat="42.98764183151237" lon="11.458845438097349"><ele>304.5</ele><time>2026-03-28T13:07:49Z</time></trkpt><trkpt lat="42.98753540735684" lon="11.458777335655174"><ele>302.0</ele><time>2026-03-28T13:07:51Z</time></trkpt><trkpt lat="42.98749430581024" lon="11.458707815689909"><ele>299.5</ele><time>2026-03-28T13:07:52Z</time></trkpt><trkpt lat="42.9874608989896" lon="11.458620406791324"><ele>297.0</ele><time>2026-03-28T13:07:53Z</time></trkpt><trkpt lat="42.98743363164826" lon="11.458540794235256"><ele>294.5</ele><time>2026-03-28T13:07:54Z</time></trkpt><trkpt lat="42.98740214191472" lon="11.458461985645123"><ele>292.0</ele><time>2026-03-28T13:07:55Z</time></trkpt><trkpt lat="42.98730687970221" lon="11.458367064078681"><ele>290.3333333333333</ele><time>2026-03-28T13:07:57Z</time></trkpt><trkpt lat="42.98724443413465" lon="11.458335735374186"><ele>288.66666666666663</ele><time>2026-03-28T13:07:58Z</time></trkpt><trkpt lat="42.98717311502553" lon="11.458306583413515"><ele>287.0</ele><time>2026-03-28T13:07:59Z</time></trkpt><trkpt lat="42.98709044803015" lon="11.458278387916216"><ele>285.3333333333333</ele><time>2026-03-28T13:08:00Z</time></trkpt><trkpt lat="42.98700379209957" lon="11.458265921829986"><ele>283.6666666666667</ele><time>2026-03-28T13:08:01Z</time></trkpt><trkpt lat="42.98690934476219" lon="11.458258676566055"><ele>282.0</ele><time>2026-03-28T13:08:02Z</time></trkpt><trkpt lat="42.98680533725586" lon="11.458258151505037"><ele>282.0</ele><time>2026-03-28T13:08:03Z</time></trkpt><trkpt lat="42.986703214715995" lon="11.458249332703845"><ele>282.0</ele><time>2026-03-28T13:08:04Z</time></trkpt><trkpt lat="42.986595374016495" lon="11.458242936119492"><ele>282.0</ele><time>2026-03-28T13:08:05.001Z</time></trkpt><trkpt lat="42.98649776135732" lon="11.45823828219074"><ele>282.0</ele><time>2026-03-28T13:08:06.001Z</time></trkpt><trkpt lat="42.98640108158477" lon="11.458233404354312"><ele>282.0</ele><time>2026-03-28T13:08:07.001Z</time></trkpt><trkpt lat="42.986304968168206" lon="11.458245408474772"><ele>281.6666666666667</ele><time>2026-03-28T13:08:08.001Z</time></trkpt><trkpt lat="42.98621156292117" lon="11.458249028934153"><ele>281.3333333333333</ele><time>2026-03-28T13:08:09.001Z</time></trkpt><trkpt lat="42.986121232384136" lon="11.45825735623478"><ele>281.0</ele><time>2026-03-28T13:08:10.001Z</time></trkpt><trkpt lat="42.98603357110098" lon="11.458268722373525"><ele>280.66666666666663</ele><time>2026-03-28T13:08:11.001Z</time></trkpt><trkpt lat="42.98594587201654" lon="11.458269678903317"><ele>280.3333333333333</ele><time>2026-03-28T13:08:12.001Z</time></trkpt><trkpt lat="42.98586088169487" lon="11.458300578420468"><ele>280.0</ele><time>2026-03-28T13:08:13.001Z</time></trkpt><trkpt lat="42.98577897879019" lon="11.458322339917377"><ele>277.5</ele><time>2026-03-28T13:08:14.001Z</time></trkpt><trkpt lat="42.98569626775461" lon="11.458348812015293"><ele>275.0</ele><time>2026-03-28T13:08:15.001Z</time></trkpt><trkpt lat="42.98561429400479" lon="11.458375353587696"><ele>272.5</ele><time>2026-03-28T13:08:16.001Z</time></trkpt><trkpt lat="42.98553421649969" lon="11.458393185228816"><ele>270.0</ele><time>2026-03-28T13:08:17.001Z</time></trkpt><trkpt lat="42.985451569930035" lon="11.458402162335789"><ele>267.5</ele><time>2026-03-28T13:08:18.001Z</time></trkpt><trkpt lat="42.98536379749967" lon="11.458401266731554"><ele>265.0</ele><time>2026-03-28T13:08:19.001Z</time></trkpt><trkpt lat="42.98528182304726" lon="11.458388475174095"><ele>265.0</ele><time>2026-03-28T13:08:20.001Z</time></trkpt><trkpt lat="42.985188700056064" lon="11.458366218293598"><ele>265.0</ele><time>2026-03-28T13:08:21.001Z</time></trkpt><trkpt lat="42.98508262314174" lon="11.458352941611608"><ele>265.0</ele><time>2026-03-28T13:08:22.001Z</time></trkpt><trkpt lat="42.9849698939187" lon="11.458340372794655"><ele>265.0</ele><time>2026-03-28T13:08:23.001Z</time></trkpt><trkpt lat="42.98485133877966" lon="11.45832486080535"><ele>265.0</ele><time>2026-03-28T13:08:24.001Z</time></trkpt><trkpt lat="42.9847364822646" lon="11.458297663974868"><ele>261.75</ele><time>2026-03-28T13:08:25.001Z</time></trkpt><trkpt lat="42.98461022012213" lon="11.458265854653428"><ele>258.5</ele><time>2026-03-28T13:08:26.001Z</time></trkpt><trkpt lat="42.98448323041165" lon="11.458233595827915"><ele>255.25</ele><time>2026-03-28T13:08:27.001Z</time></trkpt><trkpt lat="42.98436391036523" lon="11.458203540861001"><ele>252.0</ele><time>2026-03-28T13:08:28.001Z</time></trkpt><trkpt lat="42.98424933378516" lon="11.458176501843583"><ele>250.2</ele><time>2026-03-28T13:08:29.001Z</time></trkpt><trkpt lat="42.98413657778807" lon="11.458150210597681"><ele>248.39999999999998</ele><time>2026-03-28T13:08:30.001Z</time></trkpt><trkpt lat="42.98402614294643" lon="11.458126368515893"><ele>246.60000000000002</ele><time>2026-03-28T13:08:31.001Z</time></trkpt><trkpt lat="42.98391862978664" lon="11.458107624678407"><ele>244.8</ele><time>2026-03-28T13:08:32.001Z</time></trkpt><trkpt lat="42.98381274575552" lon="11.458081048474533"><ele>243.0</ele><time>2026-03-28T13:08:33.001Z</time></trkpt><trkpt lat="42.98370831596606" lon="11.45806177259769"><ele>243.0</ele><time>2026-03-28T13:08:34.001Z</time></trkpt><trkpt lat="42.98359796682368" lon="11.458026923217554"><ele>243.0</ele><time>2026-03-28T13:08:35.001Z</time></trkpt><trkpt lat="42.983467494095486" lon="11.457998045445052"><ele>243.0</ele><time>2026-03-28T13:08:36.001Z</time></trkpt><trkpt lat="42.98332445959089" lon="11.457969625106845"><ele>243.0</ele><time>2026-03-28T13:08:37.001Z</time></trkpt><trkpt lat="42.98319131312141" lon="11.457953350595275"><ele>239.0</ele><time>2026-03-28T13:08:38.001Z</time></trkpt><trkpt lat="42.983061072124485" lon="11.457931432493412"><ele>235.0</ele><time>2026-03-28T13:08:39.001Z</time></trkpt><trkpt lat="42.982935267964606" lon="11.457912770717321"><ele>231.0</ele><time>2026-03-28T13:08:40.001Z</time></trkpt><trkpt lat="42.98281742224394" lon="11.457890598297999"><ele>227.0</ele><time>2026-03-28T13:08:41.001Z</time></trkpt><trkpt lat="42.98270677153772" lon="11.45785949332195"><ele>227.0</ele><time>2026-03-28T13:08:42.001Z</time></trkpt><trkpt lat="42.98259976027888" lon="11.457816347497996"><ele>227.0</ele><time>2026-03-28T13:08:43.001Z</time></trkpt><trkpt lat="42.98248927126451" lon="11.457770399279545"><ele>227.0</ele><time>2026-03-28T13:08:44.001Z</time></trkpt><trkpt lat="42.982386196499895" lon="11.457725073979345"><ele>227.0</ele><time>2026-03-28T13:08:45.001Z</time></trkpt><trkpt lat="42.982287519531056" lon="11.45768815381251"><ele>227.0</ele><time>2026-03-28T13:08:46.001Z</time></trkpt><trkpt lat="42.98219310172977" lon="11.45763840494525"><ele>226.5</ele><time>2026-03-28T13:08:47.001Z</time></trkpt><trkpt lat="42.98210300250949" lon="11.457569341898475"><ele>226.0</ele><time>2026-03-28T13:08:48.001Z</time></trkpt><trkpt lat="42.98201461424513" lon="11.457476493258172"><ele>225.5</ele><time>2026-03-28T13:08:49.001Z</time></trkpt><trkpt lat="42.981918184694365" lon="11.45736055500055"><ele>225.0</ele><time>2026-03-28T13:08:50.001Z</time></trkpt><trkpt lat="42.98181878520922" lon="11.45723587004819"><ele>223.5</ele><time>2026-03-28T13:08:51.001Z</time></trkpt><trkpt lat="42.98172061857064" lon="11.457105994914526"><ele>222.0</ele><time>2026-03-28T13:08:52.001Z</time></trkpt><trkpt lat="42.98162275799179" lon="11.456972404447043"><ele>220.5</ele><time>2026-03-28T13:08:53.001Z</time></trkpt><trkpt lat="42.981529734022445" lon="11.456839620526926"><ele>219.0</ele><time>2026-03-28T13:08:54.001Z</time></trkpt><trkpt lat="42.98143951310289" lon="11.456721385795486"><ele>219.0</ele><time>2026-03-28T13:08:55Z</time></trkpt><trkpt lat="42.981343116847675" lon="11.456597660564546"><ele>219.0</ele><time>2026-03-28T13:08:56Z</time></trkpt><trkpt lat="42.981241711674855" lon="11.456473194300138"><ele>219.0</ele><time>2026-03-28T13:08:57Z</time></trkpt><trkpt lat="42.98114779305949" lon="11.456351283581098"><ele>219.0</ele><time>2026-03-28T13:08:58Z</time></trkpt><trkpt lat="42.98105879042039" lon="11.45624130754922"><ele>219.2</ele><time>2026-03-28T13:08:59Z</time></trkpt><trkpt lat="42.98097458019694" lon="11.456141876823748"><ele>219.39999999999998</ele><time>2026-03-28T13:09:00Z</time></trkpt><trkpt lat="42.9808944612222" lon="11.45604483911136"><ele>219.6</ele><time>2026-03-28T13:09:01Z</time></trkpt><trkpt lat="42.98082855130528" lon="11.455929124490492"><ele>219.8</ele><time>2026-03-28T13:09:02Z</time></trkpt><trkpt lat="42.98075673805999" lon="11.455807269446082"><ele>220.0</ele><time>2026-03-28T13:09:03Z</time></trkpt><trkpt lat="42.980669650434024" lon="11.45568569290199"><ele>220.0</ele><time>2026-03-28T13:09:04Z</time></trkpt><trkpt lat="42.980583152956584" lon="11.45552955488556"><ele>220.0</ele><time>2026-03-28T13:09:05Z</time></trkpt><trkpt lat="42.98048563680606" lon="11.455362524615058"><ele>220.0</ele><time>2026-03-28T13:09:06Z</time></trkpt><trkpt lat="42.980381599104646" lon="11.455180013948777"><ele>218.0</ele><time>2026-03-28T13:09:07Z</time></trkpt><trkpt lat="42.98029551292116" lon="11.45497723851688"><ele>216.0</ele><time>2026-03-28T13:09:08Z</time></trkpt><trkpt lat="42.98021199678738" lon="11.454787681583554"><ele>214.0</ele><time>2026-03-28T13:09:09Z</time></trkpt><trkpt lat="42.98013996721253" lon="11.454606450492411"><ele>215.0</ele><time>2026-03-28T13:09:10Z</time></trkpt><trkpt lat="42.9800656590488" lon="11.45442731995468"><ele>216.0</ele><time>2026-03-28T13:09:11Z</time></trkpt><trkpt lat="42.979971270059146" lon="11.454257829414916"><ele>217.0</ele><time>2026-03-28T13:09:12Z</time></trkpt><trkpt lat="42.97989309810965" lon="11.454060058304641"><ele>217.0</ele><time>2026-03-28T13:09:13Z</time></trkpt><trkpt lat="42.97980560333881" lon="11.453893147955096"><ele>217.0</ele><time>2026-03-28T13:09:14Z</time></trkpt><trkpt lat="42.97972231584541" lon="11.453736198209839"><ele>217.0</ele><time>2026-03-28T13:09:15Z</time></trkpt><trkpt lat="42.97962464984241" lon="11.453595596709388"><ele>217.0</ele><time>2026-03-28T13:09:16Z</time></trkpt><trkpt lat="42.979550805164145" lon="11.45345137280225"><ele>216.75</ele><time>2026-03-28T13:09:17Z</time></trkpt><trkpt lat="42.979482178703215" lon="11.453320857123705"><ele>216.5</ele><time>2026-03-28T13:09:18Z</time></trkpt><trkpt lat="42.979406515940674" lon="11.453192365199126"><ele>216.25</ele><time>2026-03-28T13:09:19Z</time></trkpt><trkpt lat="42.97931800295211" lon="11.453081147297523"><ele>216.0</ele><time>2026-03-28T13:09:20Z</time></trkpt><trkpt lat="42.9792213143618" lon="11.452981728509068"><ele>217.0</ele><time>2026-03-28T13:09:21Z</time></trkpt><trkpt lat="42.97911858901404" lon="11.452876077637612"><ele>218.0</ele><time>2026-03-28T13:09:22Z</time></trkpt><trkpt lat="42.97901676018031" lon="11.452763079890044"><ele>219.0</ele><time>2026-03-28T13:09:23Z</time></trkpt><trkpt lat="42.978900116807715" lon="11.452662052593826"><ele>220.0</ele><time>2026-03-28T13:09:24Z</time></trkpt><trkpt lat="42.97878126519881" lon="11.45256654115524"><ele>220.0</ele><time>2026-03-28T13:09:25Z</time></trkpt><trkpt lat="42.97866195440132" lon="11.45248225033466"><ele>220.0</ele><time>2026-03-28T13:09:26Z</time></trkpt><trkpt lat="42.978544383376054" lon="11.452399229749663"><ele>220.0</ele><time>2026-03-28T13:09:27Z</time></trkpt><trkpt lat="42.97841519124733" lon="11.452332968853042"><ele>220.0</ele><time>2026-03-28T13:09:28Z</time></trkpt><trkpt lat="42.97827928437237" lon="11.452257513943653"><ele>219.33333333333331</ele><time>2026-03-28T13:09:29Z</time></trkpt><trkpt lat="42.97813734296026" lon="11.45217792441217"><ele>218.66666666666669</ele><time>2026-03-28T13:09:30Z</time></trkpt><trkpt lat="42.97800015421326" lon="11.452102977936063"><ele>218.0</ele><time>2026-03-28T13:09:31Z</time></trkpt><trkpt lat="42.97786397150468" lon="11.452021939959893"><ele>218.0</ele><time>2026-03-28T13:09:32Z</time></trkpt><trkpt lat="42.97771959389012" lon="11.451928515757336"><ele>218.0</ele><time>2026-03-28T13:09:33Z</time></trkpt><trkpt lat="42.97756962575304" lon="11.451839087977435"><ele>218.0</ele><time>2026-03-28T13:09:34Z</time></trkpt><trkpt lat="42.97740770098436" lon="11.451743275434536"><ele>217.33333333333334</ele><time>2026-03-28T13:09:35Z</time></trkpt><trkpt lat="42.977242158447886" lon="11.451644300273234"><ele>216.66666666666669</ele><time>2026-03-28T13:09:36Z</time></trkpt><trkpt lat="42.97709286640076" lon="11.451556112285733"><ele>216.0</ele><time>2026-03-28T13:09:37Z</time></trkpt><trkpt lat="42.97695300941516" lon="11.45147795915255"><ele>216.0</ele><time>2026-03-28T13:09:38Z</time></trkpt><trkpt lat="42.97681148452829" lon="11.451404154248175"><ele>216.0</ele><time>2026-03-28T13:09:39Z</time></trkpt><trkpt lat="42.97666965239675" lon="11.451309007205916"><ele>216.0</ele><time>2026-03-28T13:09:40Z</time></trkpt><trkpt lat="42.97651182365862" lon="11.451231717584987"><ele>214.66666666666669</ele><time>2026-03-28T13:09:41Z</time></trkpt><trkpt lat="42.97634554273596" lon="11.451176315417365"><ele>213.33333333333334</ele><time>2026-03-28T13:09:42Z</time></trkpt><trkpt lat="42.97619752432351" lon="11.45110831839866"><ele>212.0</ele><time>2026-03-28T13:09:43Z</time></trkpt><trkpt lat="42.97604227458584" lon="11.45104064165034"><ele>212.0</ele><time>2026-03-28T13:09:44Z</time></trkpt><trkpt lat="42.97588794025853" lon="11.450951025233058"><ele>212.0</ele><time>2026-03-28T13:09:45Z</time></trkpt><trkpt lat="42.97572489525038" lon="11.450880976902717"><ele>212.0</ele><time>2026-03-28T13:09:46Z</time></trkpt><trkpt lat="42.975573669769624" lon="11.45084004915514"><ele>211.25</ele><time>2026-03-28T13:09:47Z</time></trkpt><trkpt lat="42.975440544058785" lon="11.450765925865298"><ele>210.5</ele><time>2026-03-28T13:09:48Z</time></trkpt><trkpt lat="42.97531078932577" lon="11.450739684812461"><ele>209.75</ele><time>2026-03-28T13:09:49Z</time></trkpt><trkpt lat="42.97519213119991" lon="11.450697315030839"><ele>209.0</ele><time>2026-03-28T13:09:50Z</time></trkpt><trkpt lat="42.97509110962664" lon="11.450638365609382"><ele>208.83333333333334</ele><time>2026-03-28T13:09:51Z</time></trkpt><trkpt lat="42.97499533842645" lon="11.45060760990499"><ele>208.66666666666669</ele><time>2026-03-28T13:09:52Z</time></trkpt><trkpt lat="42.97490224566308" lon="11.450603971831084"><ele>208.5</ele><time>2026-03-28T13:09:53Z</time></trkpt><trkpt lat="42.97482019383239" lon="11.450586415839616"><ele>208.33333333333331</ele><time>2026-03-28T13:09:54Z</time></trkpt><trkpt lat="42.974742622405174" lon="11.450577372620875"><ele>208.16666666666666</ele><time>2026-03-28T13:09:55Z</time></trkpt><trkpt lat="42.97466960915756" lon="11.450573372458827"><ele>208.0</ele><time>2026-03-28T13:09:56Z</time></trkpt><trkpt lat="42.97460079633397" lon="11.450574052953424"><ele>208.0</ele><time>2026-03-28T13:09:57Z</time></trkpt><trkpt lat="42.974537274863984" lon="11.450574755266105"><ele>208.0</ele><time>2026-03-28T13:09:58Z</time></trkpt><trkpt lat="42.974467656489004" lon="11.450572381496944"><ele>208.0</ele><time>2026-03-28T13:09:59Z</time></trkpt><trkpt lat="42.97439802723985" lon="11.450566477064639"><ele>208.0</ele><time>2026-03-28T13:10:00Z</time></trkpt><trkpt lat="42.974332131983225" lon="11.450534269720482"><ele>208.0</ele><time>2026-03-28T13:10:01Z</time></trkpt><trkpt lat="42.97426972395068" lon="11.450487820423392"><ele>208.0</ele><time>2026-03-28T13:10:02Z</time></trkpt><trkpt lat="42.974216290850244" lon="11.450436617898655"><ele>208.0</ele><time>2026-03-28T13:10:03Z</time></trkpt><trkpt lat="42.97411359597722" lon="11.450360113830495"><ele>206.83333333333331</ele><time>2026-03-28T13:10:05Z</time></trkpt><trkpt lat="42.973989814149604" lon="11.450366507501789"><ele>205.66666666666666</ele><time>2026-03-28T13:10:07Z</time></trkpt><trkpt lat="42.9739283481233" lon="11.450400297574744"><ele>204.5</ele><time>2026-03-28T13:10:08Z</time></trkpt><trkpt lat="42.97386602720547" lon="11.450451516856283"><ele>203.33333333333331</ele><time>2026-03-28T13:10:09Z</time></trkpt><trkpt lat="42.97380231444518" lon="11.450519302726248"><ele>202.16666666666666</ele><time>2026-03-28T13:10:10Z</time></trkpt><trkpt lat="42.973743052786304" lon="11.450590423183682"><ele>201.0</ele><time>2026-03-28T13:10:11.001Z</time></trkpt><trkpt lat="42.97369043798452" lon="11.450667756684672"><ele>201.0</ele><time>2026-03-28T13:10:12.001Z</time></trkpt><trkpt lat="42.973642466127195" lon="11.450760273833431"><ele>201.0</ele><time>2026-03-28T13:10:13.001Z</time></trkpt><trkpt lat="42.973608076313155" lon="11.450850187507394"><ele>201.0</ele><time>2026-03-28T13:10:14.001Z</time></trkpt><trkpt lat="42.973579881170686" lon="11.450943040452808"><ele>201.0</ele><time>2026-03-28T13:10:15.001Z</time></trkpt><trkpt lat="42.97355133064008" lon="11.45104113762935"><ele>201.0</ele><time>2026-03-28T13:10:16.001Z</time></trkpt><trkpt lat="42.97352312624315" lon="11.451135826696154"><ele>201.0</ele><time>2026-03-28T13:10:17.001Z</time></trkpt><trkpt lat="42.973490189331734" lon="11.451221924868236"><ele>200.7142857142857</ele><time>2026-03-28T13:10:18.001Z</time></trkpt><trkpt lat="42.973441567875945" lon="11.451294899999716"><ele>200.42857142857144</ele><time>2026-03-28T13:10:19.001Z</time></trkpt><trkpt lat="42.97338019674311" lon="11.451342620787692"><ele>200.14285714285714</ele><time>2026-03-28T13:10:20.001Z</time></trkpt><trkpt lat="42.97331346027043" lon="11.451354660006295"><ele>199.85714285714283</ele><time>2026-03-28T13:10:21.001Z</time></trkpt><trkpt lat="42.973243368026495" lon="11.45134122053444"><ele>199.57142857142856</ele><time>2026-03-28T13:10:22.001Z</time></trkpt><trkpt lat="42.973180587292326" lon="11.451297644339343"><ele>199.28571428571428</ele><time>2026-03-28T13:10:23.001Z</time></trkpt><trkpt lat="42.97314338980875" lon="11.451214064633623"><ele>199.0</ele><time>2026-03-28T13:10:24.001Z</time></trkpt><trkpt lat="42.97312211244987" lon="11.451128839945099"><ele>197.16666666666666</ele><time>2026-03-28T13:10:25.001Z</time></trkpt><trkpt lat="42.97311371463828" lon="11.45103580557792"><ele>195.33333333333331</ele><time>2026-03-28T13:10:26.001Z</time></trkpt><trkpt lat="42.97310935156873" lon="11.450940417928066"><ele>193.5</ele><time>2026-03-28T13:10:27.001Z</time></trkpt><trkpt lat="42.973106034242136" lon="11.450828954272014"><ele>191.66666666666666</ele><time>2026-03-28T13:10:28.001Z</time></trkpt><trkpt lat="42.97310723515043" lon="11.450707180143922"><ele>189.83333333333331</ele><time>2026-03-28T13:10:29.001Z</time></trkpt><trkpt lat="42.97309293554078" lon="11.450597876210123"><ele>188.0</ele><time>2026-03-28T13:10:30.001Z</time></trkpt><trkpt lat="42.973097414594" lon="11.450496923481607"><ele>187.33333333333331</ele><time>2026-03-28T13:10:31.001Z</time></trkpt><trkpt lat="42.9730956174996" lon="11.450404856545708"><ele>186.66666666666666</ele><time>2026-03-28T13:10:32.001Z</time></trkpt><trkpt lat="42.97305294696835" lon="11.450245656519728"><ele>186.0</ele><time>2026-03-28T13:10:34.001Z</time></trkpt><trkpt lat="42.972989180911476" lon="11.450185776009146"><ele>185.33333333333334</ele><time>2026-03-28T13:10:35.001Z</time></trkpt><trkpt lat="42.97290499885906" lon="11.450164691174358"><ele>184.66666666666669</ele><time>2026-03-28T13:10:36.001Z</time></trkpt><trkpt lat="42.97281886799147" lon="11.450181874994364"><ele>184.0</ele><time>2026-03-28T13:10:37.001Z</time></trkpt><trkpt lat="42.97271577652762" lon="11.450185060127314"><ele>184.0</ele><time>2026-03-28T13:10:38.001Z</time></trkpt><trkpt lat="42.972592236739025" lon="11.450178812794983"><ele>184.0</ele><time>2026-03-28T13:10:39.001Z</time></trkpt><trkpt lat="42.972474957387995" lon="11.450148653576031"><ele>184.0</ele><time>2026-03-28T13:10:40.001Z</time></trkpt><trkpt lat="42.97235926413426" lon="11.45009559972153"><ele>184.0</ele><time>2026-03-28T13:10:41.001Z</time></trkpt><trkpt lat="42.97224025128829" lon="11.44998673223414"><ele>181.25</ele><time>2026-03-28T13:10:42.001Z</time></trkpt><trkpt lat="42.97210536600737" lon="11.449888585076957"><ele>178.5</ele><time>2026-03-28T13:10:43.001Z</time></trkpt><trkpt lat="42.97197597274952" lon="11.449793653651774"><ele>175.75</ele><time>2026-03-28T13:10:44.001Z</time></trkpt><trkpt lat="42.97185264313902" lon="11.449704450981573"><ele>173.0</ele><time>2026-03-28T13:10:45.001Z</time></trkpt><trkpt lat="42.971719946233115" lon="11.449615684181483"><ele>171.25</ele><time>2026-03-28T13:10:46.001Z</time></trkpt><trkpt lat="42.971585639005006" lon="11.449550803522584"><ele>169.5</ele><time>2026-03-28T13:10:47.001Z</time></trkpt><trkpt lat="42.971469405239674" lon="11.449453117987371"><ele>167.75</ele><time>2026-03-28T13:10:48.001Z</time></trkpt><trkpt lat="42.97135143050952" lon="11.449376761041584"><ele>166.0</ele><time>2026-03-28T13:10:49.001Z</time></trkpt><trkpt lat="42.97123951309312" lon="11.449302728293828"><ele>166.0</ele><time>2026-03-28T13:10:50.001Z</time></trkpt><trkpt lat="42.97112444318432" lon="11.44924258805376"><ele>166.0</ele><time>2026-03-28T13:10:51.001Z</time></trkpt><trkpt lat="42.9710233798376" lon="11.449128336153963"><ele>166.0</ele><time>2026-03-28T13:10:52.001Z</time></trkpt><trkpt lat="42.970918902741516" lon="11.449027835756974"><ele>166.0</ele><time>2026-03-28T13:10:53.001Z</time></trkpt><trkpt lat="42.970808690360386" lon="11.448948325555335"><ele>164.5</ele><time>2026-03-28T13:10:54.001Z</time></trkpt><trkpt lat="42.97071203765594" lon="11.448850600760448"><ele>163.0</ele><time>2026-03-28T13:10:55.001Z</time></trkpt><trkpt lat="42.97061508142099" lon="11.448764251034017"><ele>161.5</ele><time>2026-03-28T13:10:56.001Z</time></trkpt><trkpt lat="42.970524454374576" lon="11.448670314999825"><ele>160.0</ele><time>2026-03-28T13:10:57.001Z</time></trkpt><trkpt lat="42.97044030296336" lon="11.44857061447899"><ele>160.0</ele><time>2026-03-28T13:10:58.001Z</time></trkpt><trkpt lat="42.970340876529434" lon="11.448511039835635"><ele>160.0</ele><time>2026-03-28T13:10:59.001Z</time></trkpt><trkpt lat="42.97024844966901" lon="11.448438193124463"><ele>160.0</ele><time>2026-03-28T13:11:00.001Z</time></trkpt><trkpt lat="42.970155089784114" lon="11.448367073323777"><ele>160.0</ele><time>2026-03-28T13:11:01Z</time></trkpt><trkpt lat="42.97005704084764" lon="11.448297198163484"><ele>160.0</ele><time>2026-03-28T13:11:02Z</time></trkpt><trkpt lat="42.96997128840642" lon="11.448197628905007"><ele>158.5</ele><time>2026-03-28T13:11:03Z</time></trkpt><trkpt lat="42.96987032146511" lon="11.448097942606685"><ele>157.0</ele><time>2026-03-28T13:11:04Z</time></trkpt><trkpt lat="42.96977613957158" lon="11.447994672579306"><ele>155.5</ele><time>2026-03-28T13:11:05Z</time></trkpt><trkpt lat="42.96969089455497" lon="11.447890080182415"><ele>154.0</ele><time>2026-03-28T13:11:06Z</time></trkpt><trkpt lat="42.96961768718483" lon="11.447783261853173"><ele>153.4</ele><time>2026-03-28T13:11:07Z</time></trkpt><trkpt lat="42.96955667347974" lon="11.447669557785861"><ele>152.8</ele><time>2026-03-28T13:11:08Z</time></trkpt><trkpt lat="42.96954208855269" lon="11.44754942400902"><ele>152.2</ele><time>2026-03-28T13:11:09Z</time></trkpt><trkpt lat="42.96953617859119" lon="11.447423166737929"><ele>151.6</ele><time>2026-03-28T13:11:10Z</time></trkpt><trkpt lat="42.96953077671395" lon="11.447292399350909"><ele>151.0</ele><time>2026-03-28T13:11:11Z</time></trkpt><trkpt lat="42.96952451651445" lon="11.447166516262005"><ele>148.66666666666669</ele><time>2026-03-28T13:11:12Z</time></trkpt><trkpt lat="42.969500193185844" lon="11.44707133759985"><ele>146.33333333333334</ele><time>2026-03-28T13:11:13Z</time></trkpt><trkpt lat="42.96949428377282" lon="11.446982295269622"><ele>144.0</ele><time>2026-03-28T13:11:14Z</time></trkpt><trkpt lat="42.9694543084136" lon="11.446898648528629"><ele>141.66666666666666</ele><time>2026-03-28T13:11:15Z</time></trkpt><trkpt lat="42.96939689350925" lon="11.446834842259813"><ele>139.33333333333331</ele><time>2026-03-28T13:11:16Z</time></trkpt><trkpt lat="42.969324746081924" lon="11.446779650759614"><ele>137.0</ele><time>2026-03-28T13:11:17Z</time></trkpt><trkpt lat="42.9692361250652" lon="11.446729818169521"><ele>138.0</ele><time>2026-03-28T13:11:18Z</time></trkpt><trkpt lat="42.96913583497358" lon="11.44666913801598"><ele>139.0</ele><time>2026-03-28T13:11:19Z</time></trkpt><trkpt lat="42.96904313395968" lon="11.446609113297404"><ele>140.0</ele><time>2026-03-28T13:11:20Z</time></trkpt><trkpt lat="42.96896003981528" lon="11.446543130023827"><ele>141.0</ele><time>2026-03-28T13:11:21Z</time></trkpt><trkpt lat="42.96890139534772" lon="11.446458858024453"><ele>142.0</ele><time>2026-03-28T13:11:22Z</time></trkpt><trkpt lat="42.96886050201565" lon="11.446360158748668"><ele>139.79999999999998</ele><time>2026-03-28T13:11:23Z</time></trkpt><trkpt lat="42.96883164830264" lon="11.446240527135046"><ele>137.6</ele><time>2026-03-28T13:11:24Z</time></trkpt><trkpt lat="42.968812164303294" lon="11.446102092885479"><ele>135.39999999999998</ele><time>2026-03-28T13:11:25Z</time></trkpt><trkpt lat="42.96876231636973" lon="11.445966125857247"><ele>133.2</ele><time>2026-03-28T13:11:26Z</time></trkpt><trkpt lat="42.96872642498653" lon="11.445853877588556"><ele>131.0</ele><time>2026-03-28T13:11:27Z</time></trkpt><trkpt lat="42.96867988564691" lon="11.445759913025265"><ele>131.0</ele><time>2026-03-28T13:11:28Z</time></trkpt><trkpt lat="42.96864491068044" lon="11.445673240921485"><ele>131.0</ele><time>2026-03-28T13:11:29Z</time></trkpt><trkpt lat="42.96860707892595" lon="11.445600962030717"><ele>131.0</ele><time>2026-03-28T13:11:30Z</time></trkpt><trkpt lat="42.968514752816844" lon="11.445510800209274"><ele>131.0</ele><time>2026-03-28T13:11:32Z</time></trkpt><trkpt lat="42.96845091118943" lon="11.445500295330046"><ele>131.0</ele><time>2026-03-28T13:11:33Z</time></trkpt><trkpt lat="42.96836827496964" lon="11.445509136577536"><ele>131.0</ele><time>2026-03-28T13:11:34Z</time></trkpt><trkpt lat="42.96827885281944" lon="11.44552887222855"><ele>130.0</ele><time>2026-03-28T13:11:35Z</time></trkpt><trkpt lat="42.968201491242084" lon="11.445534596015893"><ele>129.0</ele><time>2026-03-28T13:11:36Z</time></trkpt><trkpt lat="42.968125148821365" lon="11.445525291420925"><ele>128.0</ele><time>2026-03-28T13:11:37Z</time></trkpt><trkpt lat="42.96805287474807" lon="11.445467129625595"><ele>127.0</ele><time>2026-03-28T13:11:38Z</time></trkpt><trkpt lat="42.96799462112415" lon="11.445408031471333"><ele>125.99999999999999</ele><time>2026-03-28T13:11:39Z</time></trkpt><trkpt lat="42.967943042653815" lon="11.445330920630388"><ele>125.0</ele><time>2026-03-28T13:11:40Z</time></trkpt><trkpt lat="42.96791688918413" lon="11.445235666316808"><ele>124.99999999999999</ele><time>2026-03-28T13:11:41Z</time></trkpt><trkpt lat="42.96789537329573" lon="11.445145763910084"><ele>125.0</ele><time>2026-03-28T13:11:42Z</time></trkpt><trkpt lat="42.967861253507714" lon="11.445049386671432"><ele>125.0</ele><time>2026-03-28T13:11:43Z</time></trkpt><trkpt lat="42.9678065703406" lon="11.444986044343308"><ele>125.0</ele><time>2026-03-28T13:11:44Z</time></trkpt><trkpt lat="42.96769374757948" lon="11.44494189037115"><ele>124.99999999999999</ele><time>2026-03-28T13:11:46Z</time></trkpt><trkpt lat="42.967621478323764" lon="11.444942778514239"><ele>125.0</ele><time>2026-03-28T13:11:47Z</time></trkpt><trkpt lat="42.967544086395094" lon="11.444967155275707"><ele>125.0</ele><time>2026-03-28T13:11:48Z</time></trkpt><trkpt lat="42.96744875074531" lon="11.444996098320257"><ele>125.0</ele><time>2026-03-28T13:11:49Z</time></trkpt><trkpt lat="42.96734910023665" lon="11.4450114629745"><ele>125.0</ele><time>2026-03-28T13:11:50Z</time></trkpt><trkpt lat="42.96725489931223" lon="11.44501381869464"><ele>125.0</ele><time>2026-03-28T13:11:51Z</time></trkpt><trkpt lat="42.96716585213118" lon="11.445003253040799"><ele>125.0</ele><time>2026-03-28T13:11:52Z</time></trkpt><trkpt lat="42.967091417793" lon="11.444973063486835"><ele>125.0</ele><time>2026-03-28T13:11:53Z</time></trkpt><trkpt lat="42.9670499708408" lon="11.444906936608824"><ele>125.0</ele><time>2026-03-28T13:11:54Z</time></trkpt><trkpt lat="42.966977237057485" lon="11.444805756644904"><ele>125.0</ele><time>2026-03-28T13:11:56Z</time></trkpt><trkpt lat="42.9668471253751" lon="11.445008411751157"><ele>125.0</ele><time>2026-03-28T13:12:03.001Z</time></trkpt><trkpt lat="42.966834649201395" lon="11.445131862848639"><ele>125.0</ele><time>2026-03-28T13:12:04.001Z</time></trkpt><trkpt lat="42.96681596968259" lon="11.445250065409292"><ele>125.0</ele><time>2026-03-28T13:12:05.001Z</time></trkpt><trkpt lat="42.9667866085253" lon="11.445372315257968"><ele>125.0</ele><time>2026-03-28T13:12:06.001Z</time></trkpt><trkpt lat="42.96674878122499" lon="11.445505921518693"><ele>125.0</ele><time>2026-03-28T13:12:07.001Z</time></trkpt><trkpt lat="42.96672156829335" lon="11.445626313561577"><ele>125.0</ele><time>2026-03-28T13:12:08.001Z</time></trkpt><trkpt lat="42.9666921762317" lon="11.44574675824785"><ele>124.4</ele><time>2026-03-28T13:12:09.001Z</time></trkpt><trkpt lat="42.96666620725695" lon="11.445870734455653"><ele>123.8</ele><time>2026-03-28T13:12:10.001Z</time></trkpt><trkpt lat="42.96664891040141" lon="11.44599945209334"><ele>123.19999999999999</ele><time>2026-03-28T13:12:11.001Z</time></trkpt><trkpt lat="42.96662606978687" lon="11.446138802429704"><ele>122.6</ele><time>2026-03-28T13:12:12.001Z</time></trkpt><trkpt lat="42.96661296430777" lon="11.446296953700198"><ele>122.0</ele><time>2026-03-28T13:12:13.001Z</time></trkpt><trkpt lat="42.96660306957973" lon="11.446459632667985"><ele>122.0</ele><time>2026-03-28T13:12:14.001Z</time></trkpt><trkpt lat="42.96660532885634" lon="11.446602519224703"><ele>122.0</ele><time>2026-03-28T13:12:15.001Z</time></trkpt><trkpt lat="42.966604601613824" lon="11.446761491218604"><ele>122.0</ele><time>2026-03-28T13:12:16.001Z</time></trkpt><trkpt lat="42.96661129007592" lon="11.446928113954998"><ele>122.0</ele><time>2026-03-28T13:12:17.001Z</time></trkpt><trkpt lat="42.966619612839544" lon="11.447093374755553"><ele>121.5</ele><time>2026-03-28T13:12:18.001Z</time></trkpt><trkpt lat="42.96663506679009" lon="11.447252759677337"><ele>121.0</ele><time>2026-03-28T13:12:19.001Z</time></trkpt><trkpt lat="42.9666537502905" lon="11.447418004005176"><ele>120.5</ele><time>2026-03-28T13:12:20.001Z</time></trkpt><trkpt lat="42.966680486773726" lon="11.447587183329365"><ele>120.0</ele><time>2026-03-28T13:12:21.001Z</time></trkpt><trkpt lat="42.96670733199596" lon="11.44776535390479"><ele>122.75</ele><time>2026-03-28T13:12:22.001Z</time></trkpt><trkpt lat="42.96673580083611" lon="11.447948393746174"><ele>125.5</ele><time>2026-03-28T13:12:23.001Z</time></trkpt><trkpt lat="42.96675775066191" lon="11.44810787957769"><ele>128.25</ele><time>2026-03-28T13:12:24.001Z</time></trkpt><trkpt lat="42.966774492631295" lon="11.4482688698292"><ele>131.0</ele><time>2026-03-28T13:12:25.001Z</time></trkpt><trkpt lat="42.96679333231785" lon="11.44842677417176"><ele>131.0</ele><time>2026-03-28T13:12:26.001Z</time></trkpt><trkpt lat="42.96681701138059" lon="11.448569960708236"><ele>131.0</ele><time>2026-03-28T13:12:27.001Z</time></trkpt><trkpt lat="42.96684379546903" lon="11.448720491557388"><ele>131.0</ele><time>2026-03-28T13:12:28.001Z</time></trkpt><trkpt lat="42.96686915191136" lon="11.448874994364076"><ele>131.0</ele><time>2026-03-28T13:12:29.001Z</time></trkpt><trkpt lat="42.966885522447086" lon="11.449020684997349"><ele>131.0</ele><time>2026-03-28T13:12:30.001Z</time></trkpt><trkpt lat="42.966883630580114" lon="11.449160597406895"><ele>131.75</ele><time>2026-03-28T13:12:31.001Z</time></trkpt><trkpt lat="42.96686540144994" lon="11.449300641142337"><ele>132.5</ele><time>2026-03-28T13:12:32.001Z</time></trkpt><trkpt lat="42.96682692437291" lon="11.449447141461484"><ele>133.25</ele><time>2026-03-28T13:12:33.001Z</time></trkpt><trkpt lat="42.966761859978725" lon="11.44958268048589"><ele>134.0</ele><time>2026-03-28T13:12:34.001Z</time></trkpt><trkpt lat="42.96671352497525" lon="11.449745759778354"><ele>131.0</ele><time>2026-03-28T13:12:35.001Z</time></trkpt><trkpt lat="42.96665040343724" lon="11.449888274025799"><ele>128.0</ele><time>2026-03-28T13:12:36.001Z</time></trkpt><trkpt lat="42.96659085045702" lon="11.45001289806061"><ele>125.0</ele><time>2026-03-28T13:12:37.001Z</time></trkpt><trkpt lat="42.96653795361691" lon="11.450133003952454"><ele>122.0</ele><time>2026-03-28T13:12:38.001Z</time></trkpt><trkpt lat="42.96648155745531" lon="11.450251561883459"><ele>119.0</ele><time>2026-03-28T13:12:39.001Z</time></trkpt><trkpt lat="42.96642186406426" lon="11.450363245801666"><ele>119.0</ele><time>2026-03-28T13:12:40.001Z</time></trkpt><trkpt lat="42.966334643042224" lon="11.450445693598425"><ele>119.0</ele><time>2026-03-28T13:12:41.001Z</time></trkpt><trkpt lat="42.966261497784686" lon="11.45055780029558"><ele>119.0</ele><time>2026-03-28T13:12:42.001Z</time></trkpt><trkpt lat="42.96618127056235" lon="11.450654225406298"><ele>119.0</ele><time>2026-03-28T13:12:43.001Z</time></trkpt><trkpt lat="42.966106329266346" lon="11.450744429252456"><ele>119.0</ele><time>2026-03-28T13:12:44.001Z</time></trkpt><trkpt lat="42.96601970384405" lon="11.450819145333817"><ele>118.6</ele><time>2026-03-28T13:12:45.001Z</time></trkpt><trkpt lat="42.96595177085221" lon="11.450923185741036"><ele>118.2</ele><time>2026-03-28T13:12:46.001Z</time></trkpt><trkpt lat="42.96586467406231" lon="11.451012634733134"><ele>117.79999999999998</ele><time>2026-03-28T13:12:47.001Z</time></trkpt><trkpt lat="42.96578310923914" lon="11.451114594240929"><ele>117.39999999999999</ele><time>2026-03-28T13:12:48.001Z</time></trkpt><trkpt lat="42.96570482125192" lon="11.451227874669302"><ele>117.0</ele><time>2026-03-28T13:12:49.001Z</time></trkpt><trkpt lat="42.96562135188344" lon="11.451351140145102"><ele>119.0</ele><time>2026-03-28T13:12:50.001Z</time></trkpt><trkpt lat="42.9655336720935" lon="11.451479793508295"><ele>121.0</ele><time>2026-03-28T13:12:51.001Z</time></trkpt><trkpt lat="42.965448393170604" lon="11.45160611077782"><ele>123.0</ele><time>2026-03-28T13:12:52.001Z</time></trkpt><trkpt lat="42.96536136532524" lon="11.451730936721159"><ele>125.0</ele><time>2026-03-28T13:12:53.001Z</time></trkpt><trkpt lat="42.96526857357173" lon="11.451855992169525"><ele>125.0</ele><time>2026-03-28T13:12:54.001Z</time></trkpt><trkpt lat="42.96518905038009" lon="11.45198175460423"><ele>125.0</ele><time>2026-03-28T13:12:55.001Z</time></trkpt><trkpt lat="42.965118561598025" lon="11.452092007693354"><ele>125.0</ele><time>2026-03-28T13:12:56.001Z</time></trkpt><trkpt lat="42.965046184594854" lon="11.452192582741112"><ele>125.0</ele><time>2026-03-28T13:12:57.001Z</time></trkpt><trkpt lat="42.96497524713698" lon="11.452295924343058"><ele>125.0</ele><time>2026-03-28T13:12:58.001Z</time></trkpt><trkpt lat="42.964920269293216" lon="11.4523863104155"><ele>123.66666666666666</ele><time>2026-03-28T13:12:59.001Z</time></trkpt><trkpt lat="42.96487802220667" lon="11.452467995067845"><ele>122.33333333333333</ele><time>2026-03-28T13:13:00.001Z</time></trkpt><trkpt lat="42.96484351328808" lon="11.452562267947611"><ele>121.0</ele><time>2026-03-28T13:13:01.001Z</time></trkpt><trkpt lat="42.96481986281715" lon="11.45267038620653"><ele>119.66666666666666</ele><time>2026-03-28T13:13:02.001Z</time></trkpt><trkpt lat="42.96480343634893" lon="11.452797250120573"><ele>118.33333333333333</ele><time>2026-03-28T13:13:03.001Z</time></trkpt><trkpt lat="42.96479375991865" lon="11.452935968547372"><ele>117.0</ele><time>2026-03-28T13:13:04.001Z</time></trkpt><trkpt lat="42.96478571470171" lon="11.453097562210464"><ele>117.0</ele><time>2026-03-28T13:13:05.001Z</time></trkpt><trkpt lat="42.96477571782023" lon="11.453286835185532"><ele>117.0</ele><time>2026-03-28T13:13:06.001Z</time></trkpt><trkpt lat="42.96476589909003" lon="11.453507015148283"><ele>117.0</ele><time>2026-03-28T13:13:07Z</time></trkpt><trkpt lat="42.96475735082247" lon="11.453750049639385"><ele>117.5</ele><time>2026-03-28T13:13:08Z</time></trkpt><trkpt lat="42.96474812507016" lon="11.453976824630615"><ele>118.0</ele><time>2026-03-28T13:13:09Z</time></trkpt><trkpt lat="42.964743200498994" lon="11.454159951296816"><ele>118.5</ele><time>2026-03-28T13:13:10Z</time></trkpt><trkpt lat="42.96473233466108" lon="11.454330059613296"><ele>119.0</ele><time>2026-03-28T13:13:11Z</time></trkpt><trkpt lat="42.96472315682662" lon="11.454499138657527"><ele>119.25</ele><time>2026-03-28T13:13:12Z</time></trkpt><trkpt lat="42.964721520428746" lon="11.454662962435673"><ele>119.5</ele><time>2026-03-28T13:13:13Z</time></trkpt><trkpt lat="42.96473616523397" lon="11.454821363881521"><ele>119.75</ele><time>2026-03-28T13:13:14Z</time></trkpt><trkpt lat="42.964764794802946" lon="11.454994635179675"><ele>120.0</ele><time>2026-03-28T13:13:15Z</time></trkpt><trkpt lat="42.96480606842169" lon="11.45517048406251"><ele>120.0</ele><time>2026-03-28T13:13:16Z</time></trkpt><trkpt lat="42.964842010245434" lon="11.455324681950186"><ele>120.0</ele><time>2026-03-28T13:13:17Z</time></trkpt><trkpt lat="42.96487128599728" lon="11.455461525389737"><ele>120.0</ele><time>2026-03-28T13:13:18Z</time></trkpt><trkpt lat="42.964893361895854" lon="11.455594168053342"><ele>120.0</ele><time>2026-03-28T13:13:19Z</time></trkpt><trkpt lat="42.96488708152663" lon="11.455713636025305"><ele>120.0</ele><time>2026-03-28T13:13:20Z</time></trkpt><trkpt lat="42.96482875265311" lon="11.455812418995317"><ele>120.25</ele><time>2026-03-28T13:13:21Z</time></trkpt><trkpt lat="42.96477501806222" lon="11.45594451452636"><ele>120.5</ele><time>2026-03-28T13:13:22Z</time></trkpt><trkpt lat="42.96474028892563" lon="11.456093571324754"><ele>120.75</ele><time>2026-03-28T13:13:23Z</time></trkpt><trkpt lat="42.96470320199521" lon="11.456252492014055"><ele>121.0</ele><time>2026-03-28T13:13:24Z</time></trkpt><trkpt lat="42.96468538930102" lon="11.456432024325514"><ele>121.5</ele><time>2026-03-28T13:13:25Z</time></trkpt><trkpt lat="42.964689999263776" lon="11.456609680901295"><ele>122.0</ele><time>2026-03-28T13:13:26Z</time></trkpt><trkpt lat="42.96469803505835" lon="11.45676962044859"><ele>122.5</ele><time>2026-03-28T13:13:27Z</time></trkpt><trkpt lat="42.964698715523475" lon="11.456926638928158"><ele>123.0</ele><time>2026-03-28T13:13:28Z</time></trkpt><trkpt lat="42.96469711837795" lon="11.45708499309584"><ele>123.5</ele><time>2026-03-28T13:13:29Z</time></trkpt><trkpt lat="42.96470155574724" lon="11.457246190765709"><ele>124.0</ele><time>2026-03-28T13:13:30Z</time></trkpt><trkpt lat="42.96470714210125" lon="11.457403175433301"><ele>124.5</ele><time>2026-03-28T13:13:31Z</time></trkpt><trkpt lat="42.9647134022905" lon="11.457564515778191"><ele>125.0</ele><time>2026-03-28T13:13:32Z</time></trkpt><trkpt lat="42.964718413860346" lon="11.457729921788896"><ele>125.0</ele><time>2026-03-28T13:13:33Z</time></trkpt><trkpt lat="42.964722941866405" lon="11.4578976079936"><ele>125.0</ele><time>2026-03-28T13:13:34Z</time></trkpt><trkpt lat="42.964728670758326" lon="11.458066919288532"><ele>125.0</ele><time>2026-03-28T13:13:35Z</time></trkpt><trkpt lat="42.96473299091582" lon="11.45823531019182"><ele>125.0</ele><time>2026-03-28T13:13:36Z</time></trkpt><trkpt lat="42.96473497113968" lon="11.458405764520043"><ele>125.0</ele><time>2026-03-28T13:13:37Z</time></trkpt><trkpt lat="42.96473943880896" lon="11.458584285526502"><ele>125.0</ele><time>2026-03-28T13:13:38Z</time></trkpt><trkpt lat="42.96474561756529" lon="11.45875674023904"><ele>125.0</ele><time>2026-03-28T13:13:39Z</time></trkpt><trkpt lat="42.96475383933842" lon="11.45891873561888"><ele>125.0</ele><time>2026-03-28T13:13:40Z</time></trkpt><trkpt lat="42.96475904907948" lon="11.459082245932212"><ele>125.0</ele><time>2026-03-28T13:13:41Z</time></trkpt><trkpt lat="42.96475762444637" lon="11.459263778436513"><ele>125.0</ele><time>2026-03-28T13:13:42Z</time></trkpt><trkpt lat="42.96476118090124" lon="11.459446037326494"><ele>125.0</ele><time>2026-03-28T13:13:43Z</time></trkpt><trkpt lat="42.96476387540112" lon="11.459602856881357"><ele>125.0</ele><time>2026-03-28T13:13:44Z</time></trkpt><trkpt lat="42.964758664174624" lon="11.459743811809599"><ele>125.0</ele><time>2026-03-28T13:13:45Z</time></trkpt><trkpt lat="42.96475682494894" lon="11.459889216640592"><ele>125.0</ele><time>2026-03-28T13:13:46Z</time></trkpt><trkpt lat="42.96475305129973" lon="11.460044558473204"><ele>125.0</ele><time>2026-03-28T13:13:47Z</time></trkpt><trkpt lat="42.96474315280719" lon="11.460199815722767"><ele>125.0</ele><time>2026-03-28T13:13:48Z</time></trkpt><trkpt lat="42.96473054572253" lon="11.460350466930553"><ele>125.0</ele><time>2026-03-28T13:13:49Z</time></trkpt><trkpt lat="42.96471721866504" lon="11.460487622534393"><ele>125.0</ele><time>2026-03-28T13:13:50Z</time></trkpt><trkpt lat="42.96470821740981" lon="11.460623186581644"><ele>125.0</ele><time>2026-03-28T13:13:51Z</time></trkpt><trkpt lat="42.9647069325681" lon="11.460756721809233"><ele>125.0</ele><time>2026-03-28T13:13:52Z</time></trkpt><trkpt lat="42.9647093657217" lon="11.460898288818347"><ele>125.0</ele><time>2026-03-28T13:13:53Z</time></trkpt><trkpt lat="42.964700884499536" lon="11.461046072659109"><ele>125.0</ele><time>2026-03-28T13:13:54Z</time></trkpt><trkpt lat="42.96470689555877" lon="11.461201313630346"><ele>125.0</ele><time>2026-03-28T13:13:55Z</time></trkpt><trkpt lat="42.96471529443392" lon="11.461364938575505"><ele>125.0</ele><time>2026-03-28T13:13:56Z</time></trkpt><trkpt lat="42.96472384302432" lon="11.461537188532946"><ele>125.0</ele><time>2026-03-28T13:13:57Z</time></trkpt><trkpt lat="42.964739479819315" lon="11.461715215386393"><ele>125.0</ele><time>2026-03-28T13:13:58Z</time></trkpt><trkpt lat="42.964753047095336" lon="11.46189119769429"><ele>125.0</ele><time>2026-03-28T13:13:59Z</time></trkpt><trkpt lat="42.964762482998765" lon="11.462067708199687"><ele>125.0</ele><time>2026-03-28T13:14:00Z</time></trkpt><trkpt lat="42.96476958170584" lon="11.462259507426808"><ele>125.0</ele><time>2026-03-28T13:14:01Z</time></trkpt><trkpt lat="42.96477954478951" lon="11.462464053852646"><ele>125.0</ele><time>2026-03-28T13:14:02Z</time></trkpt><trkpt lat="42.964788544219545" lon="11.46268127617528"><ele>125.0</ele><time>2026-03-28T13:14:03Z</time></trkpt><trkpt lat="42.96479676557011" lon="11.462896401499107"><ele>125.0</ele><time>2026-03-28T13:14:04Z</time></trkpt><trkpt lat="42.96480485318983" lon="11.463095821096656"><ele>125.0</ele><time>2026-03-28T13:14:05Z</time></trkpt><trkpt lat="42.96481253041529" lon="11.463300577124349"><ele>124.5</ele><time>2026-03-28T13:14:06Z</time></trkpt><trkpt lat="42.9648222640645" lon="11.463504490821832"><ele>124.0</ele><time>2026-03-28T13:14:07Z</time></trkpt><trkpt lat="42.96482818935541" lon="11.463692513955465"><ele>123.5</ele><time>2026-03-28T13:14:08Z</time></trkpt><trkpt lat="42.96483326384144" lon="11.463867849861806"><ele>123.0</ele><time>2026-03-28T13:14:09Z</time></trkpt><trkpt lat="42.96483840709964" lon="11.464039271132386"><ele>123.0</ele><time>2026-03-28T13:14:10Z</time></trkpt><trkpt lat="42.964846875325996" lon="11.464218760097332"><ele>123.0</ele><time>2026-03-28T13:14:11Z</time></trkpt><trkpt lat="42.96485429077059" lon="11.464392694434085"><ele>123.0</ele><time>2026-03-28T13:14:12Z</time></trkpt><trkpt lat="42.96485874326058" lon="11.464546588187867"><ele>123.0</ele><time>2026-03-28T13:14:13Z</time></trkpt><trkpt lat="42.9648600857942" lon="11.464686012809947"><ele>123.2</ele><time>2026-03-28T13:14:14Z</time></trkpt><trkpt lat="42.96486698876853" lon="11.46481762175542"><ele>123.4</ele><time>2026-03-28T13:14:15Z</time></trkpt><trkpt lat="42.96488651630869" lon="11.464952381701156"><ele>123.60000000000001</ele><time>2026-03-28T13:14:16Z</time></trkpt><trkpt lat="42.964920163934984" lon="11.465097176072096"><ele>123.80000000000001</ele><time>2026-03-28T13:14:17Z</time></trkpt><trkpt lat="42.9649496983181" lon="11.46523446767796"><ele>124.0</ele><time>2026-03-28T13:14:18Z</time></trkpt><trkpt lat="42.96499115360619" lon="11.465350322971409"><ele>123.83333333333334</ele><time>2026-03-28T13:14:19Z</time></trkpt><trkpt lat="42.96502469886717" lon="11.465463671693952"><ele>123.66666666666667</ele><time>2026-03-28T13:14:20.001Z</time></trkpt><trkpt lat="42.96506666167494" lon="11.465567023573513"><ele>123.5</ele><time>2026-03-28T13:14:21.001Z</time></trkpt><trkpt lat="42.965099134179404" lon="11.465664370467401"><ele>123.33333333333334</ele><time>2026-03-28T13:14:22.001Z</time></trkpt><trkpt lat="42.96514129019472" lon="11.465737490177162"><ele>123.16666666666667</ele><time>2026-03-28T13:14:23.001Z</time></trkpt><trkpt lat="42.96520167816921" lon="11.46579048886638"><ele>123.0</ele><time>2026-03-28T13:14:24.001Z</time></trkpt><trkpt lat="42.96527862790719" lon="11.465827983766523"><ele>123.60000000000001</ele><time>2026-03-28T13:14:25.001Z</time></trkpt><trkpt lat="42.965368389106494" lon="11.465851625567531"><ele>124.20000000000002</ele><time>2026-03-28T13:14:26.001Z</time></trkpt><trkpt lat="42.9654686758217" lon="11.465849217926039"><ele>124.8</ele><time>2026-03-28T13:14:27.001Z</time></trkpt><trkpt lat="42.96557804169323" lon="11.465826516697948"><ele>125.4</ele><time>2026-03-28T13:14:28.001Z</time></trkpt><trkpt lat="42.96570738368424" lon="11.465810238564705"><ele>126.0</ele><time>2026-03-28T13:14:29.001Z</time></trkpt><trkpt lat="42.965840873347226" lon="11.465807269553725"><ele>126.5</ele><time>2026-03-28T13:14:30.001Z</time></trkpt><trkpt lat="42.965969437004915" lon="11.465789836315379"><ele>127.0</ele><time>2026-03-28T13:14:31.001Z</time></trkpt><trkpt lat="42.966071538560726" lon="11.465789252497773"><ele>127.5</ele><time>2026-03-28T13:14:32.001Z</time></trkpt><trkpt lat="42.96617227570364" lon="11.465826089901784"><ele>128.0</ele><time>2026-03-28T13:14:33.001Z</time></trkpt><trkpt lat="42.96628433447313" lon="11.465870298527685"><ele>128.0</ele><time>2026-03-28T13:14:34.001Z</time></trkpt><trkpt lat="42.96639601447459" lon="11.465932600746514"><ele>128.0</ele><time>2026-03-28T13:14:35.001Z</time></trkpt><trkpt lat="42.96652601168047" lon="11.465986083200777"><ele>128.0</ele><time>2026-03-28T13:14:36.001Z</time></trkpt><trkpt lat="42.966652458871785" lon="11.466063706076177"><ele>128.0</ele><time>2026-03-28T13:14:37.001Z</time></trkpt><trkpt lat="42.96677588892659" lon="11.466143324405385"><ele>129.33333333333331</ele><time>2026-03-28T13:14:38.001Z</time></trkpt><trkpt lat="42.96691172708142" lon="11.466217257850701"><ele>130.66666666666666</ele><time>2026-03-28T13:14:39.001Z</time></trkpt><trkpt lat="42.96705129532809" lon="11.46630492056005"><ele>132.0</ele><time>2026-03-28T13:14:40.001Z</time></trkpt><trkpt lat="42.967188892110364" lon="11.466392303362198"><ele>133.25</ele><time>2026-03-28T13:14:41.001Z</time></trkpt><trkpt lat="42.96730328967133" lon="11.466461498648586"><ele>134.5</ele><time>2026-03-28T13:14:42.001Z</time></trkpt><trkpt lat="42.967419624945116" lon="11.46653011825852"><ele>135.75</ele><time>2026-03-28T13:14:43.001Z</time></trkpt><trkpt lat="42.96753495754568" lon="11.466599505534335"><ele>137.0</ele><time>2026-03-28T13:14:44.001Z</time></trkpt><trkpt lat="42.96764788160274" lon="11.466661513394385"><ele>140.25</ele><time>2026-03-28T13:14:45.001Z</time></trkpt><trkpt lat="42.96776275560131" lon="11.466719664354644"><ele>143.5</ele><time>2026-03-28T13:14:46.001Z</time></trkpt><trkpt lat="42.967872561043514" lon="11.46678114899676"><ele>146.75</ele><time>2026-03-28T13:14:47.001Z</time></trkpt><trkpt lat="42.967983359029056" lon="11.466857273296984"><ele>150.0</ele><time>2026-03-28T13:14:48.001Z</time></trkpt><trkpt lat="42.96808270429878" lon="11.466946492436112"><ele>150.0</ele><time>2026-03-28T13:14:49.001Z</time></trkpt><trkpt lat="42.968169681495155" lon="11.467055432798812"><ele>150.0</ele><time>2026-03-28T13:14:50.001Z</time></trkpt><trkpt lat="42.96824964244619" lon="11.467179185953738"><ele>150.0</ele><time>2026-03-28T13:14:51.001Z</time></trkpt><trkpt lat="42.968331246980995" lon="11.46731400728699"><ele>150.0</ele><time>2026-03-28T13:14:52.001Z</time></trkpt><trkpt lat="42.968417267785085" lon="11.467453031462853"><ele>153.75</ele><time>2026-03-28T13:14:53.001Z</time></trkpt><trkpt lat="42.96851317393917" lon="11.467594751448827"><ele>157.5</ele><time>2026-03-28T13:14:54.001Z</time></trkpt><trkpt lat="42.96861036086401" lon="11.467738493597073"><ele>161.25</ele><time>2026-03-28T13:14:55.001Z</time></trkpt><trkpt lat="42.96869222593157" lon="11.467864222826412"><ele>165.0</ele><time>2026-03-28T13:14:56.001Z</time></trkpt><trkpt lat="42.96876785644035" lon="11.467977958818846"><ele>165.33333333333334</ele><time>2026-03-28T13:14:57.001Z</time></trkpt><trkpt lat="42.9688291209562" lon="11.468087544359312"><ele>165.66666666666666</ele><time>2026-03-28T13:14:58.001Z</time></trkpt><trkpt lat="42.96887207575784" lon="11.468182880757167"><ele>166.0</ele><time>2026-03-28T13:14:59.001Z</time></trkpt><trkpt lat="42.96887897377366" lon="11.468284857998395"><ele>166.33333333333331</ele><time>2026-03-28T13:15:00.001Z</time></trkpt><trkpt lat="42.9688932466133" lon="11.468384186631877"><ele>166.66666666666666</ele><time>2026-03-28T13:15:01.001Z</time></trkpt><trkpt lat="42.968914423355756" lon="11.468482225975569"><ele>167.0</ele><time>2026-03-28T13:15:02.001Z</time></trkpt><trkpt lat="42.96891671534857" lon="11.468568652897838"><ele>167.0</ele><time>2026-03-28T13:15:03.001Z</time></trkpt><trkpt lat="42.96894504044681" lon="11.468674294658877"><ele>167.0</ele><time>2026-03-28T13:15:05.001Z</time></trkpt><trkpt lat="42.96903329242451" lon="11.46869788921314"><ele>167.0</ele><time>2026-03-28T13:15:07.001Z</time></trkpt><trkpt lat="42.96913083459602" lon="11.468652266639882"><ele>167.0</ele><time>2026-03-28T13:15:09.001Z</time></trkpt><trkpt lat="42.96923615149971" lon="11.468577223624665"><ele>167.0</ele><time>2026-03-28T13:15:11.001Z</time></trkpt><trkpt lat="42.96935020949879" lon="11.46861934377623"><ele>167.6</ele><time>2026-03-28T13:15:13Z</time></trkpt><trkpt lat="42.96940981746234" lon="11.468671826046856"><ele>168.2</ele><time>2026-03-28T13:15:14Z</time></trkpt><trkpt lat="42.969492068838385" lon="11.468736731826166"><ele>168.8</ele><time>2026-03-28T13:15:15Z</time></trkpt><trkpt lat="42.96959117330446" lon="11.468797667931522"><ele>169.4</ele><time>2026-03-28T13:15:16Z</time></trkpt><trkpt lat="42.96968587298931" lon="11.468841858639232"><ele>170.0</ele><time>2026-03-28T13:15:17Z</time></trkpt><trkpt lat="42.969790590599494" lon="11.4688939698623"><ele>170.5</ele><time>2026-03-28T13:15:18Z</time></trkpt><trkpt lat="42.96992094236514" lon="11.468946208398714"><ele>171.0</ele><time>2026-03-28T13:15:19Z</time></trkpt><trkpt lat="42.97004578108157" lon="11.468994323994876"><ele>171.5</ele><time>2026-03-28T13:15:20Z</time></trkpt><trkpt lat="42.97015283892196" lon="11.4690354881633"><ele>172.0</ele><time>2026-03-28T13:15:21Z</time></trkpt><trkpt lat="42.97025359083153" lon="11.469070467505839"><ele>171.33333333333334</ele><time>2026-03-28T13:15:22Z</time></trkpt><trkpt lat="42.97034326333029" lon="11.469106802681527"><ele>170.66666666666669</ele><time>2026-03-28T13:15:23Z</time></trkpt><trkpt lat="42.97042367165335" lon="11.469152504237252"><ele>170.0</ele><time>2026-03-28T13:15:24Z</time></trkpt><trkpt lat="42.9704855965975" lon="11.469217851338064"><ele>169.33333333333334</ele><time>2026-03-28T13:15:25Z</time></trkpt><trkpt lat="42.97053236010833" lon="11.469309929458129"><ele>168.66666666666666</ele><time>2026-03-28T13:15:26Z</time></trkpt><trkpt lat="42.97054733663517" lon="11.46943109035936"><ele>168.0</ele><time>2026-03-28T13:15:27Z</time></trkpt><trkpt lat="42.970591834624024" lon="11.469541952430925"><ele>167.4</ele><time>2026-03-28T13:15:28Z</time></trkpt><trkpt lat="42.97062991399935" lon="11.469667749207547"><ele>166.8</ele><time>2026-03-28T13:15:29Z</time></trkpt><trkpt lat="42.9706769017723" lon="11.46979085934301"><ele>166.2</ele><time>2026-03-28T13:15:30Z</time></trkpt><trkpt lat="42.97073921874425" lon="11.469901707786004"><ele>165.6</ele><time>2026-03-28T13:15:31Z</time></trkpt><trkpt lat="42.97081527568334" lon="11.470013020478302"><ele>165.0</ele><time>2026-03-28T13:15:32Z</time></trkpt><trkpt lat="42.97090888855252" lon="11.470134146186233"><ele>165.0</ele><time>2026-03-28T13:15:33Z</time></trkpt><trkpt lat="42.97101213623823" lon="11.47028510629492"><ele>165.0</ele><time>2026-03-28T13:15:34Z</time></trkpt><trkpt lat="42.97111480791059" lon="11.470450720523466"><ele>165.0</ele><time>2026-03-28T13:15:35Z</time></trkpt><trkpt lat="42.97122665718409" lon="11.47064161934998"><ele>168.33333333333334</ele><time>2026-03-28T13:15:36Z</time></trkpt><trkpt lat="42.971344139913114" lon="11.470846052042528"><ele>171.66666666666669</ele><time>2026-03-28T13:15:37Z</time></trkpt><trkpt lat="42.9714592453706" lon="11.471058508900292"><ele>175.0</ele><time>2026-03-28T13:15:38Z</time></trkpt><trkpt lat="42.97156587237871" lon="11.47125746385619"><ele>175.66666666666669</ele><time>2026-03-28T13:15:39Z</time></trkpt><trkpt lat="42.971665524536604" lon="11.471444317962302"><ele>176.33333333333334</ele><time>2026-03-28T13:15:40Z</time></trkpt><trkpt lat="42.971765311952836" lon="11.471638290160007"><ele>177.0</ele><time>2026-03-28T13:15:41Z</time></trkpt><trkpt lat="42.97186304505355" lon="11.471844186887068"><ele>177.0</ele><time>2026-03-28T13:15:42Z</time></trkpt><trkpt lat="42.97195726433457" lon="11.47206089106359"><ele>177.0</ele><time>2026-03-28T13:15:43Z</time></trkpt><trkpt lat="42.9720466382627" lon="11.472272045023349"><ele>177.0</ele><time>2026-03-28T13:15:44Z</time></trkpt><trkpt lat="42.97212280961125" lon="11.472462189902656"><ele>179.25</ele><time>2026-03-28T13:15:45Z</time></trkpt><trkpt lat="42.97219551647317" lon="11.47263324476528"><ele>181.5</ele><time>2026-03-28T13:15:46Z</time></trkpt><trkpt lat="42.97226845998761" lon="11.472807770544694"><ele>183.75</ele><time>2026-03-28T13:15:47Z</time></trkpt><trkpt lat="42.97234234699575" lon="11.472989366981302"><ele>186.0</ele><time>2026-03-28T13:15:48Z</time></trkpt><trkpt lat="42.97241443704055" lon="11.473164636496954"><ele>187.4</ele><time>2026-03-28T13:15:49Z</time></trkpt><trkpt lat="42.9724732775545" lon="11.473313783964212"><ele>188.8</ele><time>2026-03-28T13:15:50Z</time></trkpt><trkpt lat="42.97252080019443" lon="11.473429431450926"><ele>190.20000000000002</ele><time>2026-03-28T13:15:51Z</time></trkpt><trkpt lat="42.97256997365119" lon="11.47351528445756"><ele>191.60000000000002</ele><time>2026-03-28T13:15:52Z</time></trkpt><trkpt lat="42.97262802799429" lon="11.473577667324044"><ele>193.0</ele><time>2026-03-28T13:15:53Z</time></trkpt><trkpt lat="42.97270172775781" lon="11.473627926617775"><ele>193.4</ele><time>2026-03-28T13:15:54Z</time></trkpt><trkpt lat="42.97279686528847" lon="11.473673238600181"><ele>193.8</ele><time>2026-03-28T13:15:55Z</time></trkpt><trkpt lat="42.97290053607217" lon="11.473706678085588"><ele>194.2</ele><time>2026-03-28T13:15:56Z</time></trkpt><trkpt lat="42.97301575270868" lon="11.473738390580573"><ele>194.6</ele><time>2026-03-28T13:15:57Z</time></trkpt><trkpt lat="42.97312814798261" lon="11.473782613402046"><ele>195.0</ele><time>2026-03-28T13:15:58Z</time></trkpt><trkpt lat="42.97323826444948" lon="11.473831455750673"><ele>195.8</ele><time>2026-03-28T13:15:59Z</time></trkpt><trkpt lat="42.97334702193629" lon="11.473878620928716"><ele>196.6</ele><time>2026-03-28T13:16:00Z</time></trkpt><trkpt lat="42.973453392799414" lon="11.47392164751167"><ele>197.39999999999998</ele><time>2026-03-28T13:16:01Z</time></trkpt><trkpt lat="42.97356029192915" lon="11.473961897939544"><ele>198.2</ele><time>2026-03-28T13:16:02Z</time></trkpt><trkpt lat="42.97366886905706" lon="11.47399652529196"><ele>199.0</ele><time>2026-03-28T13:16:03Z</time></trkpt><trkpt lat="42.97378516437198" lon="11.474040314418026"><ele>199.0</ele><time>2026-03-28T13:16:04Z</time></trkpt><trkpt lat="42.973908799650665" lon="11.474091898582579"><ele>199.0</ele><time>2026-03-28T13:16:05Z</time></trkpt><trkpt lat="42.97403581781376" lon="11.474143844753563"><ele>199.0</ele><time>2026-03-28T13:16:06Z</time></trkpt><trkpt lat="42.9741583983596" lon="11.474192789242029"><ele>199.0</ele><time>2026-03-28T13:16:07Z</time></trkpt><trkpt lat="42.974283085150304" lon="11.474230608807204"><ele>198.2</ele><time>2026-03-28T13:16:08Z</time></trkpt><trkpt lat="42.974403960198245" lon="11.474268872906611"><ele>197.39999999999998</ele><time>2026-03-28T13:16:09Z</time></trkpt><trkpt lat="42.97452010069417" lon="11.474309323402572"><ele>196.6</ele><time>2026-03-28T13:16:10Z</time></trkpt><trkpt lat="42.974621860099695" lon="11.474345850324106"><ele>195.8</ele><time>2026-03-28T13:16:11.001Z</time></trkpt><trkpt lat="42.97471757281614" lon="11.474378859689162"><ele>195.0</ele><time>2026-03-28T13:16:12.001Z</time></trkpt><trkpt lat="42.97480963349513" lon="11.474403581621218"><ele>195.0</ele><time>2026-03-28T13:16:13.001Z</time></trkpt><trkpt lat="42.97491283459235" lon="11.474429369102356"><ele>195.0</ele><time>2026-03-28T13:16:14.001Z</time></trkpt><trkpt lat="42.97502242248022" lon="11.474458336158591"><ele>195.0</ele><time>2026-03-28T13:16:15.001Z</time></trkpt><trkpt lat="42.97512794127382" lon="11.474490742706909"><ele>195.0</ele><time>2026-03-28T13:16:16.001Z</time></trkpt><trkpt lat="42.975233791986696" lon="11.474526763140625"><ele>195.0</ele><time>2026-03-28T13:16:17.001Z</time></trkpt><trkpt lat="42.97534377586422" lon="11.474568164085076"><ele>196.6</ele><time>2026-03-28T13:16:18.001Z</time></trkpt><trkpt lat="42.975455578569225" lon="11.474612067224047"><ele>198.2</ele><time>2026-03-28T13:16:19.001Z</time></trkpt><trkpt lat="42.975561510652525" lon="11.474658933865353"><ele>199.8</ele><time>2026-03-28T13:16:20.001Z</time></trkpt><trkpt lat="42.975657825541745" lon="11.47469277545065"><ele>201.4</ele><time>2026-03-28T13:16:21.001Z</time></trkpt><trkpt lat="42.97574214825229" lon="11.474717748554845"><ele>203.0</ele><time>2026-03-28T13:16:22.001Z</time></trkpt><trkpt lat="42.975808798670904" lon="11.474739781536178"><ele>203.0</ele><time>2026-03-28T13:16:23.001Z</time></trkpt><trkpt lat="42.97590168035003" lon="11.474828724548587"><ele>203.0</ele><time>2026-03-28T13:16:25.001Z</time></trkpt><trkpt lat="42.975917272828006" lon="11.474952459113036"><ele>203.0</ele><time>2026-03-28T13:16:27.001Z</time></trkpt><trkpt lat="42.9758616244098" lon="11.475086389637275"><ele>203.0</ele><time>2026-03-28T13:16:29.001Z</time></trkpt><trkpt lat="42.975815009164755" lon="11.475258479437745"><ele>203.00000000000003</ele><time>2026-03-28T13:16:31.001Z</time></trkpt><trkpt lat="42.97578453921437" lon="11.475373682188794"><ele>203.0</ele><time>2026-03-28T13:16:32.001Z</time></trkpt><trkpt lat="42.975755886125285" lon="11.475494231181756"><ele>203.0</ele><time>2026-03-28T13:16:33.001Z</time></trkpt><trkpt lat="42.97575055917068" lon="11.475613947819495"><ele>203.0</ele><time>2026-03-28T13:16:34.001Z</time></trkpt><trkpt lat="42.9757380008792" lon="11.475708547942133"><ele>203.00000000000003</ele><time>2026-03-28T13:16:35.001Z</time></trkpt><trkpt lat="42.975738733066954" lon="11.475799577119268"><ele>203.0</ele><time>2026-03-28T13:16:36.001Z</time></trkpt><trkpt lat="42.975757232527265" lon="11.475896457755216"><ele>203.66666666666669</ele><time>2026-03-28T13:16:37.001Z</time></trkpt><trkpt lat="42.975784331443926" lon="11.476001073594942"><ele>204.33333333333334</ele><time>2026-03-28T13:16:38.001Z</time></trkpt><trkpt lat="42.97581922750658" lon="11.476110962395374"><ele>205.0</ele><time>2026-03-28T13:16:39.001Z</time></trkpt><trkpt lat="42.975860047742664" lon="11.476220577374121"><ele>205.66666666666669</ele><time>2026-03-28T13:16:40.001Z</time></trkpt><trkpt lat="42.97591082321924" lon="11.476327692983714"><ele>206.33333333333334</ele><time>2026-03-28T13:16:41.001Z</time></trkpt><trkpt lat="42.975965330220234" lon="11.476436658454059"><ele>207.0</ele><time>2026-03-28T13:16:42.001Z</time></trkpt><trkpt lat="42.97602065555391" lon="11.476533066493172"><ele>207.5</ele><time>2026-03-28T13:16:43.001Z</time></trkpt><trkpt lat="42.97606446422619" lon="11.476620283784468"><ele>208.0</ele><time>2026-03-28T13:16:44.001Z</time></trkpt><trkpt lat="42.97609502577797" lon="11.47670557592879"><ele>208.5</ele><time>2026-03-28T13:16:45.001Z</time></trkpt><trkpt lat="42.976077647724765" lon="11.476883933692594"><ele>209.0</ele><time>2026-03-28T13:16:47.001Z</time></trkpt><trkpt lat="42.976069767239025" lon="11.47697810266967"><ele>209.5</ele><time>2026-03-28T13:16:48.001Z</time></trkpt><trkpt lat="42.97606361457562" lon="11.477078035440199"><ele>210.0</ele><time>2026-03-28T13:16:49.001Z</time></trkpt><trkpt lat="42.976071923541674" lon="11.47718267808044"><ele>210.33333333333334</ele><time>2026-03-28T13:16:50.001Z</time></trkpt><trkpt lat="42.976062812840816" lon="11.477287180613024"><ele>210.66666666666669</ele><time>2026-03-28T13:16:51.001Z</time></trkpt><trkpt lat="42.97605235167149" lon="11.477392669434513"><ele>211.0</ele><time>2026-03-28T13:16:52.001Z</time></trkpt><trkpt lat="42.97604968652748" lon="11.47750029809491"><ele>211.33333333333334</ele><time>2026-03-28T13:16:53.001Z</time></trkpt><trkpt lat="42.976023107097305" lon="11.477608245472508"><ele>211.66666666666669</ele><time>2026-03-28T13:16:54.001Z</time></trkpt><trkpt lat="42.976047334766406" lon="11.477718989656113"><ele>212.0</ele><time>2026-03-28T13:16:55.001Z</time></trkpt><trkpt lat="42.97603718249949" lon="11.47780550093467"><ele>211.2</ele><time>2026-03-28T13:16:56.001Z</time></trkpt><trkpt lat="42.97601811793777" lon="11.477949374684318"><ele>210.39999999999998</ele><time>2026-03-28T13:16:58.001Z</time></trkpt><trkpt lat="42.97604554402681" lon="11.478093966837983"><ele>209.60000000000002</ele><time>2026-03-28T13:17:00.001Z</time></trkpt><trkpt lat="42.97606525933743" lon="11.478251370577743"><ele>208.8</ele><time>2026-03-28T13:17:02.001Z</time></trkpt><trkpt lat="42.9761287096528" lon="11.478375623093088"><ele>208.0</ele><time>2026-03-28T13:17:04.001Z</time></trkpt><trkpt lat="42.97622615068658" lon="11.47849003867672"><ele>208.0</ele><time>2026-03-28T13:17:06.001Z</time></trkpt><trkpt lat="42.976287698895256" lon="11.478545432688415"><ele>208.0</ele><time>2026-03-28T13:17:07.001Z</time></trkpt><trkpt lat="42.97634594297859" lon="11.478604285594598"><ele>208.0</ele><time>2026-03-28T13:17:08.001Z</time></trkpt><trkpt lat="42.9764039578304" lon="11.478661036822915"><ele>208.0</ele><time>2026-03-28T13:17:09.001Z</time></trkpt><trkpt lat="42.97646387997613" lon="11.478713902015562"><ele>208.0</ele><time>2026-03-28T13:17:10.001Z</time></trkpt><trkpt lat="42.97652181357022" lon="11.478763137001271"><ele>208.0</ele><time>2026-03-28T13:17:11.001Z</time></trkpt><trkpt lat="42.97657428940369" lon="11.478822550110383"><ele>208.0</ele><time>2026-03-28T13:17:12.001Z</time></trkpt><trkpt lat="42.97661711005874" lon="11.478887629842651"><ele>207.66666666666666</ele><time>2026-03-28T13:17:13.001Z</time></trkpt><trkpt lat="42.97662674552247" lon="11.479016158207372"><ele>207.33333333333331</ele><time>2026-03-28T13:17:15.001Z</time></trkpt><trkpt lat="42.97654261044732" lon="11.479089985195426"><ele>207.0</ele><time>2026-03-28T13:17:17.001Z</time></trkpt><trkpt lat="42.97647490809444" lon="11.479062157285618"><ele>206.66666666666669</ele><time>2026-03-28T13:17:18.001Z</time></trkpt><trkpt lat="42.97640178558325" lon="11.47909221511744"><ele>206.33333333333334</ele><time>2026-03-28T13:17:19Z</time></trkpt><trkpt lat="42.976318018557535" lon="11.47912781035844"><ele>206.0</ele><time>2026-03-28T13:17:20Z</time></trkpt><trkpt lat="42.97623118133783" lon="11.479180048343219"><ele>206.0</ele><time>2026-03-28T13:17:21Z</time></trkpt><trkpt lat="42.976150282788424" lon="11.479244194214042"><ele>206.0</ele><time>2026-03-28T13:17:22Z</time></trkpt><trkpt lat="42.97607139873027" lon="11.47931817291021"><ele>206.0</ele><time>2026-03-28T13:17:23Z</time></trkpt><trkpt lat="42.976009090096156" lon="11.479419378706291"><ele>206.0</ele><time>2026-03-28T13:17:24Z</time></trkpt><trkpt lat="42.97593527550845" lon="11.479511898792367"><ele>206.0</ele><time>2026-03-28T13:17:25Z</time></trkpt><trkpt lat="42.97587259793962" lon="11.479624893714627"><ele>205.60000000000002</ele><time>2026-03-28T13:17:26Z</time></trkpt><trkpt lat="42.97581957629938" lon="11.479755920850607"><ele>205.2</ele><time>2026-03-28T13:17:27Z</time></trkpt><trkpt lat="42.97577514306346" lon="11.479889338882783"><ele>204.8</ele><time>2026-03-28T13:17:28Z</time></trkpt><trkpt lat="42.975737508320805" lon="11.480015733153659"><ele>204.39999999999998</ele><time>2026-03-28T13:17:29Z</time></trkpt><trkpt lat="42.97570786992074" lon="11.480131684311807"><ele>204.0</ele><time>2026-03-28T13:17:30Z</time></trkpt><trkpt lat="42.97567952721863" lon="11.480254738693992"><ele>204.0</ele><time>2026-03-28T13:17:31Z</time></trkpt><trkpt lat="42.9756641750545" lon="11.480356843846497"><ele>204.0</ele><time>2026-03-28T13:17:32Z</time></trkpt><trkpt lat="42.975659378108475" lon="11.480451775677457"><ele>204.0</ele><time>2026-03-28T13:17:33Z</time></trkpt><trkpt lat="42.975673363110836" lon="11.480538777586752"><ele>204.0</ele><time>2026-03-28T13:17:34Z</time></trkpt><trkpt lat="42.97573586103592" lon="11.480661457671854"><ele>204.0</ele><time>2026-03-28T13:17:36Z</time></trkpt><trkpt lat="42.97581387961213" lon="11.480718618810974"><ele>204.0</ele><time>2026-03-28T13:17:38Z</time></trkpt><trkpt lat="42.975918102293036" lon="11.480737025792918"><ele>206.0</ele><time>2026-03-28T13:17:40Z</time></trkpt><trkpt lat="42.97599212986764" lon="11.480727870316349"><ele>208.0</ele><time>2026-03-28T13:17:42Z</time></trkpt><trkpt lat="42.97611011862661" lon="11.480728337054806"><ele>210.0</ele><time>2026-03-28T13:17:44Z</time></trkpt><trkpt lat="42.97619289994374" lon="11.480723339454718"><ele>212.0</ele><time>2026-03-28T13:17:45Z</time></trkpt><trkpt lat="42.976266213302935" lon="11.480719676943963"><ele>214.0</ele><time>2026-03-28T13:17:46Z</time></trkpt><trkpt lat="42.97633043848471" lon="11.480717380897586"><ele>216.0</ele><time>2026-03-28T13:17:47Z</time></trkpt><trkpt lat="42.9764346167328" lon="11.480721550853152"><ele>216.0</ele><time>2026-03-28T13:17:49Z</time></trkpt><trkpt lat="42.97650831075778" lon="11.480718620077708"><ele>216.0</ele><time>2026-03-28T13:17:51Z</time></trkpt><trkpt lat="42.976576225254604" lon="11.4807068794098"><ele>216.0</ele><time>2026-03-28T13:17:53Z</time></trkpt><trkpt lat="42.976674852062914" lon="11.480704157622798"><ele>216.0</ele><time>2026-03-28T13:17:55Z</time></trkpt><trkpt lat="42.976784803316036" lon="11.48069913831614"><ele>216.0</ele><time>2026-03-28T13:17:57Z</time></trkpt><trkpt lat="42.9768675776239" lon="11.480693713537097"><ele>216.0</ele><time>2026-03-28T13:17:59Z</time></trkpt><trkpt lat="42.97694791367209" lon="11.480691886208062"><ele>216.60000000000002</ele><time>2026-03-28T13:18:01Z</time></trkpt><trkpt lat="42.977041895061134" lon="11.480685967087176"><ele>217.20000000000002</ele><time>2026-03-28T13:18:03Z</time></trkpt><trkpt lat="42.97713143938323" lon="11.4806871032398"><ele>217.79999999999998</ele><time>2026-03-28T13:18:05Z</time></trkpt><trkpt lat="42.977222044892216" lon="11.480691404279707"><ele>218.39999999999998</ele><time>2026-03-28T13:18:07Z</time></trkpt><trkpt lat="42.97731647474076" lon="11.480685333482226"><ele>219.0</ele><time>2026-03-28T13:18:09.001Z</time></trkpt><trkpt lat="42.97741813640158" lon="11.480680404223225"><ele>219.0</ele><time>2026-03-28T13:18:11.001Z</time></trkpt><trkpt lat="42.97750625517106" lon="11.480694342362495"><ele>218.99999999999997</ele><time>2026-03-28T13:18:13.001Z</time></trkpt><trkpt lat="42.97757114044736" lon="11.480682842074136"><ele>218.99999999999997</ele><time>2026-03-28T13:18:16.001Z</time></trkpt><trkpt lat="42.97750472054902" lon="11.48067490249024"><ele>219.0</ele><time>2026-03-28T13:18:19.001Z</time></trkpt><trkpt lat="42.97738911422021" lon="11.480691227463682"><ele>219.0</ele><time>2026-03-28T13:18:22.001Z</time></trkpt><trkpt lat="42.97725708406625" lon="11.480684621788775"><ele>219.0</ele><time>2026-03-28T13:18:24.001Z</time></trkpt><trkpt lat="42.97719113472297" lon="11.480631156048586"><ele>219.0</ele><time>2026-03-28T13:18:25.001Z</time></trkpt><trkpt lat="42.9771176078995" lon="11.480632378543385"><ele>219.0</ele><time>2026-03-28T13:18:26.001Z</time></trkpt><trkpt lat="42.97704190270123" lon="11.480633492673572"><ele>219.0</ele><time>2026-03-28T13:18:27.001Z</time></trkpt><trkpt lat="42.976960844414435" lon="11.480634685581457"><ele>219.0</ele><time>2026-03-28T13:18:28.001Z</time></trkpt><trkpt lat="42.97687511693337" lon="11.480637213246405"><ele>219.0</ele><time>2026-03-28T13:18:29.001Z</time></trkpt><trkpt lat="42.97678728076288" lon="11.480640773271432"><ele>219.0</ele><time>2026-03-28T13:18:30.001Z</time></trkpt><trkpt lat="42.97669922618319" lon="11.480644342149454"><ele>219.0</ele><time>2026-03-28T13:18:31.001Z</time></trkpt><trkpt lat="42.976608990888195" lon="11.4806488870738"><ele>219.0</ele><time>2026-03-28T13:18:32.001Z</time></trkpt><trkpt lat="42.97652519539065" lon="11.480653744454164"><ele>219.0</ele><time>2026-03-28T13:18:33.001Z</time></trkpt><trkpt lat="42.97643985049174" lon="11.480658691651898"><ele>219.0</ele><time>2026-03-28T13:18:34.001Z</time></trkpt><trkpt lat="42.97635549470213" lon="11.48066358150551"><ele>219.0</ele><time>2026-03-28T13:18:35.001Z</time></trkpt><trkpt lat="42.97627081075133" lon="11.480689517609111"><ele>218.39999999999998</ele><time>2026-03-28T13:18:36.001Z</time></trkpt><trkpt lat="42.976195996011796" lon="11.480689403512526"><ele>217.79999999999998</ele><time>2026-03-28T13:18:37.001Z</time></trkpt><trkpt lat="42.97612983781445" lon="11.48069377084967"><ele>217.20000000000002</ele><time>2026-03-28T13:18:38.001Z</time></trkpt><trkpt lat="42.976011629596826" lon="11.480702583575216"><ele>216.60000000000002</ele><time>2026-03-28T13:18:40.001Z</time></trkpt><trkpt lat="42.97589397498473" lon="11.480701647091266"><ele>216.0</ele><time>2026-03-28T13:18:42.001Z</time></trkpt><trkpt lat="42.97580258922802" lon="11.48066130917722"><ele>215.16666666666666</ele><time>2026-03-28T13:18:44.001Z</time></trkpt><trkpt lat="42.97571865306552" lon="11.480609762235375"><ele>214.33333333333331</ele><time>2026-03-28T13:18:46.001Z</time></trkpt><trkpt lat="42.975700885658085" lon="11.480511763108689"><ele>213.5</ele><time>2026-03-28T13:18:48.001Z</time></trkpt><trkpt lat="42.97569785227926" lon="11.480394712494238"><ele>212.66666666666666</ele><time>2026-03-28T13:18:52.001Z</time></trkpt><trkpt lat="42.97571285171556" lon="11.480261555585829"><ele>211.83333333333331</ele><time>2026-03-28T13:18:54.001Z</time></trkpt><trkpt lat="42.975731894924834" lon="11.480157747615742"><ele>211.0</ele><time>2026-03-28T13:18:55.001Z</time></trkpt><trkpt lat="42.97574465909439" lon="11.480036570638356"><ele>211.60000000000002</ele><time>2026-03-28T13:18:56.001Z</time></trkpt><trkpt lat="42.975779598338704" lon="11.479922029958253"><ele>212.2</ele><time>2026-03-28T13:18:57.001Z</time></trkpt><trkpt lat="42.975817629034495" lon="11.479805919377636"><ele>212.79999999999998</ele><time>2026-03-28T13:18:58.001Z</time></trkpt><trkpt lat="42.97585927033548" lon="11.47968895137412"><ele>213.39999999999998</ele><time>2026-03-28T13:18:59.001Z</time></trkpt><trkpt lat="42.97591864797481" lon="11.479575306108204"><ele>214.0</ele><time>2026-03-28T13:19:00.001Z</time></trkpt><trkpt lat="42.975982547431514" lon="11.479476971199668"><ele>212.39999999999998</ele><time>2026-03-28T13:19:01.001Z</time></trkpt><trkpt lat="42.97605624224687" lon="11.479387091768618"><ele>210.79999999999998</ele><time>2026-03-28T13:19:02.001Z</time></trkpt><trkpt lat="42.97613353521529" lon="11.479307507554248"><ele>209.2</ele><time>2026-03-28T13:19:03.001Z</time></trkpt><trkpt lat="42.97621843164476" lon="11.479236872172923"><ele>207.60000000000002</ele><time>2026-03-28T13:19:04.001Z</time></trkpt><trkpt lat="42.97630973556122" lon="11.479171594514856"><ele>206.0</ele><time>2026-03-28T13:19:05.001Z</time></trkpt><trkpt lat="42.97640864748441" lon="11.479123858111954"><ele>206.0</ele><time>2026-03-28T13:19:06.001Z</time></trkpt><trkpt lat="42.97650058421852" lon="11.479098080433497"><ele>206.0</ele><time>2026-03-28T13:19:07.001Z</time></trkpt><trkpt lat="42.97657563653629" lon="11.479082670245932"><ele>206.0</ele><time>2026-03-28T13:19:08.001Z</time></trkpt><trkpt lat="42.976649035882055" lon="11.479006298484885"><ele>206.0</ele><time>2026-03-28T13:19:10.001Z</time></trkpt><trkpt lat="42.97662387635021" lon="11.4788438821616"><ele>206.0</ele><time>2026-03-28T13:19:12.001Z</time></trkpt><trkpt lat="42.97657292499747" lon="11.478782609648736"><ele>206.33333333333334</ele><time>2026-03-28T13:19:13.001Z</time></trkpt><trkpt lat="42.97650900770125" lon="11.478735554602208"><ele>206.66666666666669</ele><time>2026-03-28T13:19:14.001Z</time></trkpt><trkpt lat="42.976454877305514" lon="11.478653568176718"><ele>207.0</ele><time>2026-03-28T13:19:15.001Z</time></trkpt><trkpt lat="42.97638923949748" lon="11.478590272137371"><ele>207.33333333333331</ele><time>2026-03-28T13:19:16.001Z</time></trkpt><trkpt lat="42.97631901573718" lon="11.47852255385338"><ele>207.66666666666666</ele><time>2026-03-28T13:19:17.001Z</time></trkpt><trkpt lat="42.97625572416205" lon="11.47846183768115"><ele>208.0</ele><time>2026-03-28T13:19:18.001Z</time></trkpt><trkpt lat="42.976195637317616" lon="11.478404557438914"><ele>208.0</ele><time>2026-03-28T13:19:19.001Z</time></trkpt><trkpt lat="42.976112393335555" lon="11.478322729889877"><ele>208.0</ele><time>2026-03-28T13:19:21.001Z</time></trkpt><trkpt lat="42.97608600784232" lon="11.47817626079785"><ele>208.0</ele><time>2026-03-28T13:19:23.001Z</time></trkpt><trkpt lat="42.97604364751476" lon="11.478017480692625"><ele>208.0</ele><time>2026-03-28T13:19:25Z</time></trkpt><trkpt lat="42.97602748391897" lon="11.477873949021701"><ele>208.0</ele><time>2026-03-28T13:19:27Z</time></trkpt><trkpt lat="42.97605034487363" lon="11.477700319847628"><ele>208.33333333333331</ele><time>2026-03-28T13:19:29Z</time></trkpt><trkpt lat="42.976063345813145" lon="11.477589743213393"><ele>208.66666666666666</ele><time>2026-03-28T13:19:30Z</time></trkpt><trkpt lat="42.97606252965722" lon="11.477466590352396"><ele>209.0</ele><time>2026-03-28T13:19:31Z</time></trkpt><trkpt lat="42.976065318867356" lon="11.477336033983677"><ele>209.33333333333331</ele><time>2026-03-28T13:19:32Z</time></trkpt><trkpt lat="42.97607406222428" lon="11.477215773898298"><ele>209.66666666666666</ele><time>2026-03-28T13:19:33Z</time></trkpt><trkpt lat="42.9760793805038" lon="11.477107293211922"><ele>210.0</ele><time>2026-03-28T13:19:34Z</time></trkpt><trkpt lat="42.97609076601102" lon="11.477009046856478"><ele>210.0</ele><time>2026-03-28T13:19:35Z</time></trkpt><trkpt lat="42.97610744242272" lon="11.476905647297663"><ele>210.0</ele><time>2026-03-28T13:19:36Z</time></trkpt><trkpt lat="42.97611194205822" lon="11.476797309207882"><ele>210.0</ele><time>2026-03-28T13:19:37Z</time></trkpt><trkpt lat="42.976116554732585" lon="11.47668624723057"><ele>210.0</ele><time>2026-03-28T13:19:38Z</time></trkpt><trkpt lat="42.97608571720455" lon="11.476571840985141"><ele>210.0</ele><time>2026-03-28T13:19:39Z</time></trkpt><trkpt lat="42.976019590072305" lon="11.476494615124883"><ele>210.0</ele><time>2026-03-28T13:19:40Z</time></trkpt><trkpt lat="42.975976495815374" lon="11.476389459131168"><ele>210.0</ele><time>2026-03-28T13:19:41Z</time></trkpt><trkpt lat="42.97592470117552" lon="11.476280222747356"><ele>210.0</ele><time>2026-03-28T13:19:42Z</time></trkpt><trkpt lat="42.9758812715" lon="11.476170149348896"><ele>210.0</ele><time>2026-03-28T13:19:43Z</time></trkpt><trkpt lat="42.97584316586968" lon="11.47606702840812"><ele>210.0</ele><time>2026-03-28T13:19:44Z</time></trkpt><trkpt lat="42.97580762878442" lon="11.47596491635813"><ele>210.0</ele><time>2026-03-28T13:19:45Z</time></trkpt><trkpt lat="42.97577823471853" lon="11.475863130801898"><ele>210.0</ele><time>2026-03-28T13:19:46Z</time></trkpt><trkpt lat="42.975743873299464" lon="11.475766928370101"><ele>209.57142857142858</ele><time>2026-03-28T13:19:47Z</time></trkpt><trkpt lat="42.97574361611175" lon="11.475673517831034"><ele>209.14285714285714</ele><time>2026-03-28T13:19:48Z</time></trkpt><trkpt lat="42.97575919593602" lon="11.475582023752606"><ele>208.71428571428572</ele><time>2026-03-28T13:19:49Z</time></trkpt><trkpt lat="42.975784068343856" lon="11.475494249431804"><ele>208.28571428571428</ele><time>2026-03-28T13:19:50Z</time></trkpt><trkpt lat="42.97580495245561" lon="11.475407688489543"><ele>207.85714285714286</ele><time>2026-03-28T13:19:51Z</time></trkpt><trkpt lat="42.97582648537234" lon="11.475313866304383"><ele>207.42857142857144</ele><time>2026-03-28T13:19:52Z</time></trkpt><trkpt lat="42.975851562747714" lon="11.475208919986757"><ele>207.0</ele><time>2026-03-28T13:19:53Z</time></trkpt><trkpt lat="42.975901787056856" lon="11.475032642277283"><ele>206.33333333333334</ele><time>2026-03-28T13:19:55Z</time></trkpt><trkpt lat="42.975927544339086" lon="11.474930522728371"><ele>205.66666666666669</ele><time>2026-03-28T13:19:57Z</time></trkpt><trkpt lat="42.975925149963736" lon="11.474832231854412"><ele>205.0</ele><time>2026-03-28T13:19:59Z</time></trkpt><trkpt lat="42.97587338082079" lon="11.474722226120157"><ele>204.33333333333334</ele><time>2026-03-28T13:20:01Z</time></trkpt><trkpt lat="42.975805633614215" lon="11.474693642575705"><ele>203.66666666666669</ele><time>2026-03-28T13:20:02Z</time></trkpt><trkpt lat="42.975735994473425" lon="11.474666658534915"><ele>203.0</ele><time>2026-03-28T13:20:03Z</time></trkpt><trkpt lat="42.97566109251691" lon="11.474641798536647"><ele>203.0</ele><time>2026-03-28T13:20:04Z</time></trkpt><trkpt lat="42.97557553938139" lon="11.474613027211388"><ele>203.0</ele><time>2026-03-28T13:20:05Z</time></trkpt><trkpt lat="42.97549132873433" lon="11.474582754838217"><ele>203.0</ele><time>2026-03-28T13:20:06Z</time></trkpt><trkpt lat="42.97540245993507" lon="11.474550850568093"><ele>203.0</ele><time>2026-03-28T13:20:07Z</time></trkpt><trkpt lat="42.97529787259028" lon="11.474513303196796"><ele>203.0</ele><time>2026-03-28T13:20:08Z</time></trkpt><trkpt lat="42.97518499632609" lon="11.47447278010371"><ele>201.4</ele><time>2026-03-28T13:20:09Z</time></trkpt><trkpt lat="42.97507502558339" lon="11.474434458251885"><ele>199.8</ele><time>2026-03-28T13:20:10Z</time></trkpt><trkpt lat="42.97497089363339" lon="11.47442132837646"><ele>198.2</ele><time>2026-03-28T13:20:11Z</time></trkpt><trkpt lat="42.97487725989205" lon="11.474386629361323"><ele>196.6</ele><time>2026-03-28T13:20:12Z</time></trkpt><trkpt lat="42.974769234688004" lon="11.474354330174446"><ele>195.0</ele><time>2026-03-28T13:20:13Z</time></trkpt><trkpt lat="42.974650891398866" lon="11.474305665655256"><ele>195.0</ele><time>2026-03-28T13:20:14Z</time></trkpt><trkpt lat="42.97451532773257" lon="11.474263842883913"><ele>195.0</ele><time>2026-03-28T13:20:15Z</time></trkpt><trkpt lat="42.9743801695607" lon="11.474233156494593"><ele>195.0</ele><time>2026-03-28T13:20:16Z</time></trkpt><trkpt lat="42.974258704845724" lon="11.474196296793366"><ele>195.0</ele><time>2026-03-28T13:20:17Z</time></trkpt><trkpt lat="42.97413096334346" lon="11.474146945848613"><ele>196.0</ele><time>2026-03-28T13:20:18Z</time></trkpt><trkpt lat="42.973999025137694" lon="11.474095841358166"><ele>197.0</ele><time>2026-03-28T13:20:19Z</time></trkpt><trkpt lat="42.97387470649778" lon="11.474026805180046"><ele>198.0</ele><time>2026-03-28T13:20:20Z</time></trkpt><trkpt lat="42.97374802699984" lon="11.473977751329395"><ele>199.0</ele><time>2026-03-28T13:20:21Z</time></trkpt><trkpt lat="42.97363400792132" lon="11.47395386015995"><ele>199.0</ele><time>2026-03-28T13:20:22Z</time></trkpt><trkpt lat="42.97353103778385" lon="11.473907842321083"><ele>199.0</ele><time>2026-03-28T13:20:23Z</time></trkpt><trkpt lat="42.97341453320367" lon="11.473867151496627"><ele>199.0</ele><time>2026-03-28T13:20:24Z</time></trkpt><trkpt lat="42.97328767995836" lon="11.473821026653642"><ele>199.0</ele><time>2026-03-28T13:20:25Z</time></trkpt><trkpt lat="42.97315632857681" lon="11.473773085879998"><ele>198.2</ele><time>2026-03-28T13:20:26Z</time></trkpt><trkpt lat="42.97303332851017" lon="11.473723572757596"><ele>197.39999999999998</ele><time>2026-03-28T13:20:27Z</time></trkpt><trkpt lat="42.97292335234693" lon="11.473681377138568"><ele>196.6</ele><time>2026-03-28T13:20:28Z</time></trkpt><trkpt lat="42.97282239018985" lon="11.473647851261278"><ele>195.8</ele><time>2026-03-28T13:20:29Z</time></trkpt><trkpt lat="42.972734165576355" lon="11.473605592973419"><ele>195.0</ele><time>2026-03-28T13:20:30Z</time></trkpt><trkpt lat="42.97265514484128" lon="11.473555832907405"><ele>195.0</ele><time>2026-03-28T13:20:31Z</time></trkpt><trkpt lat="42.97258307211698" lon="11.473482283675034"><ele>195.0</ele><time>2026-03-28T13:20:32Z</time></trkpt><trkpt lat="42.97252733984212" lon="11.473383099753303"><ele>195.0</ele><time>2026-03-28T13:20:33.001Z</time></trkpt><trkpt lat="42.972490955358" lon="11.473251696090704"><ele>195.0</ele><time>2026-03-28T13:20:34.001Z</time></trkpt><trkpt lat="42.9724230122623" lon="11.473128462015408"><ele>195.0</ele><time>2026-03-28T13:20:35.001Z</time></trkpt><trkpt lat="42.97236626020946" lon="11.472980982582971"><ele>192.75</ele><time>2026-03-28T13:20:36.001Z</time></trkpt><trkpt lat="42.97230589161734" lon="11.472835085832635"><ele>190.5</ele><time>2026-03-28T13:20:37.001Z</time></trkpt><trkpt lat="42.97225487324622" lon="11.472672306968205"><ele>188.25</ele><time>2026-03-28T13:20:38.001Z</time></trkpt><trkpt lat="42.972182817354856" lon="11.472507417233595"><ele>186.0</ele><time>2026-03-28T13:20:39.001Z</time></trkpt><trkpt lat="42.97210106447391" lon="11.472347858612153"><ele>186.0</ele><time>2026-03-28T13:20:40.001Z</time></trkpt><trkpt lat="42.972026720365356" lon="11.472168500122"><ele>186.0</ele><time>2026-03-28T13:20:41.001Z</time></trkpt><trkpt lat="42.97194417568696" lon="11.47197882255128"><ele>186.0</ele><time>2026-03-28T13:20:42.001Z</time></trkpt><trkpt lat="42.971862633413075" lon="11.47180057707487"><ele>184.33333333333334</ele><time>2026-03-28T13:20:43.001Z</time></trkpt><trkpt lat="42.97178015841685" lon="11.471634169410661"><ele>182.66666666666669</ele><time>2026-03-28T13:20:44.001Z</time></trkpt><trkpt lat="42.971693613948034" lon="11.471456975531742"><ele>181.0</ele><time>2026-03-28T13:20:45.001Z</time></trkpt><trkpt lat="42.9716013275249" lon="11.471276025623087"><ele>179.0</ele><time>2026-03-28T13:20:46.001Z</time></trkpt><trkpt lat="42.97150461793606" lon="11.471096378215721"><ele>177.0</ele><time>2026-03-28T13:20:47.001Z</time></trkpt><trkpt lat="42.97141246562487" lon="11.470935990849958"><ele>175.0</ele><time>2026-03-28T13:20:48.001Z</time></trkpt><trkpt lat="42.971326856153524" lon="11.470785021142838"><ele>175.0</ele><time>2026-03-28T13:20:49.001Z</time></trkpt><trkpt lat="42.97125749806214" lon="11.470626040263408"><ele>175.0</ele><time>2026-03-28T13:20:50.001Z</time></trkpt><trkpt lat="42.97117403321306" lon="11.470479912028994"><ele>175.0</ele><time>2026-03-28T13:20:51.001Z</time></trkpt><trkpt lat="42.97107386743485" lon="11.470347491619089"><ele>175.0</ele><time>2026-03-28T13:20:52.001Z</time></trkpt><trkpt lat="42.97098822016297" lon="11.470195674506778"><ele>175.25</ele><time>2026-03-28T13:20:53.001Z</time></trkpt><trkpt lat="42.97089660526201" lon="11.470067161422879"><ele>175.5</ele><time>2026-03-28T13:20:54.001Z</time></trkpt><trkpt lat="42.97082185994133" lon="11.469932326972591"><ele>175.75</ele><time>2026-03-28T13:20:55.001Z</time></trkpt><trkpt lat="42.97074208327147" lon="11.469810890453463"><ele>176.0</ele><time>2026-03-28T13:20:56.001Z</time></trkpt><trkpt lat="42.97065496856388" lon="11.469694920253172"><ele>174.4</ele><time>2026-03-28T13:20:57.001Z</time></trkpt><trkpt lat="42.97060192473025" lon="11.469541681686252"><ele>172.8</ele><time>2026-03-28T13:20:58.001Z</time></trkpt><trkpt lat="42.97055798241549" lon="11.469385742514984"><ele>171.20000000000002</ele><time>2026-03-28T13:20:59.001Z</time></trkpt><trkpt lat="42.970521468761156" lon="11.469260668493888"><ele>169.60000000000002</ele><time>2026-03-28T13:21:00.001Z</time></trkpt><trkpt lat="42.970484227929276" lon="11.46916194311411"><ele>168.0</ele><time>2026-03-28T13:21:01.001Z</time></trkpt><trkpt lat="42.970390830484085" lon="11.469083376244434"><ele>168.0</ele><time>2026-03-28T13:21:03.001Z</time></trkpt><trkpt lat="42.9702625431164" lon="11.469024868444933"><ele>168.0</ele><time>2026-03-28T13:21:05.001Z</time></trkpt><trkpt lat="42.97017363341727" lon="11.468995658351927"><ele>168.0</ele><time>2026-03-28T13:21:06.001Z</time></trkpt><trkpt lat="42.970076752135355" lon="11.46895989502825"><ele>168.0</ele><time>2026-03-28T13:21:07.001Z</time></trkpt><trkpt lat="42.96998078062911" lon="11.468922383970302"><ele>168.0</ele><time>2026-03-28T13:21:08.001Z</time></trkpt><trkpt lat="42.9698910761885" lon="11.468887007594667"><ele>168.33333333333334</ele><time>2026-03-28T13:21:09.001Z</time></trkpt><trkpt lat="42.969805206278636" lon="11.468872476052603"><ele>168.66666666666666</ele><time>2026-03-28T13:21:10.001Z</time></trkpt><trkpt lat="42.96972975961808" lon="11.468817757469585"><ele>169.0</ele><time>2026-03-28T13:21:11.001Z</time></trkpt><trkpt lat="42.96964640235015" lon="11.468775750831526"><ele>169.33333333333331</ele><time>2026-03-28T13:21:12.001Z</time></trkpt><trkpt lat="42.96956780598657" lon="11.468754553905281"><ele>169.66666666666666</ele><time>2026-03-28T13:21:13.001Z</time></trkpt><trkpt lat="42.96949621838071" lon="11.468705734089188"><ele>170.0</ele><time>2026-03-28T13:21:14.001Z</time></trkpt><trkpt lat="42.969422164167334" lon="11.468656764708513"><ele>170.0</ele><time>2026-03-28T13:21:15.001Z</time></trkpt><trkpt lat="42.969367463268576" lon="11.468591929742573"><ele>170.0</ele><time>2026-03-28T13:21:16.001Z</time></trkpt><trkpt lat="42.9692564977263" lon="11.468546918089226"><ele>170.0</ele><time>2026-03-28T13:21:18.001Z</time></trkpt><trkpt lat="42.969137890160425" lon="11.468564975308322"><ele>170.0</ele><time>2026-03-28T13:21:20.001Z</time></trkpt><trkpt lat="42.96909376954183" lon="11.468630285810523"><ele>170.0</ele><time>2026-03-28T13:21:21.001Z</time></trkpt><trkpt lat="42.96900884418028" lon="11.468666277074059"><ele>169.5</ele><time>2026-03-28T13:21:23.001Z</time></trkpt><trkpt lat="42.96893158774344" lon="11.468577047040858"><ele>169.0</ele><time>2026-03-28T13:21:25.001Z</time></trkpt><trkpt lat="42.968913765727265" lon="11.468402194904886"><ele>168.5</ele><time>2026-03-28T13:21:27.001Z</time></trkpt><trkpt lat="42.968910181441935" lon="11.468300014565424"><ele>168.0</ele><time>2026-03-28T13:21:28.001Z</time></trkpt><trkpt lat="42.968895699076434" lon="11.468203380999945"><ele>167.5</ele><time>2026-03-28T13:21:29.001Z</time></trkpt><trkpt lat="42.96886470286731" lon="11.468114393057853"><ele>167.0</ele><time>2026-03-28T13:21:30.001Z</time></trkpt><trkpt lat="42.968819191548135" lon="11.468018428541276"><ele>166.6</ele><time>2026-03-28T13:21:31Z</time></trkpt><trkpt lat="42.96876738022443" lon="11.467905404100943"><ele>166.2</ele><time>2026-03-28T13:21:32Z</time></trkpt><trkpt lat="42.96869862834688" lon="11.467800556723358"><ele>165.8</ele><time>2026-03-28T13:21:33Z</time></trkpt><trkpt lat="42.9686234935202" lon="11.467722892932152"><ele>165.4</ele><time>2026-03-28T13:21:34Z</time></trkpt><trkpt lat="42.968560240771126" lon="11.467621808789122"><ele>165.0</ele><time>2026-03-28T13:21:35Z</time></trkpt><trkpt lat="42.9684876043781" lon="11.467518749312209"><ele>165.0</ele><time>2026-03-28T13:21:36Z</time></trkpt><trkpt lat="42.9684215365487" lon="11.467413557847921"><ele>165.0</ele><time>2026-03-28T13:21:37Z</time></trkpt><trkpt lat="42.96835076585824" lon="11.467302788313631"><ele>165.0</ele><time>2026-03-28T13:21:38Z</time></trkpt><trkpt lat="42.96828243043636" lon="11.467193966541588"><ele>165.0</ele><time>2026-03-28T13:21:39Z</time></trkpt><trkpt lat="42.96821758852226" lon="11.46709036605294"><ele>165.0</ele><time>2026-03-28T13:21:40Z</time></trkpt><trkpt lat="42.968156686837744" lon="11.466989412043592"><ele>162.0</ele><time>2026-03-28T13:21:41Z</time></trkpt><trkpt lat="42.96807209399105" lon="11.466909067349638"><ele>159.0</ele><time>2026-03-28T13:21:42Z</time></trkpt><trkpt lat="42.967989172001836" lon="11.466833405395972"><ele>156.0</ele><time>2026-03-28T13:21:43Z</time></trkpt><trkpt lat="42.967892866802146" lon="11.46676461045173"><ele>153.0</ele><time>2026-03-28T13:21:44Z</time></trkpt><trkpt lat="42.9677820884869" lon="11.466698758893841"><ele>150.0</ele><time>2026-03-28T13:21:45Z</time></trkpt><trkpt lat="42.96766082997424" lon="11.466639261870467"><ele>150.0</ele><time>2026-03-28T13:21:46Z</time></trkpt><trkpt lat="42.96754567194054" lon="11.466571818966283"><ele>150.0</ele><time>2026-03-28T13:21:47Z</time></trkpt><trkpt lat="42.96742708505675" lon="11.46650334911759"><ele>150.0</ele><time>2026-03-28T13:21:48Z</time></trkpt><trkpt lat="42.967310292279116" lon="11.466414462515585"><ele>150.0</ele><time>2026-03-28T13:21:49Z</time></trkpt><trkpt lat="42.96718816017064" lon="11.466342750154478"><ele>146.75</ele><time>2026-03-28T13:21:50Z</time></trkpt><trkpt lat="42.96706353608247" lon="11.466291948726543"><ele>143.5</ele><time>2026-03-28T13:21:51Z</time></trkpt><trkpt lat="42.966948103017025" lon="11.46622004581305"><ele>140.25</ele><time>2026-03-28T13:21:52Z</time></trkpt><trkpt lat="42.966832675771215" lon="11.466155707571637"><ele>137.0</ele><time>2026-03-28T13:21:53Z</time></trkpt><trkpt lat="42.96671927425963" lon="11.466087631716494"><ele>134.75</ele><time>2026-03-28T13:21:54Z</time></trkpt><trkpt lat="42.96659761833683" lon="11.466017769860896"><ele>132.5</ele><time>2026-03-28T13:21:55Z</time></trkpt><trkpt lat="42.96648108203172" lon="11.4659492085791"><ele>130.25</ele><time>2026-03-28T13:21:56Z</time></trkpt><trkpt lat="42.96637630623262" lon="11.465889492648097"><ele>128.0</ele><time>2026-03-28T13:21:57Z</time></trkpt><trkpt lat="42.966280831003495" lon="11.465838457195199"><ele>128.0</ele><time>2026-03-28T13:21:58Z</time></trkpt><trkpt lat="42.966192689824375" lon="11.465793513274203"><ele>128.0</ele><time>2026-03-28T13:21:59Z</time></trkpt><trkpt lat="42.96609494807405" lon="11.46577864889934"><ele>128.0</ele><time>2026-03-28T13:22:00Z</time></trkpt><trkpt lat="42.96598595404247" lon="11.465755298565742"><ele>128.0</ele><time>2026-03-28T13:22:01Z</time></trkpt><trkpt lat="42.96586198627877" lon="11.465763346887735"><ele>128.0</ele><time>2026-03-28T13:22:02Z</time></trkpt><trkpt lat="42.96573281115128" lon="11.465778410315302"><ele>127.60000000000001</ele><time>2026-03-28T13:22:03Z</time></trkpt><trkpt lat="42.9656149327167" lon="11.46581088130247"><ele>127.20000000000002</ele><time>2026-03-28T13:22:04Z</time></trkpt><trkpt lat="42.96550697520822" lon="11.465812841372248"><ele>126.8</ele><time>2026-03-28T13:22:05Z</time></trkpt><trkpt lat="42.96540438110154" lon="11.4658194589347"><ele>126.4</ele><time>2026-03-28T13:22:06Z</time></trkpt><trkpt lat="42.96530749751647" lon="11.465780659587086"><ele>126.0</ele><time>2026-03-28T13:22:07Z</time></trkpt><trkpt lat="42.965210384787355" lon="11.465756785721577"><ele>126.0</ele><time>2026-03-28T13:22:08Z</time></trkpt><trkpt lat="42.96512865926403" lon="11.465673030524771"><ele>126.0</ele><time>2026-03-28T13:22:09Z</time></trkpt><trkpt lat="42.965081844946546" lon="11.465559011668066"><ele>126.0</ele><time>2026-03-28T13:22:10Z</time></trkpt><trkpt lat="42.965049307949776" lon="11.465439127195525"><ele>126.0</ele><time>2026-03-28T13:22:11Z</time></trkpt><trkpt lat="42.96499350485858" lon="11.465312798103296"><ele>126.0</ele><time>2026-03-28T13:22:12Z</time></trkpt><trkpt lat="42.964955659932045" lon="11.465166265627408"><ele>125.5</ele><time>2026-03-28T13:22:13Z</time></trkpt><trkpt lat="42.96491874043803" lon="11.465021690668323"><ele>125.0</ele><time>2026-03-28T13:22:14Z</time></trkpt><trkpt lat="42.96488863364638" lon="11.464874357720195"><ele>124.5</ele><time>2026-03-28T13:22:15Z</time></trkpt><trkpt lat="42.96487245424753" lon="11.464703057119987"><ele>124.0</ele><time>2026-03-28T13:22:16Z</time></trkpt><trkpt lat="42.96486635177381" lon="11.464514315972178"><ele>123.66666666666667</ele><time>2026-03-28T13:22:17Z</time></trkpt><trkpt lat="42.96486331425114" lon="11.46429803496158"><ele>123.33333333333334</ele><time>2026-03-28T13:22:18Z</time></trkpt><trkpt lat="42.96485610022433" lon="11.464056345210519"><ele>123.0</ele><time>2026-03-28T13:22:19Z</time></trkpt><trkpt lat="42.96484583770882" lon="11.463798072538378"><ele>123.0</ele><time>2026-03-28T13:22:20Z</time></trkpt><trkpt lat="42.96483779224395" lon="11.46353538449799"><ele>123.0</ele><time>2026-03-28T13:22:21Z</time></trkpt><trkpt lat="42.96482578829221" lon="11.4632647885942"><ele>123.0</ele><time>2026-03-28T13:22:22.001Z</time></trkpt><trkpt lat="42.964812835655266" lon="11.463007007896355"><ele>123.66666666666666</ele><time>2026-03-28T13:22:23.001Z</time></trkpt><trkpt lat="42.96480137508094" lon="11.462753300415969"><ele>124.33333333333333</ele><time>2026-03-28T13:22:24.001Z</time></trkpt><trkpt lat="42.96479174839552" lon="11.462496931977768"><ele>125.0</ele><time>2026-03-28T13:22:25.001Z</time></trkpt><trkpt lat="42.9647828872274" lon="11.462235503149044"><ele>125.0</ele><time>2026-03-28T13:22:26.001Z</time></trkpt><trkpt lat="42.96477195960617" lon="11.461977548118654"><ele>125.0</ele><time>2026-03-28T13:22:27.001Z</time></trkpt><trkpt lat="42.96476155869034" lon="11.461738446297296"><ele>125.0</ele><time>2026-03-28T13:22:28.001Z</time></trkpt><trkpt lat="42.964749070960245" lon="11.461526589978096"><ele>125.0</ele><time>2026-03-28T13:22:29.001Z</time></trkpt><trkpt lat="42.964735306224945" lon="11.461316115747346"><ele>125.0</ele><time>2026-03-28T13:22:30.001Z</time></trkpt><trkpt lat="42.96472631290789" lon="11.461105559527246"><ele>125.0</ele><time>2026-03-28T13:22:31.001Z</time></trkpt><trkpt lat="42.96471984658499" lon="11.460894570818576"><ele>125.0</ele><time>2026-03-28T13:22:32.001Z</time></trkpt><trkpt lat="42.96472492115401" lon="11.460682484727867"><ele>125.0</ele><time>2026-03-28T13:22:33.001Z</time></trkpt><trkpt lat="42.96473759645817" lon="11.460469650327132"><ele>125.0</ele><time>2026-03-28T13:22:34.001Z</time></trkpt><trkpt lat="42.96475594657079" lon="11.460263639052808"><ele>125.0</ele><time>2026-03-28T13:22:35.001Z</time></trkpt><trkpt lat="42.964770643870686" lon="11.460064405576313"><ele>125.0</ele><time>2026-03-28T13:22:36.001Z</time></trkpt><trkpt lat="42.964777147463785" lon="11.459856380476428"><ele>125.0</ele><time>2026-03-28T13:22:37.001Z</time></trkpt><trkpt lat="42.964779999756225" lon="11.459633652764778"><ele>125.0</ele><time>2026-03-28T13:22:38.001Z</time></trkpt><trkpt lat="42.9647774232535" lon="11.459410272573944"><ele>125.0</ele><time>2026-03-28T13:22:39.001Z</time></trkpt><trkpt lat="42.964776001968964" lon="11.45918592749666"><ele>125.0</ele><time>2026-03-28T13:22:40.001Z</time></trkpt><trkpt lat="42.96477491214945" lon="11.458972871737137"><ele>125.33333333333333</ele><time>2026-03-28T13:22:41.001Z</time></trkpt><trkpt lat="42.96476621645164" lon="11.458774000579394"><ele>125.66666666666666</ele><time>2026-03-28T13:22:42.001Z</time></trkpt><trkpt lat="42.96475584886079" lon="11.45855739096069"><ele>126.0</ele><time>2026-03-28T13:22:43.001Z</time></trkpt><trkpt lat="42.96475363529043" lon="11.458345253491121"><ele>126.0</ele><time>2026-03-28T13:22:44.001Z</time></trkpt><trkpt lat="42.96474852270877" lon="11.458126134932916"><ele>126.0</ele><time>2026-03-28T13:22:45.001Z</time></trkpt><trkpt lat="42.96474162809853" lon="11.457910159064589"><ele>126.0</ele><time>2026-03-28T13:22:46.001Z</time></trkpt><trkpt lat="42.964738708552964" lon="11.457717492476187"><ele>125.75</ele><time>2026-03-28T13:22:47.001Z</time></trkpt><trkpt lat="42.96473615583485" lon="11.457529979578295"><ele>125.5</ele><time>2026-03-28T13:22:48.001Z</time></trkpt><trkpt lat="42.96473121865178" lon="11.457354137090045"><ele>125.25</ele><time>2026-03-28T13:22:49.001Z</time></trkpt><trkpt lat="42.964729448578886" lon="11.457178614960718"><ele>125.0</ele><time>2026-03-28T13:22:50.001Z</time></trkpt><trkpt lat="42.9647251846131" lon="11.456997413888839"><ele>124.5</ele><time>2026-03-28T13:22:51.001Z</time></trkpt><trkpt lat="42.96471943751704" lon="11.456814794626503"><ele>124.0</ele><time>2026-03-28T13:22:52.001Z</time></trkpt><trkpt lat="42.964712083120354" lon="11.456641381137969"><ele>123.5</ele><time>2026-03-28T13:22:53.001Z</time></trkpt><trkpt lat="42.96471643450503" lon="11.456480431647956"><ele>123.0</ele><time>2026-03-28T13:22:54.001Z</time></trkpt><trkpt lat="42.96472027246995" lon="11.456328190942864"><ele>122.60000000000001</ele><time>2026-03-28T13:22:55.001Z</time></trkpt><trkpt lat="42.9647468573254" lon="11.456168934038589"><ele>122.20000000000002</ele><time>2026-03-28T13:22:56.001Z</time></trkpt><trkpt lat="42.964790973793285" lon="11.45602205701071"><ele>121.8</ele><time>2026-03-28T13:22:57.001Z</time></trkpt><trkpt lat="42.96484052327007" lon="11.455892216928783"><ele>121.4</ele><time>2026-03-28T13:22:58.001Z</time></trkpt><trkpt lat="42.96488870832571" lon="11.455777397647024"><ele>121.0</ele><time>2026-03-28T13:22:59.001Z</time></trkpt><trkpt lat="42.96493016485634" lon="11.455674619552106"><ele>121.0</ele><time>2026-03-28T13:23:00.001Z</time></trkpt><trkpt lat="42.96494745301582" lon="11.455553246960667"><ele>121.0</ele><time>2026-03-28T13:23:01.001Z</time></trkpt><trkpt lat="42.96489365056769" lon="11.455412891764613"><ele>121.0</ele><time>2026-03-28T13:23:02.001Z</time></trkpt><trkpt lat="42.96485155426836" lon="11.455266547935938"><ele>121.0</ele><time>2026-03-28T13:23:03.001Z</time></trkpt><trkpt lat="42.96481071158461" lon="11.455105613414599"><ele>121.0</ele><time>2026-03-28T13:23:04.001Z</time></trkpt><trkpt lat="42.96477125606544" lon="11.454927567162214"><ele>120.75</ele><time>2026-03-28T13:23:05.001Z</time></trkpt><trkpt lat="42.96476281836817" lon="11.45473313601829"><ele>120.5</ele><time>2026-03-28T13:23:06.001Z</time></trkpt><trkpt lat="42.96475256721022" lon="11.454530482478194"><ele>120.25</ele><time>2026-03-28T13:23:07.001Z</time></trkpt><trkpt lat="42.96473908463748" lon="11.454322752349539"><ele>120.0</ele><time>2026-03-28T13:23:08.001Z</time></trkpt><trkpt lat="42.96475280116543" lon="11.45411257126228"><ele>119.75</ele><time>2026-03-28T13:23:09.001Z</time></trkpt><trkpt lat="42.96476473499542" lon="11.453902309881435"><ele>119.5</ele><time>2026-03-28T13:23:10.001Z</time></trkpt><trkpt lat="42.96477179876347" lon="11.453703700654115"><ele>119.25</ele><time>2026-03-28T13:23:11.001Z</time></trkpt><trkpt lat="42.964777768681756" lon="11.453525224810427"><ele>119.0</ele><time>2026-03-28T13:23:12.001Z</time></trkpt><trkpt lat="42.96478803181663" lon="11.45335437772459"><ele>118.5</ele><time>2026-03-28T13:23:13.001Z</time></trkpt><trkpt lat="42.96479912563022" lon="11.453185224879336"><ele>118.0</ele><time>2026-03-28T13:23:14.001Z</time></trkpt><trkpt lat="42.96480784059831" lon="11.453009042684336"><ele>117.5</ele><time>2026-03-28T13:23:15.001Z</time></trkpt><trkpt lat="42.964817585318855" lon="11.452840950170238"><ele>117.0</ele><time>2026-03-28T13:23:16.001Z</time></trkpt><trkpt lat="42.96484508869638" lon="11.452682409510567"><ele>117.0</ele><time>2026-03-28T13:23:17.001Z</time></trkpt><trkpt lat="42.96486842346452" lon="11.452548754732863"><ele>117.0</ele><time>2026-03-28T13:23:18.001Z</time></trkpt><trkpt lat="42.96492137318088" lon="11.452421726342992"><ele>117.0</ele><time>2026-03-28T13:23:19.001Z</time></trkpt><trkpt lat="42.96499756866867" lon="11.452287590747595"><ele>117.0</ele><time>2026-03-28T13:23:20.001Z</time></trkpt><trkpt lat="42.96509031627609" lon="11.452161243696098"><ele>119.66666666666666</ele><time>2026-03-28T13:23:21.001Z</time></trkpt><trkpt lat="42.96519849043303" lon="11.452013280452277"><ele>122.33333333333333</ele><time>2026-03-28T13:23:22.001Z</time></trkpt><trkpt lat="42.965318008245994" lon="11.451843023507411"><ele>125.0</ele><time>2026-03-28T13:23:23.001Z</time></trkpt><trkpt lat="42.96542636470708" lon="11.451674482814994"><ele>125.0</ele><time>2026-03-28T13:23:24.001Z</time></trkpt><trkpt lat="42.965532507540054" lon="11.451518990232229"><ele>125.0</ele><time>2026-03-28T13:23:25.001Z</time></trkpt><trkpt lat="42.96563419463148" lon="11.451373954457825"><ele>125.0</ele><time>2026-03-28T13:23:26.001Z</time></trkpt><trkpt lat="42.965743707630814" lon="11.451218307590727"><ele>125.66666666666666</ele><time>2026-03-28T13:23:27.001Z</time></trkpt><trkpt lat="42.9658713116495" lon="11.451062386274307"><ele>126.33333333333334</ele><time>2026-03-28T13:23:28.001Z</time></trkpt><trkpt lat="42.96599918060371" lon="11.450901034740758"><ele>127.0</ele><time>2026-03-28T13:23:29.001Z</time></trkpt><trkpt lat="42.966113381615635" lon="11.450753043674712"><ele>127.0</ele><time>2026-03-28T13:23:30.001Z</time></trkpt><trkpt lat="42.96622415802753" lon="11.450635377989798"><ele>127.0</ele><time>2026-03-28T13:23:31.001Z</time></trkpt><trkpt lat="42.96632071269738" lon="11.450516727708058"><ele>127.0</ele><time>2026-03-28T13:23:32.001Z</time></trkpt><trkpt lat="42.96641377851274" lon="11.45040434367811"><ele>127.0</ele><time>2026-03-28T13:23:33.001Z</time></trkpt><trkpt lat="42.96650131137062" lon="11.450275907243016"><ele>125.0</ele><time>2026-03-28T13:23:34.001Z</time></trkpt><trkpt lat="42.96657431731951" lon="11.450128386996854"><ele>123.0</ele><time>2026-03-28T13:23:35.001Z</time></trkpt><trkpt lat="42.96664192089937" lon="11.449965933196403"><ele>121.0</ele><time>2026-03-28T13:23:36.001Z</time></trkpt><trkpt lat="42.96671049642229" lon="11.449792460938122"><ele>119.0</ele><time>2026-03-28T13:23:37Z</time></trkpt><trkpt lat="42.96677373205812" lon="11.449636882743782"><ele>122.75</ele><time>2026-03-28T13:23:38Z</time></trkpt><trkpt lat="42.96682808945835" lon="11.449489429174733"><ele>126.5</ele><time>2026-03-28T13:23:39Z</time></trkpt><trkpt lat="42.96687382008214" lon="11.449348313177527"><ele>130.25</ele><time>2026-03-28T13:23:40Z</time></trkpt><trkpt lat="42.9669032824815" lon="11.449209057265007"><ele>134.0</ele><time>2026-03-28T13:23:41Z</time></trkpt><trkpt lat="42.96691084517416" lon="11.449057206397717"><ele>134.0</ele><time>2026-03-28T13:23:42Z</time></trkpt><trkpt lat="42.96689132393571" lon="11.4488953842961"><ele>134.0</ele><time>2026-03-28T13:23:43Z</time></trkpt><trkpt lat="42.96688819062268" lon="11.448716612040068"><ele>134.0</ele><time>2026-03-28T13:23:44Z</time></trkpt><trkpt lat="42.96686534415489" lon="11.448514174539882"><ele>134.0</ele><time>2026-03-28T13:23:45Z</time></trkpt><trkpt lat="42.96683614123777" lon="11.448306230926262"><ele>133.25</ele><time>2026-03-28T13:23:46Z</time></trkpt><trkpt lat="42.966805877683285" lon="11.448090734924678"><ele>132.5</ele><time>2026-03-28T13:23:47Z</time></trkpt><trkpt lat="42.96676785874772" lon="11.447896684657268"><ele>131.75</ele><time>2026-03-28T13:23:48Z</time></trkpt><trkpt lat="42.96674030922624" lon="11.447718174294527"><ele>131.0</ele><time>2026-03-28T13:23:49Z</time></trkpt><trkpt lat="42.966713927356516" lon="11.447528270556955"><ele>128.75</ele><time>2026-03-28T13:23:50Z</time></trkpt><trkpt lat="42.96668477379574" lon="11.447324941613589"><ele>126.5</ele><time>2026-03-28T13:23:51Z</time></trkpt><trkpt lat="42.96666070006004" lon="11.447123161141219"><ele>124.25</ele><time>2026-03-28T13:23:52Z</time></trkpt><trkpt lat="42.966640402535425" lon="11.446928064677055"><ele>122.0</ele><time>2026-03-28T13:23:53Z</time></trkpt><trkpt lat="42.96663777346512" lon="11.446751707709168"><ele>122.0</ele><time>2026-03-28T13:23:54Z</time></trkpt><trkpt lat="42.96664193101918" lon="11.446585909422271"><ele>122.0</ele><time>2026-03-28T13:23:55Z</time></trkpt><trkpt lat="42.96664757914449" lon="11.446409864105739"><ele>122.0</ele><time>2026-03-28T13:23:56Z</time></trkpt><trkpt lat="42.96665667576247" lon="11.4462238901176"><ele>122.0</ele><time>2026-03-28T13:23:57Z</time></trkpt><trkpt lat="42.966683312658944" lon="11.446035581071351"><ele>122.75</ele><time>2026-03-28T13:23:58Z</time></trkpt><trkpt lat="42.96671641671864" lon="11.44584706075287"><ele>123.5</ele><time>2026-03-28T13:23:59Z</time></trkpt><trkpt lat="42.96675187090484" lon="11.445661222878984"><ele>124.25</ele><time>2026-03-28T13:24:00Z</time></trkpt><trkpt lat="42.966780537612884" lon="11.445503800744007"><ele>125.0</ele><time>2026-03-28T13:24:01Z</time></trkpt><trkpt lat="42.96681224212527" lon="11.445353475799486"><ele>125.0</ele><time>2026-03-28T13:24:02Z</time></trkpt><trkpt lat="42.96684422411659" lon="11.445189754414002"><ele>125.0</ele><time>2026-03-28T13:24:03Z</time></trkpt><trkpt lat="42.96686932345027" lon="11.445037506563414"><ele>125.0</ele><time>2026-03-28T13:24:04Z</time></trkpt><trkpt lat="42.966890755302686" lon="11.444900056709658"><ele>125.0</ele><time>2026-03-28T13:24:05Z</time></trkpt><trkpt lat="42.966944620021614" lon="11.444771482250848"><ele>125.0</ele><time>2026-03-28T13:24:06Z</time></trkpt><trkpt lat="42.96693004455529" lon="11.444594594153584"><ele>124.4</ele><time>2026-03-28T13:24:07Z</time></trkpt><trkpt lat="42.966942752444616" lon="11.444429703535555"><ele>123.8</ele><time>2026-03-28T13:24:08Z</time></trkpt><trkpt lat="42.9669600487931" lon="11.44428818909809"><ele>123.19999999999999</ele><time>2026-03-28T13:24:09Z</time></trkpt><trkpt lat="42.96697615218317" lon="11.444160382737097"><ele>122.6</ele><time>2026-03-28T13:24:10Z</time></trkpt><trkpt lat="42.966997646383966" lon="11.444000201998113"><ele>122.0</ele><time>2026-03-28T13:24:11Z</time></trkpt><trkpt lat="42.96702018830185" lon="11.44380899622473"><ele>124.0</ele><time>2026-03-28T13:24:12Z</time></trkpt><trkpt lat="42.96704090859842" lon="11.443596157255298"><ele>126.0</ele><time>2026-03-28T13:24:13Z</time></trkpt><trkpt lat="42.96705906131203" lon="11.443380451147922"><ele>128.0</ele><time>2026-03-28T13:24:14Z</time></trkpt><trkpt lat="42.96708552306178" lon="11.44315210292236"><ele>127.33333333333333</ele><time>2026-03-28T13:24:15Z</time></trkpt><trkpt lat="42.96710940467982" lon="11.442914047049628"><ele>126.66666666666666</ele><time>2026-03-28T13:24:16Z</time></trkpt><trkpt lat="42.96713336673906" lon="11.442697542874445"><ele>126.0</ele><time>2026-03-28T13:24:17Z</time></trkpt><trkpt lat="42.96715084468333" lon="11.442488625554212"><ele>126.0</ele><time>2026-03-28T13:24:18Z</time></trkpt><trkpt lat="42.96717847402596" lon="11.44229599310022"><ele>126.0</ele><time>2026-03-28T13:24:19Z</time></trkpt><trkpt lat="42.96720409853552" lon="11.442080968321733"><ele>126.0</ele><time>2026-03-28T13:24:20Z</time></trkpt><trkpt lat="42.967230799793306" lon="11.441880338239933"><ele>124.75</ele><time>2026-03-28T13:24:21Z</time></trkpt><trkpt lat="42.96726669379058" lon="11.441699209915285"><ele>123.5</ele><time>2026-03-28T13:24:22Z</time></trkpt><trkpt lat="42.96731617328846" lon="11.441535357543513"><ele>122.25</ele><time>2026-03-28T13:24:23Z</time></trkpt><trkpt lat="42.96738577835533" lon="11.44138652898271"><ele>121.0</ele><time>2026-03-28T13:24:24Z</time></trkpt><trkpt lat="42.96744141314023" lon="11.441256184381974"><ele>120.0</ele><time>2026-03-28T13:24:25Z</time></trkpt><trkpt lat="42.96747115934562" lon="11.441121078569756"><ele>119.0</ele><time>2026-03-28T13:24:26Z</time></trkpt><trkpt lat="42.96747494703842" lon="11.440971887243304"><ele>118.0</ele><time>2026-03-28T13:24:27Z</time></trkpt><trkpt lat="42.96745674614745" lon="11.440808181204869"><ele>117.0</ele><time>2026-03-28T13:24:28.001Z</time></trkpt><trkpt lat="42.967426618217935" lon="11.440648992495493"><ele>117.0</ele><time>2026-03-28T13:24:29.001Z</time></trkpt><trkpt lat="42.967412354349484" lon="11.440517451242442"><ele>117.0</ele><time>2026-03-28T13:24:30.001Z</time></trkpt><trkpt lat="42.96741235873333" lon="11.440361256917837"><ele>117.0</ele><time>2026-03-28T13:24:31.001Z</time></trkpt><trkpt lat="42.9674182907123" lon="11.440177130969431"><ele>117.0</ele><time>2026-03-28T13:24:32.001Z</time></trkpt><trkpt lat="42.96743249869817" lon="11.439990049259329"><ele>117.25</ele><time>2026-03-28T13:24:33.001Z</time></trkpt><trkpt lat="42.9674522845833" lon="11.439785008002774"><ele>117.5</ele><time>2026-03-28T13:24:34.001Z</time></trkpt><trkpt lat="42.96747909839399" lon="11.439588492452923"><ele>117.75</ele><time>2026-03-28T13:24:35.001Z</time></trkpt><trkpt lat="42.967499204014985" lon="11.439397569515702"><ele>118.0</ele><time>2026-03-28T13:24:36.001Z</time></trkpt><trkpt lat="42.967505134898815" lon="11.43920011722645"><ele>118.0</ele><time>2026-03-28T13:24:37.001Z</time></trkpt><trkpt lat="42.967503363139215" lon="11.438970502229202"><ele>118.0</ele><time>2026-03-28T13:24:38.001Z</time></trkpt><trkpt lat="42.967506896912624" lon="11.438729612378031"><ele>118.0</ele><time>2026-03-28T13:24:39.001Z</time></trkpt><trkpt lat="42.967500469439" lon="11.438519763220611"><ele>118.0</ele><time>2026-03-28T13:24:40.001Z</time></trkpt><trkpt lat="42.96750259234786" lon="11.438307457083074"><ele>118.0</ele><time>2026-03-28T13:24:41.001Z</time></trkpt><trkpt lat="42.96751012904156" lon="11.43808053103844"><ele>118.0</ele><time>2026-03-28T13:24:42.001Z</time></trkpt><trkpt lat="42.967527455373684" lon="11.437860235385974"><ele>123.5</ele><time>2026-03-28T13:24:43.001Z</time></trkpt><trkpt lat="42.96755031911405" lon="11.43765959892974"><ele>129.0</ele><time>2026-03-28T13:24:44.001Z</time></trkpt><trkpt lat="42.96757530185294" lon="11.437478460765112"><ele>134.5</ele><time>2026-03-28T13:24:45.001Z</time></trkpt><trkpt lat="42.967595744515314" lon="11.437311376819977"><ele>140.0</ele><time>2026-03-28T13:24:46.001Z</time></trkpt><trkpt lat="42.967589482271016" lon="11.437154345570471"><ele>139.0</ele><time>2026-03-28T13:24:47.001Z</time></trkpt><trkpt lat="42.967546036477515" lon="11.436972162341302"><ele>138.0</ele><time>2026-03-28T13:24:48.001Z</time></trkpt><trkpt lat="42.96749639007983" lon="11.436769264060974"><ele>137.0</ele><time>2026-03-28T13:24:49.001Z</time></trkpt><trkpt lat="42.96746648816477" lon="11.436570106416042"><ele>136.0</ele><time>2026-03-28T13:24:50.001Z</time></trkpt><trkpt lat="42.96745473034939" lon="11.436390327799435"><ele>132.0</ele><time>2026-03-28T13:24:51.001Z</time></trkpt><trkpt lat="42.9674360994525" lon="11.43622369656226"><ele>128.0</ele><time>2026-03-28T13:24:52.001Z</time></trkpt><trkpt lat="42.96741190512646" lon="11.436064637553725"><ele>124.0</ele><time>2026-03-28T13:24:53.001Z</time></trkpt><trkpt lat="42.96733499821717" lon="11.4359309503679"><ele>120.0</ele><time>2026-03-28T13:24:54.001Z</time></trkpt><trkpt lat="42.967244436488556" lon="11.435795968207726"><ele>120.0</ele><time>2026-03-28T13:24:55.001Z</time></trkpt><trkpt lat="42.96716258981655" lon="11.435665244642317"><ele>120.0</ele><time>2026-03-28T13:24:56.001Z</time></trkpt><trkpt lat="42.96710569889359" lon="11.43554244621141"><ele>120.0</ele><time>2026-03-28T13:24:57.001Z</time></trkpt><trkpt lat="42.96706699935357" lon="11.43540465852515"><ele>120.0</ele><time>2026-03-28T13:24:58.001Z</time></trkpt><trkpt lat="42.96702667111408" lon="11.435277521198792"><ele>120.0</ele><time>2026-03-28T13:24:59.001Z</time></trkpt><trkpt lat="42.96697823730477" lon="11.43515490684015"><ele>120.8</ele><time>2026-03-28T13:25:00.001Z</time></trkpt><trkpt lat="42.96691250364106" lon="11.435049742634941"><ele>121.6</ele><time>2026-03-28T13:25:01.001Z</time></trkpt><trkpt lat="42.96683972573971" lon="11.43496630695589"><ele>122.4</ele><time>2026-03-28T13:25:02.001Z</time></trkpt><trkpt lat="42.96677744526443" lon="11.4348707418628"><ele>123.2</ele><time>2026-03-28T13:25:03.001Z</time></trkpt><trkpt lat="42.966700600280085" lon="11.43478778684607"><ele>124.0</ele><time>2026-03-28T13:25:04.001Z</time></trkpt><trkpt lat="42.96662296057653" lon="11.434709336174656"><ele>122.66666666666667</ele><time>2026-03-28T13:25:05.001Z</time></trkpt><trkpt lat="42.96655385943566" lon="11.43464884422841"><ele>121.33333333333334</ele><time>2026-03-28T13:25:06.001Z</time></trkpt><trkpt lat="42.96650858124747" lon="11.434558914187829"><ele>120.0</ele><time>2026-03-28T13:25:07.001Z</time></trkpt><trkpt lat="42.966466180065915" lon="11.434456322024296"><ele>118.66666666666666</ele><time>2026-03-28T13:25:08.001Z</time></trkpt><trkpt lat="42.966433487185924" lon="11.434342819485785"><ele>117.33333333333333</ele><time>2026-03-28T13:25:09.001Z</time></trkpt><trkpt lat="42.966409016090594" lon="11.434222377119273"><ele>116.0</ele><time>2026-03-28T13:25:10.001Z</time></trkpt><trkpt lat="42.9663975919758" lon="11.43408168598931"><ele>116.0</ele><time>2026-03-28T13:25:11.001Z</time></trkpt><trkpt lat="42.96639226207223" lon="11.433920102883626"><ele>116.0</ele><time>2026-03-28T13:25:12.001Z</time></trkpt><trkpt lat="42.966398141717654" lon="11.433746921432524"><ele>116.0</ele><time>2026-03-28T13:25:13.001Z</time></trkpt><trkpt lat="42.96641480565721" lon="11.433566749342738"><ele>116.0</ele><time>2026-03-28T13:25:14.001Z</time></trkpt><trkpt lat="42.96643279431202" lon="11.433373513851897"><ele>115.0</ele><time>2026-03-28T13:25:15.001Z</time></trkpt><trkpt lat="42.96645518555415" lon="11.433163252124174"><ele>114.0</ele><time>2026-03-28T13:25:16.001Z</time></trkpt><trkpt lat="42.96649177253968" lon="11.432957137517937"><ele>113.0</ele><time>2026-03-28T13:25:17.001Z</time></trkpt><trkpt lat="42.96651368940304" lon="11.43275221792221"><ele>112.75</ele><time>2026-03-28T13:25:18.001Z</time></trkpt><trkpt lat="42.96652601324611" lon="11.432545533182184"><ele>112.5</ele><time>2026-03-28T13:25:19.001Z</time></trkpt><trkpt lat="42.96655109748973" lon="11.43233828841981"><ele>112.25</ele><time>2026-03-28T13:25:20.001Z</time></trkpt><trkpt lat="42.96657505183734" lon="11.432154873187354"><ele>112.0</ele><time>2026-03-28T13:25:21.001Z</time></trkpt><trkpt lat="42.966593870420965" lon="11.431980606069576"><ele>112.0</ele><time>2026-03-28T13:25:22.001Z</time></trkpt><trkpt lat="42.96660566533569" lon="11.431814993713871"><ele>112.0</ele><time>2026-03-28T13:25:23.001Z</time></trkpt><trkpt lat="42.966614104840424" lon="11.43164790983251"><ele>112.0</ele><time>2026-03-28T13:25:24.001Z</time></trkpt><trkpt lat="42.96661011929956" lon="11.431475715039936"><ele>112.0</ele><time>2026-03-28T13:25:25.001Z</time></trkpt><trkpt lat="42.966583699223044" lon="11.43129407281491"><ele>112.5</ele><time>2026-03-28T13:25:26.001Z</time></trkpt><trkpt lat="42.966544810432325" lon="11.431093579660798"><ele>113.0</ele><time>2026-03-28T13:25:27.001Z</time></trkpt><trkpt lat="42.966507206171435" lon="11.430899922805299"><ele>113.5</ele><time>2026-03-28T13:25:28.001Z</time></trkpt><trkpt lat="42.96647644422233" lon="11.43073284023869"><ele>114.0</ele><time>2026-03-28T13:25:29.001Z</time></trkpt><trkpt lat="42.966448422038255" lon="11.430569725785784"><ele>114.0</ele><time>2026-03-28T13:25:30.001Z</time></trkpt><trkpt lat="42.96642817925599" lon="11.430416788448895"><ele>114.0</ele><time>2026-03-28T13:25:31.001Z</time></trkpt><trkpt lat="42.96640865553812" lon="11.430279365199132"><ele>114.0</ele><time>2026-03-28T13:25:32.001Z</time></trkpt><trkpt lat="42.966395092317164" lon="11.430144740144076"><ele>114.0</ele><time>2026-03-28T13:25:33.001Z</time></trkpt><trkpt lat="42.966381142070645" lon="11.430011037293973"><ele>114.0</ele><time>2026-03-28T13:25:34.001Z</time></trkpt><trkpt lat="42.96636704358613" lon="11.429893040730736"><ele>114.0</ele><time>2026-03-28T13:25:35.001Z</time></trkpt><trkpt lat="42.96635979662016" lon="11.429778798320127"><ele>114.0</ele><time>2026-03-28T13:25:36.001Z</time></trkpt><trkpt lat="42.96635910025264" lon="11.42963659387514"><ele>114.0</ele><time>2026-03-28T13:25:37.001Z</time></trkpt><trkpt lat="42.96636672700978" lon="11.429480925838845"><ele>114.0</ele><time>2026-03-28T13:25:38.001Z</time></trkpt><trkpt lat="42.966387575510936" lon="11.429333538071466"><ele>114.0</ele><time>2026-03-28T13:25:39.001Z</time></trkpt><trkpt lat="42.96640899638254" lon="11.429196754080897"><ele>114.16666666666667</ele><time>2026-03-28T13:25:40.001Z</time></trkpt><trkpt lat="42.966428115193864" lon="11.42907826877526"><ele>114.33333333333334</ele><time>2026-03-28T13:25:41.001Z</time></trkpt><trkpt lat="42.96644375033179" lon="11.428955799602454"><ele>114.5</ele><time>2026-03-28T13:25:42.001Z</time></trkpt><trkpt lat="42.96645815584661" lon="11.428830291315164"><ele>114.66666666666667</ele><time>2026-03-28T13:25:43Z</time></trkpt><trkpt lat="42.966467770220575" lon="11.428721392085881"><ele>114.83333333333334</ele><time>2026-03-28T13:25:44Z</time></trkpt><trkpt lat="42.9664677474114" lon="11.428634924275011"><ele>115.0</ele><time>2026-03-28T13:25:45Z</time></trkpt><trkpt lat="42.96645742253869" lon="11.428484931381655"><ele>115.0</ele><time>2026-03-28T13:25:47Z</time></trkpt><trkpt lat="42.96644658418063" lon="11.428388356858568"><ele>115.0</ele><time>2026-03-28T13:25:49Z</time></trkpt><trkpt lat="42.9662959275489" lon="11.428399435978177"><ele>115.0</ele><time>2026-03-28T13:25:51Z</time></trkpt><trkpt lat="42.9661976202624" lon="11.428397874528637"><ele>115.0</ele><time>2026-03-28T13:25:52Z</time></trkpt><trkpt lat="42.96609047287184" lon="11.428399524949619"><ele>115.0</ele><time>2026-03-28T13:25:53Z</time></trkpt><trkpt lat="42.965973089390644" lon="11.428399524950176"><ele>113.25</ele><time>2026-03-28T13:25:54Z</time></trkpt><trkpt lat="42.96584109181219" lon="11.428398840240355"><ele>111.5</ele><time>2026-03-28T13:25:55Z</time></trkpt><trkpt lat="42.96572521145647" lon="11.428398384846172"><ele>109.75</ele><time>2026-03-28T13:25:56Z</time></trkpt><trkpt lat="42.96560345566429" lon="11.42839859895871"><ele>108.0</ele><time>2026-03-28T13:25:57Z</time></trkpt><trkpt lat="42.96548880436892" lon="11.428399128243974"><ele>108.0</ele><time>2026-03-28T13:25:58Z</time></trkpt><trkpt lat="42.96538765497862" lon="11.428399925764529"><ele>108.0</ele><time>2026-03-28T13:25:59Z</time></trkpt><trkpt lat="42.96529678337895" lon="11.42841541144278"><ele>108.0</ele><time>2026-03-28T13:26:00Z</time></trkpt><trkpt lat="42.9652126932962" lon="11.428417394396954"><ele>108.0</ele><time>2026-03-28T13:26:01Z</time></trkpt><trkpt lat="42.9651477323228" lon="11.428415681057903"><ele>108.0</ele><time>2026-03-28T13:26:02Z</time></trkpt><trkpt lat="42.9650731450958" lon="11.428418215592465"><ele>108.0</ele><time>2026-03-28T13:26:04Z</time></trkpt><trkpt lat="42.96499593917684" lon="11.428424484413402"><ele>108.0</ele><time>2026-03-28T13:26:07Z</time></trkpt><trkpt lat="42.96505934836993" lon="11.42853432025788"><ele>108.0</ele><time>2026-03-28T13:26:12Z</time></trkpt><trkpt lat="42.96513470362111" lon="11.428494764361407"><ele>108.0</ele><time>2026-03-28T13:26:14Z</time></trkpt><trkpt lat="42.96521132070443" lon="11.428467619941257"><ele>108.0</ele><time>2026-03-28T13:26:16Z</time></trkpt><trkpt lat="42.96531641043204" lon="11.4284558708451"><ele>108.0</ele><time>2026-03-28T13:26:18Z</time></trkpt><trkpt lat="42.96538070353431" lon="11.428443369877817"><ele>108.0</ele><time>2026-03-28T13:26:19Z</time></trkpt><trkpt lat="42.965453655326336" lon="11.428439183505168"><ele>108.0</ele><time>2026-03-28T13:26:20Z</time></trkpt><trkpt lat="42.965546278305176" lon="11.428439290817119"><ele>108.0</ele><time>2026-03-28T13:26:21Z</time></trkpt><trkpt lat="42.96563920325396" lon="11.428436514551946"><ele>108.0</ele><time>2026-03-28T13:26:22Z</time></trkpt><trkpt lat="42.965715485736766" lon="11.428439036378332"><ele>108.0</ele><time>2026-03-28T13:26:23Z</time></trkpt><trkpt lat="42.965795348515385" lon="11.428436843301231"><ele>108.0</ele><time>2026-03-28T13:26:24Z</time></trkpt><trkpt lat="42.9658897610648" lon="11.42843299834352"><ele>108.0</ele><time>2026-03-28T13:26:25Z</time></trkpt><trkpt lat="42.96599374164512" lon="11.428428234375566"><ele>109.4</ele><time>2026-03-28T13:26:26Z</time></trkpt><trkpt lat="42.96608496915836" lon="11.428425673061374"><ele>110.80000000000001</ele><time>2026-03-28T13:26:27Z</time></trkpt><trkpt lat="42.966159707537635" lon="11.428426047216627"><ele>112.2</ele><time>2026-03-28T13:26:28Z</time></trkpt><trkpt lat="42.9662733827476" lon="11.428429714541636"><ele>113.6</ele><time>2026-03-28T13:26:30Z</time></trkpt><trkpt lat="42.96638967370859" lon="11.42845063150611"><ele>115.0</ele><time>2026-03-28T13:26:33Z</time></trkpt><trkpt lat="42.966453365845496" lon="11.428505052702846"><ele>115.00000000000001</ele><time>2026-03-28T13:26:36Z</time></trkpt><trkpt lat="42.966474177524475" lon="11.428594910735834"><ele>115.0</ele><time>2026-03-28T13:26:38Z</time></trkpt><trkpt lat="42.9664746599657" lon="11.428719833432607"><ele>115.0</ele><time>2026-03-28T13:26:41Z</time></trkpt><trkpt lat="42.96644139213459" lon="11.428884815003585"><ele>115.0</ele><time>2026-03-28T13:26:43Z</time></trkpt><trkpt lat="42.96642335274271" lon="11.428990610262849"><ele>115.00000000000001</ele><time>2026-03-28T13:26:44Z</time></trkpt><trkpt lat="42.96639324731052" lon="11.429074682095072"><ele>115.0</ele><time>2026-03-28T13:26:45Z</time></trkpt><trkpt lat="42.96637954446706" lon="11.42915869970368"><ele>115.00000000000001</ele><time>2026-03-28T13:26:46Z</time></trkpt><trkpt lat="42.96636059888824" lon="11.429288659732034"><ele>115.0</ele><time>2026-03-28T13:26:48Z</time></trkpt><trkpt lat="42.966348954851696" lon="11.42937914210211"><ele>115.0</ele><time>2026-03-28T13:26:50.001Z</time></trkpt><trkpt lat="42.96635497489067" lon="11.42947337290937"><ele>115.0</ele><time>2026-03-28T13:26:52.001Z</time></trkpt><trkpt lat="42.96632674635205" lon="11.429597532208511"><ele>115.00000000000001</ele><time>2026-03-28T13:26:54.001Z</time></trkpt><trkpt lat="42.96632904989168" lon="11.429753305732282"><ele>115.0</ele><time>2026-03-28T13:26:56.001Z</time></trkpt><trkpt lat="42.966342209189726" lon="11.429916656557452"><ele>114.85714285714283</ele><time>2026-03-28T13:26:58.001Z</time></trkpt><trkpt lat="42.966350482520056" lon="11.430004155514718"><ele>114.71428571428571</ele><time>2026-03-28T13:26:59.001Z</time></trkpt><trkpt lat="42.966359456335645" lon="11.430090366965427"><ele>114.57142857142856</ele><time>2026-03-28T13:27:00.001Z</time></trkpt><trkpt lat="42.96636956200192" lon="11.430176683577596"><ele>114.42857142857142</ele><time>2026-03-28T13:27:01.001Z</time></trkpt><trkpt lat="42.966394867641874" lon="11.430264680435497"><ele>114.28571428571428</ele><time>2026-03-28T13:27:02.001Z</time></trkpt><trkpt lat="42.96639857084606" lon="11.43036192005928"><ele>114.14285714285714</ele><time>2026-03-28T13:27:03.001Z</time></trkpt><trkpt lat="42.966409080327516" lon="11.430454442031182"><ele>114.0</ele><time>2026-03-28T13:27:04.001Z</time></trkpt><trkpt lat="42.966427047265746" lon="11.430566726346184"><ele>114.0</ele><time>2026-03-28T13:27:06.001Z</time></trkpt><trkpt lat="42.966442093366176" lon="11.430657227285568"><ele>114.0</ele><time>2026-03-28T13:27:08.001Z</time></trkpt><trkpt lat="42.966453295220695" lon="11.43076043339169"><ele>114.0</ele><time>2026-03-28T13:27:11.001Z</time></trkpt><trkpt lat="42.96646746740166" lon="11.430847745839923"><ele>114.0</ele><time>2026-03-28T13:27:14.001Z</time></trkpt><trkpt lat="42.9664399731296" lon="11.430689869420435"><ele>114.0</ele><time>2026-03-28T13:27:22.001Z</time></trkpt><trkpt lat="42.966420789433094" lon="11.43057425548028"><ele>114.0</ele><time>2026-03-28T13:27:23.001Z</time></trkpt><trkpt lat="42.96640676386294" lon="11.430468004232674"><ele>114.0</ele><time>2026-03-28T13:27:24.001Z</time></trkpt><trkpt lat="42.966394278223966" lon="11.430303896435316"><ele>114.0</ele><time>2026-03-28T13:27:25.001Z</time></trkpt><trkpt lat="42.96637124125877" lon="11.43012465189854"><ele>114.0</ele><time>2026-03-28T13:27:26.001Z</time></trkpt><trkpt lat="42.96634221908348" lon="11.430005719168095"><ele>114.0</ele><time>2026-03-28T13:27:27.001Z</time></trkpt><trkpt lat="42.96633689813753" lon="11.42989769462299"><ele>114.0</ele><time>2026-03-28T13:27:28.001Z</time></trkpt><trkpt lat="42.96632446757024" lon="11.429791520952758"><ele>114.0</ele><time>2026-03-28T13:27:29.001Z</time></trkpt><trkpt lat="42.96631105444745" lon="11.429676954683762"><ele>114.0</ele><time>2026-03-28T13:27:30.001Z</time></trkpt><trkpt lat="42.96630817458335" lon="11.4295710439372"><ele>114.0</ele><time>2026-03-28T13:27:31.001Z</time></trkpt><trkpt lat="42.96629940388469" lon="11.429481256549614"><ele>114.0</ele><time>2026-03-28T13:27:32.001Z</time></trkpt><trkpt lat="42.96629706546409" lon="11.429393303454669"><ele>114.0</ele><time>2026-03-28T13:27:33.001Z</time></trkpt><trkpt lat="42.966300202133795" lon="11.429297277314523"><ele>114.0</ele><time>2026-03-28T13:27:34.001Z</time></trkpt><trkpt lat="42.96639802105029" lon="11.4291614570419"><ele>114.2</ele><time>2026-03-28T13:27:35.001Z</time></trkpt><trkpt lat="42.96641920918961" lon="11.429019444139158"><ele>114.4</ele><time>2026-03-28T13:27:36.001Z</time></trkpt><trkpt lat="42.96646475506113" lon="11.428881926176375"><ele>114.6</ele><time>2026-03-28T13:27:37.001Z</time></trkpt><trkpt lat="42.966470500212246" lon="11.428768317212736"><ele>114.8</ele><time>2026-03-28T13:27:38.001Z</time></trkpt><trkpt lat="42.96647532392876" lon="11.428672929529924"><ele>115.0</ele><time>2026-03-28T13:27:39.001Z</time></trkpt><trkpt lat="42.96648278103186" lon="11.428525467597447"><ele>114.99999999999999</ele><time>2026-03-28T13:27:41.001Z</time></trkpt><trkpt lat="42.966455970090635" lon="11.428446248058393"><ele>115.0</ele><time>2026-03-28T13:27:43.001Z</time></trkpt><trkpt lat="42.96646577289856" lon="11.42835707547905"><ele>114.99999999999999</ele><time>2026-03-28T13:27:46.001Z</time></trkpt><trkpt lat="42.96652860896644" lon="11.428363698459215"><ele>114.99999999999999</ele><time>2026-03-28T13:27:47.001Z</time></trkpt><trkpt lat="42.96658401748426" lon="11.428317983136173"><ele>115.0</ele><time>2026-03-28T13:27:48.001Z</time></trkpt><trkpt lat="42.966653004261694" lon="11.428258468144048"><ele>114.99999999999999</ele><time>2026-03-28T13:27:49Z</time></trkpt><trkpt lat="42.966723295002225" lon="11.428144234825867"><ele>114.99999999999999</ele><time>2026-03-28T13:27:50Z</time></trkpt><trkpt lat="42.966795284551" lon="11.428049948140398"><ele>116.6</ele><time>2026-03-28T13:27:51Z</time></trkpt><trkpt lat="42.9668500948788" lon="11.427958525877086"><ele>118.2</ele><time>2026-03-28T13:27:52Z</time></trkpt><trkpt lat="42.96690895405401" lon="11.427858890506233"><ele>119.80000000000001</ele><time>2026-03-28T13:27:53Z</time></trkpt><trkpt lat="42.966957088155354" lon="11.427742116684646"><ele>121.4</ele><time>2026-03-28T13:27:54Z</time></trkpt><trkpt lat="42.96702449287172" lon="11.427634345107304"><ele>123.0</ele><time>2026-03-28T13:27:55Z</time></trkpt><trkpt lat="42.96709408139789" lon="11.427521912641186"><ele>123.0</ele><time>2026-03-28T13:27:56Z</time></trkpt><trkpt lat="42.96716017502401" lon="11.427402001773803"><ele>123.00000000000001</ele><time>2026-03-28T13:27:57Z</time></trkpt><trkpt lat="42.96722532090627" lon="11.427296177761294"><ele>123.00000000000001</ele><time>2026-03-28T13:27:58Z</time></trkpt><trkpt lat="42.967288739126616" lon="11.427206535106523"><ele>123.0</ele><time>2026-03-28T13:27:59Z</time></trkpt><trkpt lat="42.967335666973995" lon="11.42713714450819"><ele>123.0</ele><time>2026-03-28T13:28:00Z</time></trkpt><trkpt lat="42.96740100025166" lon="11.427043547449204"><ele>123.0</ele><time>2026-03-28T13:28:02Z</time></trkpt><trkpt lat="42.96752318210958" lon="11.427178362538577"><ele>123.00000000000001</ele><time>2026-03-28T13:28:07Z</time></trkpt><trkpt lat="42.96753380809254" lon="11.427266167933228"><ele>123.00000000000001</ele><time>2026-03-28T13:28:08Z</time></trkpt><trkpt lat="42.96757025032655" lon="11.427405136477924"><ele>123.0</ele><time>2026-03-28T13:28:10Z</time></trkpt><trkpt lat="42.967584152263534" lon="11.427498118417953"><ele>123.0</ele><time>2026-03-28T13:28:12Z</time></trkpt><trkpt lat="42.967600395982004" lon="11.427599244557388"><ele>126.4</ele><time>2026-03-28T13:28:15Z</time></trkpt><trkpt lat="42.967612441527876" lon="11.427725156126048"><ele>129.8</ele><time>2026-03-28T13:29:24.001Z</time></trkpt><trkpt lat="42.96762281473656" lon="11.427828153193392"><ele>133.2</ele><time>2026-03-28T13:29:25.001Z</time></trkpt><trkpt lat="42.96764330079915" lon="11.427974941501429"><ele>136.6</ele><time>2026-03-28T13:29:26.001Z</time></trkpt><trkpt lat="42.96766419049754" lon="11.428119974279292"><ele>140.0</ele><time>2026-03-28T13:29:27.001Z</time></trkpt><trkpt lat="42.96770380143471" lon="11.428280123552977"><ele>140.25</ele><time>2026-03-28T13:29:28.001Z</time></trkpt><trkpt lat="42.9677181201945" lon="11.428481673310191"><ele>140.5</ele><time>2026-03-28T13:29:29.001Z</time></trkpt><trkpt lat="42.96775223049613" lon="11.428684561878367"><ele>140.75</ele><time>2026-03-28T13:29:30.001Z</time></trkpt><trkpt lat="42.96779020124002" lon="11.428844201879983"><ele>141.0</ele><time>2026-03-28T13:29:31.001Z</time></trkpt><trkpt lat="42.967840016652396" lon="11.429008771899618"><ele>141.0</ele><time>2026-03-28T13:29:32.001Z</time></trkpt><trkpt lat="42.96792559239286" lon="11.4291773267258"><ele>141.0</ele><time>2026-03-28T13:29:33.001Z</time></trkpt><trkpt lat="42.96805878764747" lon="11.429290946435579"><ele>141.0</ele><time>2026-03-28T13:29:34.001Z</time></trkpt><trkpt lat="42.96820356708048" lon="11.429441710195084"><ele>141.0</ele><time>2026-03-28T13:29:35.001Z</time></trkpt><trkpt lat="42.96833296783279" lon="11.429544820414627"><ele>141.0</ele><time>2026-03-28T13:29:36.001Z</time></trkpt><trkpt lat="42.96843168891486" lon="11.429670615530602"><ele>141.0</ele><time>2026-03-28T13:29:37.001Z</time></trkpt><trkpt lat="42.96850994506387" lon="11.42982179705077"><ele>141.0</ele><time>2026-03-28T13:29:38.001Z</time></trkpt><trkpt lat="42.96853659272057" lon="11.42999889370225"><ele>143.0</ele><time>2026-03-28T13:29:39.001Z</time></trkpt><trkpt lat="42.96853485949249" lon="11.430194450293541"><ele>145.0</ele><time>2026-03-28T13:29:40.001Z</time></trkpt><trkpt lat="42.96853885039287" lon="11.430365438299065"><ele>147.0</ele><time>2026-03-28T13:29:41.001Z</time></trkpt><trkpt lat="42.96851884016692" lon="11.430602261700495"><ele>149.0</ele><time>2026-03-28T13:29:42.001Z</time></trkpt><trkpt lat="42.9684966933495" lon="11.430858078252967"><ele>150.5</ele><time>2026-03-28T13:29:43.001Z</time></trkpt><trkpt lat="42.968477160084554" lon="11.431061569495384"><ele>152.0</ele><time>2026-03-28T13:29:44.001Z</time></trkpt><trkpt lat="42.96846998431204" lon="11.43125790003884"><ele>153.5</ele><time>2026-03-28T13:29:45.001Z</time></trkpt><trkpt lat="42.96844747084206" lon="11.43145816707481"><ele>155.0</ele><time>2026-03-28T13:29:46.001Z</time></trkpt><trkpt lat="42.968424965140855" lon="11.431666984786423"><ele>155.5</ele><time>2026-03-28T13:29:47.001Z</time></trkpt><trkpt lat="42.968411280079835" lon="11.431856742942177"><ele>156.0</ele><time>2026-03-28T13:29:48.001Z</time></trkpt><trkpt lat="42.96841891651328" lon="11.43204518444041"><ele>156.5</ele><time>2026-03-28T13:29:49.001Z</time></trkpt><trkpt lat="42.96845017374277" lon="11.432241905689862"><ele>157.0</ele><time>2026-03-28T13:29:50.001Z</time></trkpt><trkpt lat="42.96850797066899" lon="11.432427342527273"><ele>157.0</ele><time>2026-03-28T13:29:51.001Z</time></trkpt><trkpt lat="42.96859509270273" lon="11.432588544960232"><ele>157.0</ele><time>2026-03-28T13:29:52.001Z</time></trkpt><trkpt lat="42.968710997090106" lon="11.432719909361511"><ele>157.0</ele><time>2026-03-28T13:29:53.001Z</time></trkpt><trkpt lat="42.9688502367276" lon="11.432846853254134"><ele>156.33333333333334</ele><time>2026-03-28T13:29:54.001Z</time></trkpt><trkpt lat="42.968991156371494" lon="11.432973175976393"><ele>155.66666666666666</ele><time>2026-03-28T13:29:55Z</time></trkpt><trkpt lat="42.96911692240942" lon="11.433100868134796"><ele>155.0</ele><time>2026-03-28T13:29:56Z</time></trkpt><trkpt lat="42.96923378470096" lon="11.433233403440788"><ele>162.0</ele><time>2026-03-28T13:29:57Z</time></trkpt><trkpt lat="42.96936155859399" lon="11.433382847256732"><ele>169.0</ele><time>2026-03-28T13:29:58Z</time></trkpt><trkpt lat="42.96945924364566" lon="11.433572067825658"><ele>176.0</ele><time>2026-03-28T13:29:59Z</time></trkpt><trkpt lat="42.96956639340061" lon="11.433779843895795"><ele>175.0</ele><time>2026-03-28T13:30:00Z</time></trkpt><trkpt lat="42.96964228567988" lon="11.433989685816393"><ele>174.0</ele><time>2026-03-28T13:30:01Z</time></trkpt><trkpt lat="42.96971207780967" lon="11.434163222730746"><ele>173.0</ele><time>2026-03-28T13:30:02Z</time></trkpt><trkpt lat="42.96978234384205" lon="11.434316906191572"><ele>172.0</ele><time>2026-03-28T13:30:03Z</time></trkpt><trkpt lat="42.96988831391298" lon="11.434415014305168"><ele>176.0</ele><time>2026-03-28T13:30:04Z</time></trkpt><trkpt lat="42.970032061016134" lon="11.434461544913708"><ele>180.0</ele><time>2026-03-28T13:30:05Z</time></trkpt><trkpt lat="42.970198028366845" lon="11.434456509509014"><ele>184.0</ele><time>2026-03-28T13:30:06Z</time></trkpt><trkpt lat="42.97037472334694" lon="11.434425112034699"><ele>184.0</ele><time>2026-03-28T13:30:07Z</time></trkpt><trkpt lat="42.97055459526365" lon="11.43440323251834"><ele>184.0</ele><time>2026-03-28T13:30:08Z</time></trkpt><trkpt lat="42.97071179409095" lon="11.434399769537817"><ele>184.0</ele><time>2026-03-28T13:30:09Z</time></trkpt><trkpt lat="42.970841660281465" lon="11.434443917994399"><ele>186.25</ele><time>2026-03-28T13:30:10Z</time></trkpt><trkpt lat="42.97095992129661" lon="11.434475284493919"><ele>188.5</ele><time>2026-03-28T13:30:11Z</time></trkpt><trkpt lat="42.97108673877109" lon="11.43454439073"><ele>190.75</ele><time>2026-03-28T13:30:12Z</time></trkpt><trkpt lat="42.971243292931696" lon="11.434627304174501"><ele>193.0</ele><time>2026-03-28T13:30:13Z</time></trkpt><trkpt lat="42.971444131838716" lon="11.434692240778201"><ele>185.0</ele><time>2026-03-28T13:30:14Z</time></trkpt><trkpt lat="42.97167666368124" lon="11.434725364473437"><ele>177.0</ele><time>2026-03-28T13:30:15Z</time></trkpt><trkpt lat="42.97191202848556" lon="11.434740039733489"><ele>177.0</ele><time>2026-03-28T13:30:16Z</time></trkpt><trkpt lat="42.97211993990381" lon="11.434744576149512"><ele>177.0</ele><time>2026-03-28T13:30:17Z</time></trkpt><trkpt lat="42.97230726815821" lon="11.43474234205156"><ele>177.0</ele><time>2026-03-28T13:30:18Z</time></trkpt><trkpt lat="42.97248221263254" lon="11.434693588820847"><ele>179.66666666666666</ele><time>2026-03-28T13:30:19Z</time></trkpt><trkpt lat="42.972657489751896" lon="11.43456734302637"><ele>182.33333333333331</ele><time>2026-03-28T13:30:20Z</time></trkpt><trkpt lat="42.97284927266591" lon="11.434396655570566"><ele>185.0</ele><time>2026-03-28T13:30:21Z</time></trkpt><trkpt lat="42.97307190988189" lon="11.434236881272161"><ele>185.0</ele><time>2026-03-28T13:30:22Z</time></trkpt><trkpt lat="42.97329495256418" lon="11.434035984682884"><ele>185.0</ele><time>2026-03-28T13:30:23Z</time></trkpt><trkpt lat="42.97354346572379" lon="11.433848931891935"><ele>189.0</ele><time>2026-03-28T13:30:24Z</time></trkpt><trkpt lat="42.97378836804702" lon="11.43365634261314"><ele>193.0</ele><time>2026-03-28T13:30:25Z</time></trkpt><trkpt lat="42.974009995675075" lon="11.433506802893522"><ele>191.0</ele><time>2026-03-28T13:30:26Z</time></trkpt><trkpt lat="42.97420682867928" lon="11.433369837534725"><ele>189.0</ele><time>2026-03-28T13:30:27Z</time></trkpt><trkpt lat="42.97439469860871" lon="11.433258647247293"><ele>187.0</ele><time>2026-03-28T13:30:28Z</time></trkpt><trkpt lat="42.97457285826615" lon="11.43313662879146"><ele>187.0</ele><time>2026-03-28T13:30:29Z</time></trkpt><trkpt lat="42.974739214804174" lon="11.433032817260111"><ele>187.0</ele><time>2026-03-28T13:30:30Z</time></trkpt><trkpt lat="42.9748749950847" lon="11.432908555905215"><ele>187.0</ele><time>2026-03-28T13:30:31Z</time></trkpt><trkpt lat="42.974970400754515" lon="11.432744388212546"><ele>189.33333333333334</ele><time>2026-03-28T13:30:32Z</time></trkpt><trkpt lat="42.975029561840124" lon="11.432531547498613"><ele>191.66666666666669</ele><time>2026-03-28T13:30:33Z</time></trkpt><trkpt lat="42.97507683143051" lon="11.432282085905413"><ele>194.0</ele><time>2026-03-28T13:30:34Z</time></trkpt><trkpt lat="42.97515532726506" lon="11.432040269808475"><ele>195.33333333333334</ele><time>2026-03-28T13:30:35Z</time></trkpt><trkpt lat="42.97524206617415" lon="11.431861429041804"><ele>196.66666666666669</ele><time>2026-03-28T13:30:36Z</time></trkpt><trkpt lat="42.97536499308655" lon="11.43171491798304"><ele>198.0</ele><time>2026-03-28T13:30:37Z</time></trkpt><trkpt lat="42.9755368450539" lon="11.431554047599814"><ele>198.0</ele><time>2026-03-28T13:30:38Z</time></trkpt><trkpt lat="42.97572855310418" lon="11.431354433216226"><ele>198.0</ele><time>2026-03-28T13:30:39Z</time></trkpt><trkpt lat="42.97592973990992" lon="11.431173787707667"><ele>199.33333333333331</ele><time>2026-03-28T13:30:40Z</time></trkpt><trkpt lat="42.97609775786227" lon="11.431015906624582"><ele>200.66666666666666</ele><time>2026-03-28T13:30:41Z</time></trkpt><trkpt lat="42.97625433421295" lon="11.430872425936924"><ele>202.0</ele><time>2026-03-28T13:30:42Z</time></trkpt><trkpt lat="42.976414843193" lon="11.430732170300947"><ele>202.0</ele><time>2026-03-28T13:30:43Z</time></trkpt><trkpt lat="42.97656891343074" lon="11.430606704168447"><ele>202.0</ele><time>2026-03-28T13:30:44Z</time></trkpt><trkpt lat="42.97675768293414" lon="11.430501053592986"><ele>202.0</ele><time>2026-03-28T13:30:45Z</time></trkpt><trkpt lat="42.976977109045414" lon="11.430457712913139"><ele>204.33333333333331</ele><time>2026-03-28T13:30:46Z</time></trkpt><trkpt lat="42.97718933940486" lon="11.430431108614012"><ele>206.66666666666669</ele><time>2026-03-28T13:30:47Z</time></trkpt><trkpt lat="42.97738954990645" lon="11.430450311811283"><ele>209.0</ele><time>2026-03-28T13:30:48Z</time></trkpt><trkpt lat="42.977580509294384" lon="11.430498491584872"><ele>209.66666666666669</ele><time>2026-03-28T13:30:49Z</time></trkpt><trkpt lat="42.977758873298406" lon="11.430576293441602"><ele>210.33333333333331</ele><time>2026-03-28T13:30:50Z</time></trkpt><trkpt lat="42.97793090780578" lon="11.430643391666601"><ele>211.0</ele><time>2026-03-28T13:30:51.001Z</time></trkpt><trkpt lat="42.97809604850513" lon="11.43073512116745"><ele>211.0</ele><time>2026-03-28T13:30:52.001Z</time></trkpt><trkpt lat="42.9782939042448" lon="11.430815218759415"><ele>211.0</ele><time>2026-03-28T13:30:53.001Z</time></trkpt><trkpt lat="42.97851046979957" lon="11.430906471914538"><ele>211.0</ele><time>2026-03-28T13:30:54.001Z</time></trkpt><trkpt lat="42.978712412068646" lon="11.431000980903931"><ele>211.33333333333331</ele><time>2026-03-28T13:30:55.001Z</time></trkpt><trkpt lat="42.97889385186452" lon="11.431080328955511"><ele>211.66666666666669</ele><time>2026-03-28T13:30:56.001Z</time></trkpt><trkpt lat="42.9790727414443" lon="11.431160690167653"><ele>212.0</ele><time>2026-03-28T13:30:57.001Z</time></trkpt><trkpt lat="42.979266340722965" lon="11.431252769610587"><ele>211.0</ele><time>2026-03-28T13:30:58.001Z</time></trkpt><trkpt lat="42.97947878172057" lon="11.43134987250303"><ele>210.0</ele><time>2026-03-28T13:30:59.001Z</time></trkpt><trkpt lat="42.979691491815316" lon="11.43144490906345"><ele>209.0</ele><time>2026-03-28T13:31:00.001Z</time></trkpt><trkpt lat="42.9799091885336" lon="11.431543347567565"><ele>209.0</ele><time>2026-03-28T13:31:01.001Z</time></trkpt><trkpt lat="42.98014376264137" lon="11.43165182154748"><ele>209.0</ele><time>2026-03-28T13:31:02.001Z</time></trkpt><trkpt lat="42.98037676214004" lon="11.431757824691902"><ele>209.0</ele><time>2026-03-28T13:31:03.001Z</time></trkpt><trkpt lat="42.98059153505002" lon="11.431857225050335"><ele>209.0</ele><time>2026-03-28T13:31:04.001Z</time></trkpt><trkpt lat="42.98080912336694" lon="11.431956854253924"><ele>208.5</ele><time>2026-03-28T13:31:05.001Z</time></trkpt><trkpt lat="42.98103049878213" lon="11.432062864979452"><ele>208.0</ele><time>2026-03-28T13:31:06.001Z</time></trkpt><trkpt lat="42.98123897850397" lon="11.432159668053094"><ele>206.0</ele><time>2026-03-28T13:31:07.001Z</time></trkpt><trkpt lat="42.981448582756826" lon="11.43225157395441"><ele>204.0</ele><time>2026-03-28T13:31:08.001Z</time></trkpt><trkpt lat="42.98167329686135" lon="11.432350463418796"><ele>203.5</ele><time>2026-03-28T13:31:09.001Z</time></trkpt><trkpt lat="42.98191308745146" lon="11.432455370603565"><ele>203.0</ele><time>2026-03-28T13:31:10.001Z</time></trkpt><trkpt lat="42.982169960896904" lon="11.432568108956167"><ele>203.0</ele><time>2026-03-28T13:31:11.001Z</time></trkpt><trkpt lat="42.982417801574265" lon="11.432686522501244"><ele>203.0</ele><time>2026-03-28T13:31:12.001Z</time></trkpt><trkpt lat="42.98265456541901" lon="11.43279988652379"><ele>202.0</ele><time>2026-03-28T13:31:13.001Z</time></trkpt><trkpt lat="42.98288020813984" lon="11.432903419597118"><ele>201.0</ele><time>2026-03-28T13:31:14.001Z</time></trkpt><trkpt lat="42.983105974067726" lon="11.433004805957554"><ele>198.5</ele><time>2026-03-28T13:31:15.001Z</time></trkpt><trkpt lat="42.983335849117815" lon="11.433105174067489"><ele>196.0</ele><time>2026-03-28T13:31:16.001Z</time></trkpt><trkpt lat="42.98355457204502" lon="11.433203018798999"><ele>195.66666666666666</ele><time>2026-03-28T13:31:17.001Z</time></trkpt><trkpt lat="42.98375787634434" lon="11.433297012609426"><ele>195.33333333333331</ele><time>2026-03-28T13:31:18.001Z</time></trkpt><trkpt lat="42.98395471933899" lon="11.433408541290143"><ele>195.0</ele><time>2026-03-28T13:31:19.001Z</time></trkpt><trkpt lat="42.984134076643755" lon="11.433581810991413"><ele>195.0</ele><time>2026-03-28T13:31:20.001Z</time></trkpt><trkpt lat="42.98433038322013" lon="11.433745678455407"><ele>195.0</ele><time>2026-03-28T13:31:21.001Z</time></trkpt><trkpt lat="42.98450398411231" lon="11.433929291069202"><ele>195.0</ele><time>2026-03-28T13:31:22.001Z</time></trkpt><trkpt lat="42.98466298889574" lon="11.434088660459802"><ele>195.0</ele><time>2026-03-28T13:31:23.001Z</time></trkpt><trkpt lat="42.98481577932066" lon="11.434234315118157"><ele>195.0</ele><time>2026-03-28T13:31:24.001Z</time></trkpt><trkpt lat="42.984959652253615" lon="11.434366915932973"><ele>195.0</ele><time>2026-03-28T13:31:25.001Z</time></trkpt><trkpt lat="42.98508939059498" lon="11.434494443006686"><ele>196.75</ele><time>2026-03-28T13:31:26.001Z</time></trkpt><trkpt lat="42.98519856423892" lon="11.434617775549695"><ele>198.5</ele><time>2026-03-28T13:31:27.001Z</time></trkpt><trkpt lat="42.9852744320856" lon="11.434776045380854"><ele>200.25</ele><time>2026-03-28T13:31:28.001Z</time></trkpt><trkpt lat="42.985365800466234" lon="11.434970882504485"><ele>202.0</ele><time>2026-03-28T13:31:29.001Z</time></trkpt><trkpt lat="42.98543783775737" lon="11.435235722941238"><ele>203.5</ele><time>2026-03-28T13:31:30.001Z</time></trkpt><trkpt lat="42.98552134991997" lon="11.435543724036629"><ele>205.0</ele><time>2026-03-28T13:31:31.001Z</time></trkpt><trkpt lat="42.98561460371298" lon="11.43588436300092"><ele>205.0</ele><time>2026-03-28T13:31:32.001Z</time></trkpt><trkpt lat="42.98572091402296" lon="11.436253736082008"><ele>205.0</ele><time>2026-03-28T13:31:33.001Z</time></trkpt><trkpt lat="42.985833746777686" lon="11.436624784327925"><ele>213.0</ele><time>2026-03-28T13:31:34.001Z</time></trkpt><trkpt lat="42.98592976748115" lon="11.436948737572193"><ele>221.0</ele><time>2026-03-28T13:31:35.001Z</time></trkpt><trkpt lat="42.98601235599049" lon="11.43724065038763"><ele>221.0</ele><time>2026-03-28T13:31:36.001Z</time></trkpt><trkpt lat="42.986091223459454" lon="11.437512969435586"><ele>221.0</ele><time>2026-03-28T13:31:37.001Z</time></trkpt><trkpt lat="42.986171938174074" lon="11.437777628128977"><ele>221.0</ele><time>2026-03-28T13:31:38.001Z</time></trkpt><trkpt lat="42.98624861635862" lon="11.438041592980833"><ele>220.66666666666669</ele><time>2026-03-28T13:31:39.001Z</time></trkpt><trkpt lat="42.986323429669355" lon="11.438303984550773"><ele>220.33333333333331</ele><time>2026-03-28T13:31:40.001Z</time></trkpt><trkpt lat="42.9863952212264" lon="11.438551207683178"><ele>220.0</ele><time>2026-03-28T13:31:41.001Z</time></trkpt><trkpt lat="42.98647360213883" lon="11.438757048945773"><ele>219.33333333333331</ele><time>2026-03-28T13:31:42.001Z</time></trkpt><trkpt lat="42.98657147396269" lon="11.438923326391356"><ele>218.66666666666669</ele><time>2026-03-28T13:31:43.001Z</time></trkpt><trkpt lat="42.986701254589185" lon="11.439056583104637"><ele>218.0</ele><time>2026-03-28T13:31:44.001Z</time></trkpt><trkpt lat="42.986864807872266" lon="11.439143827648136"><ele>219.33333333333334</ele><time>2026-03-28T13:31:45.001Z</time></trkpt><trkpt lat="42.987045986072786" lon="11.439178418063674"><ele>220.66666666666669</ele><time>2026-03-28T13:31:46.001Z</time></trkpt><trkpt lat="42.98722652380643" lon="11.439159453301418"><ele>222.0</ele><time>2026-03-28T13:31:47.001Z</time></trkpt><trkpt lat="42.98743626145657" lon="11.439110178298622"><ele>223.0</ele><time>2026-03-28T13:31:48.001Z</time></trkpt><trkpt lat="42.98766836737174" lon="11.439076405944775"><ele>224.0</ele><time>2026-03-28T13:31:49.001Z</time></trkpt><trkpt lat="42.98789727218034" lon="11.439056040084573"><ele>224.0</ele><time>2026-03-28T13:31:50.001Z</time></trkpt><trkpt lat="42.988099743343724" lon="11.439041549348259"><ele>224.0</ele><time>2026-03-28T13:31:51.001Z</time></trkpt><trkpt lat="42.98829591827352" lon="11.439016716775422"><ele>224.0</ele><time>2026-03-28T13:31:52.001Z</time></trkpt><trkpt lat="42.9884843431186" lon="11.438994586924474"><ele>225.66666666666669</ele><time>2026-03-28T13:31:53.001Z</time></trkpt><trkpt lat="42.988660068704476" lon="11.438975173866712"><ele>227.33333333333331</ele><time>2026-03-28T13:31:54.001Z</time></trkpt><trkpt lat="42.988832901193994" lon="11.43897486095599"><ele>229.0</ele><time>2026-03-28T13:31:55.001Z</time></trkpt><trkpt lat="42.98902163558393" lon="11.439034175411267"><ele>230.66666666666666</ele><time>2026-03-28T13:31:56.001Z</time></trkpt><trkpt lat="42.989202416641376" lon="11.439030578035121"><ele>232.33333333333331</ele><time>2026-03-28T13:31:57.001Z</time></trkpt><trkpt lat="42.98938723139718" lon="11.439293887713637"><ele>234.0</ele><time>2026-03-28T13:31:58.001Z</time></trkpt><trkpt lat="42.98957404445706" lon="11.439469963365177"><ele>234.0</ele><time>2026-03-28T13:31:59.001Z</time></trkpt><trkpt lat="42.98977830892997" lon="11.43965185322386"><ele>234.0</ele><time>2026-03-28T13:32:00.001Z</time></trkpt><trkpt lat="42.98997977629751" lon="11.439827563818152"><ele>235.33333333333331</ele><time>2026-03-28T13:32:01Z</time></trkpt><trkpt lat="42.99015879110144" lon="11.439985100499971"><ele>236.66666666666666</ele><time>2026-03-28T13:32:02Z</time></trkpt><trkpt lat="42.99032294434378" lon="11.440138719910898"><ele>238.0</ele><time>2026-03-28T13:32:03Z</time></trkpt><trkpt lat="42.99049253463347" lon="11.440292754105025"><ele>238.0</ele><time>2026-03-28T13:32:04Z</time></trkpt><trkpt lat="42.990669457830336" lon="11.440447560084015"><ele>238.0</ele><time>2026-03-28T13:32:05Z</time></trkpt><trkpt lat="42.99084442620585" lon="11.44060108625678"><ele>238.0</ele><time>2026-03-28T13:32:06Z</time></trkpt><trkpt lat="42.99103455099149" lon="11.440748986249254"><ele>239.5</ele><time>2026-03-28T13:32:07Z</time></trkpt><trkpt lat="42.991249643699085" lon="11.440889118337063"><ele>241.0</ele><time>2026-03-28T13:32:08Z</time></trkpt><trkpt lat="42.99146639072814" lon="11.4410147590566"><ele>241.0</ele><time>2026-03-28T13:32:09Z</time></trkpt><trkpt lat="42.991668629977084" lon="11.44112618542905"><ele>241.0</ele><time>2026-03-28T13:32:10Z</time></trkpt><trkpt lat="42.991874973267855" lon="11.441243324760379"><ele>241.0</ele><time>2026-03-28T13:32:11Z</time></trkpt><trkpt lat="42.992081479282085" lon="11.441366798630785"><ele>243.5</ele><time>2026-03-28T13:32:12Z</time></trkpt><trkpt lat="42.99229062208563" lon="11.441490932447689"><ele>246.0</ele><time>2026-03-28T13:32:13Z</time></trkpt><trkpt lat="42.992510621970595" lon="11.441617975441511"><ele>248.5</ele><time>2026-03-28T13:32:14Z</time></trkpt><trkpt lat="42.992733417031744" lon="11.441749806423246"><ele>251.0</ele><time>2026-03-28T13:32:15Z</time></trkpt><trkpt lat="42.992961873303834" lon="11.441884580375993"><ele>251.0</ele><time>2026-03-28T13:32:16Z</time></trkpt><trkpt lat="42.99319734425756" lon="11.442016891625869"><ele>251.0</ele><time>2026-03-28T13:32:17Z</time></trkpt><trkpt lat="42.993400561245345" lon="11.442137890007233"><ele>252.0</ele><time>2026-03-28T13:32:18Z</time></trkpt><trkpt lat="42.993587022079595" lon="11.442246203725785"><ele>253.0</ele><time>2026-03-28T13:32:19Z</time></trkpt><trkpt lat="42.99377048608558" lon="11.442341003856315"><ele>254.0</ele><time>2026-03-28T13:32:20Z</time></trkpt><trkpt lat="42.993957003597835" lon="11.44240006312269"><ele>255.5</ele><time>2026-03-28T13:32:21Z</time></trkpt><trkpt lat="42.994179017582766" lon="11.442405982748342"><ele>257.0</ele><time>2026-03-28T13:32:22Z</time></trkpt><trkpt lat="42.994419377820826" lon="11.442389737988004"><ele>257.0</ele><time>2026-03-28T13:32:23Z</time></trkpt><trkpt lat="42.99466907818747" lon="11.442361875297319"><ele>257.0</ele><time>2026-03-28T13:32:24Z</time></trkpt><trkpt lat="42.99490917552212" lon="11.442338678292238"><ele>259.33333333333337</ele><time>2026-03-28T13:32:25Z</time></trkpt><trkpt lat="42.99512341955813" lon="11.442322749454714"><ele>261.6666666666667</ele><time>2026-03-28T13:32:26Z</time></trkpt><trkpt lat="42.99531890466307" lon="11.442315535456101"><ele>264.0</ele><time>2026-03-28T13:32:27Z</time></trkpt><trkpt lat="42.99549617196806" lon="11.442313130643287"><ele>264.0</ele><time>2026-03-28T13:32:28Z</time></trkpt><trkpt lat="42.995659553270755" lon="11.442305200121744"><ele>264.0</ele><time>2026-03-28T13:32:29Z</time></trkpt><trkpt lat="42.995811688282494" lon="11.442318890228572"><ele>264.0</ele><time>2026-03-28T13:32:30Z</time></trkpt><trkpt lat="42.995964851529756" lon="11.442393151588886"><ele>263.0</ele><time>2026-03-28T13:32:31Z</time></trkpt><trkpt lat="42.996112085724484" lon="11.44245757292014"><ele>262.0</ele><time>2026-03-28T13:32:32Z</time></trkpt><trkpt lat="42.99623203968276" lon="11.442616385341653"><ele>261.0</ele><time>2026-03-28T13:32:33Z</time></trkpt><trkpt lat="42.9963161304866" lon="11.44282811713659"><ele>262.6666666666667</ele><time>2026-03-28T13:32:34Z</time></trkpt><trkpt lat="42.996362894407476" lon="11.443074589448518"><ele>264.33333333333337</ele><time>2026-03-28T13:32:35Z</time></trkpt><trkpt lat="42.99637597690457" lon="11.443352380708694"><ele>266.0</ele><time>2026-03-28T13:32:36Z</time></trkpt><trkpt lat="42.99636589722928" lon="11.44367052454681"><ele>268.5</ele><time>2026-03-28T13:32:37Z</time></trkpt><trkpt lat="42.99636039661911" lon="11.444005089091272"><ele>271.0</ele><time>2026-03-28T13:32:38Z</time></trkpt><trkpt lat="42.99636741101319" lon="11.444317136149472"><ele>271.0</ele><time>2026-03-28T13:32:39Z</time></trkpt><trkpt lat="42.99637328545945" lon="11.444592487707277"><ele>271.0</ele><time>2026-03-28T13:32:40Z</time></trkpt><trkpt lat="42.996379348085526" lon="11.444873806773938"><ele>271.0</ele><time>2026-03-28T13:32:41Z</time></trkpt><trkpt lat="42.99638880315863" lon="11.445177695716644"><ele>273.66666666666663</ele><time>2026-03-28T13:32:42Z</time></trkpt><trkpt lat="42.996406270542344" lon="11.445479390186193"><ele>276.3333333333333</ele><time>2026-03-28T13:32:43Z</time></trkpt><trkpt lat="42.99641493330447" lon="11.44575669976709"><ele>279.0</ele><time>2026-03-28T13:32:44Z</time></trkpt><trkpt lat="42.99642492852559" lon="11.446023462852542"><ele>279.0</ele><time>2026-03-28T13:32:45Z</time></trkpt><trkpt lat="42.996439462157234" lon="11.44629410767997"><ele>279.0</ele><time>2026-03-28T13:32:46Z</time></trkpt><trkpt lat="42.99645424262895" lon="11.446579978018638"><ele>279.0</ele><time>2026-03-28T13:32:47Z</time></trkpt><trkpt lat="42.996466844464436" lon="11.44687829412778"><ele>282.0</ele><time>2026-03-28T13:32:48Z</time></trkpt><trkpt lat="42.99647607495162" lon="11.447147265848029"><ele>285.0</ele><time>2026-03-28T13:32:49Z</time></trkpt><trkpt lat="42.99647953754186" lon="11.447390846937164"><ele>288.0</ele><time>2026-03-28T13:32:50Z</time></trkpt><trkpt lat="42.99644301933265" lon="11.44764009696647"><ele>288.0</ele><time>2026-03-28T13:32:51Z</time></trkpt><trkpt lat="42.99636423039801" lon="11.447892930544658"><ele>288.0</ele><time>2026-03-28T13:32:52Z</time></trkpt><trkpt lat="42.99626537543346" lon="11.448119898192928"><ele>288.0</ele><time>2026-03-28T13:32:53Z</time></trkpt><trkpt lat="42.99616090529327" lon="11.448343350454357"><ele>291.3333333333333</ele><time>2026-03-28T13:32:54Z</time></trkpt><trkpt lat="42.996063989349" lon="11.448539030921857"><ele>294.66666666666663</ele><time>2026-03-28T13:32:55Z</time></trkpt><trkpt lat="42.99600081581118" lon="11.448723697711328"><ele>298.0</ele><time>2026-03-28T13:32:56Z</time></trkpt><trkpt lat="42.99595945104175" lon="11.448898266538869"><ele>300.0</ele><time>2026-03-28T13:32:57Z</time></trkpt><trkpt lat="42.99595737886618" lon="11.44909420942982"><ele>302.0</ele><time>2026-03-28T13:32:58Z</time></trkpt><trkpt lat="42.996001715524955" lon="11.44930281588197"><ele>304.0</ele><time>2026-03-28T13:32:59Z</time></trkpt><trkpt lat="42.99607746323034" lon="11.449505053208883"><ele>306.66666666666663</ele><time>2026-03-28T13:33:00Z</time></trkpt><trkpt lat="42.99618687533054" lon="11.449673729944793"><ele>309.3333333333333</ele><time>2026-03-28T13:33:01Z</time></trkpt><trkpt lat="42.9963376858264" lon="11.44982364570001"><ele>312.0</ele><time>2026-03-28T13:33:02Z</time></trkpt><trkpt lat="42.99648757628268" lon="11.449966443957095"><ele>312.0</ele><time>2026-03-28T13:33:03Z</time></trkpt><trkpt lat="42.9966165572561" lon="11.450091283780138"><ele>312.0</ele><time>2026-03-28T13:33:04Z</time></trkpt><trkpt lat="42.996767761970936" lon="11.450186799943646"><ele>312.0</ele><time>2026-03-28T13:33:05Z</time></trkpt><trkpt lat="42.99695265896233" lon="11.450223518411097"><ele>314.0</ele><time>2026-03-28T13:33:06Z</time></trkpt><trkpt lat="42.99714440360689" lon="11.450205002793973"><ele>316.0</ele><time>2026-03-28T13:33:07Z</time></trkpt><trkpt lat="42.99732564115519" lon="11.450157162205972"><ele>318.0</ele><time>2026-03-28T13:33:08Z</time></trkpt><trkpt lat="42.99749426683346" lon="11.450140096674765"><ele>320.6666666666667</ele><time>2026-03-28T13:33:09Z</time></trkpt><trkpt lat="42.997655918092995" lon="11.45011711661755"><ele>323.33333333333337</ele><time>2026-03-28T13:33:10.001Z</time></trkpt><trkpt lat="42.99781998897886" lon="11.450093792595833"><ele>326.0</ele><time>2026-03-28T13:33:11.001Z</time></trkpt><trkpt lat="42.99798962348085" lon="11.450068906150031"><ele>326.0</ele><time>2026-03-28T13:33:12.001Z</time></trkpt><trkpt lat="42.99817013415236" lon="11.450027859273911"><ele>326.0</ele><time>2026-03-28T13:33:13.001Z</time></trkpt><trkpt lat="42.99836942466596" lon="11.45002278158404"><ele>326.0</ele><time>2026-03-28T13:33:14.001Z</time></trkpt><trkpt lat="42.99859645817159" lon="11.450037157883749"><ele>329.0</ele><time>2026-03-28T13:33:15.001Z</time></trkpt><trkpt lat="42.99884752981993" lon="11.450066108375337"><ele>332.0</ele><time>2026-03-28T13:33:16.001Z</time></trkpt><trkpt lat="42.99910741957147" lon="11.450096606061253"><ele>332.33333333333337</ele><time>2026-03-28T13:33:17.001Z</time></trkpt><trkpt lat="42.99932660871567" lon="11.45011741919369"><ele>332.6666666666667</ele><time>2026-03-28T13:33:18.001Z</time></trkpt><trkpt lat="42.9995245400169" lon="11.45013870230142"><ele>333.0</ele><time>2026-03-28T13:33:19.001Z</time></trkpt><trkpt lat="42.99971696683096" lon="11.450160756384268"><ele>333.0</ele><time>2026-03-28T13:33:20.001Z</time></trkpt><trkpt lat="42.99990270525479" lon="11.450181060748864"><ele>333.0</ele><time>2026-03-28T13:33:21.001Z</time></trkpt><trkpt lat="43.000073467059444" lon="11.450206072662146"><ele>333.0</ele><time>2026-03-28T13:33:22.001Z</time></trkpt><trkpt lat="43.000224773752855" lon="11.450224857630435"><ele>333.0</ele><time>2026-03-28T13:33:23.001Z</time></trkpt><trkpt lat="43.00035296065374" lon="11.450232244253723"><ele>333.0</ele><time>2026-03-28T13:33:24.001Z</time></trkpt><trkpt lat="43.000456832514125" lon="11.450267368375847"><ele>333.0</ele><time>2026-03-28T13:33:25.001Z</time></trkpt><trkpt lat="43.000550924256906" lon="11.45030297486145"><ele>333.0</ele><time>2026-03-28T13:33:26.001Z</time></trkpt><trkpt lat="43.00062910870136" lon="11.450385811294899"><ele>333.0</ele><time>2026-03-28T13:33:27.001Z</time></trkpt><trkpt lat="43.000658014776356" lon="11.450536480752108"><ele>337.0</ele><time>2026-03-28T13:33:28.001Z</time></trkpt><trkpt lat="43.00061939250308" lon="11.450666635120486"><ele>341.0</ele><time>2026-03-28T13:33:29.001Z</time></trkpt><trkpt lat="43.00052719639419" lon="11.45075841937194"><ele>345.0</ele><time>2026-03-28T13:33:30.001Z</time></trkpt><trkpt lat="43.0003966132136" lon="11.450752259768816"><ele>349.0</ele><time>2026-03-28T13:33:31.001Z</time></trkpt><trkpt lat="43.00022140228454" lon="11.45077483482447"><ele>349.0</ele><time>2026-03-28T13:33:32.001Z</time></trkpt><trkpt lat="43.00000149327478" lon="11.450809781923526"><ele>349.0</ele><time>2026-03-28T13:33:33.001Z</time></trkpt><trkpt lat="42.9997880750399" lon="11.450825513820611"><ele>349.0</ele><time>2026-03-28T13:33:34.001Z</time></trkpt><trkpt lat="42.99962233002316" lon="11.45085313232824"><ele>349.0</ele><time>2026-03-28T13:33:35.001Z</time></trkpt><trkpt lat="42.99948001478518" lon="11.450915013403318"><ele>349.0</ele><time>2026-03-28T13:33:36.001Z</time></trkpt><trkpt lat="42.99932735895579" lon="11.451024426792287"><ele>349.0</ele><time>2026-03-28T13:33:37.001Z</time></trkpt><trkpt lat="42.999174642743576" lon="11.45114276325213"><ele>348.3333333333333</ele><time>2026-03-28T13:33:38.001Z</time></trkpt><trkpt lat="42.99903269242842" lon="11.451254073179259"><ele>347.6666666666667</ele><time>2026-03-28T13:33:39.001Z</time></trkpt><trkpt lat="42.99889367599369" lon="11.451383875167842"><ele>347.0</ele><time>2026-03-28T13:33:40.001Z</time></trkpt><trkpt lat="42.99877191876844" lon="11.451548761583805"><ele>352.33333333333337</ele><time>2026-03-28T13:33:41.001Z</time></trkpt><trkpt lat="42.998664833826524" lon="11.451748699008412"><ele>357.6666666666667</ele><time>2026-03-28T13:33:42.001Z</time></trkpt><trkpt lat="42.998557405721336" lon="11.451977886366521"><ele>363.0</ele><time>2026-03-28T13:33:43.001Z</time></trkpt><trkpt lat="42.99845488653485" lon="11.452182974884169"><ele>364.0</ele><time>2026-03-28T13:33:44.001Z</time></trkpt><trkpt lat="42.99836625011015" lon="11.45235710837341"><ele>365.0</ele><time>2026-03-28T13:33:45.001Z</time></trkpt><trkpt lat="42.99828113331632" lon="11.452512686441356"><ele>366.0</ele><time>2026-03-28T13:33:46.001Z</time></trkpt><trkpt lat="42.99819902912426" lon="11.45266627696623"><ele>367.0</ele><time>2026-03-28T13:33:47.001Z</time></trkpt><trkpt lat="42.99809345705731" lon="11.452775960194234"><ele>367.0</ele><time>2026-03-28T13:33:48.001Z</time></trkpt><trkpt lat="42.997948887569514" lon="11.452807712390879"><ele>367.0</ele><time>2026-03-28T13:33:49.001Z</time></trkpt><trkpt lat="42.99778711398458" lon="11.452792237611646"><ele>367.0</ele><time>2026-03-28T13:33:50.001Z</time></trkpt><trkpt lat="42.99759587646778" lon="11.452763617517899"><ele>366.3333333333333</ele><time>2026-03-28T13:33:51.001Z</time></trkpt><trkpt lat="42.99740895720898" lon="11.45274151827585"><ele>365.6666666666667</ele><time>2026-03-28T13:33:52.001Z</time></trkpt><trkpt lat="42.99725235342359" lon="11.45273551386841"><ele>365.0</ele><time>2026-03-28T13:33:53.001Z</time></trkpt><trkpt lat="42.99711823823915" lon="11.45278153596152"><ele>365.0</ele><time>2026-03-28T13:33:54.001Z</time></trkpt><trkpt lat="42.996994447067735" lon="11.452902023747164"><ele>365.0</ele><time>2026-03-28T13:33:55.001Z</time></trkpt><trkpt lat="42.99688355165557" lon="11.453088910228457"><ele>365.0</ele><time>2026-03-28T13:33:56.001Z</time></trkpt><trkpt lat="42.99675850489049" lon="11.453290710917566"><ele>367.0</ele><time>2026-03-28T13:33:57.001Z</time></trkpt><trkpt lat="42.996650407157205" lon="11.453505006533586"><ele>369.0</ele><time>2026-03-28T13:33:58.001Z</time></trkpt><trkpt lat="42.99654273145045" lon="11.453658429319399"><ele>371.0</ele><time>2026-03-28T13:33:59.001Z</time></trkpt><trkpt lat="42.9964621523333" lon="11.453832088039773"><ele>376.33333333333337</ele><time>2026-03-28T13:34:00.001Z</time></trkpt><trkpt lat="42.99635623738088" lon="11.454053646801967"><ele>381.6666666666667</ele><time>2026-03-28T13:34:01.001Z</time></trkpt><trkpt lat="42.99624732799515" lon="11.454317384291688"><ele>387.0</ele><time>2026-03-28T13:34:02.001Z</time></trkpt><trkpt lat="42.996143286407445" lon="11.454564704755821"><ele>391.0</ele><time>2026-03-28T13:34:03.001Z</time></trkpt><trkpt lat="42.99604878029162" lon="11.454775933745292"><ele>395.0</ele><time>2026-03-28T13:34:04.001Z</time></trkpt><trkpt lat="42.99596268556303" lon="11.454989016721361"><ele>399.0</ele><time>2026-03-28T13:34:05.001Z</time></trkpt><trkpt lat="42.99589180223224" lon="11.45525231494758"><ele>392.5</ele><time>2026-03-28T13:34:06.001Z</time></trkpt><trkpt lat="42.99583495001537" lon="11.455581220813473"><ele>386.0</ele><time>2026-03-28T13:34:07Z</time></trkpt><trkpt lat="42.99578522999268" lon="11.455922559095194"><ele>386.0</ele><time>2026-03-28T13:34:08Z</time></trkpt><trkpt lat="42.99574262263984" lon="11.456196829128224"><ele>386.0</ele><time>2026-03-28T13:34:09Z</time></trkpt><trkpt lat="42.995698471570705" lon="11.456427503467816"><ele>386.0</ele><time>2026-03-28T13:34:10Z</time></trkpt><trkpt lat="42.99568223599399" lon="11.456633533747636"><ele>387.3333333333333</ele><time>2026-03-28T13:34:11Z</time></trkpt><trkpt lat="42.99571269709791" lon="11.456874376231886"><ele>388.66666666666663</ele><time>2026-03-28T13:34:12Z</time></trkpt><trkpt lat="42.99576084246281" lon="11.45713597303432"><ele>390.0</ele><time>2026-03-28T13:34:13Z</time></trkpt><trkpt lat="42.9958052796329" lon="11.457354710838256"><ele>390.33333333333337</ele><time>2026-03-28T13:34:14Z</time></trkpt><trkpt lat="42.99583616157597" lon="11.457534315332754"><ele>390.6666666666667</ele><time>2026-03-28T13:34:15Z</time></trkpt><trkpt lat="42.995897990162035" lon="11.457720577477572"><ele>391.0</ele><time>2026-03-28T13:34:16Z</time></trkpt><trkpt lat="42.99599140686131" lon="11.45791727892563"><ele>395.6666666666667</ele><time>2026-03-28T13:34:17Z</time></trkpt><trkpt lat="42.99610550809469" lon="11.458093665973024"><ele>400.33333333333337</ele><time>2026-03-28T13:34:18Z</time></trkpt><trkpt lat="42.99624383235054" lon="11.458219941090594"><ele>405.0</ele><time>2026-03-28T13:34:19Z</time></trkpt><trkpt lat="42.99639868017632" lon="11.458312294272101"><ele>405.0</ele><time>2026-03-28T13:34:20Z</time></trkpt><trkpt lat="42.99653533299971" lon="11.458377465323412"><ele>405.0</ele><time>2026-03-28T13:34:21Z</time></trkpt><trkpt lat="42.996646015948016" lon="11.458437766494322"><ele>405.0</ele><time>2026-03-28T13:34:22Z</time></trkpt><trkpt lat="42.99673913634438" lon="11.458499948423675"><ele>405.0</ele><time>2026-03-28T13:34:23Z</time></trkpt><trkpt lat="42.99681794188403" lon="11.458552154350052"><ele>407.2</ele><time>2026-03-28T13:34:24Z</time></trkpt><trkpt lat="42.996891643002186" lon="11.45860027178926"><ele>409.4</ele><time>2026-03-28T13:34:25Z</time></trkpt><trkpt lat="42.99695919701176" lon="11.458671333679744"><ele>411.6</ele><time>2026-03-28T13:34:27Z</time></trkpt><trkpt lat="42.99701678083848" lon="11.458744606929086"><ele>413.8</ele><time>2026-03-28T13:34:31Z</time></trkpt><trkpt lat="42.9971184232433" lon="11.458717477203587"><ele>416.0</ele><time>2026-03-28T13:37:11Z</time></trkpt><trkpt lat="42.99725017157715" lon="11.458727862672308"><ele>416.0</ele><time>2026-03-28T13:37:13Z</time></trkpt><trkpt lat="42.99736030468574" lon="11.458701896881431"><ele>416.0</ele><time>2026-03-28T13:37:14Z</time></trkpt><trkpt lat="42.997499823016916" lon="11.458649005117913"><ele>416.0</ele><time>2026-03-28T13:37:15Z</time></trkpt><trkpt lat="42.99760346805088" lon="11.4585867614603"><ele>416.0</ele><time>2026-03-28T13:37:16Z</time></trkpt><trkpt lat="42.99770625080958" lon="11.458510806612956"><ele>417.3333333333333</ele><time>2026-03-28T13:37:17Z</time></trkpt><trkpt lat="42.997838926601226" lon="11.45842336284978"><ele>418.66666666666663</ele><time>2026-03-28T13:37:18Z</time></trkpt><trkpt lat="42.998005756873034" lon="11.458316368729198"><ele>420.0</ele><time>2026-03-28T13:37:19Z</time></trkpt><trkpt lat="42.99815762459188" lon="11.458222868430152"><ele>420.0</ele><time>2026-03-28T13:37:20Z</time></trkpt><trkpt lat="42.99829274401333" lon="11.458137591203919"><ele>420.0</ele><time>2026-03-28T13:37:21Z</time></trkpt><trkpt lat="42.998421564610034" lon="11.458065902262906"><ele>420.0</ele><time>2026-03-28T13:37:22Z</time></trkpt><trkpt lat="42.998566311026885" lon="11.458009977896115"><ele>420.0</ele><time>2026-03-28T13:37:23Z</time></trkpt><trkpt lat="42.99872481565382" lon="11.457974629242036"><ele>420.33333333333337</ele><time>2026-03-28T13:37:24Z</time></trkpt><trkpt lat="42.9988997599992" lon="11.45794190954177"><ele>420.6666666666667</ele><time>2026-03-28T13:37:25Z</time></trkpt><trkpt lat="42.99908639911354" lon="11.45790280812974"><ele>421.0</ele><time>2026-03-28T13:37:26Z</time></trkpt><trkpt lat="42.99926461981692" lon="11.45786291955207"><ele>421.0</ele><time>2026-03-28T13:37:27Z</time></trkpt><trkpt lat="42.99945944067132" lon="11.457820932778338"><ele>421.0</ele><time>2026-03-28T13:37:28Z</time></trkpt><trkpt lat="42.99966070147121" lon="11.457792173202233"><ele>421.0</ele><time>2026-03-28T13:37:29.001Z</time></trkpt><trkpt lat="42.9998509111333" lon="11.457788970882227"><ele>421.0</ele><time>2026-03-28T13:37:30.001Z</time></trkpt><trkpt lat="43.00002709555751" lon="11.457788842284462"><ele>421.0</ele><time>2026-03-28T13:37:31.001Z</time></trkpt><trkpt lat="43.000191013387585" lon="11.45779222532509"><ele>421.0</ele><time>2026-03-28T13:37:32.001Z</time></trkpt><trkpt lat="43.00034353569441" lon="11.457796823610654"><ele>421.0</ele><time>2026-03-28T13:37:33.001Z</time></trkpt><trkpt lat="43.00048877284028" lon="11.45780526502415"><ele>421.0</ele><time>2026-03-28T13:37:34.001Z</time></trkpt><trkpt lat="43.0006337547106" lon="11.457843083535021"><ele>421.0</ele><time>2026-03-28T13:37:35.001Z</time></trkpt><trkpt lat="43.00079386509961" lon="11.457933456021923"><ele>424.0</ele><time>2026-03-28T13:37:36.001Z</time></trkpt><trkpt lat="43.000959833581355" lon="11.458075933645874"><ele>427.0</ele><time>2026-03-28T13:37:37.001Z</time></trkpt><trkpt lat="43.00114687098939" lon="11.458242399728547"><ele>430.0</ele><time>2026-03-28T13:37:38.001Z</time></trkpt><trkpt lat="43.0013315729772" lon="11.458414720942654"><ele>430.0</ele><time>2026-03-28T13:37:39.001Z</time></trkpt><trkpt lat="43.00150382420567" lon="11.458567805593406"><ele>430.0</ele><time>2026-03-28T13:37:40.001Z</time></trkpt><trkpt lat="43.00164767704953" lon="11.458734847026108"><ele>430.0</ele><time>2026-03-28T13:37:41.001Z</time></trkpt><trkpt lat="43.001794785873194" lon="11.458858412599985"><ele>432.0</ele><time>2026-03-28T13:37:42.001Z</time></trkpt><trkpt lat="43.001944852719596" lon="11.459000355231524"><ele>434.0</ele><time>2026-03-28T13:37:43.001Z</time></trkpt><trkpt lat="43.00210573849751" lon="11.459172428518418"><ele>436.0</ele><time>2026-03-28T13:37:44.001Z</time></trkpt><trkpt lat="43.002249715245654" lon="11.459360633997445"><ele>436.0</ele><time>2026-03-28T13:37:45.001Z</time></trkpt><trkpt lat="43.00238197612332" lon="11.459565951986157"><ele>436.0</ele><time>2026-03-28T13:37:46.001Z</time></trkpt><trkpt lat="43.00251026923507" lon="11.459783290665145"><ele>436.0</ele><time>2026-03-28T13:37:47.001Z</time></trkpt><trkpt lat="43.00264175963491" lon="11.459980625838593"><ele>434.6666666666667</ele><time>2026-03-28T13:37:48.001Z</time></trkpt><trkpt lat="43.00274507962632" lon="11.460191058164837"><ele>433.33333333333337</ele><time>2026-03-28T13:37:49.001Z</time></trkpt><trkpt lat="43.0028348882599" lon="11.460416366051334"><ele>432.0</ele><time>2026-03-28T13:37:50.001Z</time></trkpt><trkpt lat="43.002900593657635" lon="11.460660119272797"><ele>432.0</ele><time>2026-03-28T13:37:51.001Z</time></trkpt><trkpt lat="43.00295392516866" lon="11.46092360154189"><ele>432.0</ele><time>2026-03-28T13:37:52.001Z</time></trkpt><trkpt lat="43.00298665039421" lon="11.461173469315117"><ele>432.0</ele><time>2026-03-28T13:37:53.001Z</time></trkpt><trkpt lat="43.002991465674455" lon="11.461408603831885"><ele>430.66666666666663</ele><time>2026-03-28T13:37:54.001Z</time></trkpt><trkpt lat="43.00299284646372" lon="11.461666724067852"><ele>429.3333333333333</ele><time>2026-03-28T13:37:55.001Z</time></trkpt><trkpt lat="43.003002276679425" lon="11.461902110096535"><ele>428.0</ele><time>2026-03-28T13:37:56.001Z</time></trkpt><trkpt lat="43.00301966155395" lon="11.462120232926923"><ele>427.66666666666663</ele><time>2026-03-28T13:37:57.001Z</time></trkpt><trkpt lat="43.00305517722647" lon="11.46232027349688"><ele>427.33333333333337</ele><time>2026-03-28T13:37:58.001Z</time></trkpt><trkpt lat="43.003122233533276" lon="11.462501449619012"><ele>427.0</ele><time>2026-03-28T13:37:59.001Z</time></trkpt><trkpt lat="43.00322561928136" lon="11.462678519593291"><ele>423.33333333333337</ele><time>2026-03-28T13:38:00.001Z</time></trkpt><trkpt lat="43.003343861945524" lon="11.462840950976794"><ele>419.66666666666663</ele><time>2026-03-28T13:38:01.001Z</time></trkpt><trkpt lat="43.003465809836996" lon="11.462965222413484"><ele>416.0</ele><time>2026-03-28T13:38:02.001Z</time></trkpt><trkpt lat="43.003602831435465" lon="11.463043534735622"><ele>416.0</ele><time>2026-03-28T13:38:03.001Z</time></trkpt><trkpt lat="43.00375807670828" lon="11.463093266283291"><ele>416.0</ele><time>2026-03-28T13:38:04.001Z</time></trkpt><trkpt lat="43.00391817589519" lon="11.46310446275379"><ele>416.0</ele><time>2026-03-28T13:38:05.001Z</time></trkpt><trkpt lat="43.00408777408294" lon="11.463070273815473"><ele>416.3333333333333</ele><time>2026-03-28T13:38:06.001Z</time></trkpt><trkpt lat="43.004264810309095" lon="11.46301261935486"><ele>416.66666666666663</ele><time>2026-03-28T13:38:07.001Z</time></trkpt><trkpt lat="43.004449286620506" lon="11.462929629830812"><ele>417.0</ele><time>2026-03-28T13:38:08.001Z</time></trkpt><trkpt lat="43.00465160607268" lon="11.462856382033802"><ele>417.0</ele><time>2026-03-28T13:38:09.001Z</time></trkpt><trkpt lat="43.00485346748595" lon="11.46275574181957"><ele>417.0</ele><time>2026-03-28T13:38:10.001Z</time></trkpt><trkpt lat="43.005178581065344" lon="11.462504736766169"><ele>421.5</ele><time>2026-03-28T13:38:11.001Z</time></trkpt><trkpt lat="43.00545535451556" lon="11.462361541506231"><ele>426.0</ele><time>2026-03-28T13:38:12.001Z</time></trkpt><trkpt lat="43.00574396775844" lon="11.462200349222242"><ele>428.5</ele><time>2026-03-28T13:38:13.001Z</time></trkpt><trkpt lat="43.00601063973702" lon="11.462050123594253"><ele>431.0</ele><time>2026-03-28T13:38:14.001Z</time></trkpt><trkpt lat="43.00624634955631" lon="11.461923271032063"><ele>431.0</ele><time>2026-03-28T13:38:15.001Z</time></trkpt><trkpt lat="43.00646047738419" lon="11.461814744092738"><ele>431.0</ele><time>2026-03-28T13:38:16.001Z</time></trkpt><trkpt lat="43.0066375008992" lon="11.461718713555722"><ele>431.0</ele><time>2026-03-28T13:38:17.001Z</time></trkpt><trkpt lat="43.00678659439249" lon="11.461636989658098"><ele>433.75</ele><time>2026-03-28T13:38:18.001Z</time></trkpt><trkpt lat="43.006937861403905" lon="11.461597133655676"><ele>436.5</ele><time>2026-03-28T13:38:19Z</time></trkpt><trkpt lat="43.0070766911689" lon="11.461595688304097"><ele>439.25</ele><time>2026-03-28T13:38:20Z</time></trkpt><trkpt lat="43.007207017051364" lon="11.461633853271781"><ele>442.0</ele><time>2026-03-28T13:38:21Z</time></trkpt><trkpt lat="43.00733426823447" lon="11.461708453042734"><ele>442.0</ele><time>2026-03-28T13:38:22Z</time></trkpt><trkpt lat="43.00743567763227" lon="11.461821907378173"><ele>442.0</ele><time>2026-03-28T13:38:23Z</time></trkpt><trkpt lat="43.00753230586412" lon="11.461969133962672"><ele>442.0</ele><time>2026-03-28T13:38:24Z</time></trkpt><trkpt lat="43.00759646885924" lon="11.462137514495787"><ele>442.0</ele><time>2026-03-28T13:38:25Z</time></trkpt><trkpt lat="43.007622180689935" lon="11.462300721514632"><ele>446.0</ele><time>2026-03-28T13:38:26Z</time></trkpt><trkpt lat="43.007625948452194" lon="11.462499953406029"><ele>450.0</ele><time>2026-03-28T13:38:27Z</time></trkpt><trkpt lat="43.00759229309366" lon="11.462698967760591"><ele>454.0</ele><time>2026-03-28T13:38:28Z</time></trkpt><trkpt lat="43.0075282988349" lon="11.462891471240537"><ele>453.6666666666667</ele><time>2026-03-28T13:38:29Z</time></trkpt><trkpt lat="43.007441058633106" lon="11.463117499570949"><ele>453.33333333333337</ele><time>2026-03-28T13:38:30Z</time></trkpt><trkpt lat="43.00734773037623" lon="11.463399229000974"><ele>453.0</ele><time>2026-03-28T13:38:31Z</time></trkpt><trkpt lat="43.007280488073164" lon="11.463711969455128"><ele>454.0</ele><time>2026-03-28T13:38:32Z</time></trkpt><trkpt lat="43.00723535187532" lon="11.46402855727096"><ele>455.0</ele><time>2026-03-28T13:38:33Z</time></trkpt><trkpt lat="43.00723398056646" lon="11.464293120556553"><ele>456.0</ele><time>2026-03-28T13:38:34Z</time></trkpt><trkpt lat="43.007255600027555" lon="11.46457466550015"><ele>457.5</ele><time>2026-03-28T13:38:35Z</time></trkpt><trkpt lat="43.00728480898355" lon="11.46488936777192"><ele>459.0</ele><time>2026-03-28T13:38:36Z</time></trkpt><trkpt lat="43.007328912523896" lon="11.46520583812477"><ele>460.0</ele><time>2026-03-28T13:38:37Z</time></trkpt><trkpt lat="43.007371647532004" lon="11.465525938562822"><ele>461.0</ele><time>2026-03-28T13:38:38Z</time></trkpt><trkpt lat="43.007428546729095" lon="11.46586170363182"><ele>465.5</ele><time>2026-03-28T13:38:39Z</time></trkpt><trkpt lat="43.00750078802503" lon="11.466191261875752"><ele>470.0</ele><time>2026-03-28T13:38:40Z</time></trkpt><trkpt lat="43.007569765757" lon="11.466485566782655"><ele>472.0</ele><time>2026-03-28T13:38:41Z</time></trkpt><trkpt lat="43.00763398492669" lon="11.466779783792752"><ele>474.0</ele><time>2026-03-28T13:38:42Z</time></trkpt><trkpt lat="43.007691538622836" lon="11.467090803025755"><ele>474.0</ele><time>2026-03-28T13:38:43Z</time></trkpt><trkpt lat="43.007754415330396" lon="11.467395642273068"><ele>474.0</ele><time>2026-03-28T13:38:44Z</time></trkpt><trkpt lat="43.00781838960285" lon="11.467677189690322"><ele>474.0</ele><time>2026-03-28T13:38:45Z</time></trkpt><trkpt lat="43.00788332035842" lon="11.467954036952447"><ele>473.5</ele><time>2026-03-28T13:38:46Z</time></trkpt><trkpt lat="43.00794457191128" lon="11.468250542234255"><ele>473.0</ele><time>2026-03-28T13:38:47Z</time></trkpt><trkpt lat="43.008008708587084" lon="11.468546667390678"><ele>472.0</ele><time>2026-03-28T13:38:48Z</time></trkpt><trkpt lat="43.00806721512996" lon="11.468853779337081"><ele>471.0</ele><time>2026-03-28T13:38:49Z</time></trkpt><trkpt lat="43.00812124175333" lon="11.4691323335896"><ele>470.0</ele><time>2026-03-28T13:38:50Z</time></trkpt><trkpt lat="43.008174511065384" lon="11.46938327135257"><ele>470.3333333333333</ele><time>2026-03-28T13:38:51Z</time></trkpt><trkpt lat="43.008226066220594" lon="11.469629831589248"><ele>470.66666666666663</ele><time>2026-03-28T13:38:52Z</time></trkpt><trkpt lat="43.008275468022795" lon="11.469876087606826"><ele>471.0</ele><time>2026-03-28T13:38:53Z</time></trkpt><trkpt lat="43.00833301629887" lon="11.470137147597894"><ele>473.66666666666663</ele><time>2026-03-28T13:38:54Z</time></trkpt><trkpt lat="43.008398375997224" lon="11.470394006922644"><ele>476.3333333333333</ele><time>2026-03-28T13:38:55Z</time></trkpt><trkpt lat="43.00846069777423" lon="11.470635988467162"><ele>479.0</ele><time>2026-03-28T13:38:56Z</time></trkpt><trkpt lat="43.00853605082427" lon="11.470883414138822"><ele>479.0</ele><time>2026-03-28T13:38:57Z</time></trkpt><trkpt lat="43.00863095927632" lon="11.471131165549913"><ele>479.0</ele><time>2026-03-28T13:38:58Z</time></trkpt><trkpt lat="43.00875280443948" lon="11.471375974628733"><ele>479.0</ele><time>2026-03-28T13:38:59Z</time></trkpt><trkpt lat="43.00890927287171" lon="11.471620286191671"><ele>479.0</ele><time>2026-03-28T13:39:00Z</time></trkpt><trkpt lat="43.00905883378811" lon="11.471841232294413"><ele>479.0</ele><time>2026-03-28T13:39:01Z</time></trkpt><trkpt lat="43.00919463022133" lon="11.47204452147217"><ele>479.0</ele><time>2026-03-28T13:39:02Z</time></trkpt><trkpt lat="43.00931952939539" lon="11.472243773407962"><ele>478.0</ele><time>2026-03-28T13:39:03Z</time></trkpt><trkpt lat="43.009434501103264" lon="11.472436733872073"><ele>477.0</ele><time>2026-03-28T13:39:04Z</time></trkpt><trkpt lat="43.00953576156394" lon="11.47262332474632"><ele>476.0</ele><time>2026-03-28T13:39:05Z</time></trkpt><trkpt lat="43.00961852994026" lon="11.472822448976526"><ele>474.66666666666663</ele><time>2026-03-28T13:39:06Z</time></trkpt><trkpt lat="43.00966768127966" lon="11.47304528956401"><ele>473.33333333333337</ele><time>2026-03-28T13:39:07Z</time></trkpt><trkpt lat="43.00966161478903" lon="11.473290180880742"><ele>472.0</ele><time>2026-03-28T13:39:08Z</time></trkpt><trkpt lat="43.00963605461352" lon="11.473539144774762"><ele>474.33333333333337</ele><time>2026-03-28T13:39:09Z</time></trkpt><trkpt lat="43.00960425925734" lon="11.47382002298342"><ele>476.66666666666663</ele><time>2026-03-28T13:39:10Z</time></trkpt><trkpt lat="43.00955058378396" lon="11.474113804218547"><ele>479.0</ele><time>2026-03-28T13:39:11Z</time></trkpt><trkpt lat="43.00949571691276" lon="11.474415884755219"><ele>481.3333333333333</ele><time>2026-03-28T13:39:12Z</time></trkpt><trkpt lat="43.00944499197184" lon="11.47471075342487"><ele>483.66666666666663</ele><time>2026-03-28T13:39:13Z</time></trkpt><trkpt lat="43.00940731039698" lon="11.47500253257352"><ele>486.0</ele><time>2026-03-28T13:39:14Z</time></trkpt><trkpt lat="43.009388231244294" lon="11.475286725928113"><ele>488.0</ele><time>2026-03-28T13:39:15Z</time></trkpt><trkpt lat="43.00938593966843" lon="11.475577404122284"><ele>490.0</ele><time>2026-03-28T13:39:16Z</time></trkpt><trkpt lat="43.00940094580342" lon="11.475869450508268"><ele>492.0</ele><time>2026-03-28T13:39:17Z</time></trkpt><trkpt lat="43.009419287943366" lon="11.476121650405256"><ele>493.33333333333337</ele><time>2026-03-28T13:39:18Z</time></trkpt><trkpt lat="43.009453881821806" lon="11.476345336879522"><ele>494.6666666666667</ele><time>2026-03-28T13:39:19.001Z</time></trkpt><trkpt lat="43.0095176221097" lon="11.47655745382853"><ele>496.0</ele><time>2026-03-28T13:39:20.001Z</time></trkpt><trkpt lat="43.00959843628004" lon="11.47677453639922"><ele>496.0</ele><time>2026-03-28T13:39:21.001Z</time></trkpt><trkpt lat="43.00970916127732" lon="11.47698098734159"><ele>496.0</ele><time>2026-03-28T13:39:22.001Z</time></trkpt><trkpt lat="43.009859466052596" lon="11.477182688604847"><ele>496.0</ele><time>2026-03-28T13:39:23.001Z</time></trkpt><trkpt lat="43.010027531048685" lon="11.477389682740414"><ele>499.33333333333337</ele><time>2026-03-28T13:39:24.001Z</time></trkpt><trkpt lat="43.01019426280417" lon="11.47760448911887"><ele>502.66666666666663</ele><time>2026-03-28T13:39:25.001Z</time></trkpt><trkpt lat="43.0103493429012" lon="11.47779919057185"><ele>506.0</ele><time>2026-03-28T13:39:26.001Z</time></trkpt><trkpt lat="43.010490478864824" lon="11.477977081570002"><ele>506.66666666666663</ele><time>2026-03-28T13:39:27.001Z</time></trkpt><trkpt lat="43.01060770570364" lon="11.478160779169041"><ele>507.33333333333337</ele><time>2026-03-28T13:39:28.001Z</time></trkpt><trkpt lat="43.01071365045579" lon="11.478367016974044"><ele>508.0</ele><time>2026-03-28T13:39:29.001Z</time></trkpt><trkpt lat="43.01079850541292" lon="11.478595140998785"><ele>512.3333333333334</ele><time>2026-03-28T13:39:30.001Z</time></trkpt><trkpt lat="43.01087185510301" lon="11.478845201880585"><ele>516.6666666666666</ele><time>2026-03-28T13:39:31.001Z</time></trkpt><trkpt lat="43.010926122436445" lon="11.479129780246405"><ele>521.0</ele><time>2026-03-28T13:39:32.001Z</time></trkpt><trkpt lat="43.01098172064451" lon="11.479438945521212"><ele>523.5</ele><time>2026-03-28T13:39:33.001Z</time></trkpt><trkpt lat="43.01103279535614" lon="11.479752341829872"><ele>526.0</ele><time>2026-03-28T13:39:34.001Z</time></trkpt><trkpt lat="43.01109141875978" lon="11.480071291378097"><ele>526.0</ele><time>2026-03-28T13:39:35.001Z</time></trkpt><trkpt lat="43.011165880660876" lon="11.480403389791425"><ele>526.0</ele><time>2026-03-28T13:39:36.001Z</time></trkpt><trkpt lat="43.011249465486344" lon="11.480739928120057"><ele>529.0</ele><time>2026-03-28T13:39:37.001Z</time></trkpt><trkpt lat="43.01133250790014" lon="11.481055886621187"><ele>532.0</ele><time>2026-03-28T13:39:38.001Z</time></trkpt><trkpt lat="43.011388132518086" lon="11.481340949893635"><ele>533.3333333333334</ele><time>2026-03-28T13:39:39.001Z</time></trkpt><trkpt lat="43.011460025125956" lon="11.48162395625984"><ele>534.6666666666666</ele><time>2026-03-28T13:39:40.001Z</time></trkpt><trkpt lat="43.01154911619863" lon="11.481888958454189"><ele>536.0</ele><time>2026-03-28T13:39:41.001Z</time></trkpt><trkpt lat="43.01161231633588" lon="11.482148435749462"><ele>539.0</ele><time>2026-03-28T13:39:42.001Z</time></trkpt><trkpt lat="43.01167519903417" lon="11.482403933872876"><ele>542.0</ele><time>2026-03-28T13:39:43.001Z</time></trkpt><trkpt lat="43.0117364460058" lon="11.482634788860175"><ele>545.0</ele><time>2026-03-28T13:39:44.001Z</time></trkpt><trkpt lat="43.01179261037228" lon="11.482837788553434"><ele>547.3333333333333</ele><time>2026-03-28T13:39:45.001Z</time></trkpt><trkpt lat="43.011853283005735" lon="11.483031635637763"><ele>549.6666666666666</ele><time>2026-03-28T13:39:46.001Z</time></trkpt><trkpt lat="43.011945262036484" lon="11.483210645694154"><ele>552.0</ele><time>2026-03-28T13:39:47.001Z</time></trkpt><trkpt lat="43.01209325861971" lon="11.483367666658214"><ele>552.0</ele><time>2026-03-28T13:39:48.001Z</time></trkpt><trkpt lat="43.01226434353288" lon="11.483512493345337"><ele>552.0</ele><time>2026-03-28T13:39:49.001Z</time></trkpt><trkpt lat="43.01246021270398" lon="11.483651514090276"><ele>552.0</ele><time>2026-03-28T13:39:50.001Z</time></trkpt><trkpt lat="43.01265453610937" lon="11.483794815949338"><ele>552.0</ele><time>2026-03-28T13:39:51.001Z</time></trkpt><trkpt lat="43.01284797349221" lon="11.483956706666119"><ele>552.0</ele><time>2026-03-28T13:39:52.001Z</time></trkpt><trkpt lat="43.0130371867929" lon="11.484113365834796"><ele>552.0</ele><time>2026-03-28T13:39:53.001Z</time></trkpt><trkpt lat="43.013213414385596" lon="11.484261062340918"><ele>552.3333333333334</ele><time>2026-03-28T13:39:54.001Z</time></trkpt><trkpt lat="43.01338417780261" lon="11.484402872127934"><ele>552.6666666666667</ele><time>2026-03-28T13:39:55.001Z</time></trkpt><trkpt lat="43.013549454910816" lon="11.484538248091823"><ele>553.0</ele><time>2026-03-28T13:39:56.001Z</time></trkpt><trkpt lat="43.013707647203134" lon="11.48466039990167"><ele>553.0</ele><time>2026-03-28T13:39:57.001Z</time></trkpt><trkpt lat="43.01387056391162" lon="11.484747424184954"><ele>553.0</ele><time>2026-03-28T13:39:58.001Z</time></trkpt><trkpt lat="43.01404704641164" lon="11.484788941519412"><ele>553.0</ele><time>2026-03-28T13:39:59.001Z</time></trkpt><trkpt lat="43.014239664710274" lon="11.484793684846675"><ele>551.6666666666667</ele><time>2026-03-28T13:40:00.001Z</time></trkpt><trkpt lat="43.014437373554784" lon="11.484770748956638"><ele>550.3333333333334</ele><time>2026-03-28T13:40:01.001Z</time></trkpt><trkpt lat="43.014639160276964" lon="11.484717151575099"><ele>549.0</ele><time>2026-03-28T13:40:02.001Z</time></trkpt><trkpt lat="43.0148413401939" lon="11.48461997390434"><ele>552.0</ele><time>2026-03-28T13:40:03.001Z</time></trkpt><trkpt lat="43.01505738661572" lon="11.48447562832521"><ele>555.0</ele><time>2026-03-28T13:40:04.001Z</time></trkpt><trkpt lat="43.015286644461476" lon="11.484306199965518"><ele>555.0</ele><time>2026-03-28T13:40:05.001Z</time></trkpt><trkpt lat="43.0155320552992" lon="11.48413192696659"><ele>555.0</ele><time>2026-03-28T13:40:06.001Z</time></trkpt><trkpt lat="43.01579020977282" lon="11.483955006783933"><ele>555.5</ele><time>2026-03-28T13:40:07.001Z</time></trkpt><trkpt lat="43.016050877126006" lon="11.483784949478952"><ele>556.0</ele><time>2026-03-28T13:40:08.001Z</time></trkpt><trkpt lat="43.01627861819828" lon="11.483625756261928"><ele>556.6666666666667</ele><time>2026-03-28T13:40:09.001Z</time></trkpt><trkpt lat="43.01648004299264" lon="11.483486252976299"><ele>557.3333333333334</ele><time>2026-03-28T13:40:10.001Z</time></trkpt><trkpt lat="43.01667145361607" lon="11.483361557867259"><ele>558.0</ele><time>2026-03-28T13:40:11.001Z</time></trkpt><trkpt lat="43.016856778064074" lon="11.483250456423308"><ele>558.0</ele><time>2026-03-28T13:40:12.001Z</time></trkpt><trkpt lat="43.017038275782745" lon="11.48315926246887"><ele>558.0</ele><time>2026-03-28T13:40:13.001Z</time></trkpt><trkpt lat="43.01722647132944" lon="11.483108133473026"><ele>558.0</ele><time>2026-03-28T13:40:14.001Z</time></trkpt><trkpt lat="43.01742314822457" lon="11.483091932132087"><ele>560.3333333333334</ele><time>2026-03-28T13:40:15.001Z</time></trkpt><trkpt lat="43.017626985913424" lon="11.483121619118531"><ele>562.6666666666667</ele><time>2026-03-28T13:40:16.001Z</time></trkpt><trkpt lat="43.01782906944479" lon="11.483195770849417"><ele>565.0</ele><time>2026-03-28T13:40:17.001Z</time></trkpt><trkpt lat="43.01803261309723" lon="11.483310561867597"><ele>565.0</ele><time>2026-03-28T13:40:18.001Z</time></trkpt><trkpt lat="43.018243125963565" lon="11.483434283539435"><ele>565.0</ele><time>2026-03-28T13:40:19.001Z</time></trkpt><trkpt lat="43.018459934948474" lon="11.483554140032917"><ele>567.6666666666667</ele><time>2026-03-28T13:40:20.001Z</time></trkpt><trkpt lat="43.01865249855695" lon="11.483659195905856"><ele>570.3333333333334</ele><time>2026-03-28T13:40:21.001Z</time></trkpt><trkpt lat="43.01882975727855" lon="11.483755161480076"><ele>573.0</ele><time>2026-03-28T13:40:22.001Z</time></trkpt><trkpt lat="43.01899401479996" lon="11.483844927656019"><ele>575.3333333333334</ele><time>2026-03-28T13:40:23.001Z</time></trkpt><trkpt lat="43.01916169585457" lon="11.48392558367149"><ele>577.6666666666667</ele><time>2026-03-28T13:40:24.001Z</time></trkpt><trkpt lat="43.01934562991569" lon="11.483986595501875"><ele>580.0</ele><time>2026-03-28T13:40:25.001Z</time></trkpt><trkpt lat="43.01955019994554" lon="11.483998768731537"><ele>580.0</ele><time>2026-03-28T13:40:26.001Z</time></trkpt><trkpt lat="43.019763183525974" lon="11.483956733795031"><ele>580.0</ele><time>2026-03-28T13:40:27.001Z</time></trkpt><trkpt lat="43.01999066192196" lon="11.48387144385656"><ele>581.0</ele><time>2026-03-28T13:40:28.001Z</time></trkpt><trkpt lat="43.02022793893179" lon="11.483762572672566"><ele>582.0</ele><time>2026-03-28T13:40:29.001Z</time></trkpt><trkpt lat="43.02045372817649" lon="11.483684056767327"><ele>582.0</ele><time>2026-03-28T13:40:30.001Z</time></trkpt><trkpt lat="43.02066189986792" lon="11.48364458220561"><ele>582.0</ele><time>2026-03-28T13:40:31.001Z</time></trkpt><trkpt lat="43.020873384514275" lon="11.483607190518189"><ele>582.0</ele><time>2026-03-28T13:40:32.001Z</time></trkpt><trkpt lat="43.02111173634604" lon="11.483588821163439"><ele>584.0</ele><time>2026-03-28T13:40:33.001Z</time></trkpt><trkpt lat="43.02137962371218" lon="11.483558916214205"><ele>586.0</ele><time>2026-03-28T13:40:34.001Z</time></trkpt><trkpt lat="43.02165865966616" lon="11.483549653839367"><ele>588.0</ele><time>2026-03-28T13:40:35.001Z</time></trkpt><trkpt lat="43.021943828982444" lon="11.4835361940183"><ele>590.0</ele><time>2026-03-28T13:40:36.001Z</time></trkpt><trkpt lat="43.02220273107843" lon="11.483525572802"><ele>590.0</ele><time>2026-03-28T13:40:37.001Z</time></trkpt><trkpt lat="43.02243996220326" lon="11.483512549649605"><ele>590.0</ele><time>2026-03-28T13:40:38.001Z</time></trkpt><trkpt lat="43.022673791766" lon="11.483499509722309"><ele>592.3333333333333</ele><time>2026-03-28T13:40:39.001Z</time></trkpt><trkpt lat="43.02289944371595" lon="11.483490030827884"><ele>594.6666666666666</ele><time>2026-03-28T13:40:40.001Z</time></trkpt><trkpt lat="43.02310981325726" lon="11.483481166238828"><ele>597.0</ele><time>2026-03-28T13:40:41.001Z</time></trkpt><trkpt lat="43.0233091016284" lon="11.48346255279337"><ele>599.0</ele><time>2026-03-28T13:40:42.001Z</time></trkpt><trkpt lat="43.02350850928096" lon="11.483425072890233"><ele>601.0</ele><time>2026-03-28T13:40:43.001Z</time></trkpt><trkpt lat="43.023724087012496" lon="11.483327465200595"><ele>603.0</ele><time>2026-03-28T13:40:44.001Z</time></trkpt><trkpt lat="43.02393896018157" lon="11.483225022837011"><ele>603.0</ele><time>2026-03-28T13:40:45.001Z</time></trkpt><trkpt lat="43.02414251709986" lon="11.483119694893503"><ele>603.0</ele><time>2026-03-28T13:40:46.001Z</time></trkpt><trkpt lat="43.02434017458106" lon="11.483031980366016"><ele>603.0</ele><time>2026-03-28T13:40:47.001Z</time></trkpt><trkpt lat="43.02450948120189" lon="11.48288367570567"><ele>603.5</ele><time>2026-03-28T13:40:48.001Z</time></trkpt><trkpt lat="43.024686914431456" lon="11.482705110051374"><ele>604.0</ele><time>2026-03-28T13:40:49.001Z</time></trkpt><trkpt lat="43.024877888761885" lon="11.482506507048704"><ele>605.3333333333334</ele><time>2026-03-28T13:40:50.001Z</time></trkpt><trkpt lat="43.02504664647313" lon="11.482316999905564"><ele>606.6666666666666</ele><time>2026-03-28T13:40:51.001Z</time></trkpt><trkpt lat="43.02519570063768" lon="11.482148293308542"><ele>608.0</ele><time>2026-03-28T13:40:52.001Z</time></trkpt><trkpt lat="43.025331513236914" lon="11.481969101488016"><ele>608.6666666666666</ele><time>2026-03-28T13:40:53.001Z</time></trkpt><trkpt lat="43.02548851104705" lon="11.481831878748471"><ele>609.3333333333334</ele><time>2026-03-28T13:40:54.001Z</time></trkpt><trkpt lat="43.02566616072134" lon="11.48172633113759"><ele>610.0</ele><time>2026-03-28T13:40:55.001Z</time></trkpt><trkpt lat="43.025861720675216" lon="11.481654491304733"><ele>610.0</ele><time>2026-03-28T13:40:56.001Z</time></trkpt><trkpt lat="43.02608030879909" lon="11.48160886852532"><ele>610.0</ele><time>2026-03-28T13:40:57.001Z</time></trkpt><trkpt lat="43.026325992873495" lon="11.481579786394082"><ele>610.0</ele><time>2026-03-28T13:40:58.001Z</time></trkpt><trkpt lat="43.02658940317895" lon="11.481552741724595"><ele>610.0</ele><time>2026-03-28T13:40:59.001Z</time></trkpt><trkpt lat="43.02687668702927" lon="11.481542353380085"><ele>609.5</ele><time>2026-03-28T13:41:00.001Z</time></trkpt><trkpt lat="43.02718499165793" lon="11.48150973847905"><ele>609.0</ele><time>2026-03-28T13:41:01.001Z</time></trkpt><trkpt lat="43.027510451683675" lon="11.48147531044523"><ele>609.0</ele><time>2026-03-28T13:41:02.001Z</time></trkpt><trkpt lat="43.02784696816497" lon="11.481439711131573"><ele>609.0</ele><time>2026-03-28T13:41:03.001Z</time></trkpt><trkpt lat="43.02816296974532" lon="11.481406285765233"><ele>611.5</ele><time>2026-03-28T13:41:04.001Z</time></trkpt><trkpt lat="43.028461576643444" lon="11.48137470232874"><ele>614.0</ele><time>2026-03-28T13:41:05.001Z</time></trkpt><trkpt lat="43.02876442668744" lon="11.48134252595494"><ele>614.0</ele><time>2026-03-28T13:41:06.001Z</time></trkpt><trkpt lat="43.0290613473585" lon="11.481290158769953"><ele>614.0</ele><time>2026-03-28T13:41:07.001Z</time></trkpt><trkpt lat="43.02933439348033" lon="11.481259943755548"><ele>613.0</ele><time>2026-03-28T13:41:08.001Z</time></trkpt><trkpt lat="43.02958809368349" lon="11.481231023402286"><ele>612.0</ele><time>2026-03-28T13:41:09.001Z</time></trkpt><trkpt lat="43.02982570129341" lon="11.481210401562862"><ele>615.0</ele><time>2026-03-28T13:41:10.001Z</time></trkpt><trkpt lat="43.03005793296793" lon="11.481188452898914"><ele>618.0</ele><time>2026-03-28T13:41:11.001Z</time></trkpt><trkpt lat="43.03030110521591" lon="11.48117215289588"><ele>618.0</ele><time>2026-03-28T13:41:12.001Z</time></trkpt><trkpt lat="43.0305644603965" lon="11.481167002265076"><ele>618.0</ele><time>2026-03-28T13:41:13.001Z</time></trkpt><trkpt lat="43.030845768433096" lon="11.481169427949185"><ele>618.0</ele><time>2026-03-28T13:41:14.001Z</time></trkpt><trkpt lat="43.031130657690404" lon="11.481162959390353"><ele>618.0</ele><time>2026-03-28T13:41:15.001Z</time></trkpt><trkpt lat="43.031420552444686" lon="11.481154199287872"><ele>620.5</ele><time>2026-03-28T13:41:16.001Z</time></trkpt><trkpt lat="43.03168947471553" lon="11.481155308913676"><ele>623.0</ele><time>2026-03-28T13:41:17.001Z</time></trkpt><trkpt lat="43.031939432813914" lon="11.481151790837998"><ele>623.0</ele><time>2026-03-28T13:41:18.001Z</time></trkpt><trkpt lat="43.032159742650066" lon="11.481144655428594"><ele>623.0</ele><time>2026-03-28T13:41:19.001Z</time></trkpt><trkpt lat="43.032367000949165" lon="11.48113473822068"><ele>623.0</ele><time>2026-03-28T13:41:20.001Z</time></trkpt><trkpt lat="43.03258391382863" lon="11.48110655717627"><ele>623.5</ele><time>2026-03-28T13:41:21.001Z</time></trkpt><trkpt lat="43.03280568903301" lon="11.481027102279345"><ele>624.0</ele><time>2026-03-28T13:41:22.001Z</time></trkpt><trkpt lat="43.0330285096621" lon="11.480939703426834"><ele>624.0</ele><time>2026-03-28T13:41:23.001Z</time></trkpt><trkpt lat="43.03323218190604" lon="11.48086443406828"><ele>624.0</ele><time>2026-03-28T13:41:24.001Z</time></trkpt><trkpt lat="43.033431716453364" lon="11.480797328418584"><ele>624.0</ele><time>2026-03-28T13:41:25.001Z</time></trkpt><trkpt lat="43.03362063638107" lon="11.480736305916473"><ele>627.0</ele><time>2026-03-28T13:41:26.001Z</time></trkpt><trkpt lat="43.03378746021657" lon="11.480691662552363"><ele>630.0</ele><time>2026-03-28T13:41:27.001Z</time></trkpt><trkpt lat="43.03394213509061" lon="11.480647747372203"><ele>633.0</ele><time>2026-03-28T13:41:28.001Z</time></trkpt><trkpt lat="43.03409318336087" lon="11.480598491377826"><ele>633.0</ele><time>2026-03-28T13:41:29.001Z</time></trkpt><trkpt lat="43.03423422595509" lon="11.480535334982656"><ele>633.0</ele><time>2026-03-28T13:41:30.001Z</time></trkpt><trkpt lat="43.03437228941854" lon="11.480439966254476"><ele>633.0</ele><time>2026-03-28T13:41:31.001Z</time></trkpt><trkpt lat="43.03449562293178" lon="11.48028875085179"><ele>633.0</ele><time>2026-03-28T13:41:32.001Z</time></trkpt><trkpt lat="43.03461050699485" lon="11.480068331782654"><ele>633.0</ele><time>2026-03-28T13:41:33.001Z</time></trkpt><trkpt lat="43.034706647036614" lon="11.479830412438242"><ele>633.0</ele><time>2026-03-28T13:41:34.001Z</time></trkpt><trkpt lat="43.03481165713572" lon="11.47964150042166"><ele>630.3333333333334</ele><time>2026-03-28T13:41:35.001Z</time></trkpt><trkpt lat="43.034911555799056" lon="11.47946180438567"><ele>627.6666666666667</ele><time>2026-03-28T13:41:36.001Z</time></trkpt><trkpt lat="43.035029286817064" lon="11.479311118486558"><ele>625.0</ele><time>2026-03-28T13:41:37.001Z</time></trkpt><trkpt lat="43.035169693063814" lon="11.479193183246263"><ele>623.0</ele><time>2026-03-28T13:41:38.001Z</time></trkpt><trkpt lat="43.03533265179594" lon="11.47912458933276"><ele>621.0</ele><time>2026-03-28T13:41:39.001Z</time></trkpt><trkpt lat="43.03550757618202" lon="11.479086341792875"><ele>619.0</ele><time>2026-03-28T13:41:40.001Z</time></trkpt><trkpt lat="43.035689852114054" lon="11.479115420194232"><ele>616.0</ele><time>2026-03-28T13:41:41.001Z</time></trkpt><trkpt lat="43.03587146872964" lon="11.479205944455273"><ele>613.0</ele><time>2026-03-28T13:41:42.001Z</time></trkpt><trkpt lat="43.036041918685434" lon="11.479336162790519"><ele>610.0</ele><time>2026-03-28T13:41:43.001Z</time></trkpt><trkpt lat="43.03620265771939" lon="11.479442639365427"><ele>610.0</ele><time>2026-03-28T13:41:44.001Z</time></trkpt><trkpt lat="43.03635452173078" lon="11.479569732039167"><ele>610.0</ele><time>2026-03-28T13:41:45.001Z</time></trkpt><trkpt lat="43.03652751601415" lon="11.47961893757447"><ele>610.0</ele><time>2026-03-28T13:41:46.001Z</time></trkpt><trkpt lat="43.03671383091748" lon="11.479749125635808"><ele>607.0</ele><time>2026-03-28T13:41:47.001Z</time></trkpt><trkpt lat="43.03691458116645" lon="11.4798941176607"><ele>604.0</ele><time>2026-03-28T13:41:48.001Z</time></trkpt><trkpt lat="43.03710863928707" lon="11.480037636173524"><ele>601.0</ele><time>2026-03-28T13:41:49.001Z</time></trkpt><trkpt lat="43.037307456552256" lon="11.480194211033073"><ele>598.0</ele><time>2026-03-28T13:41:50.001Z</time></trkpt><trkpt lat="43.037517429815665" lon="11.480364748329775"><ele>595.0</ele><time>2026-03-28T13:41:51.001Z</time></trkpt><trkpt lat="43.03774050808143" lon="11.480561902787207"><ele>593.5</ele><time>2026-03-28T13:41:52.001Z</time></trkpt><trkpt lat="43.03798676940388" lon="11.480782766637866"><ele>592.0</ele><time>2026-03-28T13:41:53.001Z</time></trkpt><trkpt lat="43.03825742594327" lon="11.481024493762463"><ele>590.5</ele><time>2026-03-28T13:41:54.001Z</time></trkpt><trkpt lat="43.03853584640161" lon="11.481276817382467"><ele>589.0</ele><time>2026-03-28T13:41:55.001Z</time></trkpt><trkpt lat="43.03878162393946" lon="11.48149414658509"><ele>589.0</ele><time>2026-03-28T13:41:56.001Z</time></trkpt><trkpt lat="43.03902111889134" lon="11.481698836377022"><ele>589.0</ele><time>2026-03-28T13:41:57.001Z</time></trkpt><trkpt lat="43.03926873041878" lon="11.481907683770732"><ele>597.0</ele><time>2026-03-28T13:41:58.001Z</time></trkpt><trkpt lat="43.03951445685417" lon="11.482129920036419"><ele>605.0</ele><time>2026-03-28T13:41:59.001Z</time></trkpt><trkpt lat="43.03973022319292" lon="11.482315079621232"><ele>605.0</ele><time>2026-03-28T13:42:00.001Z</time></trkpt><trkpt lat="43.03992887716142" lon="11.482478578860368"><ele>605.0</ele><time>2026-03-28T13:42:01.001Z</time></trkpt><trkpt lat="43.04011451568277" lon="11.482641487775032"><ele>606.6666666666666</ele><time>2026-03-28T13:42:02.001Z</time></trkpt><trkpt lat="43.040305374662786" lon="11.482786346967133"><ele>608.3333333333334</ele><time>2026-03-28T13:42:03.001Z</time></trkpt><trkpt lat="43.04052018767527" lon="11.482895468351773"><ele>610.0</ele><time>2026-03-28T13:42:04.001Z</time></trkpt><trkpt lat="43.040754102789066" lon="11.482979364487667"><ele>614.0</ele><time>2026-03-28T13:42:05.001Z</time></trkpt><trkpt lat="43.04098520121656" lon="11.48305108534745"><ele>618.0</ele><time>2026-03-28T13:42:06.001Z</time></trkpt><trkpt lat="43.04122338992492" lon="11.483099968106917"><ele>618.0</ele><time>2026-03-28T13:42:07.002Z</time></trkpt><trkpt lat="43.04146016616317" lon="11.483136406281544"><ele>618.0</ele><time>2026-03-28T13:42:08.002Z</time></trkpt><trkpt lat="43.041689958683975" lon="11.48321044138176"><ele>616.0</ele><time>2026-03-28T13:42:09.002Z</time></trkpt><trkpt lat="43.041895890866186" lon="11.48327917202419"><ele>614.0</ele><time>2026-03-28T13:42:10.002Z</time></trkpt><trkpt lat="43.0420931284636" lon="11.483338202298711"><ele>612.0</ele><time>2026-03-28T13:42:11.002Z</time></trkpt><trkpt lat="43.042287443848096" lon="11.483401187084445"><ele>612.3333333333334</ele><time>2026-03-28T13:42:12.002Z</time></trkpt><trkpt lat="43.042484490276436" lon="11.48346387016869"><ele>612.6666666666667</ele><time>2026-03-28T13:42:13.002Z</time></trkpt><trkpt lat="43.04267609322107" lon="11.483520745964608"><ele>613.0</ele><time>2026-03-28T13:42:14.002Z</time></trkpt><trkpt lat="43.04285383486073" lon="11.483572840989826"><ele>613.0</ele><time>2026-03-28T13:42:15.002Z</time></trkpt><trkpt lat="43.043028080887765" lon="11.483617346763086"><ele>613.0</ele><time>2026-03-28T13:42:16.002Z</time></trkpt><trkpt lat="43.043207214553604" lon="11.48366675588324"><ele>613.0</ele><time>2026-03-28T13:42:17.002Z</time></trkpt><trkpt lat="43.04339182340051" lon="11.48372211285973"><ele>612.3333333333334</ele><time>2026-03-28T13:42:18.002Z</time></trkpt><trkpt lat="43.04357462819296" lon="11.483797250034621"><ele>611.6666666666666</ele><time>2026-03-28T13:42:19.002Z</time></trkpt><trkpt lat="43.04374887621485" lon="11.483932921662173"><ele>611.0</ele><time>2026-03-28T13:42:20.002Z</time></trkpt><trkpt lat="43.0439252113465" lon="11.484081262424171"><ele>611.0</ele><time>2026-03-28T13:42:21.002Z</time></trkpt><trkpt lat="43.04408117198706" lon="11.484253805073834"><ele>611.0</ele><time>2026-03-28T13:42:22.002Z</time></trkpt><trkpt lat="43.0442224630957" lon="11.484408231129981"><ele>611.0</ele><time>2026-03-28T13:42:23.002Z</time></trkpt><trkpt lat="43.0443486060318" lon="11.484553469342513"><ele>611.3333333333333</ele><time>2026-03-28T13:42:24.002Z</time></trkpt><trkpt lat="43.04445072512147" lon="11.48470941577682"><ele>611.6666666666666</ele><time>2026-03-28T13:42:25.002Z</time></trkpt><trkpt lat="43.04453689635639" lon="11.484892026431998"><ele>612.0</ele><time>2026-03-28T13:42:26.002Z</time></trkpt><trkpt lat="43.04461007822856" lon="11.485118522914007"><ele>612.0</ele><time>2026-03-28T13:42:27.002Z</time></trkpt><trkpt lat="43.04467449267931" lon="11.485385781929239"><ele>612.0</ele><time>2026-03-28T13:42:28.002Z</time></trkpt><trkpt lat="43.04475056030874" lon="11.485682531605974"><ele>612.0</ele><time>2026-03-28T13:42:29.002Z</time></trkpt><trkpt lat="43.044825560624815" lon="11.48594665490776"><ele>612.6666666666666</ele><time>2026-03-28T13:42:30.002Z</time></trkpt><trkpt lat="43.04489134402788" lon="11.486185909165842"><ele>613.3333333333333</ele><time>2026-03-28T13:42:31.002Z</time></trkpt><trkpt lat="43.04494905528255" lon="11.486409533308873"><ele>614.0</ele><time>2026-03-28T13:42:32.002Z</time></trkpt><trkpt lat="43.045009458387824" lon="11.486611018657138"><ele>614.25</ele><time>2026-03-28T13:42:33.002Z</time></trkpt><trkpt lat="43.04506356793632" lon="11.486789404181975"><ele>614.5</ele><time>2026-03-28T13:42:34.002Z</time></trkpt><trkpt lat="43.04513971549359" lon="11.48695064301168"><ele>614.75</ele><time>2026-03-28T13:42:35.002Z</time></trkpt><trkpt lat="43.045254517461494" lon="11.487063972576996"><ele>615.0</ele><time>2026-03-28T13:42:36.002Z</time></trkpt><trkpt lat="43.04539437066648" lon="11.487113193620349"><ele>614.5</ele><time>2026-03-28T13:42:37.002Z</time></trkpt><trkpt lat="43.045549613220565" lon="11.487113226866223"><ele>614.0</ele><time>2026-03-28T13:42:38.002Z</time></trkpt><trkpt lat="43.04570274614261" lon="11.487096227458416"><ele>613.5</ele><time>2026-03-28T13:42:39.002Z</time></trkpt><trkpt lat="43.045829172913045" lon="11.487116380802544"><ele>613.0</ele><time>2026-03-28T13:42:40.002Z</time></trkpt><trkpt lat="43.04594080199642" lon="11.48720267821482"><ele>613.0</ele><time>2026-03-28T13:42:41.002Z</time></trkpt><trkpt lat="43.04604069097519" lon="11.487341975819781"><ele>613.0</ele><time>2026-03-28T13:42:42.002Z</time></trkpt><trkpt lat="43.04612946013446" lon="11.487517104424027"><ele>613.0</ele><time>2026-03-28T13:42:43.002Z</time></trkpt><trkpt lat="43.04619003562652" lon="11.487737108436383"><ele>609.3333333333334</ele><time>2026-03-28T13:42:44.002Z</time></trkpt><trkpt lat="43.046248635127945" lon="11.48797006788182"><ele>605.6666666666666</ele><time>2026-03-28T13:42:45.001Z</time></trkpt><trkpt lat="43.04631010939689" lon="11.488217987286923"><ele>602.0</ele><time>2026-03-28T13:42:46.001Z</time></trkpt><trkpt lat="43.046343085699" lon="11.48845390042283"><ele>602.0</ele><time>2026-03-28T13:42:47.001Z</time></trkpt><trkpt lat="43.04638246730159" lon="11.48866021678638"><ele>602.0</ele><time>2026-03-28T13:42:48.001Z</time></trkpt><trkpt lat="43.046415934656316" lon="11.48885113385607"><ele>602.0</ele><time>2026-03-28T13:42:49.001Z</time></trkpt><trkpt lat="43.0464584055118" lon="11.489023002196456"><ele>602.0</ele><time>2026-03-28T13:42:50.001Z</time></trkpt><trkpt lat="43.04651537712473" lon="11.489189903577595"><ele>599.3333333333333</ele><time>2026-03-28T13:42:51.001Z</time></trkpt><trkpt lat="43.04660548730147" lon="11.489349590847569"><ele>596.6666666666666</ele><time>2026-03-28T13:42:52.001Z</time></trkpt><trkpt lat="43.04673907058588" lon="11.489469285136414"><ele>594.0</ele><time>2026-03-28T13:42:53.001Z</time></trkpt><trkpt lat="43.046887713469765" lon="11.489547416529978"><ele>595.0</ele><time>2026-03-28T13:42:54.001Z</time></trkpt><trkpt lat="43.04705534863246" lon="11.489576109314454"><ele>596.0</ele><time>2026-03-28T13:42:55.001Z</time></trkpt><trkpt lat="43.047217974785205" lon="11.489558414252489"><ele>597.0</ele><time>2026-03-28T13:42:56.001Z</time></trkpt><trkpt lat="43.04736072626541" lon="11.48960236640337"><ele>599.0</ele><time>2026-03-28T13:42:57.001Z</time></trkpt><trkpt lat="43.047488242592785" lon="11.489699962841234"><ele>601.0</ele><time>2026-03-28T13:42:58.001Z</time></trkpt><trkpt lat="43.04761990484512" lon="11.489839009404648"><ele>603.0</ele><time>2026-03-28T13:42:59.001Z</time></trkpt><trkpt lat="43.04774270040967" lon="11.48997554291522"><ele>603.0</ele><time>2026-03-28T13:43:00.001Z</time></trkpt><trkpt lat="43.04786111683396" lon="11.490080307133205"><ele>603.0</ele><time>2026-03-28T13:43:01.001Z</time></trkpt><trkpt lat="43.047992556608136" lon="11.49011496831676"><ele>603.0</ele><time>2026-03-28T13:43:02.001Z</time></trkpt><trkpt lat="43.048156883150696" lon="11.490087755108894"><ele>603.0</ele><time>2026-03-28T13:43:03.001Z</time></trkpt><trkpt lat="43.04832365228748" lon="11.490030520013333"><ele>603.0</ele><time>2026-03-28T13:43:04.001Z</time></trkpt><trkpt lat="43.04847000155523" lon="11.489967130441123"><ele>603.0</ele><time>2026-03-28T13:43:05.001Z</time></trkpt><trkpt lat="43.048590728714125" lon="11.489954963551506"><ele>603.0</ele><time>2026-03-28T13:43:06.001Z</time></trkpt><trkpt lat="43.04870152203433" lon="11.48994796016567"><ele>603.0</ele><time>2026-03-28T13:43:07.001Z</time></trkpt><trkpt lat="43.04880500629305" lon="11.490025454261543"><ele>603.0</ele><time>2026-03-28T13:43:08.001Z</time></trkpt><trkpt lat="43.04888924847729" lon="11.49018677214844"><ele>603.0</ele><time>2026-03-28T13:43:09.001Z</time></trkpt><trkpt lat="43.04894524970496" lon="11.490402449315507"><ele>603.0</ele><time>2026-03-28T13:43:10.001Z</time></trkpt><trkpt lat="43.04899115226732" lon="11.490639151096826"><ele>601.0</ele><time>2026-03-28T13:43:11.001Z</time></trkpt><trkpt lat="43.04903916898681" lon="11.490843189041618"><ele>599.0</ele><time>2026-03-28T13:43:12.001Z</time></trkpt><trkpt lat="43.04909517086474" lon="11.490997514038945"><ele>597.0</ele><time>2026-03-28T13:43:13.001Z</time></trkpt><trkpt lat="43.04919780372001" lon="11.491098821157497"><ele>595.0</ele><time>2026-03-28T13:43:14.001Z</time></trkpt><trkpt lat="43.0493266805847" lon="11.491136926603495"><ele>595.0</ele><time>2026-03-28T13:43:15.001Z</time></trkpt><trkpt lat="43.04946942457298" lon="11.491093373785011"><ele>595.0</ele><time>2026-03-28T13:43:16.001Z</time></trkpt><trkpt lat="43.04963560261309" lon="11.491018420276356"><ele>595.0</ele><time>2026-03-28T13:43:17.001Z</time></trkpt><trkpt lat="43.049795175029786" lon="11.490984004410189"><ele>595.0</ele><time>2026-03-28T13:43:18.001Z</time></trkpt><trkpt lat="43.04993261179877" lon="11.491005171304662"><ele>595.0</ele><time>2026-03-28T13:43:19.001Z</time></trkpt><trkpt lat="43.05003936314137" lon="11.491037184194532"><ele>595.0</ele><time>2026-03-28T13:43:20.001Z</time></trkpt><trkpt lat="43.05014650717065" lon="11.491012837813884"><ele>595.0</ele><time>2026-03-28T13:43:21.001Z</time></trkpt><trkpt lat="43.050252796949515" lon="11.490913679093572"><ele>595.6666666666667</ele><time>2026-03-28T13:43:22.001Z</time></trkpt><trkpt lat="43.050345240504065" lon="11.490729771370361"><ele>596.3333333333334</ele><time>2026-03-28T13:43:23.001Z</time></trkpt><trkpt lat="43.05043545556839" lon="11.49050471945924"><ele>597.0</ele><time>2026-03-28T13:43:24.001Z</time></trkpt><trkpt lat="43.0505590936791" lon="11.49026645681211"><ele>594.3333333333334</ele><time>2026-03-28T13:43:25.001Z</time></trkpt><trkpt lat="43.050652840518644" lon="11.490059940500808"><ele>591.6666666666667</ele><time>2026-03-28T13:43:26.001Z</time></trkpt><trkpt lat="43.05073220504903" lon="11.48988317603966"><ele>589.0</ele><time>2026-03-28T13:43:27.001Z</time></trkpt><trkpt lat="43.050805279239036" lon="11.489725239857465"><ele>589.0</ele><time>2026-03-28T13:43:28.001Z</time></trkpt><trkpt lat="43.05087953770532" lon="11.489610834625651"><ele>589.0</ele><time>2026-03-28T13:43:29.001Z</time></trkpt><trkpt lat="43.05096847187168" lon="11.48952785955848"><ele>589.0</ele><time>2026-03-28T13:43:30.001Z</time></trkpt><trkpt lat="43.05107291087811" lon="11.489508610402494"><ele>589.0</ele><time>2026-03-28T13:43:31.001Z</time></trkpt><trkpt lat="43.0512078493056" lon="11.489576203124887"><ele>589.0</ele><time>2026-03-28T13:43:32.001Z</time></trkpt><trkpt lat="43.051292919705546" lon="11.489678018880019"><ele>589.0</ele><time>2026-03-28T13:43:33.001Z</time></trkpt><trkpt lat="43.05136355673492" lon="11.48987225974011"><ele>589.0</ele><time>2026-03-28T13:43:34.001Z</time></trkpt><trkpt lat="43.05143980996855" lon="11.49009360174074"><ele>589.0</ele><time>2026-03-28T13:43:35.001Z</time></trkpt><trkpt lat="43.05151388214621" lon="11.490293555498017"><ele>589.0</ele><time>2026-03-28T13:43:36.001Z</time></trkpt><trkpt lat="43.051586441537296" lon="11.490457392418834"><ele>589.0</ele><time>2026-03-28T13:43:37.001Z</time></trkpt><trkpt lat="43.051674464361135" lon="11.49061129843334"><ele>589.0</ele><time>2026-03-28T13:43:38.001Z</time></trkpt><trkpt lat="43.05179786655615" lon="11.490747927749508"><ele>585.0</ele><time>2026-03-28T13:43:39.001Z</time></trkpt><trkpt lat="43.05192464148046" lon="11.490865703867376"><ele>581.0</ele><time>2026-03-28T13:43:40.001Z</time></trkpt><trkpt lat="43.05203855032178" lon="11.490959449654085"><ele>577.0</ele><time>2026-03-28T13:43:41.001Z</time></trkpt><trkpt lat="43.052154270539624" lon="11.491016363839393"><ele>573.0</ele><time>2026-03-28T13:43:42.001Z</time></trkpt><trkpt lat="43.05230151965366" lon="11.491028555229889"><ele>574.3333333333334</ele><time>2026-03-28T13:43:43.001Z</time></trkpt><trkpt lat="43.05246253286356" lon="11.490976961210281"><ele>575.6666666666667</ele><time>2026-03-28T13:43:44.001Z</time></trkpt><trkpt lat="43.05263064726775" lon="11.490879568297139"><ele>577.0</ele><time>2026-03-28T13:43:45.001Z</time></trkpt><trkpt lat="43.052784608166746" lon="11.490784614855473"><ele>577.0</ele><time>2026-03-28T13:43:46.001Z</time></trkpt><trkpt lat="43.05290972322299" lon="11.490684871148511"><ele>577.0</ele><time>2026-03-28T13:43:47.001Z</time></trkpt><trkpt lat="43.05301297520646" lon="11.49059057891979"><ele>577.0</ele><time>2026-03-28T13:43:48.001Z</time></trkpt><trkpt lat="43.05309754998092" lon="11.490467687347452"><ele>577.0</ele><time>2026-03-28T13:43:49.001Z</time></trkpt><trkpt lat="43.05315334449623" lon="11.490292742752304"><ele>581.6666666666667</ele><time>2026-03-28T13:43:50.001Z</time></trkpt><trkpt lat="43.05319996665971" lon="11.49006283704233"><ele>586.3333333333334</ele><time>2026-03-28T13:43:51.001Z</time></trkpt><trkpt lat="43.05323603112209" lon="11.489816314609566"><ele>591.0</ele><time>2026-03-28T13:43:52.001Z</time></trkpt><trkpt lat="43.05326845396791" lon="11.48960293605684"><ele>585.5</ele><time>2026-03-28T13:43:53.001Z</time></trkpt><trkpt lat="43.053302027049654" lon="11.489418270330166"><ele>580.0</ele><time>2026-03-28T13:43:54.001Z</time></trkpt><trkpt lat="43.05333941325932" lon="11.489251647079088"><ele>574.5</ele><time>2026-03-28T13:43:55.001Z</time></trkpt><trkpt lat="43.053390772424535" lon="11.489109737194319"><ele>569.0</ele><time>2026-03-28T13:43:56.001Z</time></trkpt><trkpt lat="43.053472411506924" lon="11.48899080638311"><ele>569.0</ele><time>2026-03-28T13:43:57.001Z</time></trkpt><trkpt lat="43.053595912961526" lon="11.488938272423892"><ele>569.0</ele><time>2026-03-28T13:43:58.001Z</time></trkpt><trkpt lat="43.05372623476991" lon="11.488890399830103"><ele>569.0</ele><time>2026-03-28T13:43:59.001Z</time></trkpt><trkpt lat="43.05387416979087" lon="11.488835603115032"><ele>569.0</ele><time>2026-03-28T13:44:00.001Z</time></trkpt><trkpt lat="43.05401917508995" lon="11.488775111659216"><ele>568.0</ele><time>2026-03-28T13:44:01.001Z</time></trkpt><trkpt lat="43.05415049638543" lon="11.488728337016337"><ele>567.0</ele><time>2026-03-28T13:44:02.001Z</time></trkpt><trkpt lat="43.05426608378381" lon="11.488708065610824"><ele>566.0</ele><time>2026-03-28T13:44:03.001Z</time></trkpt><trkpt lat="43.05436823158583" lon="11.488664175576536"><ele>565.0</ele><time>2026-03-28T13:44:04.001Z</time></trkpt><trkpt lat="43.054469107623966" lon="11.488670887240955"><ele>565.0</ele><time>2026-03-28T13:44:05.001Z</time></trkpt><trkpt lat="43.05456212881527" lon="11.488705260646713"><ele>565.0</ele><time>2026-03-28T13:44:06.001Z</time></trkpt><trkpt lat="43.05465077854374" lon="11.488750284305889"><ele>565.0</ele><time>2026-03-28T13:44:07.001Z</time></trkpt><trkpt lat="43.054733407314814" lon="11.488803132668453"><ele>565.0</ele><time>2026-03-28T13:44:08.001Z</time></trkpt><trkpt lat="43.05481435039852" lon="11.488863347108033"><ele>565.0</ele><time>2026-03-28T13:44:09.001Z</time></trkpt><trkpt lat="43.0548807863952" lon="11.488907538939975"><ele>565.0</ele><time>2026-03-28T13:44:10.001Z</time></trkpt><trkpt lat="43.05493688961843" lon="11.488961715760192"><ele>563.0</ele><time>2026-03-28T13:44:11.001Z</time></trkpt><trkpt lat="43.05501180747262" lon="11.48906541912263"><ele>561.0</ele><time>2026-03-28T13:44:13.001Z</time></trkpt><trkpt lat="43.05505844751575" lon="11.4891243779474"><ele>559.0</ele><time>2026-03-28T13:44:15.001Z</time></trkpt><trkpt lat="43.05500325203118" lon="11.489214357938273"><ele>557.0</ele><time>2026-03-28T13:44:16.001Z</time></trkpt><trkpt lat="43.05484377415397" lon="11.48921443419865"><ele>555.0</ele><time>2026-03-28T13:44:18.001Z</time></trkpt><trkpt lat="43.054710397714196" lon="11.489228830317906"><ele>555.0</ele><time>2026-03-28T13:44:19.001Z</time></trkpt><trkpt lat="43.05460751824612" lon="11.489235368597656"><ele>555.0</ele><time>2026-03-28T13:44:20.001Z</time></trkpt><trkpt lat="43.054490218710605" lon="11.489237435533061"><ele>555.0</ele><time>2026-03-28T13:44:21.001Z</time></trkpt><trkpt lat="43.05437810166284" lon="11.489248370930467"><ele>555.0</ele><time>2026-03-28T13:44:22.001Z</time></trkpt><trkpt lat="43.054276679608975" lon="11.489287004879618"><ele>555.0</ele><time>2026-03-28T13:44:23.001Z</time></trkpt><trkpt lat="43.054190975632494" lon="11.489353980218535"><ele>560.0</ele><time>2026-03-28T13:44:24.001Z</time></trkpt><trkpt lat="43.054020988670125" lon="11.489204490783392"><ele>565.0</ele><time>2026-03-28T13:44:25.001Z</time></trkpt><trkpt lat="43.05409350627126" lon="11.489605705396494"><ele>565.0</ele><time>2026-03-28T13:44:26.001Z</time></trkpt><trkpt lat="43.05409636990112" lon="11.489748948304705"><ele>565.0</ele><time>2026-03-28T13:44:27.001Z</time></trkpt><trkpt lat="43.05414847218891" lon="11.489893107857261"><ele>565.0</ele><time>2026-03-28T13:44:28.001Z</time></trkpt><trkpt lat="43.05423682538335" lon="11.490029451638007"><ele>565.0</ele><time>2026-03-28T13:44:29.001Z</time></trkpt><trkpt lat="43.0543736389888" lon="11.490160559841286"><ele>558.6666666666667</ele><time>2026-03-28T13:44:30.001Z</time></trkpt><trkpt lat="43.05452685412192" lon="11.490294786778978"><ele>552.3333333333334</ele><time>2026-03-28T13:44:31.001Z</time></trkpt><trkpt lat="43.054645061436396" lon="11.490447070708703"><ele>546.0</ele><time>2026-03-28T13:44:32.001Z</time></trkpt><trkpt lat="43.054757504137264" lon="11.490598968366884"><ele>544.0</ele><time>2026-03-28T13:44:33.001Z</time></trkpt><trkpt lat="43.05486296742051" lon="11.490745046565243"><ele>542.0</ele><time>2026-03-28T13:44:34.001Z</time></trkpt><trkpt lat="43.05495940811624" lon="11.490896905826181"><ele>540.0</ele><time>2026-03-28T13:44:35.001Z</time></trkpt><trkpt lat="43.05503895477802" lon="11.491054189946452"><ele>538.0</ele><time>2026-03-28T13:44:36.001Z</time></trkpt><trkpt lat="43.05509796960951" lon="11.49121741336955"><ele>533.8</ele><time>2026-03-28T13:44:37.002Z</time></trkpt><trkpt lat="43.05516581742976" lon="11.49136774186451"><ele>529.5999999999999</ele><time>2026-03-28T13:44:38.002Z</time></trkpt><trkpt lat="43.05523742837012" lon="11.491496510629444"><ele>525.4000000000001</ele><time>2026-03-28T13:44:39.002Z</time></trkpt><trkpt lat="43.05529300944552" lon="11.491627129613823"><ele>521.2</ele><time>2026-03-28T13:44:40.002Z</time></trkpt><trkpt lat="43.05534419009482" lon="11.49170980735048"><ele>517.0</ele><time>2026-03-28T13:44:41.002Z</time></trkpt><trkpt lat="43.05539112880595" lon="11.491768856394003"><ele>517.0</ele><time>2026-03-28T13:44:42.002Z</time></trkpt><trkpt lat="43.0554433821413" lon="11.491853069047098"><ele>517.0</ele><time>2026-03-28T13:44:44.002Z</time></trkpt><trkpt lat="43.05535073133297" lon="11.491838949460757"><ele>517.0</ele><time>2026-03-28T13:44:46.001Z</time></trkpt><trkpt lat="43.05529262480388" lon="11.49170121234791"><ele>517.0</ele><time>2026-03-28T13:44:47.001Z</time></trkpt><trkpt lat="43.05519941221067" lon="11.491552748329948"><ele>517.0</ele><time>2026-03-28T13:44:48.001Z</time></trkpt><trkpt lat="43.05507117308362" lon="11.49141514063998"><ele>517.0</ele><time>2026-03-28T13:44:49.001Z</time></trkpt><trkpt lat="43.055001056403086" lon="11.491322600055328"><ele>517.0</ele><time>2026-03-28T13:44:50.001Z</time></trkpt><trkpt lat="43.05492049148337" lon="11.491220531122622"><ele>517.0</ele><time>2026-03-28T13:44:51.001Z</time></trkpt><trkpt lat="43.05484807829967" lon="11.491116069074195"><ele>517.0</ele><time>2026-03-28T13:44:52.001Z</time></trkpt><trkpt lat="43.054778270929674" lon="11.491023423060987"><ele>517.0</ele><time>2026-03-28T13:44:53.001Z</time></trkpt><trkpt lat="43.05470527256874" lon="11.490947070464543"><ele>520.8000000000001</ele><time>2026-03-28T13:44:54.001Z</time></trkpt><trkpt lat="43.054610881410994" lon="11.490917711749185"><ele>524.6</ele><time>2026-03-28T13:44:55.001Z</time></trkpt><trkpt lat="43.05449505943753" lon="11.49096434857936"><ele>528.4000000000001</ele><time>2026-03-28T13:44:56.001Z</time></trkpt><trkpt lat="43.05442179778813" lon="11.49103643321164"><ele>532.2</ele><time>2026-03-28T13:44:57.001Z</time></trkpt><trkpt lat="43.054369498401456" lon="11.491160801035166"><ele>536.0</ele><time>2026-03-28T13:44:58.001Z</time></trkpt><trkpt lat="43.054348165865754" lon="11.49132634186622"><ele>536.0</ele><time>2026-03-28T13:44:59.001Z</time></trkpt><trkpt lat="43.05436550393351" lon="11.491504167557938"><ele>536.0</ele><time>2026-03-28T13:45:00.001Z</time></trkpt><trkpt lat="43.054377717949905" lon="11.491652940855188"><ele>536.0</ele><time>2026-03-28T13:45:01.001Z</time></trkpt><trkpt lat="43.054401844707286" lon="11.491834023940429"><ele>536.0</ele><time>2026-03-28T13:45:02.001Z</time></trkpt><trkpt lat="43.05441677007217" lon="11.492028079917114"><ele>533.0</ele><time>2026-03-28T13:45:03.001Z</time></trkpt><trkpt lat="43.05442758514146" lon="11.492216879187048"><ele>530.0</ele><time>2026-03-28T13:45:04.001Z</time></trkpt><trkpt lat="43.05442690755306" lon="11.492417796021716"><ele>527.0</ele><time>2026-03-28T13:45:05.001Z</time></trkpt><trkpt lat="43.05442518210101" lon="11.49260509217689"><ele>524.0</ele><time>2026-03-28T13:45:06.001Z</time></trkpt><trkpt lat="43.054403356460185" lon="11.492777680533786"><ele>521.5</ele><time>2026-03-28T13:45:07.001Z</time></trkpt><trkpt lat="43.05435140534807" lon="11.492951815189507"><ele>519.0</ele><time>2026-03-28T13:45:08.001Z</time></trkpt><trkpt lat="43.0542619338976" lon="11.493107670076881"><ele>516.5</ele><time>2026-03-28T13:45:09.001Z</time></trkpt><trkpt lat="43.05416623057024" lon="11.493264137682692"><ele>514.0</ele><time>2026-03-28T13:45:10.001Z</time></trkpt><trkpt lat="43.0540442610806" lon="11.493390947903842"><ele>514.0</ele><time>2026-03-28T13:45:11.001Z</time></trkpt><trkpt lat="43.053903548331476" lon="11.493504022286684"><ele>514.0</ele><time>2026-03-28T13:45:12.001Z</time></trkpt><trkpt lat="43.05376237743587" lon="11.493638163804933"><ele>514.0</ele><time>2026-03-28T13:45:13.001Z</time></trkpt><trkpt lat="43.05371385589906" lon="11.493765665733216"><ele>514.0</ele><time>2026-03-28T13:45:14.001Z</time></trkpt><trkpt lat="43.053615068460864" lon="11.493889647357623"><ele>512.5</ele><time>2026-03-28T13:45:15.001Z</time></trkpt><trkpt lat="43.05354176754026" lon="11.49406073608324"><ele>511.0</ele><time>2026-03-28T13:45:16.001Z</time></trkpt><trkpt lat="43.05348372971692" lon="11.49424102895626"><ele>509.5</ele><time>2026-03-28T13:45:17.001Z</time></trkpt><trkpt lat="43.05344290111016" lon="11.494436663954321"><ele>508.0</ele><time>2026-03-28T13:45:18.001Z</time></trkpt><trkpt lat="43.05343526420791" lon="11.494674497616284"><ele>507.0</ele><time>2026-03-28T13:45:19.001Z</time></trkpt><trkpt lat="43.05344983412441" lon="11.494928750080948"><ele>506.0</ele><time>2026-03-28T13:45:20.001Z</time></trkpt><trkpt lat="43.05346987188366" lon="11.495151700933649"><ele>505.0</ele><time>2026-03-28T13:45:21.001Z</time></trkpt><trkpt lat="43.05349363699274" lon="11.495370679935933"><ele>504.6666666666667</ele><time>2026-03-28T13:45:22.001Z</time></trkpt><trkpt lat="43.053513323837365" lon="11.49560658232381"><ele>504.33333333333337</ele><time>2026-03-28T13:45:23.001Z</time></trkpt><trkpt lat="43.053522990639614" lon="11.495844123445634"><ele>504.0</ele><time>2026-03-28T13:45:24.001Z</time></trkpt><trkpt lat="43.05352150344766" lon="11.49606084686872"><ele>502.33333333333337</ele><time>2026-03-28T13:45:25.001Z</time></trkpt><trkpt lat="43.05349766871376" lon="11.49626778202987"><ele>500.6666666666667</ele><time>2026-03-28T13:45:26.001Z</time></trkpt><trkpt lat="43.053467800088605" lon="11.49650009792224"><ele>499.0</ele><time>2026-03-28T13:45:27.001Z</time></trkpt><trkpt lat="43.05343269547731" lon="11.496760085029635"><ele>499.0</ele><time>2026-03-28T13:45:28.001Z</time></trkpt><trkpt lat="43.053412357132586" lon="11.496994506749013"><ele>499.0</ele><time>2026-03-28T13:45:29.001Z</time></trkpt><trkpt lat="43.05335779748231" lon="11.497191084948712"><ele>499.0</ele><time>2026-03-28T13:45:30.001Z</time></trkpt><trkpt lat="43.05329829881919" lon="11.497383194209894"><ele>499.33333333333337</ele><time>2026-03-28T13:45:31.001Z</time></trkpt><trkpt lat="43.05322137468456" lon="11.497590935214962"><ele>499.66666666666663</ele><time>2026-03-28T13:45:32.001Z</time></trkpt><trkpt lat="43.05312319852711" lon="11.497813641062839"><ele>500.0</ele><time>2026-03-28T13:45:33.001Z</time></trkpt><trkpt lat="43.053009956197464" lon="11.498059747831965"><ele>500.0</ele><time>2026-03-28T13:45:34.001Z</time></trkpt><trkpt lat="43.05290652215497" lon="11.49829091062827"><ele>500.0</ele><time>2026-03-28T13:45:35.001Z</time></trkpt><trkpt lat="43.05278659095444" lon="11.498548255926673"><ele>500.0</ele><time>2026-03-28T13:45:36.001Z</time></trkpt><trkpt lat="43.05268672828331" lon="11.498795178784203"><ele>497.66666666666663</ele><time>2026-03-28T13:45:37.001Z</time></trkpt><trkpt lat="43.05259701655165" lon="11.499014897363624"><ele>495.33333333333337</ele><time>2026-03-28T13:45:38.001Z</time></trkpt><trkpt lat="43.05251134346587" lon="11.49922721527358"><ele>493.0</ele><time>2026-03-28T13:45:39.001Z</time></trkpt><trkpt lat="43.05242403153887" lon="11.499446469890778"><ele>488.33333333333337</ele><time>2026-03-28T13:45:40.001Z</time></trkpt><trkpt lat="43.05232802148373" lon="11.499684603704255"><ele>483.66666666666663</ele><time>2026-03-28T13:45:41.001Z</time></trkpt><trkpt lat="43.05223157669695" lon="11.499915151985919"><ele>479.0</ele><time>2026-03-28T13:45:42.001Z</time></trkpt><trkpt lat="43.052139983391896" lon="11.500123112104044"><ele>479.0</ele><time>2026-03-28T13:45:43.001Z</time></trkpt><trkpt lat="43.05205954173577" lon="11.500308809030695"><ele>479.0</ele><time>2026-03-28T13:45:44.001Z</time></trkpt><trkpt lat="43.05199194299062" lon="11.500485830307573"><ele>479.0</ele><time>2026-03-28T13:45:45.001Z</time></trkpt><trkpt lat="43.05194139146165" lon="11.500669521345449"><ele>479.0</ele><time>2026-03-28T13:45:46.001Z</time></trkpt><trkpt lat="43.05190765437131" lon="11.500875291640046"><ele>477.3333333333333</ele><time>2026-03-28T13:45:47.001Z</time></trkpt><trkpt lat="43.05189694505235" lon="11.501103363947598"><ele>475.66666666666663</ele><time>2026-03-28T13:45:48.001Z</time></trkpt><trkpt lat="43.05192654269891" lon="11.5013238360161"><ele>474.0</ele><time>2026-03-28T13:45:49.001Z</time></trkpt><trkpt lat="43.05192932768496" lon="11.501556262329851"><ele>472.75</ele><time>2026-03-28T13:45:50.001Z</time></trkpt><trkpt lat="43.051939590679005" lon="11.501757460801306"><ele>471.5</ele><time>2026-03-28T13:45:51.001Z</time></trkpt><trkpt lat="43.051938148218056" lon="11.501951532215232"><ele>470.25</ele><time>2026-03-28T13:45:52.001Z</time></trkpt><trkpt lat="43.05190183855297" lon="11.502140979165226"><ele>469.0</ele><time>2026-03-28T13:45:53.001Z</time></trkpt><trkpt lat="43.05185875697667" lon="11.502319605674794"><ele>468.25</ele><time>2026-03-28T13:45:54.001Z</time></trkpt><trkpt lat="43.051820340873135" lon="11.502489988468161"><ele>467.5</ele><time>2026-03-28T13:45:55.001Z</time></trkpt><trkpt lat="43.05177110636694" lon="11.502647847273646"><ele>466.75</ele><time>2026-03-28T13:45:56.001Z</time></trkpt><trkpt lat="43.05173583536306" lon="11.502795535219843"><ele>466.0</ele><time>2026-03-28T13:45:57.001Z</time></trkpt><trkpt lat="43.0517215760708" lon="11.502949516298596"><ele>465.5</ele><time>2026-03-28T13:45:58.001Z</time></trkpt><trkpt lat="43.05173515524045" lon="11.503119838125357"><ele>465.0</ele><time>2026-03-28T13:45:59.001Z</time></trkpt><trkpt lat="43.05177226123306" lon="11.503300893516323"><ele>464.5</ele><time>2026-03-28T13:46:00.001Z</time></trkpt><trkpt lat="43.05182916443596" lon="11.503477363181496"><ele>464.0</ele><time>2026-03-28T13:46:01.001Z</time></trkpt><trkpt lat="43.05191316585086" lon="11.503633080270797"><ele>462.0</ele><time>2026-03-28T13:46:02.001Z</time></trkpt><trkpt lat="43.05198252028053" lon="11.503788285919663"><ele>460.0</ele><time>2026-03-28T13:46:03.001Z</time></trkpt><trkpt lat="43.052042384201016" lon="11.503938998431206"><ele>458.0</ele><time>2026-03-28T13:46:04.001Z</time></trkpt><trkpt lat="43.052102586665896" lon="11.504090061470851"><ele>456.0</ele><time>2026-03-28T13:46:05.001Z</time></trkpt><trkpt lat="43.052157755514145" lon="11.504244997982523"><ele>456.0</ele><time>2026-03-28T13:46:06.001Z</time></trkpt><trkpt lat="43.05220489934399" lon="11.504372042577721"><ele>456.0</ele><time>2026-03-28T13:46:07.001Z</time></trkpt><trkpt lat="43.052248683335826" lon="11.50449203118457"><ele>456.0</ele><time>2026-03-28T13:46:08.001Z</time></trkpt><trkpt lat="43.052276960701185" lon="11.504622352575936"><ele>456.0</ele><time>2026-03-28T13:46:09.001Z</time></trkpt><trkpt lat="43.05228879084476" lon="11.504744108350131"><ele>456.0</ele><time>2026-03-28T13:46:10.001Z</time></trkpt><trkpt lat="43.05228209896697" lon="11.504855292996288"><ele>456.4</ele><time>2026-03-28T13:46:11.001Z</time></trkpt><trkpt lat="43.05226156203578" lon="11.504947676619967"><ele>456.8</ele><time>2026-03-28T13:46:12.001Z</time></trkpt><trkpt lat="43.05231116160769" lon="11.5050936253132"><ele>457.19999999999993</ele><time>2026-03-28T13:46:14.001Z</time></trkpt><trkpt lat="43.052391230510786" lon="11.505093408263733"><ele>457.59999999999997</ele><time>2026-03-28T13:46:15.001Z</time></trkpt><trkpt lat="43.05248390026299" lon="11.505053451521535"><ele>458.0</ele><time>2026-03-28T13:46:16.001Z</time></trkpt><trkpt lat="43.05260670668731" lon="11.505004893910808"><ele>458.0</ele><time>2026-03-28T13:46:17.001Z</time></trkpt><trkpt lat="43.05272959966178" lon="11.505057735499477"><ele>458.0</ele><time>2026-03-28T13:46:18.001Z</time></trkpt><trkpt lat="43.0528789761851" lon="11.505151181989064"><ele>458.0</ele><time>2026-03-28T13:46:19.001Z</time></trkpt><trkpt lat="43.05301863644973" lon="11.50525824932545"><ele>458.0</ele><time>2026-03-28T13:46:20.001Z</time></trkpt><trkpt lat="43.05313193452719" lon="11.50536344935186"><ele>458.0</ele><time>2026-03-28T13:46:21.001Z</time></trkpt><trkpt lat="43.05321100843042" lon="11.505523083150294"><ele>458.0</ele><time>2026-03-28T13:46:22.001Z</time></trkpt><trkpt lat="43.05326050566972" lon="11.505732688509319"><ele>458.0</ele><time>2026-03-28T13:46:23.001Z</time></trkpt><trkpt lat="43.05324810835131" lon="11.505953632595824"><ele>457.3333333333333</ele><time>2026-03-28T13:46:24.001Z</time></trkpt><trkpt lat="43.05322209206004" lon="11.50618618497514"><ele>456.66666666666663</ele><time>2026-03-28T13:46:25.001Z</time></trkpt><trkpt lat="43.05319245936771" lon="11.506484545789116"><ele>456.0</ele><time>2026-03-28T13:46:26.001Z</time></trkpt><trkpt lat="43.05314517675016" lon="11.506829916645394"><ele>452.33333333333337</ele><time>2026-03-28T13:46:27.001Z</time></trkpt><trkpt lat="43.053110417717214" lon="11.507138715782377"><ele>448.6666666666667</ele><time>2026-03-28T13:46:28.001Z</time></trkpt><trkpt lat="43.05308081076282" lon="11.507405673318194"><ele>445.0</ele><time>2026-03-28T13:46:29.001Z</time></trkpt><trkpt lat="43.053049675806704" lon="11.50764582688658"><ele>442.0</ele><time>2026-03-28T13:46:30.001Z</time></trkpt><trkpt lat="43.05301209322223" lon="11.507912577584062"><ele>439.0</ele><time>2026-03-28T13:46:31.001Z</time></trkpt><trkpt lat="43.0529800390747" lon="11.508186386430035"><ele>436.0</ele><time>2026-03-28T13:46:32.001Z</time></trkpt><trkpt lat="43.05295642425103" lon="11.508426341662162"><ele>436.0</ele><time>2026-03-28T13:46:33.001Z</time></trkpt><trkpt lat="43.052955267991884" lon="11.50867075531543"><ele>436.0</ele><time>2026-03-28T13:46:34.001Z</time></trkpt><trkpt lat="43.05298689638851" lon="11.508955648110424"><ele>436.0</ele><time>2026-03-28T13:46:35.001Z</time></trkpt><trkpt lat="43.053046263063855" lon="11.509232615066608"><ele>433.33333333333337</ele><time>2026-03-28T13:46:36.001Z</time></trkpt><trkpt lat="43.05310067590146" lon="11.509474205637614"><ele>430.66666666666663</ele><time>2026-03-28T13:46:37.001Z</time></trkpt><trkpt lat="43.053155425606526" lon="11.509701883139074"><ele>428.0</ele><time>2026-03-28T13:46:38.001Z</time></trkpt><trkpt lat="43.0532117670065" lon="11.509915805658467"><ele>427.0</ele><time>2026-03-28T13:46:39.001Z</time></trkpt><trkpt lat="43.053303152004034" lon="11.510099432256151"><ele>426.0</ele><time>2026-03-28T13:46:40.001Z</time></trkpt><trkpt lat="43.05343060806969" lon="11.510274144035236"><ele>425.0</ele><time>2026-03-28T13:46:41.001Z</time></trkpt><trkpt lat="43.053577351253985" lon="11.510421708488666"><ele>422.66666666666663</ele><time>2026-03-28T13:46:42.001Z</time></trkpt><trkpt lat="43.053729118104926" lon="11.510530671275433"><ele>420.33333333333337</ele><time>2026-03-28T13:46:43.001Z</time></trkpt><trkpt lat="43.05387022440523" lon="11.51061899618012"><ele>418.0</ele><time>2026-03-28T13:46:44.001Z</time></trkpt><trkpt lat="43.054027878062605" lon="11.510655062073587"><ele>417.33333333333337</ele><time>2026-03-28T13:46:45.001Z</time></trkpt><trkpt lat="43.054189720272944" lon="11.510644328046986"><ele>416.66666666666663</ele><time>2026-03-28T13:46:46.001Z</time></trkpt><trkpt lat="43.054344686519755" lon="11.510592625448545"><ele>416.0</ele><time>2026-03-28T13:46:47.001Z</time></trkpt><trkpt lat="43.05449677787957" lon="11.51050790284288"><ele>419.66666666666663</ele><time>2026-03-28T13:46:48.001Z</time></trkpt><trkpt lat="43.054632216092514" lon="11.510387025521986"><ele>423.33333333333337</ele><time>2026-03-28T13:46:49.001Z</time></trkpt><trkpt lat="43.05475093774591" lon="11.51023981737147"><ele>427.0</ele><time>2026-03-28T13:46:50.001Z</time></trkpt><trkpt lat="43.054857979753216" lon="11.510077503740293"><ele>422.6666666666667</ele><time>2026-03-28T13:46:51.001Z</time></trkpt><trkpt lat="43.05495752526921" lon="11.509915553684394"><ele>418.33333333333337</ele><time>2026-03-28T13:46:52.001Z</time></trkpt><trkpt lat="43.05503805724953" lon="11.509729373206856"><ele>414.0</ele><time>2026-03-28T13:46:53.001Z</time></trkpt><trkpt lat="43.05510101174269" lon="11.509522195018041"><ele>414.0</ele><time>2026-03-28T13:46:54.001Z</time></trkpt><trkpt lat="43.05515813347399" lon="11.50932098780896"><ele>414.0</ele><time>2026-03-28T13:46:55.001Z</time></trkpt><trkpt lat="43.05524764096204" lon="11.5091471425722"><ele>414.0</ele><time>2026-03-28T13:46:56.001Z</time></trkpt><trkpt lat="43.05534558277767" lon="11.508981007769448"><ele>414.0</ele><time>2026-03-28T13:46:57.001Z</time></trkpt><trkpt lat="43.05545764018653" lon="11.508824752837004"><ele>414.0</ele><time>2026-03-28T13:46:58.001Z</time></trkpt><trkpt lat="43.05558055008392" lon="11.508674913187502"><ele>414.0</ele><time>2026-03-28T13:46:59.001Z</time></trkpt><trkpt lat="43.05569352858121" lon="11.50853833098227"><ele>410.0</ele><time>2026-03-28T13:47:00.001Z</time></trkpt><trkpt lat="43.055794445196575" lon="11.508412301770196"><ele>406.0</ele><time>2026-03-28T13:47:01.001Z</time></trkpt><trkpt lat="43.05587476007509" lon="11.508266776025213"><ele>402.0</ele><time>2026-03-28T13:47:02.001Z</time></trkpt><trkpt lat="43.055933923669166" lon="11.508116485135279"><ele>398.0</ele><time>2026-03-28T13:47:03.001Z</time></trkpt><trkpt lat="43.05596368167109" lon="11.50790406198651"><ele>397.3333333333333</ele><time>2026-03-28T13:47:04.001Z</time></trkpt><trkpt lat="43.05596569431231" lon="11.507666875883023"><ele>396.66666666666663</ele><time>2026-03-28T13:47:05.001Z</time></trkpt><trkpt lat="43.05595607963446" lon="11.507465317625492"><ele>396.0</ele><time>2026-03-28T13:47:06.001Z</time></trkpt><trkpt lat="43.05594906291933" lon="11.507282256239378"><ele>396.0</ele><time>2026-03-28T13:47:07.001Z</time></trkpt><trkpt lat="43.055912444109005" lon="11.507105452161907"><ele>396.0</ele><time>2026-03-28T13:47:08.001Z</time></trkpt><trkpt lat="43.05583760735366" lon="11.506939633733294"><ele>396.0</ele><time>2026-03-28T13:47:09.001Z</time></trkpt><trkpt lat="43.05573615430958" lon="11.50679655030388"><ele>396.0</ele><time>2026-03-28T13:47:10.001Z</time></trkpt><trkpt lat="43.05563779129184" lon="11.506668186604035"><ele>397.5</ele><time>2026-03-28T13:47:11.001Z</time></trkpt><trkpt lat="43.05556983259409" lon="11.506511967615335"><ele>399.0</ele><time>2026-03-28T13:47:12.001Z</time></trkpt><trkpt lat="43.05548817317928" lon="11.506345015765659"><ele>400.5</ele><time>2026-03-28T13:47:13.001Z</time></trkpt><trkpt lat="43.05546593653146" lon="11.506138708602958"><ele>402.0</ele><time>2026-03-28T13:47:14.001Z</time></trkpt><trkpt lat="43.05548400408138" lon="11.505937014032972"><ele>402.0</ele><time>2026-03-28T13:47:15.001Z</time></trkpt><trkpt lat="43.05552752886682" lon="11.50573157382926"><ele>402.0</ele><time>2026-03-28T13:47:16.001Z</time></trkpt><trkpt lat="43.05562492930106" lon="11.505527390576738"><ele>402.0</ele><time>2026-03-28T13:47:17.001Z</time></trkpt><trkpt lat="43.05569190800667" lon="11.505309783080964"><ele>402.0</ele><time>2026-03-28T13:47:18.001Z</time></trkpt><trkpt lat="43.055751190683985" lon="11.505112891231802"><ele>402.0</ele><time>2026-03-28T13:47:19.001Z</time></trkpt><trkpt lat="43.05583309385736" lon="11.504943942015013"><ele>402.0</ele><time>2026-03-28T13:47:20.001Z</time></trkpt><trkpt lat="43.05591454204124" lon="11.504771613826929"><ele>398.0</ele><time>2026-03-28T13:47:21.001Z</time></trkpt><trkpt lat="43.055996417749554" lon="11.504604060438647"><ele>394.0</ele><time>2026-03-28T13:47:22.001Z</time></trkpt><trkpt lat="43.056079058615886" lon="11.504423553250838"><ele>390.0</ele><time>2026-03-28T13:47:23.001Z</time></trkpt><trkpt lat="43.0561710298837" lon="11.504258563006157"><ele>390.0</ele><time>2026-03-28T13:47:24Z</time></trkpt><trkpt lat="43.05628271744475" lon="11.504115814787927"><ele>390.0</ele><time>2026-03-28T13:47:25Z</time></trkpt><trkpt lat="43.05639253877515" lon="11.503968713379981"><ele>390.0</ele><time>2026-03-28T13:47:26Z</time></trkpt><trkpt lat="43.05654490277121" lon="11.503909301704732"><ele>388.0</ele><time>2026-03-28T13:47:27Z</time></trkpt><trkpt lat="43.056678669443016" lon="11.503791160656467"><ele>386.0</ele><time>2026-03-28T13:47:28Z</time></trkpt><trkpt lat="43.056824760077156" lon="11.503708471375022"><ele>384.0</ele><time>2026-03-28T13:47:29Z</time></trkpt><trkpt lat="43.05696172411907" lon="11.503618075636949"><ele>384.0</ele><time>2026-03-28T13:47:30Z</time></trkpt><trkpt lat="43.05710359932466" lon="11.50356896238884"><ele>384.0</ele><time>2026-03-28T13:47:31Z</time></trkpt><trkpt lat="43.05722950878063" lon="11.503522744751887"><ele>384.0</ele><time>2026-03-28T13:47:32Z</time></trkpt><trkpt lat="43.05734792320121" lon="11.503482969130976"><ele>384.0</ele><time>2026-03-28T13:47:33Z</time></trkpt><trkpt lat="43.057449468830704" lon="11.503435309163834"><ele>381.6</ele><time>2026-03-28T13:47:34Z</time></trkpt><trkpt lat="43.057549687122496" lon="11.503401580055039"><ele>379.2</ele><time>2026-03-28T13:47:35Z</time></trkpt><trkpt lat="43.05763683735328" lon="11.503342994878459"><ele>376.8</ele><time>2026-03-28T13:47:36Z</time></trkpt><trkpt lat="43.05771163598989" lon="11.503245842871763"><ele>374.40000000000003</ele><time>2026-03-28T13:47:37Z</time></trkpt><trkpt lat="43.05777019981016" lon="11.503113253796885"><ele>372.0</ele><time>2026-03-28T13:47:38Z</time></trkpt><trkpt lat="43.05780165856141" lon="11.502951168769501"><ele>372.6</ele><time>2026-03-28T13:47:39Z</time></trkpt><trkpt lat="43.0577999394172" lon="11.502791942756131"><ele>373.20000000000005</ele><time>2026-03-28T13:47:40Z</time></trkpt><trkpt lat="43.05778364422608" lon="11.502642625927338"><ele>373.8</ele><time>2026-03-28T13:47:41Z</time></trkpt><trkpt lat="43.05778908572724" lon="11.502502063826688"><ele>374.4</ele><time>2026-03-28T13:47:42Z</time></trkpt><trkpt lat="43.057814374448746" lon="11.502373300164937"><ele>375.0</ele><time>2026-03-28T13:47:43Z</time></trkpt><trkpt lat="43.05785515503329" lon="11.502261956066581"><ele>375.0</ele><time>2026-03-28T13:47:44Z</time></trkpt><trkpt lat="43.05791950065158" lon="11.50216899986163"><ele>375.0</ele><time>2026-03-28T13:47:45Z</time></trkpt><trkpt lat="43.058006133407915" lon="11.502091436421995"><ele>375.0</ele><time>2026-03-28T13:47:46Z</time></trkpt><trkpt lat="43.05810660291773" lon="11.502046590823038"><ele>375.0</ele><time>2026-03-28T13:47:47Z</time></trkpt><trkpt lat="43.05819451397104" lon="11.502031516422173"><ele>375.0</ele><time>2026-03-28T13:47:48Z</time></trkpt><trkpt lat="43.0582794539737" lon="11.502011848303615"><ele>373.2</ele><time>2026-03-28T13:47:49Z</time></trkpt><trkpt lat="43.058365694797416" lon="11.502030907728779"><ele>371.4</ele><time>2026-03-28T13:47:50Z</time></trkpt><trkpt lat="43.05845947936908" lon="11.502043590702472"><ele>369.6</ele><time>2026-03-28T13:47:51Z</time></trkpt><trkpt lat="43.05855201158174" lon="11.502130708098473"><ele>367.8</ele><time>2026-03-28T13:47:52Z</time></trkpt><trkpt lat="43.05864375293218" lon="11.502228217660619"><ele>366.0</ele><time>2026-03-28T13:47:53Z</time></trkpt><trkpt lat="43.05874054185708" lon="11.502341505582677"><ele>364.75</ele><time>2026-03-28T13:47:54Z</time></trkpt><trkpt lat="43.05883342879058" lon="11.50245840597967"><ele>363.5</ele><time>2026-03-28T13:47:55Z</time></trkpt><trkpt lat="43.058920111757686" lon="11.502565879739468"><ele>362.25</ele><time>2026-03-28T13:47:56Z</time></trkpt><trkpt lat="43.059006477574194" lon="11.502672939852298"><ele>361.0</ele><time>2026-03-28T13:47:57Z</time></trkpt><trkpt lat="43.059090081294826" lon="11.50277316761413"><ele>361.25</ele><time>2026-03-28T13:47:58Z</time></trkpt><trkpt lat="43.059190563380184" lon="11.502870401144358"><ele>361.5</ele><time>2026-03-28T13:47:59Z</time></trkpt><trkpt lat="43.05930237515811" lon="11.502941952391653"><ele>361.75</ele><time>2026-03-28T13:48:00Z</time></trkpt><trkpt lat="43.059434040052736" lon="11.502985461829866"><ele>362.0</ele><time>2026-03-28T13:48:01Z</time></trkpt><trkpt lat="43.0595579453027" lon="11.503034554339374"><ele>357.0</ele><time>2026-03-28T13:48:02Z</time></trkpt><trkpt lat="43.05967384682341" lon="11.503051622446492"><ele>352.0</ele><time>2026-03-28T13:48:03Z</time></trkpt><trkpt lat="43.05979318224223" lon="11.503050715363585"><ele>347.0</ele><time>2026-03-28T13:48:04Z</time></trkpt><trkpt lat="43.059907685205836" lon="11.503067215116308"><ele>342.0</ele><time>2026-03-28T13:48:05Z</time></trkpt><trkpt lat="43.060015889131456" lon="11.503059785784309"><ele>341.20000000000005</ele><time>2026-03-28T13:48:06Z</time></trkpt><trkpt lat="43.06012262181236" lon="11.503038566877974"><ele>340.4</ele><time>2026-03-28T13:48:07Z</time></trkpt><trkpt lat="43.06023036507059" lon="11.502994235328735"><ele>339.6</ele><time>2026-03-28T13:48:08Z</time></trkpt><trkpt lat="43.060326483686374" lon="11.50293360120514"><ele>338.79999999999995</ele><time>2026-03-28T13:48:09Z</time></trkpt><trkpt lat="43.06041729697839" lon="11.502856209296752"><ele>338.0</ele><time>2026-03-28T13:48:10Z</time></trkpt><trkpt lat="43.060498833870604" lon="11.502751315442671"><ele>338.79999999999995</ele><time>2026-03-28T13:48:11Z</time></trkpt><trkpt lat="43.06056439718436" lon="11.502647780146834"><ele>339.6</ele><time>2026-03-28T13:48:12Z</time></trkpt><trkpt lat="43.06062587052175" lon="11.502539498448654"><ele>340.4</ele><time>2026-03-28T13:48:13Z</time></trkpt><trkpt lat="43.0606860767893" lon="11.50242583772944"><ele>341.20000000000005</ele><time>2026-03-28T13:48:14Z</time></trkpt><trkpt lat="43.06076479745905" lon="11.502336179110321"><ele>342.0</ele><time>2026-03-28T13:48:15Z</time></trkpt><trkpt lat="43.060846141539876" lon="11.502241961226833"><ele>342.0</ele><time>2026-03-28T13:48:16Z</time></trkpt><trkpt lat="43.06095045618302" lon="11.502164152066074"><ele>342.0</ele><time>2026-03-28T13:48:17Z</time></trkpt><trkpt lat="43.06105724053273" lon="11.502094596966275"><ele>342.0</ele><time>2026-03-28T13:48:18Z</time></trkpt><trkpt lat="43.06117436035574" lon="11.502074265640044"><ele>342.0</ele><time>2026-03-28T13:48:19Z</time></trkpt><trkpt lat="43.06129290618453" lon="11.50206562224577"><ele>342.0</ele><time>2026-03-28T13:48:20Z</time></trkpt><trkpt lat="43.06141979804651" lon="11.502042369986112"><ele>342.0</ele><time>2026-03-28T13:48:21Z</time></trkpt><trkpt lat="43.0615561611424" lon="11.501978423037247"><ele>342.0</ele><time>2026-03-28T13:48:22Z</time></trkpt><trkpt lat="43.06172626917002" lon="11.501884795736418"><ele>342.0</ele><time>2026-03-28T13:48:23Z</time></trkpt><trkpt lat="43.06192377436026" lon="11.501714805810165"><ele>342.0</ele><time>2026-03-28T13:48:24Z</time></trkpt><trkpt lat="43.06209237050208" lon="11.501550968939533"><ele>342.0</ele><time>2026-03-28T13:48:25Z</time></trkpt><trkpt lat="43.06224934928605" lon="11.501401562487422"><ele>342.0</ele><time>2026-03-28T13:48:26Z</time></trkpt><trkpt lat="43.062399256525524" lon="11.501262418767475"><ele>342.0</ele><time>2026-03-28T13:48:27Z</time></trkpt><trkpt lat="43.062542126167884" lon="11.501142727490048"><ele>342.0</ele><time>2026-03-28T13:48:28Z</time></trkpt><trkpt lat="43.06266720278839" lon="11.501057338466358"><ele>340.3333333333333</ele><time>2026-03-28T13:48:29Z</time></trkpt><trkpt lat="43.06280002667323" lon="11.501002393079846"><ele>338.66666666666663</ele><time>2026-03-28T13:48:30Z</time></trkpt><trkpt lat="43.06296745192109" lon="11.500991879311117"><ele>337.0</ele><time>2026-03-28T13:48:31Z</time></trkpt><trkpt lat="43.06314242111319" lon="11.50106009641331"><ele>335.0</ele><time>2026-03-28T13:48:32Z</time></trkpt><trkpt lat="43.06332380824028" lon="11.501205294617113"><ele>333.0</ele><time>2026-03-28T13:48:33Z</time></trkpt><trkpt lat="43.06354582816661" lon="11.501304749348105"><ele>331.0</ele><time>2026-03-28T13:48:34Z</time></trkpt><trkpt lat="43.063679104213044" lon="11.501315134736446"><ele>327.0</ele><time>2026-03-28T13:48:35Z</time></trkpt><trkpt lat="43.06389724438534" lon="11.50143307963064"><ele>323.0</ele><time>2026-03-28T13:48:36Z</time></trkpt><trkpt lat="43.064102898447466" lon="11.501521847770688"><ele>322.6666666666667</ele><time>2026-03-28T13:48:37Z</time></trkpt><trkpt lat="43.064287548888544" lon="11.501620942509058"><ele>322.3333333333333</ele><time>2026-03-28T13:48:38Z</time></trkpt><trkpt lat="43.06446197235779" lon="11.501711566992006"><ele>322.0</ele><time>2026-03-28T13:48:39Z</time></trkpt><trkpt lat="43.06463663620329" lon="11.50177526999289"><ele>322.0</ele><time>2026-03-28T13:48:40Z</time></trkpt><trkpt lat="43.064804830392525" lon="11.50178113680803"><ele>322.0</ele><time>2026-03-28T13:48:41Z</time></trkpt><trkpt lat="43.0649709743477" lon="11.501740061625574"><ele>322.0</ele><time>2026-03-28T13:48:42Z</time></trkpt><trkpt lat="43.06512160469154" lon="11.501645454918224"><ele>321.66666666666663</ele><time>2026-03-28T13:48:43Z</time></trkpt><trkpt lat="43.06525655708325" lon="11.5015070798779"><ele>321.3333333333333</ele><time>2026-03-28T13:48:44Z</time></trkpt><trkpt lat="43.06538039401497" lon="11.501323590999458"><ele>321.0</ele><time>2026-03-28T13:48:45Z</time></trkpt><trkpt lat="43.065489353842395" lon="11.501079384259244"><ele>321.0</ele><time>2026-03-28T13:48:46Z</time></trkpt><trkpt lat="43.065580170902315" lon="11.50083477372503"><ele>321.0</ele><time>2026-03-28T13:48:47Z</time></trkpt><trkpt lat="43.06567321285999" lon="11.500612832679387"><ele>321.0</ele><time>2026-03-28T13:48:48Z</time></trkpt><trkpt lat="43.06576830774209" lon="11.50041660183386"><ele>318.6666666666667</ele><time>2026-03-28T13:48:49.001Z</time></trkpt><trkpt lat="43.06588727294384" lon="11.500285576468631"><ele>316.33333333333337</ele><time>2026-03-28T13:48:50.001Z</time></trkpt><trkpt lat="43.066021586357" lon="11.500193345332649"><ele>314.0</ele><time>2026-03-28T13:48:51.001Z</time></trkpt><trkpt lat="43.066190502786284" lon="11.50011920076166"><ele>314.0</ele><time>2026-03-28T13:48:52.001Z</time></trkpt><trkpt lat="43.06638699668218" lon="11.500055123619232"><ele>314.0</ele><time>2026-03-28T13:48:53.001Z</time></trkpt><trkpt lat="43.066567333029695" lon="11.499995841891652"><ele>314.0</ele><time>2026-03-28T13:48:54.001Z</time></trkpt><trkpt lat="43.066731045699434" lon="11.49993146317819"><ele>311.33333333333337</ele><time>2026-03-28T13:48:55.001Z</time></trkpt><trkpt lat="43.06688113572808" lon="11.499818628683382"><ele>308.6666666666667</ele><time>2026-03-28T13:48:56.001Z</time></trkpt><trkpt lat="43.067066083781825" lon="11.49971834036612"><ele>306.0</ele><time>2026-03-28T13:48:57.001Z</time></trkpt><trkpt lat="43.067240430753905" lon="11.49960035322883"><ele>305.3333333333333</ele><time>2026-03-28T13:48:58.001Z</time></trkpt><trkpt lat="43.067397588452906" lon="11.499493302576651"><ele>304.66666666666663</ele><time>2026-03-28T13:48:59.001Z</time></trkpt><trkpt lat="43.06755504798338" lon="11.499386046422021"><ele>304.0</ele><time>2026-03-28T13:49:00.001Z</time></trkpt><trkpt lat="43.067704869926075" lon="11.49929841045309"><ele>304.0</ele><time>2026-03-28T13:49:01.001Z</time></trkpt><trkpt lat="43.067859773555035" lon="11.499238103073264"><ele>304.0</ele><time>2026-03-28T13:49:02.001Z</time></trkpt><trkpt lat="43.068021270910826" lon="11.499185063071094"><ele>304.0</ele><time>2026-03-28T13:49:03.001Z</time></trkpt><trkpt lat="43.06818722180427" lon="11.499135090080978"><ele>300.66666666666663</ele><time>2026-03-28T13:49:04Z</time></trkpt><trkpt lat="43.06837235178817" lon="11.49907978286697"><ele>297.3333333333333</ele><time>2026-03-28T13:49:05Z</time></trkpt><trkpt lat="43.06858503808192" lon="11.499015548778031"><ele>294.0</ele><time>2026-03-28T13:49:06Z</time></trkpt><trkpt lat="43.06883575241229" lon="11.498912883993725"><ele>290.5</ele><time>2026-03-28T13:49:07Z</time></trkpt><trkpt lat="43.06911404287233" lon="11.498836412928526"><ele>287.0</ele><time>2026-03-28T13:49:08Z</time></trkpt><trkpt lat="43.06938262277913" lon="11.498754286786916"><ele>288.0</ele><time>2026-03-28T13:49:09Z</time></trkpt><trkpt lat="43.06962125896186" lon="11.498685764600719"><ele>289.0</ele><time>2026-03-28T13:49:10Z</time></trkpt><trkpt lat="43.06984719691796" lon="11.498619523222738"><ele>287.66666666666663</ele><time>2026-03-28T13:49:11Z</time></trkpt><trkpt lat="43.07005832241107" lon="11.49855091070208"><ele>286.3333333333333</ele><time>2026-03-28T13:49:12Z</time></trkpt><trkpt lat="43.07025634034524" lon="11.498438105066239"><ele>285.0</ele><time>2026-03-28T13:49:13Z</time></trkpt><trkpt lat="43.07047392899441" lon="11.49829297149877"><ele>285.0</ele><time>2026-03-28T13:49:14Z</time></trkpt><trkpt lat="43.07070375126178" lon="11.49812004910357"><ele>285.0</ele><time>2026-03-28T13:49:15Z</time></trkpt><trkpt lat="43.07096549996451" lon="11.49791013407581"><ele>281.0</ele><time>2026-03-28T13:49:16Z</time></trkpt><trkpt lat="43.07123694530343" lon="11.49769799823893"><ele>277.0</ele><time>2026-03-28T13:49:17Z</time></trkpt><trkpt lat="43.07147820984663" lon="11.497503835718407"><ele>278.5</ele><time>2026-03-28T13:49:18Z</time></trkpt><trkpt lat="43.071717938838546" lon="11.497335959317464"><ele>280.0</ele><time>2026-03-28T13:49:19Z</time></trkpt><trkpt lat="43.071937036033354" lon="11.497169924754324"><ele>276.5</ele><time>2026-03-28T13:49:20Z</time></trkpt><trkpt lat="43.072152313580375" lon="11.497006929579301"><ele>273.0</ele><time>2026-03-28T13:49:21Z</time></trkpt><trkpt lat="43.07234259171637" lon="11.496829985469413"><ele>274.0</ele><time>2026-03-28T13:49:22Z</time></trkpt><trkpt lat="43.07253557201381" lon="11.496681493407886"><ele>275.0</ele><time>2026-03-28T13:49:23Z</time></trkpt><trkpt lat="43.07272156122607" lon="11.49655305602799"><ele>276.0</ele><time>2026-03-28T13:49:24Z</time></trkpt><trkpt lat="43.07293257727274" lon="11.496436357110426"><ele>276.0</ele><time>2026-03-28T13:49:25Z</time></trkpt><trkpt lat="43.07318077417724" lon="11.496329450727975"><ele>276.0</ele><time>2026-03-28T13:49:26Z</time></trkpt><trkpt lat="43.07343318308266" lon="11.496238105928589"><ele>270.5</ele><time>2026-03-28T13:49:27Z</time></trkpt><trkpt lat="43.073670751468185" lon="11.496137879100653"><ele>265.0</ele><time>2026-03-28T13:49:28Z</time></trkpt><trkpt lat="43.073894415279334" lon="11.496017483196272"><ele>264.5</ele><time>2026-03-28T13:49:29Z</time></trkpt><trkpt lat="43.07412422203689" lon="11.495862308952747"><ele>264.0</ele><time>2026-03-28T13:49:30Z</time></trkpt><trkpt lat="43.07436889750477" lon="11.495660174381618"><ele>264.0</ele><time>2026-03-28T13:49:31Z</time></trkpt><trkpt lat="43.07464192912027" lon="11.495426369145493"><ele>264.0</ele><time>2026-03-28T13:49:32Z</time></trkpt><trkpt lat="43.07494372539117" lon="11.495167079889397"><ele>261.0</ele><time>2026-03-28T13:49:33Z</time></trkpt><trkpt lat="43.07521948310688" lon="11.49493008564466"><ele>258.0</ele><time>2026-03-28T13:49:34Z</time></trkpt><trkpt lat="43.075487444932726" lon="11.494698914922632"><ele>256.5</ele><time>2026-03-28T13:49:35Z</time></trkpt><trkpt lat="43.075728710713435" lon="11.49447029604586"><ele>255.0</ele><time>2026-03-28T13:49:36Z</time></trkpt><trkpt lat="43.075956621338484" lon="11.494220962806867"><ele>254.0</ele><time>2026-03-28T13:49:37Z</time></trkpt><trkpt lat="43.076182321047575" lon="11.493980148401443"><ele>253.0</ele><time>2026-03-28T13:49:38Z</time></trkpt><trkpt lat="43.07639992482907" lon="11.49377764754759"><ele>252.5</ele><time>2026-03-28T13:49:39Z</time></trkpt><trkpt lat="43.07659751669794" lon="11.493574688177624"><ele>252.0</ele><time>2026-03-28T13:49:40Z</time></trkpt><trkpt lat="43.076780602786734" lon="11.493385591110417"><ele>251.66666666666669</ele><time>2026-03-28T13:49:41Z</time></trkpt><trkpt lat="43.076957066665216" lon="11.493218023623788"><ele>251.33333333333334</ele><time>2026-03-28T13:49:42Z</time></trkpt><trkpt lat="43.07712767636702" lon="11.493062466768809"><ele>251.0</ele><time>2026-03-28T13:49:43Z</time></trkpt><trkpt lat="43.07732243427317" lon="11.492962935530583"><ele>250.66666666666669</ele><time>2026-03-28T13:49:44Z</time></trkpt><trkpt lat="43.07750839005639" lon="11.49287359531497"><ele>250.33333333333331</ele><time>2026-03-28T13:49:45Z</time></trkpt><trkpt lat="43.077674097353245" lon="11.492781707572632"><ele>250.0</ele><time>2026-03-28T13:49:46Z</time></trkpt><trkpt lat="43.0778197118503" lon="11.492667962105982"><ele>250.0</ele><time>2026-03-28T13:49:47Z</time></trkpt><trkpt lat="43.07793749947014" lon="11.49253539650283"><ele>250.0</ele><time>2026-03-28T13:49:48Z</time></trkpt><trkpt lat="43.07803524282553" lon="11.49236028803821"><ele>250.0</ele><time>2026-03-28T13:49:49Z</time></trkpt><trkpt lat="43.07808998834377" lon="11.492143058485619"><ele>249.66666666666666</ele><time>2026-03-28T13:49:50Z</time></trkpt><trkpt lat="43.07812136666567" lon="11.491915038657291"><ele>249.33333333333331</ele><time>2026-03-28T13:49:51Z</time></trkpt><trkpt lat="43.078147584491184" lon="11.491659240305589"><ele>249.0</ele><time>2026-03-28T13:49:52Z</time></trkpt><trkpt lat="43.07817421670478" lon="11.49141892299318"><ele>248.33333333333331</ele><time>2026-03-28T13:49:53Z</time></trkpt><trkpt lat="43.07820057741928" lon="11.4912005561335"><ele>247.66666666666666</ele><time>2026-03-28T13:49:54Z</time></trkpt><trkpt lat="43.07823431254731" lon="11.490994610411613"><ele>247.0</ele><time>2026-03-28T13:49:55Z</time></trkpt><trkpt lat="43.07829061916675" lon="11.490802677239188"><ele>245.25</ele><time>2026-03-28T13:49:56Z</time></trkpt><trkpt lat="43.07835701334913" lon="11.490638385051698"><ele>243.5</ele><time>2026-03-28T13:49:57Z</time></trkpt><trkpt lat="43.0784213222411" lon="11.490489858570482"><ele>241.75</ele><time>2026-03-28T13:49:58Z</time></trkpt><trkpt lat="43.078473770008486" lon="11.490339952896129"><ele>240.0</ele><time>2026-03-28T13:49:59Z</time></trkpt><trkpt lat="43.07851535505316" lon="11.490187461886968"><ele>240.0</ele><time>2026-03-28T13:50:00Z</time></trkpt><trkpt lat="43.07853843261331" lon="11.490021416306737"><ele>240.0</ele><time>2026-03-28T13:50:01Z</time></trkpt><trkpt lat="43.078526911057445" lon="11.489848542372274"><ele>240.0</ele><time>2026-03-28T13:50:02Z</time></trkpt><trkpt lat="43.07849270805643" lon="11.489678799021894"><ele>240.0</ele><time>2026-03-28T13:50:03Z</time></trkpt><trkpt lat="43.07843842845167" lon="11.489531225739697"><ele>238.75</ele><time>2026-03-28T13:50:04Z</time></trkpt><trkpt lat="43.07838941137023" lon="11.489388144151405"><ele>237.5</ele><time>2026-03-28T13:50:05Z</time></trkpt><trkpt lat="43.07835684485874" lon="11.489240606927538"><ele>236.25</ele><time>2026-03-28T13:50:06Z</time></trkpt><trkpt lat="43.07834412887875" lon="11.489085436084924"><ele>235.0</ele><time>2026-03-28T13:50:07Z</time></trkpt><trkpt lat="43.078356944100776" lon="11.488923940056573"><ele>235.75</ele><time>2026-03-28T13:50:08Z</time></trkpt><trkpt lat="43.07839828040855" lon="11.48875859885621"><ele>236.5</ele><time>2026-03-28T13:50:09Z</time></trkpt><trkpt lat="43.078467021026505" lon="11.488611875640405"><ele>237.25</ele><time>2026-03-28T13:50:10Z</time></trkpt><trkpt lat="43.07857054440616" lon="11.488505676821907"><ele>238.0</ele><time>2026-03-28T13:50:11Z</time></trkpt><trkpt lat="43.078693560252134" lon="11.48841691934638"><ele>238.0</ele><time>2026-03-28T13:50:12Z</time></trkpt><trkpt lat="43.07884252156794" lon="11.488316637459656"><ele>238.0</ele><time>2026-03-28T13:50:13Z</time></trkpt><trkpt lat="43.07902971798978" lon="11.488191692553889"><ele>238.0</ele><time>2026-03-28T13:50:14Z</time></trkpt><trkpt lat="43.079248237674435" lon="11.488055394920794"><ele>238.0</ele><time>2026-03-28T13:50:15Z</time></trkpt><trkpt lat="43.07944993894721" lon="11.48793075975463"><ele>238.0</ele><time>2026-03-28T13:50:16Z</time></trkpt><trkpt lat="43.07962248031745" lon="11.487807727862496"><ele>238.0</ele><time>2026-03-28T13:50:17Z</time></trkpt><trkpt lat="43.0797626870839" lon="11.487679200505944"><ele>238.0</ele><time>2026-03-28T13:50:18Z</time></trkpt><trkpt lat="43.07988899647296" lon="11.48752919751791"><ele>238.0</ele><time>2026-03-28T13:50:19Z</time></trkpt><trkpt lat="43.079999672403744" lon="11.487320692291682"><ele>238.0</ele><time>2026-03-28T13:50:20Z</time></trkpt><trkpt lat="43.080108712194225" lon="11.48704789207167"><ele>234.0</ele><time>2026-03-28T13:50:21Z</time></trkpt><trkpt lat="43.08022021544364" lon="11.486758660986018"><ele>230.0</ele><time>2026-03-28T13:50:22Z</time></trkpt><trkpt lat="43.080350427004014" lon="11.486509839289157"><ele>230.0</ele><time>2026-03-28T13:50:23Z</time></trkpt><trkpt lat="43.080511226024676" lon="11.486291920814628"><ele>230.0</ele><time>2026-03-28T13:50:24Z</time></trkpt><trkpt lat="43.08067863746226" lon="11.486117407871497"><ele>230.0</ele><time>2026-03-28T13:50:25Z</time></trkpt><trkpt lat="43.08082858251458" lon="11.485930322706405"><ele>225.66666666666669</ele><time>2026-03-28T13:50:26Z</time></trkpt><trkpt lat="43.08094229825056" lon="11.485728888361173"><ele>221.33333333333331</ele><time>2026-03-28T13:50:27Z</time></trkpt><trkpt lat="43.08101249888021" lon="11.485504580522301"><ele>217.0</ele><time>2026-03-28T13:50:28Z</time></trkpt><trkpt lat="43.081065423610866" lon="11.48524567756176"><ele>217.0</ele><time>2026-03-28T13:50:29Z</time></trkpt><trkpt lat="43.08108896330023" lon="11.484961657667757"><ele>217.0</ele><time>2026-03-28T13:50:30Z</time></trkpt><trkpt lat="43.0811111330037" lon="11.48472058693806"><ele>217.0</ele><time>2026-03-28T13:50:31Z</time></trkpt><trkpt lat="43.081152267641556" lon="11.484537385607565"><ele>217.25</ele><time>2026-03-28T13:50:32Z</time></trkpt><trkpt lat="43.08122139994137" lon="11.48439213667708"><ele>217.5</ele><time>2026-03-28T13:50:33Z</time></trkpt><trkpt lat="43.08133488027372" lon="11.484276201794637"><ele>217.75</ele><time>2026-03-28T13:50:34Z</time></trkpt><trkpt lat="43.08149315155187" lon="11.48423930595686"><ele>218.0</ele><time>2026-03-28T13:50:35Z</time></trkpt><trkpt lat="43.0816529339616" lon="11.48426086964943"><ele>215.66666666666669</ele><time>2026-03-28T13:50:36Z</time></trkpt><trkpt lat="43.08181250855358" lon="11.484330110976146"><ele>213.33333333333331</ele><time>2026-03-28T13:50:37Z</time></trkpt><trkpt lat="43.081986121227324" lon="11.484447001337502"><ele>211.0</ele><time>2026-03-28T13:50:38Z</time></trkpt><trkpt lat="43.082170302228384" lon="11.484549582337088"><ele>206.66666666666666</ele><time>2026-03-28T13:50:39Z</time></trkpt><trkpt lat="43.08234083874389" lon="11.484608000522266"><ele>202.33333333333331</ele><time>2026-03-28T13:50:40Z</time></trkpt><trkpt lat="43.08251072578026" lon="11.484641813072743"><ele>198.0</ele><time>2026-03-28T13:50:41Z</time></trkpt><trkpt lat="43.0826909188341" lon="11.484632654096815"><ele>196.66666666666669</ele><time>2026-03-28T13:50:42Z</time></trkpt><trkpt lat="43.08289354891436" lon="11.484568284839412"><ele>195.33333333333334</ele><time>2026-03-28T13:50:43Z</time></trkpt><trkpt lat="43.08310976914076" lon="11.484463758921398"><ele>194.0</ele><time>2026-03-28T13:50:44Z</time></trkpt><trkpt lat="43.083301360971404" lon="11.484348535453359"><ele>194.0</ele><time>2026-03-28T13:50:45Z</time></trkpt><trkpt lat="43.0834813932143" lon="11.484253867128935"><ele>194.0</ele><time>2026-03-28T13:50:46Z</time></trkpt><trkpt lat="43.083657461030505" lon="11.484180816270083"><ele>194.0</ele><time>2026-03-28T13:50:47Z</time></trkpt><trkpt lat="43.083863699214284" lon="11.484130318017117"><ele>190.0</ele><time>2026-03-28T13:50:48Z</time></trkpt><trkpt lat="43.084116664297646" lon="11.484104331623346"><ele>186.0</ele><time>2026-03-28T13:50:49Z</time></trkpt><trkpt lat="43.084408523904756" lon="11.484091696016153"><ele>186.0</ele><time>2026-03-28T13:50:50Z</time></trkpt><trkpt lat="43.08469097754534" lon="11.48407379717655"><ele>186.0</ele><time>2026-03-28T13:50:51Z</time></trkpt><trkpt lat="43.08494227307245" lon="11.484049715484758"><ele>182.0</ele><time>2026-03-28T13:50:52Z</time></trkpt><trkpt lat="43.085196916666156" lon="11.484020905505227"><ele>178.0</ele><time>2026-03-28T13:50:53Z</time></trkpt><trkpt lat="43.0854428465725" lon="11.483995265240452"><ele>178.0</ele><time>2026-03-28T13:50:54Z</time></trkpt><trkpt lat="43.085675397724266" lon="11.483976750982979"><ele>178.0</ele><time>2026-03-28T13:50:55Z</time></trkpt><trkpt lat="43.08589899976047" lon="11.48396329153922"><ele>175.0</ele><time>2026-03-28T13:50:56Z</time></trkpt><trkpt lat="43.08612039667085" lon="11.483943807939925"><ele>172.0</ele><time>2026-03-28T13:50:57Z</time></trkpt><trkpt lat="43.08633664221029" lon="11.483927123726826"><ele>169.0</ele><time>2026-03-28T13:50:58Z</time></trkpt><trkpt lat="43.08654111967198" lon="11.483972750533919"><ele>167.66666666666669</ele><time>2026-03-28T13:50:59Z</time></trkpt><trkpt lat="43.086737426025174" lon="11.484041733255726"><ele>166.33333333333334</ele><time>2026-03-28T13:51:00Z</time></trkpt><trkpt lat="43.08691742187995" lon="11.484167395643402"><ele>165.0</ele><time>2026-03-28T13:51:01Z</time></trkpt><trkpt lat="43.08707256719897" lon="11.484342935473432"><ele>165.0</ele><time>2026-03-28T13:51:02Z</time></trkpt><trkpt lat="43.08721703792173" lon="11.484558316727473"><ele>165.0</ele><time>2026-03-28T13:51:03Z</time></trkpt><trkpt lat="43.08736620169761" lon="11.484816792472762"><ele>164.0</ele><time>2026-03-28T13:51:04Z</time></trkpt><trkpt lat="43.08753734231152" lon="11.485111449325444"><ele>163.0</ele><time>2026-03-28T13:51:05Z</time></trkpt><trkpt lat="43.087715588881174" lon="11.485410671308799"><ele>160.5</ele><time>2026-03-28T13:51:06Z</time></trkpt><trkpt lat="43.0878712368907" lon="11.485677054147834"><ele>158.0</ele><time>2026-03-28T13:51:07Z</time></trkpt><trkpt lat="43.08801277505718" lon="11.485921378288783"><ele>158.0</ele><time>2026-03-28T13:51:08Z</time></trkpt><trkpt lat="43.088140701877" lon="11.486146897845927"><ele>158.0</ele><time>2026-03-28T13:51:09Z</time></trkpt><trkpt lat="43.08827030878867" lon="11.486352594865384"><ele>158.0</ele><time>2026-03-28T13:51:10Z</time></trkpt><trkpt lat="43.08840808901476" lon="11.486528045626336"><ele>158.0</ele><time>2026-03-28T13:51:11Z</time></trkpt><trkpt lat="43.088563092267506" lon="11.486656333230092"><ele>158.0</ele><time>2026-03-28T13:51:12Z</time></trkpt><trkpt lat="43.08872720375962" lon="11.486740874166983"><ele>158.0</ele><time>2026-03-28T13:51:13Z</time></trkpt><trkpt lat="43.08891213256923" lon="11.486796515318648"><ele>158.0</ele><time>2026-03-28T13:51:14Z</time></trkpt><trkpt lat="43.08912339095473" lon="11.486799648011413"><ele>158.0</ele><time>2026-03-28T13:51:15Z</time></trkpt><trkpt lat="43.089363791219576" lon="11.486760572836648"><ele>158.0</ele><time>2026-03-28T13:51:16Z</time></trkpt><trkpt lat="43.089625070774545" lon="11.486705100215348"><ele>158.0</ele><time>2026-03-28T13:51:17Z</time></trkpt><trkpt lat="43.089921248662684" lon="11.48664665880925"><ele>158.0</ele><time>2026-03-28T13:51:18Z</time></trkpt><trkpt lat="43.09023322921074" lon="11.486603925525719"><ele>158.0</ele><time>2026-03-28T13:51:19Z</time></trkpt><trkpt lat="43.090572588852595" lon="11.48656012200147"><ele>157.5</ele><time>2026-03-28T13:51:20Z</time></trkpt><trkpt lat="43.0909238561813" lon="11.486509731849333"><ele>157.0</ele><time>2026-03-28T13:51:21Z</time></trkpt><trkpt lat="43.091292015285156" lon="11.486452694905099"><ele>155.5</ele><time>2026-03-28T13:51:22Z</time></trkpt><trkpt lat="43.09165522031477" lon="11.486395477593568"><ele>154.0</ele><time>2026-03-28T13:51:23Z</time></trkpt><trkpt lat="43.091982182813965" lon="11.486354391133633"><ele>154.0</ele><time>2026-03-28T13:51:24Z</time></trkpt><trkpt lat="43.092305764086184" lon="11.486312302928193"><ele>154.0</ele><time>2026-03-28T13:51:25Z</time></trkpt><trkpt lat="43.09263438678982" lon="11.48627084111759"><ele>154.5</ele><time>2026-03-28T13:51:26Z</time></trkpt><trkpt lat="43.09293685426063" lon="11.486228089605381"><ele>155.0</ele><time>2026-03-28T13:51:27Z</time></trkpt><trkpt lat="43.0932243991078" lon="11.486188887363308"><ele>156.0</ele><time>2026-03-28T13:51:28Z</time></trkpt><trkpt lat="43.09350086669239" lon="11.486152066060004"><ele>157.0</ele><time>2026-03-28T13:51:29Z</time></trkpt><trkpt lat="43.09376073205145" lon="11.486116139593403"><ele>157.0</ele><time>2026-03-28T13:51:30Z</time></trkpt><trkpt lat="43.09399213906143" lon="11.486078890541027"><ele>157.0</ele><time>2026-03-28T13:51:31Z</time></trkpt><trkpt lat="43.094197991663165" lon="11.486042558753107"><ele>157.0</ele><time>2026-03-28T13:51:32Z</time></trkpt><trkpt lat="43.09443065272725" lon="11.48596365141075"><ele>156.5</ele><time>2026-03-28T13:51:33Z</time></trkpt><trkpt lat="43.09469804374367" lon="11.48583570764613"><ele>156.0</ele><time>2026-03-28T13:51:34Z</time></trkpt><trkpt lat="43.09498348390129" lon="11.485700144820234"><ele>153.5</ele><time>2026-03-28T13:51:35Z</time></trkpt><trkpt lat="43.09526242715432" lon="11.485586726561163"><ele>151.0</ele><time>2026-03-28T13:51:36Z</time></trkpt><trkpt lat="43.09551500906007" lon="11.485501547062434"><ele>152.0</ele><time>2026-03-28T13:51:37Z</time></trkpt><trkpt lat="43.09576006236916" lon="11.485423427922118"><ele>153.0</ele><time>2026-03-28T13:51:38Z</time></trkpt><trkpt lat="43.095988671127095" lon="11.485332912550854"><ele>153.0</ele><time>2026-03-28T13:51:39Z</time></trkpt><trkpt lat="43.09621640258656" lon="11.485179730754991"><ele>153.0</ele><time>2026-03-28T13:51:40Z</time></trkpt><trkpt lat="43.09642166009022" lon="11.485017031831656"><ele>152.0</ele><time>2026-03-28T13:51:41Z</time></trkpt><trkpt lat="43.096650920119735" lon="11.484791950191827"><ele>151.0</ele><time>2026-03-28T13:51:42Z</time></trkpt><trkpt lat="43.09689995180116" lon="11.484592402036602"><ele>150.0</ele><time>2026-03-28T13:51:43Z</time></trkpt><trkpt lat="43.097152754766476" lon="11.484373081067407"><ele>149.0</ele><time>2026-03-28T13:51:44Z</time></trkpt><trkpt lat="43.09737976643567" lon="11.484178654239813"><ele>150.0</ele><time>2026-03-28T13:51:45Z</time></trkpt><trkpt lat="43.0975956138899" lon="11.484002267527599"><ele>151.0</ele><time>2026-03-28T13:51:46Z</time></trkpt><trkpt lat="43.09780849455488" lon="11.483835417191859"><ele>152.5</ele><time>2026-03-28T13:51:47Z</time></trkpt><trkpt lat="43.098029827770254" lon="11.483692738815842"><ele>154.0</ele><time>2026-03-28T13:51:48Z</time></trkpt><trkpt lat="43.09826482977116" lon="11.483577309070036"><ele>151.0</ele><time>2026-03-28T13:51:49Z</time></trkpt><trkpt lat="43.09848919434301" lon="11.483486932635852"><ele>148.0</ele><time>2026-03-28T13:51:50Z</time></trkpt><trkpt lat="43.09870152217334" lon="11.483408946590846"><ele>148.0</ele><time>2026-03-28T13:51:51Z</time></trkpt><trkpt lat="43.098900187681245" lon="11.483340708566379"><ele>148.0</ele><time>2026-03-28T13:51:52Z</time></trkpt><trkpt lat="43.09909465561308" lon="11.48330261377902"><ele>148.0</ele><time>2026-03-28T13:51:53Z</time></trkpt><trkpt lat="43.09928515973615" lon="11.483306917853584"><ele>147.33333333333334</ele><time>2026-03-28T13:51:54Z</time></trkpt><trkpt lat="43.09946692067257" lon="11.48331759444697"><ele>146.66666666666666</ele><time>2026-03-28T13:51:55Z</time></trkpt><trkpt lat="43.09963422018834" lon="11.483326281304683"><ele>146.0</ele><time>2026-03-28T13:51:56Z</time></trkpt><trkpt lat="43.09979022849654" lon="11.48331816943614"><ele>145.66666666666666</ele><time>2026-03-28T13:51:57Z</time></trkpt><trkpt lat="43.0999412133548" lon="11.483270176933605"><ele>145.33333333333334</ele><time>2026-03-28T13:51:58Z</time></trkpt><trkpt lat="43.10008761132511" lon="11.483153367493006"><ele>145.0</ele><time>2026-03-28T13:51:59Z</time></trkpt><trkpt lat="43.10023546815936" lon="11.482958867653796"><ele>145.0</ele><time>2026-03-28T13:52:00Z</time></trkpt><trkpt lat="43.10037952136106" lon="11.482698652549217"><ele>145.0</ele><time>2026-03-28T13:52:01Z</time></trkpt><trkpt lat="43.10056882440507" lon="11.482430567340494"><ele>144.0</ele><time>2026-03-28T13:52:02Z</time></trkpt><trkpt lat="43.10079558258606" lon="11.482149704472201"><ele>143.0</ele><time>2026-03-28T13:52:03Z</time></trkpt><trkpt lat="43.10102681249808" lon="11.481865633793475"><ele>143.0</ele><time>2026-03-28T13:52:04Z</time></trkpt><trkpt lat="43.1012226158162" lon="11.481611437687839"><ele>143.0</ele><time>2026-03-28T13:52:05Z</time></trkpt><trkpt lat="43.101394408012105" lon="11.481376825514557"><ele>143.0</ele><time>2026-03-28T13:52:06Z</time></trkpt><trkpt lat="43.101555182870285" lon="11.481161144753576"><ele>143.0</ele><time>2026-03-28T13:52:07Z</time></trkpt><trkpt lat="43.10171709888876" lon="11.480956010837"><ele>143.0</ele><time>2026-03-28T13:52:08Z</time></trkpt><trkpt lat="43.101876844312706" lon="11.480763009093703"><ele>143.33333333333331</ele><time>2026-03-28T13:52:09Z</time></trkpt><trkpt lat="43.10203914560143" lon="11.480593363054448"><ele>143.66666666666666</ele><time>2026-03-28T13:52:10Z</time></trkpt><trkpt lat="43.102232174274825" lon="11.480425865605639"><ele>144.0</ele><time>2026-03-28T13:52:11Z</time></trkpt><trkpt lat="43.10246300207859" lon="11.48025217739503"><ele>144.5</ele><time>2026-03-28T13:52:12Z</time></trkpt><trkpt lat="43.10270089773383" lon="11.48006792594195"><ele>145.0</ele><time>2026-03-28T13:52:13Z</time></trkpt><trkpt lat="43.10291505289162" lon="11.479898918114383"><ele>145.0</ele><time>2026-03-28T13:52:14Z</time></trkpt><trkpt lat="43.103101892799195" lon="11.479755842246393"><ele>145.0</ele><time>2026-03-28T13:52:15Z</time></trkpt><trkpt lat="43.10326609607789" lon="11.479625006396516"><ele>145.0</ele><time>2026-03-28T13:52:16Z</time></trkpt><trkpt lat="43.10343439910837" lon="11.479515312903203"><ele>147.66666666666669</ele><time>2026-03-28T13:52:17Z</time></trkpt><trkpt lat="43.1036347048847" lon="11.479441436765226"><ele>150.33333333333334</ele><time>2026-03-28T13:52:18Z</time></trkpt><trkpt lat="43.10385774734528" lon="11.4794013728472"><ele>153.0</ele><time>2026-03-28T13:52:19Z</time></trkpt><trkpt lat="43.104105673843954" lon="11.479387717664123"><ele>153.0</ele><time>2026-03-28T13:52:20Z</time></trkpt><trkpt lat="43.10438235464014" lon="11.47939039916952"><ele>153.0</ele><time>2026-03-28T13:52:21Z</time></trkpt><trkpt lat="43.10467156186413" lon="11.479383978761945"><ele>150.0</ele><time>2026-03-28T13:52:22Z</time></trkpt><trkpt lat="43.10498789886172" lon="11.479364475696354"><ele>147.0</ele><time>2026-03-28T13:52:23Z</time></trkpt><trkpt lat="43.105333727370244" lon="11.47934007954763"><ele>147.0</ele><time>2026-03-28T13:52:24Z</time></trkpt><trkpt lat="43.105690630278055" lon="11.479324355640035"><ele>147.0</ele><time>2026-03-28T13:52:25Z</time></trkpt><trkpt lat="43.106031777946654" lon="11.479311082077214"><ele>144.0</ele><time>2026-03-28T13:52:26Z</time></trkpt><trkpt lat="43.10638050434703" lon="11.47930134684514"><ele>141.0</ele><time>2026-03-28T13:52:27Z</time></trkpt><trkpt lat="43.10674226200375" lon="11.479287744797743"><ele>139.0</ele><time>2026-03-28T13:52:28Z</time></trkpt><trkpt lat="43.107079848223215" lon="11.479276818758901"><ele>137.0</ele><time>2026-03-28T13:52:29Z</time></trkpt><trkpt lat="43.1073947168845" lon="11.479265358123792"><ele>137.5</ele><time>2026-03-28T13:52:30Z</time></trkpt><trkpt lat="43.107705526528505" lon="11.479254736961535"><ele>138.0</ele><time>2026-03-28T13:52:31Z</time></trkpt><trkpt lat="43.1080123540884" lon="11.47924998572401"><ele>139.5</ele><time>2026-03-28T13:52:32Z</time></trkpt><trkpt lat="43.10832712331084" lon="11.47925649587189"><ele>141.0</ele><time>2026-03-28T13:52:33Z</time></trkpt><trkpt lat="43.108659753828796" lon="11.479268904172063"><ele>141.0</ele><time>2026-03-28T13:52:34Z</time></trkpt><trkpt lat="43.10900704383578" lon="11.479290252968289"><ele>141.0</ele><time>2026-03-28T13:52:35Z</time></trkpt><trkpt lat="43.10934715295947" lon="11.479321909189034"><ele>143.5</ele><time>2026-03-28T13:52:36Z</time></trkpt><trkpt lat="43.109644523286974" lon="11.47934803240145"><ele>146.0</ele><time>2026-03-28T13:52:37Z</time></trkpt><trkpt lat="43.109916715723955" lon="11.479368915557728"><ele>147.5</ele><time>2026-03-28T13:52:38Z</time></trkpt><trkpt lat="43.11018328541741" lon="11.479385452097649"><ele>149.0</ele><time>2026-03-28T13:52:39Z</time></trkpt><trkpt lat="43.11043400964613" lon="11.47939981390393"><ele>149.0</ele><time>2026-03-28T13:52:40Z</time></trkpt><trkpt lat="43.11066353221966" lon="11.479411699727079"><ele>149.0</ele><time>2026-03-28T13:52:41Z</time></trkpt><trkpt lat="43.11088058334253" lon="11.479433577333783"><ele>149.0</ele><time>2026-03-28T13:52:42Z</time></trkpt><trkpt lat="43.11109207467507" lon="11.479456200544883"><ele>150.0</ele><time>2026-03-28T13:52:43Z</time></trkpt><trkpt lat="43.11130740377767" lon="11.479483410708674"><ele>151.0</ele><time>2026-03-28T13:52:44Z</time></trkpt><trkpt lat="43.111522252327354" lon="11.479536909481238"><ele>152.0</ele><time>2026-03-28T13:52:45Z</time></trkpt><trkpt lat="43.11173603785866" lon="11.479641099898918"><ele>153.0</ele><time>2026-03-28T13:52:46Z</time></trkpt><trkpt lat="43.1119827751596" lon="11.479736966224158"><ele>154.0</ele><time>2026-03-28T13:52:47Z</time></trkpt><trkpt lat="43.112246486687525" lon="11.479837274746915"><ele>154.5</ele><time>2026-03-28T13:52:48Z</time></trkpt><trkpt lat="43.11248619171464" lon="11.479912013356362"><ele>155.0</ele><time>2026-03-28T13:52:49Z</time></trkpt><trkpt lat="43.112698235520924" lon="11.480007128325678"><ele>155.0</ele><time>2026-03-28T13:52:50Z</time></trkpt><trkpt lat="43.112914045036916" lon="11.480085748695792"><ele>155.0</ele><time>2026-03-28T13:52:51Z</time></trkpt><trkpt lat="43.11314069442629" lon="11.480149802776465"><ele>157.5</ele><time>2026-03-28T13:52:52Z</time></trkpt><trkpt lat="43.11338271444722" lon="11.480202184152123"><ele>160.0</ele><time>2026-03-28T13:52:53Z</time></trkpt><trkpt lat="43.11362580730354" lon="11.480247825544478"><ele>160.0</ele><time>2026-03-28T13:52:54Z</time></trkpt><trkpt lat="43.11385500348467" lon="11.480287377190603"><ele>160.0</ele><time>2026-03-28T13:52:55Z</time></trkpt><trkpt lat="43.11407370003914" lon="11.480315901541491"><ele>161.66666666666669</ele><time>2026-03-28T13:52:56Z</time></trkpt><trkpt lat="43.11428985080623" lon="11.480349644646543"><ele>163.33333333333334</ele><time>2026-03-28T13:52:57Z</time></trkpt><trkpt lat="43.114514896006646" lon="11.480389373253052"><ele>165.0</ele><time>2026-03-28T13:52:58Z</time></trkpt><trkpt lat="43.11474731971714" lon="11.480428550687424"><ele>165.0</ele><time>2026-03-28T13:52:59Z</time></trkpt><trkpt lat="43.114971269150196" lon="11.48047125102568"><ele>165.0</ele><time>2026-03-28T13:53:00Z</time></trkpt><trkpt lat="43.11517686080321" lon="11.48052053606441"><ele>165.0</ele><time>2026-03-28T13:53:01Z</time></trkpt><trkpt lat="43.115375764348705" lon="11.480579567498388"><ele>165.0</ele><time>2026-03-28T13:53:02Z</time></trkpt><trkpt lat="43.11558405697243" lon="11.480661002958177"><ele>165.0</ele><time>2026-03-28T13:53:03Z</time></trkpt><trkpt lat="43.115813356000444" lon="11.480767097477372"><ele>163.5</ele><time>2026-03-28T13:53:04Z</time></trkpt><trkpt lat="43.11606220178261" lon="11.480879443580022"><ele>162.0</ele><time>2026-03-28T13:53:05Z</time></trkpt><trkpt lat="43.11631696626709" lon="11.480991818929015"><ele>161.0</ele><time>2026-03-28T13:53:06Z</time></trkpt><trkpt lat="43.11658363387692" lon="11.481103842195918"><ele>160.0</ele><time>2026-03-28T13:53:07Z</time></trkpt><trkpt lat="43.11683337117296" lon="11.481206801551146"><ele>158.5</ele><time>2026-03-28T13:53:08Z</time></trkpt><trkpt lat="43.117064874304674" lon="11.481318699913812"><ele>157.0</ele><time>2026-03-28T13:53:09Z</time></trkpt><trkpt lat="43.11728271331713" lon="11.481419288820023"><ele>153.33333333333334</ele><time>2026-03-28T13:53:10Z</time></trkpt><trkpt lat="43.117491303248165" lon="11.481515223800056"><ele>149.66666666666666</ele><time>2026-03-28T13:53:11Z</time></trkpt><trkpt lat="43.11769567794123" lon="11.481605717790034"><ele>146.0</ele><time>2026-03-28T13:53:12Z</time></trkpt><trkpt lat="43.11790806665849" lon="11.481695953783957"><ele>146.0</ele><time>2026-03-28T13:53:13Z</time></trkpt><trkpt lat="43.1181121766848" lon="11.481780709722774"><ele>146.0</ele><time>2026-03-28T13:53:14Z</time></trkpt><trkpt lat="43.11830006813934" lon="11.481862760343239"><ele>146.0</ele><time>2026-03-28T13:53:15Z</time></trkpt><trkpt lat="43.11846939052378" lon="11.481948980349213"><ele>144.66666666666666</ele><time>2026-03-28T13:53:16Z</time></trkpt><trkpt lat="43.11861649406556" lon="11.482066885084873"><ele>143.33333333333334</ele><time>2026-03-28T13:53:17Z</time></trkpt><trkpt lat="43.11873633533022" lon="11.482232496037067"><ele>142.0</ele><time>2026-03-28T13:53:18Z</time></trkpt><trkpt lat="43.11882815932532" lon="11.48242149138884"><ele>141.66666666666669</ele><time>2026-03-28T13:53:19Z</time></trkpt><trkpt lat="43.11887704428942" lon="11.482645943403066"><ele>141.33333333333334</ele><time>2026-03-28T13:53:20Z</time></trkpt><trkpt lat="43.118898136670566" lon="11.482854495907096"><ele>141.0</ele><time>2026-03-28T13:53:21Z</time></trkpt><trkpt lat="43.11888836219124" lon="11.483025724516702"><ele>141.33333333333334</ele><time>2026-03-28T13:53:22Z</time></trkpt><trkpt lat="43.118864605628275" lon="11.48316078540345"><ele>141.66666666666666</ele><time>2026-03-28T13:53:23Z</time></trkpt><trkpt lat="43.11883850484866" lon="11.483276895752468"><ele>142.0</ele><time>2026-03-28T13:53:24Z</time></trkpt><trkpt lat="43.11882835591013" lon="11.483375580628916"><ele>142.33333333333331</ele><time>2026-03-28T13:53:25Z</time></trkpt><trkpt lat="43.11888170255277" lon="11.483494799417935"><ele>142.66666666666666</ele><time>2026-03-28T13:53:27Z</time></trkpt><trkpt lat="43.118923834493906" lon="11.48357460460485"><ele>143.0</ele><time>2026-03-28T13:53:29Z</time></trkpt><trkpt lat="43.11901754163429" lon="11.48360552007374"><ele>142.66666666666666</ele><time>2026-03-28T13:53:30Z</time></trkpt><trkpt lat="43.119134701399005" lon="11.483583915974764"><ele>142.33333333333334</ele><time>2026-03-28T13:53:31Z</time></trkpt><trkpt lat="43.11932274373903" lon="11.483543304463801"><ele>142.0</ele><time>2026-03-28T13:53:32Z</time></trkpt><trkpt lat="43.119544513634445" lon="11.483482837525356"><ele>142.0</ele><time>2026-03-28T13:53:33Z</time></trkpt><trkpt lat="43.11981819757329" lon="11.483448932381089"><ele>142.0</ele><time>2026-03-28T13:53:34Z</time></trkpt><trkpt lat="43.120100215748245" lon="11.483401000217434"><ele>142.0</ele><time>2026-03-28T13:53:35Z</time></trkpt><trkpt lat="43.12034693619962" lon="11.483368378810903"><ele>142.0</ele><time>2026-03-28T13:53:36Z</time></trkpt><trkpt lat="43.12058067185868" lon="11.483347176801573"><ele>142.33333333333334</ele><time>2026-03-28T13:53:37Z</time></trkpt><trkpt lat="43.12080985644625" lon="11.483332671838262"><ele>142.66666666666666</ele><time>2026-03-28T13:53:38Z</time></trkpt><trkpt lat="43.12101366336338" lon="11.48331785104057"><ele>143.0</ele><time>2026-03-28T13:53:39Z</time></trkpt><trkpt lat="43.121166850630274" lon="11.48330577053747"><ele>143.0</ele><time>2026-03-28T13:53:40Z</time></trkpt><trkpt lat="43.121289717628635" lon="11.483297000969758"><ele>143.0</ele><time>2026-03-28T13:53:41Z</time></trkpt><trkpt lat="43.1214132247371" lon="11.48328822023099"><ele>143.0</ele><time>2026-03-28T13:53:42Z</time></trkpt><trkpt lat="43.12153792116739" lon="11.483273469685681"><ele>143.0</ele><time>2026-03-28T13:53:43Z</time></trkpt><trkpt lat="43.121660133668854" lon="11.483266690377599"><ele>143.25</ele><time>2026-03-28T13:53:44Z</time></trkpt><trkpt lat="43.12178184383338" lon="11.483255497887203"><ele>143.5</ele><time>2026-03-28T13:53:45Z</time></trkpt><trkpt lat="43.12189715011823" lon="11.483243203969659"><ele>143.75</ele><time>2026-03-28T13:53:46Z</time></trkpt><trkpt lat="43.12200674092199" lon="11.483233611657198"><ele>144.0</ele><time>2026-03-28T13:53:47Z</time></trkpt><trkpt lat="43.1221193844695" lon="11.483225911631713"><ele>144.0</ele><time>2026-03-28T13:53:48Z</time></trkpt><trkpt lat="43.122224230428614" lon="11.483213855928568"><ele>144.0</ele><time>2026-03-28T13:53:49Z</time></trkpt><trkpt lat="43.12233161442424" lon="11.48320389456342"><ele>144.0</ele><time>2026-03-28T13:53:50Z</time></trkpt><trkpt lat="43.12244518387894" lon="11.483195090971869"><ele>144.0</ele><time>2026-03-28T13:53:51Z</time></trkpt><trkpt lat="43.12256729722235" lon="11.483188009703126"><ele>144.0</ele><time>2026-03-28T13:53:52Z</time></trkpt><trkpt lat="43.1226916761555" lon="11.483172078290046"><ele>145.0</ele><time>2026-03-28T13:53:53Z</time></trkpt><trkpt lat="43.12282571800304" lon="11.48315690008721"><ele>146.0</ele><time>2026-03-28T13:53:54Z</time></trkpt><trkpt lat="43.12297844092475" lon="11.483146588546767"><ele>147.0</ele><time>2026-03-28T13:53:55Z</time></trkpt><trkpt lat="43.12315037800139" lon="11.48313276392738"><ele>146.33333333333334</ele><time>2026-03-28T13:53:56Z</time></trkpt><trkpt lat="43.12334621499236" lon="11.483108882023494"><ele>145.66666666666669</ele><time>2026-03-28T13:53:57Z</time></trkpt><trkpt lat="43.123565885588214" lon="11.48307364784708"><ele>145.0</ele><time>2026-03-28T13:53:58Z</time></trkpt><trkpt lat="43.123826796420985" lon="11.483064465554033"><ele>144.0</ele><time>2026-03-28T13:53:59Z</time></trkpt><trkpt lat="43.124116923702154" lon="11.483038395440138"><ele>143.0</ele><time>2026-03-28T13:54:00Z</time></trkpt><trkpt lat="43.124424823775534" lon="11.483010727853003"><ele>143.0</ele><time>2026-03-28T13:54:01Z</time></trkpt><trkpt lat="43.1247174067902" lon="11.48296937227288"><ele>143.0</ele><time>2026-03-28T13:54:02Z</time></trkpt><trkpt lat="43.12498876086543" lon="11.482955817891625"><ele>143.0</ele><time>2026-03-28T13:54:03Z</time></trkpt><trkpt lat="43.12525713714769" lon="11.482936641468319"><ele>143.0</ele><time>2026-03-28T13:54:04Z</time></trkpt><trkpt lat="43.12552774064824" lon="11.482912131301442"><ele>142.5</ele><time>2026-03-28T13:54:05Z</time></trkpt><trkpt lat="43.125793481156855" lon="11.482887226392421"><ele>142.0</ele><time>2026-03-28T13:54:06Z</time></trkpt><trkpt lat="43.12604165412217" lon="11.482866437087063"><ele>142.0</ele><time>2026-03-28T13:54:07Z</time></trkpt><trkpt lat="43.12627036026855" lon="11.482848163857856"><ele>142.0</ele><time>2026-03-28T13:54:08Z</time></trkpt><trkpt lat="43.12648712698809" lon="11.482827009492723"><ele>142.0</ele><time>2026-03-28T13:54:09Z</time></trkpt><trkpt lat="43.12670588001311" lon="11.482807209930543"><ele>142.66666666666669</ele><time>2026-03-28T13:54:10Z</time></trkpt><trkpt lat="43.12692368391633" lon="11.482789782151675"><ele>143.33333333333334</ele><time>2026-03-28T13:54:11Z</time></trkpt><trkpt lat="43.127141508488926" lon="11.482769457588986"><ele>144.0</ele><time>2026-03-28T13:54:12Z</time></trkpt><trkpt lat="43.127366723273354" lon="11.482743053309868"><ele>144.5</ele><time>2026-03-28T13:54:13Z</time></trkpt><trkpt lat="43.12759456967544" lon="11.482719494963469"><ele>145.0</ele><time>2026-03-28T13:54:14Z</time></trkpt><trkpt lat="43.1278172300913" lon="11.482700183197887"><ele>145.0</ele><time>2026-03-28T13:54:15Z</time></trkpt><trkpt lat="43.12802322408265" lon="11.482679707313633"><ele>145.0</ele><time>2026-03-28T13:54:16Z</time></trkpt><trkpt lat="43.12820181684288" lon="11.482660410061769"><ele>145.0</ele><time>2026-03-28T13:54:17Z</time></trkpt><trkpt lat="43.12834533150348" lon="11.482646954258016"><ele>145.0</ele><time>2026-03-28T13:54:18Z</time></trkpt><trkpt lat="43.12846866405776" lon="11.482633779700617"><ele>145.0</ele><time>2026-03-28T13:54:19Z</time></trkpt><trkpt lat="43.12857726817894" lon="11.482624327593278"><ele>145.0</ele><time>2026-03-28T13:54:20Z</time></trkpt><trkpt lat="43.12866926165761" lon="11.482636421390822"><ele>145.0</ele><time>2026-03-28T13:54:21Z</time></trkpt><trkpt lat="43.12875170112093" lon="11.482628775483708"><ele>145.0</ele><time>2026-03-28T13:54:22Z</time></trkpt><trkpt lat="43.12883863797605" lon="11.482620712397928"><ele>145.0</ele><time>2026-03-28T13:54:23Z</time></trkpt><trkpt lat="43.12893258898146" lon="11.482612730210617"><ele>145.0</ele><time>2026-03-28T13:54:24Z</time></trkpt><trkpt lat="43.12903067313739" lon="11.482604455886253"><ele>145.0</ele><time>2026-03-28T13:54:25Z</time></trkpt><trkpt lat="43.12911530422532" lon="11.482597316457484"><ele>145.0</ele><time>2026-03-28T13:54:26Z</time></trkpt><trkpt lat="43.12918273713666" lon="11.482591627854465"><ele>145.0</ele><time>2026-03-28T13:54:27Z</time></trkpt><trkpt lat="43.1292836082737" lon="11.482583118501873"><ele>145.0</ele><time>2026-03-28T13:54:29Z</time></trkpt><trkpt lat="43.129351859162654" lon="11.482577472120745"><ele>144.83333333333334</ele><time>2026-03-28T13:54:31Z</time></trkpt><trkpt lat="43.129429643686436" lon="11.482570979615263"><ele>144.66666666666669</ele><time>2026-03-28T13:55:43Z</time></trkpt><trkpt lat="43.12951568041441" lon="11.48254828377903"><ele>144.5</ele><time>2026-03-28T13:55:45Z</time></trkpt><trkpt lat="43.12957959406721" lon="11.48254977921084"><ele>144.33333333333334</ele><time>2026-03-28T13:55:46Z</time></trkpt><trkpt lat="43.129652077060555" lon="11.482549100293243"><ele>144.16666666666666</ele><time>2026-03-28T13:55:47Z</time></trkpt><trkpt lat="43.12974985046036" lon="11.482538278827846"><ele>144.0</ele><time>2026-03-28T13:55:49Z</time></trkpt><trkpt lat="43.12981671791569" lon="11.48252551002633"><ele>143.5</ele><time>2026-03-28T13:55:50Z</time></trkpt><trkpt lat="43.129918231470754" lon="11.482518665698787"><ele>143.0</ele><time>2026-03-28T13:55:51Z</time></trkpt><trkpt lat="43.13004752062706" lon="11.482515363108908"><ele>142.5</ele><time>2026-03-28T13:55:52Z</time></trkpt><trkpt lat="43.13019851774446" lon="11.482508814644325"><ele>142.0</ele><time>2026-03-28T13:55:53Z</time></trkpt><trkpt lat="43.13038777591094" lon="11.482499041846065"><ele>142.0</ele><time>2026-03-28T13:55:54Z</time></trkpt><trkpt lat="43.13060522952192" lon="11.482480028433104"><ele>142.0</ele><time>2026-03-28T13:55:55Z</time></trkpt><trkpt lat="43.13081626391327" lon="11.48245795891185"><ele>142.0</ele><time>2026-03-28T13:55:56Z</time></trkpt><trkpt lat="43.13100904564608" lon="11.482439887496277"><ele>141.66666666666669</ele><time>2026-03-28T13:55:57Z</time></trkpt><trkpt lat="43.131183718645936" lon="11.482426062311202"><ele>141.33333333333334</ele><time>2026-03-28T13:55:58Z</time></trkpt><trkpt lat="43.13135691770313" lon="11.48241277516307"><ele>141.0</ele><time>2026-03-28T13:55:59Z</time></trkpt><trkpt lat="43.13151768766447" lon="11.482391936061193"><ele>141.75</ele><time>2026-03-28T13:56:00Z</time></trkpt><trkpt lat="43.13165491830838" lon="11.482378193179777"><ele>142.5</ele><time>2026-03-28T13:56:01Z</time></trkpt><trkpt lat="43.13179916001259" lon="11.482386201040327"><ele>143.25</ele><time>2026-03-28T13:56:02Z</time></trkpt><trkpt lat="43.131953947408704" lon="11.482410895715645"><ele>144.0</ele><time>2026-03-28T13:56:03Z</time></trkpt><trkpt lat="43.1321180456317" lon="11.482458908326409"><ele>144.0</ele><time>2026-03-28T13:56:04Z</time></trkpt><trkpt lat="43.132289828992505" lon="11.48251662176328"><ele>144.0</ele><time>2026-03-28T13:56:05Z</time></trkpt><trkpt lat="43.132478061133504" lon="11.482588879823538"><ele>144.0</ele><time>2026-03-28T13:56:06Z</time></trkpt><trkpt lat="43.13266704661565" lon="11.482663778237306"><ele>143.66666666666666</ele><time>2026-03-28T13:56:07Z</time></trkpt><trkpt lat="43.13284554172717" lon="11.482734521932834"><ele>143.33333333333331</ele><time>2026-03-28T13:56:08Z</time></trkpt><trkpt lat="43.1330185235217" lon="11.482797879581243"><ele>143.0</ele><time>2026-03-28T13:56:09Z</time></trkpt><trkpt lat="43.133190173723825" lon="11.482858877766132"><ele>143.66666666666666</ele><time>2026-03-28T13:56:10Z</time></trkpt><trkpt lat="43.13335965250693" lon="11.482922534601549"><ele>144.33333333333334</ele><time>2026-03-28T13:56:11Z</time></trkpt><trkpt lat="43.133532956977625" lon="11.482982126222048"><ele>145.0</ele><time>2026-03-28T13:56:12Z</time></trkpt><trkpt lat="43.133702790091625" lon="11.483034244474238"><ele>145.0</ele><time>2026-03-28T13:56:13Z</time></trkpt><trkpt lat="43.13386176306444" lon="11.483070873550094"><ele>145.0</ele><time>2026-03-28T13:56:14Z</time></trkpt><trkpt lat="43.134018982548426" lon="11.483103139810394"><ele>145.0</ele><time>2026-03-28T13:56:15Z</time></trkpt><trkpt lat="43.13417596309281" lon="11.483131100821895"><ele>145.0</ele><time>2026-03-28T13:56:16Z</time></trkpt><trkpt lat="43.13432778482066" lon="11.483163901730784"><ele>145.0</ele><time>2026-03-28T13:56:17Z</time></trkpt><trkpt lat="43.13447520343872" lon="11.483194161228115"><ele>145.0</ele><time>2026-03-28T13:56:18Z</time></trkpt><trkpt lat="43.13461322185383" lon="11.483222774733012"><ele>145.0</ele><time>2026-03-28T13:56:19Z</time></trkpt><trkpt lat="43.13474965299202" lon="11.48324706257498"><ele>145.25</ele><time>2026-03-28T13:56:20Z</time></trkpt><trkpt lat="43.13489084618094" lon="11.483266546462184"><ele>145.5</ele><time>2026-03-28T13:56:21Z</time></trkpt><trkpt lat="43.13502913585624" lon="11.483288243421097"><ele>145.75</ele><time>2026-03-28T13:56:22Z</time></trkpt><trkpt lat="43.135153182483045" lon="11.483312650626774"><ele>146.0</ele><time>2026-03-28T13:56:23Z</time></trkpt><trkpt lat="43.13527302106907" lon="11.483333629078054"><ele>146.0</ele><time>2026-03-28T13:56:24Z</time></trkpt><trkpt lat="43.13539610795913" lon="11.483355867898883"><ele>146.0</ele><time>2026-03-28T13:56:25Z</time></trkpt><trkpt lat="43.13552138278938" lon="11.4833783221262"><ele>146.0</ele><time>2026-03-28T13:56:26Z</time></trkpt><trkpt lat="43.13564840326698" lon="11.483394241916766"><ele>146.0</ele><time>2026-03-28T13:56:27Z</time></trkpt><trkpt lat="43.13577080097943" lon="11.483404366241611"><ele>146.0</ele><time>2026-03-28T13:56:28Z</time></trkpt><trkpt lat="43.13589401996999" lon="11.483410119643816"><ele>146.0</ele><time>2026-03-28T13:56:29Z</time></trkpt><trkpt lat="43.136019609278584" lon="11.483412244116323"><ele>146.0</ele><time>2026-03-28T13:56:30Z</time></trkpt><trkpt lat="43.13613847367193" lon="11.483414922494333"><ele>146.0</ele><time>2026-03-28T13:56:31Z</time></trkpt><trkpt lat="43.13624681487564" lon="11.483419488621031"><ele>146.0</ele><time>2026-03-28T13:56:32Z</time></trkpt><trkpt lat="43.13635447450717" lon="11.483418468208063"><ele>146.0</ele><time>2026-03-28T13:56:33Z</time></trkpt><trkpt lat="43.13646613878382" lon="11.48341353915379"><ele>146.0</ele><time>2026-03-28T13:56:34Z</time></trkpt><trkpt lat="43.1365766086399" lon="11.483409690774225"><ele>146.0</ele><time>2026-03-28T13:56:35Z</time></trkpt><trkpt lat="43.13667598202629" lon="11.48340773769856"><ele>146.0</ele><time>2026-03-28T13:56:36Z</time></trkpt><trkpt lat="43.13676698053458" lon="11.48340374361063"><ele>146.0</ele><time>2026-03-28T13:56:37Z</time></trkpt><trkpt lat="43.136863697667295" lon="11.483399120627059"><ele>146.0</ele><time>2026-03-28T13:56:38Z</time></trkpt><trkpt lat="43.13695750522703" lon="11.483395405797271"><ele>146.0</ele><time>2026-03-28T13:56:39Z</time></trkpt><trkpt lat="43.13704561072019" lon="11.483387475337294"><ele>146.0</ele><time>2026-03-28T13:56:40Z</time></trkpt><trkpt lat="43.137133175848504" lon="11.483384547813536"><ele>146.0</ele><time>2026-03-28T13:56:41Z</time></trkpt><trkpt lat="43.137214471330125" lon="11.483382721295996"><ele>146.0</ele><time>2026-03-28T13:56:42Z</time></trkpt><trkpt lat="43.13728372570926" lon="11.483381661117285"><ele>146.2</ele><time>2026-03-28T13:56:43Z</time></trkpt><trkpt lat="43.137406830553964" lon="11.48338838247192"><ele>146.39999999999998</ele><time>2026-03-28T13:56:45Z</time></trkpt><trkpt lat="43.137514903445854" lon="11.48339624896575"><ele>146.6</ele><time>2026-03-28T13:56:47Z</time></trkpt><trkpt lat="43.13759146636852" lon="11.483395299782874"><ele>146.79999999999998</ele><time>2026-03-28T13:56:49Z</time></trkpt><trkpt lat="43.137663196507745" lon="11.483406260121331"><ele>147.0</ele><time>2026-03-28T13:56:52Z</time></trkpt><trkpt lat="43.137778523783496" lon="11.483389534873018"><ele>147.0</ele><time>2026-03-28T13:57:05Z</time></trkpt><trkpt lat="43.13786794909489" lon="11.483380401497547"><ele>147.0</ele><time>2026-03-28T13:57:06Z</time></trkpt><trkpt lat="43.13798329731722" lon="11.483368791926301"><ele>147.0</ele><time>2026-03-28T13:57:07Z</time></trkpt><trkpt lat="43.1380869639529" lon="11.483365653493301"><ele>147.0</ele><time>2026-03-28T13:57:08Z</time></trkpt><trkpt lat="43.13818873339245" lon="11.483365600038187"><ele>147.0</ele><time>2026-03-28T13:57:09Z</time></trkpt><trkpt lat="43.13829177097638" lon="11.483357731518613"><ele>146.75</ele><time>2026-03-28T13:57:10Z</time></trkpt><trkpt lat="43.13841882055465" lon="11.483326643303164"><ele>146.5</ele><time>2026-03-28T13:57:11Z</time></trkpt><trkpt lat="43.13855455505513" lon="11.48331093770744"><ele>146.25</ele><time>2026-03-28T13:57:12Z</time></trkpt><trkpt lat="43.13867238718673" lon="11.48327636393715"><ele>146.0</ele><time>2026-03-28T13:57:12.999Z</time></trkpt><trkpt lat="43.1387596046175" lon="11.483244957623722"><ele>146.0</ele><time>2026-03-28T13:57:13.999Z</time></trkpt><trkpt lat="43.138823948804195" lon="11.483203079741624"><ele>146.0</ele><time>2026-03-28T13:57:14.999Z</time></trkpt><trkpt lat="43.13889222523121" lon="11.483186005622006"><ele>146.0</ele><time>2026-03-28T13:57:15.999Z</time></trkpt><trkpt lat="43.13895522534639" lon="11.483159362671651"><ele>146.0</ele><time>2026-03-28T13:57:16.999Z</time></trkpt><trkpt lat="43.13901718989528" lon="11.483124772795259"><ele>146.0</ele><time>2026-03-28T13:57:17.999Z</time></trkpt><trkpt lat="43.13907992637405" lon="11.483089358547808"><ele>146.0</ele><time>2026-03-28T13:57:18.999Z</time></trkpt><trkpt lat="43.13914924008792" lon="11.483047631014305"><ele>146.0</ele><time>2026-03-28T13:57:19.999Z</time></trkpt><trkpt lat="43.139233101304356" lon="11.482983526646173"><ele>146.25</ele><time>2026-03-28T13:57:21Z</time></trkpt><trkpt lat="43.139337439974454" lon="11.482907396127539"><ele>146.5</ele><time>2026-03-28T13:57:22Z</time></trkpt><trkpt lat="43.13946497433562" lon="11.482818433193271"><ele>146.75</ele><time>2026-03-28T13:57:23Z</time></trkpt><trkpt lat="43.13962464128537" lon="11.482708110753528"><ele>147.0</ele><time>2026-03-28T13:57:24Z</time></trkpt><trkpt lat="43.13981249060878" lon="11.48257232904585"><ele>145.0</ele><time>2026-03-28T13:57:25Z</time></trkpt><trkpt lat="43.14002047833267" lon="11.482422658509813"><ele>143.0</ele><time>2026-03-28T13:57:26Z</time></trkpt><trkpt lat="43.14023799619773" lon="11.482267296492259"><ele>143.0</ele><time>2026-03-28T13:57:27Z</time></trkpt><trkpt lat="43.14044104977655" lon="11.48211558838791"><ele>143.0</ele><time>2026-03-28T13:57:28Z</time></trkpt><trkpt lat="43.140630702125236" lon="11.481980704309475"><ele>143.0</ele><time>2026-03-28T13:57:29Z</time></trkpt><trkpt lat="43.14082111270703" lon="11.481845015737287"><ele>142.33333333333331</ele><time>2026-03-28T13:57:30Z</time></trkpt><trkpt lat="43.14100743167013" lon="11.481717747218026"><ele>141.66666666666666</ele><time>2026-03-28T13:57:31Z</time></trkpt><trkpt lat="43.14118032724304" lon="11.481599004272606"><ele>141.0</ele><time>2026-03-28T13:57:32Z</time></trkpt><trkpt lat="43.141337685029" lon="11.481478306116394"><ele>141.0</ele><time>2026-03-28T13:57:33Z</time></trkpt><trkpt lat="43.141483718621295" lon="11.481355015936273"><ele>141.0</ele><time>2026-03-28T13:57:34Z</time></trkpt><trkpt lat="43.141623654398835" lon="11.481212220050608"><ele>141.0</ele><time>2026-03-28T13:57:35Z</time></trkpt><trkpt lat="43.14175670428384" lon="11.481047011574422"><ele>141.33333333333334</ele><time>2026-03-28T13:57:36Z</time></trkpt><trkpt lat="43.14188955884727" lon="11.480881933746897"><ele>141.66666666666669</ele><time>2026-03-28T13:57:37Z</time></trkpt><trkpt lat="43.14202261962119" lon="11.48071996774337"><ele>142.0</ele><time>2026-03-28T13:57:38Z</time></trkpt><trkpt lat="43.14215438788691" lon="11.480560309378093"><ele>141.66666666666669</ele><time>2026-03-28T13:57:39Z</time></trkpt><trkpt lat="43.142285154102744" lon="11.480406065473304"><ele>141.33333333333334</ele><time>2026-03-28T13:57:40Z</time></trkpt><trkpt lat="43.14240768194051" lon="11.4802548570513"><ele>141.0</ele><time>2026-03-28T13:57:41Z</time></trkpt><trkpt lat="43.14251496265705" lon="11.480108312505301"><ele>141.66666666666666</ele><time>2026-03-28T13:57:42Z</time></trkpt><trkpt lat="43.1426077921286" lon="11.479947950095559"><ele>142.33333333333331</ele><time>2026-03-28T13:57:43Z</time></trkpt><trkpt lat="43.14269285068293" lon="11.479750301640804"><ele>143.0</ele><time>2026-03-28T13:57:44Z</time></trkpt><trkpt lat="43.14276034851785" lon="11.479514828310833"><ele>143.0</ele><time>2026-03-28T13:57:45Z</time></trkpt><trkpt lat="43.14281184589398" lon="11.479246757140414"><ele>143.0</ele><time>2026-03-28T13:57:46Z</time></trkpt><trkpt lat="43.14287168924417" lon="11.478954360909528"><ele>143.0</ele><time>2026-03-28T13:57:47Z</time></trkpt><trkpt lat="43.14292044402101" lon="11.478660990387885"><ele>143.0</ele><time>2026-03-28T13:57:48Z</time></trkpt><trkpt lat="43.14296350764726" lon="11.478399089871235"><ele>143.0</ele><time>2026-03-28T13:57:49Z</time></trkpt><trkpt lat="43.14300569203987" lon="11.478142537532198"><ele>143.0</ele><time>2026-03-28T13:57:50Z</time></trkpt><trkpt lat="43.143050592900586" lon="11.477911586219799"><ele>143.0</ele><time>2026-03-28T13:57:51Z</time></trkpt><trkpt lat="43.14309718745697" lon="11.477741483478859"><ele>143.0</ele><time>2026-03-28T13:57:52Z</time></trkpt><trkpt lat="43.14313655394815" lon="11.477633507556835"><ele>143.0</ele><time>2026-03-28T13:57:53Z</time></trkpt><trkpt lat="43.143171833613145" lon="11.477546568798596"><ele>143.0</ele><time>2026-03-28T13:57:54Z</time></trkpt><trkpt lat="43.1432316075713" lon="11.477416376931505"><ele>143.0</ele><time>2026-03-28T13:57:56Z</time></trkpt><trkpt lat="43.143269692795734" lon="11.477343121604521"><ele>143.0</ele><time>2026-03-28T13:57:58Z</time></trkpt><trkpt lat="43.14330566234909" lon="11.477266628894714"><ele>143.0</ele><time>2026-03-28T14:00:57Z</time></trkpt><trkpt lat="43.14337017885338" lon="11.477177280080385"><ele>143.0</ele><time>2026-03-28T14:00:59Z</time></trkpt><trkpt lat="43.14342606342639" lon="11.47710325933547"><ele>143.0</ele><time>2026-03-28T14:01:00Z</time></trkpt><trkpt lat="43.143514287730504" lon="11.476993405411761"><ele>143.0</ele><time>2026-03-28T14:01:01Z</time></trkpt><trkpt lat="43.14364045175973" lon="11.476853769792648"><ele>143.0</ele><time>2026-03-28T14:01:02Z</time></trkpt><trkpt lat="43.14379618963204" lon="11.476696698178802"><ele>143.0</ele><time>2026-03-28T14:01:03Z</time></trkpt><trkpt lat="43.14395377094203" lon="11.476534965791465"><ele>143.0</ele><time>2026-03-28T14:01:04Z</time></trkpt><trkpt lat="43.144093719135995" lon="11.476390252622354"><ele>142.75</ele><time>2026-03-28T14:01:05Z</time></trkpt><trkpt lat="43.144227162694584" lon="11.476282378751709"><ele>142.5</ele><time>2026-03-28T14:01:06Z</time></trkpt><trkpt lat="43.14435677807108" lon="11.476203316697275"><ele>142.25</ele><time>2026-03-28T14:01:07Z</time></trkpt><trkpt lat="43.144498098878174" lon="11.476177902133307"><ele>142.0</ele><time>2026-03-28T14:01:08Z</time></trkpt><trkpt lat="43.1446549044779" lon="11.476217658974779"><ele>142.0</ele><time>2026-03-28T14:01:09Z</time></trkpt><trkpt lat="43.14483100554226" lon="11.476267881309061"><ele>142.0</ele><time>2026-03-28T14:01:10Z</time></trkpt><trkpt lat="43.14501808273658" lon="11.476297184843647"><ele>142.0</ele><time>2026-03-28T14:01:11Z</time></trkpt><trkpt lat="43.145228596414206" lon="11.47628409605827"><ele>142.0</ele><time>2026-03-28T14:01:12Z</time></trkpt><trkpt lat="43.14547128000581" lon="11.476223173378523"><ele>142.0</ele><time>2026-03-28T14:01:13Z</time></trkpt><trkpt lat="43.145741512043415" lon="11.47613810437373"><ele>143.5</ele><time>2026-03-28T14:01:14Z</time></trkpt><trkpt lat="43.14602528671561" lon="11.47603764347701"><ele>145.0</ele><time>2026-03-28T14:01:15Z</time></trkpt><trkpt lat="43.14626050590744" lon="11.475939479999605"><ele>145.0</ele><time>2026-03-28T14:01:16Z</time></trkpt><trkpt lat="43.14648113524177" lon="11.475853442085825"><ele>145.0</ele><time>2026-03-28T14:01:17Z</time></trkpt><trkpt lat="43.14668933809249" lon="11.475781825763235"><ele>145.0</ele><time>2026-03-28T14:01:18Z</time></trkpt><trkpt lat="43.14688661873937" lon="11.475706341499457"><ele>146.0</ele><time>2026-03-28T14:01:19Z</time></trkpt><trkpt lat="43.14708138856733" lon="11.475634499683352"><ele>147.0</ele><time>2026-03-28T14:01:20Z</time></trkpt><trkpt lat="43.147285448277266" lon="11.475559598371932"><ele>148.0</ele><time>2026-03-28T14:01:21Z</time></trkpt><trkpt lat="43.14749879382281" lon="11.475481513202551"><ele>146.66666666666669</ele><time>2026-03-28T14:01:22Z</time></trkpt><trkpt lat="43.14771554383587" lon="11.475404120485655"><ele>145.33333333333334</ele><time>2026-03-28T14:01:23Z</time></trkpt><trkpt lat="43.14792549771439" lon="11.475330550009295"><ele>144.0</ele><time>2026-03-28T14:01:24Z</time></trkpt><trkpt lat="43.14812584877858" lon="11.47525505307382"><ele>144.66666666666666</ele><time>2026-03-28T14:01:25Z</time></trkpt><trkpt lat="43.148331064893135" lon="11.47517643107"><ele>145.33333333333331</ele><time>2026-03-28T14:01:26Z</time></trkpt><trkpt lat="43.14854191709053" lon="11.475095333118036"><ele>146.0</ele><time>2026-03-28T14:01:27Z</time></trkpt><trkpt lat="43.14873929027379" lon="11.475019974775357"><ele>146.0</ele><time>2026-03-28T14:01:28Z</time></trkpt><trkpt lat="43.148934944398015" lon="11.474948357518208"><ele>146.0</ele><time>2026-03-28T14:01:29Z</time></trkpt><trkpt lat="43.14913098648797" lon="11.474866574329376"><ele>146.0</ele><time>2026-03-28T14:01:30Z</time></trkpt><trkpt lat="43.149333226874916" lon="11.474762556006208"><ele>145.5</ele><time>2026-03-28T14:01:31Z</time></trkpt><trkpt lat="43.14954003604471" lon="11.47463650917127"><ele>145.0</ele><time>2026-03-28T14:01:32Z</time></trkpt><trkpt lat="43.149744256290596" lon="11.47449947387303"><ele>145.66666666666669</ele><time>2026-03-28T14:01:33Z</time></trkpt><trkpt lat="43.14994781897456" lon="11.474372022585209"><ele>146.33333333333334</ele><time>2026-03-28T14:01:34Z</time></trkpt><trkpt lat="43.150137783017506" lon="11.47426340127208"><ele>147.0</ele><time>2026-03-28T14:01:35Z</time></trkpt><trkpt lat="43.15032430579717" lon="11.474139303868144"><ele>147.0</ele><time>2026-03-28T14:01:36Z</time></trkpt><trkpt lat="43.150509004746944" lon="11.473989450758559"><ele>147.0</ele><time>2026-03-28T14:01:37Z</time></trkpt><trkpt lat="43.150695099584965" lon="11.473805648318617"><ele>147.0</ele><time>2026-03-28T14:01:38Z</time></trkpt><trkpt lat="43.15087520704527" lon="11.473620681846066"><ele>147.33333333333334</ele><time>2026-03-28T14:01:39Z</time></trkpt><trkpt lat="43.15105904203233" lon="11.473435105334447"><ele>147.66666666666669</ele><time>2026-03-28T14:01:40Z</time></trkpt><trkpt lat="43.15124026976569" lon="11.473266977044648"><ele>148.0</ele><time>2026-03-28T14:01:41Z</time></trkpt><trkpt lat="43.151409445754425" lon="11.47311423672037"><ele>148.33333333333334</ele><time>2026-03-28T14:01:42Z</time></trkpt><trkpt lat="43.15158006872155" lon="11.472972199512414"><ele>148.66666666666666</ele><time>2026-03-28T14:01:43Z</time></trkpt><trkpt lat="43.151764842891865" lon="11.472840654038382"><ele>149.0</ele><time>2026-03-28T14:01:44Z</time></trkpt><trkpt lat="43.15196788564841" lon="11.472720500259864"><ele>146.0</ele><time>2026-03-28T14:01:45Z</time></trkpt><trkpt lat="43.15219301860401" lon="11.47261626334698"><ele>143.0</ele><time>2026-03-28T14:01:46Z</time></trkpt><trkpt lat="43.15243535613698" lon="11.472522182193105"><ele>143.0</ele><time>2026-03-28T14:01:47Z</time></trkpt><trkpt lat="43.1526830942541" lon="11.472448463274143"><ele>143.0</ele><time>2026-03-28T14:01:48Z</time></trkpt><trkpt lat="43.15294463358978" lon="11.472389632493552"><ele>143.0</ele><time>2026-03-28T14:01:49Z</time></trkpt><trkpt lat="43.153229037225465" lon="11.472332707832715"><ele>143.0</ele><time>2026-03-28T14:01:50Z</time></trkpt><trkpt lat="43.15353470646063" lon="11.472267531862295"><ele>143.0</ele><time>2026-03-28T14:01:51Z</time></trkpt><trkpt lat="43.15385207041828" lon="11.472200240635717"><ele>143.0</ele><time>2026-03-28T14:01:52Z</time></trkpt><trkpt lat="43.154159636055915" lon="11.472129323364058"><ele>143.5</ele><time>2026-03-28T14:01:53Z</time></trkpt><trkpt lat="43.15443382838409" lon="11.47206546502001"><ele>144.0</ele><time>2026-03-28T14:01:54Z</time></trkpt><trkpt lat="43.154710157073964" lon="11.47200220034101"><ele>144.5</ele><time>2026-03-28T14:01:55Z</time></trkpt><trkpt lat="43.154994949025465" lon="11.47193628571415"><ele>145.0</ele><time>2026-03-28T14:01:56Z</time></trkpt><trkpt lat="43.155260989565186" lon="11.471871926065772"><ele>145.0</ele><time>2026-03-28T14:01:57Z</time></trkpt><trkpt lat="43.15552422283507" lon="11.47180542055176"><ele>145.0</ele><time>2026-03-28T14:01:58Z</time></trkpt><trkpt lat="43.15579097067436" lon="11.47173918578775"><ele>146.5</ele><time>2026-03-28T14:01:59Z</time></trkpt><trkpt lat="43.15607102423747" lon="11.47169377752682"><ele>148.0</ele><time>2026-03-28T14:02:00Z</time></trkpt><trkpt lat="43.156369981797845" lon="11.471625584675113"><ele>148.5</ele><time>2026-03-28T14:02:01Z</time></trkpt><trkpt lat="43.156664187459654" lon="11.471558475775819"><ele>149.0</ele><time>2026-03-28T14:02:02Z</time></trkpt><trkpt lat="43.156931456108" lon="11.471497511209302"><ele>149.0</ele><time>2026-03-28T14:02:03Z</time></trkpt><trkpt lat="43.157184247575024" lon="11.47143985011778"><ele>149.0</ele><time>2026-03-28T14:02:04Z</time></trkpt><trkpt lat="43.157428535008826" lon="11.471384131410865"><ele>149.0</ele><time>2026-03-28T14:02:05Z</time></trkpt><trkpt lat="43.157663639585316" lon="11.471330498495462"><ele>149.0</ele><time>2026-03-28T14:02:06Z</time></trkpt><trkpt lat="43.157860159550225" lon="11.471139898282244"><ele>148.0</ele><time>2026-03-28T14:02:07Z</time></trkpt><trkpt lat="43.15807566732369" lon="11.471011975710491"><ele>147.0</ele><time>2026-03-28T14:02:08Z</time></trkpt><trkpt lat="43.1582958626261" lon="11.470883539333514"><ele>147.0</ele><time>2026-03-28T14:02:09Z</time></trkpt><trkpt lat="43.15849160757378" lon="11.47076500866866"><ele>147.0</ele><time>2026-03-28T14:02:10Z</time></trkpt><trkpt lat="43.15871134340009" lon="11.47059783213987"><ele>147.0</ele><time>2026-03-28T14:02:11Z</time></trkpt><trkpt lat="43.15894081261221" lon="11.47041719323651"><ele>147.0</ele><time>2026-03-28T14:02:12Z</time></trkpt><trkpt lat="43.15917292055272" lon="11.47022239254169"><ele>147.0</ele><time>2026-03-28T14:02:13Z</time></trkpt><trkpt lat="43.15941035216202" lon="11.470013568388486"><ele>147.0</ele><time>2026-03-28T14:02:14Z</time></trkpt><trkpt lat="43.159634514126516" lon="11.46980288974226"><ele>147.0</ele><time>2026-03-28T14:02:15Z</time></trkpt><trkpt lat="43.15984723717556" lon="11.469602387557414"><ele>147.0</ele><time>2026-03-28T14:02:16Z</time></trkpt><trkpt lat="43.160049005445316" lon="11.469410752062167"><ele>146.66666666666666</ele><time>2026-03-28T14:02:17Z</time></trkpt><trkpt lat="43.16023161063633" lon="11.469233218332112"><ele>146.33333333333331</ele><time>2026-03-28T14:02:18Z</time></trkpt><trkpt lat="43.16040221332648" lon="11.469069582867757"><ele>146.0</ele><time>2026-03-28T14:02:19Z</time></trkpt><trkpt lat="43.16056814396301" lon="11.468924912542729"><ele>147.0</ele><time>2026-03-28T14:02:20Z</time></trkpt><trkpt lat="43.16073192080175" lon="11.468819390290324"><ele>148.0</ele><time>2026-03-28T14:02:21Z</time></trkpt><trkpt lat="43.16090236506048" lon="11.46874678039357"><ele>149.0</ele><time>2026-03-28T14:02:22Z</time></trkpt><trkpt lat="43.16107884237849" lon="11.468701312447857"><ele>149.0</ele><time>2026-03-28T14:02:23Z</time></trkpt><trkpt lat="43.161274184418836" lon="11.468663734119238"><ele>149.0</ele><time>2026-03-28T14:02:24Z</time></trkpt><trkpt lat="43.16148370139287" lon="11.468618640148442"><ele>149.0</ele><time>2026-03-28T14:02:25Z</time></trkpt><trkpt lat="43.16171605310065" lon="11.468565135549841"><ele>150.0</ele><time>2026-03-28T14:02:26Z</time></trkpt><trkpt lat="43.161971301169636" lon="11.468512290805098"><ele>151.0</ele><time>2026-03-28T14:02:27Z</time></trkpt><trkpt lat="43.16220973305601" lon="11.468463756949104"><ele>150.0</ele><time>2026-03-28T14:02:28Z</time></trkpt><trkpt lat="43.162436481562615" lon="11.46841762226345"><ele>149.0</ele><time>2026-03-28T14:02:29Z</time></trkpt><trkpt lat="43.1626541342527" lon="11.46837239029737"><ele>148.0</ele><time>2026-03-28T14:02:30Z</time></trkpt><trkpt lat="43.16287074239033" lon="11.468301705865082"><ele>148.0</ele><time>2026-03-28T14:02:31Z</time></trkpt><trkpt lat="43.163078024289526" lon="11.46818818280426"><ele>148.0</ele><time>2026-03-28T14:02:32Z</time></trkpt><trkpt lat="43.163283127522085" lon="11.468044665039427"><ele>146.0</ele><time>2026-03-28T14:02:33Z</time></trkpt><trkpt lat="43.163492636665524" lon="11.467901977924745"><ele>144.0</ele><time>2026-03-28T14:02:34Z</time></trkpt><trkpt lat="43.16371398558981" lon="11.467752808178345"><ele>144.0</ele><time>2026-03-28T14:02:35Z</time></trkpt><trkpt lat="43.163922083932206" lon="11.467615600038407"><ele>144.0</ele><time>2026-03-28T14:02:36Z</time></trkpt><trkpt lat="43.16411569405222" lon="11.46748151206216"><ele>144.0</ele><time>2026-03-28T14:02:37Z</time></trkpt><trkpt lat="43.164294606526404" lon="11.467355885762325"><ele>144.33333333333334</ele><time>2026-03-28T14:02:38Z</time></trkpt><trkpt lat="43.16446871433224" lon="11.46723999288895"><ele>144.66666666666669</ele><time>2026-03-28T14:02:39Z</time></trkpt><trkpt lat="43.164638492808066" lon="11.467132560936319"><ele>145.0</ele><time>2026-03-28T14:02:40Z</time></trkpt><trkpt lat="43.16479975159537" lon="11.467028800609146"><ele>145.75</ele><time>2026-03-28T14:02:41Z</time></trkpt><trkpt lat="43.16495016282842" lon="11.466933415662478"><ele>146.5</ele><time>2026-03-28T14:02:42Z</time></trkpt><trkpt lat="43.165075861715586" lon="11.466856566367847"><ele>147.25</ele><time>2026-03-28T14:02:43Z</time></trkpt><trkpt lat="43.16520266949936" lon="11.4667753077763"><ele>148.0</ele><time>2026-03-28T14:02:44Z</time></trkpt><trkpt lat="43.16533814851735" lon="11.466674907606341"><ele>148.0</ele><time>2026-03-28T14:02:45Z</time></trkpt><trkpt lat="43.16547826316736" lon="11.466570685037194"><ele>148.0</ele><time>2026-03-28T14:02:46Z</time></trkpt><trkpt lat="43.165619877435866" lon="11.466498838050866"><ele>148.0</ele><time>2026-03-28T14:02:47Z</time></trkpt><trkpt lat="43.16574561603426" lon="11.466429226576029"><ele>148.0</ele><time>2026-03-28T14:02:48Z</time></trkpt><trkpt lat="43.165848195828154" lon="11.466324727163041"><ele>147.0</ele><time>2026-03-28T14:02:49Z</time></trkpt><trkpt lat="43.165942196888274" lon="11.466190586463432"><ele>146.0</ele><time>2026-03-28T14:02:50Z</time></trkpt><trkpt lat="43.166037030208884" lon="11.466048809561272"><ele>145.0</ele><time>2026-03-28T14:02:51Z</time></trkpt><trkpt lat="43.16613495797903" lon="11.465910076261203"><ele>144.0</ele><time>2026-03-28T14:02:52Z</time></trkpt><trkpt lat="43.16622814082284" lon="11.465781292261589"><ele>144.0</ele><time>2026-03-28T14:02:53Z</time></trkpt><trkpt lat="43.16631929783763" lon="11.465643255683588"><ele>144.0</ele><time>2026-03-28T14:02:54Z</time></trkpt><trkpt lat="43.16642713576001" lon="11.465514711880743"><ele>144.0</ele><time>2026-03-28T14:02:55Z</time></trkpt><trkpt lat="43.166526519039685" lon="11.465403689940391"><ele>144.0</ele><time>2026-03-28T14:02:56Z</time></trkpt><trkpt lat="43.166629598163205" lon="11.465318474778332"><ele>144.8</ele><time>2026-03-28T14:02:57Z</time></trkpt><trkpt lat="43.16672462222832" lon="11.465255675349006"><ele>145.60000000000002</ele><time>2026-03-28T14:02:58Z</time></trkpt><trkpt lat="43.16681752746649" lon="11.465192923452348"><ele>146.4</ele><time>2026-03-28T14:02:59Z</time></trkpt><trkpt lat="43.16691563824755" lon="11.46514292271788"><ele>147.20000000000002</ele><time>2026-03-28T14:03:00Z</time></trkpt><trkpt lat="43.16701123344202" lon="11.46510475472966"><ele>148.0</ele><time>2026-03-28T14:03:01Z</time></trkpt><trkpt lat="43.16711222014317" lon="11.465081752843798"><ele>148.0</ele><time>2026-03-28T14:03:02Z</time></trkpt><trkpt lat="43.16720830068806" lon="11.465067271033988"><ele>148.0</ele><time>2026-03-28T14:03:03Z</time></trkpt><trkpt lat="43.16730790089644" lon="11.465065917541898"><ele>148.0</ele><time>2026-03-28T14:03:04Z</time></trkpt><trkpt lat="43.167410008792196" lon="11.46506747132699"><ele>148.0</ele><time>2026-03-28T14:03:05Z</time></trkpt><trkpt lat="43.167515821458764" lon="11.46507788410888"><ele>148.0</ele><time>2026-03-28T14:03:06Z</time></trkpt><trkpt lat="43.16762447778122" lon="11.465101486602137"><ele>148.20000000000002</ele><time>2026-03-28T14:03:07Z</time></trkpt><trkpt lat="43.167727462064306" lon="11.4651389582748"><ele>148.4</ele><time>2026-03-28T14:03:08Z</time></trkpt><trkpt lat="43.167830105764466" lon="11.465193055383136"><ele>148.60000000000002</ele><time>2026-03-28T14:03:09Z</time></trkpt><trkpt lat="43.16793402574918" lon="11.465259532702067"><ele>148.8</ele><time>2026-03-28T14:03:10Z</time></trkpt><trkpt lat="43.168037718816166" lon="11.465329888337688"><ele>149.0</ele><time>2026-03-28T14:03:11Z</time></trkpt><trkpt lat="43.16814334940156" lon="11.46540288103663"><ele>149.0</ele><time>2026-03-28T14:03:12Z</time></trkpt><trkpt lat="43.168250276500245" lon="11.465474143610177"><ele>149.0</ele><time>2026-03-28T14:03:13Z</time></trkpt><trkpt lat="43.16835506372276" lon="11.465524554202958"><ele>149.0</ele><time>2026-03-28T14:03:14Z</time></trkpt><trkpt lat="43.16846226910229" lon="11.46557911120513"><ele>149.0</ele><time>2026-03-28T14:03:15Z</time></trkpt><trkpt lat="43.16856097976528" lon="11.465626259252923"><ele>149.0</ele><time>2026-03-28T14:03:16Z</time></trkpt><trkpt lat="43.16865874452487" lon="11.465671788473783"><ele>149.0</ele><time>2026-03-28T14:03:17Z</time></trkpt><trkpt lat="43.16875835087127" lon="11.465707081476024"><ele>149.0</ele><time>2026-03-28T14:03:18Z</time></trkpt><trkpt lat="43.16885985566117" lon="11.465731217804063"><ele>149.0</ele><time>2026-03-28T14:03:19Z</time></trkpt><trkpt lat="43.16896364280799" lon="11.465743467978772"><ele>149.0</ele><time>2026-03-28T14:03:20Z</time></trkpt><trkpt lat="43.169067294860014" lon="11.465755938043198"><ele>149.0</ele><time>2026-03-28T14:03:21Z</time></trkpt><trkpt lat="43.16916998068288" lon="11.465768162914703"><ele>149.2</ele><time>2026-03-28T14:03:22Z</time></trkpt><trkpt lat="43.16927259291396" lon="11.465777861618266"><ele>149.4</ele><time>2026-03-28T14:03:23Z</time></trkpt><trkpt lat="43.169376874866714" lon="11.465777199052926"><ele>149.6</ele><time>2026-03-28T14:03:24Z</time></trkpt><trkpt lat="43.16947980124926" lon="11.46576885311473"><ele>149.8</ele><time>2026-03-28T14:03:25Z</time></trkpt><trkpt lat="43.169586867984286" lon="11.465755727793203"><ele>150.0</ele><time>2026-03-28T14:03:26Z</time></trkpt><trkpt lat="43.16969296968958" lon="11.465734706311741"><ele>150.0</ele><time>2026-03-28T14:03:27Z</time></trkpt><trkpt lat="43.16980825784778" lon="11.465707795117547"><ele>150.0</ele><time>2026-03-28T14:03:28Z</time></trkpt><trkpt lat="43.169924373366186" lon="11.465673475645081"><ele>150.0</ele><time>2026-03-28T14:03:29Z</time></trkpt><trkpt lat="43.170040234852216" lon="11.4656252696642"><ele>150.0</ele><time>2026-03-28T14:03:30Z</time></trkpt><trkpt lat="43.17016563254189" lon="11.465576255475098"><ele>149.75</ele><time>2026-03-28T14:03:31Z</time></trkpt><trkpt lat="43.170295994201425" lon="11.465526713379807"><ele>149.5</ele><time>2026-03-28T14:03:32Z</time></trkpt><trkpt lat="43.170431664743695" lon="11.465472847757441"><ele>149.25</ele><time>2026-03-28T14:03:33Z</time></trkpt><trkpt lat="43.170549416295785" lon="11.46542966662021"><ele>149.0</ele><time>2026-03-28T14:03:34Z</time></trkpt><trkpt lat="43.170658608854836" lon="11.465382496362276"><ele>149.0</ele><time>2026-03-28T14:03:35Z</time></trkpt><trkpt lat="43.170767603410724" lon="11.465339324795094"><ele>149.0</ele><time>2026-03-28T14:03:36Z</time></trkpt><trkpt lat="43.1708691098977" lon="11.46530383905213"><ele>149.0</ele><time>2026-03-28T14:03:37Z</time></trkpt><trkpt lat="43.17097848377781" lon="11.465258391676134"><ele>149.0</ele><time>2026-03-28T14:03:38Z</time></trkpt><trkpt lat="43.17108907525637" lon="11.46521006084328"><ele>149.0</ele><time>2026-03-28T14:03:39Z</time></trkpt><trkpt lat="43.17120539869592" lon="11.465163124616577"><ele>149.0</ele><time>2026-03-28T14:03:40Z</time></trkpt><trkpt lat="43.1713276487657" lon="11.46511602842768"><ele>149.0</ele><time>2026-03-28T14:03:41Z</time></trkpt><trkpt lat="43.17145632018707" lon="11.465065131970277"><ele>149.0</ele><time>2026-03-28T14:03:42Z</time></trkpt><trkpt lat="43.17158941220292" lon="11.465010900519495"><ele>149.0</ele><time>2026-03-28T14:03:43Z</time></trkpt><trkpt lat="43.17172358224397" lon="11.464952217586289"><ele>148.75</ele><time>2026-03-28T14:03:44Z</time></trkpt><trkpt lat="43.17184958367507" lon="11.46490563770839"><ele>148.5</ele><time>2026-03-28T14:03:45Z</time></trkpt><trkpt lat="43.17195918078584" lon="11.464861934247148"><ele>148.25</ele><time>2026-03-28T14:03:46Z</time></trkpt><trkpt lat="43.17206161173912" lon="11.46481762926605"><ele>148.0</ele><time>2026-03-28T14:03:47Z</time></trkpt><trkpt lat="43.17217080425391" lon="11.464779254677762"><ele>148.0</ele><time>2026-03-28T14:03:48Z</time></trkpt><trkpt lat="43.17228944383321" lon="11.464730698414632"><ele>148.0</ele><time>2026-03-28T14:03:49Z</time></trkpt><trkpt lat="43.17241310830911" lon="11.464678613842924"><ele>148.0</ele><time>2026-03-28T14:03:50Z</time></trkpt><trkpt lat="43.17254290928378" lon="11.464629171174"><ele>148.0</ele><time>2026-03-28T14:03:51Z</time></trkpt><trkpt lat="43.17267708516625" lon="11.464574934978828"><ele>148.66666666666669</ele><time>2026-03-28T14:03:52Z</time></trkpt><trkpt lat="43.172816828475284" lon="11.464516332093272"><ele>149.33333333333334</ele><time>2026-03-28T14:03:53Z</time></trkpt><trkpt lat="43.172962473929786" lon="11.464458812472973"><ele>150.0</ele><time>2026-03-28T14:03:54Z</time></trkpt><trkpt lat="43.17312878703407" lon="11.464392426781437"><ele>150.0</ele><time>2026-03-28T14:03:55Z</time></trkpt><trkpt lat="43.17332060631888" lon="11.464315228245903"><ele>150.0</ele><time>2026-03-28T14:03:56Z</time></trkpt><trkpt lat="43.173535257138965" lon="11.4642285817221"><ele>150.0</ele><time>2026-03-28T14:03:57Z</time></trkpt><trkpt lat="43.1737841312698" lon="11.46413140105779"><ele>150.0</ele><time>2026-03-28T14:03:58Z</time></trkpt><trkpt lat="43.1740194100122" lon="11.46403704394582"><ele>150.0</ele><time>2026-03-28T14:03:59Z</time></trkpt><trkpt lat="43.174251846730314" lon="11.463947402337157"><ele>149.5</ele><time>2026-03-28T14:04:00Z</time></trkpt><trkpt lat="43.17448274515983" lon="11.463851828744636"><ele>149.0</ele><time>2026-03-28T14:04:01Z</time></trkpt><trkpt lat="43.174722197310054" lon="11.463754243759164"><ele>149.5</ele><time>2026-03-28T14:04:02Z</time></trkpt><trkpt lat="43.17496566739363" lon="11.463659306813684"><ele>150.0</ele><time>2026-03-28T14:04:03Z</time></trkpt><trkpt lat="43.1752322061933" lon="11.463555805335911"><ele>150.0</ele><time>2026-03-28T14:04:04Z</time></trkpt><trkpt lat="43.175508927031316" lon="11.463446357376062"><ele>150.0</ele><time>2026-03-28T14:04:05Z</time></trkpt><trkpt lat="43.17576282308445" lon="11.463345894900138"><ele>151.0</ele><time>2026-03-28T14:04:06Z</time></trkpt><trkpt lat="43.175999008540344" lon="11.463248711809074"><ele>152.0</ele><time>2026-03-28T14:04:07Z</time></trkpt><trkpt lat="43.176238416329745" lon="11.463151172071308"><ele>152.0</ele><time>2026-03-28T14:04:08Z</time></trkpt><trkpt lat="43.176475517901686" lon="11.463052662904007"><ele>152.0</ele><time>2026-03-28T14:04:09Z</time></trkpt><trkpt lat="43.17671086383324" lon="11.462958001617785"><ele>152.5</ele><time>2026-03-28T14:04:10Z</time></trkpt><trkpt lat="43.176955713647885" lon="11.462862489069996"><ele>153.0</ele><time>2026-03-28T14:04:11Z</time></trkpt><trkpt lat="43.177194341929514" lon="11.462763414724968"><ele>153.33333333333334</ele><time>2026-03-28T14:04:12Z</time></trkpt><trkpt lat="43.17741355210423" lon="11.462674615317715"><ele>153.66666666666669</ele><time>2026-03-28T14:04:13Z</time></trkpt><trkpt lat="43.17760987784645" lon="11.46259656761833"><ele>154.0</ele><time>2026-03-28T14:04:14Z</time></trkpt><trkpt lat="43.1777956161806" lon="11.462542129607087"><ele>154.0</ele><time>2026-03-28T14:04:15Z</time></trkpt><trkpt lat="43.177964869699814" lon="11.462454713471535"><ele>154.0</ele><time>2026-03-28T14:04:16Z</time></trkpt><trkpt lat="43.17813450242937" lon="11.462418816412214"><ele>154.0</ele><time>2026-03-28T14:04:17Z</time></trkpt><trkpt lat="43.17831270132379" lon="11.46243180675105"><ele>153.66666666666669</ele><time>2026-03-28T14:04:18Z</time></trkpt><trkpt lat="43.17851941578556" lon="11.46252894098816"><ele>153.33333333333334</ele><time>2026-03-28T14:04:19Z</time></trkpt><trkpt lat="43.17874082766824" lon="11.462597670019179"><ele>153.0</ele><time>2026-03-28T14:04:20Z</time></trkpt><trkpt lat="43.17893327975184" lon="11.462680265615992"><ele>154.33333333333334</ele><time>2026-03-28T14:04:21Z</time></trkpt><trkpt lat="43.17911273285675" lon="11.462745858626578"><ele>155.66666666666669</ele><time>2026-03-28T14:04:22Z</time></trkpt><trkpt lat="43.179293526574895" lon="11.462795788116484"><ele>157.0</ele><time>2026-03-28T14:04:23Z</time></trkpt><trkpt lat="43.179463411290065" lon="11.462818173963877"><ele>157.0</ele><time>2026-03-28T14:04:24Z</time></trkpt><trkpt lat="43.179622934803106" lon="11.462808733442568"><ele>157.0</ele><time>2026-03-28T14:04:25Z</time></trkpt><trkpt lat="43.179785611148034" lon="11.462750324790521"><ele>157.0</ele><time>2026-03-28T14:04:26Z</time></trkpt><trkpt lat="43.17994505988395" lon="11.462641542427505"><ele>157.33333333333334</ele><time>2026-03-28T14:04:27Z</time></trkpt><trkpt lat="43.180080059147" lon="11.462480528561866"><ele>157.66666666666666</ele><time>2026-03-28T14:04:28Z</time></trkpt><trkpt lat="43.18018892097964" lon="11.462281076517746"><ele>158.0</ele><time>2026-03-28T14:04:29Z</time></trkpt><trkpt lat="43.1802813936334" lon="11.462030786938566"><ele>161.0</ele><time>2026-03-28T14:04:30Z</time></trkpt><trkpt lat="43.18036987006676" lon="11.461753822651707"><ele>164.0</ele><time>2026-03-28T14:04:31Z</time></trkpt><trkpt lat="43.18047917249788" lon="11.461528462109719"><ele>167.0</ele><time>2026-03-28T14:04:32Z</time></trkpt><trkpt lat="43.18059612522872" lon="11.461318711463678"><ele>164.5</ele><time>2026-03-28T14:04:33Z</time></trkpt><trkpt lat="43.180751964659535" lon="11.46111347423265"><ele>162.0</ele><time>2026-03-28T14:04:34Z</time></trkpt><trkpt lat="43.18095113730173" lon="11.46089650105472"><ele>162.0</ele><time>2026-03-28T14:04:35Z</time></trkpt><trkpt lat="43.18115937116764" lon="11.46064918660678"><ele>162.0</ele><time>2026-03-28T14:04:36Z</time></trkpt><trkpt lat="43.18138833583906" lon="11.460419110189374"><ele>161.0</ele><time>2026-03-28T14:04:37Z</time></trkpt><trkpt lat="43.181642450401725" lon="11.460161787746273"><ele>160.0</ele><time>2026-03-28T14:04:38Z</time></trkpt><trkpt lat="43.18192377059153" lon="11.459897341332496"><ele>160.0</ele><time>2026-03-28T14:04:39Z</time></trkpt><trkpt lat="43.18220948697384" lon="11.459652033332041"><ele>160.0</ele><time>2026-03-28T14:04:40Z</time></trkpt><trkpt lat="43.182437987207365" lon="11.459370319587197"><ele>160.0</ele><time>2026-03-28T14:04:41Z</time></trkpt><trkpt lat="43.18265254878943" lon="11.459155680807681"><ele>160.0</ele><time>2026-03-28T14:04:42Z</time></trkpt><trkpt lat="43.182857784233754" lon="11.458964132428793"><ele>161.0</ele><time>2026-03-28T14:04:43Z</time></trkpt><trkpt lat="43.183052462713874" lon="11.458769999615104"><ele>162.0</ele><time>2026-03-28T14:04:44Z</time></trkpt><trkpt lat="43.18323812348461" lon="11.45857383717819"><ele>162.0</ele><time>2026-03-28T14:04:45Z</time></trkpt><trkpt lat="43.18341012063507" lon="11.458396317357066"><ele>162.0</ele><time>2026-03-28T14:04:46Z</time></trkpt><trkpt lat="43.18357301133842" lon="11.458224258615607"><ele>162.0</ele><time>2026-03-28T14:04:47Z</time></trkpt><trkpt lat="43.18374223905397" lon="11.458039615572131"><ele>162.5</ele><time>2026-03-28T14:04:48Z</time></trkpt><trkpt lat="43.18392273632725" lon="11.457844046845533"><ele>163.0</ele><time>2026-03-28T14:04:49Z</time></trkpt><trkpt lat="43.1841155451324" lon="11.457621832920664"><ele>163.0</ele><time>2026-03-28T14:04:50Z</time></trkpt><trkpt lat="43.18432433900908" lon="11.457406042695988"><ele>163.0</ele><time>2026-03-28T14:04:51Z</time></trkpt><trkpt lat="43.18450983960069" lon="11.457149387448524"><ele>163.0</ele><time>2026-03-28T14:04:52Z</time></trkpt><trkpt lat="43.18469623265707" lon="11.456915812517154"><ele>163.0</ele><time>2026-03-28T14:04:53Z</time></trkpt><trkpt lat="43.1848760263004" lon="11.456693271709042"><ele>163.0</ele><time>2026-03-28T14:04:54Z</time></trkpt><trkpt lat="43.18506929570644" lon="11.456465972665853"><ele>163.0</ele><time>2026-03-28T14:04:55Z</time></trkpt><trkpt lat="43.18527044133387" lon="11.4562126350334"><ele>164.5</ele><time>2026-03-28T14:04:56Z</time></trkpt><trkpt lat="43.18547320495516" lon="11.45596420400063"><ele>166.0</ele><time>2026-03-28T14:04:57Z</time></trkpt><trkpt lat="43.18565185255014" lon="11.45573805224593"><ele>165.5</ele><time>2026-03-28T14:04:58Z</time></trkpt><trkpt lat="43.185830828394245" lon="11.455535567808122"><ele>165.0</ele><time>2026-03-28T14:04:59Z</time></trkpt><trkpt lat="43.18602563848825" lon="11.455337604514966"><ele>167.0</ele><time>2026-03-28T14:05:00Z</time></trkpt><trkpt lat="43.18624044182641" lon="11.455152323283762"><ele>169.0</ele><time>2026-03-28T14:05:01Z</time></trkpt><trkpt lat="43.18649000358417" lon="11.455011553797537"><ele>169.5</ele><time>2026-03-28T14:05:02Z</time></trkpt><trkpt lat="43.186748439119576" lon="11.454857418393335"><ele>170.0</ele><time>2026-03-28T14:05:03Z</time></trkpt><trkpt lat="43.187004249538056" lon="11.454694064564682"><ele>172.5</ele><time>2026-03-28T14:05:04Z</time></trkpt><trkpt lat="43.187240132269224" lon="11.454565947307094"><ele>175.0</ele><time>2026-03-28T14:05:05Z</time></trkpt><trkpt lat="43.18745697450567" lon="11.454446785993467"><ele>176.33333333333334</ele><time>2026-03-28T14:05:06Z</time></trkpt><trkpt lat="43.1876632655171" lon="11.454320121338554"><ele>177.66666666666666</ele><time>2026-03-28T14:05:07Z</time></trkpt><trkpt lat="43.18785822926504" lon="11.45420417638478"><ele>179.0</ele><time>2026-03-28T14:05:08Z</time></trkpt><trkpt lat="43.188030921336896" lon="11.454111948474912"><ele>179.66666666666666</ele><time>2026-03-28T14:05:09Z</time></trkpt><trkpt lat="43.188203044161874" lon="11.454059204556417"><ele>180.33333333333334</ele><time>2026-03-28T14:05:10Z</time></trkpt><trkpt lat="43.18838205410413" lon="11.454028051625205"><ele>181.0</ele><time>2026-03-28T14:05:11Z</time></trkpt><trkpt lat="43.18858591806934" lon="11.454032897573184"><ele>181.0</ele><time>2026-03-28T14:05:12Z</time></trkpt><trkpt lat="43.18879655012201" lon="11.454039760464967"><ele>181.0</ele><time>2026-03-28T14:05:13Z</time></trkpt><trkpt lat="43.18899906627623" lon="11.454047005109938"><ele>181.0</ele><time>2026-03-28T14:05:14Z</time></trkpt><trkpt lat="43.18918449324098" lon="11.454045928457802"><ele>179.66666666666669</ele><time>2026-03-28T14:05:15Z</time></trkpt><trkpt lat="43.18935773732256" lon="11.454048156616532"><ele>178.33333333333334</ele><time>2026-03-28T14:05:16Z</time></trkpt><trkpt lat="43.189521058222454" lon="11.454045375864274"><ele>177.0</ele><time>2026-03-28T14:05:17Z</time></trkpt><trkpt lat="43.18967025605988" lon="11.45402912758314"><ele>177.0</ele><time>2026-03-28T14:05:18Z</time></trkpt><trkpt lat="43.189817305872644" lon="11.45397925040065"><ele>177.0</ele><time>2026-03-28T14:05:19Z</time></trkpt><trkpt lat="43.189976229859006" lon="11.453888201077088"><ele>177.0</ele><time>2026-03-28T14:05:20Z</time></trkpt><trkpt lat="43.1901471153906" lon="11.453759066566821"><ele>177.0</ele><time>2026-03-28T14:05:21Z</time></trkpt><trkpt lat="43.190313582043714" lon="11.453639848560083"><ele>177.0</ele><time>2026-03-28T14:05:22Z</time></trkpt><trkpt lat="43.19047124796414" lon="11.453542109448062"><ele>177.0</ele><time>2026-03-28T14:05:23Z</time></trkpt><trkpt lat="43.19064003923412" lon="11.453455882343063"><ele>175.0</ele><time>2026-03-28T14:05:24Z</time></trkpt><trkpt lat="43.19082525117463" lon="11.45339422294679"><ele>173.0</ele><time>2026-03-28T14:05:25Z</time></trkpt><trkpt lat="43.19100587444489" lon="11.453369819786449"><ele>171.0</ele><time>2026-03-28T14:05:26Z</time></trkpt><trkpt lat="43.19117031140463" lon="11.453348673082951"><ele>171.0</ele><time>2026-03-28T14:05:27Z</time></trkpt><trkpt lat="43.19131163793777" lon="11.45336516021598"><ele>171.0</ele><time>2026-03-28T14:05:28Z</time></trkpt><trkpt lat="43.1914447416123" lon="11.453393109640842"><ele>171.0</ele><time>2026-03-28T14:05:29Z</time></trkpt><trkpt lat="43.19158692481374" lon="11.45348937100827"><ele>171.0</ele><time>2026-03-28T14:05:30Z</time></trkpt><trkpt lat="43.19167084984043" lon="11.453661798195771"><ele>169.33333333333334</ele><time>2026-03-28T14:05:31Z</time></trkpt><trkpt lat="43.19174185414179" lon="11.453882288778212"><ele>167.66666666666669</ele><time>2026-03-28T14:05:32Z</time></trkpt><trkpt lat="43.191819364925024" lon="11.454133287584563"><ele>166.0</ele><time>2026-03-28T14:05:33Z</time></trkpt><trkpt lat="43.1919003992311" lon="11.454382806080739"><ele>166.0</ele><time>2026-03-28T14:05:34Z</time></trkpt><trkpt lat="43.19197034448602" lon="11.454598789183635"><ele>166.0</ele><time>2026-03-28T14:05:35Z</time></trkpt><trkpt lat="43.19204027672493" lon="11.454772856224073"><ele>166.0</ele><time>2026-03-28T14:05:36Z</time></trkpt><trkpt lat="43.19212421581003" lon="11.454901715619744"><ele>166.0</ele><time>2026-03-28T14:05:37Z</time></trkpt><trkpt lat="43.19225541106732" lon="11.455003338104207"><ele>166.0</ele><time>2026-03-28T14:05:38Z</time></trkpt><trkpt lat="43.192436947346245" lon="11.455064045761205"><ele>166.0</ele><time>2026-03-28T14:05:39Z</time></trkpt><trkpt lat="43.1925991557666" lon="11.45509675009059"><ele>166.0</ele><time>2026-03-28T14:05:40Z</time></trkpt><trkpt lat="43.19273805799686" lon="11.455108535004788"><ele>166.0</ele><time>2026-03-28T14:05:41Z</time></trkpt><trkpt lat="43.192888182386596" lon="11.45504479196413"><ele>166.0</ele><time>2026-03-28T14:05:42Z</time></trkpt><trkpt lat="43.19303318889763" lon="11.454924077888158"><ele>166.0</ele><time>2026-03-28T14:05:43Z</time></trkpt><trkpt lat="43.193137672403324" lon="11.454790009455152"><ele>166.5</ele><time>2026-03-28T14:05:44Z</time></trkpt><trkpt lat="43.19320315151857" lon="11.45466067545069"><ele>167.0</ele><time>2026-03-28T14:05:45Z</time></trkpt><trkpt lat="43.19321361250834" lon="11.454482665706553"><ele>167.5</ele><time>2026-03-28T14:05:46Z</time></trkpt><trkpt lat="43.193189112775364" lon="11.454247633856452"><ele>168.0</ele><time>2026-03-28T14:05:47Z</time></trkpt><trkpt lat="43.19311585450908" lon="11.453963644143288"><ele>167.66666666666666</ele><time>2026-03-28T14:05:48Z</time></trkpt><trkpt lat="43.19303504001834" lon="11.453706490711092"><ele>167.33333333333331</ele><time>2026-03-28T14:05:49Z</time></trkpt><trkpt lat="43.19294423531224" lon="11.453476743717603"><ele>167.0</ele><time>2026-03-28T14:05:50Z</time></trkpt><trkpt lat="43.19284038404918" lon="11.453305444687086"><ele>167.0</ele><time>2026-03-28T14:05:51Z</time></trkpt><trkpt lat="43.1927440235821" lon="11.453155700608283"><ele>167.0</ele><time>2026-03-28T14:05:52Z</time></trkpt><trkpt lat="43.19268032823489" lon="11.452998038678407"><ele>167.0</ele><time>2026-03-28T14:05:53Z</time></trkpt><trkpt lat="43.19266267487709" lon="11.452822062950386"><ele>167.0</ele><time>2026-03-28T14:05:54Z</time></trkpt><trkpt lat="43.19269534117448" lon="11.452640805168782"><ele>166.33333333333331</ele><time>2026-03-28T14:05:55Z</time></trkpt><trkpt lat="43.19278471160067" lon="11.452453861346632"><ele>165.66666666666666</ele><time>2026-03-28T14:05:56Z</time></trkpt><trkpt lat="43.19292886645443" lon="11.452234456124312"><ele>165.0</ele><time>2026-03-28T14:05:57Z</time></trkpt><trkpt lat="43.19309627765486" lon="11.451987209610722"><ele>159.5</ele><time>2026-03-28T14:05:58Z</time></trkpt><trkpt lat="43.19327454050913" lon="11.451688128961194"><ele>154.0</ele><time>2026-03-28T14:05:59Z</time></trkpt><trkpt lat="43.19346862503609" lon="11.451357264985457"><ele>156.0</ele><time>2026-03-28T14:06:00Z</time></trkpt><trkpt lat="43.193673977294935" lon="11.451012901223487"><ele>158.0</ele><time>2026-03-28T14:06:01Z</time></trkpt><trkpt lat="43.19386234736174" lon="11.45070701096829"><ele>159.0</ele><time>2026-03-28T14:06:02Z</time></trkpt><trkpt lat="43.194023928803134" lon="11.450430228772596"><ele>160.0</ele><time>2026-03-28T14:06:03Z</time></trkpt><trkpt lat="43.194174701681604" lon="11.450169926364067"><ele>160.0</ele><time>2026-03-28T14:06:04Z</time></trkpt><trkpt lat="43.1943350510269" lon="11.449907181387625"><ele>160.0</ele><time>2026-03-28T14:06:05Z</time></trkpt><trkpt lat="43.19448821053907" lon="11.449657411938865"><ele>159.33333333333334</ele><time>2026-03-28T14:06:06Z</time></trkpt><trkpt lat="43.19462908636254" lon="11.449428817421104"><ele>158.66666666666666</ele><time>2026-03-28T14:06:07Z</time></trkpt><trkpt lat="43.19476131115819" lon="11.449237340234962"><ele>158.0</ele><time>2026-03-28T14:06:08Z</time></trkpt><trkpt lat="43.19487729519863" lon="11.449032973844709"><ele>158.0</ele><time>2026-03-28T14:06:09Z</time></trkpt><trkpt lat="43.194986714175336" lon="11.448831688404177"><ele>158.0</ele><time>2026-03-28T14:06:10Z</time></trkpt><trkpt lat="43.1950922523557" lon="11.448616169031355"><ele>158.0</ele><time>2026-03-28T14:06:11Z</time></trkpt><trkpt lat="43.19518493772625" lon="11.448361282596817"><ele>159.0</ele><time>2026-03-28T14:06:12Z</time></trkpt><trkpt lat="43.195267435601785" lon="11.448086374970313"><ele>160.0</ele><time>2026-03-28T14:06:13Z</time></trkpt><trkpt lat="43.19533735476591" lon="11.447799379270778"><ele>161.0</ele><time>2026-03-28T14:06:14Z</time></trkpt><trkpt lat="43.19539753952168" lon="11.447516418939006"><ele>163.5</ele><time>2026-03-28T14:06:15Z</time></trkpt><trkpt lat="43.19545463648039" lon="11.447223136499916"><ele>166.0</ele><time>2026-03-28T14:06:16Z</time></trkpt><trkpt lat="43.19552481343228" lon="11.446907601613558"><ele>167.5</ele><time>2026-03-28T14:06:17Z</time></trkpt><trkpt lat="43.1955922308115" lon="11.446585013396358"><ele>169.0</ele><time>2026-03-28T14:06:18Z</time></trkpt><trkpt lat="43.19565679992122" lon="11.446287410212806"><ele>165.66666666666669</ele><time>2026-03-28T14:06:19Z</time></trkpt><trkpt lat="43.1957152477101" lon="11.44600255868559"><ele>162.33333333333334</ele><time>2026-03-28T14:06:20Z</time></trkpt><trkpt lat="43.19578677789248" lon="11.445738480519816"><ele>159.0</ele><time>2026-03-28T14:06:21Z</time></trkpt><trkpt lat="43.1958523957861" lon="11.445481617280995"><ele>159.66666666666666</ele><time>2026-03-28T14:06:22Z</time></trkpt><trkpt lat="43.195939612476884" lon="11.445232158777518"><ele>160.33333333333331</ele><time>2026-03-28T14:06:23Z</time></trkpt><trkpt lat="43.19605133537134" lon="11.444989135563802"><ele>161.0</ele><time>2026-03-28T14:06:24Z</time></trkpt><trkpt lat="43.196183004539535" lon="11.44475911292658"><ele>160.0</ele><time>2026-03-28T14:06:25Z</time></trkpt><trkpt lat="43.19633364676494" lon="11.444563647505834"><ele>159.0</ele><time>2026-03-28T14:06:26Z</time></trkpt><trkpt lat="43.1965003325357" lon="11.444405606690585"><ele>158.0</ele><time>2026-03-28T14:06:27Z</time></trkpt><trkpt lat="43.19668645018937" lon="11.44428298675353"><ele>158.0</ele><time>2026-03-28T14:06:28Z</time></trkpt><trkpt lat="43.19689577333515" lon="11.444161580060774"><ele>158.0</ele><time>2026-03-28T14:06:29Z</time></trkpt><trkpt lat="43.19711737248013" lon="11.444021180017376"><ele>158.0</ele><time>2026-03-28T14:06:30Z</time></trkpt><trkpt lat="43.197359776722784" lon="11.443901687388037"><ele>158.0</ele><time>2026-03-28T14:06:31Z</time></trkpt><trkpt lat="43.19761575639575" lon="11.443777041655956"><ele>158.5</ele><time>2026-03-28T14:06:32Z</time></trkpt><trkpt lat="43.19785670967034" lon="11.44365994056244"><ele>159.0</ele><time>2026-03-28T14:06:33Z</time></trkpt><trkpt lat="43.19807378227819" lon="11.443552313453354"><ele>158.66666666666666</ele><time>2026-03-28T14:06:34Z</time></trkpt><trkpt lat="43.198281466777935" lon="11.44344894498755"><ele>158.33333333333331</ele><time>2026-03-28T14:06:35Z</time></trkpt><trkpt lat="43.198484513160096" lon="11.44335740729708"><ele>158.0</ele><time>2026-03-28T14:06:36Z</time></trkpt><trkpt lat="43.19870352590983" lon="11.44327838500725"><ele>158.0</ele><time>2026-03-28T14:06:37Z</time></trkpt><trkpt lat="43.19894036833132" lon="11.44321936102108"><ele>158.0</ele><time>2026-03-28T14:06:38Z</time></trkpt><trkpt lat="43.199203668423614" lon="11.443181278637544"><ele>157.5</ele><time>2026-03-28T14:06:39Z</time></trkpt><trkpt lat="43.199470798568846" lon="11.443151996570233"><ele>157.0</ele><time>2026-03-28T14:06:40Z</time></trkpt><trkpt lat="43.19975312373738" lon="11.44313033279928"><ele>157.5</ele><time>2026-03-28T14:06:41Z</time></trkpt><trkpt lat="43.20002068698421" lon="11.44311024812135"><ele>158.0</ele><time>2026-03-28T14:06:42Z</time></trkpt><trkpt lat="43.200271748326536" lon="11.443087706167779"><ele>158.0</ele><time>2026-03-28T14:06:43Z</time></trkpt><trkpt lat="43.20052418006746" lon="11.44306313425297"><ele>158.0</ele><time>2026-03-28T14:06:44Z</time></trkpt><trkpt lat="43.20078243390297" lon="11.443038197531077"><ele>157.0</ele><time>2026-03-28T14:06:45Z</time></trkpt><trkpt lat="43.20105024190458" lon="11.443006124015932"><ele>156.0</ele><time>2026-03-28T14:06:46Z</time></trkpt><trkpt lat="43.2013060068845" lon="11.442977171853878"><ele>157.5</ele><time>2026-03-28T14:06:47Z</time></trkpt><trkpt lat="43.20154705473709" lon="11.44295501226771"><ele>159.0</ele><time>2026-03-28T14:06:48Z</time></trkpt><trkpt lat="43.20178065412491" lon="11.442935910024493"><ele>159.0</ele><time>2026-03-28T14:06:49Z</time></trkpt><trkpt lat="43.20199464357449" lon="11.442915204572392"><ele>159.0</ele><time>2026-03-28T14:06:50Z</time></trkpt><trkpt lat="43.20220730380344" lon="11.442898736812632"><ele>159.0</ele><time>2026-03-28T14:06:51Z</time></trkpt><trkpt lat="43.20240666655951" lon="11.44288439419136"><ele>159.33333333333334</ele><time>2026-03-28T14:06:52Z</time></trkpt><trkpt lat="43.2025814772229" lon="11.442872375945894"><ele>159.66666666666669</ele><time>2026-03-28T14:06:53Z</time></trkpt><trkpt lat="43.20274640668767" lon="11.442830685780773"><ele>160.0</ele><time>2026-03-28T14:06:54Z</time></trkpt><trkpt lat="43.202906828358174" lon="11.442733056273806"><ele>160.0</ele><time>2026-03-28T14:06:55Z</time></trkpt><trkpt lat="43.20305868866387" lon="11.442594787562774"><ele>160.0</ele><time>2026-03-28T14:06:56Z</time></trkpt><trkpt lat="43.20320326329892" lon="11.442405269903048"><ele>160.0</ele><time>2026-03-28T14:06:57Z</time></trkpt><trkpt lat="43.203352275112756" lon="11.442179380254917"><ele>160.5</ele><time>2026-03-28T14:06:58Z</time></trkpt><trkpt lat="43.203524703457205" lon="11.441974068965965"><ele>161.0</ele><time>2026-03-28T14:06:59Z</time></trkpt><trkpt lat="43.20368135470995" lon="11.44175507574876"><ele>161.0</ele><time>2026-03-28T14:07:00Z</time></trkpt><trkpt lat="43.20385335142573" lon="11.441567576536434"><ele>161.0</ele><time>2026-03-28T14:07:01Z</time></trkpt><trkpt lat="43.20403472394753" lon="11.441393115571085"><ele>161.0</ele><time>2026-03-28T14:07:02Z</time></trkpt><trkpt lat="43.204236589461146" lon="11.441228011376552"><ele>160.0</ele><time>2026-03-28T14:07:03Z</time></trkpt><trkpt lat="43.20446254021747" lon="11.441065708230932"><ele>159.0</ele><time>2026-03-28T14:07:04Z</time></trkpt><trkpt lat="43.20470019884034" lon="11.440911285182814"><ele>158.5</ele><time>2026-03-28T14:07:05Z</time></trkpt><trkpt lat="43.20493804159456" lon="11.440771300641343"><ele>158.0</ele><time>2026-03-28T14:07:06Z</time></trkpt><trkpt lat="43.205166270137646" lon="11.440639419128567"><ele>158.0</ele><time>2026-03-28T14:07:07Z</time></trkpt><trkpt lat="43.205395295806625" lon="11.44050317403237"><ele>158.0</ele><time>2026-03-28T14:07:08Z</time></trkpt><trkpt lat="43.20563230361621" lon="11.440356588437584"><ele>157.5</ele><time>2026-03-28T14:07:09Z</time></trkpt><trkpt lat="43.20586930069764" lon="11.440211874780855"><ele>157.0</ele><time>2026-03-28T14:07:10Z</time></trkpt><trkpt lat="43.206102302785" lon="11.440068606747746"><ele>157.0</ele><time>2026-03-28T14:07:11Z</time></trkpt><trkpt lat="43.20632893529206" lon="11.439930728384457"><ele>157.0</ele><time>2026-03-28T14:07:12Z</time></trkpt><trkpt lat="43.206543867730936" lon="11.43980366465277"><ele>157.0</ele><time>2026-03-28T14:07:13Z</time></trkpt><trkpt lat="43.20674136321638" lon="11.4396875075159"><ele>157.0</ele><time>2026-03-28T14:07:14Z</time></trkpt><trkpt lat="43.206925721194054" lon="11.439578443119004"><ele>157.0</ele><time>2026-03-28T14:07:15Z</time></trkpt><trkpt lat="43.20709679966439" lon="11.439475021122998"><ele>157.0</ele><time>2026-03-28T14:07:16Z</time></trkpt><trkpt lat="43.20725393373267" lon="11.439374774023442"><ele>157.0</ele><time>2026-03-28T14:07:17Z</time></trkpt><trkpt lat="43.20739625759587" lon="11.439263882812627"><ele>157.0</ele><time>2026-03-28T14:07:18Z</time></trkpt><trkpt lat="43.20752167494418" lon="11.439126498635128"><ele>157.0</ele><time>2026-03-28T14:07:19Z</time></trkpt><trkpt lat="43.207629719335046" lon="11.438944407972144"><ele>157.0</ele><time>2026-03-28T14:07:20Z</time></trkpt><trkpt lat="43.20772092639736" lon="11.438702362185085"><ele>157.0</ele><time>2026-03-28T14:07:21Z</time></trkpt><trkpt lat="43.20780241454783" lon="11.438430446632422"><ele>157.0</ele><time>2026-03-28T14:07:22Z</time></trkpt><trkpt lat="43.20789585722972" lon="11.438138631418195"><ele>157.0</ele><time>2026-03-28T14:07:23Z</time></trkpt><trkpt lat="43.20799501243624" lon="11.437858306535462"><ele>157.0</ele><time>2026-03-28T14:07:24Z</time></trkpt><trkpt lat="43.20809643769519" lon="11.437580517143607"><ele>157.0</ele><time>2026-03-28T14:07:25Z</time></trkpt><trkpt lat="43.2081921994283" lon="11.437310675723099"><ele>157.0</ele><time>2026-03-28T14:07:26Z</time></trkpt><trkpt lat="43.208283424234146" lon="11.437044068097638"><ele>158.0</ele><time>2026-03-28T14:07:27Z</time></trkpt><trkpt lat="43.20836849307216" lon="11.436754755504234"><ele>159.0</ele><time>2026-03-28T14:07:28Z</time></trkpt><trkpt lat="43.20844107143512" lon="11.43643751587545"><ele>159.0</ele><time>2026-03-28T14:07:29Z</time></trkpt><trkpt lat="43.20850882292905" lon="11.436123233764109"><ele>159.0</ele><time>2026-03-28T14:07:30Z</time></trkpt><trkpt lat="43.208577962525425" lon="11.435844388306656"><ele>159.0</ele><time>2026-03-28T14:07:31Z</time></trkpt><trkpt lat="43.208640075861496" lon="11.435587234341934"><ele>159.0</ele><time>2026-03-28T14:07:32Z</time></trkpt><trkpt lat="43.208686818857885" lon="11.435353505522556"><ele>159.0</ele><time>2026-03-28T14:07:33Z</time></trkpt><trkpt lat="43.20870496580398" lon="11.435118242998637"><ele>159.33333333333334</ele><time>2026-03-28T14:07:34Z</time></trkpt><trkpt lat="43.20867894707458" lon="11.434847923910374"><ele>159.66666666666669</ele><time>2026-03-28T14:07:35Z</time></trkpt><trkpt lat="43.20863004975367" lon="11.43455686334004"><ele>160.0</ele><time>2026-03-28T14:07:36Z</time></trkpt><trkpt lat="43.20859784381725" lon="11.434304524497609"><ele>160.75</ele><time>2026-03-28T14:07:37Z</time></trkpt><trkpt lat="43.208581363158196" lon="11.43408453786218"><ele>161.5</ele><time>2026-03-28T14:07:38Z</time></trkpt><trkpt lat="43.208585584398016" lon="11.433895582158023"><ele>162.25</ele><time>2026-03-28T14:07:39Z</time></trkpt><trkpt lat="43.20862768405616" lon="11.433724882117726"><ele>163.0</ele><time>2026-03-28T14:07:40Z</time></trkpt><trkpt lat="43.20869388621322" lon="11.433549646719555"><ele>163.0</ele><time>2026-03-28T14:07:41Z</time></trkpt><trkpt lat="43.20877356203328" lon="11.433358882300087"><ele>163.0</ele><time>2026-03-28T14:07:42Z</time></trkpt><trkpt lat="43.2088524462052" lon="11.433138030722953"><ele>163.0</ele><time>2026-03-28T14:07:43Z</time></trkpt><trkpt lat="43.208934586107965" lon="11.432893678678978"><ele>163.66666666666669</ele><time>2026-03-28T14:07:44Z</time></trkpt><trkpt lat="43.2090147531298" lon="11.432659890789672"><ele>164.33333333333334</ele><time>2026-03-28T14:07:45Z</time></trkpt><trkpt lat="43.209088817668906" lon="11.432452072801231"><ele>165.0</ele><time>2026-03-28T14:07:46Z</time></trkpt><trkpt lat="43.209168014118184" lon="11.432279847564253"><ele>165.0</ele><time>2026-03-28T14:07:47Z</time></trkpt><trkpt lat="43.20927250143256" lon="11.432141303513868"><ele>165.0</ele><time>2026-03-28T14:07:48Z</time></trkpt><trkpt lat="43.20941317937556" lon="11.432039731615372"><ele>165.0</ele><time>2026-03-28T14:07:49Z</time></trkpt><trkpt lat="43.20957273036156" lon="11.431982857410711"><ele>165.0</ele><time>2026-03-28T14:07:50Z</time></trkpt><trkpt lat="43.20976818296016" lon="11.43198286020769"><ele>165.0</ele><time>2026-03-28T14:07:51Z</time></trkpt><trkpt lat="43.209986537831576" lon="11.431996713926432"><ele>165.0</ele><time>2026-03-28T14:07:52Z</time></trkpt><trkpt lat="43.21021464231932" lon="11.431991210509198"><ele>165.0</ele><time>2026-03-28T14:07:53Z</time></trkpt><trkpt lat="43.21046658726703" lon="11.43197516282556"><ele>165.0</ele><time>2026-03-28T14:07:54Z</time></trkpt><trkpt lat="43.21074199016978" lon="11.43195914386516"><ele>165.0</ele><time>2026-03-28T14:07:55Z</time></trkpt><trkpt lat="43.211030744845566" lon="11.431942642098107"><ele>165.0</ele><time>2026-03-28T14:07:56Z</time></trkpt><trkpt lat="43.21129865306356" lon="11.431926366514318"><ele>165.5</ele><time>2026-03-28T14:07:57Z</time></trkpt><trkpt lat="43.211543051032066" lon="11.43191621317898"><ele>166.0</ele><time>2026-03-28T14:07:58Z</time></trkpt><trkpt lat="43.211771745324626" lon="11.43190926223268"><ele>166.0</ele><time>2026-03-28T14:07:59Z</time></trkpt><trkpt lat="43.21199207549015" lon="11.431890572961025"><ele>166.0</ele><time>2026-03-28T14:08:00Z</time></trkpt><trkpt lat="43.21220546341479" lon="11.431875279162298"><ele>166.0</ele><time>2026-03-28T14:08:01Z</time></trkpt><trkpt lat="43.212412781738365" lon="11.43186232023516"><ele>165.66666666666669</ele><time>2026-03-28T14:08:02Z</time></trkpt><trkpt lat="43.21261120887653" lon="11.43185553379411"><ele>165.33333333333334</ele><time>2026-03-28T14:08:03Z</time></trkpt><trkpt lat="43.212805126490714" lon="11.431867785640705"><ele>165.0</ele><time>2026-03-28T14:08:04Z</time></trkpt><trkpt lat="43.21300906984655" lon="11.431895898566289"><ele>164.0</ele><time>2026-03-28T14:08:05Z</time></trkpt><trkpt lat="43.21323066641349" lon="11.43194581901488"><ele>163.0</ele><time>2026-03-28T14:08:06Z</time></trkpt><trkpt lat="43.213459639088974" lon="11.432006417327738"><ele>163.0</ele><time>2026-03-28T14:08:07Z</time></trkpt><trkpt lat="43.213683992114596" lon="11.432068634871571"><ele>163.0</ele><time>2026-03-28T14:08:08Z</time></trkpt><trkpt lat="43.213899355120354" lon="11.43212544263586"><ele>163.0</ele><time>2026-03-28T14:08:09Z</time></trkpt><trkpt lat="43.21410133772069" lon="11.432179986894257"><ele>163.33333333333334</ele><time>2026-03-28T14:08:10Z</time></trkpt><trkpt lat="43.21429375094483" lon="11.432244990605211"><ele>163.66666666666666</ele><time>2026-03-28T14:08:11Z</time></trkpt><trkpt lat="43.214476389907404" lon="11.43232471551122"><ele>164.0</ele><time>2026-03-28T14:08:12Z</time></trkpt><trkpt lat="43.21464387197632" lon="11.432421768454292"><ele>164.0</ele><time>2026-03-28T14:08:13Z</time></trkpt><trkpt lat="43.214797533207935" lon="11.432515701671937"><ele>164.0</ele><time>2026-03-28T14:08:14Z</time></trkpt><trkpt lat="43.21494023856389" lon="11.432587393754266"><ele>164.0</ele><time>2026-03-28T14:08:15Z</time></trkpt><trkpt lat="43.215070088605835" lon="11.432653918036836"><ele>163.39999999999998</ele><time>2026-03-28T14:08:16Z</time></trkpt><trkpt lat="43.215182346435405" lon="11.43270229408734"><ele>162.8</ele><time>2026-03-28T14:08:17Z</time></trkpt><trkpt lat="43.21526678618341" lon="11.432761251401677"><ele>162.2</ele><time>2026-03-28T14:08:18Z</time></trkpt><trkpt lat="43.21533043979278" lon="11.43285598072539"><ele>161.60000000000002</ele><time>2026-03-28T14:08:19Z</time></trkpt><trkpt lat="43.21537463938923" lon="11.432986171907814"><ele>161.0</ele><time>2026-03-28T14:08:20Z</time></trkpt><trkpt lat="43.21541457938189" lon="11.433129802212562"><ele>160.8</ele><time>2026-03-28T14:08:21Z</time></trkpt><trkpt lat="43.21546744875258" lon="11.433265312126414"><ele>160.60000000000002</ele><time>2026-03-28T14:08:22Z</time></trkpt><trkpt lat="43.21554062101113" lon="11.433371486622967"><ele>160.4</ele><time>2026-03-28T14:08:23Z</time></trkpt><trkpt lat="43.21563608677421" lon="11.433428662200747"><ele>160.2</ele><time>2026-03-28T14:08:24Z</time></trkpt><trkpt lat="43.21574083111117" lon="11.433441139918255"><ele>160.0</ele><time>2026-03-28T14:08:25Z</time></trkpt><trkpt lat="43.21585278081438" lon="11.433418495880028"><ele>160.0</ele><time>2026-03-28T14:08:26Z</time></trkpt><trkpt lat="43.215960517690604" lon="11.433366597904346"><ele>160.0</ele><time>2026-03-28T14:08:27Z</time></trkpt><trkpt lat="43.21605726097903" lon="11.433295958811396"><ele>160.0</ele><time>2026-03-28T14:08:28Z</time></trkpt><trkpt lat="43.21618573494833" lon="11.433336252775158"><ele>160.0</ele><time>2026-03-28T14:08:29Z</time></trkpt><trkpt lat="43.21630994893218" lon="11.433412520608831"><ele>160.0</ele><time>2026-03-28T14:08:30Z</time></trkpt><trkpt lat="43.216458442248374" lon="11.433502128240427"><ele>160.0</ele><time>2026-03-28T14:08:31Z</time></trkpt><trkpt lat="43.21663991570436" lon="11.433564381933119"><ele>160.0</ele><time>2026-03-28T14:08:32Z</time></trkpt><trkpt lat="43.21683795753142" lon="11.433606681716421"><ele>159.66666666666669</ele><time>2026-03-28T14:08:33Z</time></trkpt><trkpt lat="43.21703409498535" lon="11.433605184954093"><ele>159.33333333333334</ele><time>2026-03-28T14:08:34Z</time></trkpt><trkpt lat="43.217220772334244" lon="11.433551249991751"><ele>159.0</ele><time>2026-03-28T14:08:35Z</time></trkpt><trkpt lat="43.21741570467361" lon="11.433447680270472"><ele>158.5</ele><time>2026-03-28T14:08:36Z</time></trkpt><trkpt lat="43.21762056571442" lon="11.433313814128333"><ele>158.0</ele><time>2026-03-28T14:08:37Z</time></trkpt><trkpt lat="43.21783607109434" lon="11.433178139106356"><ele>158.0</ele><time>2026-03-28T14:08:38Z</time></trkpt><trkpt lat="43.218048803597156" lon="11.4330211222584"><ele>158.0</ele><time>2026-03-28T14:08:39Z</time></trkpt><trkpt lat="43.218263902355254" lon="11.432862358891391"><ele>158.5</ele><time>2026-03-28T14:08:40Z</time></trkpt><trkpt lat="43.21846101994634" lon="11.432699568424578"><ele>159.0</ele><time>2026-03-28T14:08:41Z</time></trkpt><trkpt lat="43.218673360072884" lon="11.4325600001766"><ele>159.0</ele><time>2026-03-28T14:08:42Z</time></trkpt><trkpt lat="43.218881462410984" lon="11.432407846666777"><ele>159.0</ele><time>2026-03-28T14:08:43Z</time></trkpt><trkpt lat="43.21908884414435" lon="11.43225148492883"><ele>159.5</ele><time>2026-03-28T14:08:44Z</time></trkpt><trkpt lat="43.21929986453147" lon="11.432094317708938"><ele>160.0</ele><time>2026-03-28T14:08:45Z</time></trkpt><trkpt lat="43.21951364362653" lon="11.431936037210596"><ele>160.0</ele><time>2026-03-28T14:08:46Z</time></trkpt><trkpt lat="43.21972878033847" lon="11.431778776836582"><ele>160.0</ele><time>2026-03-28T14:08:47Z</time></trkpt><trkpt lat="43.219945564924295" lon="11.431622604866783"><ele>159.0</ele><time>2026-03-28T14:08:48Z</time></trkpt><trkpt lat="43.220159750539054" lon="11.431466516617892"><ele>158.0</ele><time>2026-03-28T14:08:49Z</time></trkpt><trkpt lat="43.220370805495385" lon="11.4313077242629"><ele>158.0</ele><time>2026-03-28T14:08:50Z</time></trkpt><trkpt lat="43.22057997183265" lon="11.43114599769869"><ele>158.0</ele><time>2026-03-28T14:08:51Z</time></trkpt><trkpt lat="43.22079104062156" lon="11.430986668528233"><ele>158.0</ele><time>2026-03-28T14:08:52Z</time></trkpt><trkpt lat="43.2210023752365" lon="11.430831050172545"><ele>158.0</ele><time>2026-03-28T14:08:53Z</time></trkpt><trkpt lat="43.221216120785165" lon="11.43067995032771"><ele>158.0</ele><time>2026-03-28T14:08:54Z</time></trkpt><trkpt lat="43.221433225076275" lon="11.430527706721838"><ele>158.0</ele><time>2026-03-28T14:08:55Z</time></trkpt><trkpt lat="43.22164731624594" lon="11.430373854266936"><ele>158.5</ele><time>2026-03-28T14:08:56Z</time></trkpt><trkpt lat="43.221859671639834" lon="11.430217890993498"><ele>159.0</ele><time>2026-03-28T14:08:57Z</time></trkpt><trkpt lat="43.222065854604885" lon="11.430053901770489"><ele>159.0</ele><time>2026-03-28T14:08:58Z</time></trkpt><trkpt lat="43.222275335699166" lon="11.429882070561295"><ele>159.0</ele><time>2026-03-28T14:08:59Z</time></trkpt><trkpt lat="43.22248306640111" lon="11.429699469656645"><ele>160.0</ele><time>2026-03-28T14:09:00Z</time></trkpt><trkpt lat="43.22268819773072" lon="11.429511419381136"><ele>161.0</ele><time>2026-03-28T14:09:01Z</time></trkpt><trkpt lat="43.22289153542564" lon="11.429320982493701"><ele>161.0</ele><time>2026-03-28T14:09:02Z</time></trkpt><trkpt lat="43.223090325755294" lon="11.429128275469424"><ele>161.0</ele><time>2026-03-28T14:09:03Z</time></trkpt><trkpt lat="43.22328845619038" lon="11.428934682953036"><ele>160.0</ele><time>2026-03-28T14:09:04Z</time></trkpt><trkpt lat="43.223480721932226" lon="11.428742016379987"><ele>159.0</ele><time>2026-03-28T14:09:05Z</time></trkpt><trkpt lat="43.22367307466186" lon="11.42854413493876"><ele>159.0</ele><time>2026-03-28T14:09:06Z</time></trkpt><trkpt lat="43.22386440261898" lon="11.428343732151877"><ele>159.0</ele><time>2026-03-28T14:09:07Z</time></trkpt><trkpt lat="43.22405072042296" lon="11.42814036431084"><ele>158.5</ele><time>2026-03-28T14:09:08Z</time></trkpt><trkpt lat="43.22424203298928" lon="11.427937280680666"><ele>158.0</ele><time>2026-03-28T14:09:09Z</time></trkpt><trkpt lat="43.2244394502348" lon="11.427742618114907"><ele>158.0</ele><time>2026-03-28T14:09:10Z</time></trkpt><trkpt lat="43.22464504232475" lon="11.427562396290815"><ele>158.0</ele><time>2026-03-28T14:09:11Z</time></trkpt><trkpt lat="43.22485218011484" lon="11.427391490498035"><ele>158.5</ele><time>2026-03-28T14:09:12Z</time></trkpt><trkpt lat="43.225060042776974" lon="11.427234994855644"><ele>159.0</ele><time>2026-03-28T14:09:13Z</time></trkpt><trkpt lat="43.225274172966365" lon="11.427090935217054"><ele>159.5</ele><time>2026-03-28T14:09:14Z</time></trkpt><trkpt lat="43.2254935849625" lon="11.426956036475604"><ele>160.0</ele><time>2026-03-28T14:09:15Z</time></trkpt><trkpt lat="43.22572046386743" lon="11.426844494372922"><ele>159.0</ele><time>2026-03-28T14:09:16Z</time></trkpt><trkpt lat="43.22595131681273" lon="11.426746747714082"><ele>158.0</ele><time>2026-03-28T14:09:17Z</time></trkpt><trkpt lat="43.226187042713136" lon="11.426671236842347"><ele>158.0</ele><time>2026-03-28T14:09:18Z</time></trkpt><trkpt lat="43.226422826875776" lon="11.42660717654533"><ele>158.0</ele><time>2026-03-28T14:09:19Z</time></trkpt><trkpt lat="43.22665842503105" lon="11.426547623951624"><ele>158.0</ele><time>2026-03-28T14:09:20Z</time></trkpt><trkpt lat="43.2268984699104" lon="11.426483478455255"><ele>158.0</ele><time>2026-03-28T14:09:21Z</time></trkpt><trkpt lat="43.227139289393826" lon="11.426415585923843"><ele>158.5</ele><time>2026-03-28T14:09:22Z</time></trkpt><trkpt lat="43.22737917766859" lon="11.426342849467991"><ele>159.0</ele><time>2026-03-28T14:09:23Z</time></trkpt><trkpt lat="43.22761905327816" lon="11.426268725340742"><ele>159.5</ele><time>2026-03-28T14:09:24Z</time></trkpt><trkpt lat="43.227862847750984" lon="11.42620047007938"><ele>160.0</ele><time>2026-03-28T14:09:25Z</time></trkpt><trkpt lat="43.22809625099814" lon="11.426134175998369"><ele>161.0</ele><time>2026-03-28T14:09:26Z</time></trkpt><trkpt lat="43.2283252893755" lon="11.426057284939867"><ele>162.0</ele><time>2026-03-28T14:09:27Z</time></trkpt><trkpt lat="43.22855500372143" lon="11.425959731647954"><ele>162.0</ele><time>2026-03-28T14:09:28Z</time></trkpt><trkpt lat="43.22878119928916" lon="11.42585346337227"><ele>162.0</ele><time>2026-03-28T14:09:29Z</time></trkpt><trkpt lat="43.22900450632312" lon="11.425737596401914"><ele>162.0</ele><time>2026-03-28T14:09:30Z</time></trkpt><trkpt lat="43.22922863318849" lon="11.42560574691947"><ele>162.0</ele><time>2026-03-28T14:09:31Z</time></trkpt><trkpt lat="43.229450267965134" lon="11.425464203376196"><ele>162.0</ele><time>2026-03-28T14:09:32Z</time></trkpt><trkpt lat="43.229678455535776" lon="11.425347733782624"><ele>162.0</ele><time>2026-03-28T14:09:33Z</time></trkpt><trkpt lat="43.22989189330455" lon="11.425162419922826"><ele>162.0</ele><time>2026-03-28T14:09:34Z</time></trkpt><trkpt lat="43.23011420399651" lon="11.425008185684046"><ele>162.0</ele><time>2026-03-28T14:09:35Z</time></trkpt><trkpt lat="43.23033551164629" lon="11.424845811289945"><ele>162.0</ele><time>2026-03-28T14:09:36Z</time></trkpt><trkpt lat="43.230562505792776" lon="11.424686029643127"><ele>162.0</ele><time>2026-03-28T14:09:37Z</time></trkpt><trkpt lat="43.23079106920941" lon="11.424529441498455"><ele>162.0</ele><time>2026-03-28T14:09:38Z</time></trkpt><trkpt lat="43.23102381457363" lon="11.424372795649571"><ele>162.0</ele><time>2026-03-28T14:09:39Z</time></trkpt><trkpt lat="43.23125545324167" lon="11.424219650526142"><ele>161.0</ele><time>2026-03-28T14:09:40Z</time></trkpt><trkpt lat="43.23148091440844" lon="11.42406148861932"><ele>160.0</ele><time>2026-03-28T14:09:41Z</time></trkpt><trkpt lat="43.23170722987433" lon="11.423900620024218"><ele>161.0</ele><time>2026-03-28T14:09:42Z</time></trkpt><trkpt lat="43.23193103960445" lon="11.42374091144982"><ele>162.0</ele><time>2026-03-28T14:09:43Z</time></trkpt><trkpt lat="43.23214916146645" lon="11.423577525394263"><ele>162.0</ele><time>2026-03-28T14:09:44Z</time></trkpt><trkpt lat="43.23235815005254" lon="11.423403036134705"><ele>162.0</ele><time>2026-03-28T14:09:45Z</time></trkpt><trkpt lat="43.23256261014126" lon="11.423208599245003"><ele>162.0</ele><time>2026-03-28T14:09:46Z</time></trkpt><trkpt lat="43.232762863913685" lon="11.422995195290541"><ele>162.0</ele><time>2026-03-28T14:09:47Z</time></trkpt><trkpt lat="43.23296075064451" lon="11.422765967005196"><ele>163.0</ele><time>2026-03-28T14:09:48Z</time></trkpt><trkpt lat="43.23315474279364" lon="11.422519206931607"><ele>164.0</ele><time>2026-03-28T14:09:49Z</time></trkpt><trkpt lat="43.23333821681797" lon="11.422262110085363"><ele>163.5</ele><time>2026-03-28T14:09:50Z</time></trkpt><trkpt lat="43.23351605873578" lon="11.421990820399817"><ele>163.0</ele><time>2026-03-28T14:09:51Z</time></trkpt><trkpt lat="43.2336944391936" lon="11.421709140747133"><ele>163.0</ele><time>2026-03-28T14:09:52Z</time></trkpt><trkpt lat="43.23387008346948" lon="11.421435011267906"><ele>163.0</ele><time>2026-03-28T14:09:53Z</time></trkpt><trkpt lat="43.23403741462091" lon="11.421171119870664"><ele>163.0</ele><time>2026-03-28T14:09:54Z</time></trkpt><trkpt lat="43.234204625288946" lon="11.420914759438261"><ele>163.0</ele><time>2026-03-28T14:09:55Z</time></trkpt><trkpt lat="43.234380358321" lon="11.420669652842896"><ele>163.5</ele><time>2026-03-28T14:09:56Z</time></trkpt><trkpt lat="43.23456180315543" lon="11.420430758447148"><ele>164.0</ele><time>2026-03-28T14:09:57Z</time></trkpt><trkpt lat="43.23475027676905" lon="11.420199244174361"><ele>163.0</ele><time>2026-03-28T14:09:58Z</time></trkpt><trkpt lat="43.234948818551814" lon="11.419975816690167"><ele>162.0</ele><time>2026-03-28T14:09:59Z</time></trkpt><trkpt lat="43.235157867137495" lon="11.419765133312472"><ele>163.0</ele><time>2026-03-28T14:10:00Z</time></trkpt><trkpt lat="43.23537928904861" lon="11.419567153414729"><ele>164.0</ele><time>2026-03-28T14:10:01Z</time></trkpt><trkpt lat="43.235602908014656" lon="11.41937852979833"><ele>163.5</ele><time>2026-03-28T14:10:02Z</time></trkpt><trkpt lat="43.235824490380054" lon="11.419197475079956"><ele>163.0</ele><time>2026-03-28T14:10:03Z</time></trkpt><trkpt lat="43.236046593049984" lon="11.41901840635195"><ele>163.0</ele><time>2026-03-28T14:10:04Z</time></trkpt><trkpt lat="43.23626815358542" lon="11.418839471499266"><ele>163.0</ele><time>2026-03-28T14:10:05Z</time></trkpt><trkpt lat="43.23648973291947" lon="11.418659109695174"><ele>161.5</ele><time>2026-03-28T14:10:06Z</time></trkpt><trkpt lat="43.23670825729452" lon="11.41846630916778"><ele>160.0</ele><time>2026-03-28T14:10:07Z</time></trkpt><trkpt lat="43.23692198807612" lon="11.418263491615164"><ele>160.0</ele><time>2026-03-28T14:10:08Z</time></trkpt><trkpt lat="43.237127730314604" lon="11.418047159983164"><ele>160.0</ele><time>2026-03-28T14:10:09Z</time></trkpt><trkpt lat="43.23732626793027" lon="11.417815115996383"><ele>161.5</ele><time>2026-03-28T14:10:10Z</time></trkpt><trkpt lat="43.23751695007054" lon="11.417571011123835"><ele>163.0</ele><time>2026-03-28T14:10:11Z</time></trkpt><trkpt lat="43.237698306863216" lon="11.41731647829093"><ele>162.5</ele><time>2026-03-28T14:10:12Z</time></trkpt><trkpt lat="43.23787805123533" lon="11.417056176030142"><ele>162.0</ele><time>2026-03-28T14:10:13Z</time></trkpt><trkpt lat="43.238060591372815" lon="11.416795268262128"><ele>162.0</ele><time>2026-03-28T14:10:14Z</time></trkpt><trkpt lat="43.23824217940122" lon="11.416536416947284"><ele>162.0</ele><time>2026-03-28T14:10:15Z</time></trkpt><trkpt lat="43.238420884702805" lon="11.416278816415389"><ele>163.0</ele><time>2026-03-28T14:10:16Z</time></trkpt><trkpt lat="43.23859887637372" lon="11.416018978871577"><ele>164.0</ele><time>2026-03-28T14:10:17Z</time></trkpt><trkpt lat="43.23877413465907" lon="11.415760357231374"><ele>164.0</ele><time>2026-03-28T14:10:18Z</time></trkpt><trkpt lat="43.238949694237" lon="11.415495789918166"><ele>164.0</ele><time>2026-03-28T14:10:19Z</time></trkpt><trkpt lat="43.23912680437747" lon="11.415235498456184"><ele>163.5</ele><time>2026-03-28T14:10:20Z</time></trkpt><trkpt lat="43.23930193533266" lon="11.414980980395814"><ele>163.0</ele><time>2026-03-28T14:10:21Z</time></trkpt><trkpt lat="43.23947642476204" lon="11.414716985520764"><ele>163.5</ele><time>2026-03-28T14:10:22Z</time></trkpt><trkpt lat="43.239651623022006" lon="11.414452235725205"><ele>164.0</ele><time>2026-03-28T14:10:23Z</time></trkpt><trkpt lat="43.23982712044116" lon="11.414191195894432"><ele>163.0</ele><time>2026-03-28T14:10:24Z</time></trkpt><trkpt lat="43.2400035055085" lon="11.41393022497481"><ele>162.0</ele><time>2026-03-28T14:10:25Z</time></trkpt><trkpt lat="43.24017896094512" lon="11.413672143467616"><ele>162.0</ele><time>2026-03-28T14:10:26Z</time></trkpt><trkpt lat="43.24035039414422" lon="11.413416991879116"><ele>162.0</ele><time>2026-03-28T14:10:27Z</time></trkpt><trkpt lat="43.24051690510153" lon="11.413164447677163"><ele>161.5</ele><time>2026-03-28T14:10:28Z</time></trkpt><trkpt lat="43.24068049247594" lon="11.412914400599556"><ele>161.0</ele><time>2026-03-28T14:10:29Z</time></trkpt><trkpt lat="43.24084585966885" lon="11.41266537293248"><ele>161.0</ele><time>2026-03-28T14:10:30Z</time></trkpt><trkpt lat="43.24101201343212" lon="11.41241704066843"><ele>161.0</ele><time>2026-03-28T14:10:31Z</time></trkpt><trkpt lat="43.24117869455869" lon="11.412172095634615"><ele>161.0</ele><time>2026-03-28T14:10:32Z</time></trkpt><trkpt lat="43.24134567677867" lon="11.411927224130187"><ele>161.0</ele><time>2026-03-28T14:10:33Z</time></trkpt><trkpt lat="43.241505740596125" lon="11.411686588721384"><ele>161.0</ele><time>2026-03-28T14:10:34Z</time></trkpt><trkpt lat="43.24167260099786" lon="11.411450703219467"><ele>161.0</ele><time>2026-03-28T14:10:35Z</time></trkpt><trkpt lat="43.24184850167124" lon="11.411223355323264"><ele>162.5</ele><time>2026-03-28T14:10:36Z</time></trkpt><trkpt lat="43.24203140289345" lon="11.411004996245873"><ele>164.0</ele><time>2026-03-28T14:10:37Z</time></trkpt><trkpt lat="43.24222024825877" lon="11.410788307800777"><ele>164.0</ele><time>2026-03-28T14:10:38Z</time></trkpt><trkpt lat="43.24241179163439" lon="11.41058532791462"><ele>164.0</ele><time>2026-03-28T14:10:39Z</time></trkpt><trkpt lat="43.24260693388723" lon="11.410406863061823"><ele>164.0</ele><time>2026-03-28T14:10:40Z</time></trkpt><trkpt lat="43.24281782334569" lon="11.410243457743396"><ele>164.0</ele><time>2026-03-28T14:10:41Z</time></trkpt><trkpt lat="43.24303692677885" lon="11.410086859681735"><ele>163.5</ele><time>2026-03-28T14:10:42Z</time></trkpt><trkpt lat="43.24324771441583" lon="11.409940500293898"><ele>163.0</ele><time>2026-03-28T14:10:43Z</time></trkpt><trkpt lat="43.243455253236434" lon="11.409794593733203"><ele>163.5</ele><time>2026-03-28T14:10:44Z</time></trkpt><trkpt lat="43.243671073345986" lon="11.409648000565948"><ele>164.0</ele><time>2026-03-28T14:10:45Z</time></trkpt><trkpt lat="43.24389428058187" lon="11.409514557050493"><ele>163.0</ele><time>2026-03-28T14:10:46Z</time></trkpt><trkpt lat="43.24412340946293" lon="11.409393831327405"><ele>162.0</ele><time>2026-03-28T14:10:47Z</time></trkpt><trkpt lat="43.244333069857774" lon="11.409281921371337"><ele>162.0</ele><time>2026-03-28T14:10:48Z</time></trkpt><trkpt lat="43.24452599936251" lon="11.409169748458106"><ele>162.0</ele><time>2026-03-28T14:10:49Z</time></trkpt><trkpt lat="43.244708711010176" lon="11.409084963725324"><ele>162.0</ele><time>2026-03-28T14:10:50Z</time></trkpt><trkpt lat="43.244890322250505" lon="11.409035917761033"><ele>162.0</ele><time>2026-03-28T14:10:51Z</time></trkpt><trkpt lat="43.24507903569842" lon="11.409002530732305"><ele>162.0</ele><time>2026-03-28T14:10:52Z</time></trkpt><trkpt lat="43.24526936650556" lon="11.40899830402132"><ele>162.0</ele><time>2026-03-28T14:10:53Z</time></trkpt><trkpt lat="43.24546760610475" lon="11.409021276836684"><ele>162.33333333333334</ele><time>2026-03-28T14:10:54Z</time></trkpt><trkpt lat="43.24565769862256" lon="11.409059682923743"><ele>162.66666666666669</ele><time>2026-03-28T14:10:55Z</time></trkpt><trkpt lat="43.24582912678352" lon="11.409137324980144"><ele>163.0</ele><time>2026-03-28T14:10:56Z</time></trkpt><trkpt lat="43.24598979442827" lon="11.409223986560573"><ele>163.0</ele><time>2026-03-28T14:10:57Z</time></trkpt><trkpt lat="43.24614406767857" lon="11.409289734628137"><ele>163.0</ele><time>2026-03-28T14:10:58Z</time></trkpt><trkpt lat="43.246298429682945" lon="11.409301438697556"><ele>163.0</ele><time>2026-03-28T14:10:59Z</time></trkpt><trkpt lat="43.24643867891767" lon="11.409239623205696"><ele>163.0</ele><time>2026-03-28T14:11:00Z</time></trkpt><trkpt lat="43.24656527774092" lon="11.409135637154584"><ele>163.0</ele><time>2026-03-28T14:11:01Z</time></trkpt><trkpt lat="43.246666779686244" lon="11.408990744325797"><ele>163.0</ele><time>2026-03-28T14:11:02Z</time></trkpt><trkpt lat="43.24672358220346" lon="11.408807207718617"><ele>163.0</ele><time>2026-03-28T14:11:03Z</time></trkpt><trkpt lat="43.246739202498134" lon="11.408606744020425"><ele>163.0</ele><time>2026-03-28T14:11:04Z</time></trkpt><trkpt lat="43.24671983693755" lon="11.408401734463434"><ele>163.0</ele><time>2026-03-28T14:11:05Z</time></trkpt><trkpt lat="43.24665641307092" lon="11.408174343500196"><ele>163.0</ele><time>2026-03-28T14:11:06Z</time></trkpt><trkpt lat="43.246575554330754" lon="11.407941026918047"><ele>163.0</ele><time>2026-03-28T14:11:07Z</time></trkpt><trkpt lat="43.24648443597372" lon="11.40770316632775"><ele>163.0</ele><time>2026-03-28T14:11:08Z</time></trkpt><trkpt lat="43.24640236259054" lon="11.407494382976777"><ele>163.0</ele><time>2026-03-28T14:11:09Z</time></trkpt><trkpt lat="43.246325525090725" lon="11.407290143006795"><ele>163.5</ele><time>2026-03-28T14:11:10Z</time></trkpt><trkpt lat="43.246257181378496" lon="11.40709692244224"><ele>164.0</ele><time>2026-03-28T14:11:11Z</time></trkpt><trkpt lat="43.24620167350557" lon="11.406927525228056"><ele>164.5</ele><time>2026-03-28T14:11:12Z</time></trkpt><trkpt lat="43.246164291735" lon="11.406782245751481"><ele>165.0</ele><time>2026-03-28T14:11:13Z</time></trkpt><trkpt lat="43.24614203937592" lon="11.406649143004154"><ele>165.0</ele><time>2026-03-28T14:11:14Z</time></trkpt><trkpt lat="43.24614539498181" lon="11.406538829527378"><ele>165.0</ele><time>2026-03-28T14:11:15Z</time></trkpt><trkpt lat="43.24616655348125" lon="11.406436301016898"><ele>165.0</ele><time>2026-03-28T14:11:16Z</time></trkpt><trkpt lat="43.246216578691254" lon="11.40634404132501"><ele>165.0</ele><time>2026-03-28T14:11:17Z</time></trkpt><trkpt lat="43.24628490286249" lon="11.406259658569486"><ele>165.0</ele><time>2026-03-28T14:11:18Z</time></trkpt><trkpt lat="43.24637179662413" lon="11.406181076172864"><ele>165.0</ele><time>2026-03-28T14:11:19Z</time></trkpt><trkpt lat="43.24646991875423" lon="11.406099729219914"><ele>165.66666666666666</ele><time>2026-03-28T14:11:20Z</time></trkpt><trkpt lat="43.246577804238854" lon="11.40599597777031"><ele>166.33333333333331</ele><time>2026-03-28T14:11:21Z</time></trkpt><trkpt lat="43.246701986281664" lon="11.405878476940348"><ele>167.0</ele><time>2026-03-28T14:11:22Z</time></trkpt><trkpt lat="43.24685009022813" lon="11.405744565376787"><ele>167.0</ele><time>2026-03-28T14:11:23Z</time></trkpt><trkpt lat="43.24699451232685" lon="11.405616025928019"><ele>167.0</ele><time>2026-03-28T14:11:24Z</time></trkpt><trkpt lat="43.24711661490903" lon="11.405504522972667"><ele>167.0</ele><time>2026-03-28T14:11:25Z</time></trkpt><trkpt lat="43.24722810737555" lon="11.405395630854812"><ele>167.25</ele><time>2026-03-28T14:11:26Z</time></trkpt><trkpt lat="43.24733515920852" lon="11.405288375133926"><ele>167.5</ele><time>2026-03-28T14:11:27Z</time></trkpt><trkpt lat="43.24744318534847" lon="11.405177599795262"><ele>167.75</ele><time>2026-03-28T14:11:28Z</time></trkpt><trkpt lat="43.247548917790446" lon="11.405067442813266"><ele>168.0</ele><time>2026-03-28T14:11:29Z</time></trkpt><trkpt lat="43.247658950970916" lon="11.40497081050575"><ele>168.0</ele><time>2026-03-28T14:11:30Z</time></trkpt><trkpt lat="43.24775296656287" lon="11.404850543442977"><ele>168.0</ele><time>2026-03-28T14:11:31Z</time></trkpt><trkpt lat="43.24783796648621" lon="11.404725833315725"><ele>168.0</ele><time>2026-03-28T14:11:32Z</time></trkpt><trkpt lat="43.2479032356051" lon="11.404583947545948"><ele>168.0</ele><time>2026-03-28T14:11:33Z</time></trkpt><trkpt lat="43.247972123220606" lon="11.404445213970169"><ele>168.0</ele><time>2026-03-28T14:11:34Z</time></trkpt><trkpt lat="43.24809033550616" lon="11.404342596963637"><ele>168.0</ele><time>2026-03-28T14:11:35Z</time></trkpt><trkpt lat="43.24810492713134" lon="11.404137662313293"><ele>168.0</ele><time>2026-03-28T14:11:36Z</time></trkpt><trkpt lat="43.248166317030176" lon="11.403979231211288"><ele>168.0</ele><time>2026-03-28T14:11:37Z</time></trkpt><trkpt lat="43.24822298855222" lon="11.403824578459885"><ele>168.25</ele><time>2026-03-28T14:11:38Z</time></trkpt><trkpt lat="43.24827687094413" lon="11.403667498975992"><ele>168.5</ele><time>2026-03-28T14:11:39Z</time></trkpt><trkpt lat="43.248338217358715" lon="11.403507224166663"><ele>168.75</ele><time>2026-03-28T14:11:40Z</time></trkpt><trkpt lat="43.248402874226606" lon="11.403336951336872"><ele>169.0</ele><time>2026-03-28T14:11:41Z</time></trkpt><trkpt lat="43.248470285183714" lon="11.403163023688364"><ele>169.33333333333334</ele><time>2026-03-28T14:11:42Z</time></trkpt><trkpt lat="43.248541205986534" lon="11.402988689640154"><ele>169.66666666666666</ele><time>2026-03-28T14:11:43Z</time></trkpt><trkpt lat="43.2486096453623" lon="11.402807973390537"><ele>170.0</ele><time>2026-03-28T14:11:44Z</time></trkpt><trkpt lat="43.24868975315597" lon="11.402622208263784"><ele>170.0</ele><time>2026-03-28T14:11:45Z</time></trkpt><trkpt lat="43.2487749182696" lon="11.402434823772298"><ele>170.0</ele><time>2026-03-28T14:11:46Z</time></trkpt><trkpt lat="43.24886826975989" lon="11.402247280456864"><ele>170.0</ele><time>2026-03-28T14:11:47Z</time></trkpt><trkpt lat="43.24896971349761" lon="11.402057066844264"><ele>169.0</ele><time>2026-03-28T14:11:48Z</time></trkpt><trkpt lat="43.249077960663215" lon="11.401864344276975"><ele>168.0</ele><time>2026-03-28T14:11:49Z</time></trkpt><trkpt lat="43.24919136739882" lon="11.40166313484511"><ele>167.0</ele><time>2026-03-28T14:11:50Z</time></trkpt><trkpt lat="43.24929909356309" lon="11.401464890478493"><ele>167.33333333333331</ele><time>2026-03-28T14:11:51Z</time></trkpt><trkpt lat="43.249401968003276" lon="11.401276328318007"><ele>167.66666666666666</ele><time>2026-03-28T14:11:52Z</time></trkpt><trkpt lat="43.249503166708195" lon="11.401099578539617"><ele>168.0</ele><time>2026-03-28T14:11:53Z</time></trkpt><trkpt lat="43.24960340911766" lon="11.400934254441148"><ele>168.0</ele><time>2026-03-28T14:11:54Z</time></trkpt><trkpt lat="43.24969684712414" lon="11.400771956583377"><ele>168.0</ele><time>2026-03-28T14:11:55Z</time></trkpt><trkpt lat="43.24978741749851" lon="11.400609678006273"><ele>168.0</ele><time>2026-03-28T14:11:56Z</time></trkpt><trkpt lat="43.24987995076954" lon="11.400449028102623"><ele>168.0</ele><time>2026-03-28T14:11:57Z</time></trkpt><trkpt lat="43.249986390315854" lon="11.400304032987993"><ele>168.0</ele><time>2026-03-28T14:11:58Z</time></trkpt><trkpt lat="43.250078655764845" lon="11.4001356342794"><ele>168.0</ele><time>2026-03-28T14:11:59Z</time></trkpt><trkpt lat="43.25016341363883" lon="11.399959643989279"><ele>168.0</ele><time>2026-03-28T14:12:00Z</time></trkpt><trkpt lat="43.25023774810757" lon="11.399772858038212"><ele>168.66666666666666</ele><time>2026-03-28T14:12:01Z</time></trkpt><trkpt lat="43.250321373210866" lon="11.39959710485923"><ele>169.33333333333331</ele><time>2026-03-28T14:12:02Z</time></trkpt><trkpt lat="43.25039918484926" lon="11.399417375194616"><ele>170.0</ele><time>2026-03-28T14:12:03Z</time></trkpt><trkpt lat="43.250473130368206" lon="11.399240524736452"><ele>170.0</ele><time>2026-03-28T14:12:04Z</time></trkpt><trkpt lat="43.25053990237172" lon="11.399061920370531"><ele>170.0</ele><time>2026-03-28T14:12:05Z</time></trkpt><trkpt lat="43.250608953013106" lon="11.398878630040443"><ele>170.0</ele><time>2026-03-28T14:12:06Z</time></trkpt><trkpt lat="43.25067846217952" lon="11.398699870218211"><ele>170.0</ele><time>2026-03-28T14:12:07Z</time></trkpt><trkpt lat="43.250743556656516" lon="11.398519817359311"><ele>170.0</ele><time>2026-03-28T14:12:08Z</time></trkpt><trkpt lat="43.250807373763756" lon="11.398339109886464"><ele>170.0</ele><time>2026-03-28T14:12:09Z</time></trkpt><trkpt lat="43.25087151425667" lon="11.398160076033005"><ele>170.0</ele><time>2026-03-28T14:12:10Z</time></trkpt><trkpt lat="43.25094242252275" lon="11.397986119004749"><ele>170.0</ele><time>2026-03-28T14:12:11Z</time></trkpt><trkpt lat="43.251006060315014" lon="11.397805753009054"><ele>170.25</ele><time>2026-03-28T14:12:12Z</time></trkpt><trkpt lat="43.251072066437445" lon="11.397621597536784"><ele>170.5</ele><time>2026-03-28T14:12:13Z</time></trkpt><trkpt lat="43.25114158120935" lon="11.397439884814034"><ele>170.75</ele><time>2026-03-28T14:12:14Z</time></trkpt><trkpt lat="43.251212734731496" lon="11.397260411213058"><ele>171.0</ele><time>2026-03-28T14:12:15Z</time></trkpt><trkpt lat="43.25128031407574" lon="11.397079662644623"><ele>171.0</ele><time>2026-03-28T14:12:16Z</time></trkpt><trkpt lat="43.25134381972821" lon="11.396893880074579"><ele>171.0</ele><time>2026-03-28T14:12:17Z</time></trkpt><trkpt lat="43.25140566398525" lon="11.396714130763169"><ele>171.0</ele><time>2026-03-28T14:12:18Z</time></trkpt><trkpt lat="43.25146864283353" lon="11.396542898755355"><ele>171.0</ele><time>2026-03-28T14:12:19Z</time></trkpt><trkpt lat="43.251525952634076" lon="11.39639069123895"><ele>170.75</ele><time>2026-03-28T14:12:20Z</time></trkpt><trkpt lat="43.25158373792446" lon="11.39624226189865"><ele>170.5</ele><time>2026-03-28T14:12:21Z</time></trkpt><trkpt lat="43.2516420316314" lon="11.396094246132998"><ele>170.25</ele><time>2026-03-28T14:12:22Z</time></trkpt><trkpt lat="43.25170421826581" lon="11.39594547271413"><ele>170.0</ele><time>2026-03-28T14:12:23Z</time></trkpt><trkpt lat="43.25177369767582" lon="11.395797745384327"><ele>170.0</ele><time>2026-03-28T14:12:24Z</time></trkpt><trkpt lat="43.251844521684404" lon="11.395647971840107"><ele>170.0</ele><time>2026-03-28T14:12:25Z</time></trkpt><trkpt lat="43.25192272509748" lon="11.395500651762207"><ele>170.0</ele><time>2026-03-28T14:12:26Z</time></trkpt><trkpt lat="43.25200931990485" lon="11.395355486821204"><ele>170.0</ele><time>2026-03-28T14:12:27Z</time></trkpt><trkpt lat="43.25209816032201" lon="11.395214935566855"><ele>170.25</ele><time>2026-03-28T14:12:28Z</time></trkpt><trkpt lat="43.252189963421976" lon="11.395072259068487"><ele>170.5</ele><time>2026-03-28T14:12:29Z</time></trkpt><trkpt lat="43.25228594802268" lon="11.394931238416412"><ele>170.75</ele><time>2026-03-28T14:12:30Z</time></trkpt><trkpt lat="43.25237701585261" lon="11.394787546779728"><ele>171.0</ele><time>2026-03-28T14:12:31Z</time></trkpt><trkpt lat="43.25245913902361" lon="11.394643885708993"><ele>171.5</ele><time>2026-03-28T14:12:32Z</time></trkpt><trkpt lat="43.25253665975942" lon="11.394492936452506"><ele>172.0</ele><time>2026-03-28T14:12:33Z</time></trkpt><trkpt lat="43.25261412465663" lon="11.394339607595635"><ele>172.5</ele><time>2026-03-28T14:12:34Z</time></trkpt><trkpt lat="43.252694037609125" lon="11.394181388223004"><ele>173.0</ele><time>2026-03-28T14:12:35Z</time></trkpt><trkpt lat="43.252777463302934" lon="11.394024901969535"><ele>173.0</ele><time>2026-03-28T14:12:36Z</time></trkpt><trkpt lat="43.25287022064643" lon="11.393870307525567"><ele>173.0</ele><time>2026-03-28T14:12:37Z</time></trkpt><trkpt lat="43.25294728750883" lon="11.393691822933167"><ele>173.0</ele><time>2026-03-28T14:12:38Z</time></trkpt><trkpt lat="43.252993608906486" lon="11.393484181877838"><ele>172.33333333333331</ele><time>2026-03-28T14:12:39Z</time></trkpt><trkpt lat="43.2530576223858" lon="11.393286086339476"><ele>171.66666666666666</ele><time>2026-03-28T14:12:40Z</time></trkpt><trkpt lat="43.253122458317065" lon="11.393064896183118"><ele>171.0</ele><time>2026-03-28T14:12:41Z</time></trkpt><trkpt lat="43.25319799519321" lon="11.392853546290093"><ele>170.66666666666666</ele><time>2026-03-28T14:12:42Z</time></trkpt><trkpt lat="43.25331431831942" lon="11.392641423309067"><ele>170.33333333333331</ele><time>2026-03-28T14:12:43Z</time></trkpt><trkpt lat="43.253422129253345" lon="11.392362787926679"><ele>170.0</ele><time>2026-03-28T14:12:44Z</time></trkpt><trkpt lat="43.2535452479936" lon="11.392058357652695"><ele>169.66666666666666</ele><time>2026-03-28T14:12:45Z</time></trkpt><trkpt lat="43.25364921569821" lon="11.391792538600836"><ele>169.33333333333334</ele><time>2026-03-28T14:12:46Z</time></trkpt><trkpt lat="43.25374457116528" lon="11.391548980120303"><ele>169.0</ele><time>2026-03-28T14:12:47Z</time></trkpt><trkpt lat="43.25383918598027" lon="11.391304225780726"><ele>168.66666666666669</ele><time>2026-03-28T14:12:48Z</time></trkpt><trkpt lat="43.25393300539975" lon="11.391060358144053"><ele>168.33333333333334</ele><time>2026-03-28T14:12:49Z</time></trkpt><trkpt lat="43.2540346943133" lon="11.390808613286273"><ele>168.0</ele><time>2026-03-28T14:12:50Z</time></trkpt><trkpt lat="43.25413056535897" lon="11.390564644769084"><ele>168.66666666666666</ele><time>2026-03-28T14:12:51Z</time></trkpt><trkpt lat="43.25422087507748" lon="11.390328953862937"><ele>169.33333333333331</ele><time>2026-03-28T14:12:52Z</time></trkpt><trkpt lat="43.25431179227538" lon="11.390090949730418"><ele>170.0</ele><time>2026-03-28T14:12:53Z</time></trkpt><trkpt lat="43.25441247095591" lon="11.389845297503598"><ele>169.66666666666666</ele><time>2026-03-28T14:12:54Z</time></trkpt><trkpt lat="43.25450611841337" lon="11.389594826491738"><ele>169.33333333333334</ele><time>2026-03-28T14:12:55Z</time></trkpt><trkpt lat="43.2546002717136" lon="11.389336753014414"><ele>169.0</ele><time>2026-03-28T14:12:56Z</time></trkpt><trkpt lat="43.25469085510258" lon="11.389075723721874"><ele>169.0</ele><time>2026-03-28T14:12:57Z</time></trkpt><trkpt lat="43.25477539525678" lon="11.388802259299998"><ele>169.0</ele><time>2026-03-28T14:12:58Z</time></trkpt><trkpt lat="43.25484856526188" lon="11.388509978936483"><ele>169.0</ele><time>2026-03-28T14:12:59Z</time></trkpt><trkpt lat="43.25491353293643" lon="11.388200752906004"><ele>168.5</ele><time>2026-03-28T14:13:00Z</time></trkpt><trkpt lat="43.25497499781389" lon="11.387884286888605"><ele>168.0</ele><time>2026-03-28T14:13:01Z</time></trkpt><trkpt lat="43.25503637159897" lon="11.387580317987215"><ele>168.0</ele><time>2026-03-28T14:13:02Z</time></trkpt><trkpt lat="43.255095233522454" lon="11.387286714503476"><ele>168.0</ele><time>2026-03-28T14:13:03Z</time></trkpt><trkpt lat="43.25515095852287" lon="11.386991866033354"><ele>168.0</ele><time>2026-03-28T14:13:04Z</time></trkpt><trkpt lat="43.25520759216687" lon="11.386695972934861"><ele>169.0</ele><time>2026-03-28T14:13:05Z</time></trkpt><trkpt lat="43.25526833881536" lon="11.386396795750695"><ele>170.0</ele><time>2026-03-28T14:13:06Z</time></trkpt><trkpt lat="43.25532856556258" lon="11.386092287563688"><ele>171.0</ele><time>2026-03-28T14:13:07Z</time></trkpt><trkpt lat="43.255391499263354" lon="11.385792106720702"><ele>172.0</ele><time>2026-03-28T14:13:08Z</time></trkpt><trkpt lat="43.25545623398197" lon="11.3854933259835"><ele>172.0</ele><time>2026-03-28T14:13:09Z</time></trkpt><trkpt lat="43.25552455428346" lon="11.385189979816895"><ele>172.0</ele><time>2026-03-28T14:13:10Z</time></trkpt><trkpt lat="43.2555937063621" lon="11.384890501900014"><ele>171.0</ele><time>2026-03-28T14:13:11Z</time></trkpt><trkpt lat="43.25566496609986" lon="11.384585993598582"><ele>170.0</ele><time>2026-03-28T14:13:12Z</time></trkpt><trkpt lat="43.25573342772551" lon="11.384288065276227"><ele>170.0</ele><time>2026-03-28T14:13:13Z</time></trkpt><trkpt lat="43.255800271663965" lon="11.383999136858378"><ele>170.0</ele><time>2026-03-28T14:13:14Z</time></trkpt><trkpt lat="43.25586574190455" lon="11.383726581134745"><ele>170.0</ele><time>2026-03-28T14:13:15Z</time></trkpt><trkpt lat="43.25592819558448" lon="11.38346086005988"><ele>170.0</ele><time>2026-03-28T14:13:16Z</time></trkpt><trkpt lat="43.255991406663874" lon="11.383205547972711"><ele>170.0</ele><time>2026-03-28T14:13:17Z</time></trkpt><trkpt lat="43.256053398115995" lon="11.38297545465449"><ele>170.0</ele><time>2026-03-28T14:13:18Z</time></trkpt><trkpt lat="43.256119269121974" lon="11.382761213906742"><ele>170.66666666666666</ele><time>2026-03-28T14:13:19Z</time></trkpt><trkpt lat="43.256183229640456" lon="11.382547335270019"><ele>171.33333333333334</ele><time>2026-03-28T14:13:20Z</time></trkpt><trkpt lat="43.2562432318348" lon="11.382330193796541"><ele>172.0</ele><time>2026-03-28T14:13:21Z</time></trkpt><trkpt lat="43.25628201705328" lon="11.382104357816026"><ele>172.33333333333334</ele><time>2026-03-28T14:13:22Z</time></trkpt><trkpt lat="43.25633324320094" lon="11.381897082511909"><ele>172.66666666666666</ele><time>2026-03-28T14:13:23Z</time></trkpt><trkpt lat="43.25640182407742" lon="11.381706840104231"><ele>173.0</ele><time>2026-03-28T14:13:24Z</time></trkpt><trkpt lat="43.25649348340629" lon="11.38153969298385"><ele>173.33333333333331</ele><time>2026-03-28T14:13:25Z</time></trkpt><trkpt lat="43.25660519701801" lon="11.381389802894063"><ele>173.66666666666666</ele><time>2026-03-28T14:13:26Z</time></trkpt><trkpt lat="43.2567334009273" lon="11.381260787060542"><ele>174.0</ele><time>2026-03-28T14:13:27Z</time></trkpt><trkpt lat="43.256872016379326" lon="11.381149972012057"><ele>174.0</ele><time>2026-03-28T14:13:28Z</time></trkpt><trkpt lat="43.25702252913707" lon="11.381074204970774"><ele>174.0</ele><time>2026-03-28T14:13:29Z</time></trkpt><trkpt lat="43.2571781430661" lon="11.38102530864649"><ele>174.0</ele><time>2026-03-28T14:13:30Z</time></trkpt><trkpt lat="43.25734046724254" lon="11.381008510759523"><ele>173.66666666666666</ele><time>2026-03-28T14:13:31Z</time></trkpt><trkpt lat="43.2575051814448" lon="11.381004894641261"><ele>173.33333333333331</ele><time>2026-03-28T14:13:32Z</time></trkpt><trkpt lat="43.25766808817606" lon="11.381003730510328"><ele>173.0</ele><time>2026-03-28T14:13:33Z</time></trkpt><trkpt lat="43.25781788254185" lon="11.38099199522722"><ele>173.0</ele><time>2026-03-28T14:13:34Z</time></trkpt><trkpt lat="43.25795968203906" lon="11.38095615100995"><ele>173.0</ele><time>2026-03-28T14:13:35Z</time></trkpt><trkpt lat="43.25809823507514" lon="11.380887439116266"><ele>173.0</ele><time>2026-03-28T14:13:36Z</time></trkpt><trkpt lat="43.25822387029094" lon="11.380793391554"><ele>173.0</ele><time>2026-03-28T14:13:37Z</time></trkpt><trkpt lat="43.2583341468154" lon="11.380702639060559"><ele>172.75</ele><time>2026-03-28T14:13:38Z</time></trkpt><trkpt lat="43.25843315717425" lon="11.380588459033309"><ele>172.5</ele><time>2026-03-28T14:13:39Z</time></trkpt><trkpt lat="43.25851748030047" lon="11.380434327336381"><ele>172.25</ele><time>2026-03-28T14:13:40Z</time></trkpt><trkpt lat="43.25861173321303" lon="11.380273483050107"><ele>172.0</ele><time>2026-03-28T14:13:41Z</time></trkpt><trkpt lat="43.258699316502934" lon="11.380104660184536"><ele>172.33333333333334</ele><time>2026-03-28T14:13:42Z</time></trkpt><trkpt lat="43.258788573488744" lon="11.379938595648307"><ele>172.66666666666666</ele><time>2026-03-28T14:13:43Z</time></trkpt><trkpt lat="43.258870581035445" lon="11.379762468012405"><ele>173.0</ele><time>2026-03-28T14:13:44Z</time></trkpt><trkpt lat="43.25898341188812" lon="11.37961185263726"><ele>173.0</ele><time>2026-03-28T14:13:45Z</time></trkpt><trkpt lat="43.25908647286231" lon="11.379441625450609"><ele>173.0</ele><time>2026-03-28T14:13:46Z</time></trkpt><trkpt lat="43.25918416168339" lon="11.379259204458995"><ele>173.0</ele><time>2026-03-28T14:13:47Z</time></trkpt><trkpt lat="43.25929470031408" lon="11.37909113556228"><ele>173.0</ele><time>2026-03-28T14:13:48Z</time></trkpt><trkpt lat="43.2594025366453" lon="11.37892385932882"><ele>173.0</ele><time>2026-03-28T14:13:49Z</time></trkpt><trkpt lat="43.25951003182435" lon="11.378762969273675"><ele>173.0</ele><time>2026-03-28T14:13:50Z</time></trkpt><trkpt lat="43.259610449085166" lon="11.378595697268544"><ele>173.0</ele><time>2026-03-28T14:13:51Z</time></trkpt><trkpt lat="43.25970337449027" lon="11.378440728096603"><ele>173.0</ele><time>2026-03-28T14:13:52Z</time></trkpt><trkpt lat="43.2597819824205" lon="11.378291193191941"><ele>173.0</ele><time>2026-03-28T14:13:53Z</time></trkpt><trkpt lat="43.2598535315661" lon="11.378124613711183"><ele>173.0</ele><time>2026-03-28T14:13:54Z</time></trkpt><trkpt lat="43.259903717425196" lon="11.377930530346312"><ele>173.0</ele><time>2026-03-28T14:13:55Z</time></trkpt><trkpt lat="43.25992830366792" lon="11.377714379261537"><ele>173.0</ele><time>2026-03-28T14:13:56Z</time></trkpt><trkpt lat="43.25994771884012" lon="11.37747978115534"><ele>173.0</ele><time>2026-03-28T14:13:57Z</time></trkpt><trkpt lat="43.25997076882198" lon="11.377247579370302"><ele>173.0</ele><time>2026-03-28T14:13:58Z</time></trkpt><trkpt lat="43.25998805981159" lon="11.377025270761303"><ele>173.0</ele><time>2026-03-28T14:13:59Z</time></trkpt><trkpt lat="43.26000719461969" lon="11.376812427120893"><ele>173.0</ele><time>2026-03-28T14:14:00Z</time></trkpt><trkpt lat="43.260026398117304" lon="11.376616441889965"><ele>173.0</ele><time>2026-03-28T14:14:01Z</time></trkpt><trkpt lat="43.260059642719376" lon="11.37642885529254"><ele>173.0</ele><time>2026-03-28T14:14:02Z</time></trkpt><trkpt lat="43.26008014241708" lon="11.376233572889678"><ele>173.0</ele><time>2026-03-28T14:14:03Z</time></trkpt><trkpt lat="43.2600983754608" lon="11.376033735277138"><ele>173.0</ele><time>2026-03-28T14:14:04Z</time></trkpt><trkpt lat="43.260174228016844" lon="11.375873480093592"><ele>173.66666666666666</ele><time>2026-03-28T14:14:05Z</time></trkpt><trkpt lat="43.260269086227446" lon="11.375728036170266"><ele>174.33333333333334</ele><time>2026-03-28T14:14:06Z</time></trkpt><trkpt lat="43.26039970891529" lon="11.37556988526523"><ele>175.0</ele><time>2026-03-28T14:14:07Z</time></trkpt><trkpt lat="43.260536000377655" lon="11.375380209999054"><ele>175.0</ele><time>2026-03-28T14:14:08Z</time></trkpt><trkpt lat="43.26069608537909" lon="11.375193935763198"><ele>175.0</ele><time>2026-03-28T14:14:09Z</time></trkpt><trkpt lat="43.26087075137654" lon="11.374991124829695"><ele>175.0</ele><time>2026-03-28T14:14:10Z</time></trkpt><trkpt lat="43.261053689980194" lon="11.374777233131146"><ele>175.33333333333334</ele><time>2026-03-28T14:14:11Z</time></trkpt><trkpt lat="43.26121527017604" lon="11.374583314245763"><ele>175.66666666666666</ele><time>2026-03-28T14:14:12Z</time></trkpt><trkpt lat="43.2613746693886" lon="11.374431287564201"><ele>176.0</ele><time>2026-03-28T14:14:13Z</time></trkpt><trkpt lat="43.261511145845404" lon="11.374273971996264"><ele>176.25</ele><time>2026-03-28T14:14:14Z</time></trkpt><trkpt lat="43.26162797464168" lon="11.374136999168194"><ele>176.5</ele><time>2026-03-28T14:14:15Z</time></trkpt><trkpt lat="43.26172403040288" lon="11.374021033766125"><ele>176.75</ele><time>2026-03-28T14:14:16Z</time></trkpt><trkpt lat="43.2618005321458" lon="11.37391780834084"><ele>177.0</ele><time>2026-03-28T14:14:17Z</time></trkpt><trkpt lat="43.26185679557448" lon="11.373828100721372"><ele>177.16666666666666</ele><time>2026-03-28T14:14:18Z</time></trkpt><trkpt lat="43.26191624010055" lon="11.373780592343909"><ele>177.33333333333334</ele><time>2026-03-28T14:14:19Z</time></trkpt><trkpt lat="43.26198526844666" lon="11.373752000919435"><ele>177.5</ele><time>2026-03-28T14:14:20Z</time></trkpt><trkpt lat="43.2620749734422" lon="11.373754248323344"><ele>177.66666666666669</ele><time>2026-03-28T14:14:21Z</time></trkpt><trkpt lat="43.26216449204192" lon="11.373743645074786"><ele>177.83333333333334</ele><time>2026-03-28T14:14:22Z</time></trkpt><trkpt lat="43.26223571387794" lon="11.37367318570929"><ele>178.0</ele><time>2026-03-28T14:14:23Z</time></trkpt><trkpt lat="43.26229221043411" lon="11.37354770599645"><ele>179.0</ele><time>2026-03-28T14:14:24Z</time></trkpt><trkpt lat="43.26232902277091" lon="11.373400142328911"><ele>180.0</ele><time>2026-03-28T14:14:25Z</time></trkpt><trkpt lat="43.26236980776049" lon="11.373253719343046"><ele>181.0</ele><time>2026-03-28T14:14:26Z</time></trkpt><trkpt lat="43.26243633018084" lon="11.37311130402647"><ele>182.0</ele><time>2026-03-28T14:14:27Z</time></trkpt><trkpt lat="43.262575325508685" lon="11.3730066441845"><ele>183.0</ele><time>2026-03-28T14:14:28Z</time></trkpt><trkpt lat="43.26271297119978" lon="11.372829122219933"><ele>184.0</ele><time>2026-03-28T14:14:29Z</time></trkpt><trkpt lat="43.262881026154766" lon="11.372624195426406"><ele>185.0</ele><time>2026-03-28T14:14:30Z</time></trkpt><trkpt lat="43.26304213918663" lon="11.372422978546027"><ele>185.0</ele><time>2026-03-28T14:14:31Z</time></trkpt><trkpt lat="43.26317604127506" lon="11.372244811887441"><ele>185.0</ele><time>2026-03-28T14:14:32Z</time></trkpt><trkpt lat="43.26330751221916" lon="11.372059814627075"><ele>185.0</ele><time>2026-03-28T14:14:33Z</time></trkpt><trkpt lat="43.263412961075076" lon="11.371838761083428"><ele>188.0</ele><time>2026-03-28T14:14:34Z</time></trkpt><trkpt lat="43.26349376002401" lon="11.371584541558043"><ele>191.0</ele><time>2026-03-28T14:14:35Z</time></trkpt><trkpt lat="43.26354096835271" lon="11.371318462009414"><ele>194.0</ele><time>2026-03-28T14:14:36Z</time></trkpt><trkpt lat="43.263558445561486" lon="11.371023162062635"><ele>196.0</ele><time>2026-03-28T14:14:37Z</time></trkpt><trkpt lat="43.26354938838149" lon="11.37071830800296"><ele>198.0</ele><time>2026-03-28T14:14:38Z</time></trkpt><trkpt lat="43.26353403187897" lon="11.370376261590174"><ele>198.0</ele><time>2026-03-28T14:14:39Z</time></trkpt><trkpt lat="43.263517381523876" lon="11.370018045343075"><ele>198.0</ele><time>2026-03-28T14:14:40Z</time></trkpt><trkpt lat="43.2635019097872" lon="11.369692183358538"><ele>197.66666666666669</ele><time>2026-03-28T14:14:41Z</time></trkpt><trkpt lat="43.263486946995506" lon="11.36937704071264"><ele>197.33333333333334</ele><time>2026-03-28T14:14:42Z</time></trkpt><trkpt lat="43.263473694032804" lon="11.369097909952773"><ele>197.0</ele><time>2026-03-28T14:14:43Z</time></trkpt><trkpt lat="43.2634612685865" lon="11.368836208232246"><ele>198.0</ele><time>2026-03-28T14:14:44Z</time></trkpt><trkpt lat="43.26343486893607" lon="11.368589054536153"><ele>199.0</ele><time>2026-03-28T14:14:45Z</time></trkpt><trkpt lat="43.263431896745224" lon="11.368349078196383"><ele>200.0</ele><time>2026-03-28T14:14:46Z</time></trkpt><trkpt lat="43.263432567492345" lon="11.368110772381645"><ele>200.0</ele><time>2026-03-28T14:14:47Z</time></trkpt><trkpt lat="43.2634524313908" lon="11.367874983700785"><ele>200.0</ele><time>2026-03-28T14:14:48Z</time></trkpt><trkpt lat="43.263495209671476" lon="11.367645327366473"><ele>200.0</ele><time>2026-03-28T14:14:49Z</time></trkpt><trkpt lat="43.26355667653157" lon="11.367429621124254"><ele>200.0</ele><time>2026-03-28T14:14:50Z</time></trkpt><trkpt lat="43.26362841667574" lon="11.3672266308556"><ele>200.0</ele><time>2026-03-28T14:14:51Z</time></trkpt><trkpt lat="43.26371896991902" lon="11.36704575650468"><ele>200.0</ele><time>2026-03-28T14:14:52Z</time></trkpt><trkpt lat="43.26382662212811" lon="11.366906550702558"><ele>202.33333333333334</ele><time>2026-03-28T14:14:53Z</time></trkpt><trkpt lat="43.263948523140265" lon="11.36678874883881"><ele>204.66666666666669</ele><time>2026-03-28T14:14:54Z</time></trkpt><trkpt lat="43.26408539748698" lon="11.366688514005821"><ele>207.0</ele><time>2026-03-28T14:14:55Z</time></trkpt><trkpt lat="43.26422248590757" lon="11.36661205813767"><ele>207.0</ele><time>2026-03-28T14:14:56Z</time></trkpt><trkpt lat="43.26434912588002" lon="11.366545731525376"><ele>207.0</ele><time>2026-03-28T14:14:57Z</time></trkpt><trkpt lat="43.26448924485632" lon="11.366500090013592"><ele>207.0</ele><time>2026-03-28T14:14:58Z</time></trkpt><trkpt lat="43.26462951586287" lon="11.366489900116065"><ele>207.0</ele><time>2026-03-28T14:14:59Z</time></trkpt><trkpt lat="43.264776899391876" lon="11.366493843498885"><ele>208.66666666666669</ele><time>2026-03-28T14:15:00Z</time></trkpt><trkpt lat="43.26493274169562" lon="11.366499259516155"><ele>210.33333333333334</ele><time>2026-03-28T14:15:01Z</time></trkpt><trkpt lat="43.2650923976971" lon="11.366504456889562"><ele>212.0</ele><time>2026-03-28T14:15:02Z</time></trkpt><trkpt lat="43.26525100997802" lon="11.366505631455423"><ele>212.0</ele><time>2026-03-28T14:15:03Z</time></trkpt><trkpt lat="43.26541225023544" lon="11.36649955593785"><ele>212.0</ele><time>2026-03-28T14:15:04Z</time></trkpt><trkpt lat="43.265593203664295" lon="11.366490871681258"><ele>212.0</ele><time>2026-03-28T14:15:05Z</time></trkpt><trkpt lat="43.26582399315198" lon="11.366440384383758"><ele>212.0</ele><time>2026-03-28T14:15:06Z</time></trkpt><trkpt lat="43.26606709170976" lon="11.36635918602799"><ele>212.0</ele><time>2026-03-28T14:15:07Z</time></trkpt><trkpt lat="43.266275151881345" lon="11.3662663259503"><ele>213.66666666666669</ele><time>2026-03-28T14:15:08Z</time></trkpt><trkpt lat="43.26647732970223" lon="11.366199400877326"><ele>215.33333333333331</ele><time>2026-03-28T14:15:09Z</time></trkpt><trkpt lat="43.2666629354755" lon="11.366129666614542"><ele>217.0</ele><time>2026-03-28T14:15:10Z</time></trkpt><trkpt lat="43.26684127925757" lon="11.3660481210561"><ele>217.0</ele><time>2026-03-28T14:15:11Z</time></trkpt><trkpt lat="43.26701425185841" lon="11.36594777225289"><ele>217.0</ele><time>2026-03-28T14:15:12Z</time></trkpt><trkpt lat="43.26718447663199" lon="11.365824143071281"><ele>217.0</ele><time>2026-03-28T14:15:13Z</time></trkpt><trkpt lat="43.267350379525766" lon="11.365681506374328"><ele>215.33333333333331</ele><time>2026-03-28T14:15:14Z</time></trkpt><trkpt lat="43.26751818338225" lon="11.365513171821762"><ele>213.66666666666669</ele><time>2026-03-28T14:15:15Z</time></trkpt><trkpt lat="43.26767678381998" lon="11.365309063747711"><ele>212.0</ele><time>2026-03-28T14:15:16Z</time></trkpt><trkpt lat="43.26783555980777" lon="11.365073345050956"><ele>212.0</ele><time>2026-03-28T14:15:17Z</time></trkpt><trkpt lat="43.26799538258512" lon="11.364819471944257"><ele>212.0</ele><time>2026-03-28T14:15:18Z</time></trkpt><trkpt lat="43.26814167167531" lon="11.36456853835725"><ele>213.5</ele><time>2026-03-28T14:15:19Z</time></trkpt><trkpt lat="43.26828738816948" lon="11.364331403446283"><ele>215.0</ele><time>2026-03-28T14:15:20Z</time></trkpt><trkpt lat="43.26843699781321" lon="11.36409718414958"><ele>216.5</ele><time>2026-03-28T14:15:21Z</time></trkpt><trkpt lat="43.26859090261875" lon="11.363851166204448"><ele>218.0</ele><time>2026-03-28T14:15:22Z</time></trkpt><trkpt lat="43.26875745451517" lon="11.363600008057617"><ele>218.0</ele><time>2026-03-28T14:15:23Z</time></trkpt><trkpt lat="43.2689269916325" lon="11.363349055840315"><ele>218.0</ele><time>2026-03-28T14:15:24Z</time></trkpt><trkpt lat="43.269090236764015" lon="11.36310515401204"><ele>218.33333333333334</ele><time>2026-03-28T14:15:25Z</time></trkpt><trkpt lat="43.269250820007386" lon="11.362888174611514"><ele>218.66666666666669</ele><time>2026-03-28T14:15:26Z</time></trkpt><trkpt lat="43.26937439176371" lon="11.362710417979008"><ele>219.0</ele><time>2026-03-28T14:15:27Z</time></trkpt><trkpt lat="43.2694806418118" lon="11.36255783674997"><ele>219.0</ele><time>2026-03-28T14:15:28Z</time></trkpt><trkpt lat="43.269566407909956" lon="11.36244918901667"><ele>218.99999999999997</ele><time>2026-03-28T14:15:29Z</time></trkpt><trkpt lat="43.26961499285226" lon="11.362381740819044"><ele>218.99999999999997</ele><time>2026-03-28T14:15:30Z</time></trkpt><trkpt lat="43.26967202967075" lon="11.362291850539203"><ele>219.0</ele><time>2026-03-28T14:15:31Z</time></trkpt><trkpt lat="43.269742762283144" lon="11.36218691859344"><ele>219.0</ele><time>2026-03-28T14:15:32Z</time></trkpt><trkpt lat="43.26981971702255" lon="11.362075501630628"><ele>220.75</ele><time>2026-03-28T14:15:33Z</time></trkpt><trkpt lat="43.2699048659592" lon="11.361956926595543"><ele>222.5</ele><time>2026-03-28T14:15:34Z</time></trkpt><trkpt lat="43.26998926633138" lon="11.36182946174119"><ele>224.25</ele><time>2026-03-28T14:15:35Z</time></trkpt><trkpt lat="43.27006418440055" lon="11.361682226871377"><ele>226.0</ele><time>2026-03-28T14:15:36Z</time></trkpt><trkpt lat="43.270118764165446" lon="11.36151454916619"><ele>225.5</ele><time>2026-03-28T14:15:37Z</time></trkpt><trkpt lat="43.27016371878792" lon="11.36133059108258"><ele>225.0</ele><time>2026-03-28T14:15:38Z</time></trkpt><trkpt lat="43.27021152646303" lon="11.361141535963268"><ele>224.5</ele><time>2026-03-28T14:15:39Z</time></trkpt><trkpt lat="43.270259805788946" lon="11.360968577927755"><ele>224.0</ele><time>2026-03-28T14:15:40Z</time></trkpt><trkpt lat="43.27030611380429" lon="11.360803472183774"><ele>224.0</ele><time>2026-03-28T14:15:41Z</time></trkpt><trkpt lat="43.270354480012244" lon="11.360633575083842"><ele>224.0</ele><time>2026-03-28T14:15:42Z</time></trkpt><trkpt lat="43.270404315320654" lon="11.360457926354684"><ele>224.0</ele><time>2026-03-28T14:15:43Z</time></trkpt><trkpt lat="43.27045659275804" lon="11.360281117830988"><ele>224.0</ele><time>2026-03-28T14:15:44Z</time></trkpt><trkpt lat="43.27050965895112" lon="11.360096389389449"><ele>223.66666666666669</ele><time>2026-03-28T14:15:45Z</time></trkpt><trkpt lat="43.2705667418816" lon="11.359911466123409"><ele>223.33333333333331</ele><time>2026-03-28T14:15:46Z</time></trkpt><trkpt lat="43.270619351174616" lon="11.359712692518832"><ele>223.0</ele><time>2026-03-28T14:15:47Z</time></trkpt><trkpt lat="43.270666509690706" lon="11.359505793594028"><ele>223.5</ele><time>2026-03-28T14:15:48Z</time></trkpt><trkpt lat="43.27071567040634" lon="11.359308251501812"><ele>224.0</ele><time>2026-03-28T14:15:49Z</time></trkpt><trkpt lat="43.27076669766841" lon="11.359124146753535"><ele>224.5</ele><time>2026-03-28T14:15:50Z</time></trkpt><trkpt lat="43.27082692572721" lon="11.358941024065846"><ele>225.0</ele><time>2026-03-28T14:15:51Z</time></trkpt><trkpt lat="43.27087926240672" lon="11.358755961351314"><ele>225.66666666666669</ele><time>2026-03-28T14:15:52Z</time></trkpt><trkpt lat="43.270959768299576" lon="11.358569392445256"><ele>226.33333333333334</ele><time>2026-03-28T14:15:53Z</time></trkpt><trkpt lat="43.27105864627505" lon="11.358391751580946"><ele>227.0</ele><time>2026-03-28T14:15:54Z</time></trkpt><trkpt lat="43.27118680247705" lon="11.358224505256809"><ele>227.0</ele><time>2026-03-28T14:15:55Z</time></trkpt><trkpt lat="43.27132919444896" lon="11.358063145924957"><ele>227.0</ele><time>2026-03-28T14:15:56Z</time></trkpt><trkpt lat="43.27148414139447" lon="11.357901795088903"><ele>227.0</ele><time>2026-03-28T14:15:57Z</time></trkpt><trkpt lat="43.27163747660339" lon="11.357733792239"><ele>225.66666666666669</ele><time>2026-03-28T14:15:58Z</time></trkpt><trkpt lat="43.27179526933627" lon="11.357560897659333"><ele>224.33333333333331</ele><time>2026-03-28T14:15:59Z</time></trkpt><trkpt lat="43.27194623481442" lon="11.357391767584826"><ele>223.0</ele><time>2026-03-28T14:16:00Z</time></trkpt><trkpt lat="43.27209005577248" lon="11.357231143512294"><ele>223.0</ele><time>2026-03-28T14:16:01Z</time></trkpt><trkpt lat="43.272233101636" lon="11.357073544883962"><ele>223.0</ele><time>2026-03-28T14:16:02Z</time></trkpt><trkpt lat="43.27236764112639" lon="11.356929351763451"><ele>223.0</ele><time>2026-03-28T14:16:03Z</time></trkpt><trkpt lat="43.27248919753616" lon="11.35679101836565"><ele>224.33333333333331</ele><time>2026-03-28T14:16:04Z</time></trkpt><trkpt lat="43.27261481428955" lon="11.356644121160052"><ele>225.66666666666669</ele><time>2026-03-28T14:16:05Z</time></trkpt><trkpt lat="43.27274336406557" lon="11.356500055640877"><ele>227.0</ele><time>2026-03-28T14:16:06Z</time></trkpt><trkpt lat="43.27286800572625" lon="11.356369201824425"><ele>225.66666666666669</ele><time>2026-03-28T14:16:07Z</time></trkpt><trkpt lat="43.27299099220964" lon="11.356227607645579"><ele>224.33333333333331</ele><time>2026-03-28T14:16:08Z</time></trkpt><trkpt lat="43.2731119781169" lon="11.356085977280765"><ele>223.0</ele><time>2026-03-28T14:16:09Z</time></trkpt><trkpt lat="43.27323921341021" lon="11.355945295994859"><ele>223.0</ele><time>2026-03-28T14:16:10Z</time></trkpt><trkpt lat="43.273364849702546" lon="11.355805956759113"><ele>223.0</ele><time>2026-03-28T14:16:11Z</time></trkpt><trkpt lat="43.27349610881531" lon="11.355667747581062"><ele>223.0</ele><time>2026-03-28T14:16:12Z</time></trkpt><trkpt lat="43.27362722851396" lon="11.355519657676224"><ele>222.66666666666666</ele><time>2026-03-28T14:16:13Z</time></trkpt><trkpt lat="43.27376147137089" lon="11.355374362401143"><ele>222.33333333333331</ele><time>2026-03-28T14:16:14Z</time></trkpt><trkpt lat="43.273894632204794" lon="11.355216605405735"><ele>222.0</ele><time>2026-03-28T14:16:15Z</time></trkpt><trkpt lat="43.27402823524516" lon="11.355047888704904"><ele>222.0</ele><time>2026-03-28T14:16:16Z</time></trkpt><trkpt lat="43.27415776896714" lon="11.354864114100334"><ele>222.0</ele><time>2026-03-28T14:16:17Z</time></trkpt><trkpt lat="43.27428217449837" lon="11.3546707547495"><ele>222.0</ele><time>2026-03-28T14:16:18Z</time></trkpt><trkpt lat="43.274408749784605" lon="11.354486281412683"><ele>222.0</ele><time>2026-03-28T14:16:19Z</time></trkpt><trkpt lat="43.27455375133603" lon="11.354326182232356"><ele>222.0</ele><time>2026-03-28T14:16:20Z</time></trkpt><trkpt lat="43.27471971705143" lon="11.354197401186244"><ele>222.0</ele><time>2026-03-28T14:16:21Z</time></trkpt><trkpt lat="43.274907307031775" lon="11.354103861949946"><ele>222.0</ele><time>2026-03-28T14:16:22Z</time></trkpt><trkpt lat="43.2751199099163" lon="11.354054216363625"><ele>222.0</ele><time>2026-03-28T14:16:23Z</time></trkpt><trkpt lat="43.275343216823416" lon="11.354012638089895"><ele>222.0</ele><time>2026-03-28T14:16:24Z</time></trkpt><trkpt lat="43.27557659502129" lon="11.353974862568236"><ele>222.5</ele><time>2026-03-28T14:16:25Z</time></trkpt><trkpt lat="43.27582538888055" lon="11.353935609129232"><ele>223.0</ele><time>2026-03-28T14:16:26Z</time></trkpt><trkpt lat="43.276089356715914" lon="11.353881506846482"><ele>225.0</ele><time>2026-03-28T14:16:27Z</time></trkpt><trkpt lat="43.2763395502617" lon="11.353825723980847"><ele>227.0</ele><time>2026-03-28T14:16:28Z</time></trkpt><trkpt lat="43.276574709909426" lon="11.353780751995057"><ele>228.66666666666669</ele><time>2026-03-28T14:16:29Z</time></trkpt><trkpt lat="43.27678620538963" lon="11.353747461018067"><ele>230.33333333333331</ele><time>2026-03-28T14:16:30Z</time></trkpt><trkpt lat="43.276978331336885" lon="11.353701953785206"><ele>232.0</ele><time>2026-03-28T14:16:31Z</time></trkpt><trkpt lat="43.27716897743009" lon="11.353634377439214"><ele>231.66666666666666</ele><time>2026-03-28T14:16:32Z</time></trkpt><trkpt lat="43.27736770281493" lon="11.35353588511569"><ele>231.33333333333331</ele><time>2026-03-28T14:16:33Z</time></trkpt><trkpt lat="43.27757614912448" lon="11.353412932218774"><ele>231.0</ele><time>2026-03-28T14:16:34Z</time></trkpt><trkpt lat="43.27778674707314" lon="11.35328167889034"><ele>231.0</ele><time>2026-03-28T14:16:35Z</time></trkpt><trkpt lat="43.277986608534476" lon="11.353148927998484"><ele>231.0</ele><time>2026-03-28T14:16:36Z</time></trkpt><trkpt lat="43.278183940973825" lon="11.353019596789276"><ele>231.0</ele><time>2026-03-28T14:16:37Z</time></trkpt><trkpt lat="43.27837110758205" lon="11.35290588600587"><ele>229.66666666666669</ele><time>2026-03-28T14:16:38Z</time></trkpt><trkpt lat="43.27854600002655" lon="11.352808817678874"><ele>228.33333333333334</ele><time>2026-03-28T14:16:39Z</time></trkpt><trkpt lat="43.27871178014019" lon="11.35271646463364"><ele>227.0</ele><time>2026-03-28T14:16:40Z</time></trkpt><trkpt lat="43.27888194316616" lon="11.352673875285403"><ele>227.0</ele><time>2026-03-28T14:16:41Z</time></trkpt><trkpt lat="43.27904768933766" lon="11.35266226346299"><ele>227.0</ele><time>2026-03-28T14:16:42Z</time></trkpt><trkpt lat="43.27921673574769" lon="11.352672784285375"><ele>227.0</ele><time>2026-03-28T14:16:43Z</time></trkpt><trkpt lat="43.27938398447496" lon="11.352699055971682"><ele>227.0</ele><time>2026-03-28T14:16:44Z</time></trkpt><trkpt lat="43.279552419905585" lon="11.352727639384623"><ele>227.0</ele><time>2026-03-28T14:16:45Z</time></trkpt><trkpt lat="43.27972678894139" lon="11.35276086917453"><ele>227.0</ele><time>2026-03-28T14:16:46Z</time></trkpt><trkpt lat="43.27989930484869" lon="11.352819155492863"><ele>228.0</ele><time>2026-03-28T14:16:47Z</time></trkpt><trkpt lat="43.28007737251089" lon="11.35287526205584"><ele>229.0</ele><time>2026-03-28T14:16:48Z</time></trkpt><trkpt lat="43.2802572079949" lon="11.352934510167"><ele>230.0</ele><time>2026-03-28T14:16:49Z</time></trkpt><trkpt lat="43.28043745403759" lon="11.352998050079297"><ele>232.66666666666669</ele><time>2026-03-28T14:16:50Z</time></trkpt><trkpt lat="43.280618288667576" lon="11.353067736707546"><ele>235.33333333333331</ele><time>2026-03-28T14:16:51Z</time></trkpt><trkpt lat="43.28080060648744" lon="11.353136854403912"><ele>238.0</ele><time>2026-03-28T14:16:52Z</time></trkpt><trkpt lat="43.28098259782872" lon="11.353197917626522"><ele>238.0</ele><time>2026-03-28T14:16:53Z</time></trkpt><trkpt lat="43.28116609986973" lon="11.353251705280549"><ele>238.0</ele><time>2026-03-28T14:16:54Z</time></trkpt><trkpt lat="43.281348035984834" lon="11.353307898502388"><ele>238.0</ele><time>2026-03-28T14:16:55Z</time></trkpt><trkpt lat="43.281532216840475" lon="11.353355220727991"><ele>238.0</ele><time>2026-03-28T14:16:56Z</time></trkpt><trkpt lat="43.28171214450152" lon="11.353396737161802"><ele>238.0</ele><time>2026-03-28T14:16:57Z</time></trkpt><trkpt lat="43.281887027064414" lon="11.353432175861494"><ele>238.0</ele><time>2026-03-28T14:16:58Z</time></trkpt><trkpt lat="43.28205837395563" lon="11.353470278919472"><ele>238.0</ele><time>2026-03-28T14:16:59Z</time></trkpt><trkpt lat="43.2822325428344" lon="11.353513794606766"><ele>238.0</ele><time>2026-03-28T14:17:00Z</time></trkpt><trkpt lat="43.282404770035086" lon="11.353554093047574"><ele>238.0</ele><time>2026-03-28T14:17:01Z</time></trkpt><trkpt lat="43.2825654915119" lon="11.353587522633852"><ele>238.0</ele><time>2026-03-28T14:17:02Z</time></trkpt><trkpt lat="43.28272051431101" lon="11.353619320917442"><ele>238.0</ele><time>2026-03-28T14:17:03Z</time></trkpt><trkpt lat="43.282881367571036" lon="11.35366666792717"><ele>238.0</ele><time>2026-03-28T14:17:04Z</time></trkpt><trkpt lat="43.28303988990199" lon="11.353699602354265"><ele>238.0</ele><time>2026-03-28T14:17:05Z</time></trkpt><trkpt lat="43.28319731163134" lon="11.3537224344914"><ele>238.0</ele><time>2026-03-28T14:17:06Z</time></trkpt><trkpt lat="43.28335467839196" lon="11.353739439795104"><ele>238.0</ele><time>2026-03-28T14:17:07Z</time></trkpt><trkpt lat="43.28351494362309" lon="11.35374090715396"><ele>238.0</ele><time>2026-03-28T14:17:08Z</time></trkpt><trkpt lat="43.28366898752985" lon="11.353710458155257"><ele>238.0</ele><time>2026-03-28T14:17:09Z</time></trkpt><trkpt lat="43.28381717456884" lon="11.353665242352477"><ele>238.0</ele><time>2026-03-28T14:17:10Z</time></trkpt><trkpt lat="43.2839655972126" lon="11.353606408202657"><ele>237.33333333333331</ele><time>2026-03-28T14:17:11Z</time></trkpt><trkpt lat="43.284115067302864" lon="11.35353060295027"><ele>236.66666666666669</ele><time>2026-03-28T14:17:12Z</time></trkpt><trkpt lat="43.28426447067881" lon="11.35342779902923"><ele>236.0</ele><time>2026-03-28T14:17:13Z</time></trkpt><trkpt lat="43.284408917421395" lon="11.353295022255324"><ele>236.0</ele><time>2026-03-28T14:17:14Z</time></trkpt><trkpt lat="43.28455296886059" lon="11.353128910209827"><ele>236.0</ele><time>2026-03-28T14:17:15Z</time></trkpt><trkpt lat="43.28469225159443" lon="11.352947218225914"><ele>236.0</ele><time>2026-03-28T14:17:16Z</time></trkpt><trkpt lat="43.284815829689926" lon="11.3527529241462"><ele>235.66666666666669</ele><time>2026-03-28T14:17:17Z</time></trkpt><trkpt lat="43.28491342233243" lon="11.352527743957296"><ele>235.33333333333331</ele><time>2026-03-28T14:17:18Z</time></trkpt><trkpt lat="43.285004307812656" lon="11.352276557866386"><ele>235.0</ele><time>2026-03-28T14:17:19Z</time></trkpt><trkpt lat="43.28509040134711" lon="11.351996222825331"><ele>235.0</ele><time>2026-03-28T14:17:20Z</time></trkpt><trkpt lat="43.28517358047919" lon="11.351726332180471"><ele>235.0</ele><time>2026-03-28T14:17:21Z</time></trkpt><trkpt lat="43.28525991261224" lon="11.35146401057885"><ele>235.0</ele><time>2026-03-28T14:17:22Z</time></trkpt><trkpt lat="43.285346650855544" lon="11.351188177599708"><ele>235.0</ele><time>2026-03-28T14:17:23Z</time></trkpt><trkpt lat="43.28543488604083" lon="11.350905073942995"><ele>235.0</ele><time>2026-03-28T14:17:24Z</time></trkpt><trkpt lat="43.28551215952706" lon="11.350639388597509"><ele>235.0</ele><time>2026-03-28T14:17:25Z</time></trkpt><trkpt lat="43.28560070142431" lon="11.350378726581775"><ele>235.0</ele><time>2026-03-28T14:17:26Z</time></trkpt><trkpt lat="43.28568344299048" lon="11.350114639751206"><ele>235.0</ele><time>2026-03-28T14:17:27Z</time></trkpt><trkpt lat="43.2857723573318" lon="11.349843215989324"><ele>235.0</ele><time>2026-03-28T14:17:28Z</time></trkpt><trkpt lat="43.28587059912909" lon="11.349574021115513"><ele>234.66666666666666</ele><time>2026-03-28T14:17:29Z</time></trkpt><trkpt lat="43.28597860627387" lon="11.3493102569743"><ele>234.33333333333331</ele><time>2026-03-28T14:17:30Z</time></trkpt><trkpt lat="43.28609259682779" lon="11.349046374217389"><ele>234.0</ele><time>2026-03-28T14:17:31Z</time></trkpt><trkpt lat="43.28620190463998" lon="11.348789122267895"><ele>233.0</ele><time>2026-03-28T14:17:32Z</time></trkpt><trkpt lat="43.28630255480938" lon="11.348542210075477"><ele>232.0</ele><time>2026-03-28T14:17:33Z</time></trkpt><trkpt lat="43.28639441869231" lon="11.348297685063448"><ele>231.0</ele><time>2026-03-28T14:17:34Z</time></trkpt><trkpt lat="43.28648083167982" lon="11.34803919058096"><ele>234.33333333333331</ele><time>2026-03-28T14:17:35Z</time></trkpt><trkpt lat="43.28655797807915" lon="11.347790567867168"><ele>237.66666666666666</ele><time>2026-03-28T14:17:36Z</time></trkpt><trkpt lat="43.28661691266484" lon="11.347547617930697"><ele>241.0</ele><time>2026-03-28T14:17:37Z</time></trkpt><trkpt lat="43.28667386623698" lon="11.34729801314434"><ele>241.0</ele><time>2026-03-28T14:17:38Z</time></trkpt><trkpt lat="43.28671381825485" lon="11.347034011296333"><ele>241.0</ele><time>2026-03-28T14:17:39Z</time></trkpt><trkpt lat="43.28673052240121" lon="11.346758540121131"><ele>241.0</ele><time>2026-03-28T14:17:40Z</time></trkpt><trkpt lat="43.286742237408525" lon="11.346492770346995"><ele>242.33333333333331</ele><time>2026-03-28T14:17:41Z</time></trkpt><trkpt lat="43.286758695774154" lon="11.346235505439667"><ele>243.66666666666669</ele><time>2026-03-28T14:17:42Z</time></trkpt><trkpt lat="43.28680676006636" lon="11.34596863082713"><ele>245.0</ele><time>2026-03-28T14:17:43Z</time></trkpt><trkpt lat="43.286878321919154" lon="11.345707499586695"><ele>244.66666666666669</ele><time>2026-03-28T14:17:44Z</time></trkpt><trkpt lat="43.28698129095284" lon="11.345466630738713"><ele>244.33333333333331</ele><time>2026-03-28T14:17:45Z</time></trkpt><trkpt lat="43.287094577118474" lon="11.345235746124814"><ele>244.0</ele><time>2026-03-28T14:17:46Z</time></trkpt><trkpt lat="43.287213678989815" lon="11.345030666030922"><ele>243.33333333333331</ele><time>2026-03-28T14:17:47Z</time></trkpt><trkpt lat="43.287335471135144" lon="11.34484883578507"><ele>242.66666666666669</ele><time>2026-03-28T14:17:48Z</time></trkpt><trkpt lat="43.2874435558541" lon="11.34466500993393"><ele>242.0</ele><time>2026-03-28T14:17:49Z</time></trkpt><trkpt lat="43.28756179874106" lon="11.344515091370235"><ele>243.5</ele><time>2026-03-28T14:17:50Z</time></trkpt><trkpt lat="43.28767840986824" lon="11.344376546904812"><ele>245.0</ele><time>2026-03-28T14:17:51Z</time></trkpt><trkpt lat="43.28779503103868" lon="11.344261908304125"><ele>246.5</ele><time>2026-03-28T14:17:52Z</time></trkpt><trkpt lat="43.287920038150126" lon="11.34416966189729"><ele>248.0</ele><time>2026-03-28T14:17:53Z</time></trkpt><trkpt lat="43.28806296601235" lon="11.344091943990037"><ele>247.0</ele><time>2026-03-28T14:17:54Z</time></trkpt><trkpt lat="43.288222920210885" lon="11.3440367779522"><ele>246.0</ele><time>2026-03-28T14:17:55Z</time></trkpt><trkpt lat="43.288389180280454" lon="11.343989423275536"><ele>245.0</ele><time>2026-03-28T14:17:56Z</time></trkpt><trkpt lat="43.288547293337054" lon="11.343955541700497"><ele>245.0</ele><time>2026-03-28T14:17:57Z</time></trkpt><trkpt lat="43.28868986470898" lon="11.343922957971051"><ele>245.0</ele><time>2026-03-28T14:17:58Z</time></trkpt><trkpt lat="43.28881952847181" lon="11.343895170282142"><ele>245.0</ele><time>2026-03-28T14:17:59Z</time></trkpt><trkpt lat="43.28894038894562" lon="11.343865195620953"><ele>245.0</ele><time>2026-03-28T14:18:00Z</time></trkpt><trkpt lat="43.289058713585646" lon="11.343842379697225"><ele>245.75</ele><time>2026-03-28T14:18:01Z</time></trkpt><trkpt lat="43.2891781859261" lon="11.34382283373436"><ele>246.5</ele><time>2026-03-28T14:18:02Z</time></trkpt><trkpt lat="43.289305363695796" lon="11.343797766097927"><ele>247.25</ele><time>2026-03-28T14:18:03Z</time></trkpt><trkpt lat="43.28943142633287" lon="11.343766679217698"><ele>248.0</ele><time>2026-03-28T14:18:04Z</time></trkpt><trkpt lat="43.28956632377871" lon="11.343747125214152"><ele>248.0</ele><time>2026-03-28T14:18:05Z</time></trkpt><trkpt lat="43.28969956974873" lon="11.343747251042616"><ele>248.0</ele><time>2026-03-28T14:18:06Z</time></trkpt><trkpt lat="43.289834257874006" lon="11.343778813413337"><ele>248.0</ele><time>2026-03-28T14:18:07Z</time></trkpt><trkpt lat="43.289972196494155" lon="11.343831543769067"><ele>248.0</ele><time>2026-03-28T14:18:08Z</time></trkpt><trkpt lat="43.29011800539467" lon="11.34387832860029"><ele>247.66666666666669</ele><time>2026-03-28T14:18:09Z</time></trkpt><trkpt lat="43.29027625525434" lon="11.343910755090727"><ele>247.33333333333331</ele><time>2026-03-28T14:18:10Z</time></trkpt><trkpt lat="43.29043667487294" lon="11.343934401557876"><ele>247.0</ele><time>2026-03-28T14:18:11Z</time></trkpt><trkpt lat="43.29060292594676" lon="11.343947966156337"><ele>246.0</ele><time>2026-03-28T14:18:12Z</time></trkpt><trkpt lat="43.290773231354834" lon="11.3439657566666"><ele>245.0</ele><time>2026-03-28T14:18:13Z</time></trkpt><trkpt lat="43.290933084002106" lon="11.343962408995642"><ele>244.0</ele><time>2026-03-28T14:18:14Z</time></trkpt><trkpt lat="43.29110110122983" lon="11.34395287628365"><ele>244.0</ele><time>2026-03-28T14:18:15Z</time></trkpt><trkpt lat="43.29127603559517" lon="11.343930555143077"><ele>244.0</ele><time>2026-03-28T14:18:16Z</time></trkpt><trkpt lat="43.291451673266344" lon="11.343901144746148"><ele>244.0</ele><time>2026-03-28T14:18:17Z</time></trkpt><trkpt lat="43.29162474961299" lon="11.343866069184624"><ele>244.0</ele><time>2026-03-28T14:18:18Z</time></trkpt><trkpt lat="43.29179219485903" lon="11.343829053142857"><ele>244.0</ele><time>2026-03-28T14:18:19Z</time></trkpt><trkpt lat="43.29195281619132" lon="11.343791551430138"><ele>244.0</ele><time>2026-03-28T14:18:20Z</time></trkpt><trkpt lat="43.292103979177405" lon="11.343754152548016"><ele>244.0</ele><time>2026-03-28T14:18:21Z</time></trkpt><trkpt lat="43.29225428101209" lon="11.34370012133898"><ele>244.0</ele><time>2026-03-28T14:18:22Z</time></trkpt><trkpt lat="43.29239667459212" lon="11.343635988476068"><ele>244.0</ele><time>2026-03-28T14:18:23Z</time></trkpt><trkpt lat="43.292527777649276" lon="11.343579571057234"><ele>244.0</ele><time>2026-03-28T14:18:24Z</time></trkpt><trkpt lat="43.29264822938105" lon="11.343532904881926"><ele>243.79999999999998</ele><time>2026-03-28T14:18:25Z</time></trkpt><trkpt lat="43.292761924076956" lon="11.343492101739526"><ele>243.59999999999997</ele><time>2026-03-28T14:18:26Z</time></trkpt><trkpt lat="43.292867782282066" lon="11.343453110760658"><ele>243.4</ele><time>2026-03-28T14:18:27Z</time></trkpt><trkpt lat="43.29296857243919" lon="11.343413523202079"><ele>243.2</ele><time>2026-03-28T14:18:28Z</time></trkpt><trkpt lat="43.29305427710573" lon="11.343378378812638"><ele>243.0</ele><time>2026-03-28T14:18:29Z</time></trkpt><trkpt lat="43.29312005960477" lon="11.343354888189598"><ele>243.0</ele><time>2026-03-28T14:18:30Z</time></trkpt><trkpt lat="43.29321288872896" lon="11.34330767854735"><ele>243.0</ele><time>2026-03-28T14:18:32Z</time></trkpt><trkpt lat="43.293192451583195" lon="11.343143936055156"><ele>243.0</ele><time>2026-03-28T14:18:35Z</time></trkpt><trkpt lat="43.29311009873575" lon="11.343028085451413"><ele>243.0</ele><time>2026-03-28T14:18:37Z</time></trkpt><trkpt lat="43.2930336652334" lon="11.343039100863113"><ele>243.0</ele><time>2026-03-28T14:18:39Z</time></trkpt><trkpt lat="43.29297893319501" lon="11.343093438696593"><ele>243.66666666666666</ele><time>2026-03-28T14:18:41Z</time></trkpt><trkpt lat="43.29290915111905" lon="11.343090950015274"><ele>244.33333333333331</ele><time>2026-03-28T14:22:46Z</time></trkpt><trkpt lat="43.29284030477871" lon="11.343163108786074"><ele>245.0</ele><time>2026-03-28T14:22:49Z</time></trkpt><trkpt lat="43.292822964125975" lon="11.343305913737032"><ele>245.66666666666666</ele><time>2026-03-28T14:22:51Z</time></trkpt><trkpt lat="43.292849295670415" lon="11.34339943881556"><ele>246.33333333333331</ele><time>2026-03-28T14:22:54Z</time></trkpt><trkpt lat="43.292881357142385" lon="11.343487728938774"><ele>247.0</ele><time>2026-03-28T14:22:56Z</time></trkpt><trkpt lat="43.29303085561141" lon="11.343412371699484"><ele>246.2</ele><time>2026-03-28T14:22:57Z</time></trkpt><trkpt lat="43.29311061497511" lon="11.343380486750702"><ele>245.39999999999998</ele><time>2026-03-28T14:22:58Z</time></trkpt><trkpt lat="43.293191895180165" lon="11.343352543240309"><ele>244.60000000000002</ele><time>2026-03-28T14:22:59Z</time></trkpt><trkpt lat="43.29330536947498" lon="11.343322666341457"><ele>243.8</ele><time>2026-03-28T14:23:00Z</time></trkpt><trkpt lat="43.29345557015826" lon="11.343283173589434"><ele>243.0</ele><time>2026-03-28T14:23:01Z</time></trkpt><trkpt lat="43.29359778388013" lon="11.343244851627647"><ele>243.0</ele><time>2026-03-28T14:23:02Z</time></trkpt><trkpt lat="43.29372440428914" lon="11.343216328355773"><ele>243.0</ele><time>2026-03-28T14:23:03Z</time></trkpt><trkpt lat="43.29384729793148" lon="11.343195888457453"><ele>243.0</ele><time>2026-03-28T14:23:04Z</time></trkpt><trkpt lat="43.29396230271389" lon="11.343172894800018"><ele>243.0</ele><time>2026-03-28T14:23:05Z</time></trkpt><trkpt lat="43.29407529774362" lon="11.343124428580886"><ele>243.25</ele><time>2026-03-28T14:23:06Z</time></trkpt><trkpt lat="43.29419147963084" lon="11.343078893640484"><ele>243.5</ele><time>2026-03-28T14:23:07Z</time></trkpt><trkpt lat="43.29431267655124" lon="11.343030670926439"><ele>243.75</ele><time>2026-03-28T14:23:08Z</time></trkpt><trkpt lat="43.29443625210952" lon="11.342973375196523"><ele>244.0</ele><time>2026-03-28T14:23:09Z</time></trkpt><trkpt lat="43.29455918378454" lon="11.342912051175267"><ele>244.25</ele><time>2026-03-28T14:23:10Z</time></trkpt><trkpt lat="43.29468191874276" lon="11.342847216614853"><ele>244.5</ele><time>2026-03-28T14:23:11Z</time></trkpt><trkpt lat="43.294803876709956" lon="11.342777875499323"><ele>244.75</ele><time>2026-03-28T14:23:12Z</time></trkpt><trkpt lat="43.29492797802976" lon="11.342708426293518"><ele>245.0</ele><time>2026-03-28T14:23:13Z</time></trkpt><trkpt lat="43.29504815811855" lon="11.342630883916378"><ele>245.0</ele><time>2026-03-28T14:23:14Z</time></trkpt><trkpt lat="43.29515936230977" lon="11.342549240524516"><ele>245.0</ele><time>2026-03-28T14:23:15Z</time></trkpt><trkpt lat="43.295259588568015" lon="11.34247756700722"><ele>245.0</ele><time>2026-03-28T14:23:16Z</time></trkpt><trkpt lat="43.29536203291237" lon="11.34239168383227"><ele>245.0</ele><time>2026-03-28T14:23:17Z</time></trkpt><trkpt lat="43.29547297591322" lon="11.34231433684679"><ele>245.0</ele><time>2026-03-28T14:23:18Z</time></trkpt><trkpt lat="43.295569718593924" lon="11.342214093586769"><ele>245.0</ele><time>2026-03-28T14:23:19Z</time></trkpt><trkpt lat="43.295660660886156" lon="11.342106683790687"><ele>245.0</ele><time>2026-03-28T14:23:20Z</time></trkpt><trkpt lat="43.29574401948219" lon="11.341992101638587"><ele>245.0</ele><time>2026-03-28T14:23:21Z</time></trkpt><trkpt lat="43.29579895558262" lon="11.341867739923947"><ele>245.0</ele><time>2026-03-28T14:23:22Z</time></trkpt><trkpt lat="43.29584783414493" lon="11.341768002981867"><ele>245.0</ele><time>2026-03-28T14:23:23Z</time></trkpt><trkpt lat="43.295881367665466" lon="11.341687175475107"><ele>245.0</ele><time>2026-03-28T14:23:24Z</time></trkpt><trkpt lat="43.295926872320045" lon="11.341620345104127"><ele>245.0</ele><time>2026-03-28T14:23:25Z</time></trkpt><trkpt lat="43.29595587391461" lon="11.341514036185124"><ele>245.0</ele><time>2026-03-28T14:23:27Z</time></trkpt><trkpt lat="43.29579079481501" lon="11.341398376740175"><ele>245.0</ele><time>2026-03-28T14:23:28Z</time></trkpt><trkpt lat="43.29570069735206" lon="11.341387866315575"><ele>245.0</ele><time>2026-03-28T14:23:29Z</time></trkpt><trkpt lat="43.29559244155621" lon="11.341377278770137"><ele>245.0</ele><time>2026-03-28T14:23:30Z</time></trkpt><trkpt lat="43.295462687210936" lon="11.341342744149076"><ele>245.0</ele><time>2026-03-28T14:23:31Z</time></trkpt><trkpt lat="43.295348127545985" lon="11.341299234382479"><ele>242.75</ele><time>2026-03-28T14:23:32Z</time></trkpt><trkpt lat="43.29524067784378" lon="11.341240627237598"><ele>240.5</ele><time>2026-03-28T14:23:33Z</time></trkpt><trkpt lat="43.29513973663398" lon="11.341157674143588"><ele>238.25</ele><time>2026-03-28T14:23:34Z</time></trkpt><trkpt lat="43.295063280992125" lon="11.34104818833765"><ele>236.0</ele><time>2026-03-28T14:23:35Z</time></trkpt><trkpt lat="43.29501524719194" lon="11.340900433904572"><ele>236.0</ele><time>2026-03-28T14:23:36Z</time></trkpt><trkpt lat="43.29500147938185" lon="11.340730852108107"><ele>236.0</ele><time>2026-03-28T14:23:37Z</time></trkpt><trkpt lat="43.295011056070045" lon="11.340532347454584"><ele>236.0</ele><time>2026-03-28T14:23:38Z</time></trkpt><trkpt lat="43.295030249950784" lon="11.340326085106076"><ele>236.0</ele><time>2026-03-28T14:23:39Z</time></trkpt><trkpt lat="43.29504904898995" lon="11.340139042552982"><ele>234.66666666666669</ele><time>2026-03-28T14:23:40Z</time></trkpt><trkpt lat="43.29507285209768" lon="11.339956215744145"><ele>233.33333333333331</ele><time>2026-03-28T14:23:41Z</time></trkpt><trkpt lat="43.295123165522284" lon="11.33974409538997"><ele>232.0</ele><time>2026-03-28T14:23:42Z</time></trkpt><trkpt lat="43.29519615015468" lon="11.339512396728544"><ele>228.66666666666666</ele><time>2026-03-28T14:23:43Z</time></trkpt><trkpt lat="43.29528049176125" lon="11.339281724988737"><ele>225.33333333333331</ele><time>2026-03-28T14:23:44Z</time></trkpt><trkpt lat="43.295366920834354" lon="11.339081542038189"><ele>222.0</ele><time>2026-03-28T14:23:45Z</time></trkpt><trkpt lat="43.29546718426952" lon="11.33892145668575"><ele>222.66666666666669</ele><time>2026-03-28T14:23:46Z</time></trkpt><trkpt lat="43.29558764537045" lon="11.338793421554417"><ele>223.33333333333334</ele><time>2026-03-28T14:23:47Z</time></trkpt><trkpt lat="43.29573104050504" lon="11.338686108939818"><ele>224.0</ele><time>2026-03-28T14:23:48Z</time></trkpt><trkpt lat="43.29586871980437" lon="11.33861109192567"><ele>224.0</ele><time>2026-03-28T14:23:49Z</time></trkpt><trkpt lat="43.29600068057823" lon="11.338597731557387"><ele>224.0</ele><time>2026-03-28T14:23:50Z</time></trkpt><trkpt lat="43.29612672353475" lon="11.338617244520144"><ele>224.0</ele><time>2026-03-28T14:23:51Z</time></trkpt><trkpt lat="43.29623796078839" lon="11.338624608359604"><ele>224.0</ele><time>2026-03-28T14:23:52Z</time></trkpt><trkpt lat="43.29633560136384" lon="11.338595559231937"><ele>224.0</ele><time>2026-03-28T14:23:53Z</time></trkpt><trkpt lat="43.29641374589425" lon="11.338530191717828"><ele>223.99999999999997</ele><time>2026-03-28T14:23:54Z</time></trkpt><trkpt lat="43.29648029955017" lon="11.338430686081567"><ele>223.99999999999997</ele><time>2026-03-28T14:23:55Z</time></trkpt><trkpt lat="43.29652905628409" lon="11.338305649923907"><ele>224.0</ele><time>2026-03-28T14:23:56Z</time></trkpt><trkpt lat="43.29654408979305" lon="11.338148387748973"><ele>224.0</ele><time>2026-03-28T14:23:57Z</time></trkpt><trkpt lat="43.296511474901074" lon="11.337987933139921"><ele>224.5</ele><time>2026-03-28T14:23:58Z</time></trkpt><trkpt lat="43.29645412472201" lon="11.337846728359976"><ele>225.0</ele><time>2026-03-28T14:23:59Z</time></trkpt><trkpt lat="43.29636099332625" lon="11.337742423301618"><ele>225.5</ele><time>2026-03-28T14:24:00Z</time></trkpt><trkpt lat="43.2962565732477" lon="11.337658542587524"><ele>226.0</ele><time>2026-03-28T14:24:01Z</time></trkpt><trkpt lat="43.29615067811798" lon="11.33757496842607"><ele>224.25</ele><time>2026-03-28T14:24:02Z</time></trkpt><trkpt lat="43.296045492541964" lon="11.337493028426731"><ele>222.5</ele><time>2026-03-28T14:24:03Z</time></trkpt><trkpt lat="43.29593500538768" lon="11.337405060341359"><ele>220.75</ele><time>2026-03-28T14:24:04Z</time></trkpt><trkpt lat="43.29582364660207" lon="11.337312409007133"><ele>219.0</ele><time>2026-03-28T14:24:05Z</time></trkpt><trkpt lat="43.29571288753925" lon="11.337213558959919"><ele>218.5</ele><time>2026-03-28T14:24:06Z</time></trkpt><trkpt lat="43.295611748031725" lon="11.337115646012526"><ele>218.0</ele><time>2026-03-28T14:24:07Z</time></trkpt><trkpt lat="43.29551842083526" lon="11.337003433033322"><ele>217.5</ele><time>2026-03-28T14:24:08Z</time></trkpt><trkpt lat="43.29543473748797" lon="11.336871029033638"><ele>217.0</ele><time>2026-03-28T14:24:09Z</time></trkpt><trkpt lat="43.29536592472158" lon="11.33672517824698"><ele>216.0</ele><time>2026-03-28T14:24:10Z</time></trkpt><trkpt lat="43.29531620306453" lon="11.336571532160253"><ele>215.0</ele><time>2026-03-28T14:24:11Z</time></trkpt><trkpt lat="43.29528636889636" lon="11.336407620841568"><ele>214.0</ele><time>2026-03-28T14:24:12Z</time></trkpt><trkpt lat="43.29527952238302" lon="11.33624775030977"><ele>213.0</ele><time>2026-03-28T14:24:13Z</time></trkpt><trkpt lat="43.295292474319645" lon="11.336099499964265"><ele>212.75</ele><time>2026-03-28T14:24:14Z</time></trkpt><trkpt lat="43.29531959350159" lon="11.335950874567313"><ele>212.5</ele><time>2026-03-28T14:24:15Z</time></trkpt><trkpt lat="43.295357283864696" lon="11.335819394202982"><ele>212.25</ele><time>2026-03-28T14:24:16Z</time></trkpt><trkpt lat="43.2954225538968" lon="11.335683284073712"><ele>212.0</ele><time>2026-03-28T14:24:17Z</time></trkpt><trkpt lat="43.29550118756715" lon="11.3355415273377"><ele>212.25</ele><time>2026-03-28T14:24:18Z</time></trkpt><trkpt lat="43.295588100742584" lon="11.335409781876791"><ele>212.5</ele><time>2026-03-28T14:24:19Z</time></trkpt><trkpt lat="43.295667026685635" lon="11.33528461498205"><ele>212.75</ele><time>2026-03-28T14:24:20Z</time></trkpt><trkpt lat="43.29575604760209" lon="11.335145136572612"><ele>213.0</ele><time>2026-03-28T14:24:21Z</time></trkpt><trkpt lat="43.29585154297693" lon="11.335001516429006"><ele>213.0</ele><time>2026-03-28T14:24:22Z</time></trkpt><trkpt lat="43.29594122849605" lon="11.334860077903699"><ele>213.0</ele><time>2026-03-28T14:24:23Z</time></trkpt><trkpt lat="43.296029121119076" lon="11.334727190782775"><ele>213.0</ele><time>2026-03-28T14:24:24Z</time></trkpt><trkpt lat="43.29611213666818" lon="11.334604884847296"><ele>213.0</ele><time>2026-03-28T14:24:25Z</time></trkpt><trkpt lat="43.29618512888548" lon="11.33450663293125"><ele>213.0</ele><time>2026-03-28T14:24:26Z</time></trkpt><trkpt lat="43.29623632929454" lon="11.334374978105076"><ele>213.0</ele><time>2026-03-28T14:24:27Z</time></trkpt><trkpt lat="43.29632620348809" lon="11.334334855216285"><ele>213.0</ele><time>2026-03-28T14:24:28Z</time></trkpt><trkpt lat="43.296391001962135" lon="11.334265937768043"><ele>213.0</ele><time>2026-03-28T14:24:29Z</time></trkpt><trkpt lat="43.29643590178459" lon="11.334188137938403"><ele>213.0</ele><time>2026-03-28T14:24:30Z</time></trkpt><trkpt lat="43.296473151953066" lon="11.334115679468612"><ele>213.0</ele><time>2026-03-28T14:24:31Z</time></trkpt><trkpt lat="43.296498698641294" lon="11.33401776400156"><ele>213.2</ele><time>2026-03-28T14:24:32Z</time></trkpt><trkpt lat="43.29648626173787" lon="11.33389511207214"><ele>213.4</ele><time>2026-03-28T14:24:33Z</time></trkpt><trkpt lat="43.29648348340979" lon="11.333761715369997"><ele>213.59999999999997</ele><time>2026-03-28T14:24:34Z</time></trkpt><trkpt lat="43.29649864129936" lon="11.333625116301553"><ele>213.79999999999998</ele><time>2026-03-28T14:24:35Z</time></trkpt><trkpt lat="43.296533696304365" lon="11.333491210651859"><ele>214.0</ele><time>2026-03-28T14:24:36Z</time></trkpt><trkpt lat="43.29658885032979" lon="11.333352102836892"><ele>214.75</ele><time>2026-03-28T14:24:37Z</time></trkpt><trkpt lat="43.29665424694284" lon="11.333208533478096"><ele>215.5</ele><time>2026-03-28T14:24:38Z</time></trkpt><trkpt lat="43.29672242829003" lon="11.33308179918465"><ele>216.25</ele><time>2026-03-28T14:24:39Z</time></trkpt><trkpt lat="43.29679669593442" lon="11.33296825583678"><ele>217.0</ele><time>2026-03-28T14:24:40Z</time></trkpt><trkpt lat="43.29688240674196" lon="11.332863476921545"><ele>217.25</ele><time>2026-03-28T14:24:41Z</time></trkpt><trkpt lat="43.29698912346032" lon="11.332770058314404"><ele>217.5</ele><time>2026-03-28T14:24:42Z</time></trkpt><trkpt lat="43.29711039760687" lon="11.332697091199654"><ele>217.75</ele><time>2026-03-28T14:24:43Z</time></trkpt><trkpt lat="43.297247931122165" lon="11.332629198558433"><ele>218.0</ele><time>2026-03-28T14:24:44Z</time></trkpt><trkpt lat="43.297364277761346" lon="11.332575148137256"><ele>218.75</ele><time>2026-03-28T14:24:45Z</time></trkpt><trkpt lat="43.29746801315223" lon="11.332521834672344"><ele>219.5</ele><time>2026-03-28T14:24:46Z</time></trkpt><trkpt lat="43.2975724103455" lon="11.332458977845183"><ele>220.25</ele><time>2026-03-28T14:24:47Z</time></trkpt><trkpt lat="43.29767683672751" lon="11.332356289251898"><ele>221.0</ele><time>2026-03-28T14:24:48Z</time></trkpt><trkpt lat="43.29777282557137" lon="11.332216893205565"><ele>221.0</ele><time>2026-03-28T14:24:49Z</time></trkpt><trkpt lat="43.29785237609624" lon="11.332055941044691"><ele>221.0</ele><time>2026-03-28T14:24:50Z</time></trkpt><trkpt lat="43.29791725637464" lon="11.331897388829665"><ele>221.0</ele><time>2026-03-28T14:24:51Z</time></trkpt><trkpt lat="43.29796759057641" lon="11.331746762190695"><ele>221.0</ele><time>2026-03-28T14:24:52Z</time></trkpt><trkpt lat="43.29802635601356" lon="11.331602285454036"><ele>222.5</ele><time>2026-03-28T14:24:53Z</time></trkpt><trkpt lat="43.29808762407868" lon="11.331456335943141"><ele>224.0</ele><time>2026-03-28T14:24:54Z</time></trkpt><trkpt lat="43.29815468219328" lon="11.331304544775268"><ele>225.5</ele><time>2026-03-28T14:24:55Z</time></trkpt><trkpt lat="43.29822852608872" lon="11.331148916047175"><ele>227.0</ele><time>2026-03-28T14:24:56Z</time></trkpt><trkpt lat="43.29831149319214" lon="11.330994738114878"><ele>227.0</ele><time>2026-03-28T14:24:57Z</time></trkpt><trkpt lat="43.29840389693433" lon="11.330848774262451"><ele>227.0</ele><time>2026-03-28T14:24:58Z</time></trkpt><trkpt lat="43.298509456043625" lon="11.330706035811035"><ele>227.0</ele><time>2026-03-28T14:24:59Z</time></trkpt><trkpt lat="43.29861993948407" lon="11.330580532742815"><ele>227.0</ele><time>2026-03-28T14:25:00Z</time></trkpt><trkpt lat="43.29872811012304" lon="11.330472401612118"><ele>227.0</ele><time>2026-03-28T14:25:01Z</time></trkpt><trkpt lat="43.29882499746994" lon="11.330364475520554"><ele>227.0</ele><time>2026-03-28T14:25:02Z</time></trkpt><trkpt lat="43.29892653153159" lon="11.330247379924934"><ele>227.0</ele><time>2026-03-28T14:25:03Z</time></trkpt><trkpt lat="43.29903286031418" lon="11.330119757568557"><ele>227.0</ele><time>2026-03-28T14:25:04Z</time></trkpt><trkpt lat="43.29912606739431" lon="11.329962698500896"><ele>227.0</ele><time>2026-03-28T14:25:05Z</time></trkpt><trkpt lat="43.29921033152289" lon="11.329781660536018"><ele>227.0</ele><time>2026-03-28T14:25:06Z</time></trkpt><trkpt lat="43.29929634632589" lon="11.329586809608218"><ele>227.0</ele><time>2026-03-28T14:25:07Z</time></trkpt><trkpt lat="43.29938428284529" lon="11.32938289754511"><ele>226.33333333333334</ele><time>2026-03-28T14:25:08Z</time></trkpt><trkpt lat="43.29945504835523" lon="11.329182484290222"><ele>225.66666666666669</ele><time>2026-03-28T14:25:09Z</time></trkpt><trkpt lat="43.29951744329772" lon="11.328994035071782"><ele>225.0</ele><time>2026-03-28T14:25:10Z</time></trkpt><trkpt lat="43.29957513030746" lon="11.328815771617498"><ele>225.25</ele><time>2026-03-28T14:25:11Z</time></trkpt><trkpt lat="43.2996348951557" lon="11.328649596355021"><ele>225.5</ele><time>2026-03-28T14:25:12Z</time></trkpt><trkpt lat="43.29969525194979" lon="11.328484795981604"><ele>225.75</ele><time>2026-03-28T14:25:13Z</time></trkpt><trkpt lat="43.299760212718695" lon="11.328320449034328"><ele>226.0</ele><time>2026-03-28T14:25:14Z</time></trkpt><trkpt lat="43.29982095859403" lon="11.328173665694758"><ele>225.4</ele><time>2026-03-28T14:25:15Z</time></trkpt><trkpt lat="43.299874437495056" lon="11.328038849491449"><ele>224.8</ele><time>2026-03-28T14:25:16Z</time></trkpt><trkpt lat="43.29992068559857" lon="11.327924254062895"><ele>224.20000000000002</ele><time>2026-03-28T14:25:17Z</time></trkpt><trkpt lat="43.299958182683746" lon="11.327831864426598"><ele>223.60000000000002</ele><time>2026-03-28T14:25:18Z</time></trkpt><trkpt lat="43.30001654187189" lon="11.327716340105841"><ele>223.0</ele><time>2026-03-28T14:25:20Z</time></trkpt><trkpt lat="43.30008596240611" lon="11.32763614287775"><ele>223.0</ele><time>2026-03-28T14:25:23Z</time></trkpt><trkpt lat="43.300157588692336" lon="11.327548841561782"><ele>223.0</ele><time>2026-03-28T14:25:25Z</time></trkpt><trkpt lat="43.30025456211634" lon="11.32745995663834"><ele>223.0</ele><time>2026-03-28T14:25:27Z</time></trkpt><trkpt lat="43.3002872141471" lon="11.327370194732705"><ele>223.0</ele><time>2026-03-28T14:25:28Z</time></trkpt><trkpt lat="43.300305503323" lon="11.327227791680755"><ele>223.0</ele><time>2026-03-28T14:25:29Z</time></trkpt><trkpt lat="43.300371237665985" lon="11.327070587764421"><ele>222.75</ele><time>2026-03-28T14:25:30Z</time></trkpt><trkpt lat="43.300435574778184" lon="11.326879773487137"><ele>222.5</ele><time>2026-03-28T14:25:31Z</time></trkpt><trkpt lat="43.30050915158991" lon="11.326720239457176"><ele>222.25</ele><time>2026-03-28T14:25:32Z</time></trkpt><trkpt lat="43.30059098870026" lon="11.32654062110629"><ele>222.0</ele><time>2026-03-28T14:25:33Z</time></trkpt><trkpt lat="43.30066676510918" lon="11.326379520170446"><ele>222.8</ele><time>2026-03-28T14:25:34Z</time></trkpt><trkpt lat="43.30075148109799" lon="11.326247984555657"><ele>223.6</ele><time>2026-03-28T14:25:35Z</time></trkpt><trkpt lat="43.30085022856971" lon="11.326131584424191"><ele>224.40000000000003</ele><time>2026-03-28T14:25:36Z</time></trkpt><trkpt lat="43.30094464455645" lon="11.326062469601997"><ele>225.20000000000002</ele><time>2026-03-28T14:25:37Z</time></trkpt><trkpt lat="43.301010299533665" lon="11.3260163258795"><ele>226.0</ele><time>2026-03-28T14:25:38Z</time></trkpt><trkpt lat="43.30104331915803" lon="11.325923299018145"><ele>226.0</ele><time>2026-03-28T14:25:39Z</time></trkpt><trkpt lat="43.3010484217178" lon="11.325802080626401"><ele>226.00000000000003</ele><time>2026-03-28T14:25:40Z</time></trkpt><trkpt lat="43.30094375397328" lon="11.325635756248543"><ele>226.00000000000003</ele><time>2026-03-28T14:25:41Z</time></trkpt><trkpt lat="43.30084678779463" lon="11.325629601452256"><ele>226.0</ele><time>2026-03-28T14:25:42Z</time></trkpt><trkpt lat="43.30077374351146" lon="11.325723866476165"><ele>226.0</ele><time>2026-03-28T14:25:43Z</time></trkpt><trkpt lat="43.3007095092489" lon="11.32587122649472"><ele>226.0</ele><time>2026-03-28T14:25:45Z</time></trkpt><trkpt lat="43.30065252113676" lon="11.325955595368203"><ele>226.00000000000003</ele><time>2026-03-28T14:25:46Z</time></trkpt><trkpt lat="43.30054313166685" lon="11.326022155847978"><ele>226.00000000000003</ele><time>2026-03-28T14:25:48Z</time></trkpt><trkpt lat="43.300446612158694" lon="11.326027085393825"><ele>226.0</ele><time>2026-03-28T14:25:49Z</time></trkpt><trkpt lat="43.30036632921108" lon="11.325975385463348"><ele>226.0</ele><time>2026-03-28T14:25:50Z</time></trkpt><trkpt lat="43.30029329359508" lon="11.32590259134566"><ele>225.20000000000002</ele><time>2026-03-28T14:25:51Z</time></trkpt><trkpt lat="43.3002577065752" lon="11.325778171706359"><ele>224.40000000000003</ele><time>2026-03-28T14:25:52Z</time></trkpt><trkpt lat="43.300261961710746" lon="11.325643332985106"><ele>223.6</ele><time>2026-03-28T14:25:53Z</time></trkpt><trkpt lat="43.300303421674634" lon="11.32551312707534"><ele>222.8</ele><time>2026-03-28T14:25:54Z</time></trkpt><trkpt lat="43.30037396090312" lon="11.325389850917574"><ele>222.0</ele><time>2026-03-28T14:25:55Z</time></trkpt><trkpt lat="43.3004624546501" lon="11.325252777874486"><ele>222.0</ele><time>2026-03-28T14:25:56Z</time></trkpt><trkpt lat="43.30055201471519" lon="11.325084556295575"><ele>222.0</ele><time>2026-03-28T14:25:57Z</time></trkpt><trkpt lat="43.300669709550064" lon="11.324862898122943"><ele>222.0</ele><time>2026-03-28T14:25:58Z</time></trkpt><trkpt lat="43.30081808674792" lon="11.324569406514861"><ele>223.0</ele><time>2026-03-28T14:25:59Z</time></trkpt><trkpt lat="43.30100708794845" lon="11.324245334376972"><ele>224.0</ele><time>2026-03-28T14:26:00Z</time></trkpt><trkpt lat="43.30121853846246" lon="11.323892762164872"><ele>223.0</ele><time>2026-03-28T14:26:01Z</time></trkpt><trkpt lat="43.3014484310749" lon="11.323511878993179"><ele>222.0</ele><time>2026-03-28T14:26:02Z</time></trkpt><trkpt lat="43.30169493163521" lon="11.32311213957431"><ele>224.5</ele><time>2026-03-28T14:26:03Z</time></trkpt><trkpt lat="43.30194997593848" lon="11.322704925861022"><ele>227.0</ele><time>2026-03-28T14:26:04Z</time></trkpt><trkpt lat="43.302210260889105" lon="11.322300289115129"><ele>227.5</ele><time>2026-03-28T14:26:05Z</time></trkpt><trkpt lat="43.302441294248794" lon="11.321954150986164"><ele>228.0</ele><time>2026-03-28T14:26:06Z</time></trkpt><trkpt lat="43.30267199274068" lon="11.321630190050579"><ele>227.0</ele><time>2026-03-28T14:26:07Z</time></trkpt><trkpt lat="43.30289172902385" lon="11.321313199594394"><ele>226.0</ele><time>2026-03-28T14:26:08Z</time></trkpt><trkpt lat="43.30310787347623" lon="11.32100317045623"><ele>226.0</ele><time>2026-03-28T14:26:09Z</time></trkpt><trkpt lat="43.303318162410356" lon="11.320701026384954"><ele>226.0</ele><time>2026-03-28T14:26:10Z</time></trkpt><trkpt lat="43.30352342484114" lon="11.320395870042383"><ele>229.5</ele><time>2026-03-28T14:26:11Z</time></trkpt><trkpt lat="43.30372155575331" lon="11.320098511803058"><ele>233.0</ele><time>2026-03-28T14:26:12Z</time></trkpt><trkpt lat="43.303909425798466" lon="11.319801036029846"><ele>230.0</ele><time>2026-03-28T14:26:13Z</time></trkpt><trkpt lat="43.3040977683194" lon="11.319518685926791"><ele>227.0</ele><time>2026-03-28T14:26:14Z</time></trkpt><trkpt lat="43.304278643967336" lon="11.319251145209387"><ele>227.0</ele><time>2026-03-28T14:26:15Z</time></trkpt><trkpt lat="43.30444883494304" lon="11.319002924218903"><ele>227.0</ele><time>2026-03-28T14:26:16Z</time></trkpt><trkpt lat="43.30461060203179" lon="11.318751851070113"><ele>226.0</ele><time>2026-03-28T14:26:17Z</time></trkpt><trkpt lat="43.304774484979035" lon="11.318496776410433"><ele>225.0</ele><time>2026-03-28T14:26:18Z</time></trkpt><trkpt lat="43.30494286796219" lon="11.318242065986857"><ele>226.0</ele><time>2026-03-28T14:26:19Z</time></trkpt><trkpt lat="43.305115248542386" lon="11.31797852108273"><ele>227.0</ele><time>2026-03-28T14:26:20Z</time></trkpt><trkpt lat="43.30528840502621" lon="11.31772200807187"><ele>227.0</ele><time>2026-03-28T14:26:21Z</time></trkpt><trkpt lat="43.30546973720336" lon="11.317450724519164"><ele>227.0</ele><time>2026-03-28T14:26:22Z</time></trkpt><trkpt lat="43.30563842560422" lon="11.317194620578736"><ele>230.5</ele><time>2026-03-28T14:26:23Z</time></trkpt><trkpt lat="43.30579665143542" lon="11.316954439176103"><ele>234.0</ele><time>2026-03-28T14:26:24Z</time></trkpt><trkpt lat="43.30595275812236" lon="11.316728419255398"><ele>234.0</ele><time>2026-03-28T14:26:25Z</time></trkpt><trkpt lat="43.30610882238587" lon="11.316504730900542"><ele>234.0</ele><time>2026-03-28T14:26:26Z</time></trkpt><trkpt lat="43.306262002170236" lon="11.316291559997772"><ele>234.0</ele><time>2026-03-28T14:26:27Z</time></trkpt><trkpt lat="43.3064176871984" lon="11.316079225341115"><ele>233.66666666666669</ele><time>2026-03-28T14:26:28Z</time></trkpt><trkpt lat="43.30658119436257" lon="11.315878595603271"><ele>233.33333333333334</ele><time>2026-03-28T14:26:29Z</time></trkpt><trkpt lat="43.306745387643296" lon="11.315659935664296"><ele>233.0</ele><time>2026-03-28T14:26:30Z</time></trkpt><trkpt lat="43.30691461008084" lon="11.315446258802575"><ele>234.0</ele><time>2026-03-28T14:26:31Z</time></trkpt><trkpt lat="43.307101572794856" lon="11.315234007942324"><ele>235.0</ele><time>2026-03-28T14:26:32Z</time></trkpt><trkpt lat="43.307296565042684" lon="11.315024668714987"><ele>233.5</ele><time>2026-03-28T14:26:33Z</time></trkpt><trkpt lat="43.307497498860336" lon="11.314823192589287"><ele>232.0</ele><time>2026-03-28T14:26:34Z</time></trkpt><trkpt lat="43.30769720744046" lon="11.314631901799173"><ele>232.0</ele><time>2026-03-28T14:26:35Z</time></trkpt><trkpt lat="43.307902001157785" lon="11.314453989337812"><ele>232.0</ele><time>2026-03-28T14:26:36Z</time></trkpt><trkpt lat="43.30810676226025" lon="11.314276451223751"><ele>233.0</ele><time>2026-03-28T14:26:37Z</time></trkpt><trkpt lat="43.30832064322396" lon="11.3141064625933"><ele>234.0</ele><time>2026-03-28T14:26:38Z</time></trkpt><trkpt lat="43.308531737322205" lon="11.313932610284189"><ele>234.5</ele><time>2026-03-28T14:26:39Z</time></trkpt><trkpt lat="43.308753340308364" lon="11.31376418864296"><ele>235.0</ele><time>2026-03-28T14:26:40Z</time></trkpt><trkpt lat="43.30895125901476" lon="11.31358432677859"><ele>235.0</ele><time>2026-03-28T14:26:41Z</time></trkpt><trkpt lat="43.309155466015405" lon="11.3134054884333"><ele>235.0</ele><time>2026-03-28T14:26:42Z</time></trkpt><trkpt lat="43.309360566979215" lon="11.31322719020647"><ele>235.0</ele><time>2026-03-28T14:26:43Z</time></trkpt><trkpt lat="43.30956576243799" lon="11.313047607713417"><ele>235.0</ele><time>2026-03-28T14:26:44Z</time></trkpt><trkpt lat="43.309767950308284" lon="11.312866744960278"><ele>235.0</ele><time>2026-03-28T14:26:45Z</time></trkpt><trkpt lat="43.309970099090094" lon="11.312683255735518"><ele>235.0</ele><time>2026-03-28T14:26:46Z</time></trkpt><trkpt lat="43.310174191643995" lon="11.312504606533615"><ele>235.0</ele><time>2026-03-28T14:26:47Z</time></trkpt><trkpt lat="43.31037986714616" lon="11.312325591166887"><ele>235.0</ele><time>2026-03-28T14:26:48Z</time></trkpt><trkpt lat="43.310585142407355" lon="11.312143045449353"><ele>237.0</ele><time>2026-03-28T14:26:49Z</time></trkpt><trkpt lat="43.3107920168954" lon="11.311968995827266"><ele>239.0</ele><time>2026-03-28T14:26:50Z</time></trkpt><trkpt lat="43.310996429514134" lon="11.311787284083884"><ele>239.0</ele><time>2026-03-28T14:26:51Z</time></trkpt><trkpt lat="43.31119683906677" lon="11.311610506909917"><ele>239.0</ele><time>2026-03-28T14:26:52Z</time></trkpt><trkpt lat="43.31140345912184" lon="11.311445815710025"><ele>239.5</ele><time>2026-03-28T14:26:53Z</time></trkpt><trkpt lat="43.31160863630433" lon="11.311251420452152"><ele>240.0</ele><time>2026-03-28T14:26:54Z</time></trkpt><trkpt lat="43.311807671833755" lon="11.311047878458513"><ele>240.0</ele><time>2026-03-28T14:26:55Z</time></trkpt><trkpt lat="43.3120017934504" lon="11.310849150860092"><ele>240.0</ele><time>2026-03-28T14:26:56Z</time></trkpt><trkpt lat="43.3121959480639" lon="11.310641582376967"><ele>239.5</ele><time>2026-03-28T14:26:57Z</time></trkpt><trkpt lat="43.31238751824082" lon="11.31043066936892"><ele>239.0</ele><time>2026-03-28T14:26:58Z</time></trkpt><trkpt lat="43.312572046680344" lon="11.310205260088825"><ele>239.0</ele><time>2026-03-28T14:26:59Z</time></trkpt><trkpt lat="43.31275370451597" lon="11.309979723752456"><ele>239.0</ele><time>2026-03-28T14:27:00Z</time></trkpt><trkpt lat="43.31293695657566" lon="11.30975527917134"><ele>241.0</ele><time>2026-03-28T14:27:01Z</time></trkpt><trkpt lat="43.31311389994425" lon="11.309514792479316"><ele>243.0</ele><time>2026-03-28T14:27:02Z</time></trkpt><trkpt lat="43.31328810905301" lon="11.30927814864755"><ele>243.0</ele><time>2026-03-28T14:27:03Z</time></trkpt><trkpt lat="43.31346424388596" lon="11.309041192651142"><ele>243.0</ele><time>2026-03-28T14:27:04Z</time></trkpt><trkpt lat="43.31363911841155" lon="11.308800320501025"><ele>242.0</ele><time>2026-03-28T14:27:05Z</time></trkpt><trkpt lat="43.313801695468634" lon="11.308552227484759"><ele>241.0</ele><time>2026-03-28T14:27:06Z</time></trkpt><trkpt lat="43.31395942252558" lon="11.30829288211903"><ele>243.0</ele><time>2026-03-28T14:27:07Z</time></trkpt><trkpt lat="43.31411576199977" lon="11.308029457159625"><ele>245.0</ele><time>2026-03-28T14:27:08Z</time></trkpt><trkpt lat="43.31426899764876" lon="11.307760375480251"><ele>245.0</ele><time>2026-03-28T14:27:09Z</time></trkpt><trkpt lat="43.31442857993979" lon="11.307494422317932"><ele>245.0</ele><time>2026-03-28T14:27:10Z</time></trkpt><trkpt lat="43.31457778613291" lon="11.307222987324216"><ele>246.5</ele><time>2026-03-28T14:27:11Z</time></trkpt><trkpt lat="43.31472125605321" lon="11.30694633218011"><ele>248.0</ele><time>2026-03-28T14:27:12Z</time></trkpt><trkpt lat="43.31486280129242" lon="11.306670769884326"><ele>249.5</ele><time>2026-03-28T14:27:13Z</time></trkpt><trkpt lat="43.31500456032526" lon="11.306397443179328"><ele>251.0</ele><time>2026-03-28T14:27:14Z</time></trkpt><trkpt lat="43.315146352999406" lon="11.306123748195137"><ele>251.0</ele><time>2026-03-28T14:27:15Z</time></trkpt><trkpt lat="43.315287612972305" lon="11.305854087367331"><ele>251.0</ele><time>2026-03-28T14:27:16Z</time></trkpt><trkpt lat="43.31542928471464" lon="11.305587502122963"><ele>248.5</ele><time>2026-03-28T14:27:17Z</time></trkpt><trkpt lat="43.31557126290267" lon="11.305323313636645"><ele>246.0</ele><time>2026-03-28T14:27:18Z</time></trkpt><trkpt lat="43.31571383845762" lon="11.305056975738225"><ele>246.0</ele><time>2026-03-28T14:27:19Z</time></trkpt><trkpt lat="43.31585734233147" lon="11.304793941047032"><ele>246.0</ele><time>2026-03-28T14:27:20Z</time></trkpt><trkpt lat="43.31600674151135" lon="11.304537096321859"><ele>249.0</ele><time>2026-03-28T14:27:21Z</time></trkpt><trkpt lat="43.316165307932444" lon="11.304291350507434"><ele>252.0</ele><time>2026-03-28T14:27:22Z</time></trkpt><trkpt lat="43.31633248428605" lon="11.304043521438192"><ele>250.5</ele><time>2026-03-28T14:27:23Z</time></trkpt><trkpt lat="43.31650318679622" lon="11.303786069573333"><ele>249.0</ele><time>2026-03-28T14:27:24Z</time></trkpt><trkpt lat="43.31668336436237" lon="11.303531550780557"><ele>249.0</ele><time>2026-03-28T14:27:25Z</time></trkpt><trkpt lat="43.31687961119524" lon="11.303279146716772"><ele>249.0</ele><time>2026-03-28T14:27:26Z</time></trkpt><trkpt lat="43.31708413693407" lon="11.303021722866939"><ele>249.0</ele><time>2026-03-28T14:27:27Z</time></trkpt><trkpt lat="43.31730322759328" lon="11.302775367000043"><ele>249.0</ele><time>2026-03-28T14:27:28Z</time></trkpt><trkpt lat="43.31753436214027" lon="11.302529598113946"><ele>249.0</ele><time>2026-03-28T14:27:29Z</time></trkpt><trkpt lat="43.31778055526242" lon="11.302288251011051"><ele>249.0</ele><time>2026-03-28T14:27:30Z</time></trkpt><trkpt lat="43.3180223666751" lon="11.302064063801474"><ele>250.0</ele><time>2026-03-28T14:27:31Z</time></trkpt><trkpt lat="43.318273302360836" lon="11.30185096761065"><ele>251.0</ele><time>2026-03-28T14:27:32Z</time></trkpt><trkpt lat="43.318540700130555" lon="11.301633187124942"><ele>254.5</ele><time>2026-03-28T14:27:33Z</time></trkpt><trkpt lat="43.318822868713525" lon="11.301415413325483"><ele>258.0</ele><time>2026-03-28T14:27:34Z</time></trkpt><trkpt lat="43.31909745012769" lon="11.301223521784335"><ele>258.0</ele><time>2026-03-28T14:27:35Z</time></trkpt><trkpt lat="43.31936519934036" lon="11.30104609147645"><ele>258.0</ele><time>2026-03-28T14:27:36Z</time></trkpt><trkpt lat="43.31963288538607" lon="11.300866808346413"><ele>257.5</ele><time>2026-03-28T14:27:37Z</time></trkpt><trkpt lat="43.31990411110673" lon="11.300679179940762"><ele>257.0</ele><time>2026-03-28T14:27:38Z</time></trkpt><trkpt lat="43.32018108027616" lon="11.300484076400359"><ele>257.0</ele><time>2026-03-28T14:27:39Z</time></trkpt><trkpt lat="43.320473692769546" lon="11.300274616837658"><ele>257.0</ele><time>2026-03-28T14:27:40Z</time></trkpt><trkpt lat="43.320749758612145" lon="11.300069651615633"><ele>257.0</ele><time>2026-03-28T14:27:41Z</time></trkpt><trkpt lat="43.32101379209932" lon="11.299872525854465"><ele>257.0</ele><time>2026-03-28T14:27:42Z</time></trkpt><trkpt lat="43.32128345898353" lon="11.299691724190513"><ele>259.0</ele><time>2026-03-28T14:27:43Z</time></trkpt><trkpt lat="43.32155297235216" lon="11.299500956660742"><ele>261.0</ele><time>2026-03-28T14:27:44Z</time></trkpt><trkpt lat="43.32182032860136" lon="11.299307605691979"><ele>261.0</ele><time>2026-03-28T14:27:45Z</time></trkpt><trkpt lat="43.32209495640045" lon="11.299104640023875"><ele>261.0</ele><time>2026-03-28T14:27:46Z</time></trkpt><trkpt lat="43.32237444318091" lon="11.298900124087176"><ele>259.0</ele><time>2026-03-28T14:27:47Z</time></trkpt><trkpt lat="43.32264370400959" lon="11.298711416659168"><ele>257.0</ele><time>2026-03-28T14:27:48Z</time></trkpt><trkpt lat="43.32290769920049" lon="11.298526970062122"><ele>260.0</ele><time>2026-03-28T14:27:49Z</time></trkpt><trkpt lat="43.32317521009565" lon="11.298344401874294"><ele>263.0</ele><time>2026-03-28T14:27:50Z</time></trkpt><trkpt lat="43.32344761329628" lon="11.298149084286107"><ele>262.5</ele><time>2026-03-28T14:27:51Z</time></trkpt><trkpt lat="43.32372256727951" lon="11.29795537529337"><ele>262.0</ele><time>2026-03-28T14:27:52Z</time></trkpt><trkpt lat="43.323997172095204" lon="11.297759674615849"><ele>262.0</ele><time>2026-03-28T14:27:53Z</time></trkpt><trkpt lat="43.324272747437064" lon="11.29756657073479"><ele>262.0</ele><time>2026-03-28T14:27:54Z</time></trkpt><trkpt lat="43.32455270493626" lon="11.297373661626033"><ele>261.0</ele><time>2026-03-28T14:27:55Z</time></trkpt><trkpt lat="43.32484151292562" lon="11.29717522243002"><ele>260.0</ele><time>2026-03-28T14:27:56Z</time></trkpt><trkpt lat="43.32515029488831" lon="11.2969597807573"><ele>260.0</ele><time>2026-03-28T14:27:57Z</time></trkpt><trkpt lat="43.325471090815306" lon="11.296726820887256"><ele>260.0</ele><time>2026-03-28T14:27:58Z</time></trkpt><trkpt lat="43.3258055290679" lon="11.29649131797444"><ele>258.5</ele><time>2026-03-28T14:27:59Z</time></trkpt><trkpt lat="43.32614797372596" lon="11.296247883566542"><ele>257.0</ele><time>2026-03-28T14:28:00Z</time></trkpt><trkpt lat="43.326498782489516" lon="11.295993340458677"><ele>260.5</ele><time>2026-03-28T14:28:01Z</time></trkpt><trkpt lat="43.32687222939367" lon="11.29574153275533"><ele>264.0</ele><time>2026-03-28T14:28:02Z</time></trkpt><trkpt lat="43.327306561528125" lon="11.295532519613806"><ele>267.0</ele><time>2026-03-28T14:28:03Z</time></trkpt><trkpt lat="43.327742843195935" lon="11.295339057996053"><ele>267.0</ele><time>2026-03-28T14:28:04Z</time></trkpt><trkpt lat="43.32794917554277" lon="11.294818495856292"><ele>267.0</ele><time>2026-03-28T14:28:05Z</time></trkpt><trkpt lat="43.32828551248595" lon="11.294518032928881"><ele>266.5</ele><time>2026-03-28T14:28:06Z</time></trkpt><trkpt lat="43.328600611430836" lon="11.294235245617315"><ele>266.0</ele><time>2026-03-28T14:28:07Z</time></trkpt><trkpt lat="43.32890455864484" lon="11.293966648873628"><ele>267.5</ele><time>2026-03-28T14:28:08Z</time></trkpt><trkpt lat="43.32921495260785" lon="11.293689372050894"><ele>269.0</ele><time>2026-03-28T14:28:09Z</time></trkpt><trkpt lat="43.32953078867425" lon="11.293408340447165"><ele>268.5</ele><time>2026-03-28T14:28:10Z</time></trkpt><trkpt lat="43.329822944570246" lon="11.293149799311925"><ele>268.0</ele><time>2026-03-28T14:28:11Z</time></trkpt><trkpt lat="43.330099400208944" lon="11.292903761106398"><ele>268.0</ele><time>2026-03-28T14:28:12Z</time></trkpt><trkpt lat="43.33036570232664" lon="11.29267533678164"><ele>268.0</ele><time>2026-03-28T14:28:13Z</time></trkpt><trkpt lat="43.330633157552874" lon="11.29246019472927"><ele>268.0</ele><time>2026-03-28T14:28:14Z</time></trkpt><trkpt lat="43.33089145249218" lon="11.292262922905012"><ele>268.0</ele><time>2026-03-28T14:28:15Z</time></trkpt><trkpt lat="43.33115792834757" lon="11.292091292231563"><ele>271.0</ele><time>2026-03-28T14:28:16Z</time></trkpt><trkpt lat="43.33144182057611" lon="11.291939305714777"><ele>274.0</ele><time>2026-03-28T14:28:17Z</time></trkpt><trkpt lat="43.331732494504145" lon="11.291797437155152"><ele>274.0</ele><time>2026-03-28T14:28:18Z</time></trkpt><trkpt lat="43.33202788252908" lon="11.291679991634833"><ele>274.0</ele><time>2026-03-28T14:28:19Z</time></trkpt><trkpt lat="43.33232282786255" lon="11.291575319708647"><ele>278.5</ele><time>2026-03-28T14:28:20Z</time></trkpt><trkpt lat="43.332611486904995" lon="11.291502770364295"><ele>283.0</ele><time>2026-03-28T14:28:21Z</time></trkpt><trkpt lat="43.33289124106556" lon="11.291456433345902"><ele>281.0</ele><time>2026-03-28T14:28:22Z</time></trkpt><trkpt lat="43.33316740655668" lon="11.291418834308336"><ele>279.0</ele><time>2026-03-28T14:28:23Z</time></trkpt><trkpt lat="43.33344286405147" lon="11.291387447164857"><ele>279.0</ele><time>2026-03-28T14:28:24Z</time></trkpt><trkpt lat="43.33372660930464" lon="11.291380877851688"><ele>279.0</ele><time>2026-03-28T14:28:25Z</time></trkpt><trkpt lat="43.33401189881046" lon="11.29139961298364"><ele>286.0</ele><time>2026-03-28T14:28:26Z</time></trkpt><trkpt lat="43.33428606827202" lon="11.291440611389385"><ele>293.0</ele><time>2026-03-28T14:28:27Z</time></trkpt><trkpt lat="43.334553661858735" lon="11.291509291477189"><ele>295.5</ele><time>2026-03-28T14:28:28Z</time></trkpt><trkpt lat="43.3348160961021" lon="11.291578452096223"><ele>298.0</ele><time>2026-03-28T14:28:29Z</time></trkpt><trkpt lat="43.33505670255424" lon="11.291645536649598"><ele>298.0</ele><time>2026-03-28T14:28:30Z</time></trkpt><trkpt lat="43.33529231468238" lon="11.291722569249512"><ele>298.0</ele><time>2026-03-28T14:28:31Z</time></trkpt><trkpt lat="43.33553592070064" lon="11.291826036851013"><ele>299.0</ele><time>2026-03-28T14:28:32Z</time></trkpt><trkpt lat="43.335775531670826" lon="11.291968686713309"><ele>300.0</ele><time>2026-03-28T14:28:33Z</time></trkpt><trkpt lat="43.33603298981674" lon="11.29211061678534"><ele>301.5</ele><time>2026-03-28T14:28:34Z</time></trkpt><trkpt lat="43.336292499119764" lon="11.292268649298146"><ele>303.0</ele><time>2026-03-28T14:28:35Z</time></trkpt><trkpt lat="43.336578535291785" lon="11.292429914401767"><ele>303.0</ele><time>2026-03-28T14:28:36Z</time></trkpt><trkpt lat="43.33686021896317" lon="11.29259800869721"><ele>303.0</ele><time>2026-03-28T14:28:37Z</time></trkpt><trkpt lat="43.33716191471574" lon="11.292770234586124"><ele>304.0</ele><time>2026-03-28T14:28:38Z</time></trkpt><trkpt lat="43.33747261474592" lon="11.292952802730007"><ele>305.0</ele><time>2026-03-28T14:28:39Z</time></trkpt><trkpt lat="43.337786027583434" lon="11.293141147988266"><ele>311.0</ele><time>2026-03-28T14:28:40Z</time></trkpt><trkpt lat="43.3381073746805" lon="11.293324303166347"><ele>317.0</ele><time>2026-03-28T14:28:41Z</time></trkpt><trkpt lat="43.338440625964815" lon="11.293512362651931"><ele>317.0</ele><time>2026-03-28T14:28:42Z</time></trkpt><trkpt lat="43.33876217940613" lon="11.293700196079177"><ele>317.0</ele><time>2026-03-28T14:28:43Z</time></trkpt><trkpt lat="43.33907024907517" lon="11.293882257101451"><ele>323.0</ele><time>2026-03-28T14:28:44Z</time></trkpt><trkpt lat="43.33938855191619" lon="11.294076408859173"><ele>329.0</ele><time>2026-03-28T14:28:45Z</time></trkpt><trkpt lat="43.33971215306879" lon="11.294270374620675"><ele>334.5</ele><time>2026-03-28T14:28:46Z</time></trkpt><trkpt lat="43.340046644761266" lon="11.294465532294758"><ele>340.0</ele><time>2026-03-28T14:28:47Z</time></trkpt><trkpt lat="43.340373997878615" lon="11.294654043812077"><ele>340.0</ele><time>2026-03-28T14:28:48Z</time></trkpt><trkpt lat="43.3406918060167" lon="11.294837917141237"><ele>340.0</ele><time>2026-03-28T14:28:49.012Z</time></trkpt><trkpt lat="43.341008149827196" lon="11.295020648861168"><ele>340.0</ele><time>2026-03-28T14:28:50.014Z</time></trkpt><trkpt lat="43.341316902540775" lon="11.295197554655136"><ele>340.0</ele><time>2026-03-28T14:28:51.014Z</time></trkpt><trkpt lat="43.341617702178134" lon="11.295359229409298"><ele>340.0</ele><time>2026-03-28T14:28:52Z</time></trkpt><trkpt lat="43.34173590656111" lon="11.295517816868266"><ele>340.0</ele><time>2026-03-28T14:28:53Z</time></trkpt><trkpt lat="43.34199068773848" lon="11.295736925832152"><ele>335.5</ele><time>2026-03-28T14:28:54Z</time></trkpt><trkpt lat="43.34224918122453" lon="11.29597129582095"><ele>331.0</ele><time>2026-03-28T14:28:55Z</time></trkpt><trkpt lat="43.34250244646865" lon="11.296225254049176"><ele>330.0</ele><time>2026-03-28T14:28:56Z</time></trkpt><trkpt lat="43.342756397896466" lon="11.29648195365898"><ele>329.0</ele><time>2026-03-28T14:28:57Z</time></trkpt><trkpt lat="43.343016082310875" lon="11.296736096972234"><ele>337.0</ele><time>2026-03-28T14:28:58Z</time></trkpt><trkpt lat="43.34329173581219" lon="11.296993352106183"><ele>345.0</ele><time>2026-03-28T14:28:59Z</time></trkpt><trkpt lat="43.34357874498897" lon="11.297260686888032"><ele>347.0</ele><time>2026-03-28T14:29:00Z</time></trkpt><trkpt lat="43.34387020960751" lon="11.297532351466122"><ele>349.0</ele><time>2026-03-28T14:29:01.015Z</time></trkpt><trkpt lat="43.34416081154364" lon="11.297801328594955"><ele>353.5</ele><time>2026-03-28T14:29:02.024Z</time></trkpt><trkpt lat="43.34444242621678" lon="11.298065532118944"><ele>358.0</ele><time>2026-03-28T14:29:03.02Z</time></trkpt><trkpt lat="43.344735076785206" lon="11.298355628542268"><ele>358.0</ele><time>2026-03-28T14:29:04.025Z</time></trkpt><trkpt lat="43.345030254599536" lon="11.29864850958221"><ele>358.0</ele><time>2026-03-28T14:29:05.022Z</time></trkpt><trkpt lat="43.346398932575504" lon="11.300097203678128"><ele>343.5</ele><time>2026-03-28T14:29:10Z</time></trkpt><trkpt lat="43.34669766883952" lon="11.300256327098774"><ele>329.0</ele><time>2026-03-28T14:29:11Z</time></trkpt><trkpt lat="43.34695890975106" lon="11.300460189259468"><ele>326.5</ele><time>2026-03-28T14:29:12Z</time></trkpt><trkpt lat="43.34724073982056" lon="11.300642672961688"><ele>324.0</ele><time>2026-03-28T14:29:13Z</time></trkpt><trkpt lat="43.347540205718154" lon="11.300814207963269"><ele>324.0</ele><time>2026-03-28T14:29:14Z</time></trkpt><trkpt lat="43.34783770508596" lon="11.300977203263313"><ele>324.0</ele><time>2026-03-28T14:29:15Z</time></trkpt><trkpt lat="43.34812123538838" lon="11.301144126598727"><ele>325.0</ele><time>2026-03-28T14:29:16Z</time></trkpt><trkpt lat="43.34840271602663" lon="11.301309556909352"><ele>326.0</ele><time>2026-03-28T14:29:17Z</time></trkpt><trkpt lat="43.34868350443625" lon="11.301472027054018"><ele>318.5</ele><time>2026-03-28T14:29:18Z</time></trkpt><trkpt lat="43.348963280229185" lon="11.301629614384765"><ele>311.0</ele><time>2026-03-28T14:29:19Z</time></trkpt><trkpt lat="43.34925125713745" lon="11.30179713010187"><ele>311.0</ele><time>2026-03-28T14:29:20Z</time></trkpt><trkpt lat="43.349546532695854" lon="11.30196724620348"><ele>311.0</ele><time>2026-03-28T14:29:21Z</time></trkpt><trkpt lat="43.34985144149735" lon="11.302141319406243"><ele>313.0</ele><time>2026-03-28T14:29:22Z</time></trkpt><trkpt lat="43.350162071228795" lon="11.302319992984316"><ele>315.0</ele><time>2026-03-28T14:29:23Z</time></trkpt><trkpt lat="43.35048433036631" lon="11.302502867472558"><ele>313.0</ele><time>2026-03-28T14:29:24Z</time></trkpt><trkpt lat="43.35080943858377" lon="11.302688640380344"><ele>311.0</ele><time>2026-03-28T14:29:25Z</time></trkpt><trkpt lat="43.35115313367332" lon="11.30288916397947"><ele>303.5</ele><time>2026-03-28T14:29:26Z</time></trkpt><trkpt lat="43.35151184512941" lon="11.303094535745016"><ele>296.0</ele><time>2026-03-28T14:29:27Z</time></trkpt><trkpt lat="43.351887633902976" lon="11.303307083945946"><ele>297.5</ele><time>2026-03-28T14:29:28Z</time></trkpt><trkpt lat="43.352273417367584" lon="11.303529110945718"><ele>299.0</ele><time>2026-03-28T14:29:29Z</time></trkpt><trkpt lat="43.35265127823071" lon="11.303741096398921"><ele>296.5</ele><time>2026-03-28T14:29:30Z</time></trkpt><trkpt lat="43.352985823009604" lon="11.30393444984348"><ele>294.0</ele><time>2026-03-28T14:29:31Z</time></trkpt><trkpt lat="43.35331272937979" lon="11.304114583135014"><ele>294.0</ele><time>2026-03-28T14:29:32Z</time></trkpt><trkpt lat="43.353642112132135" lon="11.304294384456915"><ele>294.0</ele><time>2026-03-28T14:29:33Z</time></trkpt><trkpt lat="43.3539619412503" lon="11.304464702737642"><ele>292.0</ele><time>2026-03-28T14:29:34Z</time></trkpt><trkpt lat="43.35427308920306" lon="11.304606823384114"><ele>290.0</ele><time>2026-03-28T14:29:35Z</time></trkpt><trkpt lat="43.3545915499225" lon="11.304735696089018"><ele>293.5</ele><time>2026-03-28T14:29:36Z</time></trkpt><trkpt lat="43.3549147019997" lon="11.304842353837568"><ele>297.0</ele><time>2026-03-28T14:29:37Z</time></trkpt><trkpt lat="43.35523967319088" lon="11.30492588777194"><ele>298.0</ele><time>2026-03-28T14:29:38Z</time></trkpt><trkpt lat="43.35556725966156" lon="11.304979909732744"><ele>299.0</ele><time>2026-03-28T14:29:39Z</time></trkpt><trkpt lat="43.35590171959024" lon="11.305005142340383"><ele>299.0</ele><time>2026-03-28T14:29:40Z</time></trkpt><trkpt lat="43.35623393977083" lon="11.30501756071983"><ele>299.0</ele><time>2026-03-28T14:29:41Z</time></trkpt><trkpt lat="43.356566144332604" lon="11.305013235146639"><ele>298.0</ele><time>2026-03-28T14:29:42Z</time></trkpt><trkpt lat="43.356895085518275" lon="11.304973584864065"><ele>297.0</ele><time>2026-03-28T14:29:43Z</time></trkpt><trkpt lat="43.35723054181536" lon="11.30491571440999"><ele>297.0</ele><time>2026-03-28T14:29:44Z</time></trkpt><trkpt lat="43.35759311851155" lon="11.304835799560454"><ele>297.0</ele><time>2026-03-28T14:29:45Z</time></trkpt><trkpt lat="43.357966180444656" lon="11.304752442656369"><ele>292.0</ele><time>2026-03-28T14:29:46Z</time></trkpt><trkpt lat="43.35832464650318" lon="11.30466488515646"><ele>287.0</ele><time>2026-03-28T14:29:47Z</time></trkpt><trkpt lat="43.358690304884774" lon="11.304581877664132"><ele>287.5</ele><time>2026-03-28T14:29:48Z</time></trkpt><trkpt lat="43.359069965111956" lon="11.304494759780365"><ele>288.0</ele><time>2026-03-28T14:29:49Z</time></trkpt><trkpt lat="43.35946860679001" lon="11.304404677018438"><ele>288.0</ele><time>2026-03-28T14:29:50Z</time></trkpt><trkpt lat="43.359888523172295" lon="11.30437357569787"><ele>288.0</ele><time>2026-03-28T14:29:51Z</time></trkpt><trkpt lat="43.36033149166823" lon="11.304400415346372"><ele>290.0</ele><time>2026-03-28T14:29:52Z</time></trkpt><trkpt lat="43.360769020882515" lon="11.304468290660846"><ele>292.0</ele><time>2026-03-28T14:29:53Z</time></trkpt><trkpt lat="43.36103540570493" lon="11.304028977194239"><ele>292.0</ele><time>2026-03-28T14:29:54Z</time></trkpt><trkpt lat="43.36138754060927" lon="11.3039438248673"><ele>292.0</ele><time>2026-03-28T14:29:55Z</time></trkpt><trkpt lat="43.361750044472466" lon="11.30385491422533"><ele>288.0</ele><time>2026-03-28T14:29:56Z</time></trkpt><trkpt lat="43.3620830747176" lon="11.3037707971584"><ele>284.0</ele><time>2026-03-28T14:29:57Z</time></trkpt><trkpt lat="43.36239822903604" lon="11.303696949211613"><ele>284.0</ele><time>2026-03-28T14:29:58Z</time></trkpt><trkpt lat="43.36270276016759" lon="11.30361761439825"><ele>284.0</ele><time>2026-03-28T14:29:59Z</time></trkpt><trkpt lat="43.36300048283915" lon="11.303531309584411"><ele>288.5</ele><time>2026-03-28T14:30:00Z</time></trkpt><trkpt lat="43.3632723956147" lon="11.303426151374659"><ele>293.0</ele><time>2026-03-28T14:30:01Z</time></trkpt><trkpt lat="43.36353556782307" lon="11.303305917536594"><ele>293.0</ele><time>2026-03-28T14:30:02Z</time></trkpt><trkpt lat="43.36378405865191" lon="11.303172579884665"><ele>293.0</ele><time>2026-03-28T14:30:03Z</time></trkpt><trkpt lat="43.364024667914116" lon="11.303030656876928"><ele>291.5</ele><time>2026-03-28T14:30:04Z</time></trkpt><trkpt lat="43.36426751822921" lon="11.302878833297768"><ele>290.0</ele><time>2026-03-28T14:30:05Z</time></trkpt><trkpt lat="43.36450674043208" lon="11.302702123872816"><ele>289.0</ele><time>2026-03-28T14:30:06Z</time></trkpt><trkpt lat="43.3647378743787" lon="11.302511811689495"><ele>288.0</ele><time>2026-03-28T14:30:07Z</time></trkpt><trkpt lat="43.36496387426702" lon="11.302309176717815"><ele>285.5</ele><time>2026-03-28T14:30:08Z</time></trkpt><trkpt lat="43.36517600904267" lon="11.302100050211534"><ele>283.0</ele><time>2026-03-28T14:30:09Z</time></trkpt><trkpt lat="43.36538196269042" lon="11.301878460038926"><ele>285.5</ele><time>2026-03-28T14:30:10Z</time></trkpt><trkpt lat="43.365571816186865" lon="11.301641745747535"><ele>288.0</ele><time>2026-03-28T14:30:11Z</time></trkpt><trkpt lat="43.365753222619915" lon="11.301391915483132"><ele>288.0</ele><time>2026-03-28T14:30:12Z</time></trkpt><trkpt lat="43.365931676997015" lon="11.301118947944136"><ele>288.0</ele><time>2026-03-28T14:30:13Z</time></trkpt><trkpt lat="43.36609988785679" lon="11.300829342150866"><ele>287.0</ele><time>2026-03-28T14:30:14Z</time></trkpt><trkpt lat="43.36626399921027" lon="11.300514890717952"><ele>286.0</ele><time>2026-03-28T14:30:15Z</time></trkpt><trkpt lat="43.3664102060416" lon="11.300153210398285"><ele>286.0</ele><time>2026-03-28T14:30:16Z</time></trkpt><trkpt lat="43.36657371358149" lon="11.29981767299466"><ele>286.0</ele><time>2026-03-28T14:30:17Z</time></trkpt><trkpt lat="43.36672473461573" lon="11.299485814502464"><ele>286.0</ele><time>2026-03-28T14:30:18Z</time></trkpt><trkpt lat="43.36686943252876" lon="11.299158690419294"><ele>286.0</ele><time>2026-03-28T14:30:19Z</time></trkpt><trkpt lat="43.3670143754524" lon="11.298822208643344"><ele>281.5</ele><time>2026-03-28T14:30:20Z</time></trkpt><trkpt lat="43.367155551655664" lon="11.298437070624813"><ele>277.0</ele><time>2026-03-28T14:30:21Z</time></trkpt><trkpt lat="43.36728917202609" lon="11.298024675554064"><ele>275.0</ele><time>2026-03-28T14:30:22Z</time></trkpt><trkpt lat="43.36740288313103" lon="11.297606187791086"><ele>273.0</ele><time>2026-03-28T14:30:23Z</time></trkpt><trkpt lat="43.36748975203267" lon="11.29714172670355"><ele>271.0</ele><time>2026-03-28T14:30:24Z</time></trkpt><trkpt lat="43.36756496689574" lon="11.296644193740875"><ele>269.0</ele><time>2026-03-28T14:30:25Z</time></trkpt><trkpt lat="43.36763509377116" lon="11.296162737648014"><ele>269.0</ele><time>2026-03-28T14:30:26Z</time></trkpt><trkpt lat="43.3677036924715" lon="11.295714283476944"><ele>269.0</ele><time>2026-03-28T14:30:27Z</time></trkpt><trkpt lat="43.367777400717806" lon="11.295271527849296"><ele>269.0</ele><time>2026-03-28T14:30:28Z</time></trkpt><trkpt lat="43.367856874118395" lon="11.29480528272616"><ele>269.0</ele><time>2026-03-28T14:30:29Z</time></trkpt><trkpt lat="43.3679370148778" lon="11.294344467441144"><ele>271.5</ele><time>2026-03-28T14:30:30Z</time></trkpt><trkpt lat="43.368010635580426" lon="11.293928742916833"><ele>274.0</ele><time>2026-03-28T14:30:31Z</time></trkpt><trkpt lat="43.36808381949305" lon="11.293548897130703"><ele>274.0</ele><time>2026-03-28T14:30:32Z</time></trkpt><trkpt lat="43.368148991500014" lon="11.293134042891868"><ele>274.0</ele><time>2026-03-28T14:30:33Z</time></trkpt><trkpt lat="43.36822402841404" lon="11.292734298467238"><ele>274.0</ele><time>2026-03-28T14:30:34Z</time></trkpt><trkpt lat="43.368309989618936" lon="11.292339847984184"><ele>274.0</ele><time>2026-03-28T14:30:35Z</time></trkpt><trkpt lat="43.368409346857206" lon="11.29195792809972"><ele>269.0</ele><time>2026-03-28T14:30:36Z</time></trkpt><trkpt lat="43.36851913524453" lon="11.291585794246881"><ele>264.0</ele><time>2026-03-28T14:30:37Z</time></trkpt><trkpt lat="43.368646564302985" lon="11.291223669675338"><ele>264.0</ele><time>2026-03-28T14:30:38Z</time></trkpt><trkpt lat="43.36878864923123" lon="11.290862079409186"><ele>264.0</ele><time>2026-03-28T14:30:39Z</time></trkpt><trkpt lat="43.36893811405456" lon="11.290515774590826"><ele>264.0</ele><time>2026-03-28T14:30:40Z</time></trkpt><trkpt lat="43.36910138458313" lon="11.290182247531929"><ele>264.0</ele><time>2026-03-28T14:30:41Z</time></trkpt><trkpt lat="43.369277683251696" lon="11.289851099831393"><ele>262.0</ele><time>2026-03-28T14:30:42Z</time></trkpt><trkpt lat="43.369470715890586" lon="11.28952665149108"><ele>260.0</ele><time>2026-03-28T14:30:43Z</time></trkpt><trkpt lat="43.36968569321556" lon="11.28921020453352"><ele>259.5</ele><time>2026-03-28T14:30:44Z</time></trkpt><trkpt lat="43.36991362808583" lon="11.288904009342811"><ele>259.0</ele><time>2026-03-28T14:30:45Z</time></trkpt><trkpt lat="43.370141778529835" lon="11.288620178680011"><ele>259.0</ele><time>2026-03-28T14:30:46Z</time></trkpt><trkpt lat="43.3703778127634" lon="11.28836242096377"><ele>259.0</ele><time>2026-03-28T14:30:47Z</time></trkpt><trkpt lat="43.37062800201327" lon="11.288124046445763"><ele>257.5</ele><time>2026-03-28T14:30:48Z</time></trkpt><trkpt lat="43.370886881911325" lon="11.287909369761682"><ele>256.0</ele><time>2026-03-28T14:30:49Z</time></trkpt><trkpt lat="43.371155230386" lon="11.287711045229655"><ele>260.5</ele><time>2026-03-28T14:30:50Z</time></trkpt><trkpt lat="43.37142660075188" lon="11.287528462914567"><ele>265.0</ele><time>2026-03-28T14:30:51Z</time></trkpt><trkpt lat="43.371707857997535" lon="11.287361701383421"><ele>258.0</ele><time>2026-03-28T14:30:52Z</time></trkpt><trkpt lat="43.37199497980748" lon="11.287226108308577"><ele>251.0</ele><time>2026-03-28T14:30:53Z</time></trkpt><trkpt lat="43.37228945237333" lon="11.287105568196429"><ele>251.0</ele><time>2026-03-28T14:30:54Z</time></trkpt><trkpt lat="43.3725939906795" lon="11.287006647871294"><ele>251.0</ele><time>2026-03-28T14:30:55Z</time></trkpt><trkpt lat="43.372910452956205" lon="11.286912323910258"><ele>252.5</ele><time>2026-03-28T14:30:56Z</time></trkpt><trkpt lat="43.373243680965686" lon="11.286812204690307"><ele>254.0</ele><time>2026-03-28T14:30:57Z</time></trkpt><trkpt lat="43.37359291765329" lon="11.286704628471657"><ele>255.0</ele><time>2026-03-28T14:30:58Z</time></trkpt><trkpt lat="43.37395837324948" lon="11.286587244251752"><ele>256.0</ele><time>2026-03-28T14:30:59Z</time></trkpt><trkpt lat="43.374340267279315" lon="11.286473706947884"><ele>253.0</ele><time>2026-03-28T14:31:00Z</time></trkpt><trkpt lat="43.37473826129158" lon="11.286359200607532"><ele>250.0</ele><time>2026-03-28T14:31:01Z</time></trkpt><trkpt lat="43.37516614484728" lon="11.286191503703835"><ele>250.5</ele><time>2026-03-28T14:31:02Z</time></trkpt><trkpt lat="43.375572447858104" lon="11.285988049314328"><ele>251.0</ele><time>2026-03-28T14:31:03Z</time></trkpt><trkpt lat="43.375883343617666" lon="11.286022675975543"><ele>251.0</ele><time>2026-03-28T14:31:04Z</time></trkpt><trkpt lat="43.37622061730856" lon="11.285917954292575"><ele>251.0</ele><time>2026-03-28T14:31:05Z</time></trkpt><trkpt lat="43.37654618762352" lon="11.285822460576707"><ele>252.0</ele><time>2026-03-28T14:31:06Z</time></trkpt><trkpt lat="43.376854287749296" lon="11.285736927399281"><ele>253.0</ele><time>2026-03-28T14:31:07Z</time></trkpt><trkpt lat="43.37715648792395" lon="11.28563843978858"><ele>244.5</ele><time>2026-03-28T14:31:08Z</time></trkpt><trkpt lat="43.37744900831381" lon="11.285530741157233"><ele>236.0</ele><time>2026-03-28T14:31:09Z</time></trkpt><trkpt lat="43.37772773379372" lon="11.285408993388462"><ele>236.0</ele><time>2026-03-28T14:31:10Z</time></trkpt><trkpt lat="43.378006676287924" lon="11.285267084130865"><ele>236.0</ele><time>2026-03-28T14:31:11Z</time></trkpt><trkpt lat="43.378276428544794" lon="11.285092194553574"><ele>236.5</ele><time>2026-03-28T14:31:12Z</time></trkpt><trkpt lat="43.37853215738686" lon="11.284894620985321"><ele>237.0</ele><time>2026-03-28T14:31:13Z</time></trkpt><trkpt lat="43.378785967117246" lon="11.284669516850458"><ele>241.5</ele><time>2026-03-28T14:31:14Z</time></trkpt><trkpt lat="43.37903353666474" lon="11.284411513078764"><ele>246.0</ele><time>2026-03-28T14:31:15Z</time></trkpt><trkpt lat="43.3792588646894" lon="11.284130555568174"><ele>247.0</ele><time>2026-03-28T14:31:16Z</time></trkpt><trkpt lat="43.37947819114676" lon="11.283816083494767"><ele>248.0</ele><time>2026-03-28T14:31:17Z</time></trkpt><trkpt lat="43.37969061124334" lon="11.283485998158556"><ele>248.0</ele><time>2026-03-28T14:31:18Z</time></trkpt><trkpt lat="43.37989362182134" lon="11.283131659356481"><ele>248.0</ele><time>2026-03-28T14:31:19Z</time></trkpt><trkpt lat="43.38008398219782" lon="11.282751174627297"><ele>245.0</ele><time>2026-03-28T14:31:20Z</time></trkpt><trkpt lat="43.38027583831025" lon="11.282338295510005"><ele>242.0</ele><time>2026-03-28T14:31:21Z</time></trkpt><trkpt lat="43.380471304396735" lon="11.281917445408343"><ele>243.5</ele><time>2026-03-28T14:31:22Z</time></trkpt><trkpt lat="43.3806732548979" lon="11.281487012397278"><ele>245.0</ele><time>2026-03-28T14:31:23Z</time></trkpt><trkpt lat="43.38086926016993" lon="11.281066572058524"><ele>241.0</ele><time>2026-03-28T14:31:24Z</time></trkpt><trkpt lat="43.38105850704092" lon="11.280666609848254"><ele>237.0</ele><time>2026-03-28T14:31:25Z</time></trkpt><trkpt lat="43.38125153002492" lon="11.280258496173937"><ele>240.5</ele><time>2026-03-28T14:31:26Z</time></trkpt><trkpt lat="43.38145624411575" lon="11.279818365309298"><ele>244.0</ele><time>2026-03-28T14:31:27Z</time></trkpt><trkpt lat="43.381673515618445" lon="11.279375249015033"><ele>239.0</ele><time>2026-03-28T14:31:28Z</time></trkpt><trkpt lat="43.38189535770743" lon="11.278912658843868"><ele>234.0</ele><time>2026-03-28T14:31:29Z</time></trkpt><trkpt lat="43.38208237310582" lon="11.278412218582751"><ele>235.5</ele><time>2026-03-28T14:31:30Z</time></trkpt><trkpt lat="43.38222552202556" lon="11.277945912468898"><ele>237.0</ele><time>2026-03-28T14:31:31Z</time></trkpt><trkpt lat="43.38235681267975" lon="11.277468909421756"><ele>237.0</ele><time>2026-03-28T14:31:32Z</time></trkpt><trkpt lat="43.38270337505748" lon="11.277282762269579"><ele>237.0</ele><time>2026-03-28T14:31:33Z</time></trkpt><trkpt lat="43.38288578833879" lon="11.276908919424613"><ele>235.0</ele><time>2026-03-28T14:31:34Z</time></trkpt><trkpt lat="43.38307751264163" lon="11.276530170369133"><ele>233.0</ele><time>2026-03-28T14:31:35Z</time></trkpt><trkpt lat="43.38326258985657" lon="11.276181813982447"><ele>233.0</ele><time>2026-03-28T14:31:36Z</time></trkpt><trkpt lat="43.383452734201256" lon="11.275856168103916"><ele>233.0</ele><time>2026-03-28T14:31:37Z</time></trkpt><trkpt lat="43.38365756848114" lon="11.275542948813763"><ele>233.5</ele><time>2026-03-28T14:31:38Z</time></trkpt><trkpt lat="43.3838651580461" lon="11.275254310442628"><ele>234.0</ele><time>2026-03-28T14:31:39Z</time></trkpt><trkpt lat="43.38409420515478" lon="11.27496109786724"><ele>230.5</ele><time>2026-03-28T14:31:40Z</time></trkpt><trkpt lat="43.384329465032046" lon="11.274687071179128"><ele>227.0</ele><time>2026-03-28T14:31:41Z</time></trkpt><trkpt lat="43.384561395727516" lon="11.274437864469188"><ele>228.0</ele><time>2026-03-28T14:31:42Z</time></trkpt><trkpt lat="43.38480369056421" lon="11.274207619739299"><ele>229.0</ele><time>2026-03-28T14:31:43Z</time></trkpt><trkpt lat="43.38505154761766" lon="11.273992917871848"><ele>226.5</ele><time>2026-03-28T14:31:44Z</time></trkpt><trkpt lat="43.385321803002206" lon="11.273782608459294"><ele>224.0</ele><time>2026-03-28T14:31:45Z</time></trkpt><trkpt lat="43.38561425155001" lon="11.273572093562382"><ele>223.5</ele><time>2026-03-28T14:31:46Z</time></trkpt><trkpt lat="43.38591830194994" lon="11.273372040268741"><ele>223.0</ele><time>2026-03-28T14:31:47Z</time></trkpt><trkpt lat="43.386202194223976" lon="11.273197361532551"><ele>223.5</ele><time>2026-03-28T14:31:48Z</time></trkpt><trkpt lat="43.38647023033616" lon="11.273010136337707"><ele>224.0</ele><time>2026-03-28T14:31:49Z</time></trkpt><trkpt lat="43.386738973001876" lon="11.272795241215347"><ele>224.0</ele><time>2026-03-28T14:31:50Z</time></trkpt><trkpt lat="43.387013816251624" lon="11.272542221867534"><ele>224.0</ele><time>2026-03-28T14:31:51Z</time></trkpt><trkpt lat="43.38728392998467" lon="11.272250855046076"><ele>223.5</ele><time>2026-03-28T14:31:52Z</time></trkpt><trkpt lat="43.38753843475235" lon="11.271952174423506"><ele>223.0</ele><time>2026-03-28T14:31:53Z</time></trkpt><trkpt lat="43.38778449848032" lon="11.2716272975748"><ele>221.5</ele><time>2026-03-28T14:31:54Z</time></trkpt><trkpt lat="43.38800901235058" lon="11.271280067220045"><ele>220.0</ele><time>2026-03-28T14:31:55Z</time></trkpt><trkpt lat="43.38822291633001" lon="11.270911464384703"><ele>221.0</ele><time>2026-03-28T14:31:56Z</time></trkpt><trkpt lat="43.38841414276894" lon="11.270552742035193"><ele>222.0</ele><time>2026-03-28T14:31:57Z</time></trkpt><trkpt lat="43.38858179275329" lon="11.27019477109843"><ele>222.0</ele><time>2026-03-28T14:31:58Z</time></trkpt><trkpt lat="43.388729268777844" lon="11.269835475324445"><ele>222.0</ele><time>2026-03-28T14:31:59Z</time></trkpt><trkpt lat="43.388869620097594" lon="11.269455827105075"><ele>221.5</ele><time>2026-03-28T14:32:00Z</time></trkpt><trkpt lat="43.38899403432444" lon="11.26905737867819"><ele>221.0</ele><time>2026-03-28T14:32:01Z</time></trkpt><trkpt lat="43.38909014432579" lon="11.268692319376436"><ele>221.0</ele><time>2026-03-28T14:32:02Z</time></trkpt><trkpt lat="43.38917175551458" lon="11.268352483223332"><ele>221.0</ele><time>2026-03-28T14:32:03Z</time></trkpt><trkpt lat="43.389244210803284" lon="11.2680108752643"><ele>221.0</ele><time>2026-03-28T14:32:04Z</time></trkpt><trkpt lat="43.3893068284593" lon="11.267654900360963"><ele>221.0</ele><time>2026-03-28T14:32:05Z</time></trkpt><trkpt lat="43.389358697189756" lon="11.267268816176474"><ele>222.0</ele><time>2026-03-28T14:32:06Z</time></trkpt><trkpt lat="43.38939773386495" lon="11.266871699270464"><ele>223.0</ele><time>2026-03-28T14:32:07Z</time></trkpt><trkpt lat="43.38943105051887" lon="11.266467269849356"><ele>223.5</ele><time>2026-03-28T14:32:08Z</time></trkpt><trkpt lat="43.38945949638203" lon="11.266065837280493"><ele>224.0</ele><time>2026-03-28T14:32:09Z</time></trkpt><trkpt lat="43.389482380114366" lon="11.2656843519704"><ele>224.5</ele><time>2026-03-28T14:32:10Z</time></trkpt><trkpt lat="43.389507551767004" lon="11.265282976178778"><ele>225.0</ele><time>2026-03-28T14:32:11Z</time></trkpt><trkpt lat="43.38954134914586" lon="11.264845376720949"><ele>226.0</ele><time>2026-03-28T14:32:12Z</time></trkpt><trkpt lat="43.38956255037129" lon="11.26436063855261"><ele>227.0</ele><time>2026-03-28T14:32:13Z</time></trkpt><trkpt lat="43.38959705178095" lon="11.26386836944001"><ele>227.0</ele><time>2026-03-28T14:32:14Z</time></trkpt><trkpt lat="43.38963277713229" lon="11.263359373496774"><ele>227.0</ele><time>2026-03-28T14:32:15Z</time></trkpt><trkpt lat="43.38966981582761" lon="11.262835288948501"><ele>230.0</ele><time>2026-03-28T14:32:16Z</time></trkpt><trkpt lat="43.38971508083476" lon="11.262300264121617"><ele>233.0</ele><time>2026-03-28T14:32:17Z</time></trkpt><trkpt lat="43.38975889702821" lon="11.261746416331773"><ele>235.5</ele><time>2026-03-28T14:32:18Z</time></trkpt><trkpt lat="43.389755992119696" lon="11.2611555895818"><ele>238.0</ele><time>2026-03-28T14:32:19Z</time></trkpt><trkpt lat="43.389755645961095" lon="11.260489156877158"><ele>238.0</ele><time>2026-03-28T14:32:20Z</time></trkpt><trkpt lat="43.389776249851536" lon="11.259878264619664"><ele>238.0</ele><time>2026-03-28T14:32:21Z</time></trkpt><trkpt lat="43.3898551035541" lon="11.259408467189537"><ele>235.5</ele><time>2026-03-28T14:32:22Z</time></trkpt><trkpt lat="43.38994041400391" lon="11.258949182331214"><ele>233.0</ele><time>2026-03-28T14:32:23Z</time></trkpt><trkpt lat="43.39003606640624" lon="11.258490716216473"><ele>231.0</ele><time>2026-03-28T14:32:24Z</time></trkpt><trkpt lat="43.390085064886655" lon="11.257992530019429"><ele>229.0</ele><time>2026-03-28T14:32:25Z</time></trkpt><trkpt lat="43.39007331347229" lon="11.257445923957212"><ele>226.0</ele><time>2026-03-28T14:32:26Z</time></trkpt><trkpt lat="43.390110485173224" lon="11.256948703580468"><ele>223.0</ele><time>2026-03-28T14:32:27Z</time></trkpt><trkpt lat="43.39015162482457" lon="11.256441437109293"><ele>222.5</ele><time>2026-03-28T14:32:28Z</time></trkpt><trkpt lat="43.39018392989403" lon="11.255930033140475"><ele>222.0</ele><time>2026-03-28T14:32:29Z</time></trkpt><trkpt lat="43.39022178092229" lon="11.255454433466703"><ele>221.5</ele><time>2026-03-28T14:32:30Z</time></trkpt><trkpt lat="43.39025555749779" lon="11.25498613808976"><ele>221.0</ele><time>2026-03-28T14:32:31Z</time></trkpt><trkpt lat="43.390290525060514" lon="11.254515664302138"><ele>221.0</ele><time>2026-03-28T14:32:32Z</time></trkpt><trkpt lat="43.390323785607826" lon="11.254035765877019"><ele>221.0</ele><time>2026-03-28T14:32:33Z</time></trkpt><trkpt lat="43.3903595761234" lon="11.253524593423817"><ele>221.0</ele><time>2026-03-28T14:32:34Z</time></trkpt><trkpt lat="43.39040021364703" lon="11.252995686173279"><ele>221.0</ele><time>2026-03-28T14:32:35Z</time></trkpt><trkpt lat="43.390440756105356" lon="11.252449319149376"><ele>223.0</ele><time>2026-03-28T14:32:36Z</time></trkpt><trkpt lat="43.390500457389" lon="11.25190545406202"><ele>225.0</ele><time>2026-03-28T14:32:37Z</time></trkpt><trkpt lat="43.390558702126704" lon="11.251452611415909"><ele>226.5</ele><time>2026-03-28T14:32:38Z</time></trkpt><trkpt lat="43.390555263082064" lon="11.25092021369544"><ele>228.0</ele><time>2026-03-28T14:32:39Z</time></trkpt><trkpt lat="43.39056672474672" lon="11.25042527077661"><ele>228.0</ele><time>2026-03-28T14:32:40Z</time></trkpt><trkpt lat="43.390625573424096" lon="11.25000432447905"><ele>228.0</ele><time>2026-03-28T14:32:41Z</time></trkpt><trkpt lat="43.39067304999632" lon="11.249559972955263"><ele>226.0</ele><time>2026-03-28T14:32:42Z</time></trkpt><trkpt lat="43.390719022994105" lon="11.249111843366368"><ele>224.0</ele><time>2026-03-28T14:32:43Z</time></trkpt><trkpt lat="43.3907846544654" lon="11.248686682319944"><ele>222.5</ele><time>2026-03-28T14:32:44Z</time></trkpt><trkpt lat="43.39087468518374" lon="11.248279945095424"><ele>221.0</ele><time>2026-03-28T14:32:45Z</time></trkpt><trkpt lat="43.39098635918237" lon="11.24787693412313"><ele>219.0</ele><time>2026-03-28T14:32:46Z</time></trkpt><trkpt lat="43.39111594366791" lon="11.24748798994449"><ele>217.0</ele><time>2026-03-28T14:32:47Z</time></trkpt><trkpt lat="43.39127289727686" lon="11.247099099457818"><ele>217.5</ele><time>2026-03-28T14:32:48Z</time></trkpt><trkpt lat="43.39144046661841" lon="11.24670697044414"><ele>218.0</ele><time>2026-03-28T14:32:49Z</time></trkpt><trkpt lat="43.39161561973084" lon="11.246310126704474"><ele>218.0</ele><time>2026-03-28T14:32:50Z</time></trkpt><trkpt lat="43.391778332214784" lon="11.245929227094338"><ele>218.0</ele><time>2026-03-28T14:32:51Z</time></trkpt><trkpt lat="43.39191426484296" lon="11.245544024252412"><ele>214.5</ele><time>2026-03-28T14:32:52Z</time></trkpt><trkpt lat="43.39203417201926" lon="11.24514035507303"><ele>211.0</ele><time>2026-03-28T14:32:53Z</time></trkpt><trkpt lat="43.39213336411081" lon="11.244714243613894"><ele>211.5</ele><time>2026-03-28T14:32:54Z</time></trkpt><trkpt lat="43.39221354751715" lon="11.244259750460005"><ele>212.0</ele><time>2026-03-28T14:32:55Z</time></trkpt><trkpt lat="43.39227426446585" lon="11.243813045510002"><ele>212.0</ele><time>2026-03-28T14:32:56Z</time></trkpt><trkpt lat="43.39230906236764" lon="11.243370853379092"><ele>212.0</ele><time>2026-03-28T14:32:57Z</time></trkpt><trkpt lat="43.39231548351019" lon="11.24293452927164"><ele>212.0</ele><time>2026-03-28T14:32:58Z</time></trkpt><trkpt lat="43.392305834864196" lon="11.24250023054685"><ele>212.0</ele><time>2026-03-28T14:32:59Z</time></trkpt><trkpt lat="43.392266625155834" lon="11.24204597652727"><ele>211.0</ele><time>2026-03-28T14:33:00Z</time></trkpt><trkpt lat="43.39219899773531" lon="11.241556818819303"><ele>210.0</ele><time>2026-03-28T14:33:01Z</time></trkpt><trkpt lat="43.39213071492763" lon="11.241066840831285"><ele>219.0</ele><time>2026-03-28T14:33:02Z</time></trkpt><trkpt lat="43.39207512458394" lon="11.240600389737436"><ele>228.0</ele><time>2026-03-28T14:33:03Z</time></trkpt><trkpt lat="43.39202709752172" lon="11.240139911368656"><ele>227.5</ele><time>2026-03-28T14:33:04Z</time></trkpt><trkpt lat="43.39199182814692" lon="11.239679658740709"><ele>227.0</ele><time>2026-03-28T14:33:05Z</time></trkpt><trkpt lat="43.39198101298876" lon="11.239232288921826"><ele>227.5</ele><time>2026-03-28T14:33:06Z</time></trkpt><trkpt lat="43.391989406428884" lon="11.238782236651245"><ele>228.0</ele><time>2026-03-28T14:33:07Z</time></trkpt><trkpt lat="43.39201923106163" lon="11.238323371601435"><ele>226.0</ele><time>2026-03-28T14:33:08Z</time></trkpt><trkpt lat="43.39206658103331" lon="11.237851887179994"><ele>224.0</ele><time>2026-03-28T14:33:09Z</time></trkpt><trkpt lat="43.39213292748695" lon="11.237394030510213"><ele>217.5</ele><time>2026-03-28T14:33:10Z</time></trkpt><trkpt lat="43.39221552952555" lon="11.23696679380889"><ele>211.0</ele><time>2026-03-28T14:33:11Z</time></trkpt><trkpt lat="43.39232687754653" lon="11.236544410323164"><ele>210.5</ele><time>2026-03-28T14:33:12Z</time></trkpt><trkpt lat="43.39245439139165" lon="11.236103803736405"><ele>210.0</ele><time>2026-03-28T14:33:13Z</time></trkpt><trkpt lat="43.39260337418211" lon="11.235643882270352"><ele>212.0</ele><time>2026-03-28T14:33:14Z</time></trkpt><trkpt lat="43.39276075157117" lon="11.235165612991231"><ele>214.0</ele><time>2026-03-28T14:33:15Z</time></trkpt><trkpt lat="43.3929223873554" lon="11.234676714453906"><ele>213.5</ele><time>2026-03-28T14:33:16Z</time></trkpt><trkpt lat="43.393078845137985" lon="11.234209013593794"><ele>213.0</ele><time>2026-03-28T14:33:17Z</time></trkpt><trkpt lat="43.39321548688005" lon="11.233788961716447"><ele>213.0</ele><time>2026-03-28T14:33:18Z</time></trkpt><trkpt lat="43.39334523262261" lon="11.233385802699912"><ele>213.0</ele><time>2026-03-28T14:33:19Z</time></trkpt><trkpt lat="43.39347727955114" lon="11.232989131244906"><ele>215.0</ele><time>2026-03-28T14:33:20Z</time></trkpt><trkpt lat="43.39360865907832" lon="11.232592698780817"><ele>217.0</ele><time>2026-03-28T14:33:21Z</time></trkpt><trkpt lat="43.39374523893233" lon="11.232189915894123"><ele>216.5</ele><time>2026-03-28T14:33:22Z</time></trkpt><trkpt lat="43.393869850345155" lon="11.231807776806756"><ele>216.0</ele><time>2026-03-28T14:33:23Z</time></trkpt><trkpt lat="43.39399391732884" lon="11.23144890658786"><ele>216.0</ele><time>2026-03-28T14:33:24Z</time></trkpt><trkpt lat="43.39411382227704" lon="11.23108033879196"><ele>216.0</ele><time>2026-03-28T14:33:25Z</time></trkpt><trkpt lat="43.39422628985695" lon="11.230703833344423"><ele>219.5</ele><time>2026-03-28T14:33:26Z</time></trkpt><trkpt lat="43.39432073886663" lon="11.230329724137645"><ele>223.0</ele><time>2026-03-28T14:33:27Z</time></trkpt><trkpt lat="43.39439032899372" lon="11.229941604256208"><ele>224.5</ele><time>2026-03-28T14:33:28Z</time></trkpt><trkpt lat="43.394441092300326" lon="11.229527676858222"><ele>226.0</ele><time>2026-03-28T14:33:29Z</time></trkpt><trkpt lat="43.39446937241226" lon="11.229108841351119"><ele>222.0</ele><time>2026-03-28T14:33:30Z</time></trkpt><trkpt lat="43.39449041036028" lon="11.228698797477195"><ele>218.0</ele><time>2026-03-28T14:33:31Z</time></trkpt><trkpt lat="43.394486854783246" lon="11.228258741696326"><ele>215.0</ele><time>2026-03-28T14:33:32Z</time></trkpt><trkpt lat="43.39445257921841" lon="11.227791542925898"><ele>212.0</ele><time>2026-03-28T14:33:33Z</time></trkpt><trkpt lat="43.39439795707974" lon="11.227297712353847"><ele>211.0</ele><time>2026-03-28T14:33:34Z</time></trkpt><trkpt lat="43.39432892766183" lon="11.226789989751394"><ele>210.0</ele><time>2026-03-28T14:33:35Z</time></trkpt><trkpt lat="43.394269770277944" lon="11.22626875999781"><ele>208.5</ele><time>2026-03-28T14:33:36Z</time></trkpt><trkpt lat="43.3942092507165" lon="11.22573403719283"><ele>207.0</ele><time>2026-03-28T14:33:37Z</time></trkpt><trkpt lat="43.394145503832796" lon="11.225216285119055"><ele>207.0</ele><time>2026-03-28T14:33:38Z</time></trkpt><trkpt lat="43.394089957209815" lon="11.224741632231764"><ele>207.0</ele><time>2026-03-28T14:33:39Z</time></trkpt><trkpt lat="43.39404114942306" lon="11.224283635662514"><ele>206.0</ele><time>2026-03-28T14:33:40Z</time></trkpt><trkpt lat="43.39398935744779" lon="11.223822829628547"><ele>205.0</ele><time>2026-03-28T14:33:41Z</time></trkpt><trkpt lat="43.39393851528886" lon="11.22335931890372"><ele>204.0</ele><time>2026-03-28T14:33:42Z</time></trkpt><trkpt lat="43.39388813881574" lon="11.222928765486435"><ele>203.0</ele><time>2026-03-28T14:33:43Z</time></trkpt><trkpt lat="43.393840443632584" lon="11.22251593565254"><ele>212.5</ele><time>2026-03-28T14:33:44Z</time></trkpt><trkpt lat="43.393795133877944" lon="11.222113413017768"><ele>222.0</ele><time>2026-03-28T14:33:45Z</time></trkpt><trkpt lat="43.39376456578493" lon="11.22170109817906"><ele>220.5</ele><time>2026-03-28T14:33:46Z</time></trkpt><trkpt lat="43.39374400623535" lon="11.2212806753881"><ele>219.0</ele><time>2026-03-28T14:33:47Z</time></trkpt><trkpt lat="43.39373515883818" lon="11.220861370735678"><ele>214.5</ele><time>2026-03-28T14:33:48Z</time></trkpt><trkpt lat="43.39373501781724" lon="11.220432208721656"><ele>210.0</ele><time>2026-03-28T14:33:49Z</time></trkpt><trkpt lat="43.393745197074644" lon="11.21998410381765"><ele>207.0</ele><time>2026-03-28T14:33:50Z</time></trkpt><trkpt lat="43.39376607626408" lon="11.219550742850258"><ele>204.0</ele><time>2026-03-28T14:33:51Z</time></trkpt><trkpt lat="43.39379186408183" lon="11.21914436104679"><ele>203.0</ele><time>2026-03-28T14:33:52Z</time></trkpt><trkpt lat="43.39382117748176" lon="11.218750343507725"><ele>202.0</ele><time>2026-03-28T14:33:53Z</time></trkpt><trkpt lat="43.393855080254454" lon="11.218348111364964"><ele>199.5</ele><time>2026-03-28T14:33:54Z</time></trkpt><trkpt lat="43.3938923994638" lon="11.217939006690004"><ele>197.0</ele><time>2026-03-28T14:33:55Z</time></trkpt><trkpt lat="43.39392578143615" lon="11.217516638871917"><ele>196.5</ele><time>2026-03-28T14:33:56Z</time></trkpt><trkpt lat="43.39396233467593" lon="11.21709792255346"><ele>196.0</ele><time>2026-03-28T14:33:57Z</time></trkpt><trkpt lat="43.39400046155288" lon="11.216683803059409"><ele>196.5</ele><time>2026-03-28T14:33:58Z</time></trkpt><trkpt lat="43.39404165022409" lon="11.216252085252869"><ele>197.0</ele><time>2026-03-28T14:33:59Z</time></trkpt><trkpt lat="43.394079869097624" lon="11.215805515213612"><ele>197.5</ele><time>2026-03-28T14:34:00Z</time></trkpt><trkpt lat="43.39412239104443" lon="11.21534528705555"><ele>198.0</ele><time>2026-03-28T14:34:01Z</time></trkpt><trkpt lat="43.394162554066185" lon="11.214868872176316"><ele>197.0</ele><time>2026-03-28T14:34:02Z</time></trkpt><trkpt lat="43.394203489324674" lon="11.214394438728695"><ele>196.0</ele><time>2026-03-28T14:34:03Z</time></trkpt><trkpt lat="43.39424593704763" lon="11.21389604910444"><ele>196.0</ele><time>2026-03-28T14:34:04Z</time></trkpt><trkpt lat="43.39428811989389" lon="11.213380295658064"><ele>196.0</ele><time>2026-03-28T14:34:05Z</time></trkpt><trkpt lat="43.39432867210629" lon="11.212861649626033"><ele>196.0</ele><time>2026-03-28T14:34:06Z</time></trkpt><trkpt lat="43.39436979210284" lon="11.21233689717209"><ele>196.0</ele><time>2026-03-28T14:34:07Z</time></trkpt><trkpt lat="43.394411543014215" lon="11.211827677880063"><ele>195.0</ele><time>2026-03-28T14:34:08Z</time></trkpt><trkpt lat="43.39444751499715" lon="11.211358198900012"><ele>194.0</ele><time>2026-03-28T14:34:09Z</time></trkpt><trkpt lat="43.39448569340788" lon="11.210885244323373"><ele>195.0</ele><time>2026-03-28T14:34:10Z</time></trkpt><trkpt lat="43.39452338071861" lon="11.210407172197783"><ele>196.0</ele><time>2026-03-28T14:34:11Z</time></trkpt><trkpt lat="43.39456310509819" lon="11.209916585898617"><ele>197.0</ele><time>2026-03-28T14:34:12Z</time></trkpt><trkpt lat="43.394609317432" lon="11.209415301643203"><ele>198.0</ele><time>2026-03-28T14:34:13Z</time></trkpt><trkpt lat="43.394652382459995" lon="11.208888465526739"><ele>203.0</ele><time>2026-03-28T14:34:14Z</time></trkpt><trkpt lat="43.39469750355647" lon="11.20834610897047"><ele>208.0</ele><time>2026-03-28T14:34:15Z</time></trkpt><trkpt lat="43.394746554266774" lon="11.20779526412145"><ele>209.0</ele><time>2026-03-28T14:34:16Z</time></trkpt><trkpt lat="43.39480096789963" lon="11.207239323969137"><ele>210.0</ele><time>2026-03-28T14:34:17Z</time></trkpt><trkpt lat="43.394846256133604" lon="11.206712318324502"><ele>211.5</ele><time>2026-03-28T14:34:18Z</time></trkpt><trkpt lat="43.39489121451282" lon="11.206240457524208"><ele>213.0</ele><time>2026-03-28T14:34:19Z</time></trkpt><trkpt lat="43.3949370704756" lon="11.205784432980787"><ele>213.0</ele><time>2026-03-28T14:34:20Z</time></trkpt><trkpt lat="43.39497843962153" lon="11.205346246769722"><ele>213.0</ele><time>2026-03-28T14:34:21Z</time></trkpt><trkpt lat="43.39502365696574" lon="11.204925397057803"><ele>214.5</ele><time>2026-03-28T14:34:22Z</time></trkpt><trkpt lat="43.395085251454276" lon="11.204505682225202"><ele>216.0</ele><time>2026-03-28T14:34:23Z</time></trkpt><trkpt lat="43.39517327299494" lon="11.204073725277864"><ele>216.0</ele><time>2026-03-28T14:34:24Z</time></trkpt><trkpt lat="43.395276990848245" lon="11.2036385952466"><ele>216.0</ele><time>2026-03-28T14:34:25Z</time></trkpt><trkpt lat="43.39540343598739" lon="11.203213623744128"><ele>216.0</ele><time>2026-03-28T14:34:26Z</time></trkpt><trkpt lat="43.395546925050795" lon="11.202822017544115"><ele>216.0</ele><time>2026-03-28T14:34:27Z</time></trkpt><trkpt lat="43.39570770353295" lon="11.202433774018484"><ele>215.5</ele><time>2026-03-28T14:34:28Z</time></trkpt><trkpt lat="43.39588727765867" lon="11.202030723444546"><ele>215.0</ele><time>2026-03-28T14:34:29Z</time></trkpt><trkpt lat="43.39608545675412" lon="11.20162365212648"><ele>214.5</ele><time>2026-03-28T14:34:30Z</time></trkpt><trkpt lat="43.39629035833822" lon="11.201203217231305"><ele>214.0</ele><time>2026-03-28T14:34:31Z</time></trkpt><trkpt lat="43.39650140360457" lon="11.200764954227504"><ele>215.5</ele><time>2026-03-28T14:34:32Z</time></trkpt><trkpt lat="43.396706585044" lon="11.200333793459862"><ele>217.0</ele><time>2026-03-28T14:34:33Z</time></trkpt><trkpt lat="43.39691710561514" lon="11.199881632733979"><ele>218.5</ele><time>2026-03-28T14:34:34Z</time></trkpt><trkpt lat="43.39713219231525" lon="11.199419995175116"><ele>220.0</ele><time>2026-03-28T14:34:35Z</time></trkpt><trkpt lat="43.397338153777" lon="11.199006481368968"><ele>216.5</ele><time>2026-03-28T14:34:36Z</time></trkpt><trkpt lat="43.397527007851885" lon="11.198627734495153"><ele>213.0</ele><time>2026-03-28T14:34:37Z</time></trkpt><trkpt lat="43.397703741688964" lon="11.19825323460098"><ele>212.5</ele><time>2026-03-28T14:34:38Z</time></trkpt><trkpt lat="43.39787872962687" lon="11.197888449657416"><ele>212.0</ele><time>2026-03-28T14:34:39Z</time></trkpt><trkpt lat="43.39805454743804" lon="11.197525064674338"><ele>210.5</ele><time>2026-03-28T14:34:40Z</time></trkpt><trkpt lat="43.39822682417072" lon="11.1971578978258"><ele>209.0</ele><time>2026-03-28T14:34:41Z</time></trkpt><trkpt lat="43.39839558086559" lon="11.196806369363868"><ele>209.0</ele><time>2026-03-28T14:34:42Z</time></trkpt><trkpt lat="43.39856113858062" lon="11.196477249515915"><ele>209.0</ele><time>2026-03-28T14:34:43Z</time></trkpt><trkpt lat="43.398720910612894" lon="11.196173951399217"><ele>209.5</ele><time>2026-03-28T14:34:44Z</time></trkpt><trkpt lat="43.39887419681998" lon="11.195893453145134"><ele>210.0</ele><time>2026-03-28T14:34:45Z</time></trkpt><trkpt lat="43.39901411000196" lon="11.195651778772584"><ele>210.0</ele><time>2026-03-28T14:34:46Z</time></trkpt><trkpt lat="43.39914541208334" lon="11.195441227488551"><ele>210.0</ele><time>2026-03-28T14:34:47Z</time></trkpt><trkpt lat="43.399270048763256" lon="11.19525181467418"><ele>210.0</ele><time>2026-03-28T14:34:48Z</time></trkpt><trkpt lat="43.39936191070679" lon="11.195024537429216"><ele>210.33333333333331</ele><time>2026-03-28T14:34:49Z</time></trkpt><trkpt lat="43.39948116698308" lon="11.194795506365082"><ele>210.66666666666666</ele><time>2026-03-28T14:34:50Z</time></trkpt><trkpt lat="43.39955528747622" lon="11.194520648426817"><ele>211.0</ele><time>2026-03-28T14:34:51Z</time></trkpt><trkpt lat="43.39967515398447" lon="11.194297451463104"><ele>211.0</ele><time>2026-03-28T14:34:52Z</time></trkpt><trkpt lat="43.39974800095729" lon="11.194010711766099"><ele>211.0</ele><time>2026-03-28T14:34:53Z</time></trkpt><trkpt lat="43.39986102378579" lon="11.193769315164475"><ele>211.0</ele><time>2026-03-28T14:34:54Z</time></trkpt><trkpt lat="43.39998261962884" lon="11.193516973102701"><ele>210.5</ele><time>2026-03-28T14:34:55Z</time></trkpt><trkpt lat="43.40011891097446" lon="11.193241064564223"><ele>210.0</ele><time>2026-03-28T14:34:56Z</time></trkpt><trkpt lat="43.40027096130266" lon="11.192925353494386"><ele>210.0</ele><time>2026-03-28T14:34:57Z</time></trkpt><trkpt lat="43.40043578385429" lon="11.192585924207298"><ele>210.0</ele><time>2026-03-28T14:34:58Z</time></trkpt><trkpt lat="43.400609650124814" lon="11.192223441802618"><ele>210.0</ele><time>2026-03-28T14:34:59Z</time></trkpt><trkpt lat="43.40079873843397" lon="11.191841860705608"><ele>210.0</ele><time>2026-03-28T14:35:00Z</time></trkpt><trkpt lat="43.40099673429008" lon="11.191441449834164"><ele>210.0</ele><time>2026-03-28T14:35:01Z</time></trkpt><trkpt lat="43.40120285943304" lon="11.191031255590442"><ele>210.0</ele><time>2026-03-28T14:35:02Z</time></trkpt><trkpt lat="43.401414588079795" lon="11.190605940274667"><ele>209.5</ele><time>2026-03-28T14:35:03Z</time></trkpt><trkpt lat="43.40163100449489" lon="11.190167905382841"><ele>209.0</ele><time>2026-03-28T14:35:04Z</time></trkpt><trkpt lat="43.401850185718466" lon="11.18971199150834"><ele>209.0</ele><time>2026-03-28T14:35:05Z</time></trkpt><trkpt lat="43.40205903302725" lon="11.189287911046664"><ele>209.0</ele><time>2026-03-28T14:35:06Z</time></trkpt><trkpt lat="43.40225733468237" lon="11.188879990012987"><ele>209.5</ele><time>2026-03-28T14:35:07Z</time></trkpt><trkpt lat="43.40245772381771" lon="11.18845744256945"><ele>210.0</ele><time>2026-03-28T14:35:08Z</time></trkpt><trkpt lat="43.402669369004464" lon="11.188026566155695"><ele>210.0</ele><time>2026-03-28T14:35:09Z</time></trkpt><trkpt lat="43.40288373212976" lon="11.187580314299625"><ele>210.0</ele><time>2026-03-28T14:35:10Z</time></trkpt><trkpt lat="43.40310467035572" lon="11.187114095292056"><ele>211.0</ele><time>2026-03-28T14:35:11Z</time></trkpt><trkpt lat="43.403335970225804" lon="11.186640830989614"><ele>212.0</ele><time>2026-03-28T14:35:12Z</time></trkpt><trkpt lat="43.40355978083581" lon="11.186165491226411"><ele>212.5</ele><time>2026-03-28T14:35:13Z</time></trkpt><trkpt lat="43.403773930472745" lon="11.185716456158822"><ele>213.0</ele><time>2026-03-28T14:35:14Z</time></trkpt><trkpt lat="43.40397255154106" lon="11.18529849182781"><ele>213.5</ele><time>2026-03-28T14:35:15Z</time></trkpt><trkpt lat="43.404174122842505" lon="11.184873111480808"><ele>214.0</ele><time>2026-03-28T14:35:16Z</time></trkpt><trkpt lat="43.4043837660807" lon="11.184428086965621"><ele>216.5</ele><time>2026-03-28T14:35:17Z</time></trkpt><trkpt lat="43.40460324181798" lon="11.183963397295365"><ele>219.0</ele><time>2026-03-28T14:35:18Z</time></trkpt><trkpt lat="43.404837111207456" lon="11.183494267198556"><ele>220.5</ele><time>2026-03-28T14:35:19Z</time></trkpt><trkpt lat="43.405071020257196" lon="11.183005564363407"><ele>222.0</ele><time>2026-03-28T14:35:20Z</time></trkpt><trkpt lat="43.40531194747194" lon="11.182506020355865"><ele>223.0</ele><time>2026-03-28T14:35:21Z</time></trkpt><trkpt lat="43.40556047988119" lon="11.181996542571701"><ele>224.0</ele><time>2026-03-28T14:35:22Z</time></trkpt><trkpt lat="43.405784591866755" lon="11.181527585314146"><ele>223.5</ele><time>2026-03-28T14:35:23Z</time></trkpt><trkpt lat="43.40601936086537" lon="11.181074915762727"><ele>223.0</ele><time>2026-03-28T14:35:24Z</time></trkpt><trkpt lat="43.406237525963924" lon="11.18063164023464"><ele>222.0</ele><time>2026-03-28T14:35:25Z</time></trkpt><trkpt lat="43.40644799427004" lon="11.18019998243232"><ele>221.0</ele><time>2026-03-28T14:35:26Z</time></trkpt><trkpt lat="43.40664727365029" lon="11.179775028032896"><ele>219.5</ele><time>2026-03-28T14:35:27Z</time></trkpt><trkpt lat="43.406841485056596" lon="11.179337587973274"><ele>218.0</ele><time>2026-03-28T14:35:28Z</time></trkpt><trkpt lat="43.40700898855624" lon="11.178916882945163"><ele>217.0</ele><time>2026-03-28T14:35:29Z</time></trkpt><trkpt lat="43.407158872294616" lon="11.178507181990735"><ele>216.0</ele><time>2026-03-28T14:35:30Z</time></trkpt><trkpt lat="43.407314585797835" lon="11.178086519173652"><ele>217.5</ele><time>2026-03-28T14:35:31Z</time></trkpt><trkpt lat="43.40745707503195" lon="11.177649816036851"><ele>219.0</ele><time>2026-03-28T14:35:32Z</time></trkpt><trkpt lat="43.407589465993055" lon="11.177235273371643"><ele>219.0</ele><time>2026-03-28T14:35:33Z</time></trkpt><trkpt lat="43.407719892671885" lon="11.176804519855006"><ele>219.0</ele><time>2026-03-28T14:35:34Z</time></trkpt><trkpt lat="43.4078411564473" lon="11.176383615984337"><ele>218.0</ele><time>2026-03-28T14:35:35Z</time></trkpt><trkpt lat="43.407959335845206" lon="11.175965821211323"><ele>217.0</ele><time>2026-03-28T14:35:36Z</time></trkpt><trkpt lat="43.40808279353997" lon="11.175532861722477"><ele>221.0</ele><time>2026-03-28T14:35:37Z</time></trkpt><trkpt lat="43.408214977265736" lon="11.175082793609544"><ele>225.0</ele><time>2026-03-28T14:35:38Z</time></trkpt><trkpt lat="43.408346114808" lon="11.174630928413741"><ele>225.0</ele><time>2026-03-28T14:35:39Z</time></trkpt><trkpt lat="43.40847124625344" lon="11.174204632794186"><ele>225.0</ele><time>2026-03-28T14:35:40Z</time></trkpt><trkpt lat="43.4085852201921" lon="11.173799979691523"><ele>224.0</ele><time>2026-03-28T14:35:41Z</time></trkpt><trkpt lat="43.40870278034566" lon="11.173400814023022"><ele>223.0</ele><time>2026-03-28T14:35:42Z</time></trkpt><trkpt lat="43.4088197779526" lon="11.172994485586791"><ele>223.0</ele><time>2026-03-28T14:35:43Z</time></trkpt><trkpt lat="43.408934702278785" lon="11.172588519519408"><ele>223.0</ele><time>2026-03-28T14:35:44Z</time></trkpt><trkpt lat="43.40904691332051" lon="11.172188991922937"><ele>223.5</ele><time>2026-03-28T14:35:45Z</time></trkpt><trkpt lat="43.40916419094283" lon="11.171790207115219"><ele>224.0</ele><time>2026-03-28T14:35:46Z</time></trkpt><trkpt lat="43.4092849426548" lon="11.171394447097269"><ele>224.0</ele><time>2026-03-28T14:35:47Z</time></trkpt><trkpt lat="43.40939970265383" lon="11.171008164639057"><ele>224.0</ele><time>2026-03-28T14:35:48Z</time></trkpt><trkpt lat="43.40950632874965" lon="11.170636301734426"><ele>224.0</ele><time>2026-03-28T14:35:49Z</time></trkpt><trkpt lat="43.40961332273783" lon="11.170264669144387"><ele>224.0</ele><time>2026-03-28T14:35:50Z</time></trkpt><trkpt lat="43.4097208438126" lon="11.169894612096988"><ele>224.0</ele><time>2026-03-28T14:35:51Z</time></trkpt><trkpt lat="43.409833117888134" lon="11.169521756366443"><ele>224.0</ele><time>2026-03-28T14:35:52Z</time></trkpt><trkpt lat="43.40994254253232" lon="11.169145216358057"><ele>224.5</ele><time>2026-03-28T14:35:53Z</time></trkpt><trkpt lat="43.41004455943117" lon="11.168773928576798"><ele>225.0</ele><time>2026-03-28T14:35:54Z</time></trkpt><trkpt lat="43.41014943715549" lon="11.16840720022641"><ele>226.0</ele><time>2026-03-28T14:35:55Z</time></trkpt><trkpt lat="43.410259984429494" lon="11.168032191023835"><ele>227.0</ele><time>2026-03-28T14:35:56Z</time></trkpt><trkpt lat="43.41037560267092" lon="11.167657819883123"><ele>227.5</ele><time>2026-03-28T14:35:57Z</time></trkpt><trkpt lat="43.41049025505104" lon="11.16729829198489"><ele>228.0</ele><time>2026-03-28T14:35:58Z</time></trkpt><trkpt lat="43.410616000152345" lon="11.166937534399253"><ele>227.5</ele><time>2026-03-28T14:35:59Z</time></trkpt><trkpt lat="43.4107562409822" lon="11.166565656976072"><ele>227.0</ele><time>2026-03-28T14:36:00Z</time></trkpt><trkpt lat="43.41090748726521" lon="11.166193729953694"><ele>227.0</ele><time>2026-03-28T14:36:01Z</time></trkpt><trkpt lat="43.41106364041476" lon="11.165829137144252"><ele>227.0</ele><time>2026-03-28T14:36:02Z</time></trkpt><trkpt lat="43.41122661460515" lon="11.165476832695735"><ele>227.0</ele><time>2026-03-28T14:36:03Z</time></trkpt><trkpt lat="43.41140078983297" lon="11.165132966861506"><ele>227.0</ele><time>2026-03-28T14:36:04Z</time></trkpt><trkpt lat="43.41158623496197" lon="11.164785004575489"><ele>226.5</ele><time>2026-03-28T14:36:05Z</time></trkpt><trkpt lat="43.411771684826086" lon="11.16445554563809"><ele>226.0</ele><time>2026-03-28T14:36:06Z</time></trkpt><trkpt lat="43.41196470554403" lon="11.164140278243284"><ele>225.5</ele><time>2026-03-28T14:36:07Z</time></trkpt><trkpt lat="43.412166318900766" lon="11.163831114943994"><ele>225.0</ele><time>2026-03-28T14:36:08Z</time></trkpt><trkpt lat="43.412369213119604" lon="11.163542312830648"><ele>225.0</ele><time>2026-03-28T14:36:09Z</time></trkpt><trkpt lat="43.41257460458707" lon="11.163247970553716"><ele>225.0</ele><time>2026-03-28T14:36:10Z</time></trkpt><trkpt lat="43.412795857293084" lon="11.162932800370847"><ele>225.5</ele><time>2026-03-28T14:36:11Z</time></trkpt><trkpt lat="43.41302740763025" lon="11.162597009308813"><ele>226.0</ele><time>2026-03-28T14:36:12Z</time></trkpt><trkpt lat="43.41327029954292" lon="11.162242562629448"><ele>227.0</ele><time>2026-03-28T14:36:13Z</time></trkpt><trkpt lat="43.41351916797352" lon="11.161881924353573"><ele>228.0</ele><time>2026-03-28T14:36:14Z</time></trkpt><trkpt lat="43.41374847116255" lon="11.161554993288219"><ele>229.5</ele><time>2026-03-28T14:36:15Z</time></trkpt><trkpt lat="43.413970548650006" lon="11.161241126952708"><ele>231.0</ele><time>2026-03-28T14:36:16Z</time></trkpt><trkpt lat="43.41419239114063" lon="11.16091413039172"><ele>230.0</ele><time>2026-03-28T14:36:17Z</time></trkpt><trkpt lat="43.41442481139832" lon="11.160578979111323"><ele>229.0</ele><time>2026-03-28T14:36:18Z</time></trkpt><trkpt lat="43.41465799831965" lon="11.160241881549325"><ele>229.0</ele><time>2026-03-28T14:36:19Z</time></trkpt><trkpt lat="43.414896488837655" lon="11.159897350037957"><ele>229.0</ele><time>2026-03-28T14:36:20Z</time></trkpt><trkpt lat="43.415133286695394" lon="11.159554759582957"><ele>229.5</ele><time>2026-03-28T14:36:21Z</time></trkpt><trkpt lat="43.4153582215438" lon="11.159231297186768"><ele>230.0</ele><time>2026-03-28T14:36:22Z</time></trkpt><trkpt lat="43.41557146685464" lon="11.158923798015286"><ele>230.5</ele><time>2026-03-28T14:36:23Z</time></trkpt><trkpt lat="43.415789111424566" lon="11.158608971097438"><ele>231.0</ele><time>2026-03-28T14:36:24Z</time></trkpt><trkpt lat="43.416014961691836" lon="11.158282293233174"><ele>231.5</ele><time>2026-03-28T14:36:25Z</time></trkpt><trkpt lat="43.4162486810607" lon="11.157944757212997"><ele>232.0</ele><time>2026-03-28T14:36:26Z</time></trkpt><trkpt lat="43.41648959344718" lon="11.157600484330711"><ele>233.0</ele><time>2026-03-28T14:36:27Z</time></trkpt><trkpt lat="43.41673379023547" lon="11.157261462939434"><ele>234.0</ele><time>2026-03-28T14:36:28Z</time></trkpt><trkpt lat="43.41697670829778" lon="11.15691673029947"><ele>234.0</ele><time>2026-03-28T14:36:29Z</time></trkpt><trkpt lat="43.41720982645804" lon="11.156579537485014"><ele>234.0</ele><time>2026-03-28T14:36:30Z</time></trkpt><trkpt lat="43.4174402761874" lon="11.156241672633593"><ele>233.0</ele><time>2026-03-28T14:36:31Z</time></trkpt><trkpt lat="43.41766831175361" lon="11.155913558514817"><ele>232.0</ele><time>2026-03-28T14:36:32Z</time></trkpt><trkpt lat="43.41788064919897" lon="11.155597738276779"><ele>230.5</ele><time>2026-03-28T14:36:33Z</time></trkpt><trkpt lat="43.418095096114655" lon="11.155288834203954"><ele>229.0</ele><time>2026-03-28T14:36:34Z</time></trkpt><trkpt lat="43.4183208499849" lon="11.154967606864519"><ele>228.5</ele><time>2026-03-28T14:36:35Z</time></trkpt><trkpt lat="43.41854493508937" lon="11.154642139252259"><ele>228.0</ele><time>2026-03-28T14:36:36Z</time></trkpt><trkpt lat="43.41876880566851" lon="11.154327401400487"><ele>225.0</ele><time>2026-03-28T14:36:37Z</time></trkpt><trkpt lat="43.41899681295856" lon="11.154001959424635"><ele>222.0</ele><time>2026-03-28T14:36:38Z</time></trkpt><trkpt lat="43.419227572629595" lon="11.153672954394352"><ele>222.0</ele><time>2026-03-28T14:36:39Z</time></trkpt><trkpt lat="43.41944760007467" lon="11.153348775074646"><ele>222.0</ele><time>2026-03-28T14:36:40Z</time></trkpt><trkpt lat="43.419670117626154" lon="11.153022038402325"><ele>219.0</ele><time>2026-03-28T14:36:41Z</time></trkpt><trkpt lat="43.41990653440272" lon="11.152686754485366"><ele>216.0</ele><time>2026-03-28T14:36:42Z</time></trkpt><trkpt lat="43.42015406630502" lon="11.152331806457845"><ele>216.0</ele><time>2026-03-28T14:36:43Z</time></trkpt><trkpt lat="43.420414823569764" lon="11.151957509462976"><ele>216.0</ele><time>2026-03-28T14:36:44Z</time></trkpt><trkpt lat="43.420668169238645" lon="11.151587431923335"><ele>212.0</ele><time>2026-03-28T14:36:45Z</time></trkpt><trkpt lat="43.42091739884346" lon="11.151232907335398"><ele>208.0</ele><time>2026-03-28T14:36:46Z</time></trkpt><trkpt lat="43.42116427462444" lon="11.150882798616221"><ele>204.0</ele><time>2026-03-28T14:36:47Z</time></trkpt><trkpt lat="43.42139615955812" lon="11.150546958684767"><ele>200.0</ele><time>2026-03-28T14:36:48Z</time></trkpt><trkpt lat="43.421633712163825" lon="11.150206050285508"><ele>199.5</ele><time>2026-03-28T14:36:49Z</time></trkpt><trkpt lat="43.42187697672122" lon="11.149850097120435"><ele>199.0</ele><time>2026-03-28T14:36:50Z</time></trkpt><trkpt lat="43.42213594128127" lon="11.149471891920117"><ele>194.0</ele><time>2026-03-28T14:36:51Z</time></trkpt><trkpt lat="43.42240419145128" lon="11.149091292061204"><ele>189.0</ele><time>2026-03-28T14:36:52Z</time></trkpt><trkpt lat="43.42264779989209" lon="11.148731189543055"><ele>189.0</ele><time>2026-03-28T14:36:53Z</time></trkpt><trkpt lat="43.422889595403085" lon="11.148387837437452"><ele>189.0</ele><time>2026-03-28T14:36:54Z</time></trkpt><trkpt lat="43.42313267472213" lon="11.148042423577822"><ele>185.0</ele><time>2026-03-28T14:36:55Z</time></trkpt><trkpt lat="43.42338241289623" lon="11.147686842365896"><ele>181.0</ele><time>2026-03-28T14:36:56Z</time></trkpt><trkpt lat="43.42361340725378" lon="11.147349557121863"><ele>177.0</ele><time>2026-03-28T14:36:57Z</time></trkpt><trkpt lat="43.423841224799084" lon="11.147015838568725"><ele>173.0</ele><time>2026-03-28T14:36:58Z</time></trkpt><trkpt lat="43.42407475677836" lon="11.146681298762898"><ele>174.0</ele><time>2026-03-28T14:36:59Z</time></trkpt><trkpt lat="43.424317064733096" lon="11.146357283794432"><ele>175.0</ele><time>2026-03-28T14:37:00Z</time></trkpt><trkpt lat="43.42456767362373" lon="11.146051038884643"><ele>172.5</ele><time>2026-03-28T14:37:01Z</time></trkpt><trkpt lat="43.42483531194699" lon="11.145766930732671"><ele>170.0</ele><time>2026-03-28T14:37:02Z</time></trkpt><trkpt lat="43.42510237168369" lon="11.145522449978284"><ele>170.0</ele><time>2026-03-28T14:37:03Z</time></trkpt><trkpt lat="43.42538428156557" lon="11.145302298694974"><ele>170.0</ele><time>2026-03-28T14:37:04Z</time></trkpt><trkpt lat="43.4256802417055" lon="11.145104028771458"><ele>167.5</ele><time>2026-03-28T14:37:05Z</time></trkpt><trkpt lat="43.42599421093532" lon="11.144934830179668"><ele>165.0</ele><time>2026-03-28T14:37:06Z</time></trkpt><trkpt lat="43.42631551417648" lon="11.144786194248567"><ele>165.0</ele><time>2026-03-28T14:37:07Z</time></trkpt><trkpt lat="43.42662932370229" lon="11.144669635712935"><ele>165.0</ele><time>2026-03-28T14:37:08Z</time></trkpt><trkpt lat="43.42694079881133" lon="11.144580302339977"><ele>163.5</ele><time>2026-03-28T14:37:09Z</time></trkpt><trkpt lat="43.427262252676165" lon="11.144512447541775"><ele>162.0</ele><time>2026-03-28T14:37:10Z</time></trkpt><trkpt lat="43.427589518222554" lon="11.144465720640943"><ele>162.0</ele><time>2026-03-28T14:37:11Z</time></trkpt><trkpt lat="43.4279292084775" lon="11.144440795473264"><ele>162.0</ele><time>2026-03-28T14:37:12Z</time></trkpt><trkpt lat="43.42826628012301" lon="11.144423957493919"><ele>161.0</ele><time>2026-03-28T14:37:13Z</time></trkpt><trkpt lat="43.42858064615786" lon="11.14441527425408"><ele>160.0</ele><time>2026-03-28T14:37:14Z</time></trkpt><trkpt lat="43.42888361173854" lon="11.144401126629962"><ele>158.5</ele><time>2026-03-28T14:37:15Z</time></trkpt><trkpt lat="43.429176764801284" lon="11.144390013929254"><ele>157.0</ele><time>2026-03-28T14:37:16Z</time></trkpt><trkpt lat="43.429466871418185" lon="11.144385002618359"><ele>155.0</ele><time>2026-03-28T14:37:17Z</time></trkpt><trkpt lat="43.42977033041608" lon="11.144384251300961"><ele>153.0</ele><time>2026-03-28T14:37:18Z</time></trkpt><trkpt lat="43.43009339460564" lon="11.144380906845475"><ele>153.0</ele><time>2026-03-28T14:37:19Z</time></trkpt><trkpt lat="43.430426876874286" lon="11.144375856014527"><ele>153.0</ele><time>2026-03-28T14:37:20Z</time></trkpt><trkpt lat="43.430751837745376" lon="11.144379629443206"><ele>150.0</ele><time>2026-03-28T14:37:21Z</time></trkpt><trkpt lat="43.431067567678994" lon="11.14438986659197"><ele>147.0</ele><time>2026-03-28T14:37:22Z</time></trkpt><trkpt lat="43.43136769891658" lon="11.144417077911424"><ele>145.5</ele><time>2026-03-28T14:37:23Z</time></trkpt><trkpt lat="43.431660015924955" lon="11.144469484740974"><ele>144.0</ele><time>2026-03-28T14:37:24Z</time></trkpt><trkpt lat="43.43194663192402" lon="11.144550269374491"><ele>144.0</ele><time>2026-03-28T14:37:25Z</time></trkpt><trkpt lat="43.43224337981807" lon="11.144682083808073"><ele>144.0</ele><time>2026-03-28T14:37:26Z</time></trkpt><trkpt lat="43.432554572102795" lon="11.144836313113743"><ele>142.5</ele><time>2026-03-28T14:37:27Z</time></trkpt><trkpt lat="43.43288481995962" lon="11.145004288677164"><ele>141.0</ele><time>2026-03-28T14:37:28Z</time></trkpt><trkpt lat="43.433228522779025" lon="11.145179210368186"><ele>137.5</ele><time>2026-03-28T14:37:29Z</time></trkpt><trkpt lat="43.43356694702845" lon="11.145351617849771"><ele>134.0</ele><time>2026-03-28T14:37:30Z</time></trkpt><trkpt lat="43.433874347592834" lon="11.145506223956973"><ele>136.5</ele><time>2026-03-28T14:37:31Z</time></trkpt><trkpt lat="43.4341729583836" lon="11.145660083426927"><ele>139.0</ele><time>2026-03-28T14:37:32Z</time></trkpt><trkpt lat="43.4344741440529" lon="11.145814822784155"><ele>139.5</ele><time>2026-03-28T14:37:33Z</time></trkpt><trkpt lat="43.43476605441873" lon="11.145966583455532"><ele>140.0</ele><time>2026-03-28T14:37:34Z</time></trkpt><trkpt lat="43.43504149236979" lon="11.14610517709567"><ele>140.0</ele><time>2026-03-28T14:37:35Z</time></trkpt><trkpt lat="43.4353140986744" lon="11.146244644451684"><ele>140.0</ele><time>2026-03-28T14:37:36Z</time></trkpt><trkpt lat="43.43558717207869" lon="11.14638425822105"><ele>142.0</ele><time>2026-03-28T14:37:37Z</time></trkpt><trkpt lat="43.43584263066946" lon="11.146519601573054"><ele>144.0</ele><time>2026-03-28T14:37:38Z</time></trkpt><trkpt lat="43.436085345141706" lon="11.146649677631267"><ele>148.5</ele><time>2026-03-28T14:37:39Z</time></trkpt><trkpt lat="43.43633086544992" lon="11.146772934124758"><ele>153.0</ele><time>2026-03-28T14:37:40Z</time></trkpt><trkpt lat="43.43658308905169" lon="11.146899135322275"><ele>153.0</ele><time>2026-03-28T14:37:41Z</time></trkpt><trkpt lat="43.43683089393627" lon="11.14703037456128"><ele>153.0</ele><time>2026-03-28T14:37:42Z</time></trkpt><trkpt lat="43.43706691254116" lon="11.14717404680645"><ele>153.5</ele><time>2026-03-28T14:37:43Z</time></trkpt><trkpt lat="43.437294081004694" lon="11.147328077567314"><ele>154.0</ele><time>2026-03-28T14:37:44Z</time></trkpt><trkpt lat="43.43750584671318" lon="11.147491094278003"><ele>157.5</ele><time>2026-03-28T14:37:45Z</time></trkpt><trkpt lat="43.437710084336445" lon="11.147661286074573"><ele>161.0</ele><time>2026-03-28T14:37:46Z</time></trkpt><trkpt lat="43.437901250205535" lon="11.147851148478312"><ele>161.5</ele><time>2026-03-28T14:37:47Z</time></trkpt><trkpt lat="43.438085855804495" lon="11.148067904532931"><ele>162.0</ele><time>2026-03-28T14:37:48Z</time></trkpt><trkpt lat="43.43827558830054" lon="11.148291759356137"><ele>162.0</ele><time>2026-03-28T14:37:49Z</time></trkpt><trkpt lat="43.43847559291456" lon="11.148512580258977"><ele>162.0</ele><time>2026-03-28T14:37:50Z</time></trkpt><trkpt lat="43.438678438095806" lon="11.148739145191275"><ele>161.0</ele><time>2026-03-28T14:37:51Z</time></trkpt><trkpt lat="43.43888690138743" lon="11.148959152907658"><ele>160.0</ele><time>2026-03-28T14:37:52Z</time></trkpt><trkpt lat="43.43910679620706" lon="11.149155249423355"><ele>160.0</ele><time>2026-03-28T14:37:53Z</time></trkpt><trkpt lat="43.439340064956305" lon="11.149324574310759"><ele>160.0</ele><time>2026-03-28T14:37:54Z</time></trkpt><trkpt lat="43.439583944375634" lon="11.149488589691705"><ele>160.0</ele><time>2026-03-28T14:37:55Z</time></trkpt><trkpt lat="43.43983994411262" lon="11.149635108783885"><ele>160.0</ele><time>2026-03-28T14:37:56Z</time></trkpt><trkpt lat="43.4400937106631" lon="11.149751897130756"><ele>160.0</ele><time>2026-03-28T14:37:57Z</time></trkpt><trkpt lat="43.44035815555402" lon="11.149854672234717"><ele>160.0</ele><time>2026-03-28T14:37:58Z</time></trkpt><trkpt lat="43.44064175396101" lon="11.149933471030671"><ele>153.0</ele><time>2026-03-28T14:37:59Z</time></trkpt><trkpt lat="43.440939775882924" lon="11.14998309627973"><ele>146.0</ele><time>2026-03-28T14:38:00Z</time></trkpt><trkpt lat="43.441268918211925" lon="11.150016005162414"><ele>144.5</ele><time>2026-03-28T14:38:01Z</time></trkpt><trkpt lat="43.441610775861555" lon="11.150028677940476"><ele>143.0</ele><time>2026-03-28T14:38:02Z</time></trkpt><trkpt lat="43.44197189597736" lon="11.150009410824065"><ele>140.0</ele><time>2026-03-28T14:38:03Z</time></trkpt><trkpt lat="43.44235626500916" lon="11.149995860441443"><ele>137.0</ele><time>2026-03-28T14:38:04Z</time></trkpt><trkpt lat="43.44271264414947" lon="11.149994815131498"><ele>134.5</ele><time>2026-03-28T14:38:05Z</time></trkpt><trkpt lat="43.443042361403606" lon="11.149981820268636"><ele>132.0</ele><time>2026-03-28T14:38:06Z</time></trkpt><trkpt lat="43.44336378105967" lon="11.149969531052921"><ele>132.0</ele><time>2026-03-28T14:38:07Z</time></trkpt><trkpt lat="43.44367239036124" lon="11.14996243955035"><ele>132.0</ele><time>2026-03-28T14:38:08Z</time></trkpt><trkpt lat="43.44397455142729" lon="11.149958127287109"><ele>130.0</ele><time>2026-03-28T14:38:09Z</time></trkpt><trkpt lat="43.44426893524856" lon="11.14995771824589"><ele>128.0</ele><time>2026-03-28T14:38:10Z</time></trkpt><trkpt lat="43.44456422387684" lon="11.149973118585649"><ele>127.0</ele><time>2026-03-28T14:38:11Z</time></trkpt><trkpt lat="43.44486311149425" lon="11.150014274896606"><ele>126.0</ele><time>2026-03-28T14:38:12Z</time></trkpt><trkpt lat="43.44516312207731" lon="11.150090366793536"><ele>126.0</ele><time>2026-03-28T14:38:13Z</time></trkpt><trkpt lat="43.44545409638145" lon="11.150195486202858"><ele>126.0</ele><time>2026-03-28T14:38:14Z</time></trkpt><trkpt lat="43.44573227327725" lon="11.150326375003868"><ele>127.5</ele><time>2026-03-28T14:38:15Z</time></trkpt><trkpt lat="43.446007670606036" lon="11.150482315124558"><ele>129.0</ele><time>2026-03-28T14:38:16Z</time></trkpt><trkpt lat="43.44627291604385" lon="11.150643250107683"><ele>125.0</ele><time>2026-03-28T14:38:17Z</time></trkpt><trkpt lat="43.446524933317825" lon="11.150830551558142"><ele>121.0</ele><time>2026-03-28T14:38:18Z</time></trkpt><trkpt lat="43.44677108700331" lon="11.151059447126894"><ele>121.0</ele><time>2026-03-28T14:38:19Z</time></trkpt><trkpt lat="43.44702502899651" lon="11.15133870141205"><ele>121.0</ele><time>2026-03-28T14:38:20Z</time></trkpt><trkpt lat="43.447294686950336" lon="11.151617378953333"><ele>119.0</ele><time>2026-03-28T14:38:21Z</time></trkpt><trkpt lat="43.44756913615466" lon="11.151910982719121"><ele>117.0</ele><time>2026-03-28T14:38:22Z</time></trkpt><trkpt lat="43.44786439072727" lon="11.15221474770424"><ele>115.5</ele><time>2026-03-28T14:38:23Z</time></trkpt><trkpt lat="43.44817282788463" lon="11.152516003082185"><ele>114.0</ele><time>2026-03-28T14:38:24Z</time></trkpt><trkpt lat="43.44849448069191" lon="11.15280377305224"><ele>113.0</ele><time>2026-03-28T14:38:25Z</time></trkpt><trkpt lat="43.448806709667615" lon="11.153055411923237"><ele>112.0</ele><time>2026-03-28T14:38:26Z</time></trkpt><trkpt lat="43.4491152172576" lon="11.153277446668294"><ele>116.5</ele><time>2026-03-28T14:38:27Z</time></trkpt><trkpt lat="43.44941918141261" lon="11.153482449782935"><ele>121.0</ele><time>2026-03-28T14:38:28Z</time></trkpt><trkpt lat="43.449721177911734" lon="11.153668019108151"><ele>122.5</ele><time>2026-03-28T14:38:29Z</time></trkpt><trkpt lat="43.450035956686115" lon="11.153838956271365"><ele>124.0</ele><time>2026-03-28T14:38:30Z</time></trkpt><trkpt lat="43.45037792995396" lon="11.15400596659561"><ele>122.5</ele><time>2026-03-28T14:38:31Z</time></trkpt><trkpt lat="43.450704794539845" lon="11.154183001881263"><ele>121.0</ele><time>2026-03-28T14:38:32Z</time></trkpt><trkpt lat="43.451008573615766" lon="11.154351784775573"><ele>116.0</ele><time>2026-03-28T14:38:33Z</time></trkpt><trkpt lat="43.451302806552754" lon="11.154507890844004"><ele>111.0</ele><time>2026-03-28T14:38:34Z</time></trkpt><trkpt lat="43.45158789678006" lon="11.154666614908239"><ele>111.0</ele><time>2026-03-28T14:38:35Z</time></trkpt><trkpt lat="43.45187803187117" lon="11.154823245988478"><ele>111.0</ele><time>2026-03-28T14:38:36Z</time></trkpt><trkpt lat="43.45216956726719" lon="11.154980694805438"><ele>111.0</ele><time>2026-03-28T14:38:37Z</time></trkpt><trkpt lat="43.45245117309614" lon="11.15515201937442"><ele>111.0</ele><time>2026-03-28T14:38:38Z</time></trkpt><trkpt lat="43.45273017872105" lon="11.15534330887951"><ele>111.0</ele><time>2026-03-28T14:38:39Z</time></trkpt><trkpt lat="43.45299425361551" lon="11.155552837187349"><ele>111.0</ele><time>2026-03-28T14:38:40Z</time></trkpt><trkpt lat="43.4532440016476" lon="11.155784350960756"><ele>111.0</ele><time>2026-03-28T14:38:41Z</time></trkpt><trkpt lat="43.45347648079658" lon="11.156028162876156"><ele>111.0</ele><time>2026-03-28T14:38:42Z</time></trkpt><trkpt lat="43.45370524325271" lon="11.156287231835575"><ele>110.5</ele><time>2026-03-28T14:38:43Z</time></trkpt><trkpt lat="43.45392906434818" lon="11.156570785128872"><ele>110.0</ele><time>2026-03-28T14:38:44Z</time></trkpt><trkpt lat="43.4541572634728" lon="11.15688866997126"><ele>110.0</ele><time>2026-03-28T14:38:45Z</time></trkpt><trkpt lat="43.45438774097445" lon="11.157212687368116"><ele>110.0</ele><time>2026-03-28T14:38:46Z</time></trkpt><trkpt lat="43.45460306230643" lon="11.157512900157508"><ele>109.0</ele><time>2026-03-28T14:38:47Z</time></trkpt><trkpt lat="43.454815711358144" lon="11.15779825741848"><ele>108.0</ele><time>2026-03-28T14:38:48Z</time></trkpt><trkpt lat="43.455020387198125" lon="11.158073323628875"><ele>112.0</ele><time>2026-03-28T14:38:49Z</time></trkpt><trkpt lat="43.455228465092674" lon="11.15835585316165"><ele>116.0</ele><time>2026-03-28T14:38:50Z</time></trkpt><trkpt lat="43.45544086056122" lon="11.158644221031574"><ele>114.5</ele><time>2026-03-28T14:38:51Z</time></trkpt><trkpt lat="43.45565695861168" lon="11.15893412076534"><ele>113.0</ele><time>2026-03-28T14:38:52Z</time></trkpt><trkpt lat="43.455881354930476" lon="11.159214987604054"><ele>113.0</ele><time>2026-03-28T14:38:53Z</time></trkpt><trkpt lat="43.45611626413348" lon="11.159498361041845"><ele>113.0</ele><time>2026-03-28T14:38:54Z</time></trkpt><trkpt lat="43.45635989806393" lon="11.159776409379392"><ele>111.0</ele><time>2026-03-28T14:38:55Z</time></trkpt><trkpt lat="43.45658663152725" lon="11.16010130456129"><ele>109.0</ele><time>2026-03-28T14:38:56Z</time></trkpt><trkpt lat="43.45677605162953" lon="11.160476743579125"><ele>109.5</ele><time>2026-03-28T14:38:57Z</time></trkpt><trkpt lat="43.457035368280806" lon="11.160836221839716"><ele>110.0</ele><time>2026-03-28T14:38:58Z</time></trkpt><trkpt lat="43.45730658316218" lon="11.161209094494534"><ele>109.5</ele><time>2026-03-28T14:38:59Z</time></trkpt><trkpt lat="43.45754907606494" lon="11.16154772708345"><ele>109.0</ele><time>2026-03-28T14:39:00Z</time></trkpt><trkpt lat="43.45778342549159" lon="11.161862779307997"><ele>107.0</ele><time>2026-03-28T14:39:01Z</time></trkpt><trkpt lat="43.45802112921798" lon="11.162163874376727"><ele>105.0</ele><time>2026-03-28T14:39:02Z</time></trkpt><trkpt lat="43.458265229173435" lon="11.16244328644664"><ele>104.5</ele><time>2026-03-28T14:39:03Z</time></trkpt><trkpt lat="43.458523990077694" lon="11.162690476280547"><ele>104.0</ele><time>2026-03-28T14:39:04Z</time></trkpt><trkpt lat="43.458802395094075" lon="11.162910049914563"><ele>106.0</ele><time>2026-03-28T14:39:05Z</time></trkpt><trkpt lat="43.45909000157216" lon="11.163099995537923"><ele>108.0</ele><time>2026-03-28T14:39:06Z</time></trkpt><trkpt lat="43.45938900192181" lon="11.163274971943736"><ele>107.5</ele><time>2026-03-28T14:39:07Z</time></trkpt><trkpt lat="43.45969025776452" lon="11.163403897919924"><ele>107.0</ele><time>2026-03-28T14:39:08Z</time></trkpt><trkpt lat="43.46000324946593" lon="11.163505498916004"><ele>107.0</ele><time>2026-03-28T14:39:09Z</time></trkpt><trkpt lat="43.46032458442906" lon="11.163579162104087"><ele>107.0</ele><time>2026-03-28T14:39:10Z</time></trkpt><trkpt lat="43.46064592678434" lon="11.163626762421082"><ele>106.5</ele><time>2026-03-28T14:39:11Z</time></trkpt><trkpt lat="43.46096951591718" lon="11.163641659551264"><ele>106.0</ele><time>2026-03-28T14:39:12Z</time></trkpt><trkpt lat="43.461295577123686" lon="11.16362785309851"><ele>106.0</ele><time>2026-03-28T14:39:13Z</time></trkpt><trkpt lat="43.461652208954" lon="11.16359072975625"><ele>106.0</ele><time>2026-03-28T14:39:14Z</time></trkpt><trkpt lat="43.46201830219275" lon="11.16354448876034"><ele>107.5</ele><time>2026-03-28T14:39:15Z</time></trkpt><trkpt lat="43.462361691581386" lon="11.1635061568791"><ele>109.0</ele><time>2026-03-28T14:39:16Z</time></trkpt><trkpt lat="43.46269191431771" lon="11.163464997507992"><ele>109.0</ele><time>2026-03-28T14:39:17Z</time></trkpt><trkpt lat="43.463032317428976" lon="11.163408561800077"><ele>109.0</ele><time>2026-03-28T14:39:18Z</time></trkpt><trkpt lat="43.46336640749503" lon="11.163295598646346"><ele>108.0</ele><time>2026-03-28T14:39:19Z</time></trkpt><trkpt lat="43.46368536515856" lon="11.163183183136821"><ele>107.0</ele><time>2026-03-28T14:39:20Z</time></trkpt><trkpt lat="43.46398288250425" lon="11.163052452853204"><ele>107.0</ele><time>2026-03-28T14:39:21Z</time></trkpt><trkpt lat="43.46428413008971" lon="11.162895850217012"><ele>107.0</ele><time>2026-03-28T14:39:22Z</time></trkpt><trkpt lat="43.46458703201114" lon="11.162722834151985"><ele>107.5</ele><time>2026-03-28T14:39:23Z</time></trkpt><trkpt lat="43.46488104595171" lon="11.162531002996605"><ele>108.0</ele><time>2026-03-28T14:39:24Z</time></trkpt><trkpt lat="43.46515899681355" lon="11.162322485757281"><ele>108.5</ele><time>2026-03-28T14:39:25Z</time></trkpt><trkpt lat="43.465428905418314" lon="11.162092307786285"><ele>109.0</ele><time>2026-03-28T14:39:26Z</time></trkpt><trkpt lat="43.46569467622824" lon="11.161845503497826"><ele>109.0</ele><time>2026-03-28T14:39:27Z</time></trkpt><trkpt lat="43.46596535797345" lon="11.161568977385835"><ele>109.0</ele><time>2026-03-28T14:39:28Z</time></trkpt><trkpt lat="43.46623168289084" lon="11.16126955980648"><ele>107.0</ele><time>2026-03-28T14:39:29Z</time></trkpt><trkpt lat="43.46647676765563" lon="11.160958754898243"><ele>105.0</ele><time>2026-03-28T14:39:30Z</time></trkpt><trkpt lat="43.46669913767313" lon="11.160629123542906"><ele>104.5</ele><time>2026-03-28T14:39:31Z</time></trkpt><trkpt lat="43.46691083550015" lon="11.160284000801031"><ele>104.0</ele><time>2026-03-28T14:39:32Z</time></trkpt><trkpt lat="43.46712044812437" lon="11.159905690725969"><ele>102.5</ele><time>2026-03-28T14:39:33Z</time></trkpt><trkpt lat="43.467330655863655" lon="11.159494525558925"><ele>101.0</ele><time>2026-03-28T14:39:34Z</time></trkpt><trkpt lat="43.46753446911596" lon="11.159046620030077"><ele>101.0</ele><time>2026-03-28T14:39:35Z</time></trkpt><trkpt lat="43.467735389120534" lon="11.15860249277396"><ele>101.0</ele><time>2026-03-28T14:39:36Z</time></trkpt><trkpt lat="43.46792172502754" lon="11.158187224369712"><ele>103.0</ele><time>2026-03-28T14:39:37Z</time></trkpt><trkpt lat="43.46810929057917" lon="11.157788881217996"><ele>105.0</ele><time>2026-03-28T14:39:38Z</time></trkpt><trkpt lat="43.468288823750015" lon="11.157404967931319"><ele>104.0</ele><time>2026-03-28T14:39:39Z</time></trkpt><trkpt lat="43.46845619079291" lon="11.15704664071549"><ele>103.0</ele><time>2026-03-28T14:39:40Z</time></trkpt><trkpt lat="43.46863074233357" lon="11.156695444177073"><ele>103.0</ele><time>2026-03-28T14:39:41Z</time></trkpt><trkpt lat="43.468813513934805" lon="11.156350333374368"><ele>103.0</ele><time>2026-03-28T14:39:42Z</time></trkpt><trkpt lat="43.4690047315114" lon="11.156023792990243"><ele>103.0</ele><time>2026-03-28T14:39:43Z</time></trkpt><trkpt lat="43.469227316499996" lon="11.15570945964962"><ele>103.0</ele><time>2026-03-28T14:39:44Z</time></trkpt><trkpt lat="43.46947472193282" lon="11.155396884001028"><ele>103.0</ele><time>2026-03-28T14:39:45Z</time></trkpt><trkpt lat="43.46973767550497" lon="11.155085191839941"><ele>103.0</ele><time>2026-03-28T14:39:46Z</time></trkpt><trkpt lat="43.47000881027155" lon="11.154792478907797"><ele>103.5</ele><time>2026-03-28T14:39:47Z</time></trkpt><trkpt lat="43.470295297112564" lon="11.15451602489993"><ele>104.0</ele><time>2026-03-28T14:39:48Z</time></trkpt><trkpt lat="43.470606829752576" lon="11.154262738928576"><ele>103.0</ele><time>2026-03-28T14:39:49Z</time></trkpt><trkpt lat="43.47092025308732" lon="11.154034591812751"><ele>102.0</ele><time>2026-03-28T14:39:50Z</time></trkpt><trkpt lat="43.47121234372164" lon="11.15385390430254"><ele>104.0</ele><time>2026-03-28T14:39:51Z</time></trkpt><trkpt lat="43.4715049593243" lon="11.15368576610261"><ele>106.0</ele><time>2026-03-28T14:39:52Z</time></trkpt><trkpt lat="43.47181951025671" lon="11.15354044939252"><ele>108.0</ele><time>2026-03-28T14:39:53Z</time></trkpt><trkpt lat="43.4721506616286" lon="11.15339355259743"><ele>110.0</ele><time>2026-03-28T14:39:54Z</time></trkpt><trkpt lat="43.47249788236128" lon="11.153237934107267"><ele>109.0</ele><time>2026-03-28T14:39:55Z</time></trkpt><trkpt lat="43.472855175900726" lon="11.15307661864855"><ele>108.0</ele><time>2026-03-28T14:39:56Z</time></trkpt><trkpt lat="43.47322545336279" lon="11.152906013554382"><ele>108.0</ele><time>2026-03-28T14:39:57Z</time></trkpt><trkpt lat="43.47358471362394" lon="11.152738220312324"><ele>108.0</ele><time>2026-03-28T14:39:58Z</time></trkpt><trkpt lat="43.473906371313866" lon="11.15258881102819"><ele>107.0</ele><time>2026-03-28T14:39:59Z</time></trkpt><trkpt lat="43.474203297965154" lon="11.152447350692922"><ele>106.0</ele><time>2026-03-28T14:40:00Z</time></trkpt><trkpt lat="43.474493829398405" lon="11.152319730188676"><ele>112.0</ele><time>2026-03-28T14:40:01Z</time></trkpt><trkpt lat="43.47480239626591" lon="11.152216807245795"><ele>118.0</ele><time>2026-03-28T14:40:02Z</time></trkpt><trkpt lat="43.47511819283845" lon="11.152152301092384"><ele>118.0</ele><time>2026-03-28T14:40:03Z</time></trkpt><trkpt lat="43.47541925647612" lon="11.152107119663253"><ele>118.0</ele><time>2026-03-28T14:40:04Z</time></trkpt><trkpt lat="43.475715319407044" lon="11.15203958134883"><ele>121.0</ele><time>2026-03-28T14:40:05Z</time></trkpt><trkpt lat="43.476018613318715" lon="11.151925884128573"><ele>124.0</ele><time>2026-03-28T14:40:06Z</time></trkpt><trkpt lat="43.47632891188772" lon="11.151778884474611"><ele>128.5</ele><time>2026-03-28T14:40:07Z</time></trkpt><trkpt lat="43.47664610648076" lon="11.151598978743086"><ele>133.0</ele><time>2026-03-28T14:40:08Z</time></trkpt><trkpt lat="43.476964800211704" lon="11.151400950800447"><ele>133.0</ele><time>2026-03-28T14:40:09Z</time></trkpt><trkpt lat="43.47729666651658" lon="11.151194412748985"><ele>133.0</ele><time>2026-03-28T14:40:10Z</time></trkpt><trkpt lat="43.477628328567654" lon="11.150994608417253"><ele>133.5</ele><time>2026-03-28T14:40:11Z</time></trkpt><trkpt lat="43.47797530517762" lon="11.150794004455465"><ele>134.0</ele><time>2026-03-28T14:40:12Z</time></trkpt><trkpt lat="43.478306263832344" lon="11.150613825302084"><ele>130.5</ele><time>2026-03-28T14:40:13Z</time></trkpt><trkpt lat="43.478609658598394" lon="11.150454474765933"><ele>127.0</ele><time>2026-03-28T14:40:14Z</time></trkpt><trkpt lat="43.47889872851449" lon="11.150306165170438"><ele>123.5</ele><time>2026-03-28T14:40:15Z</time></trkpt><trkpt lat="43.47918953744652" lon="11.150165635930874"><ele>120.0</ele><time>2026-03-28T14:40:16Z</time></trkpt><trkpt lat="43.47948494450597" lon="11.150042328128116"><ele>118.5</ele><time>2026-03-28T14:40:17Z</time></trkpt><trkpt lat="43.4797891132863" lon="11.149944737751678"><ele>117.0</ele><time>2026-03-28T14:40:18Z</time></trkpt><trkpt lat="43.48010007921358" lon="11.14988491663132"><ele>117.0</ele><time>2026-03-28T14:40:19Z</time></trkpt><trkpt lat="43.48040332875226" lon="11.149856133973033"><ele>117.0</ele><time>2026-03-28T14:40:20Z</time></trkpt><trkpt lat="43.48070126929596" lon="11.149859780339117"><ele>121.0</ele><time>2026-03-28T14:40:21Z</time></trkpt><trkpt lat="43.48099441206348" lon="11.149888164701261"><ele>125.0</ele><time>2026-03-28T14:40:22Z</time></trkpt><trkpt lat="43.481277895993436" lon="11.149941257271164"><ele>125.5</ele><time>2026-03-28T14:40:23Z</time></trkpt><trkpt lat="43.481554092529414" lon="11.150001631715485"><ele>126.0</ele><time>2026-03-28T14:40:24Z</time></trkpt><trkpt lat="43.48182013762276" lon="11.150098854059152"><ele>126.0</ele><time>2026-03-28T14:40:25Z</time></trkpt><trkpt lat="43.482071641141694" lon="11.150214282709682"><ele>126.0</ele><time>2026-03-28T14:40:26Z</time></trkpt><trkpt lat="43.4823164856047" lon="11.150358728798839"><ele>125.5</ele><time>2026-03-28T14:40:27Z</time></trkpt><trkpt lat="43.48256751329769" lon="11.150526990721612"><ele>125.0</ele><time>2026-03-28T14:40:28Z</time></trkpt><trkpt lat="43.482813505673775" lon="11.150712171606777"><ele>122.0</ele><time>2026-03-28T14:40:29Z</time></trkpt><trkpt lat="43.48305007974486" lon="11.150916143997652"><ele>119.0</ele><time>2026-03-28T14:40:30Z</time></trkpt><trkpt lat="43.483289395848814" lon="11.151143141365749"><ele>119.0</ele><time>2026-03-28T14:40:31Z</time></trkpt><trkpt lat="43.48353773276872" lon="11.15138915723843"><ele>119.0</ele><time>2026-03-28T14:40:32Z</time></trkpt><trkpt lat="43.48379759779576" lon="11.151644122369714"><ele>115.0</ele><time>2026-03-28T14:40:33Z</time></trkpt><trkpt lat="43.48407650107582" lon="11.151908002989911"><ele>111.0</ele><time>2026-03-28T14:40:34Z</time></trkpt><trkpt lat="43.4843529854775" lon="11.152169215971577"><ele>110.5</ele><time>2026-03-28T14:40:35Z</time></trkpt><trkpt lat="43.48461029942139" lon="11.152417761917294"><ele>110.0</ele><time>2026-03-28T14:40:36Z</time></trkpt><trkpt lat="43.48485033493603" lon="11.152655691681073"><ele>110.0</ele><time>2026-03-28T14:40:37Z</time></trkpt><trkpt lat="43.48508334822622" lon="11.15289310536594"><ele>110.0</ele><time>2026-03-28T14:40:38Z</time></trkpt><trkpt lat="43.485312437800054" lon="11.15313741822476"><ele>111.5</ele><time>2026-03-28T14:40:39Z</time></trkpt><trkpt lat="43.48553627637999" lon="11.15341673121124"><ele>113.0</ele><time>2026-03-28T14:40:40Z</time></trkpt><trkpt lat="43.485747542490195" lon="11.153741065386987"><ele>113.0</ele><time>2026-03-28T14:40:41Z</time></trkpt><trkpt lat="43.4859366593584" lon="11.154080417853004"><ele>113.0</ele><time>2026-03-28T14:40:42Z</time></trkpt><trkpt lat="43.48610511764629" lon="11.15441907688118"><ele>113.0</ele><time>2026-03-28T14:40:43Z</time></trkpt><trkpt lat="43.48625536947509" lon="11.154756387325584"><ele>113.0</ele><time>2026-03-28T14:40:44Z</time></trkpt><trkpt lat="43.486386593463955" lon="11.155108535680434"><ele>115.0</ele><time>2026-03-28T14:40:45Z</time></trkpt><trkpt lat="43.486503498947286" lon="11.155483438086002"><ele>117.0</ele><time>2026-03-28T14:40:46Z</time></trkpt><trkpt lat="43.48660195606097" lon="11.15587358740728"><ele>118.5</ele><time>2026-03-28T14:40:47Z</time></trkpt><trkpt lat="43.48669045974001" lon="11.156274620083286"><ele>120.0</ele><time>2026-03-28T14:40:48Z</time></trkpt><trkpt lat="43.48676326775714" lon="11.156687849477416"><ele>120.5</ele><time>2026-03-28T14:40:49Z</time></trkpt><trkpt lat="43.486822930727875" lon="11.15712379982752"><ele>121.0</ele><time>2026-03-28T14:40:50Z</time></trkpt><trkpt lat="43.4868817673192" lon="11.157585830194467"><ele>121.0</ele><time>2026-03-28T14:40:51Z</time></trkpt><trkpt lat="43.48694627216808" lon="11.158081293761164"><ele>121.0</ele><time>2026-03-28T14:40:52Z</time></trkpt><trkpt lat="43.487017865005726" lon="11.158592715461968"><ele>119.0</ele><time>2026-03-28T14:40:53Z</time></trkpt><trkpt lat="43.48708642039412" lon="11.159122372146166"><ele>117.0</ele><time>2026-03-28T14:40:54Z</time></trkpt><trkpt lat="43.487156149345736" lon="11.159670844847708"><ele>121.5</ele><time>2026-03-28T14:40:55Z</time></trkpt><trkpt lat="43.487227288277694" lon="11.16020437644262"><ele>126.0</ele><time>2026-03-28T14:40:56Z</time></trkpt><trkpt lat="43.48729450058713" lon="11.160728488372827"><ele>126.5</ele><time>2026-03-28T14:40:57Z</time></trkpt><trkpt lat="43.48737744926113" lon="11.161282696314633"><ele>127.0</ele><time>2026-03-28T14:40:58Z</time></trkpt><trkpt lat="43.48750030296138" lon="11.161917268548804"><ele>125.0</ele><time>2026-03-28T14:40:59Z</time></trkpt><trkpt lat="43.48761636734964" lon="11.162541503765976"><ele>125.0</ele><time>2026-03-28T14:41:00Z</time></trkpt><trkpt lat="43.4876513173866" lon="11.163093152274925"><ele>125.0</ele><time>2026-03-28T14:41:01Z</time></trkpt><trkpt lat="43.48768305879709" lon="11.163599920729185"><ele>124.5</ele><time>2026-03-28T14:41:02Z</time></trkpt><trkpt lat="43.487732211810886" lon="11.164072425960326"><ele>124.0</ele><time>2026-03-28T14:41:03Z</time></trkpt><trkpt lat="43.48778852732674" lon="11.164544525535145"><ele>124.0</ele><time>2026-03-28T14:41:04Z</time></trkpt><trkpt lat="43.487861437451336" lon="11.165013414945868"><ele>124.0</ele><time>2026-03-28T14:41:05Z</time></trkpt><trkpt lat="43.48791969104053" lon="11.165439372323199"><ele>126.0</ele><time>2026-03-28T14:41:06Z</time></trkpt><trkpt lat="43.48798202193462" lon="11.165842016006744"><ele>128.0</ele><time>2026-03-28T14:41:07Z</time></trkpt><trkpt lat="43.48804351151795" lon="11.166222545173744"><ele>130.0</ele><time>2026-03-28T14:41:08Z</time></trkpt><trkpt lat="43.4881079246699" lon="11.166592917770977"><ele>132.0</ele><time>2026-03-28T14:41:09Z</time></trkpt><trkpt lat="43.488182154145534" lon="11.16697533846509"><ele>132.0</ele><time>2026-03-28T14:41:10Z</time></trkpt><trkpt lat="43.488265009821085" lon="11.167353224889856"><ele>132.0</ele><time>2026-03-28T14:41:11Z</time></trkpt><trkpt lat="43.48835286240155" lon="11.167745473436858"><ele>131.5</ele><time>2026-03-28T14:41:12Z</time></trkpt><trkpt lat="43.488447813516906" lon="11.168147808852591"><ele>131.0</ele><time>2026-03-28T14:41:13Z</time></trkpt><trkpt lat="43.48855818094461" lon="11.168562888890543"><ele>131.0</ele><time>2026-03-28T14:41:14Z</time></trkpt><trkpt lat="43.488675778789734" lon="11.168975070867928"><ele>131.0</ele><time>2026-03-28T14:41:15Z</time></trkpt><trkpt lat="43.48880064894768" lon="11.169389408761333"><ele>134.5</ele><time>2026-03-28T14:41:16Z</time></trkpt><trkpt lat="43.48894068128257" lon="11.169809972492768"><ele>138.0</ele><time>2026-03-28T14:41:17Z</time></trkpt><trkpt lat="43.489100587748645" lon="11.170249824541953"><ele>137.5</ele><time>2026-03-28T14:41:18Z</time></trkpt><trkpt lat="43.489271423587056" lon="11.170703421315979"><ele>137.0</ele><time>2026-03-28T14:41:19Z</time></trkpt><trkpt lat="43.48945248932699" lon="11.171163734865448"><ele>139.0</ele><time>2026-03-28T14:41:20Z</time></trkpt><trkpt lat="43.48964834049441" lon="11.171630960552125"><ele>141.0</ele><time>2026-03-28T14:41:21Z</time></trkpt><trkpt lat="43.4898600506858" lon="11.172101197247812"><ele>139.5</ele><time>2026-03-28T14:41:22Z</time></trkpt><trkpt lat="43.49004200722665" lon="11.172589347956475"><ele>138.0</ele><time>2026-03-28T14:41:23Z</time></trkpt><trkpt lat="43.490191224026056" lon="11.173077930635907"><ele>137.0</ele><time>2026-03-28T14:41:24Z</time></trkpt><trkpt lat="43.49031838374386" lon="11.173554261765787"><ele>136.0</ele><time>2026-03-28T14:41:25Z</time></trkpt><trkpt lat="43.49072980391748" lon="11.173808389121435"><ele>139.0</ele><time>2026-03-28T14:41:26Z</time></trkpt><trkpt lat="43.49093846088985" lon="11.174208012692155"><ele>142.0</ele><time>2026-03-28T14:41:27Z</time></trkpt><trkpt lat="43.49114454150145" lon="11.17460589456438"><ele>145.5</ele><time>2026-03-28T14:41:28Z</time></trkpt><trkpt lat="43.49135877760098" lon="11.175012792255625"><ele>149.0</ele><time>2026-03-28T14:41:29Z</time></trkpt><trkpt lat="43.491562706895564" lon="11.175399415338102"><ele>149.0</ele><time>2026-03-28T14:41:30Z</time></trkpt><trkpt lat="43.491752190371294" lon="11.175752424785147"><ele>149.0</ele><time>2026-03-28T14:41:31Z</time></trkpt><trkpt lat="43.49193662319287" lon="11.176094015231458"><ele>153.5</ele><time>2026-03-28T14:41:32Z</time></trkpt><trkpt lat="43.492109332576874" lon="11.176424686065083"><ele>158.0</ele><time>2026-03-28T14:41:33Z</time></trkpt><trkpt lat="43.492289382859695" lon="11.176750513628804"><ele>158.0</ele><time>2026-03-28T14:41:34Z</time></trkpt><trkpt lat="43.49249047687374" lon="11.177069099052646"><ele>158.0</ele><time>2026-03-28T14:41:35Z</time></trkpt><trkpt lat="43.492714997496535" lon="11.17738579873143"><ele>156.5</ele><time>2026-03-28T14:41:36Z</time></trkpt><trkpt lat="43.49296245087994" lon="11.177688474018165"><ele>155.0</ele><time>2026-03-28T14:41:37Z</time></trkpt><trkpt lat="43.493215960709435" lon="11.177950653803384"><ele>155.0</ele><time>2026-03-28T14:41:38Z</time></trkpt><trkpt lat="43.49349545482204" lon="11.17820894531249"><ele>155.0</ele><time>2026-03-28T14:41:39Z</time></trkpt><trkpt lat="43.49378416763559" lon="11.178434277281934"><ele>155.0</ele><time>2026-03-28T14:41:40Z</time></trkpt><trkpt lat="43.49407346975474" lon="11.178628841007768"><ele>155.0</ele><time>2026-03-28T14:41:41Z</time></trkpt><trkpt lat="43.49438335688657" lon="11.178801639609675"><ele>157.5</ele><time>2026-03-28T14:41:42Z</time></trkpt><trkpt lat="43.494715054128434" lon="11.17896549414949"><ele>160.0</ele><time>2026-03-28T14:41:43Z</time></trkpt><trkpt lat="43.49504333021497" lon="11.179132075651884"><ele>161.0</ele><time>2026-03-28T14:41:44Z</time></trkpt><trkpt lat="43.495356408771364" lon="11.179310295210486"><ele>162.0</ele><time>2026-03-28T14:41:45Z</time></trkpt><trkpt lat="43.49566990585273" lon="11.179516716413588"><ele>162.0</ele><time>2026-03-28T14:41:46Z</time></trkpt><trkpt lat="43.49597875902573" lon="11.179729379664906"><ele>162.0</ele><time>2026-03-28T14:41:47Z</time></trkpt><trkpt lat="43.4962652946256" lon="11.179958356586262"><ele>164.5</ele><time>2026-03-28T14:41:48Z</time></trkpt><trkpt lat="43.49653622837463" lon="11.18019721044873"><ele>167.0</ele><time>2026-03-28T14:41:49Z</time></trkpt><trkpt lat="43.496800835161324" lon="11.18045498342389"><ele>168.0</ele><time>2026-03-28T14:41:50Z</time></trkpt><trkpt lat="43.497056136650144" lon="11.180719390679378"><ele>169.0</ele><time>2026-03-28T14:41:51Z</time></trkpt><trkpt lat="43.4973123986487" lon="11.181006906061672"><ele>169.0</ele><time>2026-03-28T14:41:52Z</time></trkpt><trkpt lat="43.49756159108857" lon="11.181307194049394"><ele>169.0</ele><time>2026-03-28T14:41:53Z</time></trkpt><trkpt lat="43.497813866955966" lon="11.181635299024"><ele>172.5</ele><time>2026-03-28T14:41:54Z</time></trkpt><trkpt lat="43.49805377454081" lon="11.181971008146585"><ele>176.0</ele><time>2026-03-28T14:41:55Z</time></trkpt><trkpt lat="43.49827774112373" lon="11.182321480242646"><ele>177.5</ele><time>2026-03-28T14:41:56Z</time></trkpt><trkpt lat="43.49849293897254" lon="11.18269224700799"><ele>179.0</ele><time>2026-03-28T14:41:57Z</time></trkpt><trkpt lat="43.49869365078615" lon="11.183070043453263"><ele>178.5</ele><time>2026-03-28T14:41:58Z</time></trkpt><trkpt lat="43.498895030035186" lon="11.183464969659171"><ele>178.0</ele><time>2026-03-28T14:41:59Z</time></trkpt><trkpt lat="43.499105656373274" lon="11.183880426014593"><ele>182.0</ele><time>2026-03-28T14:42:00Z</time></trkpt><trkpt lat="43.49932731253383" lon="11.184300927119246"><ele>186.0</ele><time>2026-03-28T14:42:01Z</time></trkpt><trkpt lat="43.49953449753558" lon="11.184705423172423"><ele>184.0</ele><time>2026-03-28T14:42:02Z</time></trkpt><trkpt lat="43.499734710064246" lon="11.185081570145313"><ele>182.0</ele><time>2026-03-28T14:42:03Z</time></trkpt><trkpt lat="43.49993237048238" lon="11.185440502142662"><ele>186.0</ele><time>2026-03-28T14:42:04Z</time></trkpt><trkpt lat="43.50013781970272" lon="11.185781684454723"><ele>190.0</ele><time>2026-03-28T14:42:05Z</time></trkpt><trkpt lat="43.50035983192406" lon="11.186090381335536"><ele>189.0</ele><time>2026-03-28T14:42:06Z</time></trkpt><trkpt lat="43.50059818513372" lon="11.186373929082645"><ele>188.0</ele><time>2026-03-28T14:42:07Z</time></trkpt><trkpt lat="43.50085830150189" lon="11.186636305255275"><ele>188.0</ele><time>2026-03-28T14:42:08Z</time></trkpt><trkpt lat="43.501143928644524" lon="11.186883471034434"><ele>188.0</ele><time>2026-03-28T14:42:09Z</time></trkpt><trkpt lat="43.501436489531685" lon="11.187112463289504"><ele>185.5</ele><time>2026-03-28T14:42:10Z</time></trkpt><trkpt lat="43.501733159233645" lon="11.187303601949349"><ele>183.0</ele><time>2026-03-28T14:42:11Z</time></trkpt><trkpt lat="43.50204616198397" lon="11.187470211937343"><ele>188.5</ele><time>2026-03-28T14:42:12Z</time></trkpt><trkpt lat="43.502381300360625" lon="11.187614224885365"><ele>194.0</ele><time>2026-03-28T14:42:13Z</time></trkpt><trkpt lat="43.50273181338883" lon="11.187772385951215"><ele>192.5</ele><time>2026-03-28T14:42:14Z</time></trkpt><trkpt lat="43.50309265792423" lon="11.187941025388252"><ele>191.0</ele><time>2026-03-28T14:42:15Z</time></trkpt><trkpt lat="43.50347139977285" lon="11.188124556047482"><ele>194.0</ele><time>2026-03-28T14:42:16Z</time></trkpt><trkpt lat="43.503858881381284" lon="11.188316842726591"><ele>197.0</ele><time>2026-03-28T14:42:17Z</time></trkpt><trkpt lat="43.504260924441844" lon="11.18850134083676"><ele>195.5</ele><time>2026-03-28T14:42:18Z</time></trkpt><trkpt lat="43.5046617807881" lon="11.18869273719318"><ele>194.0</ele><time>2026-03-28T14:42:19Z</time></trkpt><trkpt lat="43.50506615159421" lon="11.18888486815156"><ele>200.5</ele><time>2026-03-28T14:42:20Z</time></trkpt><trkpt lat="43.50543395448379" lon="11.189047583958796"><ele>207.0</ele><time>2026-03-28T14:42:21Z</time></trkpt><trkpt lat="43.50580566809783" lon="11.189184162798918"><ele>207.0</ele><time>2026-03-28T14:42:22Z</time></trkpt><trkpt lat="43.50618506576916" lon="11.189300308203153"><ele>207.0</ele><time>2026-03-28T14:42:23Z</time></trkpt><trkpt lat="43.50658060314153" lon="11.18942711081102"><ele>206.0</ele><time>2026-03-28T14:42:24Z</time></trkpt><trkpt lat="43.50696943979465" lon="11.189599648742023"><ele>205.0</ele><time>2026-03-28T14:42:25Z</time></trkpt><trkpt lat="43.507391553799536" lon="11.189724347667504"><ele>205.0</ele><time>2026-03-28T14:42:26Z</time></trkpt><trkpt lat="43.507848237536926" lon="11.189785837465973"><ele>209.0</ele><time>2026-03-28T14:42:27Z</time></trkpt><trkpt lat="43.508224201662635" lon="11.189896566653761"><ele>213.0</ele><time>2026-03-28T14:42:28Z</time></trkpt><trkpt lat="43.5085743149258" lon="11.190027182905702"><ele>213.0</ele><time>2026-03-28T14:42:29Z</time></trkpt><trkpt lat="43.50889150367907" lon="11.190133742758931"><ele>213.0</ele><time>2026-03-28T14:42:30Z</time></trkpt><trkpt lat="43.50918757950491" lon="11.190233331384702"><ele>213.0</ele><time>2026-03-28T14:42:31Z</time></trkpt><trkpt lat="43.50948671145347" lon="11.190338202569858"><ele>213.0</ele><time>2026-03-28T14:42:32Z</time></trkpt><trkpt lat="43.50978976287087" lon="11.190475676015488"><ele>214.5</ele><time>2026-03-28T14:42:33Z</time></trkpt><trkpt lat="43.51009811985983" lon="11.190635713015181"><ele>216.0</ele><time>2026-03-28T14:42:34Z</time></trkpt><trkpt lat="43.51040873310347" lon="11.190822165592168"><ele>216.0</ele><time>2026-03-28T14:42:35Z</time></trkpt><trkpt lat="43.51070507737984" lon="11.191016389764936"><ele>216.0</ele><time>2026-03-28T14:42:36Z</time></trkpt><trkpt lat="43.51099114312605" lon="11.191230877184708"><ele>212.5</ele><time>2026-03-28T14:42:37Z</time></trkpt><trkpt lat="43.51125473831914" lon="11.191458074450457"><ele>209.0</ele><time>2026-03-28T14:42:38Z</time></trkpt><trkpt lat="43.511501062461775" lon="11.191677292125254"><ele>216.5</ele><time>2026-03-28T14:42:39Z</time></trkpt><trkpt lat="43.51174128584253" lon="11.191891890247552"><ele>224.0</ele><time>2026-03-28T14:42:40Z</time></trkpt><trkpt lat="43.51197757170964" lon="11.192110605819543"><ele>226.0</ele><time>2026-03-28T14:42:41Z</time></trkpt><trkpt lat="43.512204877540846" lon="11.192337642290271"><ele>228.0</ele><time>2026-03-28T14:42:42Z</time></trkpt><trkpt lat="43.51241389852233" lon="11.192588552781416"><ele>228.0</ele><time>2026-03-28T14:42:43Z</time></trkpt><trkpt lat="43.51260734365403" lon="11.192863512229113"><ele>228.0</ele><time>2026-03-28T14:42:44Z</time></trkpt><trkpt lat="43.51278612538423" lon="11.19316865970978"><ele>228.0</ele><time>2026-03-28T14:42:45Z</time></trkpt><trkpt lat="43.512958538210256" lon="11.193495075522469"><ele>228.0</ele><time>2026-03-28T14:42:46Z</time></trkpt><trkpt lat="43.51312603389921" lon="11.19385111184248"><ele>233.0</ele><time>2026-03-28T14:42:47Z</time></trkpt><trkpt lat="43.51328906792015" lon="11.194229595692779"><ele>238.0</ele><time>2026-03-28T14:42:48Z</time></trkpt><trkpt lat="43.51343660778191" lon="11.194581053596758"><ele>237.5</ele><time>2026-03-28T14:42:49Z</time></trkpt><trkpt lat="43.51359240495993" lon="11.19490892258889"><ele>237.0</ele><time>2026-03-28T14:42:50Z</time></trkpt><trkpt lat="43.51377629736296" lon="11.195232254337574"><ele>237.0</ele><time>2026-03-28T14:42:51Z</time></trkpt><trkpt lat="43.51398699684203" lon="11.195530290087246"><ele>237.0</ele><time>2026-03-28T14:42:52Z</time></trkpt><trkpt lat="43.51420159696931" lon="11.195798576109967"><ele>239.5</ele><time>2026-03-28T14:42:53Z</time></trkpt><trkpt lat="43.5144269410784" lon="11.196047349278714"><ele>242.0</ele><time>2026-03-28T14:42:54Z</time></trkpt><trkpt lat="43.51467602021858" lon="11.196272863479802"><ele>236.5</ele><time>2026-03-28T14:42:55Z</time></trkpt><trkpt lat="43.514936575807376" lon="11.196466972481545"><ele>231.0</ele><time>2026-03-28T14:42:56Z</time></trkpt><trkpt lat="43.515201953754136" lon="11.196646187552572"><ele>232.5</ele><time>2026-03-28T14:42:57Z</time></trkpt><trkpt lat="43.51546736047984" lon="11.196791448370833"><ele>234.0</ele><time>2026-03-28T14:42:58Z</time></trkpt><trkpt lat="43.51572470487027" lon="11.196906777464422"><ele>234.0</ele><time>2026-03-28T14:42:59Z</time></trkpt><trkpt lat="43.51599452623145" lon="11.196997751366942"><ele>234.0</ele><time>2026-03-28T14:43:00Z</time></trkpt><trkpt lat="43.51627916344499" lon="11.197057136656742"><ele>240.0</ele><time>2026-03-28T14:43:01Z</time></trkpt><trkpt lat="43.51658406997384" lon="11.197080968665635"><ele>246.0</ele><time>2026-03-28T14:43:02Z</time></trkpt><trkpt lat="43.51689516837446" lon="11.197097652825855"><ele>249.5</ele><time>2026-03-28T14:43:03Z</time></trkpt><trkpt lat="43.517210269692896" lon="11.197110270123893"><ele>253.0</ele><time>2026-03-28T14:43:04Z</time></trkpt><trkpt lat="43.51752919571755" lon="11.197122165331002"><ele>253.0</ele><time>2026-03-28T14:43:05Z</time></trkpt><trkpt lat="43.51785263052355" lon="11.19713152494985"><ele>253.0</ele><time>2026-03-28T14:43:06Z</time></trkpt><trkpt lat="43.518186052962264" lon="11.197137958694023"><ele>254.0</ele><time>2026-03-28T14:43:07Z</time></trkpt><trkpt lat="43.518527165184544" lon="11.197167364598101"><ele>255.0</ele><time>2026-03-28T14:43:08Z</time></trkpt><trkpt lat="43.51887026657117" lon="11.197215391918535"><ele>255.5</ele><time>2026-03-28T14:43:09Z</time></trkpt><trkpt lat="43.519194106244406" lon="11.197283103475943"><ele>256.0</ele><time>2026-03-28T14:43:10Z</time></trkpt><trkpt lat="43.519500027567865" lon="11.197369564075734"><ele>261.5</ele><time>2026-03-28T14:43:11Z</time></trkpt><trkpt lat="43.51980629170289" lon="11.197481181673881"><ele>267.0</ele><time>2026-03-28T14:43:12Z</time></trkpt><trkpt lat="43.52011100999483" lon="11.197600060563701"><ele>264.5</ele><time>2026-03-28T14:43:13Z</time></trkpt><trkpt lat="43.52041357086125" lon="11.197745793138822"><ele>262.0</ele><time>2026-03-28T14:43:14Z</time></trkpt><trkpt lat="43.52072832962377" lon="11.197911218897252"><ele>262.0</ele><time>2026-03-28T14:43:15Z</time></trkpt><trkpt lat="43.52106118483394" lon="11.19808364225576"><ele>262.0</ele><time>2026-03-28T14:43:16Z</time></trkpt><trkpt lat="43.52139578098545" lon="11.198263893012196"><ele>266.5</ele><time>2026-03-28T14:43:17Z</time></trkpt><trkpt lat="43.521723928578474" lon="11.198437713100136"><ele>271.0</ele><time>2026-03-28T14:43:18Z</time></trkpt><trkpt lat="43.522061960654646" lon="11.198615425169908"><ele>269.5</ele><time>2026-03-28T14:43:19Z</time></trkpt><trkpt lat="43.522379799025444" lon="11.198782804267204"><ele>268.0</ele><time>2026-03-28T14:43:20Z</time></trkpt><trkpt lat="43.5226741577986" lon="11.198949174470695"><ele>270.0</ele><time>2026-03-28T14:43:21Z</time></trkpt><trkpt lat="43.522959805968014" lon="11.199134704773266"><ele>272.0</ele><time>2026-03-28T14:43:22Z</time></trkpt><trkpt lat="43.523246063979194" lon="11.199343869174744"><ele>272.0</ele><time>2026-03-28T14:43:23Z</time></trkpt><trkpt lat="43.523535550739254" lon="11.19958572342619"><ele>272.0</ele><time>2026-03-28T14:43:24Z</time></trkpt><trkpt lat="43.523804548322836" lon="11.199820163279403"><ele>275.0</ele><time>2026-03-28T14:43:25Z</time></trkpt><trkpt lat="43.52405564705083" lon="11.20004369384528"><ele>278.0</ele><time>2026-03-28T14:43:26Z</time></trkpt><trkpt lat="43.52430737143024" lon="11.2002799649455"><ele>278.0</ele><time>2026-03-28T14:43:27Z</time></trkpt><trkpt lat="43.52455339277756" lon="11.200529184368284"><ele>278.0</ele><time>2026-03-28T14:43:28Z</time></trkpt><trkpt lat="43.52477571694284" lon="11.20079926483734"><ele>280.0</ele><time>2026-03-28T14:43:29Z</time></trkpt><trkpt lat="43.524989465398" lon="11.201039615448442"><ele>282.0</ele><time>2026-03-28T14:43:30Z</time></trkpt><trkpt lat="43.52519487142781" lon="11.201298815842764"><ele>286.5</ele><time>2026-03-28T14:43:31Z</time></trkpt><trkpt lat="43.5253963843457" lon="11.201569070086007"><ele>291.0</ele><time>2026-03-28T14:43:32Z</time></trkpt><trkpt lat="43.52559152525022" lon="11.201844409868432"><ele>291.0</ele><time>2026-03-28T14:43:33Z</time></trkpt><trkpt lat="43.525782830809874" lon="11.202125784583417"><ele>291.0</ele><time>2026-03-28T14:43:34Z</time></trkpt><trkpt lat="43.525959932354326" lon="11.202407310366889"><ele>290.5</ele><time>2026-03-28T14:43:35Z</time></trkpt><trkpt lat="43.52611740408563" lon="11.202679085636182"><ele>290.0</ele><time>2026-03-28T14:43:36Z</time></trkpt><trkpt lat="43.526256761607726" lon="11.20294056124005"><ele>289.5</ele><time>2026-03-28T14:43:37Z</time></trkpt><trkpt lat="43.526394229477546" lon="11.203201429099195"><ele>289.0</ele><time>2026-03-28T14:43:38Z</time></trkpt><trkpt lat="43.52652909807181" lon="11.203462724440797"><ele>289.0</ele><time>2026-03-28T14:43:39Z</time></trkpt><trkpt lat="43.5266550569349" lon="11.203731321929949"><ele>289.0</ele><time>2026-03-28T14:43:40Z</time></trkpt><trkpt lat="43.526769427925174" lon="11.203998732098745"><ele>290.5</ele><time>2026-03-28T14:43:41Z</time></trkpt><trkpt lat="43.526884807111315" lon="11.204275614570335"><ele>292.0</ele><time>2026-03-28T14:43:42Z</time></trkpt><trkpt lat="43.52699646719811" lon="11.204540462755899"><ele>289.66666666666663</ele><time>2026-03-28T14:43:43Z</time></trkpt><trkpt lat="43.5271071477533" lon="11.20479782796517"><ele>287.3333333333333</ele><time>2026-03-28T14:43:44Z</time></trkpt><trkpt lat="43.5272171139077" lon="11.205052429688825"><ele>285.0</ele><time>2026-03-28T14:43:45Z</time></trkpt><trkpt lat="43.5273283813159" lon="11.20530563117568"><ele>285.0</ele><time>2026-03-28T14:43:46Z</time></trkpt><trkpt lat="43.52743715283912" lon="11.205559178081716"><ele>285.0</ele><time>2026-03-28T14:43:47Z</time></trkpt><trkpt lat="43.5275479535738" lon="11.20581340325941"><ele>285.0</ele><time>2026-03-28T14:43:48Z</time></trkpt><trkpt lat="43.527656601868635" lon="11.206067754501726"><ele>288.0</ele><time>2026-03-28T14:43:49Z</time></trkpt><trkpt lat="43.52776435895413" lon="11.206332418659347"><ele>291.0</ele><time>2026-03-28T14:43:50Z</time></trkpt><trkpt lat="43.527872604188005" lon="11.206597397101088"><ele>294.0</ele><time>2026-03-28T14:43:51Z</time></trkpt><trkpt lat="43.527983519878475" lon="11.20685996692918"><ele>294.0</ele><time>2026-03-28T14:43:52Z</time></trkpt><trkpt lat="43.5280954592282" lon="11.207121576572339"><ele>294.0</ele><time>2026-03-28T14:43:53Z</time></trkpt><trkpt lat="43.52821031395711" lon="11.207378621797316"><ele>294.0</ele><time>2026-03-28T14:43:54Z</time></trkpt><trkpt lat="43.52832429053934" lon="11.20763434374065"><ele>293.6666666666667</ele><time>2026-03-28T14:43:55Z</time></trkpt><trkpt lat="43.528436227386074" lon="11.207889618060113"><ele>293.33333333333337</ele><time>2026-03-28T14:43:56Z</time></trkpt><trkpt lat="43.52855294221124" lon="11.208146539032342"><ele>293.0</ele><time>2026-03-28T14:43:57Z</time></trkpt><trkpt lat="43.528678288520965" lon="11.208399459735233"><ele>289.0</ele><time>2026-03-28T14:43:58Z</time></trkpt><trkpt lat="43.528830444643134" lon="11.20864475451571"><ele>285.0</ele><time>2026-03-28T14:43:59Z</time></trkpt><trkpt lat="43.52899494240855" lon="11.208882561899122"><ele>289.5</ele><time>2026-03-28T14:44:00Z</time></trkpt><trkpt lat="43.529165036521924" lon="11.209121175234719"><ele>294.0</ele><time>2026-03-28T14:44:01Z</time></trkpt><trkpt lat="43.529332567040896" lon="11.209353617566745"><ele>294.0</ele><time>2026-03-28T14:44:02Z</time></trkpt><trkpt lat="43.52949413834576" lon="11.20957774913113"><ele>294.0</ele><time>2026-03-28T14:44:03Z</time></trkpt><trkpt lat="43.52965378197061" lon="11.209800190605979"><ele>292.0</ele><time>2026-03-28T14:44:04Z</time></trkpt><trkpt lat="43.52980787548436" lon="11.21002896541541"><ele>290.0</ele><time>2026-03-28T14:44:05Z</time></trkpt><trkpt lat="43.52995412846655" lon="11.210274011824096"><ele>290.0</ele><time>2026-03-28T14:44:06Z</time></trkpt><trkpt lat="43.53008726104089" lon="11.210528869661635"><ele>290.0</ele><time>2026-03-28T14:44:07Z</time></trkpt><trkpt lat="43.53021560564643" lon="11.210802218343856"><ele>286.0</ele><time>2026-03-28T14:44:08Z</time></trkpt><trkpt lat="43.53033852020449" lon="11.211094128509773"><ele>282.0</ele><time>2026-03-28T14:44:09Z</time></trkpt><trkpt lat="43.530453016298985" lon="11.21140661322902"><ele>285.0</ele><time>2026-03-28T14:44:10Z</time></trkpt><trkpt lat="43.5305649385082" lon="11.211738977295907"><ele>288.0</ele><time>2026-03-28T14:44:11Z</time></trkpt><trkpt lat="43.53067216437859" lon="11.212103237134539"><ele>290.0</ele><time>2026-03-28T14:44:12Z</time></trkpt><trkpt lat="43.53076933384317" lon="11.212462389796944"><ele>292.0</ele><time>2026-03-28T14:44:13Z</time></trkpt><trkpt lat="43.53087260002594" lon="11.21280313505643"><ele>292.0</ele><time>2026-03-28T14:44:14Z</time></trkpt><trkpt lat="43.53098462436569" lon="11.213145156035313"><ele>292.0</ele><time>2026-03-28T14:44:15Z</time></trkpt><trkpt lat="43.531092539338474" lon="11.213474401439711"><ele>292.5</ele><time>2026-03-28T14:44:16Z</time></trkpt><trkpt lat="43.531206625684554" lon="11.21379344784548"><ele>293.0</ele><time>2026-03-28T14:44:17Z</time></trkpt><trkpt lat="43.53133098153906" lon="11.214112976062745"><ele>285.0</ele><time>2026-03-28T14:44:18Z</time></trkpt><trkpt lat="43.53146224924645" lon="11.214428831998744"><ele>277.0</ele><time>2026-03-28T14:44:19Z</time></trkpt><trkpt lat="43.53161885546864" lon="11.214726747446624"><ele>278.0</ele><time>2026-03-28T14:44:20Z</time></trkpt><trkpt lat="43.531796390947115" lon="11.215026258513198"><ele>279.0</ele><time>2026-03-28T14:44:21Z</time></trkpt><trkpt lat="43.531990747595785" lon="11.215329127586607"><ele>287.0</ele><time>2026-03-28T14:44:22Z</time></trkpt><trkpt lat="43.532198587281535" lon="11.215651356913423"><ele>295.0</ele><time>2026-03-28T14:44:23Z</time></trkpt><trkpt lat="43.53239921718217" lon="11.216000046379522"><ele>295.5</ele><time>2026-03-28T14:44:24Z</time></trkpt><trkpt lat="43.532602061471174" lon="11.216371426856913"><ele>296.0</ele><time>2026-03-28T14:44:25Z</time></trkpt><trkpt lat="43.53279826678211" lon="11.216756778443353"><ele>302.0</ele><time>2026-03-28T14:44:26Z</time></trkpt><trkpt lat="43.53304251751234" lon="11.217120262140686"><ele>308.0</ele><time>2026-03-28T14:44:27Z</time></trkpt><trkpt lat="43.53316767000832" lon="11.217223892730553"><ele>306.5</ele><time>2026-03-28T14:44:28Z</time></trkpt><trkpt lat="43.53339059192074" lon="11.21756662681263"><ele>305.0</ele><time>2026-03-28T14:44:29Z</time></trkpt><trkpt lat="43.53360363189313" lon="11.217895929371402"><ele>307.5</ele><time>2026-03-28T14:44:30Z</time></trkpt><trkpt lat="43.53380576201254" lon="11.2182002093785"><ele>310.0</ele><time>2026-03-28T14:44:31Z</time></trkpt><trkpt lat="43.53399670962825" lon="11.218479564564042"><ele>310.0</ele><time>2026-03-28T14:44:32Z</time></trkpt><trkpt lat="43.53419179854744" lon="11.218745361741211"><ele>310.0</ele><time>2026-03-28T14:44:33Z</time></trkpt><trkpt lat="43.53439875370656" lon="11.219000260626048"><ele>312.5</ele><time>2026-03-28T14:44:34Z</time></trkpt><trkpt lat="43.53462561332741" lon="11.219237331404717"><ele>315.0</ele><time>2026-03-28T14:44:35Z</time></trkpt><trkpt lat="43.53486286889261" lon="11.219460327863462"><ele>315.0</ele><time>2026-03-28T14:44:36Z</time></trkpt><trkpt lat="43.53511357999821" lon="11.21966528456323"><ele>315.0</ele><time>2026-03-28T14:44:37Z</time></trkpt><trkpt lat="43.535379068499566" lon="11.219856438188977"><ele>316.5</ele><time>2026-03-28T14:44:38Z</time></trkpt><trkpt lat="43.53565392876818" lon="11.220024797516066"><ele>318.0</ele><time>2026-03-28T14:44:39Z</time></trkpt><trkpt lat="43.535934028597964" lon="11.220169540912925"><ele>320.0</ele><time>2026-03-28T14:44:40Z</time></trkpt><trkpt lat="43.53623053488099" lon="11.220303374693382"><ele>322.0</ele><time>2026-03-28T14:44:41Z</time></trkpt><trkpt lat="43.53653209753559" lon="11.22041751191938"><ele>322.0</ele><time>2026-03-28T14:44:42Z</time></trkpt><trkpt lat="43.53683291063956" lon="11.22050740633838"><ele>322.0</ele><time>2026-03-28T14:44:43Z</time></trkpt><trkpt lat="43.53714571231575" lon="11.22057491373279"><ele>320.0</ele><time>2026-03-28T14:44:44Z</time></trkpt><trkpt lat="43.537460253784865" lon="11.22061143669559"><ele>318.0</ele><time>2026-03-28T14:44:45Z</time></trkpt><trkpt lat="43.537764166688" lon="11.220626916690334"><ele>315.0</ele><time>2026-03-28T14:44:46Z</time></trkpt><trkpt lat="43.53807325474151" lon="11.22061917285628"><ele>312.0</ele><time>2026-03-28T14:44:47Z</time></trkpt><trkpt lat="43.53837509577332" lon="11.220583266728978"><ele>312.0</ele><time>2026-03-28T14:44:48Z</time></trkpt><trkpt lat="43.53869382836626" lon="11.220521122842777"><ele>312.0</ele><time>2026-03-28T14:44:49Z</time></trkpt><trkpt lat="43.539001326176916" lon="11.220413597715607"><ele>311.5</ele><time>2026-03-28T14:44:50Z</time></trkpt><trkpt lat="43.53928826777503" lon="11.220312089500483"><ele>311.0</ele><time>2026-03-28T14:44:51Z</time></trkpt><trkpt lat="43.53956720111081" lon="11.220193518046198"><ele>312.5</ele><time>2026-03-28T14:44:52Z</time></trkpt><trkpt lat="43.53985076223864" lon="11.22005334253995"><ele>314.0</ele><time>2026-03-28T14:44:53Z</time></trkpt><trkpt lat="43.540139135028134" lon="11.219878252033926"><ele>311.5</ele><time>2026-03-28T14:44:54Z</time></trkpt><trkpt lat="43.54044189141008" lon="11.219672859641069"><ele>309.0</ele><time>2026-03-28T14:44:55Z</time></trkpt><trkpt lat="43.54072917130754" lon="11.219446373124914"><ele>309.0</ele><time>2026-03-28T14:44:56Z</time></trkpt><trkpt lat="43.54100465712735" lon="11.219187994236785"><ele>309.0</ele><time>2026-03-28T14:44:57Z</time></trkpt><trkpt lat="43.54126738813771" lon="11.21890391263646"><ele>306.0</ele><time>2026-03-28T14:44:58Z</time></trkpt><trkpt lat="43.54152220419576" lon="11.21859656098039"><ele>303.0</ele><time>2026-03-28T14:44:59Z</time></trkpt><trkpt lat="43.54176238957059" lon="11.218268332806701"><ele>303.0</ele><time>2026-03-28T14:45:00Z</time></trkpt><trkpt lat="43.542003193152084" lon="11.217918945338301"><ele>303.0</ele><time>2026-03-28T14:45:01Z</time></trkpt><trkpt lat="43.54224709578654" lon="11.21752313751"><ele>299.0</ele><time>2026-03-28T14:45:02Z</time></trkpt><trkpt lat="43.54249445143999" lon="11.217101323828569"><ele>295.0</ele><time>2026-03-28T14:45:03Z</time></trkpt><trkpt lat="43.542751990502815" lon="11.216685093699121"><ele>293.5</ele><time>2026-03-28T14:45:04Z</time></trkpt><trkpt lat="43.54303520926254" lon="11.216274157143133"><ele>292.0</ele><time>2026-03-28T14:45:05Z</time></trkpt><trkpt lat="43.543378087052126" lon="11.215920683759638"><ele>295.5</ele><time>2026-03-28T14:45:06Z</time></trkpt><trkpt lat="43.543745324000284" lon="11.215576903714581"><ele>299.0</ele><time>2026-03-28T14:45:07Z</time></trkpt><trkpt lat="43.54385109089916" lon="11.214989716153314"><ele>297.5</ele><time>2026-03-28T14:45:08Z</time></trkpt><trkpt lat="43.54412867869304" lon="11.214589531755767"><ele>296.0</ele><time>2026-03-28T14:45:09Z</time></trkpt><trkpt lat="43.54439806920901" lon="11.214212060669379"><ele>296.0</ele><time>2026-03-28T14:45:10Z</time></trkpt><trkpt lat="43.54467844794253" lon="11.21382685038822"><ele>296.0</ele><time>2026-03-28T14:45:11Z</time></trkpt><trkpt lat="43.54497458003873" lon="11.213435682772324"><ele>295.0</ele><time>2026-03-28T14:45:12Z</time></trkpt><trkpt lat="43.54527585561897" lon="11.213055153620811"><ele>294.0</ele><time>2026-03-28T14:45:13Z</time></trkpt><trkpt lat="43.54556633003347" lon="11.21270908446507"><ele>294.0</ele><time>2026-03-28T14:45:14Z</time></trkpt><trkpt lat="43.54585171238564" lon="11.212377889039594"><ele>294.0</ele><time>2026-03-28T14:45:15Z</time></trkpt><trkpt lat="43.54611997279704" lon="11.212081320230613"><ele>294.5</ele><time>2026-03-28T14:45:16Z</time></trkpt><trkpt lat="43.546372308411705" lon="11.211802594171049"><ele>295.0</ele><time>2026-03-28T14:45:17Z</time></trkpt><trkpt lat="43.54662318835486" lon="11.211539074947886"><ele>294.5</ele><time>2026-03-28T14:45:18Z</time></trkpt><trkpt lat="43.54688069721416" lon="11.211289827842272"><ele>294.0</ele><time>2026-03-28T14:45:19Z</time></trkpt><trkpt lat="43.547148187817186" lon="11.211066565658284"><ele>301.0</ele><time>2026-03-28T14:45:20Z</time></trkpt><trkpt lat="43.54743317089934" lon="11.210866019151963"><ele>308.0</ele><time>2026-03-28T14:45:21Z</time></trkpt><trkpt lat="43.54771619739542" lon="11.210698568969013"><ele>305.5</ele><time>2026-03-28T14:45:22Z</time></trkpt><trkpt lat="43.548012863768804" lon="11.210560178247185"><ele>303.0</ele><time>2026-03-28T14:45:23Z</time></trkpt><trkpt lat="43.54831489326331" lon="11.210448982484053"><ele>303.0</ele><time>2026-03-28T14:45:24Z</time></trkpt><trkpt lat="43.548620348124636" lon="11.210367583779608"><ele>303.0</ele><time>2026-03-28T14:45:25Z</time></trkpt><trkpt lat="43.54892146547648" lon="11.210317828597608"><ele>306.5</ele><time>2026-03-28T14:45:26Z</time></trkpt><trkpt lat="43.54924085631352" lon="11.210295535471248"><ele>310.0</ele><time>2026-03-28T14:45:27Z</time></trkpt><trkpt lat="43.54957408054537" lon="11.210291071629749"><ele>310.0</ele><time>2026-03-28T14:45:28Z</time></trkpt><trkpt lat="43.549925159494094" lon="11.210290643084347"><ele>310.0</ele><time>2026-03-28T14:45:29Z</time></trkpt><trkpt lat="43.55029548516216" lon="11.210291621669125"><ele>305.0</ele><time>2026-03-28T14:45:30Z</time></trkpt><trkpt lat="43.550679845742856" lon="11.2102922357694"><ele>300.0</ele><time>2026-03-28T14:45:31Z</time></trkpt><trkpt lat="43.55103767273464" lon="11.21029497128229"><ele>303.0</ele><time>2026-03-28T14:45:32Z</time></trkpt><trkpt lat="43.55138025452478" lon="11.210291822578913"><ele>306.0</ele><time>2026-03-28T14:45:33Z</time></trkpt><trkpt lat="43.551727665245245" lon="11.21028780224809"><ele>310.0</ele><time>2026-03-28T14:45:34Z</time></trkpt><trkpt lat="43.55207812325524" lon="11.210277182150303"><ele>314.0</ele><time>2026-03-28T14:45:35Z</time></trkpt><trkpt lat="43.55244286180908" lon="11.210263938106648"><ele>314.0</ele><time>2026-03-28T14:45:36Z</time></trkpt><trkpt lat="43.552804260563" lon="11.210251314210113"><ele>314.0</ele><time>2026-03-28T14:45:37Z</time></trkpt><trkpt lat="43.553155640608935" lon="11.210247614584874"><ele>314.5</ele><time>2026-03-28T14:45:38Z</time></trkpt><trkpt lat="43.55348834114728" lon="11.210243528589896"><ele>315.0</ele><time>2026-03-28T14:45:39Z</time></trkpt><trkpt lat="43.55380870934799" lon="11.210238782446915"><ele>316.5</ele><time>2026-03-28T14:45:40Z</time></trkpt><trkpt lat="43.5541201112926" lon="11.210236923229493"><ele>318.0</ele><time>2026-03-28T14:45:41Z</time></trkpt><trkpt lat="43.55442047842155" lon="11.210244926671793"><ele>315.0</ele><time>2026-03-28T14:45:42Z</time></trkpt><trkpt lat="43.55471313078072" lon="11.210282232204133"><ele>312.0</ele><time>2026-03-28T14:45:43Z</time></trkpt><trkpt lat="43.5550104353718" lon="11.210354196588794"><ele>312.0</ele><time>2026-03-28T14:45:44Z</time></trkpt><trkpt lat="43.55530919832683" lon="11.210455676665017"><ele>312.0</ele><time>2026-03-28T14:45:45Z</time></trkpt><trkpt lat="43.555603488848526" lon="11.210587635407142"><ele>307.5</ele><time>2026-03-28T14:45:46Z</time></trkpt><trkpt lat="43.5558905286454" lon="11.210749299800549"><ele>303.0</ele><time>2026-03-28T14:45:47Z</time></trkpt><trkpt lat="43.55617820311041" lon="11.210940366384616"><ele>300.5</ele><time>2026-03-28T14:45:48Z</time></trkpt><trkpt lat="43.5564660626038" lon="11.211153764285218"><ele>298.0</ele><time>2026-03-28T14:45:49Z</time></trkpt><trkpt lat="43.5567380233548" lon="11.21137842164018"><ele>293.0</ele><time>2026-03-28T14:45:50Z</time></trkpt><trkpt lat="43.55698942923071" lon="11.211594994473096"><ele>288.0</ele><time>2026-03-28T14:45:51Z</time></trkpt><trkpt lat="43.55722970393815" lon="11.211807458637399"><ele>287.5</ele><time>2026-03-28T14:45:52Z</time></trkpt><trkpt lat="43.55747238614442" lon="11.21200225705173"><ele>287.0</ele><time>2026-03-28T14:45:53Z</time></trkpt><trkpt lat="43.5577234625117" lon="11.212177579418944"><ele>287.5</ele><time>2026-03-28T14:45:54Z</time></trkpt><trkpt lat="43.55799567552374" lon="11.21233128508638"><ele>288.0</ele><time>2026-03-28T14:45:55Z</time></trkpt><trkpt lat="43.55828638472312" lon="11.212453805255837"><ele>288.0</ele><time>2026-03-28T14:45:56Z</time></trkpt><trkpt lat="43.55857790224177" lon="11.212566055827137"><ele>288.0</ele><time>2026-03-28T14:45:57Z</time></trkpt><trkpt lat="43.55886060185869" lon="11.2126391642769"><ele>288.0</ele><time>2026-03-28T14:45:58Z</time></trkpt><trkpt lat="43.559137127646686" lon="11.212690249094925"><ele>288.0</ele><time>2026-03-28T14:45:59Z</time></trkpt><trkpt lat="43.55943307994734" lon="11.212730804082646"><ele>287.0</ele><time>2026-03-28T14:46:00Z</time></trkpt><trkpt lat="43.559750948449086" lon="11.212769794951528"><ele>286.0</ele><time>2026-03-28T14:46:01Z</time></trkpt><trkpt lat="43.56005747370295" lon="11.212808114613987"><ele>286.0</ele><time>2026-03-28T14:46:02Z</time></trkpt><trkpt lat="43.56034039874778" lon="11.21284794062791"><ele>286.0</ele><time>2026-03-28T14:46:03Z</time></trkpt><trkpt lat="43.560605546210894" lon="11.212889456983119"><ele>282.0</ele><time>2026-03-28T14:46:04Z</time></trkpt><trkpt lat="43.56085629261133" lon="11.212927098080737"><ele>278.0</ele><time>2026-03-28T14:46:05Z</time></trkpt><trkpt lat="43.56109694286895" lon="11.212958379944707"><ele>277.33333333333337</ele><time>2026-03-28T14:46:06Z</time></trkpt><trkpt lat="43.561321841426654" lon="11.212983928986604"><ele>276.6666666666667</ele><time>2026-03-28T14:46:07Z</time></trkpt><trkpt lat="43.56153802457267" lon="11.213013306242706"><ele>276.0</ele><time>2026-03-28T14:46:08Z</time></trkpt><trkpt lat="43.56174506257671" lon="11.2130408975422"><ele>276.0</ele><time>2026-03-28T14:46:09Z</time></trkpt><trkpt lat="43.56194780153822" lon="11.213064468608133"><ele>276.0</ele><time>2026-03-28T14:46:10Z</time></trkpt><trkpt lat="43.56215385010056" lon="11.213085185317249"><ele>276.0</ele><time>2026-03-28T14:46:11Z</time></trkpt><trkpt lat="43.562362258140304" lon="11.213112135108622"><ele>276.0</ele><time>2026-03-28T14:46:12Z</time></trkpt><trkpt lat="43.56257206462728" lon="11.213141927222177"><ele>276.0</ele><time>2026-03-28T14:46:13Z</time></trkpt><trkpt lat="43.562781666862506" lon="11.213167622011248"><ele>276.0</ele><time>2026-03-28T14:46:14Z</time></trkpt><trkpt lat="43.56299348846999" lon="11.213194079933377"><ele>270.6666666666667</ele><time>2026-03-28T14:46:15Z</time></trkpt><trkpt lat="43.56321060300606" lon="11.213225679246687"><ele>265.33333333333337</ele><time>2026-03-28T14:46:16Z</time></trkpt><trkpt lat="43.56343464906112" lon="11.213259715187576"><ele>260.0</ele><time>2026-03-28T14:46:17Z</time></trkpt><trkpt lat="43.563655112409336" lon="11.213284038233526"><ele>263.0</ele><time>2026-03-28T14:46:18Z</time></trkpt><trkpt lat="43.563880394245814" lon="11.213304660996805"><ele>266.0</ele><time>2026-03-28T14:46:19Z</time></trkpt><trkpt lat="43.56411085045231" lon="11.213334316784435"><ele>266.0</ele><time>2026-03-28T14:46:20Z</time></trkpt><trkpt lat="43.564338127489954" lon="11.213358296467355"><ele>266.0</ele><time>2026-03-28T14:46:21Z</time></trkpt><trkpt lat="43.56458122707882" lon="11.213357013257667"><ele>267.5</ele><time>2026-03-28T14:46:22Z</time></trkpt><trkpt lat="43.56483282651732" lon="11.213332471385446"><ele>269.0</ele><time>2026-03-28T14:46:23Z</time></trkpt><trkpt lat="43.56509002668161" lon="11.213294350607606"><ele>269.0</ele><time>2026-03-28T14:46:24Z</time></trkpt><trkpt lat="43.56532973755502" lon="11.213230609876696"><ele>269.0</ele><time>2026-03-28T14:46:25Z</time></trkpt><trkpt lat="43.56556686477" lon="11.21315205348809"><ele>272.0</ele><time>2026-03-28T14:46:26Z</time></trkpt><trkpt lat="43.56580111667329" lon="11.21305285527971"><ele>275.0</ele><time>2026-03-28T14:46:27Z</time></trkpt><trkpt lat="43.566043471022375" lon="11.212939014055626"><ele>268.5</ele><time>2026-03-28T14:46:28Z</time></trkpt><trkpt lat="43.566286820749816" lon="11.21280492694359"><ele>262.0</ele><time>2026-03-28T14:46:29Z</time></trkpt><trkpt lat="43.56651105481804" lon="11.212660163813213"><ele>262.0</ele><time>2026-03-28T14:46:30Z</time></trkpt><trkpt lat="43.56671366345118" lon="11.212504690989165"><ele>262.0</ele><time>2026-03-28T14:46:31Z</time></trkpt><trkpt lat="43.566904189234165" lon="11.212332731692115"><ele>251.0</ele><time>2026-03-28T14:46:32Z</time></trkpt><trkpt lat="43.567087189294014" lon="11.21215088357668"><ele>240.0</ele><time>2026-03-28T14:46:33Z</time></trkpt><trkpt lat="43.567264526552805" lon="11.211960102094112"><ele>240.0</ele><time>2026-03-28T14:46:34Z</time></trkpt><trkpt lat="43.56743751083507" lon="11.211767804009915"><ele>240.0</ele><time>2026-03-28T14:46:35Z</time></trkpt><trkpt lat="43.56760890421982" lon="11.211578942091334"><ele>240.0</ele><time>2026-03-28T14:46:36Z</time></trkpt><trkpt lat="43.56777634210953" lon="11.211396843487318"><ele>239.66666666666669</ele><time>2026-03-28T14:46:37Z</time></trkpt><trkpt lat="43.56794791605899" lon="11.211212518947566"><ele>239.33333333333334</ele><time>2026-03-28T14:46:38Z</time></trkpt><trkpt lat="43.568121298398346" lon="11.211020868035169"><ele>239.0</ele><time>2026-03-28T14:46:39Z</time></trkpt><trkpt lat="43.5683029648705" lon="11.210821523497474"><ele>238.0</ele><time>2026-03-28T14:46:40Z</time></trkpt><trkpt lat="43.568498446201396" lon="11.210606774587657"><ele>237.0</ele><time>2026-03-28T14:46:41Z</time></trkpt><trkpt lat="43.568707860872124" lon="11.210373872661767"><ele>237.0</ele><time>2026-03-28T14:46:42Z</time></trkpt><trkpt lat="43.56892905963096" lon="11.210125797481684"><ele>237.0</ele><time>2026-03-28T14:46:43Z</time></trkpt><trkpt lat="43.56916816424162" lon="11.209860190860473"><ele>234.0</ele><time>2026-03-28T14:46:44Z</time></trkpt><trkpt lat="43.569426166576584" lon="11.209575367156713"><ele>231.0</ele><time>2026-03-28T14:46:45Z</time></trkpt><trkpt lat="43.5696844437843" lon="11.209289189207684"><ele>231.0</ele><time>2026-03-28T14:46:46Z</time></trkpt><trkpt lat="43.569935596321606" lon="11.209009298498733"><ele>231.0</ele><time>2026-03-28T14:46:47Z</time></trkpt><trkpt lat="43.57018383313744" lon="11.208730123575469"><ele>229.5</ele><time>2026-03-28T14:46:48Z</time></trkpt><trkpt lat="43.570430605380444" lon="11.208460493723607"><ele>228.0</ele><time>2026-03-28T14:46:49Z</time></trkpt><trkpt lat="43.570679982005764" lon="11.208208204194456"><ele>223.5</ele><time>2026-03-28T14:46:50Z</time></trkpt><trkpt lat="43.57094002814511" lon="11.207978342467314"><ele>219.0</ele><time>2026-03-28T14:46:51Z</time></trkpt><trkpt lat="43.571218452608576" lon="11.207781125733678"><ele>219.0</ele><time>2026-03-28T14:46:52Z</time></trkpt><trkpt lat="43.57152115979485" lon="11.207605679726814"><ele>219.0</ele><time>2026-03-28T14:46:53Z</time></trkpt><trkpt lat="43.57185482087627" lon="11.207433258370779"><ele>217.0</ele><time>2026-03-28T14:46:54Z</time></trkpt><trkpt lat="43.572210495277076" lon="11.207248769230649"><ele>215.0</ele><time>2026-03-28T14:46:55Z</time></trkpt><trkpt lat="43.57255292353061" lon="11.207074269096147"><ele>217.0</ele><time>2026-03-28T14:46:56Z</time></trkpt><trkpt lat="43.572875593270574" lon="11.206890127605698"><ele>219.0</ele><time>2026-03-28T14:46:57Z</time></trkpt><trkpt lat="43.573211175180425" lon="11.20670342783674"><ele>219.0</ele><time>2026-03-28T14:46:58Z</time></trkpt><trkpt lat="43.57355779867373" lon="11.206509805517008"><ele>219.0</ele><time>2026-03-28T14:46:59Z</time></trkpt><trkpt lat="43.573906679508234" lon="11.20631410307196"><ele>214.5</ele><time>2026-03-28T14:47:00Z</time></trkpt><trkpt lat="43.57424554761898" lon="11.206122711378855"><ele>210.0</ele><time>2026-03-28T14:47:01Z</time></trkpt><trkpt lat="43.57459258442441" lon="11.20591904378857"><ele>210.0</ele><time>2026-03-28T14:47:02Z</time></trkpt><trkpt lat="43.57494242334404" lon="11.205721782136084"><ele>210.0</ele><time>2026-03-28T14:47:03Z</time></trkpt><trkpt lat="43.57527898071219" lon="11.20552952748251"><ele>209.5</ele><time>2026-03-28T14:47:04Z</time></trkpt><trkpt lat="43.57563396021994" lon="11.205335956105603"><ele>209.0</ele><time>2026-03-28T14:47:05Z</time></trkpt><trkpt lat="43.57600607100187" lon="11.2051375896486"><ele>203.5</ele><time>2026-03-28T14:47:06Z</time></trkpt><trkpt lat="43.57639308459596" lon="11.204964215666323"><ele>198.0</ele><time>2026-03-28T14:47:07Z</time></trkpt><trkpt lat="43.57674639216716" lon="11.204849124616956"><ele>200.0</ele><time>2026-03-28T14:47:08Z</time></trkpt><trkpt lat="43.577093786486465" lon="11.204656051157476"><ele>202.0</ele><time>2026-03-28T14:47:09Z</time></trkpt><trkpt lat="43.577430772578914" lon="11.204513405766653"><ele>202.0</ele><time>2026-03-28T14:47:10Z</time></trkpt><trkpt lat="43.57775312526167" lon="11.20439903221227"><ele>202.0</ele><time>2026-03-28T14:47:11Z</time></trkpt><trkpt lat="43.57809322180505" lon="11.204283257028342"><ele>199.0</ele><time>2026-03-28T14:47:12Z</time></trkpt><trkpt lat="43.5784459591168" lon="11.204169083349944"><ele>196.0</ele><time>2026-03-28T14:47:13Z</time></trkpt><trkpt lat="43.57881506427909" lon="11.20405362734014"><ele>195.0</ele><time>2026-03-28T14:47:14Z</time></trkpt><trkpt lat="43.57920664673593" lon="11.203937902200682"><ele>194.0</ele><time>2026-03-28T14:47:15Z</time></trkpt><trkpt lat="43.57959580626709" lon="11.203811013733329"><ele>194.0</ele><time>2026-03-28T14:47:16Z</time></trkpt><trkpt lat="43.57995125589236" lon="11.203705938071998"><ele>194.0</ele><time>2026-03-28T14:47:17Z</time></trkpt><trkpt lat="43.58029224817335" lon="11.203608229856963"><ele>189.5</ele><time>2026-03-28T14:47:18Z</time></trkpt><trkpt lat="43.58062309761857" lon="11.203512676085225"><ele>185.0</ele><time>2026-03-28T14:47:19Z</time></trkpt><trkpt lat="43.580952394652755" lon="11.20340919349904"><ele>182.5</ele><time>2026-03-28T14:47:20Z</time></trkpt><trkpt lat="43.581280334903255" lon="11.203306768103545"><ele>180.0</ele><time>2026-03-28T14:47:21Z</time></trkpt><trkpt lat="43.58160295226543" lon="11.203210061516785"><ele>181.0</ele><time>2026-03-28T14:47:22Z</time></trkpt><trkpt lat="43.581912577773934" lon="11.203122378973573"><ele>182.0</ele><time>2026-03-28T14:47:23Z</time></trkpt><trkpt lat="43.58220326668955" lon="11.203040740901857"><ele>182.0</ele><time>2026-03-28T14:47:24Z</time></trkpt><trkpt lat="43.58248443908429" lon="11.202957521540585"><ele>182.0</ele><time>2026-03-28T14:47:25Z</time></trkpt><trkpt lat="43.582757844988166" lon="11.202874541808463"><ele>179.0</ele><time>2026-03-28T14:47:26Z</time></trkpt><trkpt lat="43.5830324863687" lon="11.202787144103613"><ele>176.0</ele><time>2026-03-28T14:47:27Z</time></trkpt><trkpt lat="43.58330725577554" lon="11.202706787979222"><ele>176.0</ele><time>2026-03-28T14:47:28Z</time></trkpt><trkpt lat="43.58357444018946" lon="11.202623589204316"><ele>176.0</ele><time>2026-03-28T14:47:29Z</time></trkpt><trkpt lat="43.583851223698105" lon="11.202541073980546"><ele>175.0</ele><time>2026-03-28T14:47:30Z</time></trkpt><trkpt lat="43.58411483827012" lon="11.202466710283444"><ele>174.0</ele><time>2026-03-28T14:47:31Z</time></trkpt><trkpt lat="43.58437694469958" lon="11.202384808365148"><ele>174.5</ele><time>2026-03-28T14:47:32Z</time></trkpt><trkpt lat="43.58464588971087" lon="11.202297768296317"><ele>175.0</ele><time>2026-03-28T14:47:33Z</time></trkpt><trkpt lat="43.584917738625684" lon="11.202216257067843"><ele>175.0</ele><time>2026-03-28T14:47:34Z</time></trkpt><trkpt lat="43.58519648317682" lon="11.202136348054191"><ele>175.0</ele><time>2026-03-28T14:47:35Z</time></trkpt><trkpt lat="43.58547479546489" lon="11.202050796187718"><ele>175.0</ele><time>2026-03-28T14:47:36Z</time></trkpt><trkpt lat="43.58575669509353" lon="11.20196797811883"><ele>175.0</ele><time>2026-03-28T14:47:37Z</time></trkpt><trkpt lat="43.58604143997489" lon="11.201884864283263"><ele>172.5</ele><time>2026-03-28T14:47:38Z</time></trkpt><trkpt lat="43.58634908954815" lon="11.201789204229414"><ele>170.0</ele><time>2026-03-28T14:47:39Z</time></trkpt><trkpt lat="43.586678986180786" lon="11.201691186600875"><ele>169.5</ele><time>2026-03-28T14:47:40Z</time></trkpt><trkpt lat="43.58701794474584" lon="11.201592461157423"><ele>169.0</ele><time>2026-03-28T14:47:41Z</time></trkpt><trkpt lat="43.58732675272981" lon="11.201497579188853"><ele>169.0</ele><time>2026-03-28T14:47:42Z</time></trkpt><trkpt lat="43.58763499217261" lon="11.201392472638219"><ele>169.0</ele><time>2026-03-28T14:47:43Z</time></trkpt><trkpt lat="43.58794718777591" lon="11.201275514114547"><ele>167.0</ele><time>2026-03-28T14:47:44Z</time></trkpt><trkpt lat="43.58826274618146" lon="11.201140922369206"><ele>165.0</ele><time>2026-03-28T14:47:45Z</time></trkpt><trkpt lat="43.58858903259825" lon="11.200982225096485"><ele>165.0</ele><time>2026-03-28T14:47:46Z</time></trkpt><trkpt lat="43.58890670400912" lon="11.200817228508543"><ele>165.0</ele><time>2026-03-28T14:47:47Z</time></trkpt><trkpt lat="43.589198662957926" lon="11.200665409831592"><ele>165.0</ele><time>2026-03-28T14:47:48Z</time></trkpt><trkpt lat="43.58948868867184" lon="11.200522810023491"><ele>165.0</ele><time>2026-03-28T14:47:49Z</time></trkpt><trkpt lat="43.589774527641225" lon="11.200381369988767"><ele>163.0</ele><time>2026-03-28T14:47:50Z</time></trkpt><trkpt lat="43.590047740218104" lon="11.200242130838973"><ele>161.0</ele><time>2026-03-28T14:47:51Z</time></trkpt><trkpt lat="43.590317257244095" lon="11.200108781184813"><ele>160.5</ele><time>2026-03-28T14:47:52Z</time></trkpt><trkpt lat="43.59058617970691" lon="11.199979012026022"><ele>160.0</ele><time>2026-03-28T14:47:53Z</time></trkpt><trkpt lat="43.5908478725657" lon="11.199850247917928"><ele>160.5</ele><time>2026-03-28T14:47:54Z</time></trkpt><trkpt lat="43.591107416946514" lon="11.199720497466705"><ele>161.0</ele><time>2026-03-28T14:47:55Z</time></trkpt><trkpt lat="43.59136581329374" lon="11.199592047470416"><ele>161.0</ele><time>2026-03-28T14:47:56Z</time></trkpt><trkpt lat="43.59163314392885" lon="11.199458809188265"><ele>161.0</ele><time>2026-03-28T14:47:57Z</time></trkpt><trkpt lat="43.591918177746166" lon="11.199316489133745"><ele>161.0</ele><time>2026-03-28T14:47:58Z</time></trkpt><trkpt lat="43.59219821092031" lon="11.1991712473551"><ele>161.0</ele><time>2026-03-28T14:47:59Z</time></trkpt><trkpt lat="43.59246079605911" lon="11.199026824139574"><ele>162.0</ele><time>2026-03-28T14:48:00Z</time></trkpt><trkpt lat="43.5927265642103" lon="11.198877738580508"><ele>163.0</ele><time>2026-03-28T14:48:01Z</time></trkpt><trkpt lat="43.59298347910442" lon="11.198720500513971"><ele>163.0</ele><time>2026-03-28T14:48:02Z</time></trkpt><trkpt lat="43.593221424570245" lon="11.198554915992126"><ele>163.0</ele><time>2026-03-28T14:48:03Z</time></trkpt><trkpt lat="43.59343702542191" lon="11.198391446541766"><ele>163.0</ele><time>2026-03-28T14:48:04Z</time></trkpt><trkpt lat="43.59364309244894" lon="11.198227298500989"><ele>163.0</ele><time>2026-03-28T14:48:05Z</time></trkpt><trkpt lat="43.59383648681533" lon="11.19806456522258"><ele>162.66666666666669</ele><time>2026-03-28T14:48:06Z</time></trkpt><trkpt lat="43.59401477753282" lon="11.197910241339471"><ele>162.33333333333334</ele><time>2026-03-28T14:48:07Z</time></trkpt><trkpt lat="43.59418610254886" lon="11.19775778456892"><ele>162.0</ele><time>2026-03-28T14:48:08Z</time></trkpt><trkpt lat="43.59434557732023" lon="11.197594135103685"><ele>161.33333333333334</ele><time>2026-03-28T14:48:09Z</time></trkpt><trkpt lat="43.59450827980317" lon="11.197431918343879"><ele>160.66666666666669</ele><time>2026-03-28T14:48:10Z</time></trkpt><trkpt lat="43.59467631544984" lon="11.197279487046647"><ele>160.0</ele><time>2026-03-28T14:48:11Z</time></trkpt><trkpt lat="43.59484720062442" lon="11.197129508567249"><ele>160.0</ele><time>2026-03-28T14:48:12Z</time></trkpt><trkpt lat="43.59502873338759" lon="11.196974177632265"><ele>160.0</ele><time>2026-03-28T14:48:13Z</time></trkpt><trkpt lat="43.595220998050465" lon="11.19679648913069"><ele>160.0</ele><time>2026-03-28T14:48:14Z</time></trkpt><trkpt lat="43.595429618613046" lon="11.196602536017382"><ele>160.5</ele><time>2026-03-28T14:48:15Z</time></trkpt><trkpt lat="43.59564192032445" lon="11.196408692925862"><ele>161.0</ele><time>2026-03-28T14:48:16Z</time></trkpt><trkpt lat="43.59585635594722" lon="11.196214219794975"><ele>161.0</ele><time>2026-03-28T14:48:17Z</time></trkpt><trkpt lat="43.59606156549943" lon="11.19603135656081"><ele>161.0</ele><time>2026-03-28T14:48:18Z</time></trkpt><trkpt lat="43.596259137059945" lon="11.195846431961854"><ele>162.0</ele><time>2026-03-28T14:48:19Z</time></trkpt><trkpt lat="43.59645546116631" lon="11.195663867093783"><ele>163.0</ele><time>2026-03-28T14:48:20Z</time></trkpt><trkpt lat="43.596654206882285" lon="11.195482210237007"><ele>163.0</ele><time>2026-03-28T14:48:21Z</time></trkpt><trkpt lat="43.59686669256586" lon="11.195290336207675"><ele>163.0</ele><time>2026-03-28T14:48:22Z</time></trkpt><trkpt lat="43.597075190921274" lon="11.195100725763892"><ele>160.5</ele><time>2026-03-28T14:48:23Z</time></trkpt><trkpt lat="43.59730493814399" lon="11.19489778148323"><ele>158.0</ele><time>2026-03-28T14:48:24Z</time></trkpt><trkpt lat="43.59755232241599" lon="11.194699069216975"><ele>158.0</ele><time>2026-03-28T14:48:25Z</time></trkpt><trkpt lat="43.5978286235099" lon="11.194505066254186"><ele>158.0</ele><time>2026-03-28T14:48:26Z</time></trkpt><trkpt lat="43.5981101523851" lon="11.19432022971826"><ele>155.5</ele><time>2026-03-28T14:48:27Z</time></trkpt><trkpt lat="43.598399718652004" lon="11.194145442921775"><ele>153.0</ele><time>2026-03-28T14:48:28Z</time></trkpt><trkpt lat="43.59869840492294" lon="11.193981340335984"><ele>152.0</ele><time>2026-03-28T14:48:29Z</time></trkpt><trkpt lat="43.598984174121455" lon="11.193843108814866"><ele>151.0</ele><time>2026-03-28T14:48:30Z</time></trkpt><trkpt lat="43.599263317975065" lon="11.19372112232878"><ele>151.5</ele><time>2026-03-28T14:48:31Z</time></trkpt><trkpt lat="43.5995427721455" lon="11.193609902711728"><ele>152.0</ele><time>2026-03-28T14:48:32Z</time></trkpt><trkpt lat="43.599829349038245" lon="11.193497879314506"><ele>152.0</ele><time>2026-03-28T14:48:33Z</time></trkpt><trkpt lat="43.600112132672415" lon="11.193384978462127"><ele>152.0</ele><time>2026-03-28T14:48:34Z</time></trkpt><trkpt lat="43.60037537038164" lon="11.193277512879904"><ele>152.0</ele><time>2026-03-28T14:48:35Z</time></trkpt><trkpt lat="43.60062507155782" lon="11.19317805241987"><ele>152.0</ele><time>2026-03-28T14:48:36Z</time></trkpt><trkpt lat="43.600869921598246" lon="11.193079031443977"><ele>152.0</ele><time>2026-03-28T14:48:37Z</time></trkpt><trkpt lat="43.601118942166785" lon="11.19297748556049"><ele>152.0</ele><time>2026-03-28T14:48:38Z</time></trkpt><trkpt lat="43.601376456957716" lon="11.192872452446586"><ele>151.5</ele><time>2026-03-28T14:48:39Z</time></trkpt><trkpt lat="43.60164048228445" lon="11.192760543807129"><ele>151.0</ele><time>2026-03-28T14:48:40Z</time></trkpt><trkpt lat="43.601891903273966" lon="11.192648954740276"><ele>150.0</ele><time>2026-03-28T14:48:41Z</time></trkpt><trkpt lat="43.60215004470234" lon="11.192546231099941"><ele>149.0</ele><time>2026-03-28T14:48:42Z</time></trkpt><trkpt lat="43.602402597393294" lon="11.192447275673857"><ele>149.0</ele><time>2026-03-28T14:48:43Z</time></trkpt><trkpt lat="43.60264718490027" lon="11.1923506560068"><ele>149.0</ele><time>2026-03-28T14:48:44Z</time></trkpt><trkpt lat="43.602895500052355" lon="11.192252466193017"><ele>150.0</ele><time>2026-03-28T14:48:45Z</time></trkpt><trkpt lat="43.60314310333865" lon="11.192150497982798"><ele>151.0</ele><time>2026-03-28T14:48:46Z</time></trkpt><trkpt lat="43.60339000715873" lon="11.192050596595845"><ele>151.0</ele><time>2026-03-28T14:48:47Z</time></trkpt><trkpt lat="43.6036401532479" lon="11.191952589437149"><ele>151.0</ele><time>2026-03-28T14:48:48Z</time></trkpt><trkpt lat="43.60388136237066" lon="11.191860455501311"><ele>151.0</ele><time>2026-03-28T14:48:49Z</time></trkpt><trkpt lat="43.60412906198156" lon="11.191771483408868"><ele>151.0</ele><time>2026-03-28T14:48:50Z</time></trkpt><trkpt lat="43.60439388797389" lon="11.191686052786794"><ele>151.0</ele><time>2026-03-28T14:48:51Z</time></trkpt><trkpt lat="43.60466442099557" lon="11.191609209182502"><ele>151.0</ele><time>2026-03-28T14:48:52Z</time></trkpt><trkpt lat="43.60493760168927" lon="11.19153832007451"><ele>151.5</ele><time>2026-03-28T14:48:53Z</time></trkpt><trkpt lat="43.60520759280743" lon="11.191487495807246"><ele>152.0</ele><time>2026-03-28T14:48:54Z</time></trkpt><trkpt lat="43.60546696940896" lon="11.191455419714087"><ele>149.5</ele><time>2026-03-28T14:48:55Z</time></trkpt><trkpt lat="43.60571822499334" lon="11.191439335203816"><ele>147.0</ele><time>2026-03-28T14:48:56Z</time></trkpt><trkpt lat="43.605965525699574" lon="11.191420272243148"><ele>146.5</ele><time>2026-03-28T14:48:57Z</time></trkpt><trkpt lat="43.60621598776434" lon="11.191401586453885"><ele>146.0</ele><time>2026-03-28T14:48:58Z</time></trkpt><trkpt lat="43.60646304799785" lon="11.191377267169086"><ele>146.0</ele><time>2026-03-28T14:48:59Z</time></trkpt><trkpt lat="43.60670075341045" lon="11.191350554435145"><ele>146.0</ele><time>2026-03-28T14:49:00Z</time></trkpt><trkpt lat="43.60693788824787" lon="11.191309473044528"><ele>145.5</ele><time>2026-03-28T14:49:01Z</time></trkpt><trkpt lat="43.60717347013955" lon="11.191275614824484"><ele>145.0</ele><time>2026-03-28T14:49:02Z</time></trkpt><trkpt lat="43.607405739692084" lon="11.191240782118525"><ele>145.0</ele><time>2026-03-28T14:49:03Z</time></trkpt><trkpt lat="43.607642608405044" lon="11.19120817040345"><ele>145.0</ele><time>2026-03-28T14:49:04Z</time></trkpt><trkpt lat="43.60789135473641" lon="11.19117934559756"><ele>146.0</ele><time>2026-03-28T14:49:05Z</time></trkpt><trkpt lat="43.60814072627382" lon="11.191149017258269"><ele>147.0</ele><time>2026-03-28T14:49:06Z</time></trkpt><trkpt lat="43.60838318279812" lon="11.191122187415667"><ele>147.0</ele><time>2026-03-28T14:49:07Z</time></trkpt><trkpt lat="43.608620104826464" lon="11.191096147370457"><ele>147.0</ele><time>2026-03-28T14:49:08Z</time></trkpt><trkpt lat="43.60885887399819" lon="11.191071868329365"><ele>147.0</ele><time>2026-03-28T14:49:09Z</time></trkpt><trkpt lat="43.609103665038226" lon="11.191049077971485"><ele>147.0</ele><time>2026-03-28T14:49:10Z</time></trkpt><trkpt lat="43.60934992914139" lon="11.191028136820703"><ele>145.5</ele><time>2026-03-28T14:49:11Z</time></trkpt><trkpt lat="43.60960590760025" lon="11.190998505101897"><ele>144.0</ele><time>2026-03-28T14:49:12Z</time></trkpt><trkpt lat="43.609864200437876" lon="11.190960272400218"><ele>144.0</ele><time>2026-03-28T14:49:13Z</time></trkpt><trkpt lat="43.610129094511635" lon="11.19092898655285"><ele>144.0</ele><time>2026-03-28T14:49:14Z</time></trkpt><trkpt lat="43.610391065215026" lon="11.190901575445473"><ele>143.5</ele><time>2026-03-28T14:49:15Z</time></trkpt><trkpt lat="43.61064861865152" lon="11.190873841581778"><ele>143.0</ele><time>2026-03-28T14:49:16Z</time></trkpt><trkpt lat="43.610902792880786" lon="11.190843416644247"><ele>143.0</ele><time>2026-03-28T14:49:17Z</time></trkpt><trkpt lat="43.611153192908006" lon="11.190812067269192"><ele>143.0</ele><time>2026-03-28T14:49:18Z</time></trkpt><trkpt lat="43.611398929137934" lon="11.19077680792691"><ele>143.5</ele><time>2026-03-28T14:49:19Z</time></trkpt><trkpt lat="43.61165001162644" lon="11.190738516100469"><ele>144.0</ele><time>2026-03-28T14:49:20Z</time></trkpt><trkpt lat="43.61190632491948" lon="11.190693664937392"><ele>143.5</ele><time>2026-03-28T14:49:21Z</time></trkpt><trkpt lat="43.612159048163974" lon="11.190638011286795"><ele>143.0</ele><time>2026-03-28T14:49:22Z</time></trkpt><trkpt lat="43.61241702463843" lon="11.190566379164528"><ele>143.0</ele><time>2026-03-28T14:49:23Z</time></trkpt><trkpt lat="43.61266442801575" lon="11.190488252699513"><ele>143.0</ele><time>2026-03-28T14:49:24Z</time></trkpt><trkpt lat="43.61289589941717" lon="11.190410060871693"><ele>143.5</ele><time>2026-03-28T14:49:25Z</time></trkpt><trkpt lat="43.61312280328607" lon="11.190318821666953"><ele>144.0</ele><time>2026-03-28T14:49:26Z</time></trkpt><trkpt lat="43.61334565854603" lon="11.190217023236581"><ele>144.0</ele><time>2026-03-28T14:49:27Z</time></trkpt><trkpt lat="43.61357254255212" lon="11.19011621849627"><ele>144.0</ele><time>2026-03-28T14:49:28Z</time></trkpt><trkpt lat="43.6138016459505" lon="11.190000628636064"><ele>144.0</ele><time>2026-03-28T14:49:29Z</time></trkpt><trkpt lat="43.614026432471476" lon="11.18987481531152"><ele>144.0</ele><time>2026-03-28T14:49:30Z</time></trkpt><trkpt lat="43.6142494025602" lon="11.189742208867706"><ele>142.5</ele><time>2026-03-28T14:49:31Z</time></trkpt><trkpt lat="43.614475472718304" lon="11.189610531205274"><ele>141.0</ele><time>2026-03-28T14:49:32Z</time></trkpt><trkpt lat="43.614703464424444" lon="11.189484856651207"><ele>141.0</ele><time>2026-03-28T14:49:33Z</time></trkpt><trkpt lat="43.614933878843686" lon="11.18936845477006"><ele>141.0</ele><time>2026-03-28T14:49:34Z</time></trkpt><trkpt lat="43.6151650692558" lon="11.189248918570486"><ele>141.5</ele><time>2026-03-28T14:49:35Z</time></trkpt><trkpt lat="43.61539189527139" lon="11.189128578942356"><ele>142.0</ele><time>2026-03-28T14:49:36Z</time></trkpt><trkpt lat="43.61561243171615" lon="11.189000095814693"><ele>142.0</ele><time>2026-03-28T14:49:37Z</time></trkpt><trkpt lat="43.61582889806569" lon="11.188873266420039"><ele>142.0</ele><time>2026-03-28T14:49:38Z</time></trkpt><trkpt lat="43.61604593250834" lon="11.188750077158716"><ele>143.0</ele><time>2026-03-28T14:49:39Z</time></trkpt><trkpt lat="43.61626191345812" lon="11.188621966087359"><ele>144.0</ele><time>2026-03-28T14:49:40Z</time></trkpt><trkpt lat="43.616482284322316" lon="11.188490967018218"><ele>144.0</ele><time>2026-03-28T14:49:41Z</time></trkpt><trkpt lat="43.61670544761511" lon="11.188357122174132"><ele>144.0</ele><time>2026-03-28T14:49:42Z</time></trkpt><trkpt lat="43.61693430908813" lon="11.188221040771198"><ele>142.5</ele><time>2026-03-28T14:49:43Z</time></trkpt><trkpt lat="43.61716850239968" lon="11.188086185094905"><ele>141.0</ele><time>2026-03-28T14:49:44Z</time></trkpt><trkpt lat="43.617407132459384" lon="11.187948245893265"><ele>141.0</ele><time>2026-03-28T14:49:45Z</time></trkpt><trkpt lat="43.61765149272563" lon="11.187810788462272"><ele>141.0</ele><time>2026-03-28T14:49:46Z</time></trkpt><trkpt lat="43.61789432304411" lon="11.187669903484075"><ele>140.5</ele><time>2026-03-28T14:49:47Z</time></trkpt><trkpt lat="43.618136233638616" lon="11.18752799456531"><ele>140.0</ele><time>2026-03-28T14:49:48Z</time></trkpt><trkpt lat="43.618374814768366" lon="11.187384204059871"><ele>139.0</ele><time>2026-03-28T14:49:49Z</time></trkpt><trkpt lat="43.618621846407784" lon="11.187240850172575"><ele>138.0</ele><time>2026-03-28T14:49:50Z</time></trkpt><trkpt lat="43.61888854208448" lon="11.187086255734375"><ele>137.5</ele><time>2026-03-28T14:49:51Z</time></trkpt><trkpt lat="43.61917429290728" lon="11.18690170903704"><ele>137.0</ele><time>2026-03-28T14:49:52Z</time></trkpt><trkpt lat="43.61947749016092" lon="11.186701548137945"><ele>136.0</ele><time>2026-03-28T14:49:53Z</time></trkpt><trkpt lat="43.6198024892703" lon="11.186508312157935"><ele>135.0</ele><time>2026-03-28T14:49:54Z</time></trkpt><trkpt lat="43.6201445657568" lon="11.186311735540347"><ele>135.5</ele><time>2026-03-28T14:49:55Z</time></trkpt><trkpt lat="43.62047224453198" lon="11.18612299568204"><ele>136.0</ele><time>2026-03-28T14:49:56Z</time></trkpt><trkpt lat="43.62077998590793" lon="11.185943709581213"><ele>136.0</ele><time>2026-03-28T14:49:57Z</time></trkpt><trkpt lat="43.62107181686087" lon="11.185769327469739"><ele>136.0</ele><time>2026-03-28T14:49:58Z</time></trkpt><trkpt lat="43.62136130846035" lon="11.18560542598632"><ele>135.5</ele><time>2026-03-28T14:49:59Z</time></trkpt><trkpt lat="43.62165396820671" lon="11.18543984413175"><ele>135.0</ele><time>2026-03-28T14:50:00Z</time></trkpt><trkpt lat="43.62193002133893" lon="11.185278792482265"><ele>135.0</ele><time>2026-03-28T14:50:01Z</time></trkpt><trkpt lat="43.62220719883779" lon="11.185115732219593"><ele>135.0</ele><time>2026-03-28T14:50:02Z</time></trkpt><trkpt lat="43.62249837012379" lon="11.184944893321768"><ele>134.0</ele><time>2026-03-28T14:50:03Z</time></trkpt><trkpt lat="43.62280116830598" lon="11.184766611828566"><ele>133.0</ele><time>2026-03-28T14:50:04Z</time></trkpt><trkpt lat="43.62312323204529" lon="11.1845766836861"><ele>135.0</ele><time>2026-03-28T14:50:05Z</time></trkpt><trkpt lat="43.623453995841935" lon="11.18438335744957"><ele>137.0</ele><time>2026-03-28T14:50:06Z</time></trkpt><trkpt lat="43.623784087128875" lon="11.184192184480882"><ele>136.5</ele><time>2026-03-28T14:50:07Z</time></trkpt><trkpt lat="43.62412208366835" lon="11.184006640806835"><ele>136.0</ele><time>2026-03-28T14:50:08Z</time></trkpt><trkpt lat="43.62443732116777" lon="11.183840071535862"><ele>137.0</ele><time>2026-03-28T14:50:09Z</time></trkpt><trkpt lat="43.62475667959262" lon="11.183702285016786"><ele>138.0</ele><time>2026-03-28T14:50:10Z</time></trkpt><trkpt lat="43.62509205892391" lon="11.183568848784288"><ele>139.0</ele><time>2026-03-28T14:50:11Z</time></trkpt><trkpt lat="43.62542870685851" lon="11.183453983555381"><ele>140.0</ele><time>2026-03-28T14:50:12Z</time></trkpt><trkpt lat="43.6257653466903" lon="11.18335683950142"><ele>140.0</ele><time>2026-03-28T14:50:13Z</time></trkpt><trkpt lat="43.62612032157667" lon="11.183276344172933"><ele>140.0</ele><time>2026-03-28T14:50:14Z</time></trkpt><trkpt lat="43.626494701762795" lon="11.183210698108077"><ele>137.5</ele><time>2026-03-28T14:50:15Z</time></trkpt><trkpt lat="43.62688615165062" lon="11.18317039422542"><ele>135.0</ele><time>2026-03-28T14:50:16Z</time></trkpt><trkpt lat="43.62729219150969" lon="11.183164563068352"><ele>136.5</ele><time>2026-03-28T14:50:17Z</time></trkpt><trkpt lat="43.627719385758695" lon="11.183297125376967"><ele>138.0</ele><time>2026-03-28T14:50:18Z</time></trkpt><trkpt lat="43.62813068729156" lon="11.183547074961053"><ele>138.0</ele><time>2026-03-28T14:50:19Z</time></trkpt><trkpt lat="43.62853491954017" lon="11.183823584350945"><ele>151.0</ele><time>2026-03-28T14:50:20Z</time></trkpt><trkpt lat="43.628929802617336" lon="11.18412177824335"><ele>140.0</ele><time>2026-03-28T14:50:21Z</time></trkpt><trkpt lat="43.62929690990086" lon="11.183188884826025"><ele>141.5</ele><time>2026-03-28T14:50:22Z</time></trkpt><trkpt lat="43.629687676572864" lon="11.18320756063916"><ele>143.0</ele><time>2026-03-28T14:50:23Z</time></trkpt><trkpt lat="43.63004019449077" lon="11.183222544309416"><ele>145.0</ele><time>2026-03-28T14:50:24Z</time></trkpt><trkpt lat="43.63038469690232" lon="11.183234589701812"><ele>147.0</ele><time>2026-03-28T14:50:25Z</time></trkpt><trkpt lat="43.63072470292085" lon="11.183224287314472"><ele>147.0</ele><time>2026-03-28T14:50:26Z</time></trkpt><trkpt lat="43.63107488878507" lon="11.183190302658653"><ele>147.0</ele><time>2026-03-28T14:50:27Z</time></trkpt><trkpt lat="43.63141475493798" lon="11.183130225722097"><ele>146.0</ele><time>2026-03-28T14:50:28Z</time></trkpt><trkpt lat="43.63176113292488" lon="11.183037977283039"><ele>145.0</ele><time>2026-03-28T14:50:29Z</time></trkpt><trkpt lat="43.632105785321855" lon="11.182926705183231"><ele>145.0</ele><time>2026-03-28T14:50:30Z</time></trkpt><trkpt lat="43.632455331126806" lon="11.182791354781658"><ele>145.0</ele><time>2026-03-28T14:50:31Z</time></trkpt><trkpt lat="43.63279683845499" lon="11.182634086993366"><ele>146.0</ele><time>2026-03-28T14:50:32Z</time></trkpt><trkpt lat="43.63312616115736" lon="11.182445639235633"><ele>147.0</ele><time>2026-03-28T14:50:33Z</time></trkpt><trkpt lat="43.63346233327273" lon="11.182219677833316"><ele>141.5</ele><time>2026-03-28T14:50:34Z</time></trkpt><trkpt lat="43.633811777999036" lon="11.1819693844637"><ele>136.0</ele><time>2026-03-28T14:50:35Z</time></trkpt><trkpt lat="43.63418070002863" lon="11.18171982395544"><ele>138.0</ele><time>2026-03-28T14:50:36Z</time></trkpt><trkpt lat="43.63455839254152" lon="11.1814738282759"><ele>140.0</ele><time>2026-03-28T14:50:37Z</time></trkpt><trkpt lat="43.634936442305836" lon="11.181230749140775"><ele>140.0</ele><time>2026-03-28T14:50:38Z</time></trkpt><trkpt lat="43.63527486131871" lon="11.181017249475024"><ele>140.0</ele><time>2026-03-28T14:50:39Z</time></trkpt><trkpt lat="43.63561330696724" lon="11.18079963335745"><ele>141.0</ele><time>2026-03-28T14:50:40Z</time></trkpt><trkpt lat="43.635964362831054" lon="11.18058041240774"><ele>142.0</ele><time>2026-03-28T14:50:41Z</time></trkpt><trkpt lat="43.63632921695308" lon="11.180363951027132"><ele>150.0</ele><time>2026-03-28T14:50:42Z</time></trkpt><trkpt lat="43.63670930572505" lon="11.18016274857403"><ele>158.0</ele><time>2026-03-28T14:50:43Z</time></trkpt><trkpt lat="43.63706262415893" lon="11.180169346083552"><ele>158.5</ele><time>2026-03-28T14:50:44Z</time></trkpt><trkpt lat="43.63740285027937" lon="11.18000735794197"><ele>159.0</ele><time>2026-03-28T14:50:45Z</time></trkpt><trkpt lat="43.63773974168631" lon="11.179729254884098"><ele>163.0</ele><time>2026-03-28T14:50:46Z</time></trkpt><trkpt lat="43.63809810025802" lon="11.179501922062054"><ele>167.0</ele><time>2026-03-28T14:50:47Z</time></trkpt><trkpt lat="43.63846741960599" lon="11.179299479490927"><ele>171.5</ele><time>2026-03-28T14:50:48Z</time></trkpt><trkpt lat="43.63888506104327" lon="11.1792066031095"><ele>176.0</ele><time>2026-03-28T14:50:49Z</time></trkpt><trkpt lat="43.639298697352515" lon="11.178991813478989"><ele>179.5</ele><time>2026-03-28T14:50:50Z</time></trkpt><trkpt lat="43.63970050561897" lon="11.178844191750064"><ele>183.0</ele><time>2026-03-28T14:50:51Z</time></trkpt><trkpt lat="43.64010650018993" lon="11.178598957676192"><ele>178.5</ele><time>2026-03-28T14:50:52Z</time></trkpt><trkpt lat="43.640399755169014" lon="11.178713689092739"><ele>174.0</ele><time>2026-03-28T14:50:53Z</time></trkpt><trkpt lat="43.640739913819765" lon="11.178585296247585"><ele>174.0</ele><time>2026-03-28T14:50:54Z</time></trkpt><trkpt lat="43.641062635118494" lon="11.178459809615386"><ele>174.0</ele><time>2026-03-28T14:50:55Z</time></trkpt><trkpt lat="43.64138259276872" lon="11.178342438637042"><ele>180.0</ele><time>2026-03-28T14:50:56Z</time></trkpt><trkpt lat="43.64169781342629" lon="11.178238720391507"><ele>186.0</ele><time>2026-03-28T14:50:57Z</time></trkpt><trkpt lat="43.64200654860667" lon="11.17814241134358"><ele>186.0</ele><time>2026-03-28T14:50:58Z</time></trkpt><trkpt lat="43.642318571135014" lon="11.178091826326245"><ele>186.0</ele><time>2026-03-28T14:50:59Z</time></trkpt><trkpt lat="43.642639621353055" lon="11.178076003555292"><ele>184.0</ele><time>2026-03-28T14:51:00Z</time></trkpt><trkpt lat="43.64295414058342" lon="11.1780998882975"><ele>182.0</ele><time>2026-03-28T14:51:01Z</time></trkpt><trkpt lat="43.643270716519645" lon="11.178144344921098"><ele>184.0</ele><time>2026-03-28T14:51:02Z</time></trkpt><trkpt lat="43.64358102968015" lon="11.178221602368817"><ele>186.0</ele><time>2026-03-28T14:51:03Z</time></trkpt><trkpt lat="43.64391681838658" lon="11.178344350969976"><ele>186.0</ele><time>2026-03-28T14:51:04Z</time></trkpt><trkpt lat="43.6442045369748" lon="11.17848896235381"><ele>186.0</ele><time>2026-03-28T14:51:05Z</time></trkpt><trkpt lat="43.64450156206611" lon="11.17867086674118"><ele>189.5</ele><time>2026-03-28T14:51:06Z</time></trkpt><trkpt lat="43.644794525321174" lon="11.17887993449687"><ele>193.0</ele><time>2026-03-28T14:51:07Z</time></trkpt><trkpt lat="43.64508404128418" lon="11.179128049514638"><ele>190.5</ele><time>2026-03-28T14:51:08Z</time></trkpt><trkpt lat="43.645371567108135" lon="11.179414724458448"><ele>188.0</ele><time>2026-03-28T14:51:09Z</time></trkpt><trkpt lat="43.64566152489147" lon="11.179734034430211"><ele>189.0</ele><time>2026-03-28T14:51:10Z</time></trkpt><trkpt lat="43.64594862282523" lon="11.180057626536145"><ele>190.0</ele><time>2026-03-28T14:51:11Z</time></trkpt><trkpt lat="43.646207436856585" lon="11.180343423549015"><ele>190.0</ele><time>2026-03-28T14:51:12Z</time></trkpt><trkpt lat="43.64646282712171" lon="11.180606637177204"><ele>190.0</ele><time>2026-03-28T14:51:13Z</time></trkpt><trkpt lat="43.64670859081928" lon="11.180871018891615"><ele>193.0</ele><time>2026-03-28T14:51:14Z</time></trkpt><trkpt lat="43.64693068042412" lon="11.181150238133199"><ele>196.0</ele><time>2026-03-28T14:51:15Z</time></trkpt><trkpt lat="43.6471702852907" lon="11.181415958926612"><ele>201.0</ele><time>2026-03-28T14:51:16Z</time></trkpt><trkpt lat="43.647395058691465" lon="11.181684903890488"><ele>206.0</ele><time>2026-03-28T14:51:17Z</time></trkpt><trkpt lat="43.64761432798483" lon="11.181980654874177"><ele>206.0</ele><time>2026-03-28T14:51:18Z</time></trkpt><trkpt lat="43.64783271842969" lon="11.182310357384356"><ele>206.0</ele><time>2026-03-28T14:51:19Z</time></trkpt><trkpt lat="43.64804524440236" lon="11.18266285953981"><ele>206.0</ele><time>2026-03-28T14:51:20Z</time></trkpt><trkpt lat="43.6482497531038" lon="11.183019617959886"><ele>206.0</ele><time>2026-03-28T14:51:21Z</time></trkpt><trkpt lat="43.648455191458616" lon="11.18340337081554"><ele>208.5</ele><time>2026-03-28T14:51:22Z</time></trkpt><trkpt lat="43.6486561873155" lon="11.18382214891612"><ele>211.0</ele><time>2026-03-28T14:51:23Z</time></trkpt><trkpt lat="43.648856622403926" lon="11.184261764222374"><ele>213.5</ele><time>2026-03-28T14:51:24Z</time></trkpt><trkpt lat="43.64906083039788" lon="11.184715824557584"><ele>216.0</ele><time>2026-03-28T14:51:25Z</time></trkpt><trkpt lat="43.64926805972855" lon="11.185156839038806"><ele>216.0</ele><time>2026-03-28T14:51:26Z</time></trkpt><trkpt lat="43.64947521883367" lon="11.18559462529235"><ele>216.0</ele><time>2026-03-28T14:51:27Z</time></trkpt><trkpt lat="43.6496672250328" lon="11.186003546263004"><ele>218.5</ele><time>2026-03-28T14:51:28Z</time></trkpt><trkpt lat="43.64984864079577" lon="11.186391146286104"><ele>221.0</ele><time>2026-03-28T14:51:29Z</time></trkpt><trkpt lat="43.65003010732662" lon="11.186781474903338"><ele>223.0</ele><time>2026-03-28T14:51:30Z</time></trkpt><trkpt lat="43.650211253963356" lon="11.187165810808166"><ele>225.0</ele><time>2026-03-28T14:51:31Z</time></trkpt><trkpt lat="43.650386018235814" lon="11.187529146806467"><ele>230.5</ele><time>2026-03-28T14:51:32Z</time></trkpt><trkpt lat="43.650553743513896" lon="11.187897695204798"><ele>236.0</ele><time>2026-03-28T14:51:33Z</time></trkpt><trkpt lat="43.650718824994414" lon="11.188228160318781"><ele>236.0</ele><time>2026-03-28T14:51:34Z</time></trkpt><trkpt lat="43.65089351405656" lon="11.18859386420053"><ele>236.0</ele><time>2026-03-28T14:51:35Z</time></trkpt><trkpt lat="43.65107881003363" lon="11.18898440087979"><ele>243.0</ele><time>2026-03-28T14:51:36Z</time></trkpt><trkpt lat="43.651266910266095" lon="11.189377772048788"><ele>250.0</ele><time>2026-03-28T14:51:37Z</time></trkpt><trkpt lat="43.65144794414582" lon="11.18975134417205"><ele>246.5</ele><time>2026-03-28T14:51:38Z</time></trkpt><trkpt lat="43.65162898801439" lon="11.19010608898681"><ele>243.0</ele><time>2026-03-28T14:51:39Z</time></trkpt><trkpt lat="43.65181951266349" lon="11.190452635254946"><ele>247.5</ele><time>2026-03-28T14:51:40Z</time></trkpt><trkpt lat="43.652036056170466" lon="11.190784553605946"><ele>252.0</ele><time>2026-03-28T14:51:41Z</time></trkpt><trkpt lat="43.65227429320916" lon="11.191125496494251"><ele>252.0</ele><time>2026-03-28T14:51:42Z</time></trkpt><trkpt lat="43.65251298042831" lon="11.191470250857318"><ele>252.0</ele><time>2026-03-28T14:51:43Z</time></trkpt><trkpt lat="43.652754454685216" lon="11.191816325238259"><ele>255.5</ele><time>2026-03-28T14:51:44Z</time></trkpt><trkpt lat="43.65299173902388" lon="11.19216877194041"><ele>259.0</ele><time>2026-03-28T14:51:45Z</time></trkpt><trkpt lat="43.65324808224575" lon="11.192547797974141"><ele>260.5</ele><time>2026-03-28T14:51:46Z</time></trkpt><trkpt lat="43.65350867200447" lon="11.192931634357809"><ele>262.0</ele><time>2026-03-28T14:51:47Z</time></trkpt><trkpt lat="43.65377219036093" lon="11.193318046981114"><ele>273.0</ele><time>2026-03-28T14:51:48.021Z</time></trkpt><trkpt lat="43.6540285278215" lon="11.193695965207123"><ele>284.0</ele><time>2026-03-28T14:51:49.025Z</time></trkpt><trkpt lat="43.654275323769824" lon="11.194059492858399"><ele>289.0</ele><time>2026-03-28T14:51:50.015Z</time></trkpt><trkpt lat="43.654532261043265" lon="11.194436624397273"><ele>294.0</ele><time>2026-03-28T14:51:51.016Z</time></trkpt><trkpt lat="43.655764435095705" lon="11.196302418133602"><ele>270.0</ele><time>2026-03-28T14:51:56Z</time></trkpt><trkpt lat="43.65595164465302" lon="11.196534448993257"><ele>246.0</ele><time>2026-03-28T14:51:57Z</time></trkpt><trkpt lat="43.656184791493054" lon="11.19685341803962"><ele>239.5</ele><time>2026-03-28T14:51:58Z</time></trkpt><trkpt lat="43.65640427271518" lon="11.197168627443258"><ele>233.0</ele><time>2026-03-28T14:51:59Z</time></trkpt><trkpt lat="43.65661196183951" lon="11.1974841433045"><ele>233.0</ele><time>2026-03-28T14:52:00Z</time></trkpt><trkpt lat="43.65681138391607" lon="11.19781581272829"><ele>233.0</ele><time>2026-03-28T14:52:01Z</time></trkpt><trkpt lat="43.65700460762696" lon="11.198164425994081"><ele>229.0</ele><time>2026-03-28T14:52:02Z</time></trkpt><trkpt lat="43.657185442072425" lon="11.198528236660144"><ele>225.0</ele><time>2026-03-28T14:52:03Z</time></trkpt><trkpt lat="43.657358512673305" lon="11.198909167308843"><ele>222.5</ele><time>2026-03-28T14:52:04Z</time></trkpt><trkpt lat="43.65751574009628" lon="11.19931193214213"><ele>220.0</ele><time>2026-03-28T14:52:05Z</time></trkpt><trkpt lat="43.657674800897944" lon="11.199725975831244"><ele>224.5</ele><time>2026-03-28T14:52:06Z</time></trkpt><trkpt lat="43.657829697953694" lon="11.200162955391438"><ele>229.0</ele><time>2026-03-28T14:52:07Z</time></trkpt><trkpt lat="43.65796707665903" lon="11.200573812863896"><ele>225.5</ele><time>2026-03-28T14:52:08Z</time></trkpt><trkpt lat="43.65809125419438" lon="11.200957196998175"><ele>222.0</ele><time>2026-03-28T14:52:09Z</time></trkpt><trkpt lat="43.6582150700362" lon="11.201328978566076"><ele>218.0</ele><time>2026-03-28T14:52:10Z</time></trkpt><trkpt lat="43.658342834177255" lon="11.201690404631762"><ele>214.0</ele><time>2026-03-28T14:52:11Z</time></trkpt><trkpt lat="43.658476405031166" lon="11.202042243045552"><ele>220.0</ele><time>2026-03-28T14:52:12Z</time></trkpt><trkpt lat="43.65862676550338" lon="11.202383179732244"><ele>226.0</ele><time>2026-03-28T14:52:13Z</time></trkpt><trkpt lat="43.65880266984191" lon="11.202716668337413"><ele>226.0</ele><time>2026-03-28T14:52:14Z</time></trkpt><trkpt lat="43.65899530328087" lon="11.203049517570877"><ele>226.0</ele><time>2026-03-28T14:52:15Z</time></trkpt><trkpt lat="43.65920471499825" lon="11.203365301283398"><ele>225.0</ele><time>2026-03-28T14:52:16Z</time></trkpt><trkpt lat="43.65942835082757" lon="11.20366301645396"><ele>224.0</ele><time>2026-03-28T14:52:17Z</time></trkpt><trkpt lat="43.65967232980975" lon="11.203945350783252"><ele>216.5</ele><time>2026-03-28T14:52:18Z</time></trkpt><trkpt lat="43.65994246198117" lon="11.204219939296552"><ele>209.0</ele><time>2026-03-28T14:52:19Z</time></trkpt><trkpt lat="43.660240838879524" lon="11.204489619515178"><ele>203.0</ele><time>2026-03-28T14:52:20Z</time></trkpt><trkpt lat="43.660555068577686" lon="11.204764009751477"><ele>197.0</ele><time>2026-03-28T14:52:21Z</time></trkpt><trkpt lat="43.6608750899844" lon="11.205033430641647"><ele>201.5</ele><time>2026-03-28T14:52:22Z</time></trkpt><trkpt lat="43.66117310200032" lon="11.20528323096837"><ele>206.0</ele><time>2026-03-28T14:52:23Z</time></trkpt><trkpt lat="43.66146069707756" lon="11.205535083458834"><ele>199.5</ele><time>2026-03-28T14:52:24Z</time></trkpt><trkpt lat="43.661738201634" lon="11.20577464011788"><ele>193.0</ele><time>2026-03-28T14:52:25Z</time></trkpt><trkpt lat="43.66200104287197" lon="11.205995947705818"><ele>193.0</ele><time>2026-03-28T14:52:26Z</time></trkpt><trkpt lat="43.66224633755097" lon="11.20621110849185"><ele>193.0</ele><time>2026-03-28T14:52:27Z</time></trkpt><trkpt lat="43.66248107040656" lon="11.20642071096963"><ele>184.5</ele><time>2026-03-28T14:52:28Z</time></trkpt><trkpt lat="43.662705524594365" lon="11.206619822266726"><ele>176.0</ele><time>2026-03-28T14:52:29Z</time></trkpt><trkpt lat="43.66292118157978" lon="11.206806919842192"><ele>172.5</ele><time>2026-03-28T14:52:30Z</time></trkpt><trkpt lat="43.663123853450834" lon="11.206985141607793"><ele>169.0</ele><time>2026-03-28T14:52:31Z</time></trkpt><trkpt lat="43.66332009368661" lon="11.20715919584109"><ele>166.66666666666669</ele><time>2026-03-28T14:52:32Z</time></trkpt><trkpt lat="43.66350756561993" lon="11.207329699449563"><ele>164.33333333333334</ele><time>2026-03-28T14:52:33Z</time></trkpt><trkpt lat="43.663684996142315" lon="11.20749464537521"><ele>162.0</ele><time>2026-03-28T14:52:34Z</time></trkpt><trkpt lat="43.66386129500756" lon="11.207652946528972"><ele>166.66666666666666</ele><time>2026-03-28T14:52:35Z</time></trkpt><trkpt lat="43.664035712482054" lon="11.207808495398595"><ele>171.33333333333331</ele><time>2026-03-28T14:52:36Z</time></trkpt><trkpt lat="43.664215285034814" lon="11.20796255469289"><ele>176.0</ele><time>2026-03-28T14:52:37Z</time></trkpt><trkpt lat="43.66439765715315" lon="11.208117082785368"><ele>177.0</ele><time>2026-03-28T14:52:38Z</time></trkpt><trkpt lat="43.664586343158916" lon="11.208276701242543"><ele>178.0</ele><time>2026-03-28T14:52:39Z</time></trkpt><trkpt lat="43.664775622196586" lon="11.20843930325638"><ele>179.0</ele><time>2026-03-28T14:52:40Z</time></trkpt><trkpt lat="43.66496687796116" lon="11.208602672813264"><ele>179.0</ele><time>2026-03-28T14:52:41Z</time></trkpt><trkpt lat="43.66516644224353" lon="11.208765012405815"><ele>179.0</ele><time>2026-03-28T14:52:42Z</time></trkpt><trkpt lat="43.66536875709144" lon="11.208919422418376"><ele>176.0</ele><time>2026-03-28T14:52:43Z</time></trkpt><trkpt lat="43.66557308484303" lon="11.209060723622521"><ele>173.0</ele><time>2026-03-28T14:52:44Z</time></trkpt><trkpt lat="43.66577762199152" lon="11.209176957521217"><ele>173.0</ele><time>2026-03-28T14:52:45Z</time></trkpt><trkpt lat="43.66598579895065" lon="11.209278282785343"><ele>173.0</ele><time>2026-03-28T14:52:46Z</time></trkpt><trkpt lat="43.66619544590748" lon="11.20936455527956"><ele>173.0</ele><time>2026-03-28T14:52:47Z</time></trkpt><trkpt lat="43.66640723154672" lon="11.209435751178233"><ele>173.33333333333331</ele><time>2026-03-28T14:52:48Z</time></trkpt><trkpt lat="43.66662117152144" lon="11.209494496046577"><ele>173.66666666666666</ele><time>2026-03-28T14:52:49Z</time></trkpt><trkpt lat="43.66683042728895" lon="11.20953551808599"><ele>174.0</ele><time>2026-03-28T14:52:50Z</time></trkpt><trkpt lat="43.66703306368537" lon="11.209571758927318"><ele>172.33333333333334</ele><time>2026-03-28T14:52:51Z</time></trkpt><trkpt lat="43.66722522689754" lon="11.209604178207789"><ele>170.66666666666669</ele><time>2026-03-28T14:52:52Z</time></trkpt><trkpt lat="43.66741167545398" lon="11.209642114483266"><ele>169.0</ele><time>2026-03-28T14:52:53Z</time></trkpt><trkpt lat="43.667598743304644" lon="11.209687949843422"><ele>167.33333333333334</ele><time>2026-03-28T14:52:54Z</time></trkpt><trkpt lat="43.66778439403421" lon="11.209734952719195"><ele>165.66666666666666</ele><time>2026-03-28T14:52:55Z</time></trkpt><trkpt lat="43.66797089601637" lon="11.20977448039529"><ele>164.0</ele><time>2026-03-28T14:52:56Z</time></trkpt><trkpt lat="43.668159145197194" lon="11.20981009374682"><ele>161.33333333333331</ele><time>2026-03-28T14:52:57Z</time></trkpt><trkpt lat="43.66834812660979" lon="11.209844506158934"><ele>158.66666666666666</ele><time>2026-03-28T14:52:58Z</time></trkpt><trkpt lat="43.668544729314235" lon="11.209882141728286"><ele>156.0</ele><time>2026-03-28T14:52:59Z</time></trkpt><trkpt lat="43.66875025439228" lon="11.209922802108974"><ele>155.66666666666666</ele><time>2026-03-28T14:53:00Z</time></trkpt><trkpt lat="43.668958255397676" lon="11.209961546124923"><ele>155.33333333333331</ele><time>2026-03-28T14:53:01Z</time></trkpt><trkpt lat="43.669162394076814" lon="11.209996844975036"><ele>155.0</ele><time>2026-03-28T14:53:02Z</time></trkpt><trkpt lat="43.66936549706531" lon="11.210033016995341"><ele>154.66666666666666</ele><time>2026-03-28T14:53:03Z</time></trkpt><trkpt lat="43.669562330071074" lon="11.210077166744068"><ele>154.33333333333334</ele><time>2026-03-28T14:53:04Z</time></trkpt><trkpt lat="43.66975919554121" lon="11.210115347276693"><ele>154.0</ele><time>2026-03-28T14:53:05Z</time></trkpt><trkpt lat="43.669961351069276" lon="11.21015900528661"><ele>154.0</ele><time>2026-03-28T14:53:06Z</time></trkpt><trkpt lat="43.6701633105347" lon="11.21020129565612"><ele>154.0</ele><time>2026-03-28T14:53:07Z</time></trkpt><trkpt lat="43.670368371914805" lon="11.210240539396333"><ele>154.0</ele><time>2026-03-28T14:53:08Z</time></trkpt><trkpt lat="43.67057867239942" lon="11.21027750035823"><ele>154.0</ele><time>2026-03-28T14:53:09Z</time></trkpt><trkpt lat="43.67079565540086" lon="11.210313289626798"><ele>154.0</ele><time>2026-03-28T14:53:10Z</time></trkpt><trkpt lat="43.671025884979414" lon="11.210354426627894"><ele>155.0</ele><time>2026-03-28T14:53:11Z</time></trkpt><trkpt lat="43.67126282538116" lon="11.210392281126895"><ele>156.0</ele><time>2026-03-28T14:53:12Z</time></trkpt><trkpt lat="43.671490641562684" lon="11.210422737721228"><ele>156.0</ele><time>2026-03-28T14:53:13Z</time></trkpt><trkpt lat="43.67170619971713" lon="11.210439664264408"><ele>156.0</ele><time>2026-03-28T14:53:14Z</time></trkpt><trkpt lat="43.67192298175949" lon="11.210443670097195"><ele>156.0</ele><time>2026-03-28T14:53:15Z</time></trkpt><trkpt lat="43.67213986344245" lon="11.21043038560788"><ele>153.0</ele><time>2026-03-28T14:53:16Z</time></trkpt><trkpt lat="43.67234746178701" lon="11.210407627283685"><ele>150.0</ele><time>2026-03-28T14:53:17Z</time></trkpt><trkpt lat="43.67254542574126" lon="11.210388490018481"><ele>147.0</ele><time>2026-03-28T14:53:18Z</time></trkpt><trkpt lat="43.6727353078725" lon="11.210377311009104"><ele>147.0</ele><time>2026-03-28T14:53:19Z</time></trkpt><trkpt lat="43.672921057700115" lon="11.210366725048202"><ele>147.0</ele><time>2026-03-28T14:53:20Z</time></trkpt><trkpt lat="43.67310491075828" lon="11.210356003018024"><ele>147.0</ele><time>2026-03-28T14:53:21Z</time></trkpt><trkpt lat="43.67327891095973" lon="11.210348086399328"><ele>147.0</ele><time>2026-03-28T14:53:22Z</time></trkpt><trkpt lat="43.67344629868724" lon="11.210342470041297"><ele>147.0</ele><time>2026-03-28T14:53:23Z</time></trkpt><trkpt lat="43.67361612885399" lon="11.210333326972012"><ele>147.0</ele><time>2026-03-28T14:53:24Z</time></trkpt><trkpt lat="43.673797751370344" lon="11.21032039562724"><ele>146.33333333333334</ele><time>2026-03-28T14:53:25Z</time></trkpt><trkpt lat="43.67397324293503" lon="11.210303703216255"><ele>145.66666666666669</ele><time>2026-03-28T14:53:26Z</time></trkpt><trkpt lat="43.674139941459806" lon="11.21029651300618"><ele>145.0</ele><time>2026-03-28T14:53:27Z</time></trkpt><trkpt lat="43.674298222559585" lon="11.21029019324099"><ele>140.0</ele><time>2026-03-28T14:53:28Z</time></trkpt><trkpt lat="43.67444761686094" lon="11.210283052254523"><ele>135.0</ele><time>2026-03-28T14:53:29Z</time></trkpt><trkpt lat="43.674601505139954" lon="11.21028028072674"><ele>130.0</ele><time>2026-03-28T14:53:30Z</time></trkpt><trkpt lat="43.67474652844899" lon="11.210264080026407"><ele>125.0</ele><time>2026-03-28T14:53:31Z</time></trkpt><trkpt lat="43.67489405476526" lon="11.210252341045042"><ele>125.0</ele><time>2026-03-28T14:53:32Z</time></trkpt><trkpt lat="43.675042606394584" lon="11.210245775653092"><ele>125.0</ele><time>2026-03-28T14:53:33Z</time></trkpt><trkpt lat="43.675189592421255" lon="11.210241501483464"><ele>125.0</ele><time>2026-03-28T14:53:34Z</time></trkpt><trkpt lat="43.675339800944506" lon="11.210237145217608"><ele>125.0</ele><time>2026-03-28T14:53:35Z</time></trkpt><trkpt lat="43.67549029240924" lon="11.21022564667342"><ele>117.66666666666666</ele><time>2026-03-28T14:53:36Z</time></trkpt><trkpt lat="43.67564143592094" lon="11.210212623642423"><ele>110.33333333333334</ele><time>2026-03-28T14:53:37Z</time></trkpt><trkpt lat="43.675793621877986" lon="11.21020474270771"><ele>103.0</ele><time>2026-03-28T14:53:38Z</time></trkpt><trkpt lat="43.675948278956064" lon="11.210200289269462"><ele>103.33333333333334</ele><time>2026-03-28T14:53:39Z</time></trkpt><trkpt lat="43.676111254952076" lon="11.210199116025654"><ele>103.66666666666666</ele><time>2026-03-28T14:53:40Z</time></trkpt><trkpt lat="43.6762802628155" lon="11.210213008484743"><ele>104.0</ele><time>2026-03-28T14:53:41Z</time></trkpt><trkpt lat="43.676444950327806" lon="11.210239213675365"><ele>104.0</ele><time>2026-03-28T14:53:42Z</time></trkpt><trkpt lat="43.67661250113914" lon="11.210271056480428"><ele>104.0</ele><time>2026-03-28T14:53:43Z</time></trkpt><trkpt lat="43.67678727694594" lon="11.21031195450803"><ele>104.0</ele><time>2026-03-28T14:53:44Z</time></trkpt><trkpt lat="43.67696911870939" lon="11.210361703231179"><ele>104.66666666666666</ele><time>2026-03-28T14:53:45Z</time></trkpt><trkpt lat="43.6771531502127" lon="11.210421208000394"><ele>105.33333333333334</ele><time>2026-03-28T14:53:46Z</time></trkpt><trkpt lat="43.677331304216864" lon="11.210499241573524"><ele>106.0</ele><time>2026-03-28T14:53:47Z</time></trkpt><trkpt lat="43.67750679026151" lon="11.21058728525571"><ele>107.0</ele><time>2026-03-28T14:53:48Z</time></trkpt><trkpt lat="43.67768373730243" lon="11.210685782482154"><ele>108.0</ele><time>2026-03-28T14:53:49Z</time></trkpt><trkpt lat="43.67785383543568" lon="11.210792264930975"><ele>109.0</ele><time>2026-03-28T14:53:50Z</time></trkpt><trkpt lat="43.67802324515944" lon="11.210906810346495"><ele>109.0</ele><time>2026-03-28T14:53:51Z</time></trkpt><trkpt lat="43.67819116885006" lon="11.211023873839254"><ele>109.0</ele><time>2026-03-28T14:53:52Z</time></trkpt><trkpt lat="43.67835607283813" lon="11.211137721118606"><ele>109.0</ele><time>2026-03-28T14:53:53Z</time></trkpt><trkpt lat="43.67851641636843" lon="11.211244879188294"><ele>109.0</ele><time>2026-03-28T14:53:54Z</time></trkpt><trkpt lat="43.67867636886238" lon="11.211352877334605"><ele>109.0</ele><time>2026-03-28T14:53:55Z</time></trkpt><trkpt lat="43.67883252577654" lon="11.211462885732113"><ele>109.0</ele><time>2026-03-28T14:53:56Z</time></trkpt><trkpt lat="43.67898817844367" lon="11.211577739093242"><ele>109.0</ele><time>2026-03-28T14:53:57Z</time></trkpt><trkpt lat="43.679146048685986" lon="11.211685886892964"><ele>109.0</ele><time>2026-03-28T14:53:58Z</time></trkpt><trkpt lat="43.67931607355322" lon="11.211783523867956"><ele>109.0</ele><time>2026-03-28T14:53:59Z</time></trkpt><trkpt lat="43.67949399961785" lon="11.21187444802942"><ele>105.66666666666667</ele><time>2026-03-28T14:54:00Z</time></trkpt><trkpt lat="43.67967963520494" lon="11.211956800126632"><ele>102.33333333333334</ele><time>2026-03-28T14:54:01Z</time></trkpt><trkpt lat="43.67986704719369" lon="11.212028374267863"><ele>99.0</ele><time>2026-03-28T14:54:02Z</time></trkpt><trkpt lat="43.680054974394466" lon="11.212093127724057"><ele>99.0</ele><time>2026-03-28T14:54:03Z</time></trkpt><trkpt lat="43.6802418192373" lon="11.212142495870165"><ele>99.0</ele><time>2026-03-28T14:54:04Z</time></trkpt><trkpt lat="43.680428040576054" lon="11.212184092964755"><ele>99.0</ele><time>2026-03-28T14:54:05Z</time></trkpt><trkpt lat="43.68061467082503" lon="11.21221241827567"><ele>98.0</ele><time>2026-03-28T14:54:06Z</time></trkpt><trkpt lat="43.68080571764172" lon="11.212227462265256"><ele>97.0</ele><time>2026-03-28T14:54:07Z</time></trkpt><trkpt lat="43.681004881764515" lon="11.212233581637358"><ele>96.0</ele><time>2026-03-28T14:54:08Z</time></trkpt><trkpt lat="43.68121564984742" lon="11.212226477759504"><ele>96.0</ele><time>2026-03-28T14:54:09Z</time></trkpt><trkpt lat="43.6814231159444" lon="11.21220755908069"><ele>96.0</ele><time>2026-03-28T14:54:10Z</time></trkpt><trkpt lat="43.681623060283464" lon="11.212182945248315"><ele>96.0</ele><time>2026-03-28T14:54:11Z</time></trkpt><trkpt lat="43.6818228694444" lon="11.212142655032645"><ele>96.0</ele><time>2026-03-28T14:54:12Z</time></trkpt><trkpt lat="43.682021650321204" lon="11.212098434407384"><ele>96.0</ele><time>2026-03-28T14:54:13Z</time></trkpt><trkpt lat="43.682223580694696" lon="11.212056670568291"><ele>96.0</ele><time>2026-03-28T14:54:14Z</time></trkpt><trkpt lat="43.68243527573015" lon="11.212018497842765"><ele>96.0</ele><time>2026-03-28T14:54:15Z</time></trkpt><trkpt lat="43.68265580663945" lon="11.211983236929665"><ele>96.0</ele><time>2026-03-28T14:54:16Z</time></trkpt><trkpt lat="43.682890667940185" lon="11.211937997710901"><ele>98.0</ele><time>2026-03-28T14:54:17Z</time></trkpt><trkpt lat="43.683129233724756" lon="11.211886866690865"><ele>100.0</ele><time>2026-03-28T14:54:18Z</time></trkpt><trkpt lat="43.683374506346496" lon="11.211827963113226"><ele>106.0</ele><time>2026-03-28T14:54:19Z</time></trkpt><trkpt lat="43.68364423633531" lon="11.211759605532807"><ele>112.0</ele><time>2026-03-28T14:54:20Z</time></trkpt><trkpt lat="43.68393970834802" lon="11.21170143475003"><ele>112.0</ele><time>2026-03-28T14:54:21Z</time></trkpt><trkpt lat="43.68425698928184" lon="11.211644157673812"><ele>112.0</ele><time>2026-03-28T14:54:22Z</time></trkpt><trkpt lat="43.68458547538118" lon="11.211578916950035"><ele>112.0</ele><time>2026-03-28T14:54:23Z</time></trkpt><trkpt lat="43.68489056043311" lon="11.211514618020203"><ele>112.0</ele><time>2026-03-28T14:54:24Z</time></trkpt><trkpt lat="43.685177575351275" lon="11.21145610195432"><ele>121.0</ele><time>2026-03-28T14:54:25Z</time></trkpt><trkpt lat="43.685462512021196" lon="11.211404333431283"><ele>130.0</ele><time>2026-03-28T14:54:26Z</time></trkpt><trkpt lat="43.68575836898671" lon="11.211348624514734"><ele>130.0</ele><time>2026-03-28T14:54:27Z</time></trkpt><trkpt lat="43.68606234144993" lon="11.211293206625465"><ele>130.0</ele><time>2026-03-28T14:54:28Z</time></trkpt><trkpt lat="43.6863576930485" lon="11.21124063582748"><ele>123.5</ele><time>2026-03-28T14:54:29Z</time></trkpt><trkpt lat="43.68663761408878" lon="11.211191225981084"><ele>117.0</ele><time>2026-03-28T14:54:30Z</time></trkpt><trkpt lat="43.686905847978295" lon="11.211140078929803"><ele>112.5</ele><time>2026-03-28T14:54:31Z</time></trkpt><trkpt lat="43.687172345501935" lon="11.211109513660627"><ele>108.0</ele><time>2026-03-28T14:54:32Z</time></trkpt><trkpt lat="43.68744996808707" lon="11.211130527530358"><ele>108.0</ele><time>2026-03-28T14:54:33Z</time></trkpt><trkpt lat="43.68772830061396" lon="11.211203342800884"><ele>108.0</ele><time>2026-03-28T14:54:34Z</time></trkpt><trkpt lat="43.68801824318105" lon="11.211302608274664"><ele>101.5</ele><time>2026-03-28T14:54:35Z</time></trkpt><trkpt lat="43.68828750048825" lon="11.211198944825005"><ele>95.0</ele><time>2026-03-28T14:54:36Z</time></trkpt><trkpt lat="43.68857954220855" lon="11.211310528548292"><ele>94.0</ele><time>2026-03-28T14:54:37Z</time></trkpt><trkpt lat="43.68886443295807" lon="11.211463528026535"><ele>93.0</ele><time>2026-03-28T14:54:38Z</time></trkpt><trkpt lat="43.689138209248476" lon="11.211648678461245"><ele>93.0</ele><time>2026-03-28T14:54:39Z</time></trkpt><trkpt lat="43.68940553766039" lon="11.211858399690163"><ele>93.0</ele><time>2026-03-28T14:54:40Z</time></trkpt><trkpt lat="43.68965641750971" lon="11.212072595301274"><ele>92.5</ele><time>2026-03-28T14:54:41Z</time></trkpt><trkpt lat="43.68990479934137" lon="11.21226903169924"><ele>92.0</ele><time>2026-03-28T14:54:42Z</time></trkpt><trkpt lat="43.69014592268751" lon="11.212455214229141"><ele>93.0</ele><time>2026-03-28T14:54:43Z</time></trkpt><trkpt lat="43.690378455348366" lon="11.212629797100316"><ele>94.0</ele><time>2026-03-28T14:54:44Z</time></trkpt><trkpt lat="43.69062479562603" lon="11.21278036736279"><ele>94.0</ele><time>2026-03-28T14:54:45Z</time></trkpt><trkpt lat="43.69088220948006" lon="11.212899137761106"><ele>94.0</ele><time>2026-03-28T14:54:46Z</time></trkpt><trkpt lat="43.69114368358026" lon="11.212986186828914"><ele>93.0</ele><time>2026-03-28T14:54:47Z</time></trkpt><trkpt lat="43.69142361652638" lon="11.213051012661484"><ele>92.0</ele><time>2026-03-28T14:54:48Z</time></trkpt><trkpt lat="43.691708479429685" lon="11.213103578152145"><ele>91.5</ele><time>2026-03-28T14:54:49Z</time></trkpt><trkpt lat="43.6919945266983" lon="11.21312957629323"><ele>91.0</ele><time>2026-03-28T14:54:50Z</time></trkpt><trkpt lat="43.692286595908634" lon="11.213115317933111"><ele>91.0</ele><time>2026-03-28T14:54:51Z</time></trkpt><trkpt lat="43.69259573417674" lon="11.213065195962157"><ele>91.0</ele><time>2026-03-28T14:54:52Z</time></trkpt><trkpt lat="43.692920227192225" lon="11.212986238162388"><ele>94.0</ele><time>2026-03-28T14:54:53Z</time></trkpt><trkpt lat="43.69325843621947" lon="11.212862343745115"><ele>97.0</ele><time>2026-03-28T14:54:54Z</time></trkpt><trkpt lat="43.69361241870629" lon="11.212695236654994"><ele>97.5</ele><time>2026-03-28T14:54:55Z</time></trkpt><trkpt lat="43.693969437101444" lon="11.212509517543687"><ele>98.0</ele><time>2026-03-28T14:54:56Z</time></trkpt><trkpt lat="43.694303793512546" lon="11.21234372186119"><ele>95.0</ele><time>2026-03-28T14:54:57Z</time></trkpt><trkpt lat="43.69461916439023" lon="11.212197626800318"><ele>92.0</ele><time>2026-03-28T14:54:58Z</time></trkpt><trkpt lat="43.694930068123234" lon="11.212054835334312"><ele>92.0</ele><time>2026-03-28T14:54:59Z</time></trkpt><trkpt lat="43.69522213058814" lon="11.211910210112203"><ele>92.0</ele><time>2026-03-28T14:55:00Z</time></trkpt><trkpt lat="43.69551237075025" lon="11.211774618662407"><ele>94.5</ele><time>2026-03-28T14:55:01Z</time></trkpt><trkpt lat="43.69580493255513" lon="11.211653638265368"><ele>97.0</ele><time>2026-03-28T14:55:02Z</time></trkpt><trkpt lat="43.69610361929425" lon="11.211568373126658"><ele>97.0</ele><time>2026-03-28T14:55:03Z</time></trkpt><trkpt lat="43.6964032278495" lon="11.211524400397641"><ele>97.0</ele><time>2026-03-28T14:55:04Z</time></trkpt><trkpt lat="43.696696399172346" lon="11.211512371147315"><ele>95.0</ele><time>2026-03-28T14:55:05Z</time></trkpt><trkpt lat="43.69699355854725" lon="11.211535695858323"><ele>93.0</ele><time>2026-03-28T14:55:06Z</time></trkpt><trkpt lat="43.6972872724653" lon="11.211582898991875"><ele>93.0</ele><time>2026-03-28T14:55:07Z</time></trkpt><trkpt lat="43.69758745412643" lon="11.21166564951139"><ele>93.0</ele><time>2026-03-28T14:55:08Z</time></trkpt><trkpt lat="43.697890411113924" lon="11.211789435684116"><ele>91.0</ele><time>2026-03-28T14:55:09Z</time></trkpt><trkpt lat="43.69818443593953" lon="11.211943535017328"><ele>89.0</ele><time>2026-03-28T14:55:10Z</time></trkpt><trkpt lat="43.69847271207566" lon="11.212129799756777"><ele>89.0</ele><time>2026-03-28T14:55:11Z</time></trkpt><trkpt lat="43.69876459882277" lon="11.212362134681896"><ele>89.0</ele><time>2026-03-28T14:55:12Z</time></trkpt><trkpt lat="43.69906175375314" lon="11.21262733454076"><ele>89.0</ele><time>2026-03-28T14:55:13Z</time></trkpt><trkpt lat="43.69934243005756" lon="11.212884315844118"><ele>89.0</ele><time>2026-03-28T14:55:14Z</time></trkpt><trkpt lat="43.699604399771324" lon="11.21311910446193"><ele>87.5</ele><time>2026-03-28T14:55:15Z</time></trkpt><trkpt lat="43.69986461232484" lon="11.213331398509185"><ele>86.0</ele><time>2026-03-28T14:55:16Z</time></trkpt><trkpt lat="43.700129385847816" lon="11.213517876747064"><ele>86.0</ele><time>2026-03-28T14:55:17Z</time></trkpt><trkpt lat="43.70040013072391" lon="11.213687075951771"><ele>86.0</ele><time>2026-03-28T14:55:18Z</time></trkpt><trkpt lat="43.700695563692" lon="11.213831128637196"><ele>86.0</ele><time>2026-03-28T14:55:19Z</time></trkpt><trkpt lat="43.700999997952" lon="11.213947689910013"><ele>86.0</ele><time>2026-03-28T14:55:20Z</time></trkpt><trkpt lat="43.70132710466378" lon="11.214010835747324"><ele>86.5</ele><time>2026-03-28T14:55:21Z</time></trkpt><trkpt lat="43.70163415628116" lon="11.214067795062157"><ele>87.0</ele><time>2026-03-28T14:55:22Z</time></trkpt><trkpt lat="43.70193548913394" lon="11.214103708999703"><ele>87.0</ele><time>2026-03-28T14:55:23Z</time></trkpt><trkpt lat="43.702237751181435" lon="11.214113523803453"><ele>87.0</ele><time>2026-03-28T14:55:24Z</time></trkpt><trkpt lat="43.70254641378983" lon="11.214087444858336"><ele>92.0</ele><time>2026-03-28T14:55:25Z</time></trkpt><trkpt lat="43.70286057707014" lon="11.214036618445691"><ele>97.0</ele><time>2026-03-28T14:55:26Z</time></trkpt><trkpt lat="43.70318294910897" lon="11.21396648240749"><ele>97.0</ele><time>2026-03-28T14:55:27Z</time></trkpt><trkpt lat="43.70349490327807" lon="11.213901896786963"><ele>97.0</ele><time>2026-03-28T14:55:28Z</time></trkpt><trkpt lat="43.70380141911863" lon="11.213846693875922"><ele>123.0</ele><time>2026-03-28T14:55:29Z</time></trkpt><trkpt lat="43.7041103903848" lon="11.213791308906641"><ele>149.0</ele><time>2026-03-28T14:55:30Z</time></trkpt><trkpt lat="43.704434303871096" lon="11.213729790619324"><ele>156.0</ele><time>2026-03-28T14:55:31.025Z</time></trkpt><trkpt lat="43.70474839520694" lon="11.213668380014226"><ele>163.0</ele><time>2026-03-28T14:55:32.022Z</time></trkpt><trkpt lat="43.70507523705702" lon="11.213604912476258"><ele>149.0</ele><time>2026-03-28T14:55:33.022Z</time></trkpt><trkpt lat="43.705411921614186" lon="11.213541294022555"><ele>135.0</ele><time>2026-03-28T14:55:34.023Z</time></trkpt><trkpt lat="43.70575002422723" lon="11.213481263120876"><ele>135.0</ele><time>2026-03-28T14:55:35.024Z</time></trkpt><trkpt lat="43.706076522801354" lon="11.213423499273244"><ele>135.0</ele><time>2026-03-28T14:55:36.02Z</time></trkpt><trkpt lat="43.707421808544275" lon="11.213216688494397"><ele>107.5</ele><time>2026-03-28T14:55:41Z</time></trkpt><trkpt lat="43.707672566543465" lon="11.21314786662273"><ele>80.0</ele><time>2026-03-28T14:55:42Z</time></trkpt><trkpt lat="43.70793788782202" lon="11.213110411498127"><ele>77.5</ele><time>2026-03-28T14:55:43Z</time></trkpt><trkpt lat="43.70818822009284" lon="11.213083147412464"><ele>75.0</ele><time>2026-03-28T14:55:44Z</time></trkpt><trkpt lat="43.70845499104655" lon="11.213090801019693"><ele>74.5</ele><time>2026-03-28T14:55:45Z</time></trkpt><trkpt lat="43.708731066257485" lon="11.213124063648003"><ele>74.0</ele><time>2026-03-28T14:55:46Z</time></trkpt><trkpt lat="43.70901181028601" lon="11.213165093979569"><ele>73.5</ele><time>2026-03-28T14:55:47Z</time></trkpt><trkpt lat="43.70929245464994" lon="11.2132282694004"><ele>73.0</ele><time>2026-03-28T14:55:48Z</time></trkpt><trkpt lat="43.709566676882105" lon="11.21331615657358"><ele>73.0</ele><time>2026-03-28T14:55:49Z</time></trkpt><trkpt lat="43.70984272578911" lon="11.213423942469772"><ele>73.0</ele><time>2026-03-28T14:55:50Z</time></trkpt><trkpt lat="43.710116528055345" lon="11.213554992980091"><ele>72.5</ele><time>2026-03-28T14:55:51Z</time></trkpt><trkpt lat="43.710386195192015" lon="11.213717724917604"><ele>72.0</ele><time>2026-03-28T14:55:52Z</time></trkpt><trkpt lat="43.71065558452791" lon="11.213896330004232"><ele>72.0</ele><time>2026-03-28T14:55:53Z</time></trkpt><trkpt lat="43.71094135470037" lon="11.214086180434736"><ele>72.0</ele><time>2026-03-28T14:55:54Z</time></trkpt><trkpt lat="43.711229056780375" lon="11.21427209337142"><ele>73.5</ele><time>2026-03-28T14:55:55Z</time></trkpt><trkpt lat="43.71150348954022" lon="11.21444333866341"><ele>75.0</ele><time>2026-03-28T14:55:56Z</time></trkpt><trkpt lat="43.71177279909954" lon="11.214613424057378"><ele>74.0</ele><time>2026-03-28T14:55:57Z</time></trkpt><trkpt lat="43.71204297270363" lon="11.214781844001331"><ele>73.0</ele><time>2026-03-28T14:55:58Z</time></trkpt><trkpt lat="43.71231913448527" lon="11.21496025289966"><ele>73.0</ele><time>2026-03-28T14:55:59Z</time></trkpt><trkpt lat="43.712584646977255" lon="11.21514683044309"><ele>73.0</ele><time>2026-03-28T14:56:00Z</time></trkpt><trkpt lat="43.71283539456738" lon="11.21536945791065"><ele>71.5</ele><time>2026-03-28T14:56:01Z</time></trkpt><trkpt lat="43.713078091159765" lon="11.215629194051361"><ele>70.0</ele><time>2026-03-28T14:56:02Z</time></trkpt><trkpt lat="43.71330507626891" lon="11.215921718416189"><ele>70.0</ele><time>2026-03-28T14:56:03Z</time></trkpt><trkpt lat="43.713506524875974" lon="11.216221849259618"><ele>70.0</ele><time>2026-03-28T14:56:04Z</time></trkpt><trkpt lat="43.71369602804387" lon="11.21653130197166"><ele>72.5</ele><time>2026-03-28T14:56:05Z</time></trkpt><trkpt lat="43.71386338403344" lon="11.21685437545074"><ele>75.0</ele><time>2026-03-28T14:56:06Z</time></trkpt><trkpt lat="43.71400718223954" lon="11.217184679398663"><ele>73.5</ele><time>2026-03-28T14:56:07Z</time></trkpt><trkpt lat="43.71413800881593" lon="11.217503696867608"><ele>72.0</ele><time>2026-03-28T14:56:08Z</time></trkpt><trkpt lat="43.714253942637356" lon="11.217801447000301"><ele>72.0</ele><time>2026-03-28T14:56:09Z</time></trkpt><trkpt lat="43.714382360343386" lon="11.21809573723216"><ele>72.0</ele><time>2026-03-28T14:56:10Z</time></trkpt><trkpt lat="43.71452893980589" lon="11.218376027381366"><ele>77.5</ele><time>2026-03-28T14:56:11Z</time></trkpt><trkpt lat="43.71469210809636" lon="11.218625495383739"><ele>83.0</ele><time>2026-03-28T14:56:12Z</time></trkpt><trkpt lat="43.71487439341765" lon="11.218873601760805"><ele>84.5</ele><time>2026-03-28T14:56:13Z</time></trkpt><trkpt lat="43.71506843582717" lon="11.219118310805879"><ele>86.0</ele><time>2026-03-28T14:56:14Z</time></trkpt><trkpt lat="43.71526417769235" lon="11.219344873360935"><ele>86.0</ele><time>2026-03-28T14:56:15Z</time></trkpt><trkpt lat="43.71545778302439" lon="11.219543060185062"><ele>86.0</ele><time>2026-03-28T14:56:16Z</time></trkpt><trkpt lat="43.715645372765195" lon="11.219709829579681"><ele>84.33333333333334</ele><time>2026-03-28T14:56:17Z</time></trkpt><trkpt lat="43.715826099407494" lon="11.219853981895954"><ele>82.66666666666667</ele><time>2026-03-28T14:56:18Z</time></trkpt><trkpt lat="43.71600460488756" lon="11.21998261922081"><ele>81.0</ele><time>2026-03-28T14:56:19Z</time></trkpt><trkpt lat="43.71618949124609" lon="11.220085307134246"><ele>81.0</ele><time>2026-03-28T14:56:20Z</time></trkpt><trkpt lat="43.71637758705218" lon="11.220180987165664"><ele>81.0</ele><time>2026-03-28T14:56:21Z</time></trkpt><trkpt lat="43.71656353445654" lon="11.220262809044712"><ele>81.0</ele><time>2026-03-28T14:56:22Z</time></trkpt><trkpt lat="43.716754588353325" lon="11.220329454333474"><ele>82.33333333333333</ele><time>2026-03-28T14:56:23Z</time></trkpt><trkpt lat="43.71695188091001" lon="11.22037384553064"><ele>83.66666666666666</ele><time>2026-03-28T14:56:24Z</time></trkpt><trkpt lat="43.71714190039291" lon="11.220407846390117"><ele>85.0</ele><time>2026-03-28T14:56:25Z</time></trkpt><trkpt lat="43.71731844917816" lon="11.220429065974386"><ele>85.0</ele><time>2026-03-28T14:56:26Z</time></trkpt><trkpt lat="43.71748528342555" lon="11.22043884977051"><ele>85.0</ele><time>2026-03-28T14:56:27Z</time></trkpt><trkpt lat="43.71765269266819" lon="11.22043954483231"><ele>85.0</ele><time>2026-03-28T14:56:28Z</time></trkpt><trkpt lat="43.71781686539591" lon="11.220439478471977"><ele>84.33333333333333</ele><time>2026-03-28T14:56:29Z</time></trkpt><trkpt lat="43.71797725020753" lon="11.220440913191116"><ele>83.66666666666667</ele><time>2026-03-28T14:56:30Z</time></trkpt><trkpt lat="43.71812905853367" lon="11.220444792179723"><ele>83.0</ele><time>2026-03-28T14:56:31Z</time></trkpt><trkpt lat="43.71827655001518" lon="11.22044872586823"><ele>83.0</ele><time>2026-03-28T14:56:32Z</time></trkpt><trkpt lat="43.71843763698079" lon="11.220444901898478"><ele>83.0</ele><time>2026-03-28T14:56:33Z</time></trkpt><trkpt lat="43.71858794405078" lon="11.220454564448495"><ele>83.0</ele><time>2026-03-28T14:56:34Z</time></trkpt><trkpt lat="43.71871903361023" lon="11.220447419794654"><ele>83.0</ele><time>2026-03-28T14:56:35Z</time></trkpt><trkpt lat="43.718845961509174" lon="11.220445256629896"><ele>82.0</ele><time>2026-03-28T14:56:36Z</time></trkpt><trkpt lat="43.71897200513249" lon="11.220448054218439"><ele>81.0</ele><time>2026-03-28T14:56:37Z</time></trkpt><trkpt lat="43.71908875166612" lon="11.220448221974255"><ele>80.0</ele><time>2026-03-28T14:56:38Z</time></trkpt><trkpt lat="43.71920003771421" lon="11.220454670984143"><ele>79.0</ele><time>2026-03-28T14:56:39Z</time></trkpt><trkpt lat="43.71930341906178" lon="11.220473245786183"><ele>78.0</ele><time>2026-03-28T14:56:40Z</time></trkpt><trkpt lat="43.719412948050696" lon="11.220520174990538"><ele>77.0</ele><time>2026-03-28T14:56:41Z</time></trkpt><trkpt lat="43.71951675705018" lon="11.220575662570537"><ele>76.0</ele><time>2026-03-28T14:56:42Z</time></trkpt><trkpt lat="43.71959726227112" lon="11.220649481454727"><ele>75.0</ele><time>2026-03-28T14:56:43Z</time></trkpt><trkpt lat="43.719678763136045" lon="11.2207579729409"><ele>74.0</ele><time>2026-03-28T14:56:44Z</time></trkpt><trkpt lat="43.719736556408144" lon="11.220868065903725"><ele>72.4</ele><time>2026-03-28T14:56:45Z</time></trkpt><trkpt lat="43.719781478450884" lon="11.220959203569453"><ele>70.80000000000001</ele><time>2026-03-28T14:56:46Z</time></trkpt><trkpt lat="43.71981720560589" lon="11.221076767599877"><ele>69.19999999999999</ele><time>2026-03-28T14:56:47Z</time></trkpt><trkpt lat="43.719846580304825" lon="11.221204657709032"><ele>67.6</ele><time>2026-03-28T14:56:48Z</time></trkpt><trkpt lat="43.71986255400764" lon="11.221340045610978"><ele>66.0</ele><time>2026-03-28T14:56:49Z</time></trkpt><trkpt lat="43.719869610359936" lon="11.221482132055463"><ele>65.5</ele><time>2026-03-28T14:56:50Z</time></trkpt><trkpt lat="43.719873268257146" lon="11.221638505240742"><ele>65.0</ele><time>2026-03-28T14:56:51Z</time></trkpt><trkpt lat="43.71987095278913" lon="11.221804864276933"><ele>64.5</ele><time>2026-03-28T14:56:52Z</time></trkpt><trkpt lat="43.71986907220076" lon="11.221956590248173"><ele>64.0</ele><time>2026-03-28T14:56:53Z</time></trkpt><trkpt lat="43.719870537809186" lon="11.222107077965944"><ele>64.0</ele><time>2026-03-28T14:56:54Z</time></trkpt><trkpt lat="43.71987066851908" lon="11.222258986650042"><ele>64.0</ele><time>2026-03-28T14:56:55Z</time></trkpt><trkpt lat="43.719870215400626" lon="11.222415353632801"><ele>64.0</ele><time>2026-03-28T14:56:56Z</time></trkpt><trkpt lat="43.71986754201258" lon="11.222562698280331"><ele>64.0</ele><time>2026-03-28T14:56:57Z</time></trkpt><trkpt lat="43.719866501223734" lon="11.222699037853921"><ele>64.0</ele><time>2026-03-28T14:56:58Z</time></trkpt><trkpt lat="43.71986634953544" lon="11.222839577113778"><ele>63.99999999999999</ele><time>2026-03-28T14:56:59Z</time></trkpt><trkpt lat="43.71986199766409" lon="11.222974370581538"><ele>64.0</ele><time>2026-03-28T14:57:00Z</time></trkpt><trkpt lat="43.71985724119899" lon="11.223100551313062"><ele>64.0</ele><time>2026-03-28T14:57:01Z</time></trkpt><trkpt lat="43.719860695096834" lon="11.223219458686328"><ele>64.0</ele><time>2026-03-28T14:57:02Z</time></trkpt><trkpt lat="43.719880497206034" lon="11.223328366386095"><ele>63.99999999999999</ele><time>2026-03-28T14:57:03Z</time></trkpt><trkpt lat="43.71992335762963" lon="11.223422822250525"><ele>64.0</ele><time>2026-03-28T14:57:04Z</time></trkpt><trkpt lat="43.719987497515476" lon="11.223489008162957"><ele>64.60000000000001</ele><time>2026-03-28T14:57:05Z</time></trkpt><trkpt lat="43.72007855080022" lon="11.223506421839136"><ele>65.2</ele><time>2026-03-28T14:57:06Z</time></trkpt><trkpt lat="43.72017392629827" lon="11.223473752560352"><ele>65.80000000000001</ele><time>2026-03-28T14:57:07Z</time></trkpt><trkpt lat="43.72027159770412" lon="11.223390276947184"><ele>66.4</ele><time>2026-03-28T14:57:08Z</time></trkpt><trkpt lat="43.72035106061033" lon="11.223274988118133"><ele>67.0</ele><time>2026-03-28T14:57:09Z</time></trkpt><trkpt lat="43.72044144077133" lon="11.223174856613758"><ele>66.8</ele><time>2026-03-28T14:57:10Z</time></trkpt><trkpt lat="43.72054348346696" lon="11.223106083479571"><ele>66.6</ele><time>2026-03-28T14:57:11Z</time></trkpt><trkpt lat="43.7206448264983" lon="11.223033325712324"><ele>66.39999999999999</ele><time>2026-03-28T14:57:12Z</time></trkpt><trkpt lat="43.7207600545119" lon="11.223009610230472"><ele>66.2</ele><time>2026-03-28T14:57:13Z</time></trkpt><trkpt lat="43.72084756468849" lon="11.222960542954297"><ele>66.0</ele><time>2026-03-28T14:57:14Z</time></trkpt><trkpt lat="43.7209185526517" lon="11.222920739640292"><ele>66.0</ele><time>2026-03-28T14:57:15Z</time></trkpt><trkpt lat="43.72098315085375" lon="11.222882308287707"><ele>66.0</ele><time>2026-03-28T14:57:16Z</time></trkpt><trkpt lat="43.72104538807478" lon="11.22284473367564"><ele>66.0</ele><time>2026-03-28T14:57:17Z</time></trkpt><trkpt lat="43.72114276277514" lon="11.222785945598895"><ele>66.0</ele><time>2026-03-28T14:57:19Z</time></trkpt><trkpt lat="43.72123476459339" lon="11.22271770858037"><ele>66.0</ele><time>2026-03-28T14:57:21Z</time></trkpt><trkpt lat="43.721315725711506" lon="11.22267779231628"><ele>66.0</ele><time>2026-03-28T14:57:23Z</time></trkpt><trkpt lat="43.72137777650182" lon="11.222646541796378"><ele>66.0</ele><time>2026-03-28T14:57:24Z</time></trkpt><trkpt lat="43.72145301119273" lon="11.222608090594111"><ele>66.0</ele><time>2026-03-28T14:57:25Z</time></trkpt><trkpt lat="43.72154122396274" lon="11.222556538751409"><ele>66.0</ele><time>2026-03-28T14:57:26Z</time></trkpt><trkpt lat="43.721655442818864" lon="11.222487011352333"><ele>66.0</ele><time>2026-03-28T14:57:27Z</time></trkpt><trkpt lat="43.72178239713134" lon="11.222413245768093"><ele>66.0</ele><time>2026-03-28T14:57:28Z</time></trkpt><trkpt lat="43.72191764703469" lon="11.222379221514469"><ele>66.5</ele><time>2026-03-28T14:57:29Z</time></trkpt><trkpt lat="43.72201250523927" lon="11.2222594615784"><ele>67.0</ele><time>2026-03-28T14:57:30Z</time></trkpt><trkpt lat="43.722125461815025" lon="11.222173080644174"><ele>67.5</ele><time>2026-03-28T14:57:31Z</time></trkpt><trkpt lat="43.72227742283652" lon="11.222124413714694"><ele>68.0</ele><time>2026-03-28T14:57:32Z</time></trkpt><trkpt lat="43.72243751676886" lon="11.222064808613778"><ele>68.0</ele><time>2026-03-28T14:57:33Z</time></trkpt><trkpt lat="43.72259534758418" lon="11.22201296904674"><ele>68.0</ele><time>2026-03-28T14:57:34Z</time></trkpt><trkpt lat="43.722755320818244" lon="11.221978910638066"><ele>68.0</ele><time>2026-03-28T14:57:35Z</time></trkpt><trkpt lat="43.72292235251098" lon="11.221974785173552"><ele>70.33333333333334</ele><time>2026-03-28T14:57:36Z</time></trkpt><trkpt lat="43.72310916203228" lon="11.221985425327142"><ele>72.66666666666667</ele><time>2026-03-28T14:57:37Z</time></trkpt><trkpt lat="43.72331307939678" lon="11.22201060884135"><ele>75.0</ele><time>2026-03-28T14:57:38Z</time></trkpt><trkpt lat="43.723505551961225" lon="11.222039526636054"><ele>75.33333333333333</ele><time>2026-03-28T14:57:39Z</time></trkpt><trkpt lat="43.72367106004727" lon="11.22207433129114"><ele>75.66666666666666</ele><time>2026-03-28T14:57:40Z</time></trkpt><trkpt lat="43.72382553904351" lon="11.222092629100137"><ele>76.0</ele><time>2026-03-28T14:57:41Z</time></trkpt><trkpt lat="43.7239610471424" lon="11.222122009349524"><ele>76.0</ele><time>2026-03-28T14:57:42Z</time></trkpt><trkpt lat="43.72407552813162" lon="11.22213639893247"><ele>76.0</ele><time>2026-03-28T14:57:43Z</time></trkpt><trkpt lat="43.724198564945986" lon="11.222249279282286"><ele>76.0</ele><time>2026-03-28T14:57:44Z</time></trkpt><trkpt lat="43.72426149951498" lon="11.22239535602179"><ele>76.0</ele><time>2026-03-28T14:57:45Z</time></trkpt><trkpt lat="43.72427557372428" lon="11.222548877308114"><ele>74.5</ele><time>2026-03-28T14:57:46Z</time></trkpt><trkpt lat="43.72424295869272" lon="11.22270622186932"><ele>73.0</ele><time>2026-03-28T14:57:47Z</time></trkpt><trkpt lat="43.72417432663151" lon="11.22283346502196"><ele>71.5</ele><time>2026-03-28T14:57:48Z</time></trkpt><trkpt lat="43.72407746233026" lon="11.222907392691843"><ele>70.0</ele><time>2026-03-28T14:57:49Z</time></trkpt><trkpt lat="43.72397197802632" lon="11.222931688310215"><ele>70.0</ele><time>2026-03-28T14:57:50Z</time></trkpt><trkpt lat="43.72386141745013" lon="11.22289680859302"><ele>70.0</ele><time>2026-03-28T14:57:51Z</time></trkpt><trkpt lat="43.72377269667953" lon="11.222798466279468"><ele>70.0</ele><time>2026-03-28T14:57:52Z</time></trkpt><trkpt lat="43.72372458811801" lon="11.222653021817747"><ele>70.0</ele><time>2026-03-28T14:57:53Z</time></trkpt><trkpt lat="43.72370259534921" lon="11.222479529486968"><ele>72.0</ele><time>2026-03-28T14:57:54Z</time></trkpt><trkpt lat="43.72371608663845" lon="11.222290295538464"><ele>74.0</ele><time>2026-03-28T14:57:55Z</time></trkpt><trkpt lat="43.7237598425451" lon="11.222081119410939"><ele>76.0</ele><time>2026-03-28T14:57:56Z</time></trkpt><trkpt lat="43.72383472632216" lon="11.221874485423866"><ele>76.0</ele><time>2026-03-28T14:57:57Z</time></trkpt><trkpt lat="43.723934449074854" lon="11.221657925097428"><ele>76.0</ele><time>2026-03-28T14:57:58Z</time></trkpt><trkpt lat="43.72404073957416" lon="11.221418320691416"><ele>76.0</ele><time>2026-03-28T14:57:59Z</time></trkpt><trkpt lat="43.72416544094641" lon="11.221154349842266"><ele>75.0</ele><time>2026-03-28T14:58:00Z</time></trkpt><trkpt lat="43.72432725584996" lon="11.22084398767798"><ele>74.0</ele><time>2026-03-28T14:58:01Z</time></trkpt><trkpt lat="43.72454020281546" lon="11.220537285089671"><ele>74.0</ele><time>2026-03-28T14:58:02Z</time></trkpt><trkpt lat="43.72474401549725" lon="11.220177574297239"><ele>74.0</ele><time>2026-03-28T14:58:03Z</time></trkpt><trkpt lat="43.72495645329139" lon="11.21980146773476"><ele>79.5</ele><time>2026-03-28T14:58:04Z</time></trkpt><trkpt lat="43.725051247113505" lon="11.219493036317024"><ele>85.0</ele><time>2026-03-28T14:58:05Z</time></trkpt><trkpt lat="43.725228130931235" lon="11.219188322782616"><ele>86.5</ele><time>2026-03-28T14:58:06Z</time></trkpt><trkpt lat="43.72539810259832" lon="11.218896040720177"><ele>88.0</ele><time>2026-03-28T14:58:07Z</time></trkpt><trkpt lat="43.725563981495334" lon="11.218605542578665"><ele>88.0</ele><time>2026-03-28T14:58:08Z</time></trkpt><trkpt lat="43.725727991604" lon="11.218302948429708"><ele>88.0</ele><time>2026-03-28T14:58:09Z</time></trkpt><trkpt lat="43.72588016050118" lon="11.218020257351888"><ele>90.5</ele><time>2026-03-28T14:58:10Z</time></trkpt><trkpt lat="43.72602554098057" lon="11.217749001299508"><ele>93.0</ele><time>2026-03-28T14:58:11Z</time></trkpt><trkpt lat="43.72617506213352" lon="11.217468436174405"><ele>88.0</ele><time>2026-03-28T14:58:12Z</time></trkpt><trkpt lat="43.72632443722916" lon="11.217188475155194"><ele>83.0</ele><time>2026-03-28T14:58:13Z</time></trkpt><trkpt lat="43.72645750138496" lon="11.216870244234267"><ele>83.0</ele><time>2026-03-28T14:58:14Z</time></trkpt><trkpt lat="43.726513470818155" lon="11.216511754445303"><ele>83.0</ele><time>2026-03-28T14:58:15Z</time></trkpt><trkpt lat="43.726585071444845" lon="11.216186662857748"><ele>86.0</ele><time>2026-03-28T14:58:16Z</time></trkpt><trkpt lat="43.72666079524558" lon="11.215844183133246"><ele>89.0</ele><time>2026-03-28T14:58:17Z</time></trkpt><trkpt lat="43.72672615642105" lon="11.215502828427251"><ele>91.5</ele><time>2026-03-28T14:58:18Z</time></trkpt><trkpt lat="43.726779832501066" lon="11.215146584546787"><ele>94.0</ele><time>2026-03-28T14:58:19Z</time></trkpt><trkpt lat="43.726821575409296" lon="11.214769666531225"><ele>94.5</ele><time>2026-03-28T14:58:20Z</time></trkpt><trkpt lat="43.72684785197563" lon="11.214357294650236"><ele>95.0</ele><time>2026-03-28T14:58:21Z</time></trkpt><trkpt lat="43.72686443992406" lon="11.213910484295932"><ele>95.5</ele><time>2026-03-28T14:58:22Z</time></trkpt><trkpt lat="43.72688992466447" lon="11.21344104208001"><ele>96.0</ele><time>2026-03-28T14:58:23Z</time></trkpt><trkpt lat="43.72692516879221" lon="11.212947610242042"><ele>104.0</ele><time>2026-03-28T14:58:24Z</time></trkpt><trkpt lat="43.726962201735304" lon="11.212436395535628"><ele>112.0</ele><time>2026-03-28T14:58:25Z</time></trkpt><trkpt lat="43.72700079486329" lon="11.211905716063711"><ele>111.0</ele><time>2026-03-28T14:58:26Z</time></trkpt><trkpt lat="43.72703658412834" lon="11.211356353783248"><ele>110.0</ele><time>2026-03-28T14:58:27Z</time></trkpt><trkpt lat="43.72706279902659" lon="11.210814292047013"><ele>112.5</ele><time>2026-03-28T14:58:28Z</time></trkpt><trkpt lat="43.727092126167115" lon="11.210336496168074"><ele>115.0</ele><time>2026-03-28T14:58:29Z</time></trkpt><trkpt lat="43.727122947309745" lon="11.209882840274993"><ele>114.0</ele><time>2026-03-28T14:58:30Z</time></trkpt><trkpt lat="43.72715413882994" lon="11.209448685893177"><ele>113.0</ele><time>2026-03-28T14:58:31Z</time></trkpt><trkpt lat="43.727181764439266" lon="11.209035484289142"><ele>112.5</ele><time>2026-03-28T14:58:32Z</time></trkpt><trkpt lat="43.727206372079685" lon="11.20862221263505"><ele>112.0</ele><time>2026-03-28T14:58:33Z</time></trkpt><trkpt lat="43.72723283791471" lon="11.208231525946868"><ele>113.5</ele><time>2026-03-28T14:58:34Z</time></trkpt><trkpt lat="43.72725587505676" lon="11.207875307914263"><ele>115.0</ele><time>2026-03-28T14:58:35Z</time></trkpt><trkpt lat="43.72728163357571" lon="11.20754389462866"><ele>116.33333333333334</ele><time>2026-03-28T14:58:36Z</time></trkpt><trkpt lat="43.72730560016106" lon="11.207225215614887"><ele>117.66666666666666</ele><time>2026-03-28T14:58:37Z</time></trkpt><trkpt lat="43.72732753190061" lon="11.206925130807493"><ele>119.0</ele><time>2026-03-28T14:58:38Z</time></trkpt><trkpt lat="43.72735521021954" lon="11.206627076823915"><ele>120.33333333333333</ele><time>2026-03-28T14:58:39Z</time></trkpt><trkpt lat="43.727397106466675" lon="11.206331836688213"><ele>121.66666666666666</ele><time>2026-03-28T14:58:40Z</time></trkpt><trkpt lat="43.727449073426236" lon="11.206041656629258"><ele>123.0</ele><time>2026-03-28T14:58:41Z</time></trkpt><trkpt lat="43.727527157094826" lon="11.205762228490723"><ele>126.66666666666666</ele><time>2026-03-28T14:58:42Z</time></trkpt><trkpt lat="43.72760945560127" lon="11.205483761159154"><ele>130.33333333333331</ele><time>2026-03-28T14:58:43Z</time></trkpt><trkpt lat="43.72769658358026" lon="11.20520287335449"><ele>134.0</ele><time>2026-03-28T14:58:44Z</time></trkpt><trkpt lat="43.727779449725716" lon="11.20491568035684"><ele>140.33333333333331</ele><time>2026-03-28T14:58:45.026Z</time></trkpt><trkpt lat="43.72785209793214" lon="11.204637732784894"><ele>146.66666666666666</ele><time>2026-03-28T14:58:46.025Z</time></trkpt><trkpt lat="43.727929468380744" lon="11.20436150107845"><ele>153.0</ele><time>2026-03-28T14:58:47.022Z</time></trkpt><trkpt lat="43.72802192563977" lon="11.204074446410608"><ele>155.5</ele><time>2026-03-28T14:58:48.018Z</time></trkpt><trkpt lat="43.728106955421524" lon="11.203790355990987"><ele>158.0</ele><time>2026-03-28T14:58:49.022Z</time></trkpt><trkpt lat="43.728936173655825" lon="11.201183995440232"><ele>115.0</ele><time>2026-03-28T14:59:00.338Z</time></trkpt><trkpt lat="43.730698102194566" lon="11.199603136639297"><ele>115.0</ele><time>2026-03-28T14:59:06Z</time></trkpt><trkpt lat="43.73080974188803" lon="11.199310802906467"><ele>115.0</ele><time>2026-03-28T14:59:07Z</time></trkpt><trkpt lat="43.730910284095174" lon="11.198996269099661"><ele>112.5</ele><time>2026-03-28T14:59:08Z</time></trkpt><trkpt lat="43.730975188820146" lon="11.198676876432968"><ele>110.0</ele><time>2026-03-28T14:59:09Z</time></trkpt><trkpt lat="43.73102056627558" lon="11.198357628929852"><ele>108.5</ele><time>2026-03-28T14:59:10Z</time></trkpt><trkpt lat="43.7310550997337" lon="11.198028604684204"><ele>107.0</ele><time>2026-03-28T14:59:11Z</time></trkpt><trkpt lat="43.731075735664945" lon="11.19768995576241"><ele>109.5</ele><time>2026-03-28T14:59:12Z</time></trkpt><trkpt lat="43.731077710498695" lon="11.197332061207153"><ele>112.0</ele><time>2026-03-28T14:59:13Z</time></trkpt><trkpt lat="43.731066131987696" lon="11.196955490550017"><ele>108.0</ele><time>2026-03-28T14:59:14Z</time></trkpt><trkpt lat="43.73104518087637" lon="11.196565160755275"><ele>104.0</ele><time>2026-03-28T14:59:15Z</time></trkpt><trkpt lat="43.73102793246808" lon="11.1961657813083"><ele>101.5</ele><time>2026-03-28T14:59:16Z</time></trkpt><trkpt lat="43.73101516499578" lon="11.195742546430036"><ele>99.0</ele><time>2026-03-28T14:59:17Z</time></trkpt><trkpt lat="43.731004807066064" lon="11.195312585083768"><ele>97.0</ele><time>2026-03-28T14:59:18Z</time></trkpt><trkpt lat="43.73099833964361" lon="11.194840094545944"><ele>95.0</ele><time>2026-03-28T14:59:19Z</time></trkpt><trkpt lat="43.7309860865653" lon="11.194417398308307"><ele>93.0</ele><time>2026-03-28T14:59:20Z</time></trkpt><trkpt lat="43.73097361925608" lon="11.193985993874614"><ele>91.0</ele><time>2026-03-28T14:59:21Z</time></trkpt><trkpt lat="43.73096151539204" lon="11.193520815074637"><ele>89.5</ele><time>2026-03-28T14:59:22Z</time></trkpt><trkpt lat="43.730961309799376" lon="11.193067164895785"><ele>88.0</ele><time>2026-03-28T14:59:23Z</time></trkpt><trkpt lat="43.730987402520455" lon="11.192613940926671"><ele>87.0</ele><time>2026-03-28T14:59:24Z</time></trkpt><trkpt lat="43.731036892714016" lon="11.192162346413445"><ele>86.0</ele><time>2026-03-28T14:59:25Z</time></trkpt><trkpt lat="43.731131037818535" lon="11.191704803690651"><ele>94.0</ele><time>2026-03-28T14:59:26Z</time></trkpt><trkpt lat="43.7312460023972" lon="11.191255608974915"><ele>102.0</ele><time>2026-03-28T14:59:27Z</time></trkpt><trkpt lat="43.73139450789708" lon="11.1908125161812"><ele>97.5</ele><time>2026-03-28T14:59:28Z</time></trkpt><trkpt lat="43.73157405026537" lon="11.190395515584948"><ele>93.0</ele><time>2026-03-28T14:59:29Z</time></trkpt><trkpt lat="43.73176942030443" lon="11.190009739221193"><ele>93.5</ele><time>2026-03-28T14:59:30Z</time></trkpt><trkpt lat="43.73196846248263" lon="11.189637332260787"><ele>94.0</ele><time>2026-03-28T14:59:31Z</time></trkpt><trkpt lat="43.732184631854246" lon="11.189290073085152"><ele>87.5</ele><time>2026-03-28T14:59:32Z</time></trkpt><trkpt lat="43.73241469628384" lon="11.18897055599842"><ele>81.0</ele><time>2026-03-28T14:59:33Z</time></trkpt><trkpt lat="43.7326557613825" lon="11.188709120511716"><ele>83.5</ele><time>2026-03-28T14:59:34Z</time></trkpt><trkpt lat="43.73290118533479" lon="11.18847014386828"><ele>86.0</ele><time>2026-03-28T14:59:35Z</time></trkpt><trkpt lat="43.733153550044364" lon="11.188268161454188"><ele>81.5</ele><time>2026-03-28T14:59:36Z</time></trkpt><trkpt lat="43.73340540539847" lon="11.18808989589102"><ele>77.0</ele><time>2026-03-28T14:59:37Z</time></trkpt><trkpt lat="43.733659179104" lon="11.187935479339965"><ele>77.0</ele><time>2026-03-28T14:59:38Z</time></trkpt><trkpt lat="43.733916514410794" lon="11.187778161851348"><ele>77.0</ele><time>2026-03-28T14:59:39Z</time></trkpt><trkpt lat="43.734181216293216" lon="11.18762314459998"><ele>76.0</ele><time>2026-03-28T14:59:40Z</time></trkpt><trkpt lat="43.73445077829204" lon="11.187475480744292"><ele>75.0</ele><time>2026-03-28T14:59:41Z</time></trkpt><trkpt lat="43.734710289440365" lon="11.187331184898321"><ele>78.0</ele><time>2026-03-28T14:59:42Z</time></trkpt><trkpt lat="43.73496628418527" lon="11.18718179368094"><ele>81.0</ele><time>2026-03-28T14:59:43Z</time></trkpt><trkpt lat="43.73522237216766" lon="11.187027452885705"><ele>81.0</ele><time>2026-03-28T14:59:44Z</time></trkpt><trkpt lat="43.73548076520233" lon="11.186877525683775"><ele>81.0</ele><time>2026-03-28T14:59:45Z</time></trkpt><trkpt lat="43.73574398663034" lon="11.186733025949428"><ele>81.0</ele><time>2026-03-28T14:59:46Z</time></trkpt><trkpt lat="43.736007503480266" lon="11.186585987596246"><ele>81.0</ele><time>2026-03-28T14:59:47Z</time></trkpt><trkpt lat="43.736271043649744" lon="11.186432020835888"><ele>83.5</ele><time>2026-03-28T14:59:48Z</time></trkpt><trkpt lat="43.736534796943324" lon="11.186273365747963"><ele>86.0</ele><time>2026-03-28T14:59:49Z</time></trkpt><trkpt lat="43.736792655061514" lon="11.186111112742868"><ele>80.5</ele><time>2026-03-28T14:59:50Z</time></trkpt><trkpt lat="43.7370425435162" lon="11.185935753267838"><ele>75.0</ele><time>2026-03-28T14:59:51Z</time></trkpt><trkpt lat="43.737288856719864" lon="11.18574570943734"><ele>76.5</ele><time>2026-03-28T14:59:52Z</time></trkpt><trkpt lat="43.73754026861576" lon="11.185529659220816"><ele>78.0</ele><time>2026-03-28T14:59:53Z</time></trkpt><trkpt lat="43.73780598592836" lon="11.185297794435492"><ele>75.5</ele><time>2026-03-28T14:59:54Z</time></trkpt><trkpt lat="43.73807073255144" lon="11.18506444134786"><ele>73.0</ele><time>2026-03-28T14:59:55Z</time></trkpt><trkpt lat="43.73833417476663" lon="11.184821152290388"><ele>69.0</ele><time>2026-03-28T14:59:56Z</time></trkpt><trkpt lat="43.738597506577804" lon="11.18457385738222"><ele>65.0</ele><time>2026-03-28T14:59:57Z</time></trkpt><trkpt lat="43.73888006537951" lon="11.184311684084893"><ele>65.0</ele><time>2026-03-28T14:59:58Z</time></trkpt><trkpt lat="43.739181727059524" lon="11.184035520431207"><ele>65.0</ele><time>2026-03-28T14:59:59Z</time></trkpt><trkpt lat="43.73949979841143" lon="11.183750679840935"><ele>64.0</ele><time>2026-03-28T15:00:00Z</time></trkpt><trkpt lat="43.73982823203139" lon="11.183460815091856"><ele>63.0</ele><time>2026-03-28T15:00:01Z</time></trkpt><trkpt lat="43.74016754196723" lon="11.183151556685244"><ele>63.0</ele><time>2026-03-28T15:00:02Z</time></trkpt><trkpt lat="43.74049714067384" lon="11.182773348060042"><ele>63.0</ele><time>2026-03-28T15:00:03Z</time></trkpt><trkpt lat="43.74084572524487" lon="11.182407883662204"><ele>61.0</ele><time>2026-03-28T15:00:04Z</time></trkpt><trkpt lat="43.741232640539536" lon="11.18215063178078"><ele>59.0</ele><time>2026-03-28T15:00:05Z</time></trkpt><trkpt lat="43.741571292230276" lon="11.181847924051668"><ele>58.0</ele><time>2026-03-28T15:00:06Z</time></trkpt><trkpt lat="43.741914160375984" lon="11.181521134262592"><ele>57.0</ele><time>2026-03-28T15:00:07Z</time></trkpt><trkpt lat="43.7422270328496" lon="11.181233204350878"><ele>57.0</ele><time>2026-03-28T15:00:08Z</time></trkpt><trkpt lat="43.742527655000465" lon="11.180954239373612"><ele>57.0</ele><time>2026-03-28T15:00:09Z</time></trkpt><trkpt lat="43.74281093178318" lon="11.180684108474688"><ele>57.5</ele><time>2026-03-28T15:00:10Z</time></trkpt><trkpt lat="43.74307420705906" lon="11.180405348411588"><ele>58.0</ele><time>2026-03-28T15:00:11Z</time></trkpt><trkpt lat="43.743332157566094" lon="11.180099003608348"><ele>57.5</ele><time>2026-03-28T15:00:12Z</time></trkpt><trkpt lat="43.74356724496466" lon="11.17976286129404"><ele>57.0</ele><time>2026-03-28T15:00:13Z</time></trkpt><trkpt lat="43.7437820199812" lon="11.17941833539188"><ele>57.0</ele><time>2026-03-28T15:00:14Z</time></trkpt><trkpt lat="43.7439695340704" lon="11.179034172321415"><ele>57.0</ele><time>2026-03-28T15:00:15Z</time></trkpt><trkpt lat="43.74414373424489" lon="11.17860312562535"><ele>57.5</ele><time>2026-03-28T15:00:16Z</time></trkpt><trkpt lat="43.74430465075126" lon="11.178148272810503"><ele>58.0</ele><time>2026-03-28T15:00:17Z</time></trkpt><trkpt lat="43.74444946777688" lon="11.177656868605562"><ele>58.5</ele><time>2026-03-28T15:00:18Z</time></trkpt><trkpt lat="43.74459777311869" lon="11.177167504798211"><ele>59.0</ele><time>2026-03-28T15:00:19Z</time></trkpt><trkpt lat="43.744729061285355" lon="11.1766747033803"><ele>56.5</ele><time>2026-03-28T15:00:20Z</time></trkpt><trkpt lat="43.74487165352005" lon="11.176234628011127"><ele>54.0</ele><time>2026-03-28T15:00:21Z</time></trkpt><trkpt lat="43.7450125159785" lon="11.175817433790385"><ele>53.5</ele><time>2026-03-28T15:00:22Z</time></trkpt><trkpt lat="43.745159863217374" lon="11.17541590491489"><ele>53.0</ele><time>2026-03-28T15:00:23Z</time></trkpt><trkpt lat="43.74532036655446" lon="11.175027125635607"><ele>53.5</ele><time>2026-03-28T15:00:24Z</time></trkpt><trkpt lat="43.74550289714897" lon="11.17464258288335"><ele>54.0</ele><time>2026-03-28T15:00:25Z</time></trkpt><trkpt lat="43.745700716288" lon="11.17428095404483"><ele>54.5</ele><time>2026-03-28T15:00:26Z</time></trkpt><trkpt lat="43.74592140430673" lon="11.173929638786769"><ele>55.0</ele><time>2026-03-28T15:00:27Z</time></trkpt><trkpt lat="43.7461672097301" lon="11.17362001269949"><ele>53.5</ele><time>2026-03-28T15:00:28Z</time></trkpt><trkpt lat="43.74643042750288" lon="11.173329679460707"><ele>52.0</ele><time>2026-03-28T15:00:29Z</time></trkpt><trkpt lat="43.746712513396915" lon="11.17307190955815"><ele>50.5</ele><time>2026-03-28T15:00:30Z</time></trkpt><trkpt lat="43.747014955841145" lon="11.172825328850703"><ele>49.0</ele><time>2026-03-28T15:00:31Z</time></trkpt><trkpt lat="43.74733345626999" lon="11.17260530304343"><ele>49.0</ele><time>2026-03-28T15:00:32Z</time></trkpt><trkpt lat="43.747657107943745" lon="11.172447310978319"><ele>49.0</ele><time>2026-03-28T15:00:33Z</time></trkpt><trkpt lat="43.74800793967837" lon="11.172312136831277"><ele>49.0</ele><time>2026-03-28T15:00:34Z</time></trkpt><trkpt lat="43.74837588660108" lon="11.172206332574516"><ele>49.0</ele><time>2026-03-28T15:00:35Z</time></trkpt><trkpt lat="43.74876540035303" lon="11.17212838133582"><ele>49.0</ele><time>2026-03-28T15:00:36Z</time></trkpt><trkpt lat="43.74917294100766" lon="11.172062671660024"><ele>49.0</ele><time>2026-03-28T15:00:37Z</time></trkpt><trkpt lat="43.74959976230036" lon="11.172057122847214"><ele>48.0</ele><time>2026-03-28T15:00:38Z</time></trkpt><trkpt lat="43.750035305771476" lon="11.172104542560621"><ele>47.0</ele><time>2026-03-28T15:00:39Z</time></trkpt><trkpt lat="43.75043181500073" lon="11.171791623912707"><ele>47.0</ele><time>2026-03-28T15:00:40Z</time></trkpt><trkpt lat="43.750877195534166" lon="11.171717908020579"><ele>47.0</ele><time>2026-03-28T15:00:41Z</time></trkpt><trkpt lat="43.75128497621154" lon="11.171649585892219"><ele>46.5</ele><time>2026-03-28T15:00:42Z</time></trkpt><trkpt lat="43.751682900069476" lon="11.17157155380582"><ele>46.0</ele><time>2026-03-28T15:00:43Z</time></trkpt><trkpt lat="43.75208635104474" lon="11.17149134896442"><ele>46.0</ele><time>2026-03-28T15:00:44Z</time></trkpt><trkpt lat="43.75250925120118" lon="11.171409073041309"><ele>46.0</ele><time>2026-03-28T15:00:45Z</time></trkpt><trkpt lat="43.75294430427639" lon="11.171324922915282"><ele>46.0</ele><time>2026-03-28T15:00:46Z</time></trkpt><trkpt lat="43.75335133490627" lon="11.171248041360613"><ele>46.0</ele><time>2026-03-28T15:00:47Z</time></trkpt><trkpt lat="43.75373317135985" lon="11.171169639108145"><ele>45.0</ele><time>2026-03-28T15:00:48Z</time></trkpt><trkpt lat="43.75410184648319" lon="11.171097809498711"><ele>44.0</ele><time>2026-03-28T15:00:49Z</time></trkpt><trkpt lat="43.7544691399982" lon="11.171028412078051"><ele>44.0</ele><time>2026-03-28T15:00:50Z</time></trkpt><trkpt lat="43.75484182862887" lon="11.17095745010092"><ele>44.0</ele><time>2026-03-28T15:00:51Z</time></trkpt><trkpt lat="43.755220139498384" lon="11.170885803583635"><ele>44.0</ele><time>2026-03-28T15:00:52Z</time></trkpt><trkpt lat="43.75562133040089" lon="11.170810384837212"><ele>44.0</ele><time>2026-03-28T15:00:53Z</time></trkpt><trkpt lat="43.75600356353537" lon="11.170734406878944"><ele>43.5</ele><time>2026-03-28T15:00:54Z</time></trkpt><trkpt lat="43.75636980890158" lon="11.170665263933591"><ele>43.0</ele><time>2026-03-28T15:00:55Z</time></trkpt><trkpt lat="43.75673632586786" lon="11.1705940383298"><ele>42.0</ele><time>2026-03-28T15:00:56Z</time></trkpt><trkpt lat="43.75712903085943" lon="11.170520646169967"><ele>41.0</ele><time>2026-03-28T15:00:57Z</time></trkpt><trkpt lat="43.75750508884543" lon="11.17044751931656"><ele>41.0</ele><time>2026-03-28T15:00:58Z</time></trkpt><trkpt lat="43.75786350772603" lon="11.170378245713835"><ele>41.0</ele><time>2026-03-28T15:00:59Z</time></trkpt><trkpt lat="43.75821685558951" lon="11.170314603911923"><ele>41.5</ele><time>2026-03-28T15:01:00Z</time></trkpt><trkpt lat="43.7585611695083" lon="11.17025075289367"><ele>42.0</ele><time>2026-03-28T15:01:01Z</time></trkpt><trkpt lat="43.75890119898582" lon="11.170195261767628"><ele>42.0</ele><time>2026-03-28T15:01:02Z</time></trkpt><trkpt lat="43.75923985317322" lon="11.170138893898011"><ele>42.0</ele><time>2026-03-28T15:01:03Z</time></trkpt><trkpt lat="43.759567494066914" lon="11.170083721360223"><ele>41.0</ele><time>2026-03-28T15:01:04Z</time></trkpt><trkpt lat="43.75990115467982" lon="11.170020097888873"><ele>40.0</ele><time>2026-03-28T15:01:05Z</time></trkpt><trkpt lat="43.76024207897902" lon="11.169957580321832"><ele>40.0</ele><time>2026-03-28T15:01:06Z</time></trkpt><trkpt lat="43.760580865055324" lon="11.169889530126536"><ele>40.0</ele><time>2026-03-28T15:01:07Z</time></trkpt><trkpt lat="43.76090785610781" lon="11.169814639447967"><ele>40.0</ele><time>2026-03-28T15:01:08Z</time></trkpt><trkpt lat="43.76124305985235" lon="11.169719383534376"><ele>40.0</ele><time>2026-03-28T15:01:09Z</time></trkpt><trkpt lat="43.76158911447733" lon="11.169637186864161"><ele>41.0</ele><time>2026-03-28T15:01:10Z</time></trkpt><trkpt lat="43.76192735321971" lon="11.169540861318835"><ele>42.0</ele><time>2026-03-28T15:01:11Z</time></trkpt><trkpt lat="43.762264553350434" lon="11.16942898945063"><ele>42.0</ele><time>2026-03-28T15:01:12Z</time></trkpt><trkpt lat="43.76259667543756" lon="11.169299089046822"><ele>42.0</ele><time>2026-03-28T15:01:13Z</time></trkpt><trkpt lat="43.76292921441163" lon="11.169156636647175"><ele>41.0</ele><time>2026-03-28T15:01:14Z</time></trkpt><trkpt lat="43.76327733279299" lon="11.168997433693788"><ele>40.0</ele><time>2026-03-28T15:01:15Z</time></trkpt><trkpt lat="43.763621055404386" lon="11.168849051301063"><ele>39.5</ele><time>2026-03-28T15:01:16Z</time></trkpt><trkpt lat="43.763969331590474" lon="11.16869857080066"><ele>39.0</ele><time>2026-03-28T15:01:17.012Z</time></trkpt><trkpt lat="43.7643142026374" lon="11.168549684576018"><ele>39.5</ele><time>2026-03-28T15:01:18.013Z</time></trkpt><trkpt lat="43.76463797789687" lon="11.16833209062268"><ele>40.0</ele><time>2026-03-28T15:01:19.022Z</time></trkpt><trkpt lat="43.764951672402944" lon="11.16811520520735"><ele>38.0</ele><time>2026-03-28T15:01:20.013Z</time></trkpt><trkpt lat="43.76579123160194" lon="11.167508478098524"><ele>37.0</ele><time>2026-03-28T15:01:22.013Z</time></trkpt><trkpt lat="43.76718171876274" lon="11.166369225840238"><ele>37.0</ele><time>2026-03-28T15:01:26Z</time></trkpt><trkpt lat="43.76753350529583" lon="11.166109757840587"><ele>37.0</ele><time>2026-03-28T15:01:27Z</time></trkpt><trkpt lat="43.76790819675462" lon="11.165836447348859"><ele>37.5</ele><time>2026-03-28T15:01:28Z</time></trkpt><trkpt lat="43.76824657164714" lon="11.165588509624886"><ele>38.0</ele><time>2026-03-28T15:01:29Z</time></trkpt><trkpt lat="43.7685812293636" lon="11.165337184702835"><ele>39.0</ele><time>2026-03-28T15:01:30Z</time></trkpt><trkpt lat="43.76893310021964" lon="11.165068648874332"><ele>40.0</ele><time>2026-03-28T15:01:31Z</time></trkpt><trkpt lat="43.76925976019023" lon="11.164679375347387"><ele>38.5</ele><time>2026-03-28T15:01:32Z</time></trkpt><trkpt lat="43.76968127178137" lon="11.164486546127135"><ele>37.0</ele><time>2026-03-28T15:01:33Z</time></trkpt><trkpt lat="43.77007130069792" lon="11.164223933385163"><ele>36.5</ele><time>2026-03-28T15:01:34Z</time></trkpt><trkpt lat="43.7704505304085" lon="11.163978696626403"><ele>36.0</ele><time>2026-03-28T15:01:35Z</time></trkpt><trkpt lat="43.770820309606144" lon="11.1637550543226"><ele>37.0</ele><time>2026-03-28T15:01:36Z</time></trkpt><trkpt lat="43.77118680188901" lon="11.16354089925078"><ele>38.0</ele><time>2026-03-28T15:01:37Z</time></trkpt><trkpt lat="43.77157702435816" lon="11.16333742209359"><ele>36.5</ele><time>2026-03-28T15:01:38Z</time></trkpt><trkpt lat="43.77197310218327" lon="11.163132425122257"><ele>35.0</ele><time>2026-03-28T15:01:39Z</time></trkpt><trkpt lat="43.77236341025617" lon="11.162957154026003"><ele>35.0</ele><time>2026-03-28T15:01:40Z</time></trkpt><trkpt lat="43.77274358768224" lon="11.162802469261507"><ele>35.0</ele><time>2026-03-28T15:01:41Z</time></trkpt><trkpt lat="43.7731238477859" lon="11.16266110303806"><ele>35.0</ele><time>2026-03-28T15:01:42Z</time></trkpt><trkpt lat="43.773502644584916" lon="11.162523804651215"><ele>35.0</ele><time>2026-03-28T15:01:43Z</time></trkpt><trkpt lat="43.77390142773171" lon="11.162392215194924"><ele>35.0</ele><time>2026-03-28T15:01:44Z</time></trkpt><trkpt lat="43.77427721953183" lon="11.16226817237796"><ele>35.0</ele><time>2026-03-28T15:01:45Z</time></trkpt><trkpt lat="43.77464862387941" lon="11.162152105010872"><ele>35.0</ele><time>2026-03-28T15:01:46Z</time></trkpt><trkpt lat="43.77502055185748" lon="11.162048886491952"><ele>35.0</ele><time>2026-03-28T15:01:47Z</time></trkpt><trkpt lat="43.77538607426797" lon="11.161953637355763"><ele>34.5</ele><time>2026-03-28T15:01:48Z</time></trkpt><trkpt lat="43.77575015269657" lon="11.161856264199928"><ele>34.0</ele><time>2026-03-28T15:01:49Z</time></trkpt><trkpt lat="43.77612168281042" lon="11.161756706232095"><ele>35.5</ele><time>2026-03-28T15:01:50Z</time></trkpt><trkpt lat="43.776492367368974" lon="11.16166341171986"><ele>37.0</ele><time>2026-03-28T15:01:51Z</time></trkpt><trkpt lat="43.77685086236664" lon="11.161567223938304"><ele>35.5</ele><time>2026-03-28T15:01:52Z</time></trkpt><trkpt lat="43.7772378791892" lon="11.16146222623915"><ele>34.0</ele><time>2026-03-28T15:01:53Z</time></trkpt><trkpt lat="43.77764023991824" lon="11.161354445977665"><ele>34.5</ele><time>2026-03-28T15:01:54Z</time></trkpt><trkpt lat="43.778057117644316" lon="11.161239730610035"><ele>35.0</ele><time>2026-03-28T15:01:55Z</time></trkpt><trkpt lat="43.7784835662884" lon="11.161124694525888"><ele>36.0</ele><time>2026-03-28T15:01:56Z</time></trkpt><trkpt lat="43.77892011518714" lon="11.161002184933746"><ele>37.0</ele><time>2026-03-28T15:01:57Z</time></trkpt><trkpt lat="43.77933594601937" lon="11.160885591814202"><ele>36.5</ele><time>2026-03-28T15:01:58Z</time></trkpt><trkpt lat="43.77977060512261" lon="11.16075749223671"><ele>36.0</ele><time>2026-03-28T15:01:59Z</time></trkpt><trkpt lat="43.7802164994857" lon="11.16063071302551"><ele>36.0</ele><time>2026-03-28T15:02:00Z</time></trkpt><trkpt lat="43.78064230395563" lon="11.160512098091255"><ele>36.0</ele><time>2026-03-28T15:02:01Z</time></trkpt><trkpt lat="43.7810354839688" lon="11.160409314606841"><ele>35.0</ele><time>2026-03-28T15:02:02Z</time></trkpt><trkpt lat="43.78142685012823" lon="11.16030281264134"><ele>34.0</ele><time>2026-03-28T15:02:03Z</time></trkpt><trkpt lat="43.78180308790004" lon="11.1602009044099"><ele>34.5</ele><time>2026-03-28T15:02:04Z</time></trkpt><trkpt lat="43.782190817967205" lon="11.160096339873828"><ele>35.0</ele><time>2026-03-28T15:02:05Z</time></trkpt><trkpt lat="43.78256909344177" lon="11.159999590926079"><ele>35.5</ele><time>2026-03-28T15:02:06Z</time></trkpt><trkpt lat="43.782928767466686" lon="11.159904846121425"><ele>36.0</ele><time>2026-03-28T15:02:07Z</time></trkpt><trkpt lat="43.78328496768775" lon="11.15980465996463"><ele>36.5</ele><time>2026-03-28T15:02:08Z</time></trkpt><trkpt lat="43.78364465081106" lon="11.159704365989114"><ele>37.0</ele><time>2026-03-28T15:02:09Z</time></trkpt><trkpt lat="43.78398592009565" lon="11.15960374025534"><ele>37.0</ele><time>2026-03-28T15:02:10Z</time></trkpt><trkpt lat="43.78432879018062" lon="11.159505611258163"><ele>37.0</ele><time>2026-03-28T15:02:11Z</time></trkpt><trkpt lat="43.784678080061" lon="11.159413065479056"><ele>37.5</ele><time>2026-03-28T15:02:12Z</time></trkpt><trkpt lat="43.785022425261346" lon="11.159321605212572"><ele>38.0</ele><time>2026-03-28T15:02:13Z</time></trkpt><trkpt lat="43.78536253647707" lon="11.159228526365824"><ele>37.5</ele><time>2026-03-28T15:02:14Z</time></trkpt><trkpt lat="43.78569614048347" lon="11.159143945195368"><ele>37.0</ele><time>2026-03-28T15:02:15Z</time></trkpt><trkpt lat="43.78602074487993" lon="11.159051960433414"><ele>36.5</ele><time>2026-03-28T15:02:16Z</time></trkpt><trkpt lat="43.7863318189703" lon="11.15895853771877"><ele>36.0</ele><time>2026-03-28T15:02:17Z</time></trkpt><trkpt lat="43.7866435418516" lon="11.158863756696674"><ele>37.0</ele><time>2026-03-28T15:02:18Z</time></trkpt><trkpt lat="43.78695199857488" lon="11.158770473425772"><ele>38.0</ele><time>2026-03-28T15:02:19Z</time></trkpt><trkpt lat="43.78727404548846" lon="11.158678096124982"><ele>38.0</ele><time>2026-03-28T15:02:20Z</time></trkpt><trkpt lat="43.78760382685853" lon="11.158581992950333"><ele>38.0</ele><time>2026-03-28T15:02:21Z</time></trkpt><trkpt lat="43.787931269652795" lon="11.158490229040947"><ele>38.5</ele><time>2026-03-28T15:02:22Z</time></trkpt><trkpt lat="43.7882580262664" lon="11.15839876772939"><ele>39.0</ele><time>2026-03-28T15:02:23Z</time></trkpt><trkpt lat="43.788581220927036" lon="11.158304895528154"><ele>39.0</ele><time>2026-03-28T15:02:24Z</time></trkpt><trkpt lat="43.78890680222449" lon="11.15821538747314"><ele>39.0</ele><time>2026-03-28T15:02:25Z</time></trkpt><trkpt lat="43.789237515001105" lon="11.158122913963876"><ele>38.0</ele><time>2026-03-28T15:02:26Z</time></trkpt><trkpt lat="43.78957381299861" lon="11.15803382529334"><ele>37.0</ele><time>2026-03-28T15:02:27Z</time></trkpt><trkpt lat="43.78989952278199" lon="11.157945609416894"><ele>37.0</ele><time>2026-03-28T15:02:28Z</time></trkpt><trkpt lat="43.7902274910609" lon="11.15785429005662"><ele>37.0</ele><time>2026-03-28T15:02:29Z</time></trkpt><trkpt lat="43.79055307928104" lon="11.157758771336779"><ele>37.0</ele><time>2026-03-28T15:02:30Z</time></trkpt><trkpt lat="43.79087377890067" lon="11.157669168490528"><ele>37.0</ele><time>2026-03-28T15:02:31Z</time></trkpt><trkpt lat="43.79119204737565" lon="11.157578921319775"><ele>38.0</ele><time>2026-03-28T15:02:32Z</time></trkpt><trkpt lat="43.79151047625419" lon="11.157487791786828"><ele>39.0</ele><time>2026-03-28T15:02:33Z</time></trkpt><trkpt lat="43.79182694901846" lon="11.157399608057021"><ele>37.5</ele><time>2026-03-28T15:02:34Z</time></trkpt><trkpt lat="43.79214561881184" lon="11.157315310335209"><ele>36.0</ele><time>2026-03-28T15:02:35Z</time></trkpt><trkpt lat="43.792467937675475" lon="11.157230257151998"><ele>37.5</ele><time>2026-03-28T15:02:36Z</time></trkpt><trkpt lat="43.792793742341296" lon="11.15713787325934"><ele>39.0</ele><time>2026-03-28T15:02:37Z</time></trkpt><trkpt lat="43.793122537713884" lon="11.15704407279239"><ele>39.0</ele><time>2026-03-28T15:02:38Z</time></trkpt><trkpt lat="43.793452391625955" lon="11.156951865002616"><ele>39.0</ele><time>2026-03-28T15:02:39Z</time></trkpt><trkpt lat="43.79377586623496" lon="11.156862066815476"><ele>37.5</ele><time>2026-03-28T15:02:40Z</time></trkpt><trkpt lat="43.794098528973585" lon="11.156774790039531"><ele>36.0</ele><time>2026-03-28T15:02:41Z</time></trkpt><trkpt lat="43.79441829670167" lon="11.156688211719608"><ele>35.5</ele><time>2026-03-28T15:02:42Z</time></trkpt><trkpt lat="43.7947365294557" lon="11.156598025809604"><ele>35.0</ele><time>2026-03-28T15:02:43Z</time></trkpt><trkpt lat="43.795056094754244" lon="11.15650273919787"><ele>35.0</ele><time>2026-03-28T15:02:44Z</time></trkpt><trkpt lat="43.79537431794756" lon="11.156411906362154"><ele>35.0</ele><time>2026-03-28T15:02:45Z</time></trkpt><trkpt lat="43.79570256102557" lon="11.156320909936655"><ele>35.0</ele><time>2026-03-28T15:02:46Z</time></trkpt><trkpt lat="43.79603727739481" lon="11.156230013423107"><ele>35.0</ele><time>2026-03-28T15:02:47Z</time></trkpt><trkpt lat="43.796362685000275" lon="11.156140109526135"><ele>35.0</ele><time>2026-03-28T15:02:48Z</time></trkpt><trkpt lat="43.796679587899675" lon="11.156050053405282"><ele>35.0</ele><time>2026-03-28T15:02:49Z</time></trkpt><trkpt lat="43.796998906226534" lon="11.15595809947344"><ele>35.5</ele><time>2026-03-28T15:02:50Z</time></trkpt><trkpt lat="43.79733780156294" lon="11.155865074419138"><ele>36.0</ele><time>2026-03-28T15:02:51Z</time></trkpt><trkpt lat="43.79766780051493" lon="11.155775994315762"><ele>36.0</ele><time>2026-03-28T15:02:52Z</time></trkpt><trkpt lat="43.79799271389914" lon="11.15568807299312"><ele>36.0</ele><time>2026-03-28T15:02:53Z</time></trkpt><trkpt lat="43.79832461587805" lon="11.155595588340098"><ele>35.5</ele><time>2026-03-28T15:02:54Z</time></trkpt><trkpt lat="43.79865041398527" lon="11.155504016918467"><ele>35.0</ele><time>2026-03-28T15:02:55Z</time></trkpt><trkpt lat="43.79897703032243" lon="11.155411425473224"><ele>35.0</ele><time>2026-03-28T15:02:56Z</time></trkpt><trkpt lat="43.79931098821004" lon="11.15531695256008"><ele>35.0</ele><time>2026-03-28T15:02:57Z</time></trkpt><trkpt lat="43.799656173285456" lon="11.155219941561281"><ele>35.0</ele><time>2026-03-28T15:02:58Z</time></trkpt><trkpt lat="43.80002090241871" lon="11.155128350724649"><ele>35.0</ele><time>2026-03-28T15:02:59Z</time></trkpt><trkpt lat="43.80040781839672" lon="11.155048360277611"><ele>35.0</ele><time>2026-03-28T15:03:00Z</time></trkpt><trkpt lat="43.80080425157804" lon="11.154952232757074"><ele>35.0</ele><time>2026-03-28T15:03:01Z</time></trkpt><trkpt lat="43.8012075738278" lon="11.154840118789961"><ele>35.5</ele><time>2026-03-28T15:03:02Z</time></trkpt><trkpt lat="43.80161405147211" lon="11.154712337697125"><ele>36.0</ele><time>2026-03-28T15:03:03Z</time></trkpt><trkpt lat="43.80202855866136" lon="11.154579315207354"><ele>36.0</ele><time>2026-03-28T15:03:04Z</time></trkpt><trkpt lat="43.8024567903236" lon="11.154439634001928"><ele>36.0</ele><time>2026-03-28T15:03:05Z</time></trkpt><trkpt lat="43.80289823180779" lon="11.154293102977052"><ele>35.5</ele><time>2026-03-28T15:03:06Z</time></trkpt><trkpt lat="43.803329268620296" lon="11.154179597489314"><ele>35.0</ele><time>2026-03-28T15:03:07Z</time></trkpt><trkpt lat="43.803767197490764" lon="11.154064009206154"><ele>35.0</ele><time>2026-03-28T15:03:08Z</time></trkpt><trkpt lat="43.80420508449078" lon="11.153952521922085"><ele>35.0</ele><time>2026-03-28T15:03:09Z</time></trkpt><trkpt lat="43.80461622418751" lon="11.153839300616529"><ele>34.5</ele><time>2026-03-28T15:03:10Z</time></trkpt><trkpt lat="43.80502252915267" lon="11.153728363015572"><ele>34.0</ele><time>2026-03-28T15:03:11Z</time></trkpt><trkpt lat="43.80543031966319" lon="11.153609437073223"><ele>34.0</ele><time>2026-03-28T15:03:12Z</time></trkpt><trkpt lat="43.805827541153626" lon="11.153495804850786"><ele>34.0</ele><time>2026-03-28T15:03:13Z</time></trkpt><trkpt lat="43.80619242932657" lon="11.153393157440743"><ele>34.0</ele><time>2026-03-28T15:03:14Z</time></trkpt><trkpt lat="43.80656279891968" lon="11.153282952715532"><ele>34.0</ele><time>2026-03-28T15:03:15Z</time></trkpt><trkpt lat="43.80693702638793" lon="11.153181336941033"><ele>34.0</ele><time>2026-03-28T15:03:16Z</time></trkpt><trkpt lat="43.80732381829787" lon="11.153075343075288"><ele>34.0</ele><time>2026-03-28T15:03:17Z</time></trkpt><trkpt lat="43.807705515950616" lon="11.152967614655484"><ele>34.0</ele><time>2026-03-28T15:03:18Z</time></trkpt><trkpt lat="43.80807376233722" lon="11.152865957308881"><ele>34.0</ele><time>2026-03-28T15:03:19Z</time></trkpt><trkpt lat="43.808447673304954" lon="11.152757073843684"><ele>35.0</ele><time>2026-03-28T15:03:20Z</time></trkpt><trkpt lat="43.808806369621195" lon="11.152642913261847"><ele>36.0</ele><time>2026-03-28T15:03:21Z</time></trkpt><trkpt lat="43.8091622412103" lon="11.15254404064138"><ele>36.5</ele><time>2026-03-28T15:03:22Z</time></trkpt><trkpt lat="43.809514828873205" lon="11.152450234312557"><ele>37.0</ele><time>2026-03-28T15:03:23Z</time></trkpt><trkpt lat="43.80985467941778" lon="11.152359999882957"><ele>35.5</ele><time>2026-03-28T15:03:24Z</time></trkpt><trkpt lat="43.81018324918658" lon="11.152267582920864"><ele>34.0</ele><time>2026-03-28T15:03:25Z</time></trkpt><trkpt lat="43.8105133909813" lon="11.152172442426059"><ele>34.0</ele><time>2026-03-28T15:03:26Z</time></trkpt><trkpt lat="43.81084769660053" lon="11.152076217564566"><ele>34.0</ele><time>2026-03-28T15:03:27Z</time></trkpt><trkpt lat="43.81117684484195" lon="11.151986552902919"><ele>34.0</ele><time>2026-03-28T15:03:28Z</time></trkpt><trkpt lat="43.8115032556602" lon="11.151896521913537"><ele>34.0</ele><time>2026-03-28T15:03:29Z</time></trkpt><trkpt lat="43.81184523825901" lon="11.151794810224114"><ele>34.5</ele><time>2026-03-28T15:03:30Z</time></trkpt><trkpt lat="43.8122098751183" lon="11.151698608164475"><ele>35.0</ele><time>2026-03-28T15:03:31Z</time></trkpt><trkpt lat="43.81259068651111" lon="11.151617195776959"><ele>35.0</ele><time>2026-03-28T15:03:32Z</time></trkpt><trkpt lat="43.812975351266466" lon="11.151553085585949"><ele>35.0</ele><time>2026-03-28T15:03:33Z</time></trkpt><trkpt lat="43.81333105642274" lon="11.151514431119018"><ele>34.5</ele><time>2026-03-28T15:03:34Z</time></trkpt><trkpt lat="43.81366188262524" lon="11.151486844771817"><ele>34.0</ele><time>2026-03-28T15:03:35Z</time></trkpt><trkpt lat="43.813994139311745" lon="11.15146512538783"><ele>34.0</ele><time>2026-03-28T15:03:36Z</time></trkpt><trkpt lat="43.81433775582944" lon="11.151448541942036"><ele>34.0</ele><time>2026-03-28T15:03:37Z</time></trkpt><trkpt lat="43.81469556722089" lon="11.151441165430578"><ele>34.0</ele><time>2026-03-28T15:03:38Z</time></trkpt><trkpt lat="43.815076160900794" lon="11.1514422727249"><ele>34.0</ele><time>2026-03-28T15:03:39Z</time></trkpt><trkpt lat="43.815472000402515" lon="11.151456258746034"><ele>34.0</ele><time>2026-03-28T15:03:40Z</time></trkpt><trkpt lat="43.81588588647014" lon="11.151481150569614"><ele>34.0</ele><time>2026-03-28T15:03:41Z</time></trkpt><trkpt lat="43.8163309332626" lon="11.151526413945184"><ele>34.5</ele><time>2026-03-28T15:03:42Z</time></trkpt><trkpt lat="43.81674418962781" lon="11.151484601277973"><ele>35.0</ele><time>2026-03-28T15:03:43Z</time></trkpt><trkpt lat="43.81719346783464" lon="11.151500918736314"><ele>35.0</ele><time>2026-03-28T15:03:44Z</time></trkpt><trkpt lat="43.817644427635294" lon="11.151512510771092"><ele>34.5</ele><time>2026-03-28T15:03:45Z</time></trkpt><trkpt lat="43.81809355173671" lon="11.151528381100638"><ele>34.0</ele><time>2026-03-28T15:03:46Z</time></trkpt><trkpt lat="43.818519348870794" lon="11.151525813362637"><ele>35.0</ele><time>2026-03-28T15:03:47Z</time></trkpt><trkpt lat="43.8189330000388" lon="11.151530932778693"><ele>36.0</ele><time>2026-03-28T15:03:48Z</time></trkpt><trkpt lat="43.8193318262173" lon="11.151528549699263"><ele>36.0</ele><time>2026-03-28T15:03:49Z</time></trkpt><trkpt lat="43.819719403127756" lon="11.151526778473999"><ele>36.0</ele><time>2026-03-28T15:03:50Z</time></trkpt><trkpt lat="43.82010641380955" lon="11.151544400761502"><ele>36.0</ele><time>2026-03-28T15:03:51Z</time></trkpt><trkpt lat="43.82050178218634" lon="11.15154747881082"><ele>36.0</ele><time>2026-03-28T15:03:52Z</time></trkpt><trkpt lat="43.820912136507125" lon="11.151523551043544"><ele>35.5</ele><time>2026-03-28T15:03:53Z</time></trkpt><trkpt lat="43.821343657480064" lon="11.15140378219551"><ele>35.0</ele><time>2026-03-28T15:03:54Z</time></trkpt><trkpt lat="43.821760794697575" lon="11.151255103884605"><ele>36.0</ele><time>2026-03-28T15:03:55Z</time></trkpt><trkpt lat="43.82203319617723" lon="11.15156032499306"><ele>37.0</ele><time>2026-03-28T15:03:56Z</time></trkpt><trkpt lat="43.822372212316836" lon="11.151566073486288"><ele>37.5</ele><time>2026-03-28T15:03:57Z</time></trkpt><trkpt lat="43.822710633160476" lon="11.151574199534188"><ele>38.0</ele><time>2026-03-28T15:03:58Z</time></trkpt><trkpt lat="43.82306052922758" lon="11.151588449144251"><ele>38.0</ele><time>2026-03-28T15:03:59Z</time></trkpt><trkpt lat="43.82339165422907" lon="11.151598705147723"><ele>38.0</ele><time>2026-03-28T15:04:00Z</time></trkpt><trkpt lat="43.82371370176811" lon="11.151603010008175"><ele>37.0</ele><time>2026-03-28T15:04:01Z</time></trkpt><trkpt lat="43.824047165105334" lon="11.151606659578645"><ele>36.0</ele><time>2026-03-28T15:04:02Z</time></trkpt><trkpt lat="43.824379887004916" lon="11.151620733920335"><ele>36.0</ele><time>2026-03-28T15:04:03Z</time></trkpt><trkpt lat="43.82470627197931" lon="11.151642291415948"><ele>36.0</ele><time>2026-03-28T15:04:04Z</time></trkpt><trkpt lat="43.82503224937987" lon="11.151677606266263"><ele>37.0</ele><time>2026-03-28T15:04:05Z</time></trkpt><trkpt lat="43.825364921280844" lon="11.151736010386184"><ele>38.0</ele><time>2026-03-28T15:04:06Z</time></trkpt><trkpt lat="43.82568298802015" lon="11.151815119636838"><ele>37.5</ele><time>2026-03-28T15:04:07Z</time></trkpt><trkpt lat="43.82598546557744" lon="11.151909295563268"><ele>37.0</ele><time>2026-03-28T15:04:08Z</time></trkpt><trkpt lat="43.82629217388644" lon="11.15202624899244"><ele>37.0</ele><time>2026-03-28T15:04:09Z</time></trkpt><trkpt lat="43.8265992873827" lon="11.152144368760691"><ele>37.0</ele><time>2026-03-28T15:04:10Z</time></trkpt><trkpt lat="43.82690477859961" lon="11.152272429738725"><ele>37.5</ele><time>2026-03-28T15:04:11Z</time></trkpt><trkpt lat="43.82720483113573" lon="11.152428929860967"><ele>38.0</ele><time>2026-03-28T15:04:12Z</time></trkpt><trkpt lat="43.82750230940694" lon="11.152631898870496"><ele>38.0</ele><time>2026-03-28T15:04:13Z</time></trkpt><trkpt lat="43.82781526999133" lon="11.152864728081543"><ele>38.0</ele><time>2026-03-28T15:04:14Z</time></trkpt><trkpt lat="43.828142977190204" lon="11.153117593004943"><ele>39.0</ele><time>2026-03-28T15:04:15Z</time></trkpt><trkpt lat="43.82848184920879" lon="11.1533793531466"><ele>40.0</ele><time>2026-03-28T15:04:16Z</time></trkpt><trkpt lat="43.82883435590664" lon="11.153656080313388"><ele>40.0</ele><time>2026-03-28T15:04:17Z</time></trkpt><trkpt lat="43.82919439820623" lon="11.153937444388383"><ele>40.0</ele><time>2026-03-28T15:04:18Z</time></trkpt><trkpt lat="43.829581294524324" lon="11.154352978251328"><ele>39.0</ele><time>2026-03-28T15:04:19Z</time></trkpt><trkpt lat="43.829953769374306" lon="11.154714554380236"><ele>39.0</ele><time>2026-03-28T15:04:20Z</time></trkpt><trkpt lat="43.83028086280809" lon="11.154837277881363"><ele>39.0</ele><time>2026-03-28T15:04:21Z</time></trkpt><trkpt lat="43.830605808026476" lon="11.15512136230515"><ele>39.0</ele><time>2026-03-28T15:04:22Z</time></trkpt><trkpt lat="43.83094143248607" lon="11.15541181402973"><ele>39.0</ele><time>2026-03-28T15:04:23Z</time></trkpt><trkpt lat="43.831294571773846" lon="11.155716479606363"><ele>39.5</ele><time>2026-03-28T15:04:24Z</time></trkpt><trkpt lat="43.83164793007399" lon="11.156017986251078"><ele>40.0</ele><time>2026-03-28T15:04:25Z</time></trkpt><trkpt lat="43.83201610734095" lon="11.156326529164886"><ele>40.5</ele><time>2026-03-28T15:04:26Z</time></trkpt><trkpt lat="43.83238319072582" lon="11.156635332039256"><ele>41.0</ele><time>2026-03-28T15:04:27Z</time></trkpt><trkpt lat="43.832768876859014" lon="11.156961962515116"><ele>37.0</ele><time>2026-03-28T15:04:28Z</time></trkpt><trkpt lat="43.83315990929774" lon="11.15730592183863"><ele>39.0</ele><time>2026-03-28T15:04:29Z</time></trkpt><trkpt lat="43.83355665305968" lon="11.157650223987028"><ele>39.0</ele><time>2026-03-28T15:04:30Z</time></trkpt><trkpt lat="43.833952337906574" lon="11.157994722322915"><ele>37.0</ele><time>2026-03-28T15:04:31Z</time></trkpt><trkpt lat="43.83433520014774" lon="11.158326876927337"><ele>37.0</ele><time>2026-03-28T15:04:32Z</time></trkpt><trkpt lat="43.83473322498778" lon="11.158665301886778"><ele>37.0</ele><time>2026-03-28T15:04:33Z</time></trkpt><trkpt lat="43.83513617049572" lon="11.159009879718099"><ele>37.0</ele><time>2026-03-28T15:04:34Z</time></trkpt><trkpt lat="43.83550926941862" lon="11.159340134245257"><ele>37.0</ele><time>2026-03-28T15:04:35Z</time></trkpt><trkpt lat="43.83586941775295" lon="11.159663369854965"><ele>39.0</ele><time>2026-03-28T15:04:36Z</time></trkpt><trkpt lat="43.83624536483881" lon="11.159999370543156"><ele>41.0</ele><time>2026-03-28T15:04:37Z</time></trkpt><trkpt lat="43.836624926901514" lon="11.16033301056296"><ele>41.0</ele><time>2026-03-28T15:04:38Z</time></trkpt><trkpt lat="43.83700216998681" lon="11.16066384930172"><ele>41.0</ele><time>2026-03-28T15:04:39Z</time></trkpt><trkpt lat="43.83735770788282" lon="11.160970437699984"><ele>41.5</ele><time>2026-03-28T15:04:40Z</time></trkpt><trkpt lat="43.837711293783826" lon="11.16128541248088"><ele>42.0</ele><time>2026-03-28T15:04:41Z</time></trkpt><trkpt lat="43.83810444767622" lon="11.16160057232245"><ele>42.0</ele><time>2026-03-28T15:04:42Z</time></trkpt><trkpt lat="43.83850579717277" lon="11.16194358084234"><ele>42.0</ele><time>2026-03-28T15:04:43Z</time></trkpt><trkpt lat="43.83890264929836" lon="11.162276905015833"><ele>41.0</ele><time>2026-03-28T15:04:44Z</time></trkpt><trkpt lat="43.839302876722776" lon="11.16261491238414"><ele>41.0</ele><time>2026-03-28T15:04:45Z</time></trkpt><trkpt lat="43.83969053565472" lon="11.162940938462832"><ele>41.0</ele><time>2026-03-28T15:04:46Z</time></trkpt><trkpt lat="43.84006259435449" lon="11.163261774334401"><ele>41.0</ele><time>2026-03-28T15:04:47Z</time></trkpt><trkpt lat="43.84043785834723" lon="11.163593358680252"><ele>41.0</ele><time>2026-03-28T15:04:48Z</time></trkpt><trkpt lat="43.84078710239174" lon="11.163898364577971"><ele>41.0</ele><time>2026-03-28T15:04:49Z</time></trkpt><trkpt lat="43.841115507809995" lon="11.164195149627798"><ele>43.0</ele><time>2026-03-28T15:04:50Z</time></trkpt><trkpt lat="43.84141768512594" lon="11.164511953369937"><ele>45.0</ele><time>2026-03-28T15:04:51Z</time></trkpt><trkpt lat="43.84171468252316" lon="11.164813605204689"><ele>45.0</ele><time>2026-03-28T15:04:52Z</time></trkpt><trkpt lat="43.84209756121096" lon="11.165047409295882"><ele>45.0</ele><time>2026-03-28T15:04:53Z</time></trkpt><trkpt lat="43.84244199688931" lon="11.16533264289197"><ele>45.5</ele><time>2026-03-28T15:04:54Z</time></trkpt><trkpt lat="43.842779098154594" lon="11.16560705696533"><ele>46.0</ele><time>2026-03-28T15:04:55Z</time></trkpt><trkpt lat="43.843128451873326" lon="11.165884403499236"><ele>47.0</ele><time>2026-03-28T15:04:56Z</time></trkpt><trkpt lat="43.843430179789536" lon="11.166144631343482"><ele>48.0</ele><time>2026-03-28T15:04:57Z</time></trkpt><trkpt lat="43.84371813622446" lon="11.166397099945973"><ele>48.5</ele><time>2026-03-28T15:04:58Z</time></trkpt><trkpt lat="43.84399041162809" lon="11.166628184956615"><ele>49.0</ele><time>2026-03-28T15:04:59Z</time></trkpt><trkpt lat="43.84424948644328" lon="11.16683643956483"><ele>49.5</ele><time>2026-03-28T15:05:00Z</time></trkpt><trkpt lat="43.84450227402827" lon="11.167050753904215"><ele>50.0</ele><time>2026-03-28T15:05:01Z</time></trkpt><trkpt lat="43.844760603516214" lon="11.167271529689055"><ele>50.5</ele><time>2026-03-28T15:05:02Z</time></trkpt><trkpt lat="43.845016654196414" lon="11.167497290016614"><ele>51.0</ele><time>2026-03-28T15:05:03Z</time></trkpt><trkpt lat="43.84527679005444" lon="11.16771742798342"><ele>51.0</ele><time>2026-03-28T15:05:04Z</time></trkpt><trkpt lat="43.84553636536194" lon="11.167940331930817"><ele>51.0</ele><time>2026-03-28T15:05:05Z</time></trkpt><trkpt lat="43.84580153272099" lon="11.168170273609514"><ele>51.5</ele><time>2026-03-28T15:05:06Z</time></trkpt><trkpt lat="43.84606065150934" lon="11.168408806255671"><ele>52.0</ele><time>2026-03-28T15:05:07Z</time></trkpt><trkpt lat="43.84631123728488" lon="11.168643590534508"><ele>52.0</ele><time>2026-03-28T15:05:08Z</time></trkpt><trkpt lat="43.84655846144829" lon="11.168871824540961"><ele>52.0</ele><time>2026-03-28T15:05:09Z</time></trkpt><trkpt lat="43.84681420744296" lon="11.169110012543351"><ele>53.0</ele><time>2026-03-28T15:05:10Z</time></trkpt><trkpt lat="43.84707007305269" lon="11.16934571381405"><ele>54.0</ele><time>2026-03-28T15:05:11Z</time></trkpt><trkpt lat="43.84734074476145" lon="11.169597966313242"><ele>54.0</ele><time>2026-03-28T15:05:12Z</time></trkpt><trkpt lat="43.84760063485711" lon="11.169821937988534"><ele>54.0</ele><time>2026-03-28T15:05:13Z</time></trkpt><trkpt lat="43.84786407764758" lon="11.170045944476064"><ele>56.0</ele><time>2026-03-28T15:05:14Z</time></trkpt><trkpt lat="43.84811966844282" lon="11.17026930835359"><ele>58.0</ele><time>2026-03-28T15:05:15Z</time></trkpt><trkpt lat="43.84836539496788" lon="11.170484619069306"><ele>57.5</ele><time>2026-03-28T15:05:16Z</time></trkpt><trkpt lat="43.84860300520532" lon="11.170696077590627"><ele>57.0</ele><time>2026-03-28T15:05:17Z</time></trkpt><trkpt lat="43.84883283197473" lon="11.170905959907298"><ele>57.0</ele><time>2026-03-28T15:05:18Z</time></trkpt><trkpt lat="43.849049394263496" lon="11.171100093278115"><ele>57.0</ele><time>2026-03-28T15:05:19Z</time></trkpt><trkpt lat="43.84925566508156" lon="11.171282512417886"><ele>57.0</ele><time>2026-03-28T15:05:20Z</time></trkpt><trkpt lat="43.84945298036985" lon="11.171452987471223"><ele>57.0</ele><time>2026-03-28T15:05:21Z</time></trkpt><trkpt lat="43.84964380861103" lon="11.171611486455088"><ele>57.0</ele><time>2026-03-28T15:05:22Z</time></trkpt><trkpt lat="43.84982543316714" lon="11.171763859510856"><ele>57.0</ele><time>2026-03-28T15:05:23Z</time></trkpt><trkpt lat="43.84999190422378" lon="11.171907215339035"><ele>57.0</ele><time>2026-03-28T15:05:24Z</time></trkpt><trkpt lat="43.850151969959796" lon="11.172045807258908"><ele>57.33333333333333</ele><time>2026-03-28T15:05:25Z</time></trkpt><trkpt lat="43.8503135547547" lon="11.172203700891043"><ele>57.666666666666664</ele><time>2026-03-28T15:05:26Z</time></trkpt><trkpt lat="43.850460170775925" lon="11.172380132652952"><ele>58.0</ele><time>2026-03-28T15:05:27Z</time></trkpt><trkpt lat="43.850577589197805" lon="11.17257209095668"><ele>58.0</ele><time>2026-03-28T15:05:28Z</time></trkpt><trkpt lat="43.85067761909657" lon="11.172767617766114"><ele>58.0</ele><time>2026-03-28T15:05:29Z</time></trkpt><trkpt lat="43.85073473018543" lon="11.172972355830552"><ele>58.0</ele><time>2026-03-28T15:05:30Z</time></trkpt><trkpt lat="43.850767522380266" lon="11.173195439117734"><ele>58.33333333333333</ele><time>2026-03-28T15:05:31Z</time></trkpt><trkpt lat="43.85076540927754" lon="11.173442390729893"><ele>58.66666666666667</ele><time>2026-03-28T15:05:32Z</time></trkpt><trkpt lat="43.85074021690115" lon="11.173673845811878"><ele>59.0</ele><time>2026-03-28T15:05:33Z</time></trkpt><trkpt lat="43.85072556397864" lon="11.173886320887243"><ele>59.5</ele><time>2026-03-28T15:05:34Z</time></trkpt><trkpt lat="43.85069826332265" lon="11.174089749979208"><ele>60.0</ele><time>2026-03-28T15:05:35Z</time></trkpt><trkpt lat="43.850719376447394" lon="11.1742800647591"><ele>60.5</ele><time>2026-03-28T15:05:36Z</time></trkpt><trkpt lat="43.85077944913914" lon="11.174458617545158"><ele>61.0</ele><time>2026-03-28T15:05:37Z</time></trkpt><trkpt lat="43.85087765377252" lon="11.174628288990716"><ele>61.5</ele><time>2026-03-28T15:05:38Z</time></trkpt><trkpt lat="43.85100217677937" lon="11.17475276399912"><ele>62.0</ele><time>2026-03-28T15:05:39Z</time></trkpt><trkpt lat="43.85114061841959" lon="11.17481217051008"><ele>62.5</ele><time>2026-03-28T15:05:40Z</time></trkpt><trkpt lat="43.8512808055483" lon="11.174809843753488"><ele>63.0</ele><time>2026-03-28T15:05:41Z</time></trkpt><trkpt lat="43.85142470890988" lon="11.174773842857615"><ele>63.0</ele><time>2026-03-28T15:05:42Z</time></trkpt><trkpt lat="43.85155541623196" lon="11.174649450446285"><ele>63.0</ele><time>2026-03-28T15:05:43Z</time></trkpt><trkpt lat="43.851674977485196" lon="11.174477897592151"><ele>63.0</ele><time>2026-03-28T15:05:44Z</time></trkpt><trkpt lat="43.851778870992995" lon="11.174250093946043"><ele>63.5</ele><time>2026-03-28T15:05:45Z</time></trkpt><trkpt lat="43.851884299950164" lon="11.173972443825413"><ele>64.0</ele><time>2026-03-28T15:05:46Z</time></trkpt><trkpt lat="43.85201339256503" lon="11.173663714740483"><ele>64.0</ele><time>2026-03-28T15:05:47Z</time></trkpt><trkpt lat="43.85215192835446" lon="11.173362061565289"><ele>64.0</ele><time>2026-03-28T15:05:48Z</time></trkpt><trkpt lat="43.85226804781893" lon="11.173116431179736"><ele>64.0</ele><time>2026-03-28T15:05:49Z</time></trkpt><trkpt lat="43.85237287564843" lon="11.172884734388198"><ele>64.0</ele><time>2026-03-28T15:05:50Z</time></trkpt><trkpt lat="43.8524627529416" lon="11.172660736565884"><ele>64.0</ele><time>2026-03-28T15:05:51Z</time></trkpt><trkpt lat="43.85253483066198" lon="11.172437325231808"><ele>63.33333333333333</ele><time>2026-03-28T15:05:52Z</time></trkpt><trkpt lat="43.85258426090836" lon="11.172208504912392"><ele>62.66666666666667</ele><time>2026-03-28T15:05:53Z</time></trkpt><trkpt lat="43.852595144601196" lon="11.171981281895292"><ele>62.0</ele><time>2026-03-28T15:05:54Z</time></trkpt><trkpt lat="43.8525774810535" lon="11.171760961038085"><ele>62.0</ele><time>2026-03-28T15:05:55Z</time></trkpt><trkpt lat="43.85254695554862" lon="11.171538997235825"><ele>62.0</ele><time>2026-03-28T15:05:56Z</time></trkpt><trkpt lat="43.85251842682389" lon="11.171328974777254"><ele>62.0</ele><time>2026-03-28T15:05:57Z</time></trkpt><trkpt lat="43.852488563580216" lon="11.171148770533284"><ele>61.5</ele><time>2026-03-28T15:05:58Z</time></trkpt><trkpt lat="43.85246592269029" lon="11.17098948195189"><ele>61.0</ele><time>2026-03-28T15:05:59Z</time></trkpt><trkpt lat="43.852431164374565" lon="11.17084344159954"><ele>60.5</ele><time>2026-03-28T15:06:00Z</time></trkpt><trkpt lat="43.85241182842855" lon="11.170684356755338"><ele>60.0</ele><time>2026-03-28T15:06:01Z</time></trkpt><trkpt lat="43.852392134144495" lon="11.170522095143424"><ele>59.6</ele><time>2026-03-28T15:06:02Z</time></trkpt><trkpt lat="43.852379106847124" lon="11.170365151445385"><ele>59.2</ele><time>2026-03-28T15:06:03Z</time></trkpt><trkpt lat="43.85236761476701" lon="11.170229443812627"><ele>58.8</ele><time>2026-03-28T15:06:04Z</time></trkpt><trkpt lat="43.85235779870722" lon="11.170111429059938"><ele>58.4</ele><time>2026-03-28T15:06:05Z</time></trkpt><trkpt lat="43.85234897109368" lon="11.169996290572898"><ele>58.0</ele><time>2026-03-28T15:06:06Z</time></trkpt><trkpt lat="43.85233738995913" lon="11.169871694196175"><ele>57.99999999999999</ele><time>2026-03-28T15:06:07Z</time></trkpt><trkpt lat="43.852328061818554" lon="11.16976198050297"><ele>58.0</ele><time>2026-03-28T15:06:08Z</time></trkpt><trkpt lat="43.85232004943799" lon="11.169669203791491"><ele>58.0</ele><time>2026-03-28T15:06:09Z</time></trkpt><trkpt lat="43.85230141505297" lon="11.16951675378152"><ele>58.0</ele><time>2026-03-28T15:06:11Z</time></trkpt><trkpt lat="43.85228294267693" lon="11.169388325256135"><ele>57.99999999999999</ele><time>2026-03-28T15:06:13Z</time></trkpt><trkpt lat="43.85226339788466" lon="11.16926510715019"><ele>58.0</ele><time>2026-03-28T15:06:15Z</time></trkpt><trkpt lat="43.85224535137649" lon="11.169157996972729"><ele>58.0</ele><time>2026-03-28T15:06:17Z</time></trkpt><trkpt lat="43.85222267727015" lon="11.169032766558107"><ele>58.0</ele><time>2026-03-28T15:06:19Z</time></trkpt><trkpt lat="43.852200161664996" lon="11.168920465789844"><ele>58.0</ele><time>2026-03-28T15:06:20Z</time></trkpt><trkpt lat="43.85216670780515" lon="11.16876099033966"><ele>58.0</ele><time>2026-03-28T15:06:21Z</time></trkpt><trkpt lat="43.85213046751741" lon="11.16860477842054"><ele>58.0</ele><time>2026-03-28T15:06:22Z</time></trkpt><trkpt lat="43.85208433250867" lon="11.168429785410456"><ele>57.666666666666664</ele><time>2026-03-28T15:06:23Z</time></trkpt><trkpt lat="43.85201778139386" lon="11.168187287780187"><ele>57.33333333333333</ele><time>2026-03-28T15:06:24Z</time></trkpt><trkpt lat="43.85194732818499" lon="11.167935028460848"><ele>57.0</ele><time>2026-03-28T15:06:25Z</time></trkpt><trkpt lat="43.85190607073378" lon="11.16767119638998"><ele>57.0</ele><time>2026-03-28T15:06:26Z</time></trkpt><trkpt lat="43.85185469685887" lon="11.1674406257316"><ele>57.0</ele><time>2026-03-28T15:06:27Z</time></trkpt><trkpt lat="43.851804093297304" lon="11.167234102130362"><ele>57.0</ele><time>2026-03-28T15:06:28Z</time></trkpt><trkpt lat="43.85176354727147" lon="11.167036138118496"><ele>57.0</ele><time>2026-03-28T15:06:29Z</time></trkpt><trkpt lat="43.85168342740381" lon="11.166883516196897"><ele>57.0</ele><time>2026-03-28T15:06:30Z</time></trkpt><trkpt lat="43.85161532498299" lon="11.166738795008886"><ele>57.0</ele><time>2026-03-28T15:06:31Z</time></trkpt><trkpt lat="43.85155350903731" lon="11.166618776728743"><ele>57.0</ele><time>2026-03-28T15:06:32Z</time></trkpt><trkpt lat="43.85150445252557" lon="11.166517466233069"><ele>56.6</ele><time>2026-03-28T15:06:33Z</time></trkpt><trkpt lat="43.85147280195567" lon="11.166419476938781"><ele>56.2</ele><time>2026-03-28T15:06:34Z</time></trkpt><trkpt lat="43.851442471613574" lon="11.166268814534142"><ele>55.8</ele><time>2026-03-28T15:06:36Z</time></trkpt><trkpt lat="43.851452033642765" lon="11.166156741591683"><ele>55.4</ele><time>2026-03-28T15:06:37Z</time></trkpt><trkpt lat="43.85149911288778" lon="11.165980038124657"><ele>55.0</ele><time>2026-03-28T15:06:38Z</time></trkpt><trkpt lat="43.85156654377471" lon="11.165770308161672"><ele>54.25</ele><time>2026-03-28T15:06:39Z</time></trkpt><trkpt lat="43.851618094248" lon="11.165598682958983"><ele>53.5</ele><time>2026-03-28T15:06:40Z</time></trkpt><trkpt lat="43.851628422402605" lon="11.165446637666541"><ele>52.75</ele><time>2026-03-28T15:06:41Z</time></trkpt><trkpt lat="43.85162191073354" lon="11.165307726922356"><ele>52.0</ele><time>2026-03-28T15:06:42Z</time></trkpt><trkpt lat="43.85155733443184" lon="11.165173116955899"><ele>52.0</ele><time>2026-03-28T15:06:43Z</time></trkpt><trkpt lat="43.851437922664324" lon="11.165111919951679"><ele>52.0</ele><time>2026-03-28T15:06:44Z</time></trkpt><trkpt lat="43.851324019053344" lon="11.16507950947042"><ele>52.0</ele><time>2026-03-28T15:06:45Z</time></trkpt><trkpt lat="43.8512087142889" lon="11.165054748701648"><ele>52.0</ele><time>2026-03-28T15:06:46Z</time></trkpt><trkpt lat="43.851102356113536" lon="11.16497010259521"><ele>52.33333333333333</ele><time>2026-03-28T15:06:47Z</time></trkpt><trkpt lat="43.85099841517445" lon="11.164840165068368"><ele>52.66666666666667</ele><time>2026-03-28T15:06:48Z</time></trkpt><trkpt lat="43.85086406977109" lon="11.164670603125847"><ele>53.0</ele><time>2026-03-28T15:06:49Z</time></trkpt><trkpt lat="43.85068121257188" lon="11.164438580901013"><ele>53.0</ele><time>2026-03-28T15:06:50Z</time></trkpt><trkpt lat="43.850463144361065" lon="11.16419667369427"><ele>53.0</ele><time>2026-03-28T15:06:51Z</time></trkpt><trkpt lat="43.85026630373553" lon="11.16396025458719"><ele>53.333333333333336</ele><time>2026-03-28T15:06:52Z</time></trkpt><trkpt lat="43.85009451385141" lon="11.163763626465315"><ele>53.66666666666667</ele><time>2026-03-28T15:06:53Z</time></trkpt><trkpt lat="43.849929174708166" lon="11.163582645593225"><ele>54.0</ele><time>2026-03-28T15:06:54Z</time></trkpt><trkpt lat="43.8497629200236" lon="11.163407991673674"><ele>54.0</ele><time>2026-03-28T15:06:55Z</time></trkpt><trkpt lat="43.849602569657" lon="11.16323500767385"><ele>54.0</ele><time>2026-03-28T15:06:56Z</time></trkpt><trkpt lat="43.84945293395992" lon="11.163070158785223"><ele>54.0</ele><time>2026-03-28T15:06:57Z</time></trkpt><trkpt lat="43.84930714966657" lon="11.162918848424066"><ele>53.33333333333333</ele><time>2026-03-28T15:06:58Z</time></trkpt><trkpt lat="43.84916339561112" lon="11.16278839182578"><ele>52.666666666666664</ele><time>2026-03-28T15:06:59Z</time></trkpt><trkpt lat="43.849027098749865" lon="11.162677112845284"><ele>52.0</ele><time>2026-03-28T15:07:00Z</time></trkpt><trkpt lat="43.8489105430003" lon="11.162579333534874"><ele>52.0</ele><time>2026-03-28T15:07:01Z</time></trkpt><trkpt lat="43.84881205515455" lon="11.162496477157324"><ele>52.0</ele><time>2026-03-28T15:07:02Z</time></trkpt><trkpt lat="43.84872412501329" lon="11.162387785864471"><ele>52.0</ele><time>2026-03-28T15:07:03Z</time></trkpt><trkpt lat="43.84864822165784" lon="11.162317603937527"><ele>52.0</ele><time>2026-03-28T15:07:04Z</time></trkpt><trkpt lat="43.84855882232218" lon="11.162256432928375"><ele>52.0</ele><time>2026-03-28T15:07:05Z</time></trkpt><trkpt lat="43.84849339011465" lon="11.162128909447164"><ele>51.2</ele><time>2026-03-28T15:07:06Z</time></trkpt><trkpt lat="43.84840117775885" lon="11.162039849921786"><ele>50.400000000000006</ele><time>2026-03-28T15:07:07Z</time></trkpt><trkpt lat="43.848311788808346" lon="11.16195544153363"><ele>49.599999999999994</ele><time>2026-03-28T15:07:08Z</time></trkpt><trkpt lat="43.84822550312032" lon="11.161878021955756"><ele>48.8</ele><time>2026-03-28T15:07:09Z</time></trkpt><trkpt lat="43.84815454910073" lon="11.161809611081283"><ele>48.0</ele><time>2026-03-28T15:07:10Z</time></trkpt><trkpt lat="43.84808839266168" lon="11.16174483852356"><ele>48.0</ele><time>2026-03-28T15:07:11Z</time></trkpt><trkpt lat="43.8480214733363" lon="11.161670139885954"><ele>48.0</ele><time>2026-03-28T15:07:12Z</time></trkpt><trkpt lat="43.84797637905482" lon="11.161565907809521"><ele>48.0</ele><time>2026-03-28T15:07:13Z</time></trkpt><trkpt lat="43.847946562925785" lon="11.161458046985521"><ele>48.0</ele><time>2026-03-28T15:07:14Z</time></trkpt><trkpt lat="43.847898495175706" lon="11.161338217484543"><ele>48.0</ele><time>2026-03-28T15:07:16Z</time></trkpt><trkpt lat="43.84785681135707" lon="11.161226377351488"><ele>48.0</ele><time>2026-03-28T15:07:18Z</time></trkpt><trkpt lat="43.84777348234192" lon="11.161230783257986"><ele>48.0</ele><time>2026-03-28T15:07:19Z</time></trkpt><trkpt lat="43.84766658305912" lon="11.161271862780314"><ele>48.0</ele><time>2026-03-28T15:07:21Z</time></trkpt><trkpt lat="43.84755990664399" lon="11.161321793657459"><ele>48.0</ele><time>2026-03-28T15:07:23Z</time></trkpt><trkpt lat="43.84747362573435" lon="11.1612761067065"><ele>48.0</ele><time>2026-03-28T15:07:24Z</time></trkpt><trkpt lat="43.8473954109069" lon="11.161226446289424"><ele>48.0</ele><time>2026-03-28T15:07:25Z</time></trkpt><trkpt lat="43.84731478001578" lon="11.16116850093651"><ele>48.0</ele><time>2026-03-28T15:07:26Z</time></trkpt><trkpt lat="43.84723158757233" lon="11.161090787812466"><ele>48.0</ele><time>2026-03-28T15:07:27Z</time></trkpt><trkpt lat="43.84714655193662" lon="11.161011437798285"><ele>48.0</ele><time>2026-03-28T15:07:28Z</time></trkpt><trkpt lat="43.84705893321915" lon="11.160936046143648"><ele>48.0</ele><time>2026-03-28T15:07:29Z</time></trkpt><trkpt lat="43.84696874840776" lon="11.16085966391517"><ele>48.0</ele><time>2026-03-28T15:07:30Z</time></trkpt><trkpt lat="43.84687640933315" lon="11.1607793978333"><ele>48.0</ele><time>2026-03-28T15:07:31Z</time></trkpt><trkpt lat="43.846783961401435" lon="11.160694387593852"><ele>48.0</ele><time>2026-03-28T15:07:32Z</time></trkpt><trkpt lat="43.84668808183481" lon="11.160613207571746"><ele>48.0</ele><time>2026-03-28T15:07:33Z</time></trkpt><trkpt lat="43.846593480465906" lon="11.16052818511826"><ele>48.0</ele><time>2026-03-28T15:07:34Z</time></trkpt><trkpt lat="43.84649943553809" lon="11.160444753087717"><ele>48.0</ele><time>2026-03-28T15:07:35Z</time></trkpt><trkpt lat="43.846403858145216" lon="11.16036389977586"><ele>48.0</ele><time>2026-03-28T15:07:36Z</time></trkpt><trkpt lat="43.84632085646015" lon="11.160264925837012"><ele>48.0</ele><time>2026-03-28T15:07:37Z</time></trkpt><trkpt lat="43.846231646515136" lon="11.160182429648982"><ele>48.0</ele><time>2026-03-28T15:07:38Z</time></trkpt><trkpt lat="43.84614308265588" lon="11.16010219139268"><ele>48.0</ele><time>2026-03-28T15:07:39Z</time></trkpt><trkpt lat="43.84604745975633" lon="11.1600373073025"><ele>48.0</ele><time>2026-03-28T15:07:40Z</time></trkpt><trkpt lat="43.84595972401417" lon="11.159952060500608"><ele>48.0</ele><time>2026-03-28T15:07:41Z</time></trkpt><trkpt lat="43.84586650810063" lon="11.159868186282333"><ele>48.0</ele><time>2026-03-28T15:07:42Z</time></trkpt><trkpt lat="43.84577319778989" lon="11.159783590587375"><ele>48.0</ele><time>2026-03-28T15:07:43Z</time></trkpt><trkpt lat="43.845678050291035" lon="11.159699290452235"><ele>48.0</ele><time>2026-03-28T15:07:44Z</time></trkpt><trkpt lat="43.84558297785416" lon="11.159616369131466"><ele>48.0</ele><time>2026-03-28T15:07:45Z</time></trkpt><trkpt lat="43.84548753436519" lon="11.159532243944062"><ele>48.0</ele><time>2026-03-28T15:07:46Z</time></trkpt><trkpt lat="43.845393962716344" lon="11.159444682358506"><ele>48.0</ele><time>2026-03-28T15:07:47Z</time></trkpt><trkpt lat="43.8452989643025" lon="11.159358236992409"><ele>48.0</ele><time>2026-03-28T15:07:48Z</time></trkpt><trkpt lat="43.84520120311559" lon="11.159271197292524"><ele>48.0</ele><time>2026-03-28T15:07:49Z</time></trkpt><trkpt lat="43.84509901680991" lon="11.159183384860231"><ele>48.0</ele><time>2026-03-28T15:07:50Z</time></trkpt><trkpt lat="43.84499335469814" lon="11.159096911823895"><ele>48.0</ele><time>2026-03-28T15:07:51Z</time></trkpt><trkpt lat="43.84488720717439" lon="11.159010594550695"><ele>48.0</ele><time>2026-03-28T15:07:52Z</time></trkpt><trkpt lat="43.844780335277946" lon="11.158928595698963"><ele>48.0</ele><time>2026-03-28T15:07:53Z</time></trkpt><trkpt lat="43.84467252361177" lon="11.158850445483495"><ele>47.75</ele><time>2026-03-28T15:07:54Z</time></trkpt><trkpt lat="43.844562238000236" lon="11.158779044875242"><ele>47.5</ele><time>2026-03-28T15:07:55Z</time></trkpt><trkpt lat="43.844459610831144" lon="11.158686474682598"><ele>47.25</ele><time>2026-03-28T15:07:56Z</time></trkpt><trkpt lat="43.84433673487536" lon="11.158636346275813"><ele>47.0</ele><time>2026-03-28T15:07:57Z</time></trkpt><trkpt lat="43.84421021430329" lon="11.15863169992006"><ele>46.5</ele><time>2026-03-28T15:07:58Z</time></trkpt><trkpt lat="43.84408113914701" lon="11.158624925957163"><ele>46.0</ele><time>2026-03-28T15:07:59Z</time></trkpt><trkpt lat="43.84395170904743" lon="11.158619905431223"><ele>45.5</ele><time>2026-03-28T15:08:00Z</time></trkpt><trkpt lat="43.843833015173104" lon="11.158595659792589"><ele>45.0</ele><time>2026-03-28T15:08:01Z</time></trkpt><trkpt lat="43.84374011546301" lon="11.158507311834477"><ele>45.0</ele><time>2026-03-28T15:08:02Z</time></trkpt><trkpt lat="43.84367024241277" lon="11.158417378143437"><ele>45.0</ele><time>2026-03-28T15:08:03Z</time></trkpt><trkpt lat="43.843613204511854" lon="11.158281013909765"><ele>45.0</ele><time>2026-03-28T15:08:04Z</time></trkpt><trkpt lat="43.843551092122965" lon="11.158126458976085"><ele>45.0</ele><time>2026-03-28T15:08:05Z</time></trkpt><trkpt lat="43.84346859768811" lon="11.157980930375928"><ele>44.0</ele><time>2026-03-28T15:08:06Z</time></trkpt><trkpt lat="43.843359319561586" lon="11.157851588191356"><ele>43.0</ele><time>2026-03-28T15:08:07Z</time></trkpt><trkpt lat="43.84322514504719" lon="11.157726791947098"><ele>42.0</ele><time>2026-03-28T15:08:08Z</time></trkpt><trkpt lat="43.843084366807574" lon="11.157601736482132"><ele>42.0</ele><time>2026-03-28T15:08:09Z</time></trkpt><trkpt lat="43.84295745369509" lon="11.15749072867974"><ele>42.0</ele><time>2026-03-28T15:08:10Z</time></trkpt><trkpt lat="43.84283850125759" lon="11.157394526895166"><ele>42.0</ele><time>2026-03-28T15:08:11Z</time></trkpt><trkpt lat="43.84272288155594" lon="11.157311810751093"><ele>42.0</ele><time>2026-03-28T15:08:12Z</time></trkpt><trkpt lat="43.84260590807257" lon="11.1572341160169"><ele>41.333333333333336</ele><time>2026-03-28T15:08:13Z</time></trkpt><trkpt lat="43.842474234551425" lon="11.15715716112551"><ele>40.66666666666667</ele><time>2026-03-28T15:08:14Z</time></trkpt><trkpt lat="43.842326590537425" lon="11.157094107327705"><ele>40.0</ele><time>2026-03-28T15:08:15Z</time></trkpt><trkpt lat="43.84217493155839" lon="11.157029616754151"><ele>40.0</ele><time>2026-03-28T15:08:16Z</time></trkpt><trkpt lat="43.84203586802935" lon="11.156833627056859"><ele>40.0</ele><time>2026-03-28T15:08:17Z</time></trkpt><trkpt lat="43.841874279614025" lon="11.156686847019747"><ele>40.0</ele><time>2026-03-28T15:08:18Z</time></trkpt><trkpt lat="43.841697927002315" lon="11.156530821960029"><ele>40.333333333333336</ele><time>2026-03-28T15:08:19Z</time></trkpt><trkpt lat="43.84151732983302" lon="11.156365294985617"><ele>40.666666666666664</ele><time>2026-03-28T15:08:20Z</time></trkpt><trkpt lat="43.84134659346033" lon="11.156208844137055"><ele>41.0</ele><time>2026-03-28T15:08:21Z</time></trkpt><trkpt lat="43.84118708093445" lon="11.156068922273768"><ele>41.0</ele><time>2026-03-28T15:08:22Z</time></trkpt><trkpt lat="43.84102339117458" lon="11.155928863473509"><ele>41.0</ele><time>2026-03-28T15:08:23Z</time></trkpt><trkpt lat="43.84085769424805" lon="11.155785063912862"><ele>41.0</ele><time>2026-03-28T15:08:24Z</time></trkpt><trkpt lat="43.840690771962535" lon="11.155646673468903"><ele>41.33333333333333</ele><time>2026-03-28T15:08:25Z</time></trkpt><trkpt lat="43.840527305237266" lon="11.155520709107067"><ele>41.666666666666664</ele><time>2026-03-28T15:08:26Z</time></trkpt><trkpt lat="43.84037083791727" lon="11.155404318689767"><ele>42.0</ele><time>2026-03-28T15:08:27Z</time></trkpt><trkpt lat="43.84021506001606" lon="11.15530882926919"><ele>42.0</ele><time>2026-03-28T15:08:28Z</time></trkpt><trkpt lat="43.840060471424295" lon="11.155220161146032"><ele>42.0</ele><time>2026-03-28T15:08:29Z</time></trkpt><trkpt lat="43.83990425665411" lon="11.155131051036895"><ele>42.0</ele><time>2026-03-28T15:08:30Z</time></trkpt><trkpt lat="43.839747972320076" lon="11.155048556966653"><ele>42.0</ele><time>2026-03-28T15:08:31Z</time></trkpt><trkpt lat="43.83959228382921" lon="11.154975144073216"><ele>42.0</ele><time>2026-03-28T15:08:32Z</time></trkpt><trkpt lat="43.83944117373461" lon="11.15490365406124"><ele>42.0</ele><time>2026-03-28T15:08:33Z</time></trkpt><trkpt lat="43.8392987055545" lon="11.15483958307823"><ele>41.6</ele><time>2026-03-28T15:08:34Z</time></trkpt><trkpt lat="43.83916517101912" lon="11.154789160117812"><ele>41.2</ele><time>2026-03-28T15:08:35Z</time></trkpt><trkpt lat="43.83904976016558" lon="11.15474677397745"><ele>40.8</ele><time>2026-03-28T15:08:36Z</time></trkpt><trkpt lat="43.83895081275226" lon="11.154701765847992"><ele>40.4</ele><time>2026-03-28T15:08:37Z</time></trkpt><trkpt lat="43.83887569600567" lon="11.154650038693534"><ele>40.0</ele><time>2026-03-28T15:08:38Z</time></trkpt><trkpt lat="43.83881022647603" lon="11.154588274109999"><ele>40.0</ele><time>2026-03-28T15:08:39Z</time></trkpt><trkpt lat="43.838744391137205" lon="11.154545513123988"><ele>40.0</ele><time>2026-03-28T15:08:40Z</time></trkpt><trkpt lat="43.83871193550379" lon="11.154428908718707"><ele>40.0</ele><time>2026-03-28T15:08:41Z</time></trkpt><trkpt lat="43.83865272109826" lon="11.154362627707537"><ele>40.0</ele><time>2026-03-28T15:08:42Z</time></trkpt><trkpt lat="43.838572292984864" lon="11.154330250425776"><ele>40.0</ele><time>2026-03-28T15:08:43Z</time></trkpt><trkpt lat="43.8384871697094" lon="11.15433494306071"><ele>40.0</ele><time>2026-03-28T15:08:44Z</time></trkpt><trkpt lat="43.838398851339285" lon="11.15437864316474"><ele>40.25</ele><time>2026-03-28T15:08:45Z</time></trkpt><trkpt lat="43.838303518196085" lon="11.154412454884973"><ele>40.5</ele><time>2026-03-28T15:08:46Z</time></trkpt><trkpt lat="43.83819444741261" lon="11.154412538825337"><ele>40.75</ele><time>2026-03-28T15:08:47Z</time></trkpt><trkpt lat="43.83805973812771" lon="11.154412460881776"><ele>41.0</ele><time>2026-03-28T15:08:48Z</time></trkpt><trkpt lat="43.83789964157915" lon="11.154289029299397"><ele>41.0</ele><time>2026-03-28T15:08:49Z</time></trkpt><trkpt lat="43.83771954209728" lon="11.1542067891001"><ele>41.0</ele><time>2026-03-28T15:08:50Z</time></trkpt><trkpt lat="43.837482196931894" lon="11.154109719781061"><ele>41.0</ele><time>2026-03-28T15:08:51Z</time></trkpt><trkpt lat="43.83721486602523" lon="11.154017620311949"><ele>41.0</ele><time>2026-03-28T15:08:52Z</time></trkpt><trkpt lat="43.83692322273725" lon="11.153921600653216"><ele>41.0</ele><time>2026-03-28T15:08:53Z</time></trkpt><trkpt lat="43.83661449333561" lon="11.153803946996577"><ele>41.0</ele><time>2026-03-28T15:08:54Z</time></trkpt><trkpt lat="43.83632313527957" lon="11.153676428754336"><ele>41.0</ele><time>2026-03-28T15:08:55Z</time></trkpt><trkpt lat="43.83605690770017" lon="11.153571175621515"><ele>40.5</ele><time>2026-03-28T15:08:56Z</time></trkpt><trkpt lat="43.835803342173556" lon="11.153477179188524"><ele>40.0</ele><time>2026-03-28T15:08:57Z</time></trkpt><trkpt lat="43.835565756054656" lon="11.153383585589507"><ele>40.0</ele><time>2026-03-28T15:08:58Z</time></trkpt><trkpt lat="43.83535121232307" lon="11.153289448818313"><ele>40.0</ele><time>2026-03-28T15:08:59Z</time></trkpt><trkpt lat="43.83515769215934" lon="11.15320886826871"><ele>40.0</ele><time>2026-03-28T15:09:00Z</time></trkpt><trkpt lat="43.83498478525672" lon="11.153144953159439"><ele>39.5</ele><time>2026-03-28T15:09:01Z</time></trkpt><trkpt lat="43.83483554627286" lon="11.15309450753028"><ele>39.0</ele><time>2026-03-28T15:09:02Z</time></trkpt><trkpt lat="43.834698200201146" lon="11.153044791230315"><ele>38.5</ele><time>2026-03-28T15:09:03Z</time></trkpt><trkpt lat="43.8345778086505" lon="11.1529640150359"><ele>38.0</ele><time>2026-03-28T15:09:04Z</time></trkpt><trkpt lat="43.834468473042264" lon="11.15283215734785"><ele>38.0</ele><time>2026-03-28T15:09:05Z</time></trkpt><trkpt lat="43.834364491329254" lon="11.15273646050265"><ele>38.0</ele><time>2026-03-28T15:09:06Z</time></trkpt><trkpt lat="43.83424433960997" lon="11.152733279787814"><ele>38.0</ele><time>2026-03-28T15:09:07Z</time></trkpt><trkpt lat="43.83411358451167" lon="11.152786001452911"><ele>38.0</ele><time>2026-03-28T15:09:08Z</time></trkpt><trkpt lat="43.833979645971596" lon="11.152826539594056"><ele>38.0</ele><time>2026-03-28T15:09:09Z</time></trkpt><trkpt lat="43.83385964069438" lon="11.152721151030171"><ele>38.0</ele><time>2026-03-28T15:09:10Z</time></trkpt><trkpt lat="43.83372850235328" lon="11.15267173137239"><ele>38.0</ele><time>2026-03-28T15:09:11Z</time></trkpt><trkpt lat="43.83352599114022" lon="11.152589762206755"><ele>38.5</ele><time>2026-03-28T15:09:12Z</time></trkpt><trkpt lat="43.833283168212645" lon="11.152490943511939"><ele>39.0</ele><time>2026-03-28T15:09:13Z</time></trkpt><trkpt lat="43.83301793085681" lon="11.152375615610575"><ele>39.5</ele><time>2026-03-28T15:09:14Z</time></trkpt><trkpt lat="43.83275511750554" lon="11.152255439292368"><ele>40.0</ele><time>2026-03-28T15:09:15Z</time></trkpt><trkpt lat="43.83252798888158" lon="11.152147283161051"><ele>40.333333333333336</ele><time>2026-03-28T15:09:16Z</time></trkpt><trkpt lat="43.832313125236055" lon="11.152043334153511"><ele>40.666666666666664</ele><time>2026-03-28T15:09:17Z</time></trkpt><trkpt lat="43.83210783388386" lon="11.151964538097857"><ele>41.0</ele><time>2026-03-28T15:09:18Z</time></trkpt><trkpt lat="43.83193314867575" lon="11.15184723571014"><ele>40.0</ele><time>2026-03-28T15:09:19Z</time></trkpt><trkpt lat="43.83176542444215" lon="11.151746520119204"><ele>39.0</ele><time>2026-03-28T15:09:20Z</time></trkpt><trkpt lat="43.831599912106505" lon="11.151629813842224"><ele>38.0</ele><time>2026-03-28T15:09:21Z</time></trkpt><trkpt lat="43.83141770268723" lon="11.151475892862075"><ele>38.0</ele><time>2026-03-28T15:09:22Z</time></trkpt><trkpt lat="43.83123854644989" lon="11.151300819968288"><ele>38.0</ele><time>2026-03-28T15:09:23Z</time></trkpt><trkpt lat="43.83106965901839" lon="11.151100164069256"><ele>38.0</ele><time>2026-03-28T15:09:24Z</time></trkpt><trkpt lat="43.83091935063648" lon="11.150890098178593"><ele>38.33333333333333</ele><time>2026-03-28T15:09:25Z</time></trkpt><trkpt lat="43.83076482212532" lon="11.150702148085744"><ele>38.666666666666664</ele><time>2026-03-28T15:09:26Z</time></trkpt><trkpt lat="43.83063769628736" lon="11.150513056160603"><ele>39.0</ele><time>2026-03-28T15:09:27Z</time></trkpt><trkpt lat="43.830522183138434" lon="11.150337227940403"><ele>39.0</ele><time>2026-03-28T15:09:28Z</time></trkpt><trkpt lat="43.83040825659046" lon="11.150167391800492"><ele>39.0</ele><time>2026-03-28T15:09:29Z</time></trkpt><trkpt lat="43.83030860702191" lon="11.150018986646408"><ele>39.0</ele><time>2026-03-28T15:09:30Z</time></trkpt><trkpt lat="43.83022562601266" lon="11.149894909186024"><ele>39.0</ele><time>2026-03-28T15:09:31Z</time></trkpt><trkpt lat="43.83017078656904" lon="11.149771099747715"><ele>39.2</ele><time>2026-03-28T15:09:32Z</time></trkpt><trkpt lat="43.830188226573036" lon="11.149647617256752"><ele>39.4</ele><time>2026-03-28T15:09:33Z</time></trkpt><trkpt lat="43.83013865336011" lon="11.149535897353253"><ele>39.6</ele><time>2026-03-28T15:09:34Z</time></trkpt><trkpt lat="43.830036502993295" lon="11.14946062519567"><ele>39.8</ele><time>2026-03-28T15:09:35Z</time></trkpt><trkpt lat="43.82990285878739" lon="11.149392615975433"><ele>40.0</ele><time>2026-03-28T15:09:36Z</time></trkpt><trkpt lat="43.82975051195572" lon="11.149274977812155"><ele>38.5</ele><time>2026-03-28T15:09:37Z</time></trkpt><trkpt lat="43.829556140231965" lon="11.14906702862407"><ele>37.0</ele><time>2026-03-28T15:09:38Z</time></trkpt><trkpt lat="43.829312662155296" lon="11.14881086669962"><ele>37.5</ele><time>2026-03-28T15:09:39Z</time></trkpt><trkpt lat="43.82904398296502" lon="11.148521949136722"><ele>38.0</ele><time>2026-03-28T15:09:40Z</time></trkpt><trkpt lat="43.82879363248608" lon="11.148242836205808"><ele>38.0</ele><time>2026-03-28T15:09:41Z</time></trkpt><trkpt lat="43.82855473919629" lon="11.147974433603151"><ele>38.0</ele><time>2026-03-28T15:09:42Z</time></trkpt><trkpt lat="43.82830305155082" lon="11.147670585892769"><ele>37.0</ele><time>2026-03-28T15:09:43Z</time></trkpt><trkpt lat="43.82787228108356" lon="11.147273020748784"><ele>37.0</ele><time>2026-03-28T15:09:44Z</time></trkpt><trkpt lat="43.8275760518482" lon="11.146956191591237"><ele>37.0</ele><time>2026-03-28T15:09:45Z</time></trkpt><trkpt lat="43.82731588279435" lon="11.146679105489289"><ele>36.5</ele><time>2026-03-28T15:09:46Z</time></trkpt><trkpt lat="43.827087026914676" lon="11.146416720689597"><ele>36.0</ele><time>2026-03-28T15:09:47Z</time></trkpt><trkpt lat="43.82687318707791" lon="11.146181360473447"><ele>36.0</ele><time>2026-03-28T15:09:48Z</time></trkpt><trkpt lat="43.82666259568287" lon="11.145953103207681"><ele>36.0</ele><time>2026-03-28T15:09:49Z</time></trkpt><trkpt lat="43.82646481271309" lon="11.145737100230944"><ele>36.0</ele><time>2026-03-28T15:09:50Z</time></trkpt><trkpt lat="43.82628086525635" lon="11.1455389091667"><ele>36.0</ele><time>2026-03-28T15:09:51Z</time></trkpt><trkpt lat="43.82611074874854" lon="11.145355714387566"><ele>36.0</ele><time>2026-03-28T15:09:52Z</time></trkpt><trkpt lat="43.82596706419717" lon="11.145208575818511"><ele>36.5</ele><time>2026-03-28T15:09:53Z</time></trkpt><trkpt lat="43.825841560633464" lon="11.145074211611988"><ele>37.0</ele><time>2026-03-28T15:09:54Z</time></trkpt><trkpt lat="43.82573553872578" lon="11.144952392402333"><ele>37.5</ele><time>2026-03-28T15:09:55Z</time></trkpt><trkpt lat="43.825641859324506" lon="11.144849090035754"><ele>38.0</ele><time>2026-03-28T15:09:56Z</time></trkpt><trkpt lat="43.82555275793146" lon="11.144753106582248"><ele>38.0</ele><time>2026-03-28T15:09:57Z</time></trkpt><trkpt lat="43.82547101050004" lon="11.144665853638514"><ele>38.0</ele><time>2026-03-28T15:09:58Z</time></trkpt><trkpt lat="43.82540336911032" lon="11.144587755352095"><ele>38.0</ele><time>2026-03-28T15:09:59Z</time></trkpt><trkpt lat="43.82535255012405" lon="11.144497346509242"><ele>38.0</ele><time>2026-03-28T15:10:00Z</time></trkpt><trkpt lat="43.82532745824531" lon="11.144361838731026"><ele>38.0</ele><time>2026-03-28T15:10:01Z</time></trkpt><trkpt lat="43.825337776998744" lon="11.144181959412089"><ele>37.8</ele><time>2026-03-28T15:10:02Z</time></trkpt><trkpt lat="43.825381844835846" lon="11.144003788211894"><ele>37.599999999999994</ele><time>2026-03-28T15:10:03Z</time></trkpt><trkpt lat="43.82539587336843" lon="11.143858970064874"><ele>37.400000000000006</ele><time>2026-03-28T15:10:04Z</time></trkpt><trkpt lat="43.825503686014244" lon="11.143793746914385"><ele>37.2</ele><time>2026-03-28T15:10:05Z</time></trkpt><trkpt lat="43.82555295670568" lon="11.1437266189962"><ele>37.0</ele><time>2026-03-28T15:10:06Z</time></trkpt><trkpt lat="43.82561296832067" lon="11.143644857502585"><ele>37.0</ele><time>2026-03-28T15:10:07Z</time></trkpt><trkpt lat="43.82568481558426" lon="11.143546970852325"><ele>37.0</ele><time>2026-03-28T15:10:08Z</time></trkpt><trkpt lat="43.825766431571104" lon="11.143435774970136"><ele>37.0</ele><time>2026-03-28T15:10:09Z</time></trkpt><trkpt lat="43.825836699838774" lon="11.143314431271623"><ele>37.0</ele><time>2026-03-28T15:10:10Z</time></trkpt><trkpt lat="43.82590117054617" lon="11.143227742170737"><ele>37.0</ele><time>2026-03-28T15:10:11Z</time></trkpt><trkpt lat="43.825963784099336" lon="11.143147458938582"><ele>37.0</ele><time>2026-03-28T15:10:12Z</time></trkpt><trkpt lat="43.826042614964734" lon="11.143038650483769"><ele>37.0</ele><time>2026-03-28T15:10:13Z</time></trkpt><trkpt lat="43.82612978829844" lon="11.14293021136778"><ele>37.0</ele><time>2026-03-28T15:10:14Z</time></trkpt><trkpt lat="43.82621692735514" lon="11.142817500142176"><ele>37.0</ele><time>2026-03-28T15:10:15Z</time></trkpt><trkpt lat="43.826303254816736" lon="11.142691964030666"><ele>37.0</ele><time>2026-03-28T15:10:16Z</time></trkpt><trkpt lat="43.826397255103416" lon="11.142558650623812"><ele>37.0</ele><time>2026-03-28T15:10:17Z</time></trkpt><trkpt lat="43.82648420380122" lon="11.142445504998138"><ele>37.0</ele><time>2026-03-28T15:10:18Z</time></trkpt><trkpt lat="43.826565632065446" lon="11.142337158200796"><ele>37.0</ele><time>2026-03-28T15:10:19Z</time></trkpt><trkpt lat="43.826650597218084" lon="11.142226634599712"><ele>37.25</ele><time>2026-03-28T15:10:20Z</time></trkpt><trkpt lat="43.8267387117692" lon="11.142112237988753"><ele>37.5</ele><time>2026-03-28T15:10:21Z</time></trkpt><trkpt lat="43.826830002979264" lon="11.141991027019177"><ele>37.75</ele><time>2026-03-28T15:10:22Z</time></trkpt><trkpt lat="43.82691005424378" lon="11.14186831420486"><ele>38.0</ele><time>2026-03-28T15:10:23Z</time></trkpt><trkpt lat="43.82698781987344" lon="11.141723011454742"><ele>38.0</ele><time>2026-03-28T15:10:24Z</time></trkpt><trkpt lat="43.82705584632594" lon="11.141572299074044"><ele>38.0</ele><time>2026-03-28T15:10:25Z</time></trkpt><trkpt lat="43.82710324335439" lon="11.141413731879961"><ele>38.0</ele><time>2026-03-28T15:10:26Z</time></trkpt><trkpt lat="43.82713854867965" lon="11.141251065353238"><ele>38.0</ele><time>2026-03-28T15:10:27Z</time></trkpt><trkpt lat="43.82716734751263" lon="11.141065316542287"><ele>37.33333333333333</ele><time>2026-03-28T15:10:28Z</time></trkpt><trkpt lat="43.827215704882086" lon="11.140854521049437"><ele>36.666666666666664</ele><time>2026-03-28T15:10:29Z</time></trkpt><trkpt lat="43.82726040146046" lon="11.140604062041811"><ele>36.0</ele><time>2026-03-28T15:10:30Z</time></trkpt><trkpt lat="43.82730560918665" lon="11.140350738799416"><ele>36.0</ele><time>2026-03-28T15:10:31Z</time></trkpt><trkpt lat="43.82734694671441" lon="11.14011910236253"><ele>36.0</ele><time>2026-03-28T15:10:32Z</time></trkpt><trkpt lat="43.82737266416775" lon="11.139909611796172"><ele>36.0</ele><time>2026-03-28T15:10:33Z</time></trkpt><trkpt lat="43.827417613223936" lon="11.139734600501532"><ele>36.0</ele><time>2026-03-28T15:10:34Z</time></trkpt><trkpt lat="43.82748207345499" lon="11.139570503132685"><ele>36.0</ele><time>2026-03-28T15:10:35Z</time></trkpt><trkpt lat="43.82756852379863" lon="11.139419898408072"><ele>36.0</ele><time>2026-03-28T15:10:36Z</time></trkpt><trkpt lat="43.82766890698599" lon="11.139285549544896"><ele>36.0</ele><time>2026-03-28T15:10:37Z</time></trkpt><trkpt lat="43.827779735813344" lon="11.139154253130895"><ele>36.666666666666664</ele><time>2026-03-28T15:10:38Z</time></trkpt><trkpt lat="43.82790163558899" lon="11.139034152936668"><ele>37.33333333333333</ele><time>2026-03-28T15:10:39Z</time></trkpt><trkpt lat="43.82804111314422" lon="11.13891325873283"><ele>38.0</ele><time>2026-03-28T15:10:40Z</time></trkpt><trkpt lat="43.82821421089309" lon="11.138769815206564"><ele>38.0</ele><time>2026-03-28T15:10:41Z</time></trkpt><trkpt lat="43.82841008514102" lon="11.138615255483373"><ele>38.0</ele><time>2026-03-28T15:10:42Z</time></trkpt><trkpt lat="43.82861798969499" lon="11.138443091266822"><ele>39.0</ele><time>2026-03-28T15:10:43Z</time></trkpt><trkpt lat="43.82883616279388" lon="11.138262597575872"><ele>40.0</ele><time>2026-03-28T15:10:44Z</time></trkpt><trkpt lat="43.82903361499036" lon="11.138087275971067"><ele>40.0</ele><time>2026-03-28T15:10:45Z</time></trkpt><trkpt lat="43.82921103501499" lon="11.13792524130941"><ele>40.0</ele><time>2026-03-28T15:10:46Z</time></trkpt><trkpt lat="43.82938007669292" lon="11.137781316766542"><ele>40.0</ele><time>2026-03-28T15:10:47Z</time></trkpt><trkpt lat="43.82954997550744" lon="11.137636046878908"><ele>39.333333333333336</ele><time>2026-03-28T15:10:48Z</time></trkpt><trkpt lat="43.829723073463576" lon="11.1374855567198"><ele>38.666666666666664</ele><time>2026-03-28T15:10:49Z</time></trkpt><trkpt lat="43.82990714932931" lon="11.137320577724598"><ele>38.0</ele><time>2026-03-28T15:10:50Z</time></trkpt><trkpt lat="43.83010765666659" lon="11.137146200211104"><ele>39.5</ele><time>2026-03-28T15:10:51Z</time></trkpt><trkpt lat="43.830325330771764" lon="11.136958198091511"><ele>41.0</ele><time>2026-03-28T15:10:52Z</time></trkpt><trkpt lat="43.830553751027544" lon="11.136764233973542"><ele>41.0</ele><time>2026-03-28T15:10:53Z</time></trkpt><trkpt lat="43.83076784460879" lon="11.136590202267266"><ele>41.0</ele><time>2026-03-28T15:10:54Z</time></trkpt><trkpt lat="43.83096461644316" lon="11.136438810470796"><ele>41.666666666666664</ele><time>2026-03-28T15:10:55Z</time></trkpt><trkpt lat="43.83115100357542" lon="11.136286508599524"><ele>42.333333333333336</ele><time>2026-03-28T15:10:56Z</time></trkpt><trkpt lat="43.83132229155073" lon="11.136121599446884"><ele>43.0</ele><time>2026-03-28T15:10:57Z</time></trkpt><trkpt lat="43.831480203849516" lon="11.135939246870624"><ele>43.0</ele><time>2026-03-28T15:10:58Z</time></trkpt><trkpt lat="43.831623580636396" lon="11.135735611041806"><ele>43.0</ele><time>2026-03-28T15:10:59Z</time></trkpt><trkpt lat="43.83175470534916" lon="11.135528445454069"><ele>43.0</ele><time>2026-03-28T15:11:00Z</time></trkpt><trkpt lat="43.83186915031823" lon="11.135330699658647"><ele>42.66666666666667</ele><time>2026-03-28T15:11:01Z</time></trkpt><trkpt lat="43.83196667161224" lon="11.135141596808984"><ele>42.333333333333336</ele><time>2026-03-28T15:11:02Z</time></trkpt><trkpt lat="43.83204786361795" lon="11.134959485080525"><ele>42.0</ele><time>2026-03-28T15:11:03Z</time></trkpt><trkpt lat="43.83213168641791" lon="11.134764403953485"><ele>41.666666666666664</ele><time>2026-03-28T15:11:04Z</time></trkpt><trkpt lat="43.832211276291254" lon="11.134535304068669"><ele>41.33333333333333</ele><time>2026-03-28T15:11:05Z</time></trkpt><trkpt lat="43.83229956458062" lon="11.134316674589977"><ele>41.0</ele><time>2026-03-28T15:11:06Z</time></trkpt><trkpt lat="43.83238995365213" lon="11.134111708399717"><ele>41.0</ele><time>2026-03-28T15:11:07Z</time></trkpt><trkpt lat="43.8324677631482" lon="11.13392129500266"><ele>41.0</ele><time>2026-03-28T15:11:08Z</time></trkpt><trkpt lat="43.83253667960164" lon="11.133747573774462"><ele>41.0</ele><time>2026-03-28T15:11:09Z</time></trkpt><trkpt lat="43.83259632565659" lon="11.133604560245663"><ele>41.0</ele><time>2026-03-28T15:11:10Z</time></trkpt><trkpt lat="43.83263126417628" lon="11.133507455594374"><ele>41.5</ele><time>2026-03-28T15:11:11Z</time></trkpt><trkpt lat="43.83267650391992" lon="11.133367136616469"><ele>42.0</ele><time>2026-03-28T15:11:13Z</time></trkpt><trkpt lat="43.832738440459" lon="11.133287171106304"><ele>42.5</ele><time>2026-03-28T15:11:14Z</time></trkpt><trkpt lat="43.832774029796774" lon="11.133196097781974"><ele>43.0</ele><time>2026-03-28T15:11:15Z</time></trkpt><trkpt lat="43.832803092026104" lon="11.133091718747096"><ele>43.5</ele><time>2026-03-28T15:11:19Z</time></trkpt><trkpt lat="43.83283275298348" lon="11.133009270133202"><ele>44.0</ele><time>2026-03-28T15:11:21Z</time></trkpt><trkpt lat="43.832875132391145" lon="11.1329135520193"><ele>44.400000000000006</ele><time>2026-03-28T15:11:23Z</time></trkpt><trkpt lat="43.83292752289628" lon="11.132784975503384"><ele>44.8</ele><time>2026-03-28T15:11:25Z</time></trkpt><trkpt lat="43.832967820810964" lon="11.132680250154992"><ele>45.2</ele><time>2026-03-28T15:11:26Z</time></trkpt><trkpt lat="43.83300537365715" lon="11.132569755803052"><ele>45.599999999999994</ele><time>2026-03-28T15:11:27Z</time></trkpt><trkpt lat="43.833053575593105" lon="11.13246337677603"><ele>46.0</ele><time>2026-03-28T15:11:28Z</time></trkpt><trkpt lat="43.833090132247676" lon="11.132319930201453"><ele>45.0</ele><time>2026-03-28T15:11:30Z</time></trkpt><trkpt lat="43.83314753988825" lon="11.132182585055693"><ele>44.0</ele><time>2026-03-28T15:11:32Z</time></trkpt><trkpt lat="43.83321132971386" lon="11.132087258204484"><ele>43.0</ele><time>2026-03-28T15:11:33Z</time></trkpt><trkpt lat="43.83329140562683" lon="11.13200105156032"><ele>42.0</ele><time>2026-03-28T15:11:34Z</time></trkpt><trkpt lat="43.83336604351872" lon="11.131934389753729"><ele>41.0</ele><time>2026-03-28T15:11:35Z</time></trkpt><trkpt lat="43.833390979945" lon="11.131844124990648"><ele>41.0</ele><time>2026-03-28T15:11:36Z</time></trkpt><trkpt lat="43.833365397496934" lon="11.131743224672388"><ele>41.0</ele><time>2026-03-28T15:11:37Z</time></trkpt><trkpt lat="43.83330390107103" lon="11.131661209798084"><ele>41.0</ele><time>2026-03-28T15:11:38Z</time></trkpt><trkpt lat="43.83322262890891" lon="11.131603618171622"><ele>41.0</ele><time>2026-03-28T15:11:39Z</time></trkpt><trkpt lat="43.83311194620296" lon="11.13165693724764"><ele>41.0</ele><time>2026-03-28T15:11:40Z</time></trkpt><trkpt lat="43.833027604573495" lon="11.131741689865324"><ele>41.0</ele><time>2026-03-28T15:11:41Z</time></trkpt><trkpt lat="43.832937765737796" lon="11.131841153763336"><ele>41.0</ele><time>2026-03-28T15:11:42Z</time></trkpt><trkpt lat="43.83285607893785" lon="11.131934121936279"><ele>41.0</ele><time>2026-03-28T15:11:43Z</time></trkpt><trkpt lat="43.83277154078966" lon="11.131975997439621"><ele>41.0</ele><time>2026-03-28T15:11:44Z</time></trkpt><trkpt lat="43.832672246931246" lon="11.131998289457291"><ele>41.0</ele><time>2026-03-28T15:11:45Z</time></trkpt><trkpt lat="43.83256729448141" lon="11.132006802808501"><ele>41.0</ele><time>2026-03-28T15:11:46Z</time></trkpt><trkpt lat="43.83245342969615" lon="11.131998350286935"><ele>41.0</ele><time>2026-03-28T15:11:47Z</time></trkpt><trkpt lat="43.83233445975313" lon="11.131989188558261"><ele>41.0</ele><time>2026-03-28T15:11:48Z</time></trkpt><trkpt lat="43.83220783904212" lon="11.131976600165883"><ele>41.0</ele><time>2026-03-28T15:11:49Z</time></trkpt><trkpt lat="43.832079909897566" lon="11.131967886011276"><ele>41.0</ele><time>2026-03-28T15:11:50Z</time></trkpt><trkpt lat="43.831954582762116" lon="11.131957204495768"><ele>41.0</ele><time>2026-03-28T15:11:51Z</time></trkpt><trkpt lat="43.83183055517904" lon="11.131943876445195"><ele>41.0</ele><time>2026-03-28T15:11:52Z</time></trkpt><trkpt lat="43.831711496751645" lon="11.131929604724352"><ele>41.0</ele><time>2026-03-28T15:11:53Z</time></trkpt><trkpt lat="43.83159284253088" lon="11.13192128432946"><ele>41.0</ele><time>2026-03-28T15:11:54Z</time></trkpt><trkpt lat="43.83148123783903" lon="11.131906932524203"><ele>41.0</ele><time>2026-03-28T15:11:55Z</time></trkpt><trkpt lat="43.83137581339559" lon="11.131900848151238"><ele>41.0</ele><time>2026-03-28T15:11:56Z</time></trkpt><trkpt lat="43.831268485628826" lon="11.131893836997993"><ele>41.0</ele><time>2026-03-28T15:11:57Z</time></trkpt><trkpt lat="43.831159494896106" lon="11.131885174714196"><ele>41.0</ele><time>2026-03-28T15:11:58Z</time></trkpt><trkpt lat="43.831048109643554" lon="11.131877381833842"><ele>40.75</ele><time>2026-03-28T15:11:59Z</time></trkpt><trkpt lat="43.83093211575921" lon="11.13187426802562"><ele>40.5</ele><time>2026-03-28T15:12:00Z</time></trkpt><trkpt lat="43.83082377081217" lon="11.131844095467574"><ele>40.25</ele><time>2026-03-28T15:12:01Z</time></trkpt><trkpt lat="43.83071190482805" lon="11.13183804152425"><ele>40.0</ele><time>2026-03-28T15:12:02Z</time></trkpt><trkpt lat="43.830603143150356" lon="11.131777806609891"><ele>40.0</ele><time>2026-03-28T15:12:03Z</time></trkpt><trkpt lat="43.83050227737465" lon="11.131696398354434"><ele>40.0</ele><time>2026-03-28T15:12:04Z</time></trkpt><trkpt lat="43.83040019892306" lon="11.131604319182092"><ele>40.0</ele><time>2026-03-28T15:12:05Z</time></trkpt><trkpt lat="43.83029679834429" lon="11.1315043596204"><ele>40.0</ele><time>2026-03-28T15:12:06Z</time></trkpt><trkpt lat="43.83019141782383" lon="11.13139939399702"><ele>39.75</ele><time>2026-03-28T15:12:07Z</time></trkpt><trkpt lat="43.8300883758086" lon="11.131292772745498"><ele>39.5</ele><time>2026-03-28T15:12:08Z</time></trkpt><trkpt lat="43.82999133351515" lon="11.131186141111131"><ele>39.25</ele><time>2026-03-28T15:12:09Z</time></trkpt><trkpt lat="43.82988455685438" lon="11.131096061461037"><ele>39.0</ele><time>2026-03-28T15:12:10Z</time></trkpt><trkpt lat="43.8297855872358" lon="11.13100761064766"><ele>39.0</ele><time>2026-03-28T15:12:11Z</time></trkpt><trkpt lat="43.82969693307027" lon="11.130926857492687"><ele>39.0</ele><time>2026-03-28T15:12:12Z</time></trkpt><trkpt lat="43.82961305326525" lon="11.130846588243214"><ele>39.0</ele><time>2026-03-28T15:12:13Z</time></trkpt><trkpt lat="43.82952995119936" lon="11.130765176033124"><ele>39.0</ele><time>2026-03-28T15:12:14Z</time></trkpt><trkpt lat="43.829452382889095" lon="11.130698262431553"><ele>39.0</ele><time>2026-03-28T15:12:15Z</time></trkpt><trkpt lat="43.829376296690256" lon="11.13063092951539"><ele>38.833333333333336</ele><time>2026-03-28T15:12:16Z</time></trkpt><trkpt lat="43.82929993968278" lon="11.130564190885766"><ele>38.666666666666664</ele><time>2026-03-28T15:12:17Z</time></trkpt><trkpt lat="43.829220653333316" lon="11.130495414050241"><ele>38.5</ele><time>2026-03-28T15:12:18Z</time></trkpt><trkpt lat="43.82914310809788" lon="11.130429141511383"><ele>38.33333333333333</ele><time>2026-03-28T15:12:19Z</time></trkpt><trkpt lat="43.8290660375265" lon="11.130361516345417"><ele>38.166666666666664</ele><time>2026-03-28T15:12:20Z</time></trkpt><trkpt lat="43.828998280309555" lon="11.13030132010002"><ele>38.0</ele><time>2026-03-28T15:12:21Z</time></trkpt><trkpt lat="43.82893520211807" lon="11.130242152216201"><ele>38.0</ele><time>2026-03-28T15:12:22Z</time></trkpt><trkpt lat="43.828877947767545" lon="11.13019295041808"><ele>38.0</ele><time>2026-03-28T15:12:23Z</time></trkpt><trkpt lat="43.82882078527453" lon="11.130145600211451"><ele>38.0</ele><time>2026-03-28T15:12:24Z</time></trkpt><trkpt lat="43.82876348392324" lon="11.130097734179705"><ele>38.0</ele><time>2026-03-28T15:12:25Z</time></trkpt><trkpt lat="43.82870454715102" lon="11.13004848977407"><ele>38.0</ele><time>2026-03-28T15:12:26Z</time></trkpt><trkpt lat="43.82864837702222" lon="11.129997592541656"><ele>38.0</ele><time>2026-03-28T15:12:27Z</time></trkpt><trkpt lat="43.82854207675056" lon="11.12990590080195"><ele>38.199999999999996</ele><time>2026-03-28T15:12:29Z</time></trkpt><trkpt lat="43.8284612237691" lon="11.129838644305723"><ele>38.4</ele><time>2026-03-28T15:12:30Z</time></trkpt><trkpt lat="43.82837371311335" lon="11.129759771657945"><ele>38.599999999999994</ele><time>2026-03-28T15:12:31Z</time></trkpt><trkpt lat="43.82829327655717" lon="11.129691219799703"><ele>38.8</ele><time>2026-03-28T15:12:32Z</time></trkpt><trkpt lat="43.82821419529674" lon="11.129621842952714"><ele>39.0</ele><time>2026-03-28T15:12:33Z</time></trkpt><trkpt lat="43.82814330224899" lon="11.129559718120161"><ele>39.0</ele><time>2026-03-28T15:12:34Z</time></trkpt><trkpt lat="43.82808742977334" lon="11.129509301203893"><ele>39.0</ele><time>2026-03-28T15:12:35Z</time></trkpt><trkpt lat="43.827993298264445" lon="11.12942522997808"><ele>39.0</ele><time>2026-03-28T15:12:37Z</time></trkpt><trkpt lat="43.82791817756529" lon="11.129357182690349"><ele>39.0</ele><time>2026-03-28T15:12:39Z</time></trkpt><trkpt lat="43.82786467537187" lon="11.129238563161076"><ele>39.0</ele><time>2026-03-28T15:12:41Z</time></trkpt><trkpt lat="43.82782545283096" lon="11.129102809062044"><ele>39.0</ele><time>2026-03-28T15:12:43Z</time></trkpt><trkpt lat="43.827735759362206" lon="11.129022102135924"><ele>39.0</ele><time>2026-03-28T15:12:45Z</time></trkpt><trkpt lat="43.827627309494396" lon="11.129052917856352"><ele>39.0</ele><time>2026-03-28T15:12:47Z</time></trkpt><trkpt lat="43.82749693190406" lon="11.128993383017614"><ele>39.0</ele><time>2026-03-28T15:12:49Z</time></trkpt><trkpt lat="43.82742595665196" lon="11.12891808366641"><ele>39.0</ele><time>2026-03-28T15:12:50Z</time></trkpt><trkpt lat="43.827330271150096" lon="11.128835766193209"><ele>38.6</ele><time>2026-03-28T15:12:51Z</time></trkpt><trkpt lat="43.82722288331669" lon="11.128767749521423"><ele>38.2</ele><time>2026-03-28T15:12:52Z</time></trkpt><trkpt lat="43.82712744354671" lon="11.128683298848587"><ele>37.800000000000004</ele><time>2026-03-28T15:12:53Z</time></trkpt><trkpt lat="43.82703305290704" lon="11.12860267910415"><ele>37.4</ele><time>2026-03-28T15:12:54Z</time></trkpt><trkpt lat="43.82695032440897" lon="11.128525713237579"><ele>37.0</ele><time>2026-03-28T15:12:55Z</time></trkpt><trkpt lat="43.826867340590695" lon="11.128444944745503"><ele>36.833333333333336</ele><time>2026-03-28T15:12:56Z</time></trkpt><trkpt lat="43.82678185210614" lon="11.128366740109751"><ele>36.66666666666667</ele><time>2026-03-28T15:12:57Z</time></trkpt><trkpt lat="43.826701017361174" lon="11.12829352457826"><ele>36.5</ele><time>2026-03-28T15:12:58Z</time></trkpt><trkpt lat="43.82662974312705" lon="11.128237645665028"><ele>36.333333333333336</ele><time>2026-03-28T15:12:59Z</time></trkpt><trkpt lat="43.82657297438054" lon="11.128196278831549"><ele>36.166666666666664</ele><time>2026-03-28T15:13:00Z</time></trkpt><trkpt lat="43.82650488429942" lon="11.128122066078001"><ele>36.0</ele><time>2026-03-28T15:13:02Z</time></trkpt><trkpt lat="43.826436412877946" lon="11.12806201418303"><ele>36.5</ele><time>2026-03-28T15:13:04Z</time></trkpt><trkpt lat="43.82635047511613" lon="11.127988097275969"><ele>37.0</ele><time>2026-03-28T15:13:06Z</time></trkpt><trkpt lat="43.82628477637983" lon="11.127860585242445"><ele>37.5</ele><time>2026-03-28T15:13:08Z</time></trkpt><trkpt lat="43.82625699425427" lon="11.127693211359713"><ele>38.0</ele><time>2026-03-28T15:13:10Z</time></trkpt><trkpt lat="43.82619262699186" lon="11.127566914632414"><ele>38.0</ele><time>2026-03-28T15:13:12Z</time></trkpt><trkpt lat="43.82613480908204" lon="11.127450328664922"><ele>38.0</ele><time>2026-03-28T15:13:14Z</time></trkpt><trkpt lat="43.826032850640594" lon="11.127502124492793"><ele>38.0</ele><time>2026-03-28T15:13:15Z</time></trkpt><trkpt lat="43.82596181165066" lon="11.127502955515785"><ele>38.0</ele><time>2026-03-28T15:13:16Z</time></trkpt><trkpt lat="43.82586455081146" lon="11.127480261714608"><ele>38.0</ele><time>2026-03-28T15:13:17Z</time></trkpt><trkpt lat="43.82575583678126" lon="11.127434644065419"><ele>37.75</ele><time>2026-03-28T15:13:18Z</time></trkpt><trkpt lat="43.825650746228696" lon="11.127372018718345"><ele>37.5</ele><time>2026-03-28T15:13:19Z</time></trkpt><trkpt lat="43.825528976519806" lon="11.127281860982437"><ele>37.25</ele><time>2026-03-28T15:13:20Z</time></trkpt><trkpt lat="43.82538970377277" lon="11.127172156905445"><ele>37.0</ele><time>2026-03-28T15:13:21Z</time></trkpt><trkpt lat="43.82525746702228" lon="11.127058205580264"><ele>36.75</ele><time>2026-03-28T15:13:22Z</time></trkpt><trkpt lat="43.825136469683294" lon="11.126954724727197"><ele>36.5</ele><time>2026-03-28T15:13:23Z</time></trkpt><trkpt lat="43.82501874884571" lon="11.12685759308437"><ele>36.25</ele><time>2026-03-28T15:13:24Z</time></trkpt><trkpt lat="43.8249010549056" lon="11.126763373529382"><ele>36.0</ele><time>2026-03-28T15:13:25Z</time></trkpt><trkpt lat="43.8247864267977" lon="11.126671132625987"><ele>36.0</ele><time>2026-03-28T15:13:26Z</time></trkpt><trkpt lat="43.82468168994945" lon="11.126557659604433"><ele>36.0</ele><time>2026-03-28T15:13:27Z</time></trkpt><trkpt lat="43.824560984703766" lon="11.126454323139315"><ele>36.0</ele><time>2026-03-28T15:13:28Z</time></trkpt><trkpt lat="43.82442155425334" lon="11.126367754061448"><ele>36.0</ele><time>2026-03-28T15:13:29Z</time></trkpt><trkpt lat="43.82428835223353" lon="11.12623778988504"><ele>36.0</ele><time>2026-03-28T15:13:30Z</time></trkpt><trkpt lat="43.82415326507485" lon="11.12610989265353"><ele>36.0</ele><time>2026-03-28T15:13:31Z</time></trkpt><trkpt lat="43.82401982871588" lon="11.125989134124215"><ele>36.0</ele><time>2026-03-28T15:13:32Z</time></trkpt><trkpt lat="43.82389013283049" lon="11.125874457768177"><ele>36.0</ele><time>2026-03-28T15:13:33Z</time></trkpt><trkpt lat="43.82375957917494" lon="11.125758002649187"><ele>36.0</ele><time>2026-03-28T15:13:34Z</time></trkpt><trkpt lat="43.82362043643225" lon="11.125638558298052"><ele>36.0</ele><time>2026-03-28T15:13:35Z</time></trkpt><trkpt lat="43.82347326282075" lon="11.125506249193032"><ele>36.0</ele><time>2026-03-28T15:13:36Z</time></trkpt><trkpt lat="43.82332320026293" lon="11.125382685270267"><ele>36.0</ele><time>2026-03-28T15:13:37Z</time></trkpt><trkpt lat="43.82317978168109" lon="11.125275712573556"><ele>36.0</ele><time>2026-03-28T15:13:38Z</time></trkpt><trkpt lat="43.82305304824769" lon="11.125141410302485"><ele>36.0</ele><time>2026-03-28T15:13:39Z</time></trkpt><trkpt lat="43.8229159432487" lon="11.125049667166442"><ele>36.0</ele><time>2026-03-28T15:13:40Z</time></trkpt><trkpt lat="43.82279345550431" lon="11.124937923620733"><ele>36.0</ele><time>2026-03-28T15:13:41Z</time></trkpt><trkpt lat="43.82266024693751" lon="11.124819980954918"><ele>36.0</ele><time>2026-03-28T15:13:42Z</time></trkpt><trkpt lat="43.82252214289897" lon="11.124700141739615"><ele>36.0</ele><time>2026-03-28T15:13:43Z</time></trkpt><trkpt lat="43.82237946218437" lon="11.124586161032608"><ele>36.0</ele><time>2026-03-28T15:13:44Z</time></trkpt><trkpt lat="43.82224534761398" lon="11.124470237257997"><ele>36.0</ele><time>2026-03-28T15:13:45Z</time></trkpt><trkpt lat="43.82212259695787" lon="11.124363201727954"><ele>36.0</ele><time>2026-03-28T15:13:46Z</time></trkpt><trkpt lat="43.82201202538807" lon="11.12426947156328"><ele>36.0</ele><time>2026-03-28T15:13:47Z</time></trkpt><trkpt lat="43.82189739173475" lon="11.12417080661575"><ele>36.0</ele><time>2026-03-28T15:13:48Z</time></trkpt><trkpt lat="43.82178230534865" lon="11.12407207888305"><ele>36.0</ele><time>2026-03-28T15:13:49Z</time></trkpt><trkpt lat="43.8216742239943" lon="11.123976057184038"><ele>36.0</ele><time>2026-03-28T15:13:50Z</time></trkpt><trkpt lat="43.82157724967323" lon="11.123892090013085"><ele>36.0</ele><time>2026-03-28T15:13:51Z</time></trkpt><trkpt lat="43.82148096916631" lon="11.12380883352051"><ele>36.0</ele><time>2026-03-28T15:13:52Z</time></trkpt><trkpt lat="43.821388432194496" lon="11.12372902792087"><ele>36.0</ele><time>2026-03-28T15:13:53Z</time></trkpt><trkpt lat="43.821297439302164" lon="11.123652410472763"><ele>36.0</ele><time>2026-03-28T15:13:54Z</time></trkpt><trkpt lat="43.82121776972245" lon="11.123582875567926"><ele>36.0</ele><time>2026-03-28T15:13:55Z</time></trkpt><trkpt lat="43.821143187208904" lon="11.123519292477091"><ele>36.0</ele><time>2026-03-28T15:13:56Z</time></trkpt><trkpt lat="43.82107689743398" lon="11.123461232223871"><ele>36.0</ele><time>2026-03-28T15:13:57Z</time></trkpt><trkpt lat="43.821012685849276" lon="11.123406197351384"><ele>36.0</ele><time>2026-03-28T15:13:58Z</time></trkpt><trkpt lat="43.82095551999301" lon="11.123351568668971"><ele>35.85714285714286</ele><time>2026-03-28T15:13:59Z</time></trkpt><trkpt lat="43.8209093910349" lon="11.123291036837177"><ele>35.714285714285715</ele><time>2026-03-28T15:14:00Z</time></trkpt><trkpt lat="43.820874259636" lon="11.123216804666962"><ele>35.57142857142857</ele><time>2026-03-28T15:14:01Z</time></trkpt><trkpt lat="43.82084794675531" lon="11.123136149448486"><ele>35.42857142857143</ele><time>2026-03-28T15:14:02Z</time></trkpt><trkpt lat="43.820851833072965" lon="11.123035321558966"><ele>35.285714285714285</ele><time>2026-03-28T15:14:03Z</time></trkpt><trkpt lat="43.82082704252873" lon="11.122937049441974"><ele>35.142857142857146</ele><time>2026-03-28T15:14:04Z</time></trkpt><trkpt lat="43.82078547207498" lon="11.122854683125276"><ele>35.0</ele><time>2026-03-28T15:14:05Z</time></trkpt><trkpt lat="43.82071522834817" lon="11.122732774064717"><ele>35.0</ele><time>2026-03-28T15:14:07Z</time></trkpt><trkpt lat="43.82054671500504" lon="11.122836510141402"><ele>35.0</ele><time>2026-03-28T15:14:08Z</time></trkpt><trkpt lat="43.82045786919111" lon="11.122859179808797"><ele>35.0</ele><time>2026-03-28T15:14:09Z</time></trkpt><trkpt lat="43.8203744766873" lon="11.12285276504814"><ele>35.0</ele><time>2026-03-28T15:14:10Z</time></trkpt><trkpt lat="43.82029934884212" lon="11.122816734315425"><ele>35.0</ele><time>2026-03-28T15:14:11Z</time></trkpt><trkpt lat="43.820228407327946" lon="11.12272619338054"><ele>35.2</ele><time>2026-03-28T15:14:12Z</time></trkpt><trkpt lat="43.82013051605449" lon="11.12267020272852"><ele>35.4</ele><time>2026-03-28T15:14:13Z</time></trkpt><trkpt lat="43.82004049188119" lon="11.122592749835524"><ele>35.6</ele><time>2026-03-28T15:14:14Z</time></trkpt><trkpt lat="43.8199511512418" lon="11.122531744084755"><ele>35.8</ele><time>2026-03-28T15:14:15Z</time></trkpt><trkpt lat="43.81986313343635" lon="11.122474255107612"><ele>36.0</ele><time>2026-03-28T15:14:16Z</time></trkpt><trkpt lat="43.81976802952748" lon="11.122408391319857"><ele>35.833333333333336</ele><time>2026-03-28T15:14:17Z</time></trkpt><trkpt lat="43.81967401887853" lon="11.122343348721847"><ele>35.666666666666664</ele><time>2026-03-28T15:14:18Z</time></trkpt><trkpt lat="43.81959288667647" lon="11.12228655301714"><ele>35.5</ele><time>2026-03-28T15:14:19Z</time></trkpt><trkpt lat="43.81951631165904" lon="11.122237028972316"><ele>35.33333333333333</ele><time>2026-03-28T15:14:20Z</time></trkpt><trkpt lat="43.819451726606715" lon="11.122193288181212"><ele>35.166666666666664</ele><time>2026-03-28T15:14:21Z</time></trkpt><trkpt lat="43.81939156690951" lon="11.122158474185728"><ele>35.0</ele><time>2026-03-28T15:14:22Z</time></trkpt><trkpt lat="43.819329557808274" lon="11.122126787150835"><ele>34.83333333333333</ele><time>2026-03-28T15:14:23Z</time></trkpt><trkpt lat="43.81926721958081" lon="11.12209851853342"><ele>34.666666666666664</ele><time>2026-03-28T15:14:24Z</time></trkpt><trkpt lat="43.819159909148205" lon="11.122045038586826"><ele>34.5</ele><time>2026-03-28T15:14:26Z</time></trkpt><trkpt lat="43.819069573294726" lon="11.121994684087795"><ele>34.333333333333336</ele><time>2026-03-28T15:14:28Z</time></trkpt><trkpt lat="43.81900266955426" lon="11.121972196430669"><ele>34.16666666666667</ele><time>2026-03-28T15:14:32Z</time></trkpt><trkpt lat="43.818935941345615" lon="11.121930401515844"><ele>34.0</ele><time>2026-03-28T15:14:36Z</time></trkpt><trkpt lat="43.81887559136124" lon="11.121895735612686"><ele>34.0</ele><time>2026-03-28T15:14:39Z</time></trkpt><trkpt lat="43.81873708412754" lon="11.121845965404678"><ele>34.0</ele><time>2026-03-28T15:14:41Z</time></trkpt><trkpt lat="43.81862707887952" lon="11.12180231056051"><ele>34.0</ele><time>2026-03-28T15:14:42Z</time></trkpt><trkpt lat="43.81851545090672" lon="11.12175783599564"><ele>34.0</ele><time>2026-03-28T15:14:43Z</time></trkpt><trkpt lat="43.81834774328599" lon="11.121691018462709"><ele>34.0</ele><time>2026-03-28T15:14:44Z</time></trkpt><trkpt lat="43.81811482544142" lon="11.121598219490897"><ele>34.0</ele><time>2026-03-28T15:14:45Z</time></trkpt><trkpt lat="43.817864033322955" lon="11.121507951479257"><ele>34.0</ele><time>2026-03-28T15:14:46Z</time></trkpt><trkpt lat="43.81766054185753" lon="11.12139442725409"><ele>34.0</ele><time>2026-03-28T15:14:47Z</time></trkpt><trkpt lat="43.81747752228124" lon="11.1212811885025"><ele>34.0</ele><time>2026-03-28T15:14:48Z</time></trkpt><trkpt lat="43.8173027328375" lon="11.121178471049635"><ele>34.0</ele><time>2026-03-28T15:14:49Z</time></trkpt><trkpt lat="43.8170911342401" lon="11.121191855291261"><ele>34.0</ele><time>2026-03-28T15:14:50Z</time></trkpt><trkpt lat="43.816914247896435" lon="11.12112211517711"><ele>34.0</ele><time>2026-03-28T15:14:51Z</time></trkpt><trkpt lat="43.816749098837974" lon="11.121074030371386"><ele>34.0</ele><time>2026-03-28T15:14:52Z</time></trkpt><trkpt lat="43.816598651866755" lon="11.121014772672797"><ele>34.0</ele><time>2026-03-28T15:14:53Z</time></trkpt><trkpt lat="43.816462420390515" lon="11.120952432428275"><ele>34.0</ele><time>2026-03-28T15:14:54Z</time></trkpt><trkpt lat="43.816360058575874" lon="11.120825328815451"><ele>34.0</ele><time>2026-03-28T15:14:55Z</time></trkpt><trkpt lat="43.816283794861604" lon="11.120686521750214"><ele>34.0</ele><time>2026-03-28T15:14:56Z</time></trkpt><trkpt lat="43.81621243814721" lon="11.120542845068545"><ele>34.0</ele><time>2026-03-28T15:14:57Z</time></trkpt><trkpt lat="43.81616562237299" lon="11.12037747400093"><ele>34.0</ele><time>2026-03-28T15:14:58Z</time></trkpt><trkpt lat="43.81607971043429" lon="11.120241830935644"><ele>34.0</ele><time>2026-03-28T15:14:59Z</time></trkpt><trkpt lat="43.81598632824858" lon="11.120135397798832"><ele>34.0</ele><time>2026-03-28T15:15:00Z</time></trkpt><trkpt lat="43.81592933596491" lon="11.120004592756267"><ele>34.0</ele><time>2026-03-28T15:15:01Z</time></trkpt><trkpt lat="43.81573084310437" lon="11.120085676368298"><ele>34.0</ele><time>2026-03-28T15:15:02Z</time></trkpt><trkpt lat="43.81559493398799" lon="11.120171597438382"><ele>34.0</ele><time>2026-03-28T15:15:03Z</time></trkpt><trkpt lat="43.815454333680115" lon="11.120289799796945"><ele>34.0</ele><time>2026-03-28T15:15:04Z</time></trkpt><trkpt lat="43.815300512006075" lon="11.120343658569876"><ele>34.0</ele><time>2026-03-28T15:15:05Z</time></trkpt><trkpt lat="43.81516029115525" lon="11.120431933029009"><ele>34.0</ele><time>2026-03-28T15:15:06Z</time></trkpt><trkpt lat="43.81498653481301" lon="11.120378537263232"><ele>34.0</ele><time>2026-03-28T15:15:07Z</time></trkpt><trkpt lat="43.81481530774183" lon="11.120320567817432"><ele>34.0</ele><time>2026-03-28T15:15:08Z</time></trkpt><trkpt lat="43.814627531927655" lon="11.120233434225764"><ele>34.0</ele><time>2026-03-28T15:15:09Z</time></trkpt><trkpt lat="43.81441897560634" lon="11.120143874602142"><ele>34.0</ele><time>2026-03-28T15:15:10Z</time></trkpt><trkpt lat="43.81419884538325" lon="11.12004947530611"><ele>34.0</ele><time>2026-03-28T15:15:11Z</time></trkpt><trkpt lat="43.81397443236477" lon="11.119953968038757"><ele>34.0</ele><time>2026-03-28T15:15:12Z</time></trkpt><trkpt lat="43.81375048381119" lon="11.119856284118358"><ele>34.0</ele><time>2026-03-28T15:15:13Z</time></trkpt><trkpt lat="43.813563849651544" lon="11.119780093556717"><ele>34.0</ele><time>2026-03-28T15:15:14Z</time></trkpt><trkpt lat="43.81337872934206" lon="11.119704953578784"><ele>33.66666666666667</ele><time>2026-03-28T15:15:15Z</time></trkpt><trkpt lat="43.81319392123725" lon="11.119634449060307"><ele>33.333333333333336</ele><time>2026-03-28T15:15:16Z</time></trkpt><trkpt lat="43.8130137127452" lon="11.119562348381558"><ele>33.0</ele><time>2026-03-28T15:15:17Z</time></trkpt><trkpt lat="43.812833840571685" lon="11.119488611158737"><ele>33.333333333333336</ele><time>2026-03-28T15:15:18Z</time></trkpt><trkpt lat="43.81265254225607" lon="11.119410254773133"><ele>33.66666666666667</ele><time>2026-03-28T15:15:19Z</time></trkpt><trkpt lat="43.81246428521846" lon="11.11932744471166"><ele>34.0</ele><time>2026-03-28T15:15:20Z</time></trkpt><trkpt lat="43.81226549939958" lon="11.119239265459267"><ele>34.0</ele><time>2026-03-28T15:15:21Z</time></trkpt><trkpt lat="43.8120550619438" lon="11.119153917872135"><ele>34.0</ele><time>2026-03-28T15:15:22Z</time></trkpt><trkpt lat="43.81183834333054" lon="11.119060853937336"><ele>34.0</ele><time>2026-03-28T15:15:23Z</time></trkpt><trkpt lat="43.811619486718776" lon="11.118972300767481"><ele>34.0</ele><time>2026-03-28T15:15:24Z</time></trkpt><trkpt lat="43.811402619217894" lon="11.118884717924217"><ele>34.0</ele><time>2026-03-28T15:15:25Z</time></trkpt><trkpt lat="43.81119912047824" lon="11.118799722215273"><ele>34.0</ele><time>2026-03-28T15:15:26Z</time></trkpt><trkpt lat="43.81100679867742" lon="11.11871855003754"><ele>33.66666666666667</ele><time>2026-03-28T15:15:27Z</time></trkpt><trkpt lat="43.81081616831346" lon="11.118641599205516"><ele>33.333333333333336</ele><time>2026-03-28T15:15:28Z</time></trkpt><trkpt lat="43.810624759450874" lon="11.118562711134473"><ele>33.0</ele><time>2026-03-28T15:15:29Z</time></trkpt><trkpt lat="43.810432688199" lon="11.118479661021075"><ele>33.0</ele><time>2026-03-28T15:15:30Z</time></trkpt><trkpt lat="43.810242227516916" lon="11.118400284287018"><ele>33.0</ele><time>2026-03-28T15:15:31Z</time></trkpt><trkpt lat="43.81005068575057" lon="11.11832447455576"><ele>33.0</ele><time>2026-03-28T15:15:32Z</time></trkpt><trkpt lat="43.809866903280366" lon="11.118251649401754"><ele>32.666666666666664</ele><time>2026-03-28T15:15:33Z</time></trkpt><trkpt lat="43.80969310295306" lon="11.118180086481756"><ele>32.33333333333333</ele><time>2026-03-28T15:15:34Z</time></trkpt><trkpt lat="43.80953108113251" lon="11.11811035815244"><ele>32.0</ele><time>2026-03-28T15:15:35Z</time></trkpt><trkpt lat="43.809380525111024" lon="11.118046671327601"><ele>32.33333333333333</ele><time>2026-03-28T15:15:36Z</time></trkpt><trkpt lat="43.80922847317653" lon="11.117982077881607"><ele>32.666666666666664</ele><time>2026-03-28T15:15:37Z</time></trkpt><trkpt lat="43.80908010695282" lon="11.117920264397863"><ele>33.0</ele><time>2026-03-28T15:15:38Z</time></trkpt><trkpt lat="43.808932863420615" lon="11.117859162174506"><ele>33.0</ele><time>2026-03-28T15:15:39Z</time></trkpt><trkpt lat="43.8087893997695" lon="11.117801579883734"><ele>33.0</ele><time>2026-03-28T15:15:40Z</time></trkpt><trkpt lat="43.808639919479255" lon="11.117749437584154"><ele>33.0</ele><time>2026-03-28T15:15:41Z</time></trkpt><trkpt lat="43.808484121005726" lon="11.117683987502513"><ele>33.0</ele><time>2026-03-28T15:15:42Z</time></trkpt><trkpt lat="43.808322883428296" lon="11.117615762367555"><ele>33.0</ele><time>2026-03-28T15:15:43Z</time></trkpt><trkpt lat="43.80817109369708" lon="11.117550625504915"><ele>33.0</ele><time>2026-03-28T15:15:44Z</time></trkpt><trkpt lat="43.80803262059379" lon="11.117493685016681"><ele>33.0</ele><time>2026-03-28T15:15:45Z</time></trkpt><trkpt lat="43.80790274554047" lon="11.117436518730074"><ele>33.0</ele><time>2026-03-28T15:15:46Z</time></trkpt><trkpt lat="43.80777975202207" lon="11.11738531205945"><ele>33.0</ele><time>2026-03-28T15:15:47Z</time></trkpt><trkpt lat="43.80765897741525" lon="11.11733703550686"><ele>33.0</ele><time>2026-03-28T15:15:48Z</time></trkpt><trkpt lat="43.80753032293625" lon="11.117288927567417"><ele>33.0</ele><time>2026-03-28T15:15:49Z</time></trkpt><trkpt lat="43.80739338445213" lon="11.117232703000482"><ele>33.0</ele><time>2026-03-28T15:15:50Z</time></trkpt><trkpt lat="43.80724309443217" lon="11.117169839184482"><ele>33.0</ele><time>2026-03-28T15:15:51Z</time></trkpt><trkpt lat="43.80710268482135" lon="11.11710291519514"><ele>33.0</ele><time>2026-03-28T15:15:52Z</time></trkpt><trkpt lat="43.8069728204218" lon="11.11703622255206"><ele>33.0</ele><time>2026-03-28T15:15:53Z</time></trkpt><trkpt lat="43.80685497297133" lon="11.11695053449367"><ele>33.0</ele><time>2026-03-28T15:15:54Z</time></trkpt><trkpt lat="43.80676235724643" lon="11.116817597606866"><ele>33.0</ele><time>2026-03-28T15:15:55Z</time></trkpt><trkpt lat="43.80667934191738" lon="11.116627817446885"><ele>33.0</ele><time>2026-03-28T15:15:56Z</time></trkpt><trkpt lat="43.80658582935993" lon="11.116421509743455"><ele>34.0</ele><time>2026-03-28T15:15:57Z</time></trkpt><trkpt lat="43.806468604829604" lon="11.116205811843146"><ele>35.0</ele><time>2026-03-28T15:15:58Z</time></trkpt><trkpt lat="43.80635187162495" lon="11.115994859338466"><ele>36.0</ele><time>2026-03-28T15:15:59Z</time></trkpt><trkpt lat="43.806250286138855" lon="11.11581010353331"><ele>35.75</ele><time>2026-03-28T15:16:00Z</time></trkpt><trkpt lat="43.806162654499715" lon="11.115640213640381"><ele>35.5</ele><time>2026-03-28T15:16:01Z</time></trkpt><trkpt lat="43.806089045254254" lon="11.115478969798758"><ele>35.25</ele><time>2026-03-28T15:16:02Z</time></trkpt><trkpt lat="43.80604512490505" lon="11.115320856222434"><ele>35.0</ele><time>2026-03-28T15:16:03Z</time></trkpt><trkpt lat="43.80604091698348" lon="11.115154529444272"><ele>35.0</ele><time>2026-03-28T15:16:04Z</time></trkpt><trkpt lat="43.80608402982514" lon="11.11495998090661"><ele>35.0</ele><time>2026-03-28T15:16:05Z</time></trkpt><trkpt lat="43.80609660243657" lon="11.114760842126014"><ele>35.0</ele><time>2026-03-28T15:16:06Z</time></trkpt><trkpt lat="43.80612446474974" lon="11.114571029996782"><ele>35.0</ele><time>2026-03-28T15:16:07Z</time></trkpt><trkpt lat="43.80614570315802" lon="11.114359784585137"><ele>35.33333333333333</ele><time>2026-03-28T15:16:08Z</time></trkpt><trkpt lat="43.80617160507192" lon="11.114129306290137"><ele>35.666666666666664</ele><time>2026-03-28T15:16:09Z</time></trkpt><trkpt lat="43.80620152955685" lon="11.113875492163833"><ele>36.0</ele><time>2026-03-28T15:16:10Z</time></trkpt><trkpt lat="43.80623047588824" lon="11.113598288603127"><ele>35.333333333333336</ele><time>2026-03-28T15:16:11Z</time></trkpt><trkpt lat="43.806261702590426" lon="11.113322049725964"><ele>34.66666666666667</ele><time>2026-03-28T15:16:12Z</time></trkpt><trkpt lat="43.80629504158028" lon="11.113076263620922"><ele>34.0</ele><time>2026-03-28T15:16:13Z</time></trkpt><trkpt lat="43.80632580562851" lon="11.112852218266935"><ele>34.0</ele><time>2026-03-28T15:16:14Z</time></trkpt><trkpt lat="43.806353668251695" lon="11.11262100582459"><ele>34.0</ele><time>2026-03-28T15:16:15Z</time></trkpt><trkpt lat="43.80638191525078" lon="11.112366363821433"><ele>34.0</ele><time>2026-03-28T15:16:16Z</time></trkpt><trkpt lat="43.80640929263115" lon="11.112109319240016"><ele>34.0</ele><time>2026-03-28T15:16:17Z</time></trkpt><trkpt lat="43.80643619998512" lon="11.111858916063717"><ele>34.0</ele><time>2026-03-28T15:16:18Z</time></trkpt><trkpt lat="43.80646846189858" lon="11.111606308763148"><ele>34.0</ele><time>2026-03-28T15:16:19Z</time></trkpt><trkpt lat="43.80650327254396" lon="11.111355815958913"><ele>34.0</ele><time>2026-03-28T15:16:20Z</time></trkpt><trkpt lat="43.80653530039316" lon="11.111102971648217"><ele>34.0</ele><time>2026-03-28T15:16:21Z</time></trkpt><trkpt lat="43.80656497343179" lon="11.110853642743534"><ele>34.0</ele><time>2026-03-28T15:16:22Z</time></trkpt><trkpt lat="43.80658875460986" lon="11.110603750763014"><ele>33.333333333333336</ele><time>2026-03-28T15:16:23Z</time></trkpt><trkpt lat="43.80662095792366" lon="11.110352687026607"><ele>32.666666666666664</ele><time>2026-03-28T15:16:24Z</time></trkpt><trkpt lat="43.80665801858798" lon="11.110079657248324"><ele>32.0</ele><time>2026-03-28T15:16:25Z</time></trkpt><trkpt lat="43.80669238399137" lon="11.109813611897856"><ele>32.0</ele><time>2026-03-28T15:16:26Z</time></trkpt><trkpt lat="43.8067170625478" lon="11.109561888536401"><ele>32.0</ele><time>2026-03-28T15:16:27Z</time></trkpt><trkpt lat="43.806746123405226" lon="11.109322159217873"><ele>32.0</ele><time>2026-03-28T15:16:28Z</time></trkpt><trkpt lat="43.8067779863109" lon="11.10908363080017"><ele>32.33333333333333</ele><time>2026-03-28T15:16:29Z</time></trkpt><trkpt lat="43.80680697633692" lon="11.108858333159699"><ele>32.666666666666664</ele><time>2026-03-28T15:16:30Z</time></trkpt><trkpt lat="43.80683746049452" lon="11.108631261072485"><ele>33.0</ele><time>2026-03-28T15:16:31Z</time></trkpt><trkpt lat="43.8068687446731" lon="11.108395704807505"><ele>33.333333333333336</ele><time>2026-03-28T15:16:32Z</time></trkpt><trkpt lat="43.80689901216228" lon="11.108149789339224"><ele>33.66666666666667</ele><time>2026-03-28T15:16:33Z</time></trkpt><trkpt lat="43.80692976048721" lon="11.10789518802582"><ele>34.0</ele><time>2026-03-28T15:16:34Z</time></trkpt><trkpt lat="43.806957072825575" lon="11.107644102201903"><ele>34.0</ele><time>2026-03-28T15:16:35Z</time></trkpt><trkpt lat="43.806984985269494" lon="11.107403821326622"><ele>34.0</ele><time>2026-03-28T15:16:36Z</time></trkpt><trkpt lat="43.80701449228047" lon="11.107167785135223"><ele>34.0</ele><time>2026-03-28T15:16:37Z</time></trkpt><trkpt lat="43.807043855886505" lon="11.106938942990064"><ele>34.0</ele><time>2026-03-28T15:16:38Z</time></trkpt><trkpt lat="43.80706939062842" lon="11.106729437390628"><ele>34.0</ele><time>2026-03-28T15:16:39Z</time></trkpt><trkpt lat="43.807090626195624" lon="11.10653652618205"><ele>34.0</ele><time>2026-03-28T15:16:40Z</time></trkpt><trkpt lat="43.807111669500934" lon="11.106356721241909"><ele>34.0</ele><time>2026-03-28T15:16:41Z</time></trkpt><trkpt lat="43.80713253159005" lon="11.10619398782802"><ele>34.0</ele><time>2026-03-28T15:16:42Z</time></trkpt><trkpt lat="43.80715295280704" lon="11.106043903477682"><ele>34.0</ele><time>2026-03-28T15:16:43Z</time></trkpt><trkpt lat="43.807164316971715" lon="11.1059050166293"><ele>34.0</ele><time>2026-03-28T15:16:44Z</time></trkpt><trkpt lat="43.80718199385938" lon="11.105785533542704"><ele>34.0</ele><time>2026-03-28T15:16:45Z</time></trkpt><trkpt lat="43.807192091311045" lon="11.105697554603758"><ele>34.0</ele><time>2026-03-28T15:16:46Z</time></trkpt><trkpt lat="43.80720927362575" lon="11.105561590199251"><ele>34.0</ele><time>2026-03-28T15:16:48Z</time></trkpt><trkpt lat="43.807224901636246" lon="11.105415424447932"><ele>34.0</ele><time>2026-03-28T15:16:50Z</time></trkpt><trkpt lat="43.807238230412786" lon="11.105324605223313"><ele>34.0</ele><time>2026-03-28T15:16:51Z</time></trkpt><trkpt lat="43.80724859493263" lon="11.105225902012062"><ele>34.0</ele><time>2026-03-28T15:16:52Z</time></trkpt><trkpt lat="43.80726665412311" lon="11.105117323935092"><ele>34.0</ele><time>2026-03-28T15:16:53Z</time></trkpt><trkpt lat="43.8072764776211" lon="11.105009373208695"><ele>34.0</ele><time>2026-03-28T15:16:54Z</time></trkpt><trkpt lat="43.807287836236185" lon="11.10491392298882"><ele>34.0</ele><time>2026-03-28T15:16:55Z</time></trkpt><trkpt lat="43.80730975362682" lon="11.104742077388806"><ele>34.0</ele><time>2026-03-28T15:16:57Z</time></trkpt><trkpt lat="43.8073204476584" lon="11.104643302346599"><ele>34.0</ele><time>2026-03-28T15:16:58Z</time></trkpt><trkpt lat="43.807331025994564" lon="11.104543287853827"><ele>34.0</ele><time>2026-03-28T15:16:59Z</time></trkpt><trkpt lat="43.80734029514266" lon="11.104453336701695"><ele>34.0</ele><time>2026-03-28T15:17:00Z</time></trkpt><trkpt lat="43.80735158541668" lon="11.104310811930537"><ele>34.0</ele><time>2026-03-28T15:17:02Z</time></trkpt><trkpt lat="43.80737655479436" lon="11.104076420808216"><ele>34.0</ele><time>2026-03-28T15:17:04Z</time></trkpt><trkpt lat="43.807401307692" lon="11.103866194734"><ele>34.0</ele><time>2026-03-28T15:17:05Z</time></trkpt><trkpt lat="43.807455596401645" lon="11.103614094293846"><ele>34.0</ele><time>2026-03-28T15:17:06Z</time></trkpt><trkpt lat="43.80747437974503" lon="11.10332397664872"><ele>34.333333333333336</ele><time>2026-03-28T15:17:07Z</time></trkpt><trkpt lat="43.80750799329461" lon="11.103058216513501"><ele>34.666666666666664</ele><time>2026-03-28T15:17:08Z</time></trkpt><trkpt lat="43.80754697874423" lon="11.10280498032276"><ele>35.0</ele><time>2026-03-28T15:17:09Z</time></trkpt><trkpt lat="43.80758205319257" lon="11.102558663563087"><ele>34.666666666666664</ele><time>2026-03-28T15:17:10Z</time></trkpt><trkpt lat="43.80761473781206" lon="11.102321899547535"><ele>34.333333333333336</ele><time>2026-03-28T15:17:11Z</time></trkpt><trkpt lat="43.80764663315347" lon="11.102087978396707"><ele>34.0</ele><time>2026-03-28T15:17:12Z</time></trkpt><trkpt lat="43.807678535018255" lon="11.101841562628898"><ele>34.0</ele><time>2026-03-28T15:17:13Z</time></trkpt><trkpt lat="43.807711462706536" lon="11.101570382768696"><ele>34.0</ele><time>2026-03-28T15:17:14Z</time></trkpt><trkpt lat="43.80774620574516" lon="11.101280384071567"><ele>34.0</ele><time>2026-03-28T15:17:15Z</time></trkpt><trkpt lat="43.80778109168293" lon="11.101000729150881"><ele>34.0</ele><time>2026-03-28T15:17:16Z</time></trkpt><trkpt lat="43.80781642868281" lon="11.100730653810096"><ele>34.0</ele><time>2026-03-28T15:17:17Z</time></trkpt><trkpt lat="43.807850163282346" lon="11.100455807621424"><ele>34.0</ele><time>2026-03-28T15:17:18Z</time></trkpt><trkpt lat="43.807881467048" lon="11.100170107552682"><ele>34.0</ele><time>2026-03-28T15:17:19Z</time></trkpt><trkpt lat="43.80791394505557" lon="11.09988359436685"><ele>34.0</ele><time>2026-03-28T15:17:20Z</time></trkpt><trkpt lat="43.807945617643234" lon="11.099611341998939"><ele>34.0</ele><time>2026-03-28T15:17:21Z</time></trkpt><trkpt lat="43.807976447308" lon="11.099361422109697"><ele>34.0</ele><time>2026-03-28T15:17:22Z</time></trkpt><trkpt lat="43.80800458181567" lon="11.09912529645396"><ele>34.0</ele><time>2026-03-28T15:17:23Z</time></trkpt><trkpt lat="43.80803743709973" lon="11.098881254942603"><ele>34.0</ele><time>2026-03-28T15:17:24Z</time></trkpt><trkpt lat="43.80806658478873" lon="11.098637079035589"><ele>33.66666666666667</ele><time>2026-03-28T15:17:25Z</time></trkpt><trkpt lat="43.80809541997742" lon="11.098399405371831"><ele>33.333333333333336</ele><time>2026-03-28T15:17:26Z</time></trkpt><trkpt lat="43.8081200221791" lon="11.098173393000552"><ele>33.0</ele><time>2026-03-28T15:17:27Z</time></trkpt><trkpt lat="43.80814874604391" lon="11.097943845255987"><ele>33.0</ele><time>2026-03-28T15:17:28Z</time></trkpt><trkpt lat="43.8081759794448" lon="11.097719705535196"><ele>33.0</ele><time>2026-03-28T15:17:29Z</time></trkpt><trkpt lat="43.80820496452553" lon="11.097502628355"><ele>33.0</ele><time>2026-03-28T15:17:30Z</time></trkpt><trkpt lat="43.80823275232246" lon="11.097297803952921"><ele>32.75</ele><time>2026-03-28T15:17:31Z</time></trkpt><trkpt lat="43.808261352761896" lon="11.097109966646633"><ele>32.5</ele><time>2026-03-28T15:17:32Z</time></trkpt><trkpt lat="43.80828253681811" lon="11.09693670732227"><ele>32.25</ele><time>2026-03-28T15:17:33Z</time></trkpt><trkpt lat="43.808305146234595" lon="11.096786315438"><ele>32.0</ele><time>2026-03-28T15:17:34Z</time></trkpt><trkpt lat="43.808324805914374" lon="11.096656430867425"><ele>32.25</ele><time>2026-03-28T15:17:35Z</time></trkpt><trkpt lat="43.808342165555416" lon="11.096528138732145"><ele>32.5</ele><time>2026-03-28T15:17:36Z</time></trkpt><trkpt lat="43.80836114624015" lon="11.096390684500946"><ele>32.75</ele><time>2026-03-28T15:17:37Z</time></trkpt><trkpt lat="43.8083787489446" lon="11.096220117977593"><ele>33.0</ele><time>2026-03-28T15:17:38Z</time></trkpt><trkpt lat="43.80840479266736" lon="11.096011672778303"><ele>33.0</ele><time>2026-03-28T15:17:39Z</time></trkpt><trkpt lat="43.80843951568159" lon="11.095765778543406"><ele>33.0</ele><time>2026-03-28T15:17:40Z</time></trkpt><trkpt lat="43.80848222475561" lon="11.095486947094784"><ele>33.0</ele><time>2026-03-28T15:17:41Z</time></trkpt><trkpt lat="43.80852545275879" lon="11.09517542894287"><ele>33.0</ele><time>2026-03-28T15:17:42Z</time></trkpt><trkpt lat="43.80857579637564" lon="11.094851754976302"><ele>33.0</ele><time>2026-03-28T15:17:43Z</time></trkpt><trkpt lat="43.80862258980984" lon="11.094541971835994"><ele>33.0</ele><time>2026-03-28T15:17:44Z</time></trkpt><trkpt lat="43.8086645839007" lon="11.09425160700567"><ele>33.0</ele><time>2026-03-28T15:17:45Z</time></trkpt><trkpt lat="43.808709548257745" lon="11.09397520087324"><ele>33.0</ele><time>2026-03-28T15:17:46Z</time></trkpt><trkpt lat="43.80875557439151" lon="11.093697333389288"><ele>33.0</ele><time>2026-03-28T15:17:47Z</time></trkpt><trkpt lat="43.80879943898215" lon="11.093424143488217"><ele>33.0</ele><time>2026-03-28T15:17:48Z</time></trkpt><trkpt lat="43.80884078090148" lon="11.093167220022732"><ele>33.0</ele><time>2026-03-28T15:17:49Z</time></trkpt><trkpt lat="43.80887949777816" lon="11.0929192078911"><ele>33.666666666666664</ele><time>2026-03-28T15:17:50Z</time></trkpt><trkpt lat="43.80891564149075" lon="11.092672321536456"><ele>34.33333333333333</ele><time>2026-03-28T15:17:51Z</time></trkpt><trkpt lat="43.80895203465977" lon="11.092424682732867"><ele>35.0</ele><time>2026-03-28T15:17:52Z</time></trkpt><trkpt lat="43.80899875147848" lon="11.092173313293817"><ele>35.0</ele><time>2026-03-28T15:17:53Z</time></trkpt><trkpt lat="43.809044728984894" lon="11.091917639637765"><ele>35.0</ele><time>2026-03-28T15:17:54Z</time></trkpt><trkpt lat="43.80908783296087" lon="11.091658991807135"><ele>35.0</ele><time>2026-03-28T15:17:55Z</time></trkpt><trkpt lat="43.80912374679312" lon="11.091415198798673"><ele>34.666666666666664</ele><time>2026-03-28T15:17:56Z</time></trkpt><trkpt lat="43.80915732719962" lon="11.091186706476053"><ele>34.333333333333336</ele><time>2026-03-28T15:17:57Z</time></trkpt><trkpt lat="43.80918844692987" lon="11.090980186972368"><ele>34.0</ele><time>2026-03-28T15:17:58Z</time></trkpt><trkpt lat="43.80922315168684" lon="11.090777433616925"><ele>34.0</ele><time>2026-03-28T15:17:59Z</time></trkpt><trkpt lat="43.809257916167304" lon="11.090570713212733"><ele>34.0</ele><time>2026-03-28T15:18:00Z</time></trkpt><trkpt lat="43.80929328193767" lon="11.090358270882403"><ele>34.0</ele><time>2026-03-28T15:18:01Z</time></trkpt><trkpt lat="43.809328353842865" lon="11.090146306839767"><ele>34.0</ele><time>2026-03-28T15:18:02Z</time></trkpt><trkpt lat="43.80936035226711" lon="11.089953336294768"><ele>34.0</ele><time>2026-03-28T15:18:03Z</time></trkpt><trkpt lat="43.8093891092381" lon="11.089774416811636"><ele>34.0</ele><time>2026-03-28T15:18:04Z</time></trkpt><trkpt lat="43.80941690802047" lon="11.08960629673864"><ele>34.0</ele><time>2026-03-28T15:18:05Z</time></trkpt><trkpt lat="43.80944690414783" lon="11.089428733086576"><ele>34.0</ele><time>2026-03-28T15:18:06Z</time></trkpt><trkpt lat="43.80948125831635" lon="11.08924983092301"><ele>34.0</ele><time>2026-03-28T15:18:07Z</time></trkpt><trkpt lat="43.80951810691888" lon="11.089072107581403"><ele>34.0</ele><time>2026-03-28T15:18:08Z</time></trkpt><trkpt lat="43.80955607679392" lon="11.088898430818501"><ele>34.0</ele><time>2026-03-28T15:18:09Z</time></trkpt><trkpt lat="43.80959230214959" lon="11.088730140092546"><ele>34.0</ele><time>2026-03-28T15:18:10Z</time></trkpt><trkpt lat="43.80962671812502" lon="11.088563347355382"><ele>34.0</ele><time>2026-03-28T15:18:11Z</time></trkpt><trkpt lat="43.80966263412782" lon="11.088398241395915"><ele>34.0</ele><time>2026-03-28T15:18:12Z</time></trkpt><trkpt lat="43.80969702626282" lon="11.088237750071144"><ele>34.0</ele><time>2026-03-28T15:18:13Z</time></trkpt><trkpt lat="43.80972678610216" lon="11.08808788352351"><ele>34.0</ele><time>2026-03-28T15:18:14Z</time></trkpt><trkpt lat="43.80975485899785" lon="11.08795049898187"><ele>34.0</ele><time>2026-03-28T15:18:15Z</time></trkpt><trkpt lat="43.80977831995361" lon="11.08781824621025"><ele>34.0</ele><time>2026-03-28T15:18:16Z</time></trkpt><trkpt lat="43.80980305572567" lon="11.087692422805873"><ele>34.0</ele><time>2026-03-28T15:18:17Z</time></trkpt><trkpt lat="43.809827573896975" lon="11.087563317093917"><ele>34.0</ele><time>2026-03-28T15:18:18Z</time></trkpt><trkpt lat="43.80985039066314" lon="11.087432412839945"><ele>34.16666666666667</ele><time>2026-03-28T15:18:19Z</time></trkpt><trkpt lat="43.80987172702322" lon="11.087305316418425"><ele>34.333333333333336</ele><time>2026-03-28T15:18:20Z</time></trkpt><trkpt lat="43.809891223211615" lon="11.087190956993956"><ele>34.5</ele><time>2026-03-28T15:18:21Z</time></trkpt><trkpt lat="43.80991215979844" lon="11.08708631483085"><ele>34.666666666666664</ele><time>2026-03-28T15:18:22Z</time></trkpt><trkpt lat="43.809932340652225" lon="11.086982806105928"><ele>34.83333333333333</ele><time>2026-03-28T15:18:23Z</time></trkpt><trkpt lat="43.80995268834783" lon="11.086876989118265"><ele>35.0</ele><time>2026-03-28T15:18:24Z</time></trkpt><trkpt lat="43.80997690964308" lon="11.08675753820993"><ele>35.0</ele><time>2026-03-28T15:18:25Z</time></trkpt><trkpt lat="43.81000336961505" lon="11.086624978496596"><ele>35.0</ele><time>2026-03-28T15:18:26Z</time></trkpt><trkpt lat="43.81003000881606" lon="11.086489712714291"><ele>35.0</ele><time>2026-03-28T15:18:27Z</time></trkpt><trkpt lat="43.810052211437615" lon="11.086355973227514"><ele>35.0</ele><time>2026-03-28T15:18:28Z</time></trkpt><trkpt lat="43.81007460522332" lon="11.086229254747481"><ele>35.0</ele><time>2026-03-28T15:18:29Z</time></trkpt><trkpt lat="43.81009822763849" lon="11.086110863292367"><ele>35.0</ele><time>2026-03-28T15:18:30Z</time></trkpt><trkpt lat="43.81011847798921" lon="11.085992472381795"><ele>35.0</ele><time>2026-03-28T15:18:31Z</time></trkpt><trkpt lat="43.81013833176863" lon="11.085875180703084"><ele>35.0</ele><time>2026-03-28T15:18:32Z</time></trkpt><trkpt lat="43.81015521125607" lon="11.08578563995591"><ele>35.0</ele><time>2026-03-28T15:18:33Z</time></trkpt><trkpt lat="43.81017035734331" lon="11.085677827911447"><ele>35.0</ele><time>2026-03-28T15:18:36Z</time></trkpt><trkpt lat="43.81018556018277" lon="11.085579379896625"><ele>35.0</ele><time>2026-03-28T15:18:39Z</time></trkpt><trkpt lat="43.81021390481987" lon="11.085422050223517"><ele>35.0</ele><time>2026-03-28T15:18:41Z</time></trkpt><trkpt lat="43.810244794264754" lon="11.085277006355922"><ele>35.0</ele><time>2026-03-28T15:18:42Z</time></trkpt><trkpt lat="43.810267006688974" lon="11.085148017852417"><ele>35.0</ele><time>2026-03-28T15:18:43Z</time></trkpt><trkpt lat="43.8102935524661" lon="11.085015150543414"><ele>35.0</ele><time>2026-03-28T15:18:44Z</time></trkpt><trkpt lat="43.81031211233685" lon="11.084900459387455"><ele>35.0</ele><time>2026-03-28T15:18:45Z</time></trkpt><trkpt lat="43.8103291656045" lon="11.084799829482439"><ele>35.0</ele><time>2026-03-28T15:18:46Z</time></trkpt><trkpt lat="43.810346098272696" lon="11.084705598343959"><ele>35.0</ele><time>2026-03-28T15:18:47Z</time></trkpt><trkpt lat="43.81036480984783" lon="11.084613629095555"><ele>35.0</ele><time>2026-03-28T15:18:48Z</time></trkpt><trkpt lat="43.810382371133265" lon="11.08451325117001"><ele>35.0</ele><time>2026-03-28T15:18:49Z</time></trkpt><trkpt lat="43.81040629323917" lon="11.084405925330907"><ele>35.0</ele><time>2026-03-28T15:18:50Z</time></trkpt><trkpt lat="43.810428073483294" lon="11.084295581458996"><ele>35.0</ele><time>2026-03-28T15:18:51Z</time></trkpt><trkpt lat="43.810447991927774" lon="11.084190679587806"><ele>35.0</ele><time>2026-03-28T15:18:52Z</time></trkpt><trkpt lat="43.81046372109393" lon="11.084097674370863"><ele>35.0</ele><time>2026-03-28T15:18:53Z</time></trkpt><trkpt lat="43.81049334243325" lon="11.08395844170648"><ele>35.0</ele><time>2026-03-28T15:18:55Z</time></trkpt><trkpt lat="43.81051646428297" lon="11.083848742110083"><ele>35.0</ele><time>2026-03-28T15:18:57Z</time></trkpt><trkpt lat="43.810535430771964" lon="11.083754884202163"><ele>35.0</ele><time>2026-03-28T15:18:59Z</time></trkpt><trkpt lat="43.81055285042899" lon="11.08365647490033"><ele>35.0</ele><time>2026-03-28T15:19:01Z</time></trkpt><trkpt lat="43.81057980273049" lon="11.083528944510938"><ele>35.0</ele><time>2026-03-28T15:19:03Z</time></trkpt><trkpt lat="43.81061166768724" lon="11.083387276443986"><ele>35.0</ele><time>2026-03-28T15:19:05Z</time></trkpt><trkpt lat="43.810641453774785" lon="11.083243980958478"><ele>35.0</ele><time>2026-03-28T15:19:07Z</time></trkpt><trkpt lat="43.81067582897754" lon="11.083097964958977"><ele>35.0</ele><time>2026-03-28T15:19:09Z</time></trkpt><trkpt lat="43.81070135950185" lon="11.082932601750848"><ele>35.0</ele><time>2026-03-28T15:19:11Z</time></trkpt><trkpt lat="43.81071303511541" lon="11.082836966482962"><ele>34.8</ele><time>2026-03-28T15:19:12Z</time></trkpt><trkpt lat="43.810729273373546" lon="11.082731791057403"><ele>34.6</ele><time>2026-03-28T15:19:13Z</time></trkpt><trkpt lat="43.81074502025826" lon="11.082629778704279"><ele>34.4</ele><time>2026-03-28T15:19:14Z</time></trkpt><trkpt lat="43.81077208239446" lon="11.08250706948955"><ele>34.2</ele><time>2026-03-28T15:19:15Z</time></trkpt><trkpt lat="43.810809248387805" lon="11.082357595072395"><ele>34.0</ele><time>2026-03-28T15:19:16Z</time></trkpt><trkpt lat="43.81085080142162" lon="11.082176531235415"><ele>34.0</ele><time>2026-03-28T15:19:17Z</time></trkpt><trkpt lat="43.81090088673326" lon="11.081940165227058"><ele>34.0</ele><time>2026-03-28T15:19:18Z</time></trkpt><trkpt lat="43.810943547547105" lon="11.08165215831574"><ele>34.0</ele><time>2026-03-28T15:19:19Z</time></trkpt><trkpt lat="43.81100020807258" lon="11.081340746075202"><ele>34.0</ele><time>2026-03-28T15:19:20Z</time></trkpt><trkpt lat="43.8110576451396" lon="11.081022293105006"><ele>34.0</ele><time>2026-03-28T15:19:21Z</time></trkpt><trkpt lat="43.811115217582916" lon="11.080703184946238"><ele>34.0</ele><time>2026-03-28T15:19:22Z</time></trkpt><trkpt lat="43.811177320926994" lon="11.080380203992934"><ele>34.0</ele><time>2026-03-28T15:19:24Z</time></trkpt><trkpt lat="43.8112281348399" lon="11.080124356714311"><ele>34.0</ele><time>2026-03-28T15:19:25Z</time></trkpt><trkpt lat="43.811276722099414" lon="11.079868197829803"><ele>34.0</ele><time>2026-03-28T15:19:26Z</time></trkpt><trkpt lat="43.81132360064851" lon="11.079627930600154"><ele>34.0</ele><time>2026-03-28T15:19:27Z</time></trkpt><trkpt lat="43.81136667595327" lon="11.079377741417689"><ele>34.0</ele><time>2026-03-28T15:19:28Z</time></trkpt><trkpt lat="43.81140156538806" lon="11.07913647573188"><ele>34.0</ele><time>2026-03-28T15:19:29Z</time></trkpt><trkpt lat="43.81143325355573" lon="11.078924029572722"><ele>34.0</ele><time>2026-03-28T15:19:30Z</time></trkpt><trkpt lat="43.811463188589535" lon="11.078725770483326"><ele>34.0</ele><time>2026-03-28T15:19:31Z</time></trkpt><trkpt lat="43.81149482306618" lon="11.078554014618794"><ele>34.0</ele><time>2026-03-28T15:19:32Z</time></trkpt><trkpt lat="43.81152021632248" lon="11.078402122380647"><ele>34.0</ele><time>2026-03-28T15:19:33Z</time></trkpt><trkpt lat="43.81154282047095" lon="11.078280910213381"><ele>34.0</ele><time>2026-03-28T15:19:34Z</time></trkpt><trkpt lat="43.81155703409811" lon="11.078180707511967"><ele>34.0</ele><time>2026-03-28T15:19:35Z</time></trkpt><trkpt lat="43.81160756259439" lon="11.078071268956696"><ele>34.0</ele><time>2026-03-28T15:19:37Z</time></trkpt><trkpt lat="43.81167855754535" lon="11.078180034103822"><ele>34.0</ele><time>2026-03-28T15:19:39Z</time></trkpt><trkpt lat="43.811738380703886" lon="11.078209460936971"><ele>34.0</ele><time>2026-03-28T15:19:41Z</time></trkpt></trkseg></trk></gpx>